<?xml version="1.0" encoding="UTF-8" standalone="no" ?>
  <gpx version="1.0" creator="Loctome.com">
  <metadata>
  <link href="https://play.google.com/store/apps/details?id=com.loctome.app.loctome">
      <text>Loctome Live Track GPS</text>
  </link>
  <desc>File created by Loctome Android Client No Limits Edition</desc>
  <time>2016-06-30T10:44:39Z</time>
  </metadata>
  <trk>
    <name>2016-06-30T10:44:39Z</name>
    <trkseg>
      <trkpt lat="40.42201989" lon="-5.30065066"><ele>1889</ele><speed>0.00</speed><time>2016-06-30T10:44:40Z</time><pdop>15.0</pdop><geoidheight>54.00</geoidheight><course>0.0</course><type>1</type></trkpt>
      <trkpt lat="40.42202803" lon="-5.30063913"><ele>1895</ele><speed>0.00</speed><time>2016-06-30T10:45:40Z</time><pdop>8.0</pdop><geoidheight>54.00</geoidheight><course>0.0</course><type>1</type></trkpt>
      <trkpt lat="40.42202326" lon="-5.30063745"><ele>1897</ele><speed>0.00</speed><time>2016-06-30T10:46:40Z</time><pdop>7.0</pdop><geoidheight>54.00</geoidheight><course>0.0</course><type>1</type></trkpt>
      <trkpt lat="40.42196258" lon="-5.30055721"><ele>1905</ele><speed>0.00</speed><time>2016-06-30T10:47:40Z</time><pdop>3.0</pdop><geoidheight>54.00</geoidheight><course>0.0</course><type>1</type></trkpt>
      <trkpt lat="40.42196269" lon="-5.30055654"><ele>1905</ele><speed>0.00</speed><time>2016-06-30T10:48:40Z</time><pdop>3.0</pdop><geoidheight>54.00</geoidheight><course>0.0</course><type>1</type></trkpt>
      <trkpt lat="40.42191233" lon="-5.30059048"><ele>1911</ele><speed>0.85</speed><time>2016-06-30T10:48:52Z</time><pdop>3.0</pdop><geoidheight>54.00</geoidheight><course>231.7</course><type>1</type></trkpt>
      <trkpt lat="40.42195081" lon="-5.30054067"><ele>1913</ele><speed>0.56</speed><time>2016-06-30T10:48:58Z</time><pdop>3.0</pdop><geoidheight>54.00</geoidheight><course>59.6</course><type>1</type></trkpt>
      <trkpt lat="40.42191806" lon="-5.30055692"><ele>1922</ele><speed>0.00</speed><time>2016-06-30T10:49:58Z</time><pdop>3.0</pdop><geoidheight>54.00</geoidheight><course>0.0</course><type>1</type></trkpt>
      <trkpt lat="40.42189956" lon="-5.30055134"><ele>1924</ele><speed>0.00</speed><time>2016-06-30T10:50:58Z</time><pdop>10.0</pdop><geoidheight>54.00</geoidheight><course>0.0</course><type>1</type></trkpt>
      <trkpt lat="40.42191711" lon="-5.30059297"><ele>1924</ele><speed>0.00</speed><time>2016-06-30T10:51:58Z</time><pdop>3.0</pdop><geoidheight>54.00</geoidheight><course>0.0</course><type>1</type></trkpt>
      <trkpt lat="40.42185333" lon="-5.3005531"><ele>1927</ele><speed>1.15</speed><time>2016-06-30T10:52:55Z</time><pdop>4.0</pdop><geoidheight>54.00</geoidheight><course>183.7</course><type>1</type></trkpt>
      <trkpt lat="40.42180644" lon="-5.30063049"><ele>1925</ele><speed>1.33</speed><time>2016-06-30T10:53:00Z</time><pdop>4.0</pdop><geoidheight>54.00</geoidheight><course>214.5</course><type>1</type></trkpt>
      <trkpt lat="40.42173917" lon="-5.30068704"><ele>1930</ele><speed>1.34</speed><time>2016-06-30T10:53:07Z</time><pdop>4.0</pdop><geoidheight>54.00</geoidheight><course>225.6</course><type>1</type></trkpt>
      <trkpt lat="40.42171278" lon="-5.30073876"><ele>1932</ele><speed>0.00</speed><time>2016-06-30T10:54:07Z</time><pdop>3.0</pdop><geoidheight>54.00</geoidheight><course>0.0</course><type>1</type></trkpt>
      <trkpt lat="40.42171291" lon="-5.30073955"><ele>1931</ele><speed>0.00</speed><time>2016-06-30T10:55:07Z</time><pdop>3.0</pdop><geoidheight>54.00</geoidheight><course>0.0</course><type>1</type></trkpt>
      <trkpt lat="40.42171286" lon="-5.30074043"><ele>1931</ele><speed>0.00</speed><time>2016-06-30T10:56:07Z</time><pdop>9.0</pdop><geoidheight>54.00</geoidheight><course>0.0</course><type>1</type></trkpt>
      <trkpt lat="40.42171313" lon="-5.30074101"><ele>1931</ele><speed>0.00</speed><time>2016-06-30T10:57:07Z</time><pdop>9.0</pdop><geoidheight>54.00</geoidheight><course>0.0</course><type>1</type></trkpt>
      <trkpt lat="40.42171328" lon="-5.30074178"><ele>1931</ele><speed>0.00</speed><time>2016-06-30T10:58:07Z</time><pdop>9.0</pdop><geoidheight>54.00</geoidheight><course>0.0</course><type>1</type></trkpt>
      <trkpt lat="40.42171328" lon="-5.30074185"><ele>1931</ele><speed>0.00</speed><time>2016-06-30T10:59:07Z</time><pdop>10.0</pdop><geoidheight>54.00</geoidheight><course>0.0</course><type>1</type></trkpt>
      <trkpt lat="40.42172647" lon="-5.30076231"><ele>1927</ele><speed>0.00</speed><time>2016-06-30T11:00:07Z</time><pdop>3.0</pdop><geoidheight>54.00</geoidheight><course>0.0</course><type>1</type></trkpt>
      <trkpt lat="40.42172684" lon="-5.3007624"><ele>1927</ele><speed>0.00</speed><time>2016-06-30T11:01:07Z</time><pdop>3.0</pdop><geoidheight>54.00</geoidheight><course>0.0</course><type>1</type></trkpt>
      <trkpt lat="40.42172148" lon="-5.30076519"><ele>1926</ele><speed>0.00</speed><time>2016-06-30T11:02:07Z</time><pdop>13.0</pdop><geoidheight>54.00</geoidheight><course>0.0</course><type>1</type></trkpt>
      <trkpt lat="40.42172143" lon="-5.30076512"><ele>1926</ele><speed>0.00</speed><time>2016-06-30T11:03:07Z</time><pdop>13.0</pdop><geoidheight>54.00</geoidheight><course>0.0</course><type>1</type></trkpt>
      <trkpt lat="40.42172152" lon="-5.30076499"><ele>1926</ele><speed>0.00</speed><time>2016-06-30T11:04:07Z</time><pdop>19.0</pdop><geoidheight>54.00</geoidheight><course>0.0</course><type>1</type></trkpt>
      <trkpt lat="40.42172157" lon="-5.30076511"><ele>1926</ele><speed>0.00</speed><time>2016-06-30T11:05:07Z</time><pdop>10.0</pdop><geoidheight>54.00</geoidheight><course>0.0</course><type>1</type></trkpt>
      <trkpt lat="40.4217215" lon="-5.30076521"><ele>1926</ele><speed>0.00</speed><time>2016-06-30T11:06:07Z</time><pdop>10.0</pdop><geoidheight>54.00</geoidheight><course>0.0</course><type>1</type></trkpt>
      <trkpt lat="40.42172178" lon="-5.30076535"><ele>1926</ele><speed>0.00</speed><time>2016-06-30T11:07:07Z</time><pdop>10.0</pdop><geoidheight>54.00</geoidheight><course>0.0</course><type>1</type></trkpt>
      <trkpt lat="40.42172181" lon="-5.30076548"><ele>1926</ele><speed>0.00</speed><time>2016-06-30T11:08:07Z</time><pdop>3.0</pdop><geoidheight>54.00</geoidheight><course>0.0</course><type>1</type></trkpt>
      <trkpt lat="40.42172186" lon="-5.30076554"><ele>1926</ele><speed>0.00</speed><time>2016-06-30T11:09:07Z</time><pdop>9.0</pdop><geoidheight>54.00</geoidheight><course>0.0</course><type>1</type></trkpt>
      <trkpt lat="40.42172213" lon="-5.30076571"><ele>1926</ele><speed>0.00</speed><time>2016-06-30T11:10:07Z</time><pdop>9.0</pdop><geoidheight>54.00</geoidheight><course>0.0</course><type>1</type></trkpt>
      <trkpt lat="40.42172242" lon="-5.30076597"><ele>1926</ele><speed>0.00</speed><time>2016-06-30T11:11:07Z</time><pdop>3.0</pdop><geoidheight>54.00</geoidheight><course>0.0</course><type>1</type></trkpt>
      <trkpt lat="40.42172244" lon="-5.30076609"><ele>1926</ele><speed>0.00</speed><time>2016-06-30T11:12:07Z</time><pdop>3.0</pdop><geoidheight>54.00</geoidheight><course>0.0</course><type>1</type></trkpt>
      <trkpt lat="40.42172251" lon="-5.30076626"><ele>1926</ele><speed>0.00</speed><time>2016-06-30T11:13:07Z</time><pdop>9.0</pdop><geoidheight>54.00</geoidheight><course>0.0</course><type>1</type></trkpt>
      <trkpt lat="40.42172251" lon="-5.30076643"><ele>1926</ele><speed>0.00</speed><time>2016-06-30T11:14:07Z</time><pdop>9.0</pdop><geoidheight>54.00</geoidheight><course>0.0</course><type>1</type></trkpt>
      <trkpt lat="40.42172241" lon="-5.30076652"><ele>1926</ele><speed>0.00</speed><time>2016-06-30T11:15:07Z</time><pdop>10.0</pdop><geoidheight>54.00</geoidheight><course>0.0</course><type>1</type></trkpt>
      <trkpt lat="40.42172241" lon="-5.30076663"><ele>1926</ele><speed>0.00</speed><time>2016-06-30T11:16:07Z</time><pdop>9.0</pdop><geoidheight>54.00</geoidheight><course>0.0</course><type>1</type></trkpt>
      <trkpt lat="40.42171955" lon="-5.30076598"><ele>1926</ele><speed>0.00</speed><time>2016-06-30T11:17:07Z</time><pdop>3.0</pdop><geoidheight>54.00</geoidheight><course>0.0</course><type>1</type></trkpt>
      <trkpt lat="40.42171933" lon="-5.30076579"><ele>1926</ele><speed>0.00</speed><time>2016-06-30T11:18:07Z</time><pdop>4.0</pdop><geoidheight>54.00</geoidheight><course>0.0</course><type>1</type></trkpt>
      <trkpt lat="40.42171937" lon="-5.30076603"><ele>1926</ele><speed>0.00</speed><time>2016-06-30T11:19:07Z</time><pdop>3.0</pdop><geoidheight>54.00</geoidheight><course>0.0</course><type>1</type></trkpt>
      <trkpt lat="40.42171957" lon="-5.30076623"><ele>1926</ele><speed>0.00</speed><time>2016-06-30T11:20:07Z</time><pdop>3.0</pdop><geoidheight>54.00</geoidheight><course>0.0</course><type>1</type></trkpt>
      <trkpt lat="40.42171034" lon="-5.30078077"><ele>1925</ele><speed>0.00</speed><time>2016-06-30T11:21:07Z</time><pdop>3.0</pdop><geoidheight>54.00</geoidheight><course>0.0</course><type>1</type></trkpt>
      <trkpt lat="40.42172208" lon="-5.30078578"><ele>1924</ele><speed>0.00</speed><time>2016-06-30T11:22:07Z</time><pdop>3.0</pdop><geoidheight>54.00</geoidheight><course>0.0</course><type>1</type></trkpt>
      <trkpt lat="40.4217121" lon="-5.30079739"><ele>1920</ele><speed>0.00</speed><time>2016-06-30T11:23:07Z</time><pdop>3.0</pdop><geoidheight>54.00</geoidheight><course>0.0</course><type>1</type></trkpt>
      <trkpt lat="40.42171297" lon="-5.30079717"><ele>1920</ele><speed>0.00</speed><time>2016-06-30T11:24:07Z</time><pdop>9.0</pdop><geoidheight>54.00</geoidheight><course>0.0</course><type>1</type></trkpt>
      <trkpt lat="40.42171364" lon="-5.30079771"><ele>1920</ele><speed>0.00</speed><time>2016-06-30T11:25:07Z</time><pdop>9.0</pdop><geoidheight>54.00</geoidheight><course>0.0</course><type>1</type></trkpt>
      <trkpt lat="40.42171398" lon="-5.30079789"><ele>1920</ele><speed>0.00</speed><time>2016-06-30T11:26:07Z</time><pdop>3.0</pdop><geoidheight>54.00</geoidheight><course>0.0</course><type>1</type></trkpt>
      <trkpt lat="40.4217143" lon="-5.30079823"><ele>1920</ele><speed>0.00</speed><time>2016-06-30T11:27:07Z</time><pdop>9.0</pdop><geoidheight>54.00</geoidheight><course>0.0</course><type>1</type></trkpt>
      <trkpt lat="40.42173068" lon="-5.30080887"><ele>1920</ele><speed>0.00</speed><time>2016-06-30T11:28:07Z</time><pdop>4.0</pdop><geoidheight>54.00</geoidheight><course>0.0</course><type>1</type></trkpt>
      <trkpt lat="40.42177072" lon="-5.30087635"><ele>1919</ele><speed>0.00</speed><time>2016-06-30T11:28:25Z</time><pdop>3.0</pdop><geoidheight>54.00</geoidheight><course>0.0</course><type>1</type></trkpt>
      <trkpt lat="40.42177226" lon="-5.30086786"><ele>1919</ele><speed>0.00</speed><time>2016-06-30T11:29:25Z</time><pdop>3.0</pdop><geoidheight>54.00</geoidheight><course>0.0</course><type>1</type></trkpt>
      <trkpt lat="40.42177227" lon="-5.30086734"><ele>1919</ele><speed>0.00</speed><time>2016-06-30T11:30:25Z</time><pdop>9.0</pdop><geoidheight>54.00</geoidheight><course>0.0</course><type>1</type></trkpt>
      <trkpt lat="40.42177204" lon="-5.30086675"><ele>1919</ele><speed>0.00</speed><time>2016-06-30T11:31:25Z</time><pdop>9.0</pdop><geoidheight>54.00</geoidheight><course>0.0</course><type>1</type></trkpt>
      <trkpt lat="40.42176297" lon="-5.30085049"><ele>1922</ele><speed>0.00</speed><time>2016-06-30T11:32:25Z</time><pdop>3.0</pdop><geoidheight>54.00</geoidheight><course>0.0</course><type>1</type></trkpt>
      <trkpt lat="40.42181951" lon="-5.30089499"><ele>1921</ele><speed>1.80</speed><time>2016-06-30T11:32:42Z</time><pdop>3.0</pdop><geoidheight>54.00</geoidheight><course>37.7</course><type>1</type></trkpt>
      <trkpt lat="40.42187244" lon="-5.30091204"><ele>1919</ele><speed>3.51</speed><time>2016-06-30T11:32:44Z</time><pdop>3.0</pdop><geoidheight>54.00</geoidheight><course>345.0</course><type>1</type></trkpt>
      <trkpt lat="40.42191964" lon="-5.30095335"><ele>1919</ele><speed>3.52</speed><time>2016-06-30T11:32:46Z</time><pdop>3.0</pdop><geoidheight>54.00</geoidheight><course>328.1</course><type>1</type></trkpt>
      <trkpt lat="40.42200025" lon="-5.30100949"><ele>1919</ele><speed>5.50</speed><time>2016-06-30T11:32:48Z</time><pdop>3.0</pdop><geoidheight>54.00</geoidheight><course>332.5</course><type>1</type></trkpt>
      <trkpt lat="40.42206993" lon="-5.30109376"><ele>1917</ele><speed>5.69</speed><time>2016-06-30T11:32:50Z</time><pdop>4.0</pdop><geoidheight>54.00</geoidheight><course>313.7</course><type>1</type></trkpt>
      <trkpt lat="40.42216389" lon="-5.30117244"><ele>1915</ele><speed>7.27</speed><time>2016-06-30T11:32:52Z</time><pdop>6.0</pdop><geoidheight>54.00</geoidheight><course>326.2</course><type>1</type></trkpt>
      <trkpt lat="40.42227482" lon="-5.30117576"><ele>1914</ele><speed>9.51</speed><time>2016-06-30T11:32:53Z</time><pdop>4.0</pdop><geoidheight>54.00</geoidheight><course>348.6</course><type>1</type></trkpt>
      <trkpt lat="40.42235101" lon="-5.30116852"><ele>1913</ele><speed>8.81</speed><time>2016-06-30T11:32:54Z</time><pdop>4.0</pdop><geoidheight>54.00</geoidheight><course>2.6</course><type>1</type></trkpt>
      <trkpt lat="40.42248478" lon="-5.3011583"><ele>1913</ele><speed>7.19</speed><time>2016-06-30T11:32:56Z</time><pdop>4.0</pdop><geoidheight>54.00</geoidheight><course>10.8</course><type>1</type></trkpt>
      <trkpt lat="40.42262659" lon="-5.30117903"><ele>1912</ele><speed>8.23</speed><time>2016-06-30T11:32:58Z</time><pdop>4.0</pdop><geoidheight>54.00</geoidheight><course>0.5</course><type>1</type></trkpt>
      <trkpt lat="40.42272287" lon="-5.30118139"><ele>1912</ele><speed>9.43</speed><time>2016-06-30T11:32:59Z</time><pdop>5.0</pdop><geoidheight>54.00</geoidheight><course>358.9</course><type>1</type></trkpt>
      <trkpt lat="40.4229171" lon="-5.30120108"><ele>1911</ele><speed>10.72</speed><time>2016-06-30T11:33:01Z</time><pdop>5.0</pdop><geoidheight>54.00</geoidheight><course>0.5</course><type>1</type></trkpt>
      <trkpt lat="40.42300235" lon="-5.30117549"><ele>1909</ele><speed>10.43</speed><time>2016-06-30T11:33:02Z</time><pdop>4.0</pdop><geoidheight>54.00</geoidheight><course>4.1</course><type>1</type></trkpt>
      <trkpt lat="40.42307985" lon="-5.30116418"><ele>1909</ele><speed>9.37</speed><time>2016-06-30T11:33:03Z</time><pdop>4.0</pdop><geoidheight>54.00</geoidheight><course>8.0</course><type>1</type></trkpt>
      <trkpt lat="40.42320614" lon="-5.30110156"><ele>1910</ele><speed>7.55</speed><time>2016-06-30T11:33:05Z</time><pdop>3.0</pdop><geoidheight>54.00</geoidheight><course>14.5</course><type>1</type></trkpt>
      <trkpt lat="40.4232754" lon="-5.30108755"><ele>1908</ele><speed>7.92</speed><time>2016-06-30T11:33:06Z</time><pdop>3.0</pdop><geoidheight>54.00</geoidheight><course>13.2</course><type>1</type></trkpt>
      <trkpt lat="40.42336143" lon="-5.30106757"><ele>1908</ele><speed>8.50</speed><time>2016-06-30T11:33:07Z</time><pdop>3.0</pdop><geoidheight>54.00</geoidheight><course>12.4</course><type>1</type></trkpt>
      <trkpt lat="40.42344621" lon="-5.30102287"><ele>1909</ele><speed>9.03</speed><time>2016-06-30T11:33:08Z</time><pdop>4.0</pdop><geoidheight>54.00</geoidheight><course>14.5</course><type>1</type></trkpt>
      <trkpt lat="40.42353336" lon="-5.30099091"><ele>1909</ele><speed>9.88</speed><time>2016-06-30T11:33:09Z</time><pdop>4.0</pdop><geoidheight>54.00</geoidheight><course>14.8</course><type>1</type></trkpt>
      <trkpt lat="40.42362142" lon="-5.30093371"><ele>1910</ele><speed>9.84</speed><time>2016-06-30T11:33:10Z</time><pdop>3.0</pdop><geoidheight>54.00</geoidheight><course>19.3</course><type>1</type></trkpt>
      <trkpt lat="40.423686" lon="-5.30088978"><ele>1915</ele><speed>8.88</speed><time>2016-06-30T11:33:11Z</time><pdop>3.0</pdop><geoidheight>54.00</geoidheight><course>28.2</course><type>1</type></trkpt>
      <trkpt lat="40.42374698" lon="-5.30082767"><ele>1922</ele><speed>4.57</speed><time>2016-06-30T11:33:13Z</time><pdop>3.0</pdop><geoidheight>54.00</geoidheight><course>43.7</course><type>1</type></trkpt>
      <trkpt lat="40.42382111" lon="-5.30076417"><ele>1922</ele><speed>5.14</speed><time>2016-06-30T11:33:15Z</time><pdop>4.0</pdop><geoidheight>54.00</geoidheight><course>30.4</course><type>1</type></trkpt>
      <trkpt lat="40.42392271" lon="-5.30070919"><ele>1922</ele><speed>6.22</speed><time>2016-06-30T11:33:17Z</time><pdop>7.0</pdop><geoidheight>54.00</geoidheight><course>27.1</course><type>1</type></trkpt>
      <trkpt lat="40.42408452" lon="-5.30063707"><ele>1921</ele><speed>8.30</speed><time>2016-06-30T11:33:19Z</time><pdop>6.0</pdop><geoidheight>54.00</geoidheight><course>20.1</course><type>1</type></trkpt>
      <trkpt lat="40.42425031" lon="-5.30053363"><ele>1920</ele><speed>8.98</speed><time>2016-06-30T11:33:21Z</time><pdop>11.0</pdop><geoidheight>54.00</geoidheight><course>24.9</course><type>1</type></trkpt>
      <trkpt lat="40.42440942" lon="-5.30052686"><ele>1917</ele><speed>9.26</speed><time>2016-06-30T11:33:24Z</time><pdop>6.0</pdop><geoidheight>54.00</geoidheight><course>351.2</course><type>1</type></trkpt>
      <trkpt lat="40.42454686" lon="-5.30052861"><ele>1918</ele><speed>8.84</speed><time>2016-06-30T11:33:26Z</time><pdop>6.0</pdop><geoidheight>54.00</geoidheight><course>1.9</course><type>1</type></trkpt>
      <trkpt lat="40.42465505" lon="-5.30042724"><ele>1919</ele><speed>5.01</speed><time>2016-06-30T11:33:29Z</time><pdop>5.0</pdop><geoidheight>54.00</geoidheight><course>25.8</course><type>1</type></trkpt>
      <trkpt lat="40.42474759" lon="-5.3003985"><ele>1915</ele><speed>5.96</speed><time>2016-06-30T11:33:31Z</time><pdop>5.0</pdop><geoidheight>54.00</geoidheight><course>17.5</course><type>1</type></trkpt>
      <trkpt lat="40.42487381" lon="-5.30035784"><ele>1915</ele><speed>6.68</speed><time>2016-06-30T11:33:33Z</time><pdop>6.0</pdop><geoidheight>54.00</geoidheight><course>11.7</course><type>1</type></trkpt>
      <trkpt lat="40.42502759" lon="-5.30030186"><ele>1915</ele><speed>8.26</speed><time>2016-06-30T11:33:35Z</time><pdop>6.0</pdop><geoidheight>54.00</geoidheight><course>15.6</course><type>1</type></trkpt>
      <trkpt lat="40.42514719" lon="-5.30023431"><ele>1918</ele><speed>9.26</speed><time>2016-06-30T11:33:37Z</time><pdop>5.0</pdop><geoidheight>54.00</geoidheight><course>31.4</course><type>1</type></trkpt>
      <trkpt lat="40.42518672" lon="-5.30009287"><ele>1919</ele><speed>11.46</speed><time>2016-06-30T11:33:38Z</time><pdop>5.0</pdop><geoidheight>54.00</geoidheight><course>53.5</course><type>1</type></trkpt>
      <trkpt lat="40.42522968" lon="-5.29995185"><ele>1921</ele><speed>11.98</speed><time>2016-06-30T11:33:39Z</time><pdop>6.0</pdop><geoidheight>54.00</geoidheight><course>60.0</course><type>1</type></trkpt>
      <trkpt lat="40.42530712" lon="-5.29971042"><ele>1922</ele><speed>11.06</speed><time>2016-06-30T11:33:41Z</time><pdop>11.0</pdop><geoidheight>54.00</geoidheight><course>62.8</course><type>1</type></trkpt>
      <trkpt lat="40.42549507" lon="-5.29953257"><ele>1913</ele><speed>7.90</speed><time>2016-06-30T11:33:44Z</time><pdop>11.0</pdop><geoidheight>54.00</geoidheight><course>41.2</course><type>1</type></trkpt>
      <trkpt lat="40.42562642" lon="-5.29977956"><ele>1916</ele><speed>6.29</speed><time>2016-06-30T11:33:49Z</time><pdop>11.0</pdop><geoidheight>54.00</geoidheight><course>275.1</course><type>1</type></trkpt>
      <trkpt lat="40.42533558" lon="-5.29992136"><ele>1916</ele><speed>9.98</speed><time>2016-06-30T11:33:52Z</time><pdop>12.0</pdop><geoidheight>54.00</geoidheight><course>204.3</course><type>1</type></trkpt>
      <trkpt lat="40.42506694" lon="-5.29991125"><ele>1917</ele><speed>10.86</speed><time>2016-06-30T11:33:54Z</time><pdop>11.0</pdop><geoidheight>54.00</geoidheight><course>186.3</course><type>1</type></trkpt>
      <trkpt lat="40.42477906" lon="-5.29993154"><ele>1921</ele><speed>10.43</speed><time>2016-06-30T11:33:57Z</time><pdop>11.0</pdop><geoidheight>54.00</geoidheight><course>188.0</course><type>1</type></trkpt>
      <trkpt lat="40.42456998" lon="-5.29995448"><ele>1922</ele><speed>10.86</speed><time>2016-06-30T11:33:59Z</time><pdop>10.0</pdop><geoidheight>54.00</geoidheight><course>189.0</course><type>1</type></trkpt>
      <trkpt lat="40.42439936" lon="-5.30003621"><ele>1923</ele><speed>10.24</speed><time>2016-06-30T11:34:01Z</time><pdop>10.0</pdop><geoidheight>54.00</geoidheight><course>206.0</course><type>1</type></trkpt>
      <trkpt lat="40.42424193" lon="-5.30025089"><ele>1924</ele><speed>7.52</speed><time>2016-06-30T11:34:04Z</time><pdop>9.0</pdop><geoidheight>54.00</geoidheight><course>227.5</course><type>1</type></trkpt>
      <trkpt lat="40.42442626" lon="-5.30033683"><ele>1921</ele><speed>5.36</speed><time>2016-06-30T11:34:10Z</time><pdop>12.0</pdop><geoidheight>54.00</geoidheight><course>11.9</course><type>1</type></trkpt>
      <trkpt lat="40.42460287" lon="-5.30001781"><ele>1923</ele><speed>11.46</speed><time>2016-06-30T11:34:12Z</time><pdop>11.0</pdop><geoidheight>54.00</geoidheight><course>50.4</course><type>1</type></trkpt>
      <trkpt lat="40.42472689" lon="-5.29979232"><ele>1924</ele><speed>10.30</speed><time>2016-06-30T11:34:14Z</time><pdop>12.0</pdop><geoidheight>54.00</geoidheight><course>48.6</course><type>1</type></trkpt>
      <trkpt lat="40.42491012" lon="-5.29952198"><ele>1920</ele><speed>10.36</speed><time>2016-06-30T11:34:17Z</time><pdop>13.0</pdop><geoidheight>54.00</geoidheight><course>47.8</course><type>1</type></trkpt>
      <trkpt lat="40.42516882" lon="-5.29928038"><ele>1919</ele><speed>10.39</speed><time>2016-06-30T11:34:20Z</time><pdop>11.0</pdop><geoidheight>54.00</geoidheight><course>42.3</course><type>1</type></trkpt>
      <trkpt lat="40.42533616" lon="-5.29914069"><ele>1921</ele><speed>9.85</speed><time>2016-06-30T11:34:22Z</time><pdop>10.0</pdop><geoidheight>54.00</geoidheight><course>42.3</course><type>1</type></trkpt>
      <trkpt lat="40.42549146" lon="-5.29898916"><ele>1921</ele><speed>7.69</speed><time>2016-06-30T11:34:25Z</time><pdop>11.0</pdop><geoidheight>54.00</geoidheight><course>38.6</course><type>1</type></trkpt>
      <trkpt lat="40.42562058" lon="-5.29877287"><ele>1922</ele><speed>8.82</speed><time>2016-06-30T11:34:28Z</time><pdop>12.0</pdop><geoidheight>54.00</geoidheight><course>51.3</course><type>1</type></trkpt>
      <trkpt lat="40.42583939" lon="-5.29854226"><ele>1922</ele><speed>9.95</speed><time>2016-06-30T11:34:31Z</time><pdop>12.0</pdop><geoidheight>54.00</geoidheight><course>42.0</course><type>1</type></trkpt>
      <trkpt lat="40.42603206" lon="-5.29840861"><ele>1922</ele><speed>10.71</speed><time>2016-06-30T11:34:33Z</time><pdop>11.0</pdop><geoidheight>54.00</geoidheight><course>34.0</course><type>1</type></trkpt>
      <trkpt lat="40.42624568" lon="-5.29832189"><ele>1923</ele><speed>10.38</speed><time>2016-06-30T11:34:35Z</time><pdop>10.0</pdop><geoidheight>54.00</geoidheight><course>25.5</course><type>1</type></trkpt>
      <trkpt lat="40.42643954" lon="-5.29824171"><ele>1922</ele><speed>10.04</speed><time>2016-06-30T11:34:37Z</time><pdop>10.0</pdop><geoidheight>54.00</geoidheight><course>21.7</course><type>1</type></trkpt>
      <trkpt lat="40.42664044" lon="-5.29812823"><ele>1925</ele><speed>11.64</speed><time>2016-06-30T11:34:39Z</time><pdop>10.0</pdop><geoidheight>54.00</geoidheight><course>30.5</course><type>1</type></trkpt>
      <trkpt lat="40.42681769" lon="-5.29796995"><ele>1930</ele><speed>11.64</speed><time>2016-06-30T11:34:41Z</time><pdop>11.0</pdop><geoidheight>54.00</geoidheight><course>34.0</course><type>1</type></trkpt>
      <trkpt lat="40.42657327" lon="-5.29818048"><ele>1932</ele><speed>12.59</speed><time>2016-06-30T11:34:47Z</time><pdop>11.0</pdop><geoidheight>54.00</geoidheight><course>202.4</course><type>1</type></trkpt>
      <trkpt lat="40.42637957" lon="-5.29831216"><ele>1933</ele><speed>11.69</speed><time>2016-06-30T11:34:49Z</time><pdop>11.0</pdop><geoidheight>54.00</geoidheight><course>199.6</course><type>1</type></trkpt>
      <trkpt lat="40.42662328" lon="-5.29812473"><ele>1932</ele><speed>10.87</speed><time>2016-06-30T11:34:58Z</time><pdop>15.0</pdop><geoidheight>54.00</geoidheight><course>41.4</course><type>1</type></trkpt>
      <trkpt lat="40.42664585" lon="-5.29780344"><ele>1934</ele><speed>10.58</speed><time>2016-06-30T11:35:00Z</time><pdop>12.0</pdop><geoidheight>54.00</geoidheight><course>67.4</course><type>1</type></trkpt>
      <trkpt lat="40.42660066" lon="-5.29745308"><ele>1937</ele><speed>12.42</speed><time>2016-06-30T11:35:02Z</time><pdop>11.0</pdop><geoidheight>54.00</geoidheight><course>83.4</course><type>1</type></trkpt>
      <trkpt lat="40.42662789" lon="-5.29709324"><ele>1938</ele><speed>12.66</speed><time>2016-06-30T11:35:04Z</time><pdop>9.0</pdop><geoidheight>54.00</geoidheight><course>71.8</course><type>1</type></trkpt>
      <trkpt lat="40.42664932" lon="-5.29684617"><ele>1938</ele><speed>10.76</speed><time>2016-06-30T11:35:06Z</time><pdop>9.0</pdop><geoidheight>54.00</geoidheight><course>72.4</course><type>1</type></trkpt>
      <trkpt lat="40.42679825" lon="-5.2968737"><ele>1940</ele><speed>5.04</speed><time>2016-06-30T11:35:09Z</time><pdop>7.0</pdop><geoidheight>54.00</geoidheight><course>353.5</course><type>1</type></trkpt>
      <trkpt lat="40.42691648" lon="-5.29693572"><ele>1942</ele><speed>4.58</speed><time>2016-06-30T11:35:12Z</time><pdop>4.0</pdop><geoidheight>54.00</geoidheight><course>338.4</course><type>1</type></trkpt>
      <trkpt lat="40.42697941" lon="-5.29704747"><ele>1940</ele><speed>6.24</speed><time>2016-06-30T11:35:14Z</time><pdop>5.0</pdop><geoidheight>54.00</geoidheight><course>301.0</course><type>1</type></trkpt>
      <trkpt lat="40.42703629" lon="-5.29721139"><ele>1938</ele><speed>7.33</speed><time>2016-06-30T11:35:16Z</time><pdop>7.0</pdop><geoidheight>54.00</geoidheight><course>291.2</course><type>1</type></trkpt>
      <trkpt lat="40.42707" lon="-5.29739467"><ele>1940</ele><speed>7.55</speed><time>2016-06-30T11:35:18Z</time><pdop>7.0</pdop><geoidheight>54.00</geoidheight><course>280.8</course><type>1</type></trkpt>
      <trkpt lat="40.42706355" lon="-5.29755624"><ele>1939</ele><speed>7.02</speed><time>2016-06-30T11:35:20Z</time><pdop>5.0</pdop><geoidheight>54.00</geoidheight><course>270.3</course><type>1</type></trkpt>
      <trkpt lat="40.42707151" lon="-5.29775262"><ele>1939</ele><speed>8.34</speed><time>2016-06-30T11:35:22Z</time><pdop>5.0</pdop><geoidheight>54.00</geoidheight><course>278.5</course><type>1</type></trkpt>
      <trkpt lat="40.42709381" lon="-5.29795295"><ele>1941</ele><speed>8.41</speed><time>2016-06-30T11:35:24Z</time><pdop>4.0</pdop><geoidheight>54.00</geoidheight><course>277.2</course><type>1</type></trkpt>
      <trkpt lat="40.42709903" lon="-5.29806243"><ele>1942</ele><speed>7.95</speed><time>2016-06-30T11:35:25Z</time><pdop>4.0</pdop><geoidheight>54.00</geoidheight><course>275.5</course><type>1</type></trkpt>
      <trkpt lat="40.42709857" lon="-5.29825565"><ele>1942</ele><speed>8.39</speed><time>2016-06-30T11:35:27Z</time><pdop>4.0</pdop><geoidheight>54.00</geoidheight><course>259.2</course><type>1</type></trkpt>
      <trkpt lat="40.42699747" lon="-5.29845392"><ele>1943</ele><speed>10.87</speed><time>2016-06-30T11:35:29Z</time><pdop>4.0</pdop><geoidheight>54.00</geoidheight><course>232.6</course><type>1</type></trkpt>
      <trkpt lat="40.42693576" lon="-5.29854794"><ele>1943</ele><speed>10.81</speed><time>2016-06-30T11:35:30Z</time><pdop>4.0</pdop><geoidheight>54.00</geoidheight><course>228.6</course><type>1</type></trkpt>
      <trkpt lat="40.4268858" lon="-5.29865332"><ele>1943</ele><speed>10.34</speed><time>2016-06-30T11:35:31Z</time><pdop>4.0</pdop><geoidheight>54.00</geoidheight><course>234.2</course><type>1</type></trkpt>
      <trkpt lat="40.4268636" lon="-5.29879383"><ele>1943</ele><speed>6.21</speed><time>2016-06-30T11:35:33Z</time><pdop>5.0</pdop><geoidheight>54.00</geoidheight><course>255.6</course><type>1</type></trkpt>
      <trkpt lat="40.42702069" lon="-5.29854003"><ele>1941</ele><speed>8.87</speed><time>2016-06-30T11:35:38Z</time><pdop>9.0</pdop><geoidheight>54.00</geoidheight><course>69.2</course><type>1</type></trkpt>
      <trkpt lat="40.42703641" lon="-5.2981508"><ele>1940</ele><speed>12.40</speed><time>2016-06-30T11:35:40Z</time><pdop>9.0</pdop><geoidheight>54.00</geoidheight><course>82.6</course><type>1</type></trkpt>
      <trkpt lat="40.42678087" lon="-5.29810245"><ele>1941</ele><speed>15.38</speed><time>2016-06-30T11:35:41Z</time><pdop>6.0</pdop><geoidheight>54.00</geoidheight><course>156.5</course><type>1</type></trkpt>
      <trkpt lat="40.42664431" lon="-5.298028"><ele>1942</ele><speed>15.89</speed><time>2016-06-30T11:35:42Z</time><pdop>6.0</pdop><geoidheight>54.00</geoidheight><course>160.0</course><type>1</type></trkpt>
      <trkpt lat="40.4265033" lon="-5.29796954"><ele>1941</ele><speed>16.10</speed><time>2016-06-30T11:35:43Z</time><pdop>7.0</pdop><geoidheight>54.00</geoidheight><course>163.7</course><type>1</type></trkpt>
      <trkpt lat="40.42629784" lon="-5.29801723"><ele>1944</ele><speed>12.90</speed><time>2016-06-30T11:35:45Z</time><pdop>8.0</pdop><geoidheight>54.00</geoidheight><course>186.5</course><type>1</type></trkpt>
      <trkpt lat="40.42616012" lon="-5.29812079"><ele>1943</ele><speed>9.04</speed><time>2016-06-30T11:35:47Z</time><pdop>6.0</pdop><geoidheight>54.00</geoidheight><course>209.0</course><type>1</type></trkpt>
      <trkpt lat="40.42604218" lon="-5.29828005"><ele>1942</ele><speed>9.05</speed><time>2016-06-30T11:35:49Z</time><pdop>6.0</pdop><geoidheight>54.00</geoidheight><course>223.8</course><type>1</type></trkpt>
      <trkpt lat="40.42597688" lon="-5.29843352"><ele>1940</ele><speed>7.54</speed><time>2016-06-30T11:35:51Z</time><pdop>6.0</pdop><geoidheight>54.00</geoidheight><course>247.3</course><type>1</type></trkpt>
      <trkpt lat="40.42605576" lon="-5.29854859"><ele>1938</ele><speed>5.76</speed><time>2016-06-30T11:35:53Z</time><pdop>5.0</pdop><geoidheight>54.00</geoidheight><course>313.7</course><type>1</type></trkpt>
      <trkpt lat="40.42615788" lon="-5.29864909"><ele>1937</ele><speed>6.34</speed><time>2016-06-30T11:35:55Z</time><pdop>6.0</pdop><geoidheight>54.00</geoidheight><course>325.7</course><type>1</type></trkpt>
      <trkpt lat="40.42628761" lon="-5.2986612"><ele>1939</ele><speed>6.59</speed><time>2016-06-30T11:35:57Z</time><pdop>7.0</pdop><geoidheight>54.00</geoidheight><course>357.6</course><type>1</type></trkpt>
      <trkpt lat="40.42645025" lon="-5.29854549"><ele>1940</ele><speed>9.29</speed><time>2016-06-30T11:35:59Z</time><pdop>12.0</pdop><geoidheight>54.00</geoidheight><course>29.9</course><type>1</type></trkpt>
      <trkpt lat="40.42649411" lon="-5.29828707"><ele>1943</ele><speed>9.82</speed><time>2016-06-30T11:36:01Z</time><pdop>10.0</pdop><geoidheight>54.00</geoidheight><course>64.5</course><type>1</type></trkpt>
      <trkpt lat="40.42657031" lon="-5.29806918"><ele>1942</ele><speed>9.56</speed><time>2016-06-30T11:36:03Z</time><pdop>10.0</pdop><geoidheight>54.00</geoidheight><course>62.3</course><type>1</type></trkpt>
      <trkpt lat="40.42673363" lon="-5.29793219"><ele>1939</ele><speed>6.48</speed><time>2016-06-30T11:36:06Z</time><pdop>10.0</pdop><geoidheight>54.00</geoidheight><course>0.7</course><type>1</type></trkpt>
      <trkpt lat="40.42688561" lon="-5.29815685"><ele>1938</ele><speed>5.60</speed><time>2016-06-30T11:36:09Z</time><pdop>11.0</pdop><geoidheight>54.00</geoidheight><course>307.5</course><type>1</type></trkpt>
      <trkpt lat="40.42678083" lon="-5.29838942"><ele>1944</ele><speed>7.41</speed><time>2016-06-30T11:36:12Z</time><pdop>11.0</pdop><geoidheight>54.00</geoidheight><course>239.8</course><type>1</type></trkpt>
      <trkpt lat="40.4265707" lon="-5.2985476"><ele>1945</ele><speed>7.55</speed><time>2016-06-30T11:36:15Z</time><pdop>11.0</pdop><geoidheight>54.00</geoidheight><course>218.7</course><type>1</type></trkpt>
      <trkpt lat="40.42662679" lon="-5.29808586"><ele>1950</ele><speed>13.78</speed><time>2016-06-30T11:36:24Z</time><pdop>9.0</pdop><geoidheight>54.00</geoidheight><course>82.5</course><type>1</type></trkpt>
      <trkpt lat="40.42637801" lon="-5.29783828"><ele>1951</ele><speed>11.58</speed><time>2016-06-30T11:36:26Z</time><pdop>9.0</pdop><geoidheight>54.00</geoidheight><course>122.4</course><type>1</type></trkpt>
      <trkpt lat="40.42614435" lon="-5.29774715"><ele>1951</ele><speed>12.49</speed><time>2016-06-30T11:36:28Z</time><pdop>9.0</pdop><geoidheight>54.00</geoidheight><course>149.1</course><type>1</type></trkpt>
      <trkpt lat="40.4260758" lon="-5.29798727"><ele>1952</ele><speed>10.00</speed><time>2016-06-30T11:36:29Z</time><pdop>6.0</pdop><geoidheight>54.00</geoidheight><course>210.0</course><type>1</type></trkpt>
      <trkpt lat="40.42588015" lon="-5.29811577"><ele>1954</ele><speed>11.45</speed><time>2016-06-30T11:36:31Z</time><pdop>5.0</pdop><geoidheight>54.00</geoidheight><course>212.7</course><type>1</type></trkpt>
      <trkpt lat="40.4257979" lon="-5.29819809"><ele>1947</ele><speed>10.38</speed><time>2016-06-30T11:36:32Z</time><pdop>5.0</pdop><geoidheight>54.00</geoidheight><course>212.0</course><type>1</type></trkpt>
      <trkpt lat="40.42573523" lon="-5.29826779"><ele>1950</ele><speed>8.53</speed><time>2016-06-30T11:36:33Z</time><pdop>4.0</pdop><geoidheight>54.00</geoidheight><course>214.7</course><type>1</type></trkpt>
      <trkpt lat="40.42562339" lon="-5.29837441"><ele>1952</ele><speed>7.52</speed><time>2016-06-30T11:36:35Z</time><pdop>4.0</pdop><geoidheight>54.00</geoidheight><course>218.1</course><type>1</type></trkpt>
      <trkpt lat="40.4255387" lon="-5.2984998"><ele>1953</ele><speed>6.79</speed><time>2016-06-30T11:36:37Z</time><pdop>5.0</pdop><geoidheight>54.00</geoidheight><course>234.5</course><type>1</type></trkpt>
      <trkpt lat="40.42548392" lon="-5.29863787"><ele>1954</ele><speed>7.42</speed><time>2016-06-30T11:36:39Z</time><pdop>5.0</pdop><geoidheight>54.00</geoidheight><course>249.0</course><type>1</type></trkpt>
      <trkpt lat="40.42542398" lon="-5.29881039"><ele>1954</ele><speed>7.58</speed><time>2016-06-30T11:36:41Z</time><pdop>5.0</pdop><geoidheight>54.00</geoidheight><course>241.8</course><type>1</type></trkpt>
      <trkpt lat="40.42537369" lon="-5.29895276"><ele>1954</ele><speed>5.65</speed><time>2016-06-30T11:36:43Z</time><pdop>6.0</pdop><geoidheight>54.00</geoidheight><course>252.2</course><type>1</type></trkpt>
      <trkpt lat="40.42535978" lon="-5.29915235"><ele>1952</ele><speed>6.17</speed><time>2016-06-30T11:36:46Z</time><pdop>8.0</pdop><geoidheight>54.00</geoidheight><course>272.8</course><type>1</type></trkpt>
      <trkpt lat="40.42537115" lon="-5.29937231"><ele>1951</ele><speed>5.98</speed><time>2016-06-30T11:36:49Z</time><pdop>9.0</pdop><geoidheight>54.00</geoidheight><course>276.8</course><type>1</type></trkpt>
      <trkpt lat="40.42565555" lon="-5.29924989"><ele>1953</ele><speed>8.98</speed><time>2016-06-30T11:36:55Z</time><pdop>10.0</pdop><geoidheight>54.00</geoidheight><course>39.2</course><type>1</type></trkpt>
      <trkpt lat="40.42575159" lon="-5.29891455"><ele>1953</ele><speed>12.96</speed><time>2016-06-30T11:36:57Z</time><pdop>10.0</pdop><geoidheight>54.00</geoidheight><course>64.3</course><type>1</type></trkpt>
      <trkpt lat="40.42577033" lon="-5.29862742"><ele>1952</ele><speed>10.35</speed><time>2016-06-30T11:36:59Z</time><pdop>6.0</pdop><geoidheight>54.00</geoidheight><course>79.3</course><type>1</type></trkpt>
      <trkpt lat="40.42582578" lon="-5.29837007"><ele>1951</ele><speed>10.89</speed><time>2016-06-30T11:37:01Z</time><pdop>6.0</pdop><geoidheight>54.00</geoidheight><course>73.6</course><type>1</type></trkpt>
      <trkpt lat="40.42587414" lon="-5.29823213"><ele>1949</ele><speed>11.76</speed><time>2016-06-30T11:37:02Z</time><pdop>5.0</pdop><geoidheight>54.00</geoidheight><course>68.5</course><type>1</type></trkpt>
      <trkpt lat="40.42592941" lon="-5.29810557"><ele>1949</ele><speed>11.66</speed><time>2016-06-30T11:37:03Z</time><pdop>4.0</pdop><geoidheight>54.00</geoidheight><course>63.8</course><type>1</type></trkpt>
      <trkpt lat="40.42598078" lon="-5.29800269"><ele>1950</ele><speed>10.68</speed><time>2016-06-30T11:37:04Z</time><pdop>4.0</pdop><geoidheight>54.00</geoidheight><course>56.9</course><type>1</type></trkpt>
      <trkpt lat="40.42603991" lon="-5.29791131"><ele>1951</ele><speed>9.67</speed><time>2016-06-30T11:37:05Z</time><pdop>4.0</pdop><geoidheight>54.00</geoidheight><course>53.7</course><type>1</type></trkpt>
      <trkpt lat="40.4261574" lon="-5.29778267"><ele>1952</ele><speed>8.46</speed><time>2016-06-30T11:37:07Z</time><pdop>7.0</pdop><geoidheight>54.00</geoidheight><course>41.6</course><type>1</type></trkpt>
      <trkpt lat="40.42633561" lon="-5.29775639"><ele>1951</ele><speed>9.41</speed><time>2016-06-30T11:37:09Z</time><pdop>8.0</pdop><geoidheight>54.00</geoidheight><course>15.5</course><type>1</type></trkpt>
      <trkpt lat="40.42645469" lon="-5.29789937"><ele>1951</ele><speed>7.83</speed><time>2016-06-30T11:37:11Z</time><pdop>7.0</pdop><geoidheight>54.00</geoidheight><course>339.3</course><type>1</type></trkpt>
      <trkpt lat="40.42658305" lon="-5.29801096"><ele>1951</ele><speed>7.69</speed><time>2016-06-30T11:37:13Z</time><pdop>9.0</pdop><geoidheight>54.00</geoidheight><course>338.7</course><type>1</type></trkpt>
      <trkpt lat="40.42663351" lon="-5.2982906"><ele>1948</ele><speed>8.12</speed><time>2016-06-30T11:37:18Z</time><pdop>6.0</pdop><geoidheight>54.00</geoidheight><course>256.9</course><type>1</type></trkpt>
      <trkpt lat="40.42654443" lon="-5.29844461"><ele>1949</ele><speed>8.05</speed><time>2016-06-30T11:37:20Z</time><pdop>6.0</pdop><geoidheight>54.00</geoidheight><course>232.2</course><type>1</type></trkpt>
      <trkpt lat="40.42646656" lon="-5.29855741"><ele>1951</ele><speed>7.28</speed><time>2016-06-30T11:37:22Z</time><pdop>5.0</pdop><geoidheight>54.00</geoidheight><course>227.9</course><type>1</type></trkpt>
      <trkpt lat="40.42642907" lon="-5.29870543"><ele>1950</ele><speed>5.58</speed><time>2016-06-30T11:37:24Z</time><pdop>4.0</pdop><geoidheight>54.00</geoidheight><course>259.9</course><type>1</type></trkpt>
      <trkpt lat="40.42656964" lon="-5.2986436"><ele>1950</ele><speed>5.52</speed><time>2016-06-30T11:37:29Z</time><pdop>10.0</pdop><geoidheight>54.00</geoidheight><course>54.1</course><type>1</type></trkpt>
      <trkpt lat="40.42667902" lon="-5.29848259"><ele>1950</ele><speed>9.92</speed><time>2016-06-30T11:37:30Z</time><pdop>8.0</pdop><geoidheight>54.00</geoidheight><course>58.0</course><type>1</type></trkpt>
      <trkpt lat="40.42668846" lon="-5.29818994"><ele>1950</ele><speed>10.69</speed><time>2016-06-30T11:37:32Z</time><pdop>9.0</pdop><geoidheight>54.00</geoidheight><course>74.6</course><type>1</type></trkpt>
      <trkpt lat="40.42646538" lon="-5.29795343"><ele>1951</ele><speed>8.75</speed><time>2016-06-30T11:37:34Z</time><pdop>8.0</pdop><geoidheight>54.00</geoidheight><course>123.2</course><type>1</type></trkpt>
      <trkpt lat="40.42628543" lon="-5.29787517"><ele>1951</ele><speed>11.14</speed><time>2016-06-30T11:37:35Z</time><pdop>8.0</pdop><geoidheight>54.00</geoidheight><course>145.6</course><type>1</type></trkpt>
      <trkpt lat="40.42612379" lon="-5.29786105"><ele>1951</ele><speed>12.67</speed><time>2016-06-30T11:37:36Z</time><pdop>9.0</pdop><geoidheight>54.00</geoidheight><course>160.0</course><type>1</type></trkpt>
      <trkpt lat="40.42593135" lon="-5.2979483"><ele>1950</ele><speed>13.98</speed><time>2016-06-30T11:37:37Z</time><pdop>8.0</pdop><geoidheight>54.00</geoidheight><course>177.0</course><type>1</type></trkpt>
      <trkpt lat="40.42588412" lon="-5.2981277"><ele>1952</ele><speed>10.10</speed><time>2016-06-30T11:37:38Z</time><pdop>6.0</pdop><geoidheight>54.00</geoidheight><course>207.6</course><type>1</type></trkpt>
      <trkpt lat="40.42573281" lon="-5.29825475"><ele>1952</ele><speed>9.75</speed><time>2016-06-30T11:37:40Z</time><pdop>6.0</pdop><geoidheight>54.00</geoidheight><course>212.2</course><type>1</type></trkpt>
      <trkpt lat="40.42570387" lon="-5.29840687"><ele>1951</ele><speed>6.88</speed><time>2016-06-30T11:37:42Z</time><pdop>7.0</pdop><geoidheight>54.00</geoidheight><course>244.0</course><type>1</type></trkpt>
      <trkpt lat="40.42581633" lon="-5.29853403"><ele>1948</ele><speed>6.18</speed><time>2016-06-30T11:37:44Z</time><pdop>7.0</pdop><geoidheight>54.00</geoidheight><course>298.2</course><type>1</type></trkpt>
      <trkpt lat="40.42598374" lon="-5.29862699"><ele>1947</ele><speed>8.30</speed><time>2016-06-30T11:37:46Z</time><pdop>6.0</pdop><geoidheight>54.00</geoidheight><course>335.1</course><type>1</type></trkpt>
      <trkpt lat="40.42612272" lon="-5.29862176"><ele>1948</ele><speed>8.26</speed><time>2016-06-30T11:37:48Z</time><pdop>6.0</pdop><geoidheight>54.00</geoidheight><course>2.1</course><type>1</type></trkpt>
      <trkpt lat="40.42627851" lon="-5.29862761"><ele>1949</ele><speed>8.92</speed><time>2016-06-30T11:37:50Z</time><pdop>4.0</pdop><geoidheight>54.00</geoidheight><course>5.2</course><type>1</type></trkpt>
      <trkpt lat="40.4263552" lon="-5.29861722"><ele>1951</ele><speed>8.51</speed><time>2016-06-30T11:37:51Z</time><pdop>4.0</pdop><geoidheight>54.00</geoidheight><course>6.1</course><type>1</type></trkpt>
      <trkpt lat="40.42643096" lon="-5.29862389"><ele>1952</ele><speed>8.51</speed><time>2016-06-30T11:37:52Z</time><pdop>4.0</pdop><geoidheight>54.00</geoidheight><course>2.9</course><type>1</type></trkpt>
      <trkpt lat="40.42657401" lon="-5.29863312"><ele>1953</ele><speed>7.59</speed><time>2016-06-30T11:37:54Z</time><pdop>4.0</pdop><geoidheight>54.00</geoidheight><course>358.6</course><type>1</type></trkpt>
      <trkpt lat="40.42671961" lon="-5.29868291"><ele>1952</ele><speed>7.71</speed><time>2016-06-30T11:37:56Z</time><pdop>6.0</pdop><geoidheight>54.00</geoidheight><course>353.0</course><type>1</type></trkpt>
      <trkpt lat="40.42685396" lon="-5.29863919"><ele>1949</ele><speed>7.68</speed><time>2016-06-30T11:37:58Z</time><pdop>5.0</pdop><geoidheight>54.00</geoidheight><course>1.7</course><type>1</type></trkpt>
      <trkpt lat="40.42699627" lon="-5.29858314"><ele>1949</ele><speed>8.47</speed><time>2016-06-30T11:38:00Z</time><pdop>5.0</pdop><geoidheight>54.00</geoidheight><course>17.8</course><type>1</type></trkpt>
      <trkpt lat="40.42716009" lon="-5.29846114"><ele>1949</ele><speed>11.06</speed><time>2016-06-30T11:38:02Z</time><pdop>5.0</pdop><geoidheight>54.00</geoidheight><course>29.5</course><type>1</type></trkpt>
      <trkpt lat="40.42724477" lon="-5.29837615"><ele>1949</ele><speed>12.15</speed><time>2016-06-30T11:38:03Z</time><pdop>5.0</pdop><geoidheight>54.00</geoidheight><course>34.7</course><type>1</type></trkpt>
      <trkpt lat="40.4273232" lon="-5.29824797"><ele>1949</ele><speed>13.40</speed><time>2016-06-30T11:38:04Z</time><pdop>5.0</pdop><geoidheight>54.00</geoidheight><course>45.2</course><type>1</type></trkpt>
      <trkpt lat="40.42730419" lon="-5.29808754"><ele>1950</ele><speed>12.74</speed><time>2016-06-30T11:38:05Z</time><pdop>4.0</pdop><geoidheight>54.00</geoidheight><course>75.9</course><type>1</type></trkpt>
      <trkpt lat="40.42728655" lon="-5.29793902"><ele>1949</ele><speed>12.37</speed><time>2016-06-30T11:38:06Z</time><pdop>4.0</pdop><geoidheight>54.00</geoidheight><course>96.4</course><type>1</type></trkpt>
      <trkpt lat="40.42723735" lon="-5.29780967"><ele>1948</ele><speed>12.11</speed><time>2016-06-30T11:38:07Z</time><pdop>3.0</pdop><geoidheight>54.00</geoidheight><course>114.5</course><type>1</type></trkpt>
      <trkpt lat="40.42716756" lon="-5.29771022"><ele>1947</ele><speed>12.39</speed><time>2016-06-30T11:38:08Z</time><pdop>3.0</pdop><geoidheight>54.00</geoidheight><course>130.4</course><type>1</type></trkpt>
      <trkpt lat="40.42707801" lon="-5.29762612"><ele>1946</ele><speed>12.29</speed><time>2016-06-30T11:38:09Z</time><pdop>3.0</pdop><geoidheight>54.00</geoidheight><course>144.4</course><type>1</type></trkpt>
      <trkpt lat="40.42696544" lon="-5.29759317"><ele>1946</ele><speed>12.77</speed><time>2016-06-30T11:38:10Z</time><pdop>3.0</pdop><geoidheight>54.00</geoidheight><course>165.9</course><type>1</type></trkpt>
      <trkpt lat="40.42686255" lon="-5.29760748"><ele>1946</ele><speed>12.05</speed><time>2016-06-30T11:38:11Z</time><pdop>3.0</pdop><geoidheight>54.00</geoidheight><course>184.0</course><type>1</type></trkpt>
      <trkpt lat="40.42677296" lon="-5.29765477"><ele>1946</ele><speed>11.18</speed><time>2016-06-30T11:38:12Z</time><pdop>3.0</pdop><geoidheight>54.00</geoidheight><course>200.0</course><type>1</type></trkpt>
      <trkpt lat="40.42669967" lon="-5.29772861"><ele>1946</ele><speed>10.34</speed><time>2016-06-30T11:38:13Z</time><pdop>3.0</pdop><geoidheight>54.00</geoidheight><course>214.9</course><type>1</type></trkpt>
      <trkpt lat="40.42664058" lon="-5.29780938"><ele>1946</ele><speed>9.50</speed><time>2016-06-30T11:38:14Z</time><pdop>3.0</pdop><geoidheight>54.00</geoidheight><course>225.4</course><type>1</type></trkpt>
      <trkpt lat="40.42659612" lon="-5.29789729"><ele>1945</ele><speed>8.65</speed><time>2016-06-30T11:38:15Z</time><pdop>3.0</pdop><geoidheight>54.00</geoidheight><course>232.1</course><type>1</type></trkpt>
      <trkpt lat="40.42656803" lon="-5.29797624"><ele>1945</ele><speed>7.47</speed><time>2016-06-30T11:38:16Z</time><pdop>3.0</pdop><geoidheight>54.00</geoidheight><course>244.3</course><type>1</type></trkpt>
      <trkpt lat="40.42656495" lon="-5.29806403"><ele>1944</ele><speed>6.88</speed><time>2016-06-30T11:38:17Z</time><pdop>3.0</pdop><geoidheight>54.00</geoidheight><course>261.6</course><type>1</type></trkpt>
      <trkpt lat="40.42656485" lon="-5.29814929"><ele>1943</ele><speed>7.08</speed><time>2016-06-30T11:38:18Z</time><pdop>3.0</pdop><geoidheight>54.00</geoidheight><course>270.3</course><type>1</type></trkpt>
      <trkpt lat="40.42664257" lon="-5.29828224"><ele>1942</ele><speed>7.36</speed><time>2016-06-30T11:38:20Z</time><pdop>5.0</pdop><geoidheight>54.00</geoidheight><course>304.5</course><type>1</type></trkpt>
      <trkpt lat="40.42672921" lon="-5.29823305"><ele>1942</ele><speed>6.50</speed><time>2016-06-30T11:38:21Z</time><pdop>4.0</pdop><geoidheight>54.00</geoidheight><course>353.3</course><type>1</type></trkpt>
      <trkpt lat="40.4268737" lon="-5.29815458"><ele>1943</ele><speed>7.46</speed><time>2016-06-30T11:38:23Z</time><pdop>7.0</pdop><geoidheight>54.00</geoidheight><course>19.7</course><type>1</type></trkpt>
      <trkpt lat="40.42697863" lon="-5.29802712"><ele>1942</ele><speed>10.45</speed><time>2016-06-30T11:38:24Z</time><pdop>7.0</pdop><geoidheight>54.00</geoidheight><course>34.1</course><type>1</type></trkpt>
      <trkpt lat="40.4269432" lon="-5.29776434"><ele>1942</ele><speed>13.11</speed><time>2016-06-30T11:38:25Z</time><pdop>5.0</pdop><geoidheight>54.00</geoidheight><course>74.3</course><type>1</type></trkpt>
      <trkpt lat="40.42697464" lon="-5.2976094"><ele>1941</ele><speed>13.00</speed><time>2016-06-30T11:38:26Z</time><pdop>4.0</pdop><geoidheight>54.00</geoidheight><course>78.1</course><type>1</type></trkpt>
      <trkpt lat="40.42700134" lon="-5.29745611"><ele>1940</ele><speed>12.79</speed><time>2016-06-30T11:38:27Z</time><pdop>4.0</pdop><geoidheight>54.00</geoidheight><course>77.6</course><type>1</type></trkpt>
      <trkpt lat="40.42705679" lon="-5.29733529"><ele>1938</ele><speed>11.43</speed><time>2016-06-30T11:38:28Z</time><pdop>4.0</pdop><geoidheight>54.00</geoidheight><course>69.0</course><type>1</type></trkpt>
      <trkpt lat="40.42711153" lon="-5.29722769"><ele>1938</ele><speed>10.11</speed><time>2016-06-30T11:38:29Z</time><pdop>4.0</pdop><geoidheight>54.00</geoidheight><course>59.4</course><type>1</type></trkpt>
      <trkpt lat="40.42716936" lon="-5.29713333"><ele>1937</ele><speed>9.59</speed><time>2016-06-30T11:38:30Z</time><pdop>5.0</pdop><geoidheight>54.00</geoidheight><course>57.1</course><type>1</type></trkpt>
      <trkpt lat="40.4272335" lon="-5.29706488"><ele>1934</ele><speed>9.23</speed><time>2016-06-30T11:38:31Z</time><pdop>4.0</pdop><geoidheight>54.00</geoidheight><course>45.2</course><type>1</type></trkpt>
      <trkpt lat="40.42728171" lon="-5.29696539"><ele>1934</ele><speed>9.45</speed><time>2016-06-30T11:38:32Z</time><pdop>5.0</pdop><geoidheight>54.00</geoidheight><course>46.4</course><type>1</type></trkpt>
      <trkpt lat="40.42745856" lon="-5.29680085"><ele>1934</ele><speed>12.03</speed><time>2016-06-30T11:38:34Z</time><pdop>5.0</pdop><geoidheight>54.00</geoidheight><course>38.8</course><type>1</type></trkpt>
      <trkpt lat="40.42755785" lon="-5.29669008"><ele>1933</ele><speed>13.05</speed><time>2016-06-30T11:38:35Z</time><pdop>5.0</pdop><geoidheight>54.00</geoidheight><course>38.9</course><type>1</type></trkpt>
      <trkpt lat="40.42762108" lon="-5.29659994"><ele>1933</ele><speed>11.32</speed><time>2016-06-30T11:38:36Z</time><pdop>5.0</pdop><geoidheight>54.00</geoidheight><course>43.4</course><type>1</type></trkpt>
      <trkpt lat="40.42769326" lon="-5.29640809"><ele>1933</ele><speed>9.01</speed><time>2016-06-30T11:38:38Z</time><pdop>6.0</pdop><geoidheight>54.00</geoidheight><course>56.2</course><type>1</type></trkpt>
      <trkpt lat="40.42776479" lon="-5.29625295"><ele>1931</ele><speed>8.78</speed><time>2016-06-30T11:38:40Z</time><pdop>5.0</pdop><geoidheight>54.00</geoidheight><course>41.9</course><type>1</type></trkpt>
      <trkpt lat="40.42784259" lon="-5.29618538"><ele>1930</ele><speed>9.30</speed><time>2016-06-30T11:38:41Z</time><pdop>5.0</pdop><geoidheight>54.00</geoidheight><course>38.7</course><type>1</type></trkpt>
      <trkpt lat="40.42800972" lon="-5.29608546"><ele>1932</ele><speed>9.92</speed><time>2016-06-30T11:38:43Z</time><pdop>7.0</pdop><geoidheight>54.00</geoidheight><course>32.5</course><type>1</type></trkpt>
      <trkpt lat="40.42816187" lon="-5.29591715"><ele>1934</ele><speed>11.36</speed><time>2016-06-30T11:38:45Z</time><pdop>5.0</pdop><geoidheight>54.00</geoidheight><course>38.8</course><type>1</type></trkpt>
      <trkpt lat="40.42823532" lon="-5.29581787"><ele>1935</ele><speed>11.22</speed><time>2016-06-30T11:38:46Z</time><pdop>5.0</pdop><geoidheight>54.00</geoidheight><course>44.9</course><type>1</type></trkpt>
      <trkpt lat="40.4282997" lon="-5.29572023"><ele>1936</ele><speed>10.25</speed><time>2016-06-30T11:38:47Z</time><pdop>4.0</pdop><geoidheight>54.00</geoidheight><course>51.8</course><type>1</type></trkpt>
      <trkpt lat="40.42834858" lon="-5.29562449"><ele>1936</ele><speed>9.27</speed><time>2016-06-30T11:38:48Z</time><pdop>4.0</pdop><geoidheight>54.00</geoidheight><course>52.4</course><type>1</type></trkpt>
      <trkpt lat="40.42841089" lon="-5.29555393"><ele>1938</ele><speed>8.14</speed><time>2016-06-30T11:38:49Z</time><pdop>4.0</pdop><geoidheight>54.00</geoidheight><course>49.6</course><type>1</type></trkpt>
      <trkpt lat="40.42853061" lon="-5.2954625"><ele>1939</ele><speed>7.35</speed><time>2016-06-30T11:38:51Z</time><pdop>4.0</pdop><geoidheight>54.00</geoidheight><course>40.5</course><type>1</type></trkpt>
      <trkpt lat="40.42866047" lon="-5.29539568"><ele>1940</ele><speed>7.35</speed><time>2016-06-30T11:38:53Z</time><pdop>4.0</pdop><geoidheight>54.00</geoidheight><course>19.6</course><type>1</type></trkpt>
      <trkpt lat="40.42879254" lon="-5.2953775"><ele>1941</ele><speed>6.79</speed><time>2016-06-30T11:38:55Z</time><pdop>5.0</pdop><geoidheight>54.00</geoidheight><course>5.0</course><type>1</type></trkpt>
      <trkpt lat="40.42880506" lon="-5.29550637"><ele>1941</ele><speed>5.89</speed><time>2016-06-30T11:38:57Z</time><pdop>4.0</pdop><geoidheight>54.00</geoidheight><course>291.0</course><type>1</type></trkpt>
      <trkpt lat="40.42878751" lon="-5.2956151"><ele>1941</ele><speed>7.75</speed><time>2016-06-30T11:38:58Z</time><pdop>4.0</pdop><geoidheight>54.00</geoidheight><course>262.5</course><type>1</type></trkpt>
      <trkpt lat="40.42875226" lon="-5.29570801"><ele>1940</ele><speed>8.05</speed><time>2016-06-30T11:38:59Z</time><pdop>4.0</pdop><geoidheight>54.00</geoidheight><course>249.5</course><type>1</type></trkpt>
      <trkpt lat="40.42869998" lon="-5.29580023"><ele>1941</ele><speed>8.78</speed><time>2016-06-30T11:39:00Z</time><pdop>5.0</pdop><geoidheight>54.00</geoidheight><course>237.1</course><type>1</type></trkpt>
      <trkpt lat="40.42863963" lon="-5.29589623"><ele>1940</ele><speed>10.54</speed><time>2016-06-30T11:39:01Z</time><pdop>5.0</pdop><geoidheight>54.00</geoidheight><course>233.8</course><type>1</type></trkpt>
      <trkpt lat="40.42856815" lon="-5.29600615"><ele>1940</ele><speed>11.29</speed><time>2016-06-30T11:39:02Z</time><pdop>7.0</pdop><geoidheight>54.00</geoidheight><course>231.0</course><type>1</type></trkpt>
      <trkpt lat="40.42833783" lon="-5.29613386"><ele>1941</ele><speed>12.85</speed><time>2016-06-30T11:39:04Z</time><pdop>6.0</pdop><geoidheight>54.00</geoidheight><course>206.6</course><type>1</type></trkpt>
      <trkpt lat="40.42820513" lon="-5.2961786"><ele>1943</ele><speed>13.29</speed><time>2016-06-30T11:39:05Z</time><pdop>5.0</pdop><geoidheight>54.00</geoidheight><course>196.3</course><type>1</type></trkpt>
      <trkpt lat="40.42807156" lon="-5.29620207"><ele>1942</ele><speed>14.68</speed><time>2016-06-30T11:39:06Z</time><pdop>6.0</pdop><geoidheight>54.00</geoidheight><course>189.0</course><type>1</type></trkpt>
      <trkpt lat="40.42794107" lon="-5.29617958"><ele>1942</ele><speed>14.70</speed><time>2016-06-30T11:39:07Z</time><pdop>6.0</pdop><geoidheight>54.00</geoidheight><course>177.6</course><type>1</type></trkpt>
      <trkpt lat="40.42783316" lon="-5.29615213"><ele>1944</ele><speed>13.56</speed><time>2016-06-30T11:39:08Z</time><pdop>6.0</pdop><geoidheight>54.00</geoidheight><course>172.9</course><type>1</type></trkpt>
      <trkpt lat="40.42772556" lon="-5.29603005"><ele>1943</ele><speed>13.81</speed><time>2016-06-30T11:39:09Z</time><pdop>7.0</pdop><geoidheight>54.00</geoidheight><course>157.2</course><type>1</type></trkpt>
      <trkpt lat="40.42758792" lon="-5.29580934"><ele>1943</ele><speed>11.06</speed><time>2016-06-30T11:39:11Z</time><pdop>12.0</pdop><geoidheight>54.00</geoidheight><course>141.9</course><type>1</type></trkpt>
      <trkpt lat="40.42766233" lon="-5.2954394"><ele>1942</ele><speed>10.82</speed><time>2016-06-30T11:39:13Z</time><pdop>14.0</pdop><geoidheight>54.00</geoidheight><course>97.2</course><type>1</type></trkpt>
      <trkpt lat="40.42799073" lon="-5.29554137"><ele>1937</ele><speed>5.52</speed><time>2016-06-30T11:39:17Z</time><pdop>12.0</pdop><geoidheight>54.00</geoidheight><course>4.9</course><type>1</type></trkpt>
      <trkpt lat="40.42809021" lon="-5.29578175"><ele>1936</ele><speed>5.16</speed><time>2016-06-30T11:39:20Z</time><pdop>8.0</pdop><geoidheight>54.00</geoidheight><course>307.0</course><type>1</type></trkpt>
      <trkpt lat="40.42819591" lon="-5.29598129"><ele>1938</ele><speed>6.74</speed><time>2016-06-30T11:39:23Z</time><pdop>7.0</pdop><geoidheight>54.00</geoidheight><course>307.4</course><type>1</type></trkpt>
      <trkpt lat="40.42830121" lon="-5.29621168"><ele>1943</ele><speed>5.93</speed><time>2016-06-30T11:39:26Z</time><pdop>10.0</pdop><geoidheight>54.00</geoidheight><course>292.1</course><type>1</type></trkpt>
      <trkpt lat="40.42829396" lon="-5.29649063"><ele>1946</ele><speed>8.26</speed><time>2016-06-30T11:39:29Z</time><pdop>10.0</pdop><geoidheight>54.00</geoidheight><course>257.9</course><type>1</type></trkpt>
      <trkpt lat="40.42820022" lon="-5.29677763"><ele>1948</ele><speed>9.51</speed><time>2016-06-30T11:39:32Z</time><pdop>10.0</pdop><geoidheight>54.00</geoidheight><course>241.3</course><type>1</type></trkpt>
      <trkpt lat="40.42803654" lon="-5.29693477"><ele>1947</ele><speed>10.82</speed><time>2016-06-30T11:39:34Z</time><pdop>10.0</pdop><geoidheight>54.00</geoidheight><course>222.8</course><type>1</type></trkpt>
      <trkpt lat="40.4278981" lon="-5.29709279"><ele>1932</ele><speed>9.25</speed><time>2016-06-30T11:39:36Z</time><pdop>10.0</pdop><geoidheight>54.00</geoidheight><course>220.6</course><type>1</type></trkpt>
      <trkpt lat="40.42781138" lon="-5.29732333"><ele>1945</ele><speed>6.28</speed><time>2016-06-30T11:39:40Z</time><pdop>11.0</pdop><geoidheight>54.00</geoidheight><course>237.5</course><type>1</type></trkpt>
      <trkpt lat="40.42760666" lon="-5.29738158"><ele>1950</ele><speed>8.43</speed><time>2016-06-30T11:39:42Z</time><pdop>11.0</pdop><geoidheight>54.00</geoidheight><course>202.9</course><type>1</type></trkpt>
      <trkpt lat="40.42739634" lon="-5.29717074"><ele>1953</ele><speed>9.50</speed><time>2016-06-30T11:39:44Z</time><pdop>12.0</pdop><geoidheight>54.00</geoidheight><course>153.0</course><type>1</type></trkpt>
      <trkpt lat="40.42734484" lon="-5.29685694"><ele>1951</ele><speed>9.08</speed><time>2016-06-30T11:39:46Z</time><pdop>15.0</pdop><geoidheight>54.00</geoidheight><course>117.6</course><type>1</type></trkpt>
      <trkpt lat="40.42739564" lon="-5.29643988"><ele>1951</ele><speed>11.21</speed><time>2016-06-30T11:39:48Z</time><pdop>16.0</pdop><geoidheight>54.00</geoidheight><course>94.0</course><type>1</type></trkpt>
      <trkpt lat="40.42766796" lon="-5.29621141"><ele>1956</ele><speed>11.15</speed><time>2016-06-30T11:39:50Z</time><pdop>13.0</pdop><geoidheight>54.00</geoidheight><course>53.3</course><type>1</type></trkpt>
      <trkpt lat="40.42783435" lon="-5.29600449"><ele>1959</ele><speed>10.96</speed><time>2016-06-30T11:39:52Z</time><pdop>11.0</pdop><geoidheight>54.00</geoidheight><course>47.2</course><type>1</type></trkpt>
      <trkpt lat="40.4280732" lon="-5.29582752"><ele>1963</ele><speed>9.44</speed><time>2016-06-30T11:39:55Z</time><pdop>12.0</pdop><geoidheight>54.00</geoidheight><course>27.2</course><type>1</type></trkpt>
      <trkpt lat="40.42821338" lon="-5.2960651"><ele>1963</ele><speed>6.84</speed><time>2016-06-30T11:39:58Z</time><pdop>11.0</pdop><geoidheight>54.00</geoidheight><course>323.0</course><type>1</type></trkpt>
      <trkpt lat="40.42828923" lon="-5.2963225"><ele>1968</ele><speed>5.63</speed><time>2016-06-30T11:40:02Z</time><pdop>12.0</pdop><geoidheight>54.00</geoidheight><course>288.0</course><type>1</type></trkpt>
      <trkpt lat="40.42816623" lon="-5.29657062"><ele>1970</ele><speed>8.92</speed><time>2016-06-30T11:40:04Z</time><pdop>13.0</pdop><geoidheight>54.00</geoidheight><course>247.0</course><type>1</type></trkpt>
      <trkpt lat="40.42789579" lon="-5.29664902"><ele>1971</ele><speed>10.93</speed><time>2016-06-30T11:40:06Z</time><pdop>12.0</pdop><geoidheight>54.00</geoidheight><course>213.0</course><type>1</type></trkpt>
      <trkpt lat="40.42764642" lon="-5.29652489"><ele>1976</ele><speed>12.04</speed><time>2016-06-30T11:40:08Z</time><pdop>12.0</pdop><geoidheight>54.00</geoidheight><course>175.7</course><type>1</type></trkpt>
      <trkpt lat="40.42752671" lon="-5.2961994"><ele>1980</ele><speed>9.40</speed><time>2016-06-30T11:40:11Z</time><pdop>14.0</pdop><geoidheight>54.00</geoidheight><course>127.5</course><type>1</type></trkpt>
      <trkpt lat="40.42751715" lon="-5.29574099"><ele>1981</ele><speed>10.62</speed><time>2016-06-30T11:40:14Z</time><pdop>21.0</pdop><geoidheight>54.00</geoidheight><course>103.3</course><type>1</type></trkpt>
      <trkpt lat="40.42784677" lon="-5.295911"><ele>1992</ele><speed>3.58</speed><time>2016-06-30T11:40:19Z</time><pdop>14.0</pdop><geoidheight>54.00</geoidheight><course>309.0</course><type>1</type></trkpt>
      <trkpt lat="40.42780261" lon="-5.29622951"><ele>1999</ele><speed>8.41</speed><time>2016-06-30T11:40:22Z</time><pdop>11.0</pdop><geoidheight>54.00</geoidheight><course>243.3</course><type>1</type></trkpt>
      <trkpt lat="40.42770092" lon="-5.29650736"><ele>2000</ele><speed>11.13</speed><time>2016-06-30T11:40:24Z</time><pdop>12.0</pdop><geoidheight>54.00</geoidheight><course>240.9</course><type>1</type></trkpt>
      <trkpt lat="40.42744098" lon="-5.29656246"><ele>2004</ele><speed>10.42</speed><time>2016-06-30T11:40:26Z</time><pdop>13.0</pdop><geoidheight>54.00</geoidheight><course>209.7</course><type>1</type></trkpt>
      <trkpt lat="40.42719202" lon="-5.29649202"><ele>2007</ele><speed>10.01</speed><time>2016-06-30T11:40:28Z</time><pdop>13.0</pdop><geoidheight>54.00</geoidheight><course>181.8</course><type>1</type></trkpt>
      <trkpt lat="40.42701852" lon="-5.29618406"><ele>2009</ele><speed>10.81</speed><time>2016-06-30T11:40:30Z</time><pdop>13.0</pdop><geoidheight>54.00</geoidheight><course>139.8</course><type>1</type></trkpt>
      <trkpt lat="40.42691102" lon="-5.29587532"><ele>2012</ele><speed>10.42</speed><time>2016-06-30T11:40:32Z</time><pdop>14.0</pdop><geoidheight>54.00</geoidheight><course>125.0</course><type>1</type></trkpt>
      <trkpt lat="40.4270242" lon="-5.29545365"><ele>2022</ele><speed>8.74</speed><time>2016-06-30T11:40:35Z</time><pdop>13.0</pdop><geoidheight>54.00</geoidheight><course>69.9</course><type>1</type></trkpt>
      <trkpt lat="40.42724059" lon="-5.29516782"><ele>2029</ele><speed>6.64</speed><time>2016-06-30T11:40:39Z</time><pdop>14.0</pdop><geoidheight>54.00</geoidheight><course>40.8</course><type>1</type></trkpt>
      <trkpt lat="40.42750793" lon="-5.29527277"><ele>2033</ele><speed>6.38</speed><time>2016-06-30T11:40:42Z</time><pdop>12.0</pdop><geoidheight>54.00</geoidheight><course>350.2</course><type>1</type></trkpt>
      <trkpt lat="40.42758991" lon="-5.29556713"><ele>2039</ele><speed>6.89</speed><time>2016-06-30T11:40:45Z</time><pdop>10.0</pdop><geoidheight>54.00</geoidheight><course>308.9</course><type>1</type></trkpt>
      <trkpt lat="40.42777048" lon="-5.29570118"><ele>2051</ele><speed>5.64</speed><time>2016-06-30T11:40:49Z</time><pdop>10.0</pdop><geoidheight>54.00</geoidheight><course>337.5</course><type>1</type></trkpt>
      <trkpt lat="40.42782155" lon="-5.29593405"><ele>2056</ele><speed>8.17</speed><time>2016-06-30T11:40:52Z</time><pdop>10.0</pdop><geoidheight>54.00</geoidheight><course>271.7</course><type>1</type></trkpt>
      <trkpt lat="40.42762296" lon="-5.29620433"><ele>2055</ele><speed>9.75</speed><time>2016-06-30T11:40:55Z</time><pdop>13.0</pdop><geoidheight>54.00</geoidheight><course>231.6</course><type>1</type></trkpt>
      <trkpt lat="40.42724604" lon="-5.2962025"><ele>2057</ele><speed>14.07</speed><time>2016-06-30T11:40:57Z</time><pdop>14.0</pdop><geoidheight>54.00</geoidheight><course>195.0</course><type>1</type></trkpt>
      <trkpt lat="40.42713582" lon="-5.29574785"><ele>2057</ele><speed>9.63</speed><time>2016-06-30T11:41:00Z</time><pdop>20.0</pdop><geoidheight>54.00</geoidheight><course>126.9</course><type>1</type></trkpt>
      <trkpt lat="40.42711459" lon="-5.29519873"><ele>2062</ele><speed>15.03</speed><time>2016-06-30T11:41:02Z</time><pdop>16.0</pdop><geoidheight>54.00</geoidheight><course>97.0</course><type>1</type></trkpt>
      <trkpt lat="40.42739077" lon="-5.29527966"><ele>2072</ele><speed>3.70</speed><time>2016-06-30T11:41:07Z</time><pdop>14.0</pdop><geoidheight>54.00</geoidheight><course>291.7</course><type>1</type></trkpt>
      <trkpt lat="40.4271096" lon="-5.29531834"><ele>2077</ele><speed>5.29</speed><time>2016-06-30T11:41:11Z</time><pdop>16.0</pdop><geoidheight>54.00</geoidheight><course>167.1</course><type>1</type></trkpt>
      <trkpt lat="40.42706864" lon="-5.29495739"><ele>2078</ele><speed>13.71</speed><time>2016-06-30T11:41:12Z</time><pdop>14.0</pdop><geoidheight>54.00</geoidheight><course>98.3</course><type>1</type></trkpt>
      <trkpt lat="40.42702762" lon="-5.29457671"><ele>2085</ele><speed>14.46</speed><time>2016-06-30T11:41:14Z</time><pdop>14.0</pdop><geoidheight>54.00</geoidheight><course>92.0</course><type>1</type></trkpt>
      <trkpt lat="40.4269993" lon="-5.29495659"><ele>2101</ele><speed>8.10</speed><time>2016-06-30T11:41:23Z</time><pdop>11.0</pdop><geoidheight>54.00</geoidheight><course>234.8</course><type>1</type></trkpt>
      <trkpt lat="40.42683711" lon="-5.29515908"><ele>2109</ele><speed>8.06</speed><time>2016-06-30T11:41:26Z</time><pdop>11.0</pdop><geoidheight>54.00</geoidheight><course>215.6</course><type>1</type></trkpt>
      <trkpt lat="40.42661426" lon="-5.29519704"><ele>2113</ele><speed>7.62</speed><time>2016-06-30T11:41:29Z</time><pdop>13.0</pdop><geoidheight>54.00</geoidheight><course>177.2</course><type>1</type></trkpt>
      <trkpt lat="40.42647987" lon="-5.29465156"><ele>2116</ele><speed>10.03</speed><time>2016-06-30T11:41:33Z</time><pdop>21.0</pdop><geoidheight>54.00</geoidheight><course>108.8</course><type>1</type></trkpt>
      <trkpt lat="40.426448" lon="-5.29400411"><ele>2123</ele><speed>14.19</speed><time>2016-06-30T11:41:36Z</time><pdop>21.0</pdop><geoidheight>54.00</geoidheight><course>92.9</course><type>1</type></trkpt>
      <trkpt lat="40.42679732" lon="-5.29398288"><ele>2129</ele><speed>4.90</speed><time>2016-06-30T11:41:40Z</time><pdop>17.0</pdop><geoidheight>54.00</geoidheight><course>16.5</course><type>1</type></trkpt>
      <trkpt lat="40.42679363" lon="-5.29434005"><ele>2135</ele><speed>5.98</speed><time>2016-06-30T11:41:43Z</time><pdop>9.0</pdop><geoidheight>54.00</geoidheight><course>249.5</course><type>1</type></trkpt>
      <trkpt lat="40.42666066" lon="-5.29455289"><ele>2140</ele><speed>6.72</speed><time>2016-06-30T11:41:46Z</time><pdop>6.0</pdop><geoidheight>54.00</geoidheight><course>218.6</course><type>1</type></trkpt>
      <trkpt lat="40.42658267" lon="-5.29468178"><ele>2143</ele><speed>7.25</speed><time>2016-06-30T11:41:48Z</time><pdop>6.0</pdop><geoidheight>54.00</geoidheight><course>224.2</course><type>1</type></trkpt>
      <trkpt lat="40.42649418" lon="-5.2948085"><ele>2012</ele><speed>7.30</speed><time>2016-06-30T11:41:50Z</time><pdop>6.0</pdop><geoidheight>54.00</geoidheight><course>225.4</course><type>1</type></trkpt>
      <trkpt lat="40.42641411" lon="-5.29495385"><ele>2056</ele><speed>8.07</speed><time>2016-06-30T11:41:52Z</time><pdop>6.0</pdop><geoidheight>54.00</geoidheight><course>229.4</course><type>1</type></trkpt>
      <trkpt lat="40.42623604" lon="-5.29510316"><ele>2075</ele><speed>10.93</speed><time>2016-06-30T11:41:54Z</time><pdop>8.0</pdop><geoidheight>54.00</geoidheight><course>217.0</course><type>1</type></trkpt>
      <trkpt lat="40.42602869" lon="-5.29518472"><ele>2110</ele><speed>11.11</speed><time>2016-06-30T11:41:56Z</time><pdop>10.0</pdop><geoidheight>54.00</geoidheight><course>202.4</course><type>1</type></trkpt>
      <trkpt lat="40.42576272" lon="-5.29488091"><ele>2114</ele><speed>9.63</speed><time>2016-06-30T11:41:59Z</time><pdop>18.0</pdop><geoidheight>54.00</geoidheight><course>144.2</course><type>1</type></trkpt>
      <trkpt lat="40.42563593" lon="-5.29434506"><ele>2133</ele><speed>11.56</speed><time>2016-06-30T11:42:02Z</time><pdop>16.0</pdop><geoidheight>54.00</geoidheight><course>111.8</course><type>1</type></trkpt>
      <trkpt lat="40.4258129" lon="-5.29394042"><ele>2144</ele><speed>10.38</speed><time>2016-06-30T11:42:05Z</time><pdop>17.0</pdop><geoidheight>54.00</geoidheight><course>77.3</course><type>1</type></trkpt>
      <trkpt lat="40.4262001" lon="-5.294102"><ele>2156</ele><speed>8.36</speed><time>2016-06-30T11:42:08Z</time><pdop>16.0</pdop><geoidheight>54.00</geoidheight><course>357.5</course><type>1</type></trkpt>
      <trkpt lat="40.42620914" lon="-5.29448724"><ele>2164</ele><speed>7.04</speed><time>2016-06-30T11:42:12Z</time><pdop>12.0</pdop><geoidheight>54.00</geoidheight><course>257.9</course><type>1</type></trkpt>
      <trkpt lat="40.42596644" lon="-5.29466"><ele>2164</ele><speed>4.37</speed><time>2016-06-30T11:42:16Z</time><pdop>18.0</pdop><geoidheight>54.00</geoidheight><course>201.1</course><type>1</type></trkpt>
      <trkpt lat="40.42568464" lon="-5.29414359"><ele>2177</ele><speed>11.33</speed><time>2016-06-30T11:42:20Z</time><pdop>19.0</pdop><geoidheight>54.00</geoidheight><course>116.7</course><type>1</type></trkpt>
      <trkpt lat="40.42561089" lon="-5.29365217"><ele>2190</ele><speed>9.33</speed><time>2016-06-30T11:42:23Z</time><pdop>22.0</pdop><geoidheight>54.00</geoidheight><course>97.9</course><type>1</type></trkpt>
      <trkpt lat="40.4259495" lon="-5.29367287"><ele>2201</ele><speed>8.30</speed><time>2016-06-30T11:42:25Z</time><pdop>12.0</pdop><geoidheight>54.00</geoidheight><course>351.7</course><type>1</type></trkpt>
      <trkpt lat="40.42616456" lon="-5.29387249"><ele>2211</ele><speed>7.28</speed><time>2016-06-30T11:42:29Z</time><pdop>11.0</pdop><geoidheight>54.00</geoidheight><course>312.4</course><type>1</type></trkpt>
      <trkpt lat="40.42606945" lon="-5.29414161"><ele>2218</ele><speed>7.32</speed><time>2016-06-30T11:42:32Z</time><pdop>11.0</pdop><geoidheight>54.00</geoidheight><course>254.6</course><type>1</type></trkpt>
      <trkpt lat="40.42585687" lon="-5.29414795"><ele>2223</ele><speed>6.88</speed><time>2016-06-30T11:42:34Z</time><pdop>12.0</pdop><geoidheight>54.00</geoidheight><course>206.4</course><type>1</type></trkpt>
      <trkpt lat="40.42561606" lon="-5.29400058"><ele>2226</ele><speed>8.40</speed><time>2016-06-30T11:42:36Z</time><pdop>13.0</pdop><geoidheight>54.00</geoidheight><course>163.2</course><type>1</type></trkpt>
      <trkpt lat="40.42544398" lon="-5.29362569"><ele>2230</ele><speed>12.48</speed><time>2016-06-30T11:42:38Z</time><pdop>12.0</pdop><geoidheight>54.00</geoidheight><course>126.9</course><type>1</type></trkpt>
      <trkpt lat="40.42533228" lon="-5.29325487"><ele>2234</ele><speed>14.00</speed><time>2016-06-30T11:42:40Z</time><pdop>16.0</pdop><geoidheight>54.00</geoidheight><course>114.0</course><type>1</type></trkpt>
      <trkpt lat="40.42530526" lon="-5.29287898"><ele>2241</ele><speed>13.75</speed><time>2016-06-30T11:42:42Z</time><pdop>14.0</pdop><geoidheight>54.00</geoidheight><course>96.8</course><type>1</type></trkpt>
      <trkpt lat="40.42558557" lon="-5.29270122"><ele>2245</ele><speed>8.45</speed><time>2016-06-30T11:42:45Z</time><pdop>20.0</pdop><geoidheight>54.00</geoidheight><course>48.6</course><type>1</type></trkpt>
      <trkpt lat="40.42519493" lon="-5.29277105"><ele>2270</ele><speed>11.98</speed><time>2016-06-30T11:43:09Z</time><pdop>14.0</pdop><geoidheight>54.00</geoidheight><course>168.1</course><type>1</type></trkpt>
      <trkpt lat="40.42500089" lon="-5.29245747"><ele>2273</ele><speed>13.17</speed><time>2016-06-30T11:43:11Z</time><pdop>17.0</pdop><geoidheight>54.00</geoidheight><course>141.2</course><type>1</type></trkpt>
      <trkpt lat="40.42495814" lon="-5.29207162"><ele>2278</ele><speed>12.69</speed><time>2016-06-30T11:43:13Z</time><pdop>16.0</pdop><geoidheight>54.00</geoidheight><course>110.0</course><type>1</type></trkpt>
      <trkpt lat="40.42504232" lon="-5.29162791"><ele>2288</ele><speed>12.06</speed><time>2016-06-30T11:43:16Z</time><pdop>18.0</pdop><geoidheight>54.00</geoidheight><course>82.4</course><type>1</type></trkpt>
      <trkpt lat="40.42540039" lon="-5.29165721"><ele>2289</ele><speed>6.81</speed><time>2016-06-30T11:43:19Z</time><pdop>14.0</pdop><geoidheight>54.00</geoidheight><course>15.5</course><type>1</type></trkpt>
      <trkpt lat="40.42554248" lon="-5.29194938"><ele>2289</ele><speed>4.30</speed><time>2016-06-30T11:43:22Z</time><pdop>12.0</pdop><geoidheight>54.00</geoidheight><course>300.5</course><type>1</type></trkpt>
      <trkpt lat="40.42541264" lon="-5.29214303"><ele>2293</ele><speed>6.85</speed><time>2016-06-30T11:43:24Z</time><pdop>8.0</pdop><geoidheight>54.00</geoidheight><course>221.5</course><type>1</type></trkpt>
      <trkpt lat="40.4252614" lon="-5.29221113"><ele>2293</ele><speed>8.62</speed><time>2016-06-30T11:43:26Z</time><pdop>7.0</pdop><geoidheight>54.00</geoidheight><course>196.0</course><type>1</type></trkpt>
      <trkpt lat="40.42508419" lon="-5.29221567"><ele>2292</ele><speed>8.46</speed><time>2016-06-30T11:43:28Z</time><pdop>8.0</pdop><geoidheight>54.00</geoidheight><course>184.9</course><type>1</type></trkpt>
      <trkpt lat="40.42492236" lon="-5.2919878"><ele>2292</ele><speed>9.02</speed><time>2016-06-30T11:43:30Z</time><pdop>11.0</pdop><geoidheight>54.00</geoidheight><course>146.2</course><type>1</type></trkpt>
      <trkpt lat="40.424757" lon="-5.29149908"><ele>2294</ele><speed>15.22</speed><time>2016-06-30T11:43:32Z</time><pdop>11.0</pdop><geoidheight>54.00</geoidheight><course>118.0</course><type>1</type></trkpt>
      <trkpt lat="40.42480214" lon="-5.29109664"><ele>2297</ele><speed>14.82</speed><time>2016-06-30T11:43:34Z</time><pdop>12.0</pdop><geoidheight>54.00</geoidheight><course>97.3</course><type>1</type></trkpt>
      <trkpt lat="40.42488289" lon="-5.2907774"><ele>2299</ele><speed>12.25</speed><time>2016-06-30T11:43:36Z</time><pdop>11.0</pdop><geoidheight>54.00</geoidheight><course>75.9</course><type>1</type></trkpt>
      <trkpt lat="40.42500364" lon="-5.29052106"><ele>2300</ele><speed>11.70</speed><time>2016-06-30T11:43:38Z</time><pdop>11.0</pdop><geoidheight>54.00</geoidheight><course>57.9</course><type>1</type></trkpt>
      <trkpt lat="40.42516833" lon="-5.2903192"><ele>2301</ele><speed>11.79</speed><time>2016-06-30T11:43:40Z</time><pdop>13.0</pdop><geoidheight>54.00</geoidheight><course>46.9</course><type>1</type></trkpt>
      <trkpt lat="40.42544649" lon="-5.29052603"><ele>2298</ele><speed>8.32</speed><time>2016-06-30T11:43:43Z</time><pdop>12.0</pdop><geoidheight>54.00</geoidheight><course>343.6</course><type>1</type></trkpt>
      <trkpt lat="40.42550814" lon="-5.29093036"><ele>2298</ele><speed>9.37</speed><time>2016-06-30T11:43:46Z</time><pdop>11.0</pdop><geoidheight>54.00</geoidheight><course>285.7</course><type>1</type></trkpt>
      <trkpt lat="40.42551084" lon="-5.29121441"><ele>2293</ele><speed>11.09</speed><time>2016-06-30T11:43:48Z</time><pdop>10.0</pdop><geoidheight>54.00</geoidheight><course>271.4</course><type>1</type></trkpt>
      <trkpt lat="40.42555181" lon="-5.2915439"><ele>2289</ele><speed>8.36</speed><time>2016-06-30T11:43:51Z</time><pdop>9.0</pdop><geoidheight>54.00</geoidheight><course>281.8</course><type>1</type></trkpt>
      <trkpt lat="40.42562402" lon="-5.29178915"><ele>2283</ele><speed>8.43</speed><time>2016-06-30T11:43:54Z</time><pdop>10.0</pdop><geoidheight>54.00</geoidheight><course>289.9</course><type>1</type></trkpt>
      <trkpt lat="40.42568823" lon="-5.29203041"><ele>2279</ele><speed>10.79</speed><time>2016-06-30T11:43:56Z</time><pdop>10.0</pdop><geoidheight>54.00</geoidheight><course>288.5</course><type>1</type></trkpt>
      <trkpt lat="40.42572758" lon="-5.29230207"><ele>2277</ele><speed>11.03</speed><time>2016-06-30T11:43:58Z</time><pdop>11.0</pdop><geoidheight>54.00</geoidheight><course>285.8</course><type>1</type></trkpt>
      <trkpt lat="40.42575199" lon="-5.29256076"><ele>2274</ele><speed>10.50</speed><time>2016-06-30T11:44:00Z</time><pdop>11.0</pdop><geoidheight>54.00</geoidheight><course>279.5</course><type>1</type></trkpt>
      <trkpt lat="40.4258162" lon="-5.292929"><ele>2268</ele><speed>11.11</speed><time>2016-06-30T11:44:03Z</time><pdop>10.0</pdop><geoidheight>54.00</geoidheight><course>285.3</course><type>1</type></trkpt>
      <trkpt lat="40.42583377" lon="-5.29317217"><ele>2264</ele><speed>10.13</speed><time>2016-06-30T11:44:05Z</time><pdop>10.0</pdop><geoidheight>54.00</geoidheight><course>279.5</course><type>1</type></trkpt>
      <trkpt lat="40.42588341" lon="-5.2933924"><ele>2258</ele><speed>10.21</speed><time>2016-06-30T11:44:07Z</time><pdop>9.0</pdop><geoidheight>54.00</geoidheight><course>288.0</course><type>1</type></trkpt>
      <trkpt lat="40.42596918" lon="-5.29365779"><ele>2254</ele><speed>12.03</speed><time>2016-06-30T11:44:09Z</time><pdop>9.0</pdop><geoidheight>54.00</geoidheight><course>293.1</course><type>1</type></trkpt>
      <trkpt lat="40.4260014" lon="-5.29395115"><ele>2250</ele><speed>11.83</speed><time>2016-06-30T11:44:11Z</time><pdop>9.0</pdop><geoidheight>54.00</geoidheight><course>276.8</course><type>1</type></trkpt>
      <trkpt lat="40.42601571" lon="-5.29418905"><ele>2248</ele><speed>9.91</speed><time>2016-06-30T11:44:13Z</time><pdop>10.0</pdop><geoidheight>54.00</geoidheight><course>275.9</course><type>1</type></trkpt>
      <trkpt lat="40.4260626" lon="-5.29453163"><ele>2242</ele><speed>9.75</speed><time>2016-06-30T11:44:16Z</time><pdop>9.0</pdop><geoidheight>54.00</geoidheight><course>278.1</course><type>1</type></trkpt>
      <trkpt lat="40.42607301" lon="-5.29476121"><ele>2238</ele><speed>9.95</speed><time>2016-06-30T11:44:18Z</time><pdop>9.0</pdop><geoidheight>54.00</geoidheight><course>271.6</course><type>1</type></trkpt>
      <trkpt lat="40.42605473" lon="-5.29499271"><ele>2236</ele><speed>9.42</speed><time>2016-06-30T11:44:20Z</time><pdop>9.0</pdop><geoidheight>54.00</geoidheight><course>262.8</course><type>1</type></trkpt>
      <trkpt lat="40.42602618" lon="-5.29527917"><ele>2235</ele><speed>8.16</speed><time>2016-06-30T11:44:23Z</time><pdop>9.0</pdop><geoidheight>54.00</geoidheight><course>264.7</course><type>1</type></trkpt>
      <trkpt lat="40.42601797" lon="-5.29552383"><ele>2235</ele><speed>7.41</speed><time>2016-06-30T11:44:26Z</time><pdop>10.0</pdop><geoidheight>54.00</geoidheight><course>260.6</course><type>1</type></trkpt>
      <trkpt lat="40.4258806" lon="-5.2957728"><ele>2235</ele><speed>8.83</speed><time>2016-06-30T11:44:29Z</time><pdop>11.0</pdop><geoidheight>54.00</geoidheight><course>224.7</course><type>1</type></trkpt>
      <trkpt lat="40.42571751" lon="-5.29591421"><ele>2237</ele><speed>11.13</speed><time>2016-06-30T11:44:31Z</time><pdop>10.0</pdop><geoidheight>54.00</geoidheight><course>208.2</course><type>1</type></trkpt>
      <trkpt lat="40.42553198" lon="-5.29598668"><ele>2235</ele><speed>11.11</speed><time>2016-06-30T11:44:33Z</time><pdop>11.0</pdop><geoidheight>54.00</geoidheight><course>201.0</course><type>1</type></trkpt>
      <trkpt lat="40.42527173" lon="-5.29605257"><ele>2236</ele><speed>12.11</speed><time>2016-06-30T11:44:35Z</time><pdop>13.0</pdop><geoidheight>54.00</geoidheight><course>197.3</course><type>1</type></trkpt>
      <trkpt lat="40.42506941" lon="-5.29555445"><ele>2234</ele><speed>13.68</speed><time>2016-06-30T11:44:37Z</time><pdop>13.0</pdop><geoidheight>54.00</geoidheight><course>140.4</course><type>1</type></trkpt>
      <trkpt lat="40.42514591" lon="-5.2951001"><ele>2237</ele><speed>9.35</speed><time>2016-06-30T11:44:40Z</time><pdop>14.0</pdop><geoidheight>54.00</geoidheight><course>92.3</course><type>1</type></trkpt>
      <trkpt lat="40.42530246" lon="-5.29480171"><ele>2244</ele><speed>9.65</speed><time>2016-06-30T11:44:42Z</time><pdop>12.0</pdop><geoidheight>54.00</geoidheight><course>59.6</course><type>1</type></trkpt>
      <trkpt lat="40.42553392" lon="-5.29464094"><ele>2242</ele><speed>8.21</speed><time>2016-06-30T11:44:45Z</time><pdop>11.0</pdop><geoidheight>54.00</geoidheight><course>14.9</course><type>1</type></trkpt>
      <trkpt lat="40.42576135" lon="-5.29468661"><ele>2245</ele><speed>7.91</speed><time>2016-06-30T11:44:48Z</time><pdop>10.0</pdop><geoidheight>54.00</geoidheight><course>343.0</course><type>1</type></trkpt>
      <trkpt lat="40.4259071" lon="-5.29487383"><ele>2246</ele><speed>5.51</speed><time>2016-06-30T11:44:52Z</time><pdop>12.0</pdop><geoidheight>54.00</geoidheight><course>299.8</course><type>1</type></trkpt>
      <trkpt lat="40.42579464" lon="-5.29523709"><ele>2247</ele><speed>9.63</speed><time>2016-06-30T11:44:55Z</time><pdop>10.0</pdop><geoidheight>54.00</geoidheight><course>238.8</course><type>1</type></trkpt>
      <trkpt lat="40.42569655" lon="-5.2954367"><ele>2248</ele><speed>9.33</speed><time>2016-06-30T11:44:57Z</time><pdop>10.0</pdop><geoidheight>54.00</geoidheight><course>235.5</course><type>1</type></trkpt>
      <trkpt lat="40.42547873" lon="-5.29548328"><ele>2247</ele><speed>10.16</speed><time>2016-06-30T11:44:59Z</time><pdop>11.0</pdop><geoidheight>54.00</geoidheight><course>200.5</course><type>1</type></trkpt>
      <trkpt lat="40.42535109" lon="-5.29527838"><ele>2249</ele><speed>12.68</speed><time>2016-06-30T11:45:00Z</time><pdop>10.0</pdop><geoidheight>54.00</geoidheight><course>142.9</course><type>1</type></trkpt>
      <trkpt lat="40.4251952" lon="-5.29500476"><ele>2249</ele><speed>14.54</speed><time>2016-06-30T11:45:02Z</time><pdop>11.0</pdop><geoidheight>54.00</geoidheight><course>125.7</course><type>1</type></trkpt>
      <trkpt lat="40.42505451" lon="-5.29466558"><ele>2252</ele><speed>14.96</speed><time>2016-06-30T11:45:04Z</time><pdop>12.0</pdop><geoidheight>54.00</geoidheight><course>120.2</course><type>1</type></trkpt>
      <trkpt lat="40.4251663" lon="-5.29438641"><ele>2253</ele><speed>11.19</speed><time>2016-06-30T11:45:06Z</time><pdop>12.0</pdop><geoidheight>54.00</geoidheight><course>88.9</course><type>1</type></trkpt>
      <trkpt lat="40.42543813" lon="-5.29421115"><ele>2259</ele><speed>12.02</speed><time>2016-06-30T11:45:08Z</time><pdop>11.0</pdop><geoidheight>54.00</geoidheight><course>40.1</course><type>1</type></trkpt>
      <trkpt lat="40.42566977" lon="-5.29401441"><ele>2262</ele><speed>8.51</speed><time>2016-06-30T11:45:11Z</time><pdop>11.0</pdop><geoidheight>54.00</geoidheight><course>29.0</course><type>1</type></trkpt>
      <trkpt lat="40.42588026" lon="-5.29422532"><ele>2262</ele><speed>7.23</speed><time>2016-06-30T11:45:15Z</time><pdop>11.0</pdop><geoidheight>54.00</geoidheight><course>317.4</course><type>1</type></trkpt>
      <trkpt lat="40.42585082" lon="-5.29453964"><ele>2262</ele><speed>9.23</speed><time>2016-06-30T11:45:17Z</time><pdop>10.0</pdop><geoidheight>54.00</geoidheight><course>273.4</course><type>1</type></trkpt>
      <trkpt lat="40.42578856" lon="-5.29484466"><ele>2260</ele><speed>8.42</speed><time>2016-06-30T11:45:20Z</time><pdop>9.0</pdop><geoidheight>54.00</geoidheight><course>252.2</course><type>1</type></trkpt>
      <trkpt lat="40.42576596" lon="-5.29500242"><ele>2260</ele><speed>5.33</speed><time>2016-06-30T11:45:23Z</time><pdop>3.0</pdop><geoidheight>54.00</geoidheight><course>281.2</course><type>1</type></trkpt>
      <trkpt lat="40.42579439" lon="-5.29509191"><ele>2259</ele><speed>4.34</speed><time>2016-06-30T11:45:25Z</time><pdop>5.0</pdop><geoidheight>54.00</geoidheight><course>292.4</course><type>1</type></trkpt>
      <trkpt lat="40.42595352" lon="-5.29499491"><ele>2254</ele><speed>5.56</speed><time>2016-06-30T11:45:27Z</time><pdop>9.0</pdop><geoidheight>54.00</geoidheight><course>7.6</course><type>1</type></trkpt>
      <trkpt lat="40.42600899" lon="-5.29468837"><ele>2256</ele><speed>14.27</speed><time>2016-06-30T11:45:28Z</time><pdop>6.0</pdop><geoidheight>54.00</geoidheight><course>66.0</course><type>1</type></trkpt>
      <trkpt lat="40.42606018" lon="-5.29453023"><ele>2254</ele><speed>14.15</speed><time>2016-06-30T11:45:29Z</time><pdop>6.0</pdop><geoidheight>54.00</geoidheight><course>70.0</course><type>1</type></trkpt>
      <trkpt lat="40.42610355" lon="-5.29438152"><ele>2255</ele><speed>13.64</speed><time>2016-06-30T11:45:30Z</time><pdop>6.0</pdop><geoidheight>54.00</geoidheight><course>70.3</course><type>1</type></trkpt>
      <trkpt lat="40.42607378" lon="-5.29420356"><ele>2253</ele><speed>9.38</speed><time>2016-06-30T11:45:32Z</time><pdop>7.0</pdop><geoidheight>54.00</geoidheight><course>91.0</course><type>1</type></trkpt>
      <trkpt lat="40.42593718" lon="-5.29412302"><ele>2252</ele><speed>9.48</speed><time>2016-06-30T11:45:33Z</time><pdop>7.0</pdop><geoidheight>54.00</geoidheight><course>126.0</course><type>1</type></trkpt>
      <trkpt lat="40.4258217" lon="-5.29410893"><ele>2252</ele><speed>9.76</speed><time>2016-06-30T11:45:34Z</time><pdop>5.0</pdop><geoidheight>54.00</geoidheight><course>154.9</course><type>1</type></trkpt>
      <trkpt lat="40.42564824" lon="-5.29413529"><ele>2249</ele><speed>8.76</speed><time>2016-06-30T11:45:36Z</time><pdop>5.0</pdop><geoidheight>54.00</geoidheight><course>188.8</course><type>1</type></trkpt>
      <trkpt lat="40.42555005" lon="-5.29418673"><ele>2248</ele><speed>9.68</speed><time>2016-06-30T11:45:37Z</time><pdop>5.0</pdop><geoidheight>54.00</geoidheight><course>199.7</course><type>1</type></trkpt>
      <trkpt lat="40.42540983" lon="-5.29429982"><ele>2249</ele><speed>9.26</speed><time>2016-06-30T11:45:39Z</time><pdop>5.0</pdop><geoidheight>54.00</geoidheight><course>213.4</course><type>1</type></trkpt>
      <trkpt lat="40.42534435" lon="-5.29437144"><ele>2250</ele><speed>9.15</speed><time>2016-06-30T11:45:40Z</time><pdop>4.0</pdop><geoidheight>54.00</geoidheight><course>221.9</course><type>1</type></trkpt>
      <trkpt lat="40.42524519" lon="-5.29451937"><ele>2251</ele><speed>8.44</speed><time>2016-06-30T11:45:42Z</time><pdop>5.0</pdop><geoidheight>54.00</geoidheight><course>223.6</course><type>1</type></trkpt>
      <trkpt lat="40.42513079" lon="-5.29468943"><ele>2252</ele><speed>9.26</speed><time>2016-06-30T11:45:44Z</time><pdop>5.0</pdop><geoidheight>54.00</geoidheight><course>231.2</course><type>1</type></trkpt>
      <trkpt lat="40.42507544" lon="-5.29477075"><ele>2252</ele><speed>9.30</speed><time>2016-06-30T11:45:45Z</time><pdop>4.0</pdop><geoidheight>54.00</geoidheight><course>233.9</course><type>1</type></trkpt>
      <trkpt lat="40.425022" lon="-5.29484817"><ele>2253</ele><speed>9.06</speed><time>2016-06-30T11:45:46Z</time><pdop>4.0</pdop><geoidheight>54.00</geoidheight><course>231.7</course><type>1</type></trkpt>
      <trkpt lat="40.42496609" lon="-5.29491921"><ele>2252</ele><speed>8.78</speed><time>2016-06-30T11:45:47Z</time><pdop>4.0</pdop><geoidheight>54.00</geoidheight><course>223.8</course><type>1</type></trkpt>
      <trkpt lat="40.42492071" lon="-5.29499529"><ele>2251</ele><speed>8.50</speed><time>2016-06-30T11:45:48Z</time><pdop>4.0</pdop><geoidheight>54.00</geoidheight><course>226.2</course><type>1</type></trkpt>
      <trkpt lat="40.42488638" lon="-5.29508471"><ele>2250</ele><speed>8.50</speed><time>2016-06-30T11:45:49Z</time><pdop>4.0</pdop><geoidheight>54.00</geoidheight><course>236.5</course><type>1</type></trkpt>
      <trkpt lat="40.4248211" lon="-5.29529469"><ele>2252</ele><speed>8.99</speed><time>2016-06-30T11:45:51Z</time><pdop>6.0</pdop><geoidheight>54.00</geoidheight><course>249.2</course><type>1</type></trkpt>
      <trkpt lat="40.42480381" lon="-5.29549265"><ele>2253</ele><speed>8.09</speed><time>2016-06-30T11:45:53Z</time><pdop>6.0</pdop><geoidheight>54.00</geoidheight><course>256.9</course><type>1</type></trkpt>
      <trkpt lat="40.4247786" lon="-5.29568153"><ele>2250</ele><speed>7.83</speed><time>2016-06-30T11:45:55Z</time><pdop>6.0</pdop><geoidheight>54.00</geoidheight><course>263.0</course><type>1</type></trkpt>
      <trkpt lat="40.42475244" lon="-5.29588693"><ele>2245</ele><speed>9.34</speed><time>2016-06-30T11:45:57Z</time><pdop>5.0</pdop><geoidheight>54.00</geoidheight><course>262.3</course><type>1</type></trkpt>
      <trkpt lat="40.42472468" lon="-5.29611832"><ele>2241</ele><speed>9.43</speed><time>2016-06-30T11:45:59Z</time><pdop>4.0</pdop><geoidheight>54.00</geoidheight><course>262.0</course><type>1</type></trkpt>
      <trkpt lat="40.42471265" lon="-5.29630402"><ele>2239</ele><speed>7.83</speed><time>2016-06-30T11:46:01Z</time><pdop>3.0</pdop><geoidheight>54.00</geoidheight><course>268.1</course><type>1</type></trkpt>
      <trkpt lat="40.42471036" lon="-5.29641259"><ele>2236</ele><speed>8.85</speed><time>2016-06-30T11:46:02Z</time><pdop>3.0</pdop><geoidheight>54.00</geoidheight><course>269.1</course><type>1</type></trkpt>
      <trkpt lat="40.42471157" lon="-5.29651575"><ele>2235</ele><speed>9.89</speed><time>2016-06-30T11:46:03Z</time><pdop>3.0</pdop><geoidheight>54.00</geoidheight><course>267.0</course><type>1</type></trkpt>
      <trkpt lat="40.42470163" lon="-5.29662695"><ele>2232</ele><speed>10.38</speed><time>2016-06-30T11:46:04Z</time><pdop>3.0</pdop><geoidheight>54.00</geoidheight><course>263.3</course><type>1</type></trkpt>
      <trkpt lat="40.42468411" lon="-5.29674568"><ele>2231</ele><speed>10.01</speed><time>2016-06-30T11:46:05Z</time><pdop>3.0</pdop><geoidheight>54.00</geoidheight><course>258.3</course><type>1</type></trkpt>
      <trkpt lat="40.42466155" lon="-5.29684694"><ele>2231</ele><speed>9.03</speed><time>2016-06-30T11:46:06Z</time><pdop>3.0</pdop><geoidheight>54.00</geoidheight><course>258.4</course><type>1</type></trkpt>
      <trkpt lat="40.42465661" lon="-5.2969384"><ele>2230</ele><speed>8.22</speed><time>2016-06-30T11:46:07Z</time><pdop>3.0</pdop><geoidheight>54.00</geoidheight><course>261.8</course><type>1</type></trkpt>
      <trkpt lat="40.42464713" lon="-5.29702965"><ele>2229</ele><speed>7.87</speed><time>2016-06-30T11:46:08Z</time><pdop>3.0</pdop><geoidheight>54.00</geoidheight><course>259.5</course><type>1</type></trkpt>
      <trkpt lat="40.42462939" lon="-5.29711116"><ele>2226</ele><speed>8.15</speed><time>2016-06-30T11:46:09Z</time><pdop>3.0</pdop><geoidheight>54.00</geoidheight><course>251.9</course><type>1</type></trkpt>
      <trkpt lat="40.42460523" lon="-5.29719295"><ele>2225</ele><speed>7.93</speed><time>2016-06-30T11:46:10Z</time><pdop>4.0</pdop><geoidheight>54.00</geoidheight><course>250.3</course><type>1</type></trkpt>
      <trkpt lat="40.42459967" lon="-5.29731283"><ele>2224</ele><speed>8.96</speed><time>2016-06-30T11:46:11Z</time><pdop>3.0</pdop><geoidheight>54.00</geoidheight><course>264.9</course><type>1</type></trkpt>
      <trkpt lat="40.42462824" lon="-5.2974032"><ele>2221</ele><speed>8.86</speed><time>2016-06-30T11:46:12Z</time><pdop>3.0</pdop><geoidheight>54.00</geoidheight><course>289.8</course><type>1</type></trkpt>
      <trkpt lat="40.42466725" lon="-5.29747694"><ele>2219</ele><speed>8.81</speed><time>2016-06-30T11:46:13Z</time><pdop>3.0</pdop><geoidheight>54.00</geoidheight><course>302.5</course><type>1</type></trkpt>
      <trkpt lat="40.42470173" lon="-5.2975621"><ele>2218</ele><speed>8.11</speed><time>2016-06-30T11:46:14Z</time><pdop>3.0</pdop><geoidheight>54.00</geoidheight><course>300.4</course><type>1</type></trkpt>
      <trkpt lat="40.42471243" lon="-5.29765598"><ele>2217</ele><speed>7.54</speed><time>2016-06-30T11:46:15Z</time><pdop>4.0</pdop><geoidheight>54.00</geoidheight><course>283.5</course><type>1</type></trkpt>
      <trkpt lat="40.42472886" lon="-5.29780119"><ele>2214</ele><speed>6.37</speed><time>2016-06-30T11:46:17Z</time><pdop>4.0</pdop><geoidheight>54.00</geoidheight><course>277.2</course><type>1</type></trkpt>
      <trkpt lat="40.42473242" lon="-5.29799598"><ele>2213</ele><speed>9.21</speed><time>2016-06-30T11:46:19Z</time><pdop>4.0</pdop><geoidheight>54.00</geoidheight><course>269.7</course><type>1</type></trkpt>
      <trkpt lat="40.42472489" lon="-5.29812553"><ele>2213</ele><speed>10.56</speed><time>2016-06-30T11:46:20Z</time><pdop>4.0</pdop><geoidheight>54.00</geoidheight><course>264.8</course><type>1</type></trkpt>
      <trkpt lat="40.42468616" lon="-5.29825789"><ele>2212</ele><speed>10.93</speed><time>2016-06-30T11:46:21Z</time><pdop>4.0</pdop><geoidheight>54.00</geoidheight><course>253.0</course><type>1</type></trkpt>
      <trkpt lat="40.42464099" lon="-5.2983628"><ele>2214</ele><speed>9.88</speed><time>2016-06-30T11:46:22Z</time><pdop>3.0</pdop><geoidheight>54.00</geoidheight><course>242.4</course><type>1</type></trkpt>
      <trkpt lat="40.42460375" lon="-5.29844088"><ele>2216</ele><speed>8.25</speed><time>2016-06-30T11:46:23Z</time><pdop>3.0</pdop><geoidheight>54.00</geoidheight><course>234.4</course><type>1</type></trkpt>
      <trkpt lat="40.42456456" lon="-5.29850931"><ele>2218</ele><speed>7.16</speed><time>2016-06-30T11:46:24Z</time><pdop>3.0</pdop><geoidheight>54.00</geoidheight><course>232.5</course><type>1</type></trkpt>
      <trkpt lat="40.42452971" lon="-5.29856945"><ele>2220</ele><speed>6.38</speed><time>2016-06-30T11:46:25Z</time><pdop>3.0</pdop><geoidheight>54.00</geoidheight><course>232.7</course><type>1</type></trkpt>
      <trkpt lat="40.42448848" lon="-5.29863525"><ele>2221</ele><speed>6.61</speed><time>2016-06-30T11:46:26Z</time><pdop>3.0</pdop><geoidheight>54.00</geoidheight><course>230.6</course><type>1</type></trkpt>
      <trkpt lat="40.42444024" lon="-5.29870063"><ele>2220</ele><speed>7.19</speed><time>2016-06-30T11:46:27Z</time><pdop>3.0</pdop><geoidheight>54.00</geoidheight><course>229.2</course><type>1</type></trkpt>
      <trkpt lat="40.42437561" lon="-5.29878474"><ele>2219</ele><speed>8.98</speed><time>2016-06-30T11:46:28Z</time><pdop>3.0</pdop><geoidheight>54.00</geoidheight><course>226.5</course><type>1</type></trkpt>
      <trkpt lat="40.42431437" lon="-5.29886526"><ele>2219</ele><speed>9.58</speed><time>2016-06-30T11:46:29Z</time><pdop>3.0</pdop><geoidheight>54.00</geoidheight><course>225.6</course><type>1</type></trkpt>
      <trkpt lat="40.42425312" lon="-5.29893113"><ele>2221</ele><speed>9.46</speed><time>2016-06-30T11:46:30Z</time><pdop>3.0</pdop><geoidheight>54.00</geoidheight><course>222.3</course><type>1</type></trkpt>
      <trkpt lat="40.42419691" lon="-5.29900532"><ele>2221</ele><speed>8.89</speed><time>2016-06-30T11:46:31Z</time><pdop>3.0</pdop><geoidheight>54.00</geoidheight><course>223.8</course><type>1</type></trkpt>
      <trkpt lat="40.4241426" lon="-5.29908851"><ele>2221</ele><speed>8.98</speed><time>2016-06-30T11:46:32Z</time><pdop>3.0</pdop><geoidheight>54.00</geoidheight><course>229.8</course><type>1</type></trkpt>
      <trkpt lat="40.4241152" lon="-5.29916784"><ele>2222</ele><speed>8.30</speed><time>2016-06-30T11:46:33Z</time><pdop>3.0</pdop><geoidheight>54.00</geoidheight><course>240.2</course><type>1</type></trkpt>
      <trkpt lat="40.42410238" lon="-5.29925465"><ele>2223</ele><speed>7.58</speed><time>2016-06-30T11:46:34Z</time><pdop>3.0</pdop><geoidheight>54.00</geoidheight><course>257.3</course><type>1</type></trkpt>
      <trkpt lat="40.42411391" lon="-5.29933332"><ele>2222</ele><speed>6.97</speed><time>2016-06-30T11:46:35Z</time><pdop>3.0</pdop><geoidheight>54.00</geoidheight><course>280.1</course><type>1</type></trkpt>
      <trkpt lat="40.42415953" lon="-5.2994363"><ele>2223</ele><speed>5.09</speed><time>2016-06-30T11:46:37Z</time><pdop>5.0</pdop><geoidheight>54.00</geoidheight><course>299.6</course><type>1</type></trkpt>
      <trkpt lat="40.42443041" lon="-5.29935962"><ele>2222</ele><speed>8.45</speed><time>2016-06-30T11:46:40Z</time><pdop>8.0</pdop><geoidheight>54.00</geoidheight><course>12.3</course><type>1</type></trkpt>
      <trkpt lat="40.42449748" lon="-5.29914678"><ele>2221</ele><speed>10.67</speed><time>2016-06-30T11:46:41Z</time><pdop>9.0</pdop><geoidheight>54.00</geoidheight><course>39.7</course><type>1</type></trkpt>
      <trkpt lat="40.42449734" lon="-5.29876353"><ele>2221</ele><speed>13.05</speed><time>2016-06-30T11:46:43Z</time><pdop>8.0</pdop><geoidheight>54.00</geoidheight><course>70.6</course><type>1</type></trkpt>
      <trkpt lat="40.42423782" lon="-5.29862639"><ele>2219</ele><speed>9.44</speed><time>2016-06-30T11:46:45Z</time><pdop>8.0</pdop><geoidheight>54.00</geoidheight><course>129.4</course><type>1</type></trkpt>
      <trkpt lat="40.42407636" lon="-5.29859996"><ele>2220</ele><speed>11.93</speed><time>2016-06-30T11:46:46Z</time><pdop>7.0</pdop><geoidheight>54.00</geoidheight><course>155.2</course><type>1</type></trkpt>
      <trkpt lat="40.42383176" lon="-5.29865653"><ele>2220</ele><speed>13.14</speed><time>2016-06-30T11:46:48Z</time><pdop>7.0</pdop><geoidheight>54.00</geoidheight><course>184.5</course><type>1</type></trkpt>
      <trkpt lat="40.42370813" lon="-5.2988189"><ele>2219</ele><speed>10.43</speed><time>2016-06-30T11:46:50Z</time><pdop>8.0</pdop><geoidheight>54.00</geoidheight><course>200.6</course><type>1</type></trkpt>
      <trkpt lat="40.4237642" lon="-5.29903389"><ele>2220</ele><speed>4.82</speed><time>2016-06-30T11:46:53Z</time><pdop>11.0</pdop><geoidheight>54.00</geoidheight><course>240.9</course><type>1</type></trkpt>
      <trkpt lat="40.42404457" lon="-5.29885636"><ele>2224</ele><speed>6.23</speed><time>2016-06-30T11:46:56Z</time><pdop>14.0</pdop><geoidheight>54.00</geoidheight><course>35.5</course><type>1</type></trkpt>
      <trkpt lat="40.42403646" lon="-5.29845099"><ele>2229</ele><speed>10.84</speed><time>2016-06-30T11:46:58Z</time><pdop>9.0</pdop><geoidheight>54.00</geoidheight><course>88.0</course><type>1</type></trkpt>
      <trkpt lat="40.4240066" lon="-5.29819593"><ele>2233</ele><speed>9.84</speed><time>2016-06-30T11:47:00Z</time><pdop>7.0</pdop><geoidheight>54.00</geoidheight><course>106.6</course><type>1</type></trkpt>
      <trkpt lat="40.42373881" lon="-5.298038"><ele>2236</ele><speed>12.56</speed><time>2016-06-30T11:47:02Z</time><pdop>7.0</pdop><geoidheight>54.00</geoidheight><course>147.1</course><type>1</type></trkpt>
      <trkpt lat="40.42350768" lon="-5.29799476"><ele>2239</ele><speed>12.52</speed><time>2016-06-30T11:47:04Z</time><pdop>9.0</pdop><geoidheight>54.00</geoidheight><course>167.4</course><type>1</type></trkpt>
      <trkpt lat="40.42328258" lon="-5.29828584"><ele>2241</ele><speed>8.53</speed><time>2016-06-30T11:47:07Z</time><pdop>6.0</pdop><geoidheight>54.00</geoidheight><course>221.6</course><type>1</type></trkpt>
      <trkpt lat="40.42325461" lon="-5.2984785"><ele>2240</ele><speed>6.95</speed><time>2016-06-30T11:47:09Z</time><pdop>6.0</pdop><geoidheight>54.00</geoidheight><course>250.0</course><type>1</type></trkpt>
      <trkpt lat="40.42335038" lon="-5.29859406"><ele>2241</ele><speed>5.10</speed><time>2016-06-30T11:47:11Z</time><pdop>8.0</pdop><geoidheight>54.00</geoidheight><course>293.0</course><type>1</type></trkpt>
      <trkpt lat="40.42355375" lon="-5.29872506"><ele>2240</ele><speed>8.42</speed><time>2016-06-30T11:47:13Z</time><pdop>8.0</pdop><geoidheight>54.00</geoidheight><course>329.7</course><type>1</type></trkpt>
      <trkpt lat="40.4238091" lon="-5.29857862"><ele>2240</ele><speed>11.17</speed><time>2016-06-30T11:47:15Z</time><pdop>8.0</pdop><geoidheight>54.00</geoidheight><course>13.8</course><type>1</type></trkpt>
      <trkpt lat="40.42394313" lon="-5.29839"><ele>2239</ele><speed>15.23</speed><time>2016-06-30T11:47:16Z</time><pdop>7.0</pdop><geoidheight>54.00</geoidheight><course>32.7</course><type>1</type></trkpt>
      <trkpt lat="40.42396674" lon="-5.29820642"><ele>2244</ele><speed>13.53</speed><time>2016-06-30T11:47:17Z</time><pdop>5.0</pdop><geoidheight>54.00</geoidheight><course>61.8</course><type>1</type></trkpt>
      <trkpt lat="40.42403205" lon="-5.29809222"><ele>2245</ele><speed>12.22</speed><time>2016-06-30T11:47:18Z</time><pdop>4.0</pdop><geoidheight>54.00</geoidheight><course>60.1</course><type>1</type></trkpt>
      <trkpt lat="40.42408399" lon="-5.29797446"><ele>2247</ele><speed>11.22</speed><time>2016-06-30T11:47:19Z</time><pdop>5.0</pdop><geoidheight>54.00</geoidheight><course>61.4</course><type>1</type></trkpt>
      <trkpt lat="40.42403921" lon="-5.29769447"><ele>2246</ele><speed>11.30</speed><time>2016-06-30T11:47:21Z</time><pdop>5.0</pdop><geoidheight>54.00</geoidheight><course>90.3</course><type>1</type></trkpt>
      <trkpt lat="40.42402035" lon="-5.29757268"><ele>2246</ele><speed>10.90</speed><time>2016-06-30T11:47:22Z</time><pdop>5.0</pdop><geoidheight>54.00</geoidheight><course>96.9</course><type>1</type></trkpt>
      <trkpt lat="40.42397493" lon="-5.29742753"><ele>2245</ele><speed>11.26</speed><time>2016-06-30T11:47:23Z</time><pdop>7.0</pdop><geoidheight>54.00</geoidheight><course>106.0</course><type>1</type></trkpt>
      <trkpt lat="40.42390083" lon="-5.2972757"><ele>2244</ele><speed>12.22</speed><time>2016-06-30T11:47:24Z</time><pdop>7.0</pdop><geoidheight>54.00</geoidheight><course>119.2</course><type>1</type></trkpt>
      <trkpt lat="40.42380138" lon="-5.29711956"><ele>2243</ele><speed>13.59</speed><time>2016-06-30T11:47:25Z</time><pdop>7.0</pdop><geoidheight>54.00</geoidheight><course>125.8</course><type>1</type></trkpt>
      <trkpt lat="40.42362683" lon="-5.2970408"><ele>2245</ele><speed>15.59</speed><time>2016-06-30T11:47:26Z</time><pdop>6.0</pdop><geoidheight>54.00</geoidheight><course>147.4</course><type>1</type></trkpt>
      <trkpt lat="40.42349316" lon="-5.29696906"><ele>2242</ele><speed>15.32</speed><time>2016-06-30T11:47:27Z</time><pdop>6.0</pdop><geoidheight>54.00</geoidheight><course>153.2</course><type>1</type></trkpt>
      <trkpt lat="40.42338447" lon="-5.29698007"><ele>2242</ele><speed>13.23</speed><time>2016-06-30T11:47:28Z</time><pdop>6.0</pdop><geoidheight>54.00</geoidheight><course>165.7</course><type>1</type></trkpt>
      <trkpt lat="40.42322186" lon="-5.29702282"><ele>2242</ele><speed>9.96</speed><time>2016-06-30T11:47:30Z</time><pdop>4.0</pdop><geoidheight>54.00</geoidheight><course>179.9</course><type>1</type></trkpt>
      <trkpt lat="40.42312334" lon="-5.29703907"><ele>2241</ele><speed>10.48</speed><time>2016-06-30T11:47:31Z</time><pdop>4.0</pdop><geoidheight>54.00</geoidheight><course>187.2</course><type>1</type></trkpt>
      <trkpt lat="40.42302459" lon="-5.29707546"><ele>2239</ele><speed>11.01</speed><time>2016-06-30T11:47:32Z</time><pdop>3.0</pdop><geoidheight>54.00</geoidheight><course>199.9</course><type>1</type></trkpt>
      <trkpt lat="40.42294255" lon="-5.29718016"><ele>2235</ele><speed>12.08</speed><time>2016-06-30T11:47:33Z</time><pdop>4.0</pdop><geoidheight>54.00</geoidheight><course>222.2</course><type>1</type></trkpt>
      <trkpt lat="40.42286192" lon="-5.29727571"><ele>2235</ele><speed>12.08</speed><time>2016-06-30T11:47:34Z</time><pdop>4.0</pdop><geoidheight>54.00</geoidheight><course>222.2</course><type>1</type></trkpt>
      <trkpt lat="40.42281041" lon="-5.29740407"><ele>2234</ele><speed>12.00</speed><time>2016-06-30T11:47:35Z</time><pdop>6.0</pdop><geoidheight>54.00</geoidheight><course>230.1</course><type>1</type></trkpt>
      <trkpt lat="40.42276787" lon="-5.29754526"><ele>2233</ele><speed>7.58</speed><time>2016-06-30T11:47:37Z</time><pdop>5.0</pdop><geoidheight>54.00</geoidheight><course>237.0</course><type>1</type></trkpt>
      <trkpt lat="40.42270209" lon="-5.2977128"><ele>2230</ele><speed>7.36</speed><time>2016-06-30T11:47:39Z</time><pdop>4.0</pdop><geoidheight>54.00</geoidheight><course>243.6</course><type>1</type></trkpt>
      <trkpt lat="40.42271427" lon="-5.29781464"><ele>2230</ele><speed>8.87</speed><time>2016-06-30T11:47:40Z</time><pdop>4.0</pdop><geoidheight>54.00</geoidheight><course>267.6</course><type>1</type></trkpt>
      <trkpt lat="40.42272177" lon="-5.29791625"><ele>2229</ele><speed>9.08</speed><time>2016-06-30T11:47:41Z</time><pdop>4.0</pdop><geoidheight>54.00</geoidheight><course>274.6</course><type>1</type></trkpt>
      <trkpt lat="40.42275999" lon="-5.29801604"><ele>2228</ele><speed>8.99</speed><time>2016-06-30T11:47:42Z</time><pdop>4.0</pdop><geoidheight>54.00</geoidheight><course>296.9</course><type>1</type></trkpt>
      <trkpt lat="40.42279983" lon="-5.29810734"><ele>2227</ele><speed>8.58</speed><time>2016-06-30T11:47:43Z</time><pdop>4.0</pdop><geoidheight>54.00</geoidheight><course>304.1</course><type>1</type></trkpt>
      <trkpt lat="40.42289567" lon="-5.29825571"><ele>2225</ele><speed>8.33</speed><time>2016-06-30T11:47:45Z</time><pdop>4.0</pdop><geoidheight>54.00</geoidheight><course>314.2</course><type>1</type></trkpt>
      <trkpt lat="40.42294787" lon="-5.29832608"><ele>2225</ele><speed>8.32</speed><time>2016-06-30T11:47:46Z</time><pdop>4.0</pdop><geoidheight>54.00</geoidheight><course>314.1</course><type>1</type></trkpt>
      <trkpt lat="40.42300764" lon="-5.29839347"><ele>2222</ele><speed>8.99</speed><time>2016-06-30T11:47:47Z</time><pdop>4.0</pdop><geoidheight>54.00</geoidheight><course>313.3</course><type>1</type></trkpt>
      <trkpt lat="40.42305718" lon="-5.29848138"><ele>2220</ele><speed>9.81</speed><time>2016-06-30T11:47:48Z</time><pdop>4.0</pdop><geoidheight>54.00</geoidheight><course>312.3</course><type>1</type></trkpt>
      <trkpt lat="40.42312763" lon="-5.29855081"><ele>2218</ele><speed>9.74</speed><time>2016-06-30T11:47:49Z</time><pdop>4.0</pdop><geoidheight>54.00</geoidheight><course>317.2</course><type>1</type></trkpt>
      <trkpt lat="40.42319139" lon="-5.29862879"><ele>2218</ele><speed>9.70</speed><time>2016-06-30T11:47:50Z</time><pdop>4.0</pdop><geoidheight>54.00</geoidheight><course>317.0</course><type>1</type></trkpt>
      <trkpt lat="40.42330981" lon="-5.29875733"><ele>2214</ele><speed>9.06</speed><time>2016-06-30T11:47:52Z</time><pdop>4.0</pdop><geoidheight>54.00</geoidheight><course>314.4</course><type>1</type></trkpt>
      <trkpt lat="40.42336643" lon="-5.2988339"><ele>2214</ele><speed>9.04</speed><time>2016-06-30T11:47:53Z</time><pdop>5.0</pdop><geoidheight>54.00</geoidheight><course>314.2</course><type>1</type></trkpt>
      <trkpt lat="40.4234478" lon="-5.29891045"><ele>2211</ele><speed>10.95</speed><time>2016-06-30T11:47:54Z</time><pdop>3.0</pdop><geoidheight>54.00</geoidheight><course>319.0</course><type>1</type></trkpt>
      <trkpt lat="40.42354206" lon="-5.29897729"><ele>2208</ele><speed>11.77</speed><time>2016-06-30T11:47:55Z</time><pdop>3.0</pdop><geoidheight>54.00</geoidheight><course>323.8</course><type>1</type></trkpt>
      <trkpt lat="40.42363607" lon="-5.29903995"><ele>2206</ele><speed>12.08</speed><time>2016-06-30T11:47:56Z</time><pdop>3.0</pdop><geoidheight>54.00</geoidheight><course>329.0</course><type>1</type></trkpt>
      <trkpt lat="40.42372705" lon="-5.29909599"><ele>2203</ele><speed>11.90</speed><time>2016-06-30T11:47:57Z</time><pdop>3.0</pdop><geoidheight>54.00</geoidheight><course>334.0</course><type>1</type></trkpt>
      <trkpt lat="40.42381628" lon="-5.29915153"><ele>2204</ele><speed>11.45</speed><time>2016-06-30T11:47:58Z</time><pdop>3.0</pdop><geoidheight>54.00</geoidheight><course>336.2</course><type>1</type></trkpt>
      <trkpt lat="40.42391064" lon="-5.29920602"><ele>2203</ele><speed>11.45</speed><time>2016-06-30T11:47:59Z</time><pdop>3.0</pdop><geoidheight>54.00</geoidheight><course>336.2</course><type>1</type></trkpt>
      <trkpt lat="40.42398775" lon="-5.29920922"><ele>2200</ele><speed>9.28</speed><time>2016-06-30T11:48:00Z</time><pdop>3.0</pdop><geoidheight>54.00</geoidheight><course>346.8</course><type>1</type></trkpt>
      <trkpt lat="40.42405877" lon="-5.29922375"><ele>2197</ele><speed>9.89</speed><time>2016-06-30T11:48:01Z</time><pdop>3.0</pdop><geoidheight>54.00</geoidheight><course>347.0</course><type>1</type></trkpt>
      <trkpt lat="40.42414109" lon="-5.29924861"><ele>2194</ele><speed>9.67</speed><time>2016-06-30T11:48:02Z</time><pdop>4.0</pdop><geoidheight>54.00</geoidheight><course>347.0</course><type>1</type></trkpt>
      <trkpt lat="40.42425354" lon="-5.29927127"><ele>2189</ele><speed>12.29</speed><time>2016-06-30T11:48:03Z</time><pdop>5.0</pdop><geoidheight>54.00</geoidheight><course>345.5</course><type>1</type></trkpt>
      <trkpt lat="40.42435766" lon="-5.29931644"><ele>2187</ele><speed>12.27</speed><time>2016-06-30T11:48:04Z</time><pdop>5.0</pdop><geoidheight>54.00</geoidheight><course>343.4</course><type>1</type></trkpt>
      <trkpt lat="40.42446298" lon="-5.29935761"><ele>2187</ele><speed>12.21</speed><time>2016-06-30T11:48:05Z</time><pdop>6.0</pdop><geoidheight>54.00</geoidheight><course>343.4</course><type>1</type></trkpt>
      <trkpt lat="40.42461065" lon="-5.29938763"><ele>2186</ele><speed>9.16</speed><time>2016-06-30T11:48:07Z</time><pdop>4.0</pdop><geoidheight>54.00</geoidheight><course>350.2</course><type>1</type></trkpt>
      <trkpt lat="40.42469545" lon="-5.29941571"><ele>2184</ele><speed>8.78</speed><time>2016-06-30T11:48:08Z</time><pdop>5.0</pdop><geoidheight>54.00</geoidheight><course>347.7</course><type>1</type></trkpt>
      <trkpt lat="40.42487667" lon="-5.29946275"><ele>2184</ele><speed>10.13</speed><time>2016-06-30T11:48:10Z</time><pdop>7.0</pdop><geoidheight>54.00</geoidheight><course>348.8</course><type>1</type></trkpt>
      <trkpt lat="40.4251006" lon="-5.29941929"><ele>2180</ele><speed>11.69</speed><time>2016-06-30T11:48:12Z</time><pdop>9.0</pdop><geoidheight>54.00</geoidheight><course>355.7</course><type>1</type></trkpt>
      <trkpt lat="40.42531826" lon="-5.2994689"><ele>2177</ele><speed>12.01</speed><time>2016-06-30T11:48:14Z</time><pdop>10.0</pdop><geoidheight>54.00</geoidheight><course>339.4</course><type>1</type></trkpt>
      <trkpt lat="40.42558452" lon="-5.29968153"><ele>2175</ele><speed>11.61</speed><time>2016-06-30T11:48:17Z</time><pdop>12.0</pdop><geoidheight>54.00</geoidheight><course>328.9</course><type>1</type></trkpt>
      <trkpt lat="40.42551957" lon="-5.29995814"><ele>2173</ele><speed>9.67</speed><time>2016-06-30T11:48:19Z</time><pdop>7.0</pdop><geoidheight>54.00</geoidheight><course>278.2</course><type>1</type></trkpt>
      <trkpt lat="40.42544908" lon="-5.30018256"><ele>2170</ele><speed>10.06</speed><time>2016-06-30T11:48:21Z</time><pdop>5.0</pdop><geoidheight>54.00</geoidheight><course>257.3</course><type>1</type></trkpt>
      <trkpt lat="40.42543912" lon="-5.30030664"><ele>2167</ele><speed>10.37</speed><time>2016-06-30T11:48:22Z</time><pdop>5.0</pdop><geoidheight>54.00</geoidheight><course>258.0</course><type>1</type></trkpt>
      <trkpt lat="40.42540518" lon="-5.30050465"><ele>2166</ele><speed>8.96</speed><time>2016-06-30T11:48:24Z</time><pdop>4.0</pdop><geoidheight>54.00</geoidheight><course>257.0</course><type>1</type></trkpt>
      <trkpt lat="40.42536303" lon="-5.30059232"><ele>2163</ele><speed>8.50</speed><time>2016-06-30T11:48:25Z</time><pdop>4.0</pdop><geoidheight>54.00</geoidheight><course>249.3</course><type>1</type></trkpt>
      <trkpt lat="40.42532384" lon="-5.30069058"><ele>2162</ele><speed>9.27</speed><time>2016-06-30T11:48:26Z</time><pdop>4.0</pdop><geoidheight>54.00</geoidheight><course>242.6</course><type>1</type></trkpt>
      <trkpt lat="40.42527786" lon="-5.30079914"><ele>2159</ele><speed>10.07</speed><time>2016-06-30T11:48:27Z</time><pdop>4.0</pdop><geoidheight>54.00</geoidheight><course>242.0</course><type>1</type></trkpt>
      <trkpt lat="40.42523824" lon="-5.30090579"><ele>2158</ele><speed>10.53</speed><time>2016-06-30T11:48:28Z</time><pdop>4.0</pdop><geoidheight>54.00</geoidheight><course>244.2</course><type>1</type></trkpt>
      <trkpt lat="40.42519994" lon="-5.30101239"><ele>2156</ele><speed>10.24</speed><time>2016-06-30T11:48:29Z</time><pdop>4.0</pdop><geoidheight>54.00</geoidheight><course>247.1</course><type>1</type></trkpt>
      <trkpt lat="40.42516495" lon="-5.30112521"><ele>2155</ele><speed>9.59</speed><time>2016-06-30T11:48:30Z</time><pdop>4.0</pdop><geoidheight>54.00</geoidheight><course>244.9</course><type>1</type></trkpt>
      <trkpt lat="40.42511778" lon="-5.30122382"><ele>2154</ele><speed>9.27</speed><time>2016-06-30T11:48:31Z</time><pdop>4.0</pdop><geoidheight>54.00</geoidheight><course>238.4</course><type>1</type></trkpt>
      <trkpt lat="40.42505808" lon="-5.30131754"><ele>2151</ele><speed>9.58</speed><time>2016-06-30T11:48:32Z</time><pdop>4.0</pdop><geoidheight>54.00</geoidheight><course>233.8</course><type>1</type></trkpt>
      <trkpt lat="40.4250089" lon="-5.30141102"><ele>2148</ele><speed>9.84</speed><time>2016-06-30T11:48:33Z</time><pdop>3.0</pdop><geoidheight>54.00</geoidheight><course>234.2</course><type>1</type></trkpt>
      <trkpt lat="40.4249606" lon="-5.30151331"><ele>2147</ele><speed>9.95</speed><time>2016-06-30T11:48:34Z</time><pdop>4.0</pdop><geoidheight>54.00</geoidheight><course>237.4</course><type>1</type></trkpt>
      <trkpt lat="40.42491148" lon="-5.30162191"><ele>2145</ele><speed>10.28</speed><time>2016-06-30T11:48:35Z</time><pdop>4.0</pdop><geoidheight>54.00</geoidheight><course>239.1</course><type>1</type></trkpt>
      <trkpt lat="40.42487174" lon="-5.3017325"><ele>2142</ele><speed>10.10</speed><time>2016-06-30T11:48:36Z</time><pdop>3.0</pdop><geoidheight>54.00</geoidheight><course>239.9</course><type>1</type></trkpt>
      <trkpt lat="40.42483391" lon="-5.30183772"><ele>2140</ele><speed>10.06</speed><time>2016-06-30T11:48:37Z</time><pdop>3.0</pdop><geoidheight>54.00</geoidheight><course>241.8</course><type>1</type></trkpt>
      <trkpt lat="40.42481085" lon="-5.30194253"><ele>2140</ele><speed>9.53</speed><time>2016-06-30T11:48:38Z</time><pdop>3.0</pdop><geoidheight>54.00</geoidheight><course>252.3</course><type>1</type></trkpt>
      <trkpt lat="40.42479182" lon="-5.30205591"><ele>2139</ele><speed>9.53</speed><time>2016-06-30T11:48:39Z</time><pdop>4.0</pdop><geoidheight>54.00</geoidheight><course>257.9</course><type>1</type></trkpt>
      <trkpt lat="40.42481679" lon="-5.30216988"><ele>2138</ele><speed>9.67</speed><time>2016-06-30T11:48:40Z</time><pdop>4.0</pdop><geoidheight>54.00</geoidheight><course>276.6</course><type>1</type></trkpt>
      <trkpt lat="40.42481797" lon="-5.30228698"><ele>2137</ele><speed>9.71</speed><time>2016-06-30T11:48:41Z</time><pdop>5.0</pdop><geoidheight>54.00</geoidheight><course>271.1</course><type>1</type></trkpt>
      <trkpt lat="40.42479579" lon="-5.30249641"><ele>2135</ele><speed>9.44</speed><time>2016-06-30T11:48:43Z</time><pdop>8.0</pdop><geoidheight>54.00</geoidheight><course>262.4</course><type>1</type></trkpt>
      <trkpt lat="40.42473504" lon="-5.30271572"><ele>2133</ele><speed>9.64</speed><time>2016-06-30T11:48:45Z</time><pdop>5.0</pdop><geoidheight>54.00</geoidheight><course>254.2</course><type>1</type></trkpt>
      <trkpt lat="40.42469374" lon="-5.30282891"><ele>2130</ele><speed>9.42</speed><time>2016-06-30T11:48:46Z</time><pdop>5.0</pdop><geoidheight>54.00</geoidheight><course>254.2</course><type>1</type></trkpt>
      <trkpt lat="40.42465906" lon="-5.30294374"><ele>2128</ele><speed>9.74</speed><time>2016-06-30T11:48:47Z</time><pdop>4.0</pdop><geoidheight>54.00</geoidheight><course>251.4</course><type>1</type></trkpt>
      <trkpt lat="40.42462789" lon="-5.30305708"><ele>2126</ele><speed>10.31</speed><time>2016-06-30T11:48:48Z</time><pdop>4.0</pdop><geoidheight>54.00</geoidheight><course>247.1</course><type>1</type></trkpt>
      <trkpt lat="40.42457945" lon="-5.30316541"><ele>2125</ele><speed>10.07</speed><time>2016-06-30T11:48:49Z</time><pdop>4.0</pdop><geoidheight>54.00</geoidheight><course>243.3</course><type>1</type></trkpt>
      <trkpt lat="40.4245364" lon="-5.3032695"><ele>2122</ele><speed>10.20</speed><time>2016-06-30T11:48:50Z</time><pdop>3.0</pdop><geoidheight>54.00</geoidheight><course>239.6</course><type>1</type></trkpt>
      <trkpt lat="40.42448999" lon="-5.30337243"><ele>2121</ele><speed>9.91</speed><time>2016-06-30T11:48:51Z</time><pdop>3.0</pdop><geoidheight>54.00</geoidheight><course>236.3</course><type>1</type></trkpt>
      <trkpt lat="40.42443446" lon="-5.30346409"><ele>2120</ele><speed>9.85</speed><time>2016-06-30T11:48:52Z</time><pdop>3.0</pdop><geoidheight>54.00</geoidheight><course>232.9</course><type>1</type></trkpt>
      <trkpt lat="40.42439201" lon="-5.30354012"><ele>2117</ele><speed>9.95</speed><time>2016-06-30T11:48:53Z</time><pdop>3.0</pdop><geoidheight>54.00</geoidheight><course>232.1</course><type>1</type></trkpt>
      <trkpt lat="40.42434551" lon="-5.30362614"><ele>2112</ele><speed>10.01</speed><time>2016-06-30T11:48:54Z</time><pdop>3.0</pdop><geoidheight>54.00</geoidheight><course>233.8</course><type>1</type></trkpt>
      <trkpt lat="40.42428704" lon="-5.30372692"><ele>2109</ele><speed>10.83</speed><time>2016-06-30T11:48:55Z</time><pdop>3.0</pdop><geoidheight>54.00</geoidheight><course>232.2</course><type>1</type></trkpt>
      <trkpt lat="40.42422023" lon="-5.30383369"><ele>2107</ele><speed>11.69</speed><time>2016-06-30T11:48:56Z</time><pdop>4.0</pdop><geoidheight>54.00</geoidheight><course>231.4</course><type>1</type></trkpt>
      <trkpt lat="40.42413413" lon="-5.30395729"><ele>2104</ele><speed>13.64</speed><time>2016-06-30T11:48:57Z</time><pdop>4.0</pdop><geoidheight>54.00</geoidheight><course>230.7</course><type>1</type></trkpt>
      <trkpt lat="40.42406775" lon="-5.30409033"><ele>2102</ele><speed>14.42</speed><time>2016-06-30T11:48:58Z</time><pdop>4.0</pdop><geoidheight>54.00</geoidheight><course>235.7</course><type>1</type></trkpt>
      <trkpt lat="40.42400049" lon="-5.30423448"><ele>2101</ele><speed>14.06</speed><time>2016-06-30T11:48:59Z</time><pdop>3.0</pdop><geoidheight>54.00</geoidheight><course>239.8</course><type>1</type></trkpt>
      <trkpt lat="40.42393006" lon="-5.30436522"><ele>2100</ele><speed>13.62</speed><time>2016-06-30T11:49:00Z</time><pdop>3.0</pdop><geoidheight>54.00</geoidheight><course>237.9</course><type>1</type></trkpt>
      <trkpt lat="40.42387674" lon="-5.30449988"><ele>2098</ele><speed>13.11</speed><time>2016-06-30T11:49:01Z</time><pdop>3.0</pdop><geoidheight>54.00</geoidheight><course>239.1</course><type>1</type></trkpt>
      <trkpt lat="40.42382741" lon="-5.30462322"><ele>2096</ele><speed>12.40</speed><time>2016-06-30T11:49:02Z</time><pdop>3.0</pdop><geoidheight>54.00</geoidheight><course>242.5</course><type>1</type></trkpt>
      <trkpt lat="40.42378505" lon="-5.30473239"><ele>2093</ele><speed>11.65</speed><time>2016-06-30T11:49:03Z</time><pdop>3.0</pdop><geoidheight>54.00</geoidheight><course>244.6</course><type>1</type></trkpt>
      <trkpt lat="40.4237394" lon="-5.30485927"><ele>2091</ele><speed>12.13</speed><time>2016-06-30T11:49:04Z</time><pdop>3.0</pdop><geoidheight>54.00</geoidheight><course>244.9</course><type>1</type></trkpt>
      <trkpt lat="40.42368759" lon="-5.30499043"><ele>2088</ele><speed>12.88</speed><time>2016-06-30T11:49:05Z</time><pdop>9.0</pdop><geoidheight>54.00</geoidheight><course>243.3</course><type>1</type></trkpt>
      <trkpt lat="40.42359391" lon="-5.30527892"><ele>2084</ele><speed>13.09</speed><time>2016-06-30T11:49:07Z</time><pdop>9.0</pdop><geoidheight>54.00</geoidheight><course>244.5</course><type>1</type></trkpt>
      <trkpt lat="40.42349524" lon="-5.30555205"><ele>2081</ele><speed>12.70</speed><time>2016-06-30T11:49:09Z</time><pdop>9.0</pdop><geoidheight>54.00</geoidheight><course>244.9</course><type>1</type></trkpt>
      <trkpt lat="40.42341477" lon="-5.30581424"><ele>2077</ele><speed>13.06</speed><time>2016-06-30T11:49:11Z</time><pdop>9.0</pdop><geoidheight>54.00</geoidheight><course>248.9</course><type>1</type></trkpt>
      <trkpt lat="40.42336856" lon="-5.30611917"><ele>2073</ele><speed>13.21</speed><time>2016-06-30T11:49:13Z</time><pdop>10.0</pdop><geoidheight>54.00</geoidheight><course>261.7</course><type>1</type></trkpt>
      <trkpt lat="40.4233221" lon="-5.3064274"><ele>2071</ele><speed>12.73</speed><time>2016-06-30T11:49:15Z</time><pdop>11.0</pdop><geoidheight>54.00</geoidheight><course>259.5</course><type>1</type></trkpt>
      <trkpt lat="40.42328715" lon="-5.30671642"><ele>2070</ele><speed>12.29</speed><time>2016-06-30T11:49:17Z</time><pdop>13.0</pdop><geoidheight>54.00</geoidheight><course>258.9</course><type>1</type></trkpt>
      <trkpt lat="40.42319855" lon="-5.30710199"><ele>2063</ele><speed>13.17</speed><time>2016-06-30T11:49:20Z</time><pdop>10.0</pdop><geoidheight>54.00</geoidheight><course>253.8</course><type>1</type></trkpt>
      <trkpt lat="40.42311359" lon="-5.30737799"><ele>2060</ele><speed>13.57</speed><time>2016-06-30T11:49:22Z</time><pdop>10.0</pdop><geoidheight>54.00</geoidheight><course>248.5</course><type>1</type></trkpt>
      <trkpt lat="40.42306497" lon="-5.30765469"><ele>2056</ele><speed>11.88</speed><time>2016-06-30T11:49:24Z</time><pdop>10.0</pdop><geoidheight>54.00</geoidheight><course>258.4</course><type>1</type></trkpt>
      <trkpt lat="40.42301262" lon="-5.30792478"><ele>2055</ele><speed>11.07</speed><time>2016-06-30T11:49:26Z</time><pdop>10.0</pdop><geoidheight>54.00</geoidheight><course>258.7</course><type>1</type></trkpt>
      <trkpt lat="40.422921" lon="-5.30813703"><ele>2055</ele><speed>10.16</speed><time>2016-06-30T11:49:28Z</time><pdop>10.0</pdop><geoidheight>54.00</geoidheight><course>241.9</course><type>1</type></trkpt>
      <trkpt lat="40.42284232" lon="-5.30843265"><ele>2054</ele><speed>8.82</speed><time>2016-06-30T11:49:31Z</time><pdop>10.0</pdop><geoidheight>54.00</geoidheight><course>260.7</course><type>1</type></trkpt>
      <trkpt lat="40.42289599" lon="-5.30863462"><ele>2053</ele><speed>8.55</speed><time>2016-06-30T11:49:33Z</time><pdop>4.0</pdop><geoidheight>54.00</geoidheight><course>296.1</course><type>1</type></trkpt>
      <trkpt lat="40.42293934" lon="-5.30871741"><ele>2053</ele><speed>8.09</speed><time>2016-06-30T11:49:34Z</time><pdop>4.0</pdop><geoidheight>54.00</geoidheight><course>308.2</course><type>1</type></trkpt>
      <trkpt lat="40.42307625" lon="-5.30872238"><ele>2049</ele><speed>7.03</speed><time>2016-06-30T11:49:36Z</time><pdop>7.0</pdop><geoidheight>54.00</geoidheight><course>345.6</course><type>1</type></trkpt>
      <trkpt lat="40.42318979" lon="-5.30850062"><ele>2048</ele><speed>6.69</speed><time>2016-06-30T11:49:39Z</time><pdop>14.0</pdop><geoidheight>54.00</geoidheight><course>43.5</course><type>1</type></trkpt>
      <trkpt lat="40.4230663" lon="-5.30814183"><ele>2046</ele><speed>8.77</speed><time>2016-06-30T11:49:41Z</time><pdop>14.0</pdop><geoidheight>54.00</geoidheight><course>97.9</course><type>1</type></trkpt>
      <trkpt lat="40.42268089" lon="-5.30791262"><ele>2049</ele><speed>13.91</speed><time>2016-06-30T11:49:43Z</time><pdop>9.0</pdop><geoidheight>54.00</geoidheight><course>152.8</course><type>1</type></trkpt>
      <trkpt lat="40.42253784" lon="-5.3079282"><ele>2048</ele><speed>13.97</speed><time>2016-06-30T11:49:44Z</time><pdop>6.0</pdop><geoidheight>54.00</geoidheight><course>179.8</course><type>1</type></trkpt>
      <trkpt lat="40.42240249" lon="-5.30793805"><ele>2048</ele><speed>13.68</speed><time>2016-06-30T11:49:45Z</time><pdop>6.0</pdop><geoidheight>54.00</geoidheight><course>189.1</course><type>1</type></trkpt>
      <trkpt lat="40.42226956" lon="-5.30797797"><ele>2048</ele><speed>13.14</speed><time>2016-06-30T11:49:46Z</time><pdop>5.0</pdop><geoidheight>54.00</geoidheight><course>199.1</course><type>1</type></trkpt>
      <trkpt lat="40.42216575" lon="-5.30804783"><ele>2048</ele><speed>13.02</speed><time>2016-06-30T11:49:47Z</time><pdop>4.0</pdop><geoidheight>54.00</geoidheight><course>207.8</course><type>1</type></trkpt>
      <trkpt lat="40.4220694" lon="-5.30812526"><ele>2049</ele><speed>12.81</speed><time>2016-06-30T11:49:48Z</time><pdop>4.0</pdop><geoidheight>54.00</geoidheight><course>213.3</course><type>1</type></trkpt>
      <trkpt lat="40.42197398" lon="-5.30821218"><ele>2049</ele><speed>12.33</speed><time>2016-06-30T11:49:49Z</time><pdop>4.0</pdop><geoidheight>54.00</geoidheight><course>219.0</course><type>1</type></trkpt>
      <trkpt lat="40.42188438" lon="-5.3083028"><ele>2050</ele><speed>12.23</speed><time>2016-06-30T11:49:50Z</time><pdop>4.0</pdop><geoidheight>54.00</geoidheight><course>220.8</course><type>1</type></trkpt>
      <trkpt lat="40.4218181" lon="-5.30841103"><ele>2051</ele><speed>11.59</speed><time>2016-06-30T11:49:51Z</time><pdop>4.0</pdop><geoidheight>54.00</geoidheight><course>229.1</course><type>1</type></trkpt>
      <trkpt lat="40.42174735" lon="-5.30851237"><ele>2052</ele><speed>11.25</speed><time>2016-06-30T11:49:52Z</time><pdop>3.0</pdop><geoidheight>54.00</geoidheight><course>231.5</course><type>1</type></trkpt>
      <trkpt lat="40.42169545" lon="-5.30861063"><ele>2052</ele><speed>10.60</speed><time>2016-06-30T11:49:53Z</time><pdop>3.0</pdop><geoidheight>54.00</geoidheight><course>233.9</course><type>1</type></trkpt>
      <trkpt lat="40.42165895" lon="-5.30870611"><ele>2052</ele><speed>9.04</speed><time>2016-06-30T11:49:54Z</time><pdop>3.0</pdop><geoidheight>54.00</geoidheight><course>241.0</course><type>1</type></trkpt>
      <trkpt lat="40.42164889" lon="-5.30879386"><ele>2052</ele><speed>7.94</speed><time>2016-06-30T11:49:55Z</time><pdop>3.0</pdop><geoidheight>54.00</geoidheight><course>254.6</course><type>1</type></trkpt>
      <trkpt lat="40.4216492" lon="-5.30888422"><ele>2052</ele><speed>7.84</speed><time>2016-06-30T11:49:56Z</time><pdop>3.0</pdop><geoidheight>54.00</geoidheight><course>266.3</course><type>1</type></trkpt>
      <trkpt lat="40.42165031" lon="-5.30898445"><ele>2052</ele><speed>8.14</speed><time>2016-06-30T11:49:57Z</time><pdop>3.0</pdop><geoidheight>54.00</geoidheight><course>269.4</course><type>1</type></trkpt>
      <trkpt lat="40.42165082" lon="-5.30909117"><ele>2053</ele><speed>8.51</speed><time>2016-06-30T11:49:58Z</time><pdop>3.0</pdop><geoidheight>54.00</geoidheight><course>269.2</course><type>1</type></trkpt>
      <trkpt lat="40.4216454" lon="-5.30921123"><ele>2053</ele><speed>9.31</speed><time>2016-06-30T11:49:59Z</time><pdop>3.0</pdop><geoidheight>54.00</geoidheight><course>266.5</course><type>1</type></trkpt>
      <trkpt lat="40.42163568" lon="-5.3092996"><ele>2053</ele><speed>9.08</speed><time>2016-06-30T11:50:00Z</time><pdop>3.0</pdop><geoidheight>54.00</geoidheight><course>261.5</course><type>1</type></trkpt>
      <trkpt lat="40.42161814" lon="-5.30940103"><ele>2056</ele><speed>9.14</speed><time>2016-06-30T11:50:01Z</time><pdop>3.0</pdop><geoidheight>54.00</geoidheight><course>255.1</course><type>1</type></trkpt>
      <trkpt lat="40.42159549" lon="-5.30949329"><ele>2055</ele><speed>8.86</speed><time>2016-06-30T11:50:02Z</time><pdop>4.0</pdop><geoidheight>54.00</geoidheight><course>252.2</course><type>1</type></trkpt>
      <trkpt lat="40.42155505" lon="-5.30958965"><ele>2056</ele><speed>8.81</speed><time>2016-06-30T11:50:03Z</time><pdop>4.0</pdop><geoidheight>54.00</geoidheight><course>245.4</course><type>1</type></trkpt>
      <trkpt lat="40.42151941" lon="-5.30967783"><ele>2056</ele><speed>8.60</speed><time>2016-06-30T11:50:04Z</time><pdop>4.0</pdop><geoidheight>54.00</geoidheight><course>242.4</course><type>1</type></trkpt>
      <trkpt lat="40.42146686" lon="-5.30977893"><ele>2057</ele><speed>9.41</speed><time>2016-06-30T11:50:05Z</time><pdop>4.0</pdop><geoidheight>54.00</geoidheight><course>240.1</course><type>1</type></trkpt>
      <trkpt lat="40.42141346" lon="-5.30992173"><ele>2057</ele><speed>11.80</speed><time>2016-06-30T11:50:06Z</time><pdop>4.0</pdop><geoidheight>54.00</geoidheight><course>242.1</course><type>1</type></trkpt>
      <trkpt lat="40.42135148" lon="-5.3100485"><ele>2059</ele><speed>12.94</speed><time>2016-06-30T11:50:07Z</time><pdop>4.0</pdop><geoidheight>54.00</geoidheight><course>239.0</course><type>1</type></trkpt>
      <trkpt lat="40.42127191" lon="-5.31019112"><ele>2060</ele><speed>13.44</speed><time>2016-06-30T11:50:08Z</time><pdop>4.0</pdop><geoidheight>54.00</geoidheight><course>235.5</course><type>1</type></trkpt>
      <trkpt lat="40.42119794" lon="-5.31030192"><ele>2062</ele><speed>12.33</speed><time>2016-06-30T11:50:09Z</time><pdop>4.0</pdop><geoidheight>54.00</geoidheight><course>231.9</course><type>1</type></trkpt>
      <trkpt lat="40.42111887" lon="-5.31039522"><ele>2064</ele><speed>10.94</speed><time>2016-06-30T11:50:10Z</time><pdop>5.0</pdop><geoidheight>54.00</geoidheight><course>225.1</course><type>1</type></trkpt>
      <trkpt lat="40.42106834" lon="-5.31048874"><ele>2065</ele><speed>9.47</speed><time>2016-06-30T11:50:11Z</time><pdop>4.0</pdop><geoidheight>54.00</geoidheight><course>231.3</course><type>1</type></trkpt>
      <trkpt lat="40.42102586" lon="-5.31058188"><ele>2067</ele><speed>9.17</speed><time>2016-06-30T11:50:12Z</time><pdop>4.0</pdop><geoidheight>54.00</geoidheight><course>239.3</course><type>1</type></trkpt>
      <trkpt lat="40.42097424" lon="-5.3106801"><ele>2069</ele><speed>10.43</speed><time>2016-06-30T11:50:13Z</time><pdop>4.0</pdop><geoidheight>54.00</geoidheight><course>238.1</course><type>1</type></trkpt>
      <trkpt lat="40.42090429" lon="-5.31079334"><ele>2070</ele><speed>11.08</speed><time>2016-06-30T11:50:14Z</time><pdop>4.0</pdop><geoidheight>54.00</geoidheight><course>233.6</course><type>1</type></trkpt>
      <trkpt lat="40.42086452" lon="-5.31090165"><ele>2073</ele><speed>10.51</speed><time>2016-06-30T11:50:15Z</time><pdop>3.0</pdop><geoidheight>54.00</geoidheight><course>240.9</course><type>1</type></trkpt>
      <trkpt lat="40.42082137" lon="-5.31099783"><ele>2075</ele><speed>9.22</speed><time>2016-06-30T11:50:16Z</time><pdop>4.0</pdop><geoidheight>54.00</geoidheight><course>246.4</course><type>1</type></trkpt>
      <trkpt lat="40.42086319" lon="-5.31117999"><ele>2076</ele><speed>8.03</speed><time>2016-06-30T11:50:18Z</time><pdop>6.0</pdop><geoidheight>54.00</geoidheight><course>280.3</course><type>1</type></trkpt>
      <trkpt lat="40.42102798" lon="-5.31093214"><ele>2084</ele><speed>11.57</speed><time>2016-06-30T11:50:21Z</time><pdop>5.0</pdop><geoidheight>54.00</geoidheight><course>63.1</course><type>1</type></trkpt>
      <trkpt lat="40.42106207" lon="-5.31080169"><ele>2086</ele><speed>11.85</speed><time>2016-06-30T11:50:22Z</time><pdop>5.0</pdop><geoidheight>54.00</geoidheight><course>70.3</course><type>1</type></trkpt>
      <trkpt lat="40.42109065" lon="-5.31056356"><ele>2092</ele><speed>10.04</speed><time>2016-06-30T11:50:24Z</time><pdop>7.0</pdop><geoidheight>54.00</geoidheight><course>75.0</course><type>1</type></trkpt>
      <trkpt lat="40.42098456" lon="-5.31040947"><ele>2095</ele><speed>5.98</speed><time>2016-06-30T11:50:26Z</time><pdop>7.0</pdop><geoidheight>54.00</geoidheight><course>113.8</course><type>1</type></trkpt>
      <trkpt lat="40.42079809" lon="-5.31040583"><ele>2096</ele><speed>10.31</speed><time>2016-06-30T11:50:27Z</time><pdop>7.0</pdop><geoidheight>54.00</geoidheight><course>163.2</course><type>1</type></trkpt>
      <trkpt lat="40.42066055" lon="-5.31040124"><ele>2100</ele><speed>13.34</speed><time>2016-06-30T11:50:28Z</time><pdop>6.0</pdop><geoidheight>54.00</geoidheight><course>173.7</course><type>1</type></trkpt>
      <trkpt lat="40.42052675" lon="-5.31040727"><ele>2101</ele><speed>13.64</speed><time>2016-06-30T11:50:29Z</time><pdop>5.0</pdop><geoidheight>54.00</geoidheight><course>182.7</course><type>1</type></trkpt>
      <trkpt lat="40.4203957" lon="-5.31044647"><ele>2103</ele><speed>13.42</speed><time>2016-06-30T11:50:30Z</time><pdop>5.0</pdop><geoidheight>54.00</geoidheight><course>192.1</course><type>1</type></trkpt>
      <trkpt lat="40.42029859" lon="-5.3105028"><ele>2103</ele><speed>12.40</speed><time>2016-06-30T11:50:31Z</time><pdop>5.0</pdop><geoidheight>54.00</geoidheight><course>204.6</course><type>1</type></trkpt>
      <trkpt lat="40.42018861" lon="-5.31057894"><ele>2103</ele><speed>12.62</speed><time>2016-06-30T11:50:32Z</time><pdop>5.0</pdop><geoidheight>54.00</geoidheight><course>209.4</course><type>1</type></trkpt>
      <trkpt lat="40.42016" lon="-5.31082233"><ele>2104</ele><speed>9.97</speed><time>2016-06-30T11:50:34Z</time><pdop>7.0</pdop><geoidheight>54.00</geoidheight><course>256.1</course><type>1</type></trkpt>
      <trkpt lat="40.42025953" lon="-5.31097954"><ele>2107</ele><speed>8.62</speed><time>2016-06-30T11:50:36Z</time><pdop>6.0</pdop><geoidheight>54.00</geoidheight><course>317.1</course><type>1</type></trkpt>
      <trkpt lat="40.42038415" lon="-5.31099941"><ele>2109</ele><speed>8.81</speed><time>2016-06-30T11:50:38Z</time><pdop>5.0</pdop><geoidheight>54.00</geoidheight><course>358.8</course><type>1</type></trkpt>
      <trkpt lat="40.42053612" lon="-5.31099353"><ele>2109</ele><speed>8.71</speed><time>2016-06-30T11:50:40Z</time><pdop>8.0</pdop><geoidheight>54.00</geoidheight><course>358.9</course><type>1</type></trkpt>
      <trkpt lat="40.42066858" lon="-5.31099877"><ele>2111</ele><speed>8.43</speed><time>2016-06-30T11:50:42Z</time><pdop>6.0</pdop><geoidheight>54.00</geoidheight><course>356.9</course><type>1</type></trkpt>
      <trkpt lat="40.4207984" lon="-5.31094954"><ele>2120</ele><speed>9.58</speed><time>2016-06-30T11:50:44Z</time><pdop>4.0</pdop><geoidheight>54.00</geoidheight><course>38.8</course><type>1</type></trkpt>
      <trkpt lat="40.42086485" lon="-5.31087961"><ele>2121</ele><speed>9.50</speed><time>2016-06-30T11:50:45Z</time><pdop>5.0</pdop><geoidheight>54.00</geoidheight><course>38.8</course><type>1</type></trkpt>
      <trkpt lat="40.42090501" lon="-5.31075398"><ele>2121</ele><speed>10.87</speed><time>2016-06-30T11:50:46Z</time><pdop>5.0</pdop><geoidheight>54.00</geoidheight><course>57.4</course><type>1</type></trkpt>
      <trkpt lat="40.42093118" lon="-5.31057138"><ele>2122</ele><speed>13.96</speed><time>2016-06-30T11:50:47Z</time><pdop>6.0</pdop><geoidheight>54.00</geoidheight><course>72.2</course><type>1</type></trkpt>
      <trkpt lat="40.42079768" lon="-5.31035457"><ele>2125</ele><speed>9.63</speed><time>2016-06-30T11:50:49Z</time><pdop>9.0</pdop><geoidheight>54.00</geoidheight><course>104.6</course><type>1</type></trkpt>
      <trkpt lat="40.42059671" lon="-5.31063598"><ele>2126</ele><speed>12.27</speed><time>2016-06-30T11:50:52Z</time><pdop>10.0</pdop><geoidheight>54.00</geoidheight><course>244.6</course><type>1</type></trkpt>
      <trkpt lat="40.42048473" lon="-5.31087428"><ele>2127</ele><speed>11.60</speed><time>2016-06-30T11:50:54Z</time><pdop>9.0</pdop><geoidheight>54.00</geoidheight><course>249.5</course><type>1</type></trkpt>
      <trkpt lat="40.42058484" lon="-5.31047746"><ele>2132</ele><speed>6.64</speed><time>2016-06-30T11:51:02Z</time><pdop>26.0</pdop><geoidheight>54.00</geoidheight><course>93.9</course><type>1</type></trkpt>
      <trkpt lat="40.42035977" lon="-5.31004399"><ele>2135</ele><speed>10.67</speed><time>2016-06-30T11:51:05Z</time><pdop>16.0</pdop><geoidheight>54.00</geoidheight><course>134.0</course><type>1</type></trkpt>
      <trkpt lat="40.42017776" lon="-5.30975108"><ele>2137</ele><speed>14.21</speed><time>2016-06-30T11:51:07Z</time><pdop>14.0</pdop><geoidheight>54.00</geoidheight><course>139.5</course><type>1</type></trkpt>
      <trkpt lat="40.41995836" lon="-5.30949103"><ele>2139</ele><speed>14.58</speed><time>2016-06-30T11:51:09Z</time><pdop>14.0</pdop><geoidheight>54.00</geoidheight><course>147.4</course><type>1</type></trkpt>
      <trkpt lat="40.41972843" lon="-5.30928292"><ele>2141</ele><speed>14.75</speed><time>2016-06-30T11:51:11Z</time><pdop>17.0</pdop><geoidheight>54.00</geoidheight><course>148.3</course><type>1</type></trkpt>
      <trkpt lat="40.4194879" lon="-5.30896372"><ele>2145</ele><speed>16.81</speed><time>2016-06-30T11:51:13Z</time><pdop>16.0</pdop><geoidheight>54.00</geoidheight><course>141.6</course><type>1</type></trkpt>
      <trkpt lat="40.41927118" lon="-5.30874461"><ele>2149</ele><speed>16.34</speed><time>2016-06-30T11:51:15Z</time><pdop>11.0</pdop><geoidheight>54.00</geoidheight><course>150.6</course><type>1</type></trkpt>
      <trkpt lat="40.41900038" lon="-5.30852451"><ele>2151</ele><speed>16.00</speed><time>2016-06-30T11:51:17Z</time><pdop>14.0</pdop><geoidheight>54.00</geoidheight><course>149.9</course><type>1</type></trkpt>
      <trkpt lat="40.41877159" lon="-5.30874672"><ele>2154</ele><speed>14.07</speed><time>2016-06-30T11:51:19Z</time><pdop>13.0</pdop><geoidheight>54.00</geoidheight><course>189.8</course><type>1</type></trkpt>
      <trkpt lat="40.41855867" lon="-5.30853373"><ele>2171</ele><speed>9.27</speed><time>2016-06-30T11:51:32Z</time><pdop>16.0</pdop><geoidheight>54.00</geoidheight><course>173.9</course><type>1</type></trkpt>
      <trkpt lat="40.41833477" lon="-5.30824557"><ele>2197</ele><speed>9.40</speed><time>2016-06-30T11:51:44Z</time><pdop>17.0</pdop><geoidheight>54.00</geoidheight><course>157.3</course><type>1</type></trkpt>
      <trkpt lat="40.4181157" lon="-5.30854392"><ele>2200</ele><speed>5.12</speed><time>2016-06-30T11:51:49Z</time><pdop>16.0</pdop><geoidheight>54.00</geoidheight><course>246.8</course><type>1</type></trkpt>
      <trkpt lat="40.41847185" lon="-5.30859839"><ele>2221</ele><speed>7.50</speed><time>2016-06-30T11:51:54Z</time><pdop>16.0</pdop><geoidheight>54.00</geoidheight><course>27.9</course><type>1</type></trkpt>
      <trkpt lat="40.41859731" lon="-5.30825296"><ele>2231</ele><speed>7.59</speed><time>2016-06-30T11:51:58Z</time><pdop>14.0</pdop><geoidheight>54.00</geoidheight><course>73.6</course><type>1</type></trkpt>
      <trkpt lat="40.41819784" lon="-5.30804951"><ele>2233</ele><speed>13.29</speed><time>2016-06-30T11:52:00Z</time><pdop>12.0</pdop><geoidheight>54.00</geoidheight><course>153.0</course><type>1</type></trkpt>
      <trkpt lat="40.41791078" lon="-5.30797904"><ele>2237</ele><speed>13.80</speed><time>2016-06-30T11:52:02Z</time><pdop>12.0</pdop><geoidheight>54.00</geoidheight><course>169.0</course><type>1</type></trkpt>
      <trkpt lat="40.41766426" lon="-5.30809191"><ele>2239</ele><speed>13.54</speed><time>2016-06-30T11:52:04Z</time><pdop>13.0</pdop><geoidheight>54.00</geoidheight><course>187.3</course><type>1</type></trkpt>
      <trkpt lat="40.41767142" lon="-5.30848017"><ele>2243</ele><speed>8.36</speed><time>2016-06-30T11:52:07Z</time><pdop>17.0</pdop><geoidheight>54.00</geoidheight><course>230.9</course><type>1</type></trkpt>
      <trkpt lat="40.41793906" lon="-5.30816921"><ele>2247</ele><speed>7.41</speed><time>2016-06-30T11:52:11Z</time><pdop>18.0</pdop><geoidheight>54.00</geoidheight><course>71.1</course><type>1</type></trkpt>
      <trkpt lat="40.41764466" lon="-5.30780599"><ele>2257</ele><speed>8.84</speed><time>2016-06-30T11:52:16Z</time><pdop>12.0</pdop><geoidheight>54.00</geoidheight><course>162.1</course><type>1</type></trkpt>
      <trkpt lat="40.41737193" lon="-5.30793512"><ele>2261</ele><speed>11.89</speed><time>2016-06-30T11:52:18Z</time><pdop>9.0</pdop><geoidheight>54.00</geoidheight><course>199.2</course><type>1</type></trkpt>
      <trkpt lat="40.41712414" lon="-5.30806663"><ele>2263</ele><speed>12.88</speed><time>2016-06-30T11:52:20Z</time><pdop>8.0</pdop><geoidheight>54.00</geoidheight><course>203.4</course><type>1</type></trkpt>
      <trkpt lat="40.41709687" lon="-5.30829168"><ele>2262</ele><speed>9.58</speed><time>2016-06-30T11:52:22Z</time><pdop>7.0</pdop><geoidheight>54.00</geoidheight><course>240.1</course><type>1</type></trkpt>
      <trkpt lat="40.41718899" lon="-5.30848225"><ele>2266</ele><speed>4.46</speed><time>2016-06-30T11:52:25Z</time><pdop>12.0</pdop><geoidheight>54.00</geoidheight><course>280.6</course><type>1</type></trkpt>
      <trkpt lat="40.41736454" lon="-5.30839281"><ele>2267</ele><speed>6.75</speed><time>2016-06-30T11:52:26Z</time><pdop>8.0</pdop><geoidheight>54.00</geoidheight><course>7.9</course><type>1</type></trkpt>
      <trkpt lat="40.41752992" lon="-5.3082789"><ele>2265</ele><speed>8.81</speed><time>2016-06-30T11:52:28Z</time><pdop>9.0</pdop><geoidheight>54.00</geoidheight><course>29.6</course><type>1</type></trkpt>
      <trkpt lat="40.41765443" lon="-5.30809687"><ele>2265</ele><speed>10.27</speed><time>2016-06-30T11:52:30Z</time><pdop>9.0</pdop><geoidheight>54.00</geoidheight><course>50.0</course><type>1</type></trkpt>
      <trkpt lat="40.4178094" lon="-5.30787594"><ele>2271</ele><speed>11.45</speed><time>2016-06-30T11:52:32Z</time><pdop>8.0</pdop><geoidheight>54.00</geoidheight><course>58.8</course><type>1</type></trkpt>
      <trkpt lat="40.41787534" lon="-5.30770917"><ele>2274</ele><speed>7.90</speed><time>2016-06-30T11:52:34Z</time><pdop>7.0</pdop><geoidheight>54.00</geoidheight><course>57.7</course><type>1</type></trkpt>
      <trkpt lat="40.41790662" lon="-5.30746003"><ele>2274</ele><speed>8.39</speed><time>2016-06-30T11:52:37Z</time><pdop>11.0</pdop><geoidheight>54.00</geoidheight><course>67.5</course><type>1</type></trkpt>
      <trkpt lat="40.41797122" lon="-5.30718121"><ele>2274</ele><speed>7.59</speed><time>2016-06-30T11:52:40Z</time><pdop>10.0</pdop><geoidheight>54.00</geoidheight><course>64.2</course><type>1</type></trkpt>
      <trkpt lat="40.41806181" lon="-5.30698033"><ele>2273</ele><speed>10.57</speed><time>2016-06-30T11:52:42Z</time><pdop>8.0</pdop><geoidheight>54.00</geoidheight><course>60.9</course><type>1</type></trkpt>
      <trkpt lat="40.4181241" lon="-5.30672216"><ele>2275</ele><speed>11.43</speed><time>2016-06-30T11:52:44Z</time><pdop>7.0</pdop><geoidheight>54.00</geoidheight><course>72.3</course><type>1</type></trkpt>
      <trkpt lat="40.41819178" lon="-5.30647819"><ele>2279</ele><speed>11.42</speed><time>2016-06-30T11:52:46Z</time><pdop>8.0</pdop><geoidheight>54.00</geoidheight><course>75.7</course><type>1</type></trkpt>
      <trkpt lat="40.41812234" lon="-5.30614001"><ele>2277</ele><speed>13.16</speed><time>2016-06-30T11:52:48Z</time><pdop>8.0</pdop><geoidheight>54.00</geoidheight><course>93.2</course><type>1</type></trkpt>
      <trkpt lat="40.41799421" lon="-5.30602003"><ele>2276</ele><speed>12.76</speed><time>2016-06-30T11:52:49Z</time><pdop>8.0</pdop><geoidheight>54.00</geoidheight><course>113.7</course><type>1</type></trkpt>
      <trkpt lat="40.41784943" lon="-5.30594373"><ele>2277</ele><speed>13.50</speed><time>2016-06-30T11:52:50Z</time><pdop>8.0</pdop><geoidheight>54.00</geoidheight><course>131.3</course><type>1</type></trkpt>
      <trkpt lat="40.41768854" lon="-5.30593754"><ele>2279</ele><speed>14.29</speed><time>2016-06-30T11:52:51Z</time><pdop>5.0</pdop><geoidheight>54.00</geoidheight><course>159.7</course><type>1</type></trkpt>
      <trkpt lat="40.41756668" lon="-5.30589877"><ele>2281</ele><speed>13.79</speed><time>2016-06-30T11:52:52Z</time><pdop>5.0</pdop><geoidheight>54.00</geoidheight><course>169.5</course><type>1</type></trkpt>
      <trkpt lat="40.41744517" lon="-5.30589741"><ele>2283</ele><speed>13.21</speed><time>2016-06-30T11:52:53Z</time><pdop>5.0</pdop><geoidheight>54.00</geoidheight><course>180.1</course><type>1</type></trkpt>
      <trkpt lat="40.41733226" lon="-5.30591767"><ele>2285</ele><speed>12.61</speed><time>2016-06-30T11:52:54Z</time><pdop>4.0</pdop><geoidheight>54.00</geoidheight><course>186.9</course><type>1</type></trkpt>
      <trkpt lat="40.41721945" lon="-5.30593931"><ele>2286</ele><speed>12.93</speed><time>2016-06-30T11:52:55Z</time><pdop>4.0</pdop><geoidheight>54.00</geoidheight><course>190.3</course><type>1</type></trkpt>
      <trkpt lat="40.41711581" lon="-5.30598727"><ele>2288</ele><speed>12.81</speed><time>2016-06-30T11:52:56Z</time><pdop>4.0</pdop><geoidheight>54.00</geoidheight><course>197.5</course><type>1</type></trkpt>
      <trkpt lat="40.41702345" lon="-5.30606139"><ele>2291</ele><speed>12.12</speed><time>2016-06-30T11:52:57Z</time><pdop>3.0</pdop><geoidheight>54.00</geoidheight><course>214.8</course><type>1</type></trkpt>
      <trkpt lat="40.41698115" lon="-5.30615491"><ele>2294</ele><speed>9.48</speed><time>2016-06-30T11:52:58Z</time><pdop>3.0</pdop><geoidheight>54.00</geoidheight><course>236.9</course><type>1</type></trkpt>
      <trkpt lat="40.41695637" lon="-5.30624555"><ele>2294</ele><speed>8.29</speed><time>2016-06-30T11:52:59Z</time><pdop>4.0</pdop><geoidheight>54.00</geoidheight><course>246.7</course><type>1</type></trkpt>
      <trkpt lat="40.41698308" lon="-5.30638868"><ele>2295</ele><speed>6.04</speed><time>2016-06-30T11:53:01Z</time><pdop>7.0</pdop><geoidheight>54.00</geoidheight><course>272.2</course><type>1</type></trkpt>
      <trkpt lat="40.41721357" lon="-5.30629532"><ele>2297</ele><speed>7.88</speed><time>2016-06-30T11:53:04Z</time><pdop>9.0</pdop><geoidheight>54.00</geoidheight><course>15.8</course><type>1</type></trkpt>
      <trkpt lat="40.41707863" lon="-5.30592933"><ele>2299</ele><speed>7.74</speed><time>2016-06-30T11:53:07Z</time><pdop>11.0</pdop><geoidheight>54.00</geoidheight><course>98.4</course><type>1</type></trkpt>
      <trkpt lat="40.41690865" lon="-5.30577637"><ele>2299</ele><speed>10.33</speed><time>2016-06-30T11:53:08Z</time><pdop>10.0</pdop><geoidheight>54.00</geoidheight><course>123.3</course><type>1</type></trkpt>
      <trkpt lat="40.4167287" lon="-5.30568961"><ele>2299</ele><speed>12.92</speed><time>2016-06-30T11:53:09Z</time><pdop>9.0</pdop><geoidheight>54.00</geoidheight><course>143.6</course><type>1</type></trkpt>
      <trkpt lat="40.41654898" lon="-5.30563743"><ele>2300</ele><speed>13.94</speed><time>2016-06-30T11:53:10Z</time><pdop>8.0</pdop><geoidheight>54.00</geoidheight><course>157.1</course><type>1</type></trkpt>
      <trkpt lat="40.41634259" lon="-5.30580691"><ele>2299</ele><speed>12.80</speed><time>2016-06-30T11:53:12Z</time><pdop>8.0</pdop><geoidheight>54.00</geoidheight><course>187.5</course><type>1</type></trkpt>
      <trkpt lat="40.41626667" lon="-5.30597037"><ele>2300</ele><speed>8.14</speed><time>2016-06-30T11:53:14Z</time><pdop>8.0</pdop><geoidheight>54.00</geoidheight><course>209.8</course><type>1</type></trkpt>
      <trkpt lat="40.41647041" lon="-5.30603426"><ele>2307</ele><speed>6.36</speed><time>2016-06-30T11:53:18Z</time><pdop>9.0</pdop><geoidheight>54.00</geoidheight><course>42.1</course><type>1</type></trkpt>
      <trkpt lat="40.4165366" lon="-5.30583705"><ele>2310</ele><speed>7.75</speed><time>2016-06-30T11:53:20Z</time><pdop>9.0</pdop><geoidheight>54.00</geoidheight><course>61.6</course><type>1</type></trkpt>
      <trkpt lat="40.41637085" lon="-5.30560503"><ele>2309</ele><speed>8.32</speed><time>2016-06-30T11:53:22Z</time><pdop>9.0</pdop><geoidheight>54.00</geoidheight><course>111.6</course><type>1</type></trkpt>
      <trkpt lat="40.41608511" lon="-5.30546504"><ele>2311</ele><speed>12.30</speed><time>2016-06-30T11:53:24Z</time><pdop>8.0</pdop><geoidheight>54.00</geoidheight><course>152.2</course><type>1</type></trkpt>
      <trkpt lat="40.41593511" lon="-5.30550532"><ele>2311</ele><speed>13.17</speed><time>2016-06-30T11:53:25Z</time><pdop>8.0</pdop><geoidheight>54.00</geoidheight><course>171.1</course><type>1</type></trkpt>
      <trkpt lat="40.4157626" lon="-5.30561822"><ele>2311</ele><speed>10.54</speed><time>2016-06-30T11:53:27Z</time><pdop>9.0</pdop><geoidheight>54.00</geoidheight><course>189.5</course><type>1</type></trkpt>
      <trkpt lat="40.4157669" lon="-5.3059578"><ele>2313</ele><speed>8.57</speed><time>2016-06-30T11:53:29Z</time><pdop>9.0</pdop><geoidheight>54.00</geoidheight><course>238.9</course><type>1</type></trkpt>
      <trkpt lat="40.41603215" lon="-5.30608614"><ele>2316</ele><speed>5.52</speed><time>2016-06-30T11:53:33Z</time><pdop>9.0</pdop><geoidheight>54.00</geoidheight><course>345.4</course><type>1</type></trkpt>
      <trkpt lat="40.4162042" lon="-5.30614375"><ele>2317</ele><speed>6.68</speed><time>2016-06-30T11:53:35Z</time><pdop>9.0</pdop><geoidheight>54.00</geoidheight><course>348.5</course><type>1</type></trkpt>
      <trkpt lat="40.41640244" lon="-5.30607205"><ele>2313</ele><speed>8.66</speed><time>2016-06-30T11:53:37Z</time><pdop>8.0</pdop><geoidheight>54.00</geoidheight><course>6.1</course><type>1</type></trkpt>
      <trkpt lat="40.41660869" lon="-5.30600699"><ele>2312</ele><speed>11.21</speed><time>2016-06-30T11:53:39Z</time><pdop>9.0</pdop><geoidheight>54.00</geoidheight><course>12.9</course><type>1</type></trkpt>
      <trkpt lat="40.41682024" lon="-5.30593672"><ele>2311</ele><speed>10.56</speed><time>2016-06-30T11:53:41Z</time><pdop>5.0</pdop><geoidheight>54.00</geoidheight><course>23.9</course><type>1</type></trkpt>
      <trkpt lat="40.41688911" lon="-5.30585086"><ele>2313</ele><speed>9.52</speed><time>2016-06-30T11:53:42Z</time><pdop>4.0</pdop><geoidheight>54.00</geoidheight><course>32.5</course><type>1</type></trkpt>
      <trkpt lat="40.41694146" lon="-5.30577672"><ele>2312</ele><speed>8.55</speed><time>2016-06-30T11:53:43Z</time><pdop>4.0</pdop><geoidheight>54.00</geoidheight><course>37.6</course><type>1</type></trkpt>
      <trkpt lat="40.41700125" lon="-5.30571577"><ele>2311</ele><speed>7.87</speed><time>2016-06-30T11:53:44Z</time><pdop>4.0</pdop><geoidheight>54.00</geoidheight><course>39.8</course><type>1</type></trkpt>
      <trkpt lat="40.41711342" lon="-5.30560711"><ele>2309</ele><speed>8.60</speed><time>2016-06-30T11:53:46Z</time><pdop>4.0</pdop><geoidheight>54.00</geoidheight><course>34.4</course><type>1</type></trkpt>
      <trkpt lat="40.4171882" lon="-5.30554766"><ele>2308</ele><speed>9.30</speed><time>2016-06-30T11:53:47Z</time><pdop>4.0</pdop><geoidheight>54.00</geoidheight><course>36.0</course><type>1</type></trkpt>
      <trkpt lat="40.41725105" lon="-5.3054636"><ele>2308</ele><speed>10.47</speed><time>2016-06-30T11:53:48Z</time><pdop>5.0</pdop><geoidheight>54.00</geoidheight><course>38.4</course><type>1</type></trkpt>
      <trkpt lat="40.41734397" lon="-5.30539188"><ele>2309</ele><speed>11.56</speed><time>2016-06-30T11:53:49Z</time><pdop>4.0</pdop><geoidheight>54.00</geoidheight><course>35.0</course><type>1</type></trkpt>
      <trkpt lat="40.41742541" lon="-5.30532788"><ele>2310</ele><speed>10.85</speed><time>2016-06-30T11:53:50Z</time><pdop>4.0</pdop><geoidheight>54.00</geoidheight><course>34.2</course><type>1</type></trkpt>
      <trkpt lat="40.41749795" lon="-5.30527583"><ele>2310</ele><speed>9.39</speed><time>2016-06-30T11:53:51Z</time><pdop>5.0</pdop><geoidheight>54.00</geoidheight><course>28.1</course><type>1</type></trkpt>
      <trkpt lat="40.41761574" lon="-5.30526393"><ele>2314</ele><speed>4.37</speed><time>2016-06-30T11:53:54Z</time><pdop>5.0</pdop><geoidheight>54.00</geoidheight><course>354.7</course><type>1</type></trkpt>
      <trkpt lat="40.41770067" lon="-5.30528815"><ele>2316</ele><speed>5.04</speed><time>2016-06-30T11:53:56Z</time><pdop>4.0</pdop><geoidheight>54.00</geoidheight><course>354.3</course><type>1</type></trkpt>
      <trkpt lat="40.41778842" lon="-5.30525802"><ele>2316</ele><speed>4.96</speed><time>2016-06-30T11:53:58Z</time><pdop>5.0</pdop><geoidheight>54.00</geoidheight><course>18.9</course><type>1</type></trkpt>
      <trkpt lat="40.41788851" lon="-5.30515806"><ele>2316</ele><speed>6.91</speed><time>2016-06-30T11:54:00Z</time><pdop>6.0</pdop><geoidheight>54.00</geoidheight><course>39.0</course><type>1</type></trkpt>
      <trkpt lat="40.41798692" lon="-5.30500593"><ele>2316</ele><speed>8.84</speed><time>2016-06-30T11:54:02Z</time><pdop>7.0</pdop><geoidheight>54.00</geoidheight><course>47.9</course><type>1</type></trkpt>
      <trkpt lat="40.41809687" lon="-5.30479981"><ele>2319</ele><speed>11.02</speed><time>2016-06-30T11:54:04Z</time><pdop>9.0</pdop><geoidheight>54.00</geoidheight><course>57.8</course><type>1</type></trkpt>
      <trkpt lat="40.41820109" lon="-5.3045418"><ele>2320</ele><speed>12.04</speed><time>2016-06-30T11:54:06Z</time><pdop>9.0</pdop><geoidheight>54.00</geoidheight><course>61.7</course><type>1</type></trkpt>
      <trkpt lat="40.41826522" lon="-5.30430598"><ele>2321</ele><speed>10.96</speed><time>2016-06-30T11:54:08Z</time><pdop>6.0</pdop><geoidheight>54.00</geoidheight><course>64.1</course><type>1</type></trkpt>
      <trkpt lat="40.4183604" lon="-5.30408598"><ele>2320</ele><speed>10.48</speed><time>2016-06-30T11:54:10Z</time><pdop>4.0</pdop><geoidheight>54.00</geoidheight><course>57.9</course><type>1</type></trkpt>
      <trkpt lat="40.41841494" lon="-5.30399416"><ele>2320</ele><speed>10.22</speed><time>2016-06-30T11:54:11Z</time><pdop>4.0</pdop><geoidheight>54.00</geoidheight><course>55.5</course><type>1</type></trkpt>
      <trkpt lat="40.41845095" lon="-5.30389693"><ele>2318</ele><speed>10.31</speed><time>2016-06-30T11:54:12Z</time><pdop>4.0</pdop><geoidheight>54.00</geoidheight><course>55.1</course><type>1</type></trkpt>
      <trkpt lat="40.41851241" lon="-5.30379052"><ele>2318</ele><speed>11.08</speed><time>2016-06-30T11:54:13Z</time><pdop>4.0</pdop><geoidheight>54.00</geoidheight><course>56.1</course><type>1</type></trkpt>
      <trkpt lat="40.4185621" lon="-5.30368786"><ele>2318</ele><speed>11.12</speed><time>2016-06-30T11:54:14Z</time><pdop>5.0</pdop><geoidheight>54.00</geoidheight><course>56.4</course><type>1</type></trkpt>
      <trkpt lat="40.41863474" lon="-5.30357941"><ele>2319</ele><speed>12.20</speed><time>2016-06-30T11:54:15Z</time><pdop>4.0</pdop><geoidheight>54.00</geoidheight><course>50.3</course><type>1</type></trkpt>
      <trkpt lat="40.41869789" lon="-5.30347016"><ele>2319</ele><speed>11.54</speed><time>2016-06-30T11:54:16Z</time><pdop>4.0</pdop><geoidheight>54.00</geoidheight><course>50.8</course><type>1</type></trkpt>
      <trkpt lat="40.41874562" lon="-5.30336278"><ele>2320</ele><speed>10.52</speed><time>2016-06-30T11:54:17Z</time><pdop>5.0</pdop><geoidheight>54.00</geoidheight><course>53.8</course><type>1</type></trkpt>
      <trkpt lat="40.41878843" lon="-5.30327149"><ele>2318</ele><speed>9.32</speed><time>2016-06-30T11:54:18Z</time><pdop>4.0</pdop><geoidheight>54.00</geoidheight><course>56.3</course><type>1</type></trkpt>
      <trkpt lat="40.4188405" lon="-5.30318839"><ele>2316</ele><speed>8.99</speed><time>2016-06-30T11:54:19Z</time><pdop>4.0</pdop><geoidheight>54.00</geoidheight><course>56.9</course><type>1</type></trkpt>
      <trkpt lat="40.41889153" lon="-5.30309967"><ele>2313</ele><speed>9.79</speed><time>2016-06-30T11:54:20Z</time><pdop>4.0</pdop><geoidheight>54.00</geoidheight><course>51.0</course><type>1</type></trkpt>
      <trkpt lat="40.41895822" lon="-5.30301394"><ele>2309</ele><speed>11.20</speed><time>2016-06-30T11:54:21Z</time><pdop>4.0</pdop><geoidheight>54.00</geoidheight><course>45.4</course><type>1</type></trkpt>
      <trkpt lat="40.41903173" lon="-5.3029196"><ele>2307</ele><speed>11.57</speed><time>2016-06-30T11:54:22Z</time><pdop>4.0</pdop><geoidheight>54.00</geoidheight><course>45.6</course><type>1</type></trkpt>
      <trkpt lat="40.41912695" lon="-5.30281784"><ele>2308</ele><speed>12.50</speed><time>2016-06-30T11:54:23Z</time><pdop>5.0</pdop><geoidheight>54.00</geoidheight><course>43.5</course><type>1</type></trkpt>
      <trkpt lat="40.41918493" lon="-5.30270783"><ele>2306</ele><speed>12.07</speed><time>2016-06-30T11:54:24Z</time><pdop>5.0</pdop><geoidheight>54.00</geoidheight><course>45.7</course><type>1</type></trkpt>
      <trkpt lat="40.41931754" lon="-5.30250942"><ele>2307</ele><speed>11.10</speed><time>2016-06-30T11:54:26Z</time><pdop>11.0</pdop><geoidheight>54.00</geoidheight><course>46.5</course><type>1</type></trkpt>
      <trkpt lat="40.41945014" lon="-5.3022992"><ele>2307</ele><speed>11.49</speed><time>2016-06-30T11:54:28Z</time><pdop>11.0</pdop><geoidheight>54.00</geoidheight><course>49.8</course><type>1</type></trkpt>
      <trkpt lat="40.41964297" lon="-5.30210166"><ele>2304</ele><speed>13.12</speed><time>2016-06-30T11:54:30Z</time><pdop>12.0</pdop><geoidheight>54.00</geoidheight><course>44.9</course><type>1</type></trkpt>
      <trkpt lat="40.41979375" lon="-5.30188887"><ele>2300</ele><speed>13.29</speed><time>2016-06-30T11:54:32Z</time><pdop>11.0</pdop><geoidheight>54.00</geoidheight><course>42.3</course><type>1</type></trkpt>
      <trkpt lat="40.41998172" lon="-5.30171769"><ele>2293</ele><speed>13.25</speed><time>2016-06-30T11:54:34Z</time><pdop>10.0</pdop><geoidheight>54.00</geoidheight><course>40.7</course><type>1</type></trkpt>
      <trkpt lat="40.42015747" lon="-5.30151604"><ele>2289</ele><speed>12.92</speed><time>2016-06-30T11:54:36Z</time><pdop>10.0</pdop><geoidheight>54.00</geoidheight><course>40.1</course><type>1</type></trkpt>
      <trkpt lat="40.42034158" lon="-5.30131559"><ele>2280</ele><speed>13.79</speed><time>2016-06-30T11:54:38Z</time><pdop>10.0</pdop><geoidheight>54.00</geoidheight><course>40.6</course><type>1</type></trkpt>
      <trkpt lat="40.42054994" lon="-5.30112524"><ele>2269</ele><speed>15.22</speed><time>2016-06-30T11:54:40Z</time><pdop>10.0</pdop><geoidheight>54.00</geoidheight><course>33.8</course><type>1</type></trkpt>
      <trkpt lat="40.42078171" lon="-5.30095054"><ele>2259</ele><speed>15.37</speed><time>2016-06-30T11:54:42Z</time><pdop>9.0</pdop><geoidheight>54.00</geoidheight><course>30.8</course><type>1</type></trkpt>
      <trkpt lat="40.42099143" lon="-5.30077185"><ele>2254</ele><speed>13.95</speed><time>2016-06-30T11:54:44Z</time><pdop>9.0</pdop><geoidheight>54.00</geoidheight><course>33.0</course><type>1</type></trkpt>
      <trkpt lat="40.42117049" lon="-5.30058277"><ele>2248</ele><speed>12.99</speed><time>2016-06-30T11:54:46Z</time><pdop>9.0</pdop><geoidheight>54.00</geoidheight><course>39.3</course><type>1</type></trkpt>
      <trkpt lat="40.42133774" lon="-5.3003968"><ele>2245</ele><speed>12.94</speed><time>2016-06-30T11:54:48Z</time><pdop>10.0</pdop><geoidheight>54.00</geoidheight><course>38.8</course><type>1</type></trkpt>
      <trkpt lat="40.42155702" lon="-5.30016714"><ele>2242</ele><speed>15.41</speed><time>2016-06-30T11:54:50Z</time><pdop>12.0</pdop><geoidheight>54.00</geoidheight><course>39.4</course><type>1</type></trkpt>
      <trkpt lat="40.42182535" lon="-5.29994589"><ele>2233</ele><speed>17.59</speed><time>2016-06-30T11:54:52Z</time><pdop>11.0</pdop><geoidheight>54.00</geoidheight><course>34.0</course><type>1</type></trkpt>
      <trkpt lat="40.42209215" lon="-5.29973451"><ele>2227</ele><speed>17.20</speed><time>2016-06-30T11:54:54Z</time><pdop>11.0</pdop><geoidheight>54.00</geoidheight><course>32.2</course><type>1</type></trkpt>
      <trkpt lat="40.42236311" lon="-5.29950663"><ele>2224</ele><speed>17.87</speed><time>2016-06-30T11:54:56Z</time><pdop>14.0</pdop><geoidheight>54.00</geoidheight><course>33.6</course><type>1</type></trkpt>
      <trkpt lat="40.42255938" lon="-5.29916234"><ele>2212</ele><speed>14.18</speed><time>2016-06-30T11:54:59Z</time><pdop>11.0</pdop><geoidheight>54.00</geoidheight><course>32.4</course><type>1</type></trkpt>
      <trkpt lat="40.42276845" lon="-5.29907312"><ele>2202</ele><speed>12.95</speed><time>2016-06-30T11:55:01Z</time><pdop>11.0</pdop><geoidheight>54.00</geoidheight><course>15.3</course><type>1</type></trkpt>
      <trkpt lat="40.42299348" lon="-5.29902583"><ele>2192</ele><speed>14.04</speed><time>2016-06-30T11:55:03Z</time><pdop>11.0</pdop><geoidheight>54.00</geoidheight><course>11.2</course><type>1</type></trkpt>
      <trkpt lat="40.42325387" lon="-5.29891265"><ele>2179</ele><speed>15.21</speed><time>2016-06-30T11:55:05Z</time><pdop>12.0</pdop><geoidheight>54.00</geoidheight><course>15.6</course><type>1</type></trkpt>
      <trkpt lat="40.42349548" lon="-5.29880875"><ele>2180</ele><speed>13.71</speed><time>2016-06-30T11:55:07Z</time><pdop>11.0</pdop><geoidheight>54.00</geoidheight><course>20.6</course><type>1</type></trkpt>
      <trkpt lat="40.42371136" lon="-5.298671"><ele>2175</ele><speed>13.01</speed><time>2016-06-30T11:55:09Z</time><pdop>11.0</pdop><geoidheight>54.00</geoidheight><course>25.1</course><type>1</type></trkpt>
      <trkpt lat="40.42391724" lon="-5.2985566"><ele>2171</ele><speed>12.85</speed><time>2016-06-30T11:55:11Z</time><pdop>11.0</pdop><geoidheight>54.00</geoidheight><course>25.3</course><type>1</type></trkpt>
      <trkpt lat="40.42412029" lon="-5.29840514"><ele>2165</ele><speed>13.08</speed><time>2016-06-30T11:55:13Z</time><pdop>10.0</pdop><geoidheight>54.00</geoidheight><course>30.5</course><type>1</type></trkpt>
      <trkpt lat="40.42433256" lon="-5.29826945"><ele>2158</ele><speed>13.26</speed><time>2016-06-30T11:55:15Z</time><pdop>10.0</pdop><geoidheight>54.00</geoidheight><course>24.9</course><type>1</type></trkpt>
      <trkpt lat="40.42456083" lon="-5.2981499"><ele>2154</ele><speed>12.64</speed><time>2016-06-30T11:55:17Z</time><pdop>10.0</pdop><geoidheight>54.00</geoidheight><course>23.0</course><type>1</type></trkpt>
      <trkpt lat="40.42472358" lon="-5.2980218"><ele>2153</ele><speed>10.46</speed><time>2016-06-30T11:55:19Z</time><pdop>5.0</pdop><geoidheight>54.00</geoidheight><course>31.7</course><type>1</type></trkpt>
      <trkpt lat="40.42480505" lon="-5.29795811"><ele>2151</ele><speed>10.79</speed><time>2016-06-30T11:55:20Z</time><pdop>5.0</pdop><geoidheight>54.00</geoidheight><course>31.9</course><type>1</type></trkpt>
      <trkpt lat="40.4248765" lon="-5.29788299"><ele>2149</ele><speed>10.66</speed><time>2016-06-30T11:55:21Z</time><pdop>5.0</pdop><geoidheight>54.00</geoidheight><course>36.1</course><type>1</type></trkpt>
      <trkpt lat="40.42494768" lon="-5.29780269"><ele>2145</ele><speed>11.08</speed><time>2016-06-30T11:55:22Z</time><pdop>4.0</pdop><geoidheight>54.00</geoidheight><course>38.6</course><type>1</type></trkpt>
      <trkpt lat="40.42503135" lon="-5.29771558"><ele>2142</ele><speed>11.82</speed><time>2016-06-30T11:55:23Z</time><pdop>4.0</pdop><geoidheight>54.00</geoidheight><course>38.1</course><type>1</type></trkpt>
      <trkpt lat="40.42511375" lon="-5.29763493"><ele>2139</ele><speed>12.28</speed><time>2016-06-30T11:55:24Z</time><pdop>4.0</pdop><geoidheight>54.00</geoidheight><course>36.2</course><type>1</type></trkpt>
      <trkpt lat="40.425215" lon="-5.29755274"><ele>2137</ele><speed>12.63</speed><time>2016-06-30T11:55:25Z</time><pdop>4.0</pdop><geoidheight>54.00</geoidheight><course>34.3</course><type>1</type></trkpt>
      <trkpt lat="40.42530849" lon="-5.29746505"><ele>2136</ele><speed>12.49</speed><time>2016-06-30T11:55:26Z</time><pdop>4.0</pdop><geoidheight>54.00</geoidheight><course>35.1</course><type>1</type></trkpt>
      <trkpt lat="40.42538892" lon="-5.29737058"><ele>2136</ele><speed>11.62</speed><time>2016-06-30T11:55:27Z</time><pdop>4.0</pdop><geoidheight>54.00</geoidheight><course>39.0</course><type>1</type></trkpt>
      <trkpt lat="40.42545697" lon="-5.29728353"><ele>2135</ele><speed>10.79</speed><time>2016-06-30T11:55:28Z</time><pdop>4.0</pdop><geoidheight>54.00</geoidheight><course>41.9</course><type>1</type></trkpt>
      <trkpt lat="40.42551789" lon="-5.29721473"><ele>2133</ele><speed>9.98</speed><time>2016-06-30T11:55:29Z</time><pdop>4.0</pdop><geoidheight>54.00</geoidheight><course>41.7</course><type>1</type></trkpt>
      <trkpt lat="40.42558725" lon="-5.29715002"><ele>2131</ele><speed>9.67</speed><time>2016-06-30T11:55:30Z</time><pdop>4.0</pdop><geoidheight>54.00</geoidheight><course>36.9</course><type>1</type></trkpt>
      <trkpt lat="40.4256573" lon="-5.29709141"><ele>2128</ele><speed>9.76</speed><time>2016-06-30T11:55:31Z</time><pdop>4.0</pdop><geoidheight>54.00</geoidheight><course>33.8</course><type>1</type></trkpt>
      <trkpt lat="40.42574177" lon="-5.29703882"><ele>2123</ele><speed>10.46</speed><time>2016-06-30T11:55:32Z</time><pdop>3.0</pdop><geoidheight>54.00</geoidheight><course>28.8</course><type>1</type></trkpt>
      <trkpt lat="40.42582635" lon="-5.29697524"><ele>2119</ele><speed>11.16</speed><time>2016-06-30T11:55:33Z</time><pdop>3.0</pdop><geoidheight>54.00</geoidheight><course>27.3</course><type>1</type></trkpt>
      <trkpt lat="40.42591431" lon="-5.29691421"><ele>2116</ele><speed>11.56</speed><time>2016-06-30T11:55:34Z</time><pdop>3.0</pdop><geoidheight>54.00</geoidheight><course>28.0</course><type>1</type></trkpt>
      <trkpt lat="40.42600022" lon="-5.29685753"><ele>2113</ele><speed>11.01</speed><time>2016-06-30T11:55:35Z</time><pdop>3.0</pdop><geoidheight>54.00</geoidheight><course>25.6</course><type>1</type></trkpt>
      <trkpt lat="40.42607891" lon="-5.29680766"><ele>2111</ele><speed>10.10</speed><time>2016-06-30T11:55:36Z</time><pdop>3.0</pdop><geoidheight>54.00</geoidheight><course>24.0</course><type>1</type></trkpt>
      <trkpt lat="40.42614407" lon="-5.29675449"><ele>2109</ele><speed>9.26</speed><time>2016-06-30T11:55:37Z</time><pdop>3.0</pdop><geoidheight>54.00</geoidheight><course>30.0</course><type>1</type></trkpt>
      <trkpt lat="40.42620749" lon="-5.29669017"><ele>2109</ele><speed>9.06</speed><time>2016-06-30T11:55:38Z</time><pdop>3.0</pdop><geoidheight>54.00</geoidheight><course>37.7</course><type>1</type></trkpt>
      <trkpt lat="40.42625455" lon="-5.29660706"><ele>2108</ele><speed>9.15</speed><time>2016-06-30T11:55:39Z</time><pdop>3.0</pdop><geoidheight>54.00</geoidheight><course>47.7</course><type>1</type></trkpt>
      <trkpt lat="40.42631035" lon="-5.29652156"><ele>2108</ele><speed>9.66</speed><time>2016-06-30T11:55:40Z</time><pdop>4.0</pdop><geoidheight>54.00</geoidheight><course>51.0</course><type>1</type></trkpt>
      <trkpt lat="40.42636371" lon="-5.29642985"><ele>2107</ele><speed>9.78</speed><time>2016-06-30T11:55:41Z</time><pdop>5.0</pdop><geoidheight>54.00</geoidheight><course>53.5</course><type>1</type></trkpt>
      <trkpt lat="40.42646751" lon="-5.29624668"><ele>2105</ele><speed>9.75</speed><time>2016-06-30T11:55:43Z</time><pdop>11.0</pdop><geoidheight>54.00</geoidheight><course>56.2</course><type>1</type></trkpt>
      <trkpt lat="40.42647794" lon="-5.29599748"><ele>2104</ele><speed>9.84</speed><time>2016-06-30T11:55:45Z</time><pdop>8.0</pdop><geoidheight>54.00</geoidheight><course>72.9</course><type>1</type></trkpt>
      <trkpt lat="40.42651409" lon="-5.29578414"><ele>1968</ele><speed>9.27</speed><time>2016-06-30T11:55:47Z</time><pdop>7.0</pdop><geoidheight>54.00</geoidheight><course>73.4</course><type>1</type></trkpt>
      <trkpt lat="40.42655816" lon="-5.29556192"><ele>2011</ele><speed>9.43</speed><time>2016-06-30T11:55:49Z</time><pdop>8.0</pdop><geoidheight>54.00</geoidheight><course>73.9</course><type>1</type></trkpt>
      <trkpt lat="40.42665887" lon="-5.29540345"><ele>2046</ele><speed>8.58</speed><time>2016-06-30T11:55:51Z</time><pdop>6.0</pdop><geoidheight>54.00</geoidheight><course>58.1</course><type>1</type></trkpt>
      <trkpt lat="40.42676341" lon="-5.29522711"><ele>2058</ele><speed>9.73</speed><time>2016-06-30T11:55:53Z</time><pdop>6.0</pdop><geoidheight>54.00</geoidheight><course>53.4</course><type>1</type></trkpt>
      <trkpt lat="40.426878" lon="-5.29502446"><ele>2080</ele><speed>9.94</speed><time>2016-06-30T11:55:55Z</time><pdop>5.0</pdop><geoidheight>54.00</geoidheight><course>56.1</course><type>1</type></trkpt>
      <trkpt lat="40.42698836" lon="-5.29483686"><ele>2091</ele><speed>10.31</speed><time>2016-06-30T11:55:57Z</time><pdop>5.0</pdop><geoidheight>54.00</geoidheight><course>54.8</course><type>1</type></trkpt>
      <trkpt lat="40.42710228" lon="-5.29465291"><ele>2096</ele><speed>9.97</speed><time>2016-06-30T11:55:59Z</time><pdop>8.0</pdop><geoidheight>54.00</geoidheight><course>54.9</course><type>1</type></trkpt>
      <trkpt lat="40.42716811" lon="-5.29449166"><ele>2101</ele><speed>7.60</speed><time>2016-06-30T11:56:01Z</time><pdop>6.0</pdop><geoidheight>54.00</geoidheight><course>55.8</course><type>1</type></trkpt>
      <trkpt lat="40.4273086" lon="-5.29437223"><ele>2102</ele><speed>6.59</speed><time>2016-06-30T11:56:04Z</time><pdop>8.0</pdop><geoidheight>54.00</geoidheight><course>25.2</course><type>1</type></trkpt>
      <trkpt lat="40.42745972" lon="-5.29440906"><ele>2105</ele><speed>7.92</speed><time>2016-06-30T11:56:06Z</time><pdop>7.0</pdop><geoidheight>54.00</geoidheight><course>354.5</course><type>1</type></trkpt>
      <trkpt lat="40.42755815" lon="-5.29451624"><ele>2107</ele><speed>6.43</speed><time>2016-06-30T11:56:08Z</time><pdop>6.0</pdop><geoidheight>54.00</geoidheight><course>329.4</course><type>1</type></trkpt>
      <trkpt lat="40.42762636" lon="-5.29464332"><ele>2107</ele><speed>6.64</speed><time>2016-06-30T11:56:10Z</time><pdop>5.0</pdop><geoidheight>54.00</geoidheight><course>302.6</course><type>1</type></trkpt>
      <trkpt lat="40.42768282" lon="-5.29484211"><ele>2106</ele><speed>9.04</speed><time>2016-06-30T11:56:12Z</time><pdop>4.0</pdop><geoidheight>54.00</geoidheight><course>294.6</course><type>1</type></trkpt>
      <trkpt lat="40.42772266" lon="-5.29494759"><ele>2105</ele><speed>9.78</speed><time>2016-06-30T11:56:13Z</time><pdop>4.0</pdop><geoidheight>54.00</geoidheight><course>294.6</course><type>1</type></trkpt>
      <trkpt lat="40.42776138" lon="-5.29506163"><ele>2106</ele><speed>9.97</speed><time>2016-06-30T11:56:14Z</time><pdop>3.0</pdop><geoidheight>54.00</geoidheight><course>293.1</course><type>1</type></trkpt>
      <trkpt lat="40.42778654" lon="-5.29516669"><ele>2107</ele><speed>9.49</speed><time>2016-06-30T11:56:15Z</time><pdop>3.0</pdop><geoidheight>54.00</geoidheight><course>291.1</course><type>1</type></trkpt>
      <trkpt lat="40.42781819" lon="-5.29525716"><ele>2107</ele><speed>8.67</speed><time>2016-06-30T11:56:16Z</time><pdop>4.0</pdop><geoidheight>54.00</geoidheight><course>291.5</course><type>1</type></trkpt>
      <trkpt lat="40.42783564" lon="-5.29540816"><ele>2108</ele><speed>6.50</speed><time>2016-06-30T11:56:18Z</time><pdop>4.0</pdop><geoidheight>54.00</geoidheight><course>282.6</course><type>1</type></trkpt>
      <trkpt lat="40.42785364" lon="-5.29551154"><ele>2108</ele><speed>7.17</speed><time>2016-06-30T11:56:19Z</time><pdop>4.0</pdop><geoidheight>54.00</geoidheight><course>285.8</course><type>1</type></trkpt>
      <trkpt lat="40.42787302" lon="-5.2956048"><ele>2109</ele><speed>7.45</speed><time>2016-06-30T11:56:20Z</time><pdop>4.0</pdop><geoidheight>54.00</geoidheight><course>290.9</course><type>1</type></trkpt>
      <trkpt lat="40.42793738" lon="-5.29571259"><ele>2112</ele><speed>6.72</speed><time>2016-06-30T11:56:22Z</time><pdop>4.0</pdop><geoidheight>54.00</geoidheight><course>307.0</course><type>1</type></trkpt>
      <trkpt lat="40.42798361" lon="-5.29579413"><ele>2114</ele><speed>7.00</speed><time>2016-06-30T11:56:23Z</time><pdop>4.0</pdop><geoidheight>54.00</geoidheight><course>305.9</course><type>1</type></trkpt>
      <trkpt lat="40.42801755" lon="-5.29594691"><ele>2117</ele><speed>6.34</speed><time>2016-06-30T11:56:25Z</time><pdop>4.0</pdop><geoidheight>54.00</geoidheight><course>287.5</course><type>1</type></trkpt>
      <trkpt lat="40.42797963" lon="-5.29611981"><ele>2119</ele><speed>7.43</speed><time>2016-06-30T11:56:27Z</time><pdop>4.0</pdop><geoidheight>54.00</geoidheight><course>257.8</course><type>1</type></trkpt>
      <trkpt lat="40.42794541" lon="-5.29623673"><ele>2121</ele><speed>9.03</speed><time>2016-06-30T11:56:28Z</time><pdop>4.0</pdop><geoidheight>54.00</geoidheight><course>250.9</course><type>1</type></trkpt>
      <trkpt lat="40.42791265" lon="-5.29633404"><ele>2123</ele><speed>9.41</speed><time>2016-06-30T11:56:29Z</time><pdop>3.0</pdop><geoidheight>54.00</geoidheight><course>253.3</course><type>1</type></trkpt>
      <trkpt lat="40.42791367" lon="-5.29644106"><ele>2124</ele><speed>8.85</speed><time>2016-06-30T11:56:30Z</time><pdop>4.0</pdop><geoidheight>54.00</geoidheight><course>268.1</course><type>1</type></trkpt>
      <trkpt lat="40.42791335" lon="-5.29654439"><ele>2125</ele><speed>8.73</speed><time>2016-06-30T11:56:31Z</time><pdop>4.0</pdop><geoidheight>54.00</geoidheight><course>272.5</course><type>1</type></trkpt>
      <trkpt lat="40.42806206" lon="-5.29658223"><ele>2136</ele><speed>5.93</speed><time>2016-06-30T11:56:34Z</time><pdop>9.0</pdop><geoidheight>54.00</geoidheight><course>12.5</course><type>1</type></trkpt>
      <trkpt lat="40.42817845" lon="-5.2963428"><ele>2141</ele><speed>9.48</speed><time>2016-06-30T11:56:37Z</time><pdop>10.0</pdop><geoidheight>54.00</geoidheight><course>64.7</course><type>1</type></trkpt>
      <trkpt lat="40.42805839" lon="-5.29606245"><ele>2071</ele><speed>8.00</speed><time>2016-06-30T11:56:40Z</time><pdop>11.0</pdop><geoidheight>54.00</geoidheight><course>107.9</course><type>1</type></trkpt>
      <trkpt lat="40.42780157" lon="-5.29595614"><ele>2103</ele><speed>10.34</speed><time>2016-06-30T11:56:42Z</time><pdop>8.0</pdop><geoidheight>54.00</geoidheight><course>152.1</course><type>1</type></trkpt>
      <trkpt lat="40.42759267" lon="-5.29596486"><ele>2109</ele><speed>14.69</speed><time>2016-06-30T11:56:43Z</time><pdop>6.0</pdop><geoidheight>54.00</geoidheight><course>177.7</course><type>1</type></trkpt>
      <trkpt lat="40.42746543" lon="-5.29600057"><ele>2118</ele><speed>14.46</speed><time>2016-06-30T11:56:44Z</time><pdop>6.0</pdop><geoidheight>54.00</geoidheight><course>188.6</course><type>1</type></trkpt>
      <trkpt lat="40.42734253" lon="-5.29605162"><ele>2131</ele><speed>13.26</speed><time>2016-06-30T11:56:45Z</time><pdop>5.0</pdop><geoidheight>54.00</geoidheight><course>199.7</course><type>1</type></trkpt>
      <trkpt lat="40.42725263" lon="-5.29612266"><ele>2142</ele><speed>11.21</speed><time>2016-06-30T11:56:46Z</time><pdop>4.0</pdop><geoidheight>54.00</geoidheight><course>213.2</course><type>1</type></trkpt>
      <trkpt lat="40.42718725" lon="-5.29619662"><ele>2151</ele><speed>9.15</speed><time>2016-06-30T11:56:47Z</time><pdop>4.0</pdop><geoidheight>54.00</geoidheight><course>228.4</course><type>1</type></trkpt>
      <trkpt lat="40.42715994" lon="-5.29629108"><ele>2156</ele><speed>8.33</speed><time>2016-06-30T11:56:48Z</time><pdop>3.0</pdop><geoidheight>54.00</geoidheight><course>247.3</course><type>1</type></trkpt>
      <trkpt lat="40.42714796" lon="-5.29636932"><ele>2160</ele><speed>7.31</speed><time>2016-06-30T11:56:49Z</time><pdop>3.0</pdop><geoidheight>54.00</geoidheight><course>264.4</course><type>1</type></trkpt>
      <trkpt lat="40.42716567" lon="-5.29643972"><ele>2162</ele><speed>6.55</speed><time>2016-06-30T11:56:50Z</time><pdop>3.0</pdop><geoidheight>54.00</geoidheight><course>286.8</course><type>1</type></trkpt>
      <trkpt lat="40.42719715" lon="-5.29650048"><ele>2165</ele><speed>6.64</speed><time>2016-06-30T11:56:51Z</time><pdop>3.0</pdop><geoidheight>54.00</geoidheight><course>310.9</course><type>1</type></trkpt>
      <trkpt lat="40.42725174" lon="-5.29652751"><ele>2168</ele><speed>6.83</speed><time>2016-06-30T11:56:52Z</time><pdop>3.0</pdop><geoidheight>54.00</geoidheight><course>337.2</course><type>1</type></trkpt>
      <trkpt lat="40.42735999" lon="-5.29649421"><ele>2174</ele><speed>7.20</speed><time>2016-06-30T11:56:54Z</time><pdop>3.0</pdop><geoidheight>54.00</geoidheight><course>23.7</course><type>1</type></trkpt>
      <trkpt lat="40.42740244" lon="-5.29642691"><ele>2177</ele><speed>7.67</speed><time>2016-06-30T11:56:55Z</time><pdop>3.0</pdop><geoidheight>54.00</geoidheight><course>45.2</course><type>1</type></trkpt>
      <trkpt lat="40.42744602" lon="-5.29634545"><ele>2178</ele><speed>8.52</speed><time>2016-06-30T11:56:56Z</time><pdop>4.0</pdop><geoidheight>54.00</geoidheight><course>56.1</course><type>1</type></trkpt>
      <trkpt lat="40.42740928" lon="-5.29611901"><ele>2180</ele><speed>9.46</speed><time>2016-06-30T11:56:58Z</time><pdop>6.0</pdop><geoidheight>54.00</geoidheight><course>91.2</course><type>1</type></trkpt>
      <trkpt lat="40.42724164" lon="-5.29601763"><ele>2179</ele><speed>8.07</speed><time>2016-06-30T11:57:00Z</time><pdop>7.0</pdop><geoidheight>54.00</geoidheight><course>133.9</course><type>1</type></trkpt>
      <trkpt lat="40.42702286" lon="-5.29597536"><ele>2180</ele><speed>9.74</speed><time>2016-06-30T11:57:02Z</time><pdop>7.0</pdop><geoidheight>54.00</geoidheight><course>160.3</course><type>1</type></trkpt>
      <trkpt lat="40.42689594" lon="-5.29604093"><ele>2181</ele><speed>10.71</speed><time>2016-06-30T11:57:03Z</time><pdop>7.0</pdop><geoidheight>54.00</geoidheight><course>185.5</course><type>1</type></trkpt>
      <trkpt lat="40.42676294" lon="-5.29611011"><ele>2182</ele><speed>11.22</speed><time>2016-06-30T11:57:04Z</time><pdop>6.0</pdop><geoidheight>54.00</geoidheight><course>198.8</course><type>1</type></trkpt>
      <trkpt lat="40.42667013" lon="-5.29619858"><ele>2183</ele><speed>10.48</speed><time>2016-06-30T11:57:05Z</time><pdop>5.0</pdop><geoidheight>54.00</geoidheight><course>215.3</course><type>1</type></trkpt>
      <trkpt lat="40.42660835" lon="-5.29627158"><ele>2185</ele><speed>9.26</speed><time>2016-06-30T11:57:06Z</time><pdop>4.0</pdop><geoidheight>54.00</geoidheight><course>223.8</course><type>1</type></trkpt>
      <trkpt lat="40.42655626" lon="-5.29633875"><ele>2186</ele><speed>8.57</speed><time>2016-06-30T11:57:07Z</time><pdop>4.0</pdop><geoidheight>54.00</geoidheight><course>226.3</course><type>1</type></trkpt>
      <trkpt lat="40.42648673" lon="-5.29642113"><ele>2192</ele><speed>9.16</speed><time>2016-06-30T11:57:08Z</time><pdop>4.0</pdop><geoidheight>54.00</geoidheight><course>227.0</course><type>1</type></trkpt>
      <trkpt lat="40.42643609" lon="-5.29651268"><ele>2192</ele><speed>9.63</speed><time>2016-06-30T11:57:09Z</time><pdop>4.0</pdop><geoidheight>54.00</geoidheight><course>234.2</course><type>1</type></trkpt>
      <trkpt lat="40.4263923" lon="-5.29662876"><ele>2192</ele><speed>9.80</speed><time>2016-06-30T11:57:10Z</time><pdop>3.0</pdop><geoidheight>54.00</geoidheight><course>249.3</course><type>1</type></trkpt>
      <trkpt lat="40.42638717" lon="-5.29673257"><ele>2194</ele><speed>9.16</speed><time>2016-06-30T11:57:11Z</time><pdop>3.0</pdop><geoidheight>54.00</geoidheight><course>267.4</course><type>1</type></trkpt>
      <trkpt lat="40.42640677" lon="-5.29683401"><ele>2196</ele><speed>9.16</speed><time>2016-06-30T11:57:12Z</time><pdop>3.0</pdop><geoidheight>54.00</geoidheight><course>284.1</course><type>1</type></trkpt>
      <trkpt lat="40.42645227" lon="-5.29693078"><ele>2198</ele><speed>9.45</speed><time>2016-06-30T11:57:13Z</time><pdop>3.0</pdop><geoidheight>54.00</geoidheight><course>302.3</course><type>1</type></trkpt>
      <trkpt lat="40.42651619" lon="-5.2970002"><ele>2201</ele><speed>9.15</speed><time>2016-06-30T11:57:14Z</time><pdop>3.0</pdop><geoidheight>54.00</geoidheight><course>318.7</course><type>1</type></trkpt>
      <trkpt lat="40.42657363" lon="-5.2970683"><ele>2202</ele><speed>8.59</speed><time>2016-06-30T11:57:15Z</time><pdop>4.0</pdop><geoidheight>54.00</geoidheight><course>321.6</course><type>1</type></trkpt>
      <trkpt lat="40.42670435" lon="-5.2970942"><ele>2208</ele><speed>7.69</speed><time>2016-06-30T11:57:17Z</time><pdop>7.0</pdop><geoidheight>54.00</geoidheight><course>345.2</course><type>1</type></trkpt>
      <trkpt lat="40.42685233" lon="-5.29687195"><ele>2212</ele><speed>9.88</speed><time>2016-06-30T11:57:19Z</time><pdop>7.0</pdop><geoidheight>54.00</geoidheight><course>33.8</course><type>1</type></trkpt>
      <trkpt lat="40.42691233" lon="-5.29667091"><ele>2214</ele><speed>8.82</speed><time>2016-06-30T11:57:21Z</time><pdop>8.0</pdop><geoidheight>54.00</geoidheight><course>56.6</course><type>1</type></trkpt>
      <trkpt lat="40.42698461" lon="-5.29638861"><ele>2216</ele><speed>11.32</speed><time>2016-06-30T11:57:23Z</time><pdop>11.0</pdop><geoidheight>54.00</geoidheight><course>68.7</course><type>1</type></trkpt>
      <trkpt lat="40.42693605" lon="-5.29610078"><ele>2220</ele><speed>11.58</speed><time>2016-06-30T11:57:25Z</time><pdop>9.0</pdop><geoidheight>54.00</geoidheight><course>94.5</course><type>1</type></trkpt>
      <trkpt lat="40.42688531" lon="-5.2958122"><ele>2225</ele><speed>10.02</speed><time>2016-06-30T11:57:27Z</time><pdop>9.0</pdop><geoidheight>54.00</geoidheight><course>101.0</course><type>1</type></trkpt>
      <trkpt lat="40.42674385" lon="-5.29571481"><ele>2227</ele><speed>11.30</speed><time>2016-06-30T11:57:28Z</time><pdop>8.0</pdop><geoidheight>54.00</geoidheight><course>126.4</course><type>1</type></trkpt>
      <trkpt lat="40.42653042" lon="-5.29567051"><ele>2228</ele><speed>9.20</speed><time>2016-06-30T11:57:30Z</time><pdop>8.0</pdop><geoidheight>54.00</geoidheight><course>162.8</course><type>1</type></trkpt>
      <trkpt lat="40.42629173" lon="-5.29581588"><ele>2233</ele><speed>10.82</speed><time>2016-06-30T11:57:32Z</time><pdop>5.0</pdop><geoidheight>54.00</geoidheight><course>208.9</course><type>1</type></trkpt>
      <trkpt lat="40.42621838" lon="-5.29588921"><ele>2236</ele><speed>10.12</speed><time>2016-06-30T11:57:33Z</time><pdop>4.0</pdop><geoidheight>54.00</geoidheight><course>222.5</course><type>1</type></trkpt>
      <trkpt lat="40.42615112" lon="-5.29598314"><ele>2236</ele><speed>9.68</speed><time>2016-06-30T11:57:34Z</time><pdop>4.0</pdop><geoidheight>54.00</geoidheight><course>228.9</course><type>1</type></trkpt>
      <trkpt lat="40.42608007" lon="-5.29607517"><ele>2237</ele><speed>10.11</speed><time>2016-06-30T11:57:35Z</time><pdop>5.0</pdop><geoidheight>54.00</geoidheight><course>229.7</course><type>1</type></trkpt>
      <trkpt lat="40.42620973" lon="-5.29616983"><ele>2240</ele><speed>8.46</speed><time>2016-06-30T11:57:37Z</time><pdop>6.0</pdop><geoidheight>54.00</geoidheight><course>326.8</course><type>1</type></trkpt>
      <trkpt lat="40.42637567" lon="-5.29621939"><ele>2242</ele><speed>8.96</speed><time>2016-06-30T11:57:39Z</time><pdop>7.0</pdop><geoidheight>54.00</geoidheight><course>345.6</course><type>1</type></trkpt>
      <trkpt lat="40.42653588" lon="-5.29621226"><ele>2246</ele><speed>9.05</speed><time>2016-06-30T11:57:41Z</time><pdop>6.0</pdop><geoidheight>54.00</geoidheight><course>12.3</course><type>1</type></trkpt>
      <trkpt lat="40.42663001" lon="-5.2960468"><ele>2254</ele><speed>11.37</speed><time>2016-06-30T11:57:43Z</time><pdop>4.0</pdop><geoidheight>54.00</geoidheight><course>56.6</course><type>1</type></trkpt>
      <trkpt lat="40.42667932" lon="-5.29592196"><ele>2254</ele><speed>11.79</speed><time>2016-06-30T11:57:44Z</time><pdop>5.0</pdop><geoidheight>54.00</geoidheight><course>62.1</course><type>1</type></trkpt>
      <trkpt lat="40.42665907" lon="-5.29578433"><ele>2258</ele><speed>11.88</speed><time>2016-06-30T11:57:45Z</time><pdop>4.0</pdop><geoidheight>54.00</geoidheight><course>90.4</course><type>1</type></trkpt>
      <trkpt lat="40.42664898" lon="-5.29565809"><ele>2263</ele><speed>11.60</speed><time>2016-06-30T11:57:46Z</time><pdop>5.0</pdop><geoidheight>54.00</geoidheight><course>93.7</course><type>1</type></trkpt>
      <trkpt lat="40.42659563" lon="-5.29551416"><ele>2263</ele><speed>12.45</speed><time>2016-06-30T11:57:47Z</time><pdop>5.0</pdop><geoidheight>54.00</geoidheight><course>110.1</course><type>1</type></trkpt>
      <trkpt lat="40.42655455" lon="-5.29537962"><ele>2264</ele><speed>12.43</speed><time>2016-06-30T11:57:48Z</time><pdop>6.0</pdop><geoidheight>54.00</geoidheight><course>113.4</course><type>1</type></trkpt>
      <trkpt lat="40.42630366" lon="-5.29524477"><ele>2269</ele><speed>13.91</speed><time>2016-06-30T11:57:50Z</time><pdop>5.0</pdop><geoidheight>54.00</geoidheight><course>160.0</course><type>1</type></trkpt>
      <trkpt lat="40.42618783" lon="-5.29520905"><ele>2272</ele><speed>13.34</speed><time>2016-06-30T11:57:51Z</time><pdop>5.0</pdop><geoidheight>54.00</geoidheight><course>170.3</course><type>1</type></trkpt>
      <trkpt lat="40.4260718" lon="-5.295183"><ele>2258</ele><speed>13.15</speed><time>2016-06-30T11:57:52Z</time><pdop>5.0</pdop><geoidheight>54.00</geoidheight><course>170.3</course><type>1</type></trkpt>
      <trkpt lat="40.42597572" lon="-5.29523475"><ele>2270</ele><speed>10.22</speed><time>2016-06-30T11:57:53Z</time><pdop>4.0</pdop><geoidheight>54.00</geoidheight><course>199.5</course><type>1</type></trkpt>
      <trkpt lat="40.42588175" lon="-5.29532211"><ele>2277</ele><speed>6.12</speed><time>2016-06-30T11:57:55Z</time><pdop>4.0</pdop><geoidheight>54.00</geoidheight><course>251.7</course><type>1</type></trkpt>
      <trkpt lat="40.42592002" lon="-5.29542689"><ele>2283</ele><speed>6.60</speed><time>2016-06-30T11:57:57Z</time><pdop>3.0</pdop><geoidheight>54.00</geoidheight><course>308.7</course><type>1</type></trkpt>
      <trkpt lat="40.42597275" lon="-5.2954792"><ele>2284</ele><speed>7.06</speed><time>2016-06-30T11:57:58Z</time><pdop>4.0</pdop><geoidheight>54.00</geoidheight><course>324.2</course><type>1</type></trkpt>
      <trkpt lat="40.42608934" lon="-5.2955642"><ele>2287</ele><speed>7.45</speed><time>2016-06-30T11:58:00Z</time><pdop>5.0</pdop><geoidheight>54.00</geoidheight><course>332.9</course><type>1</type></trkpt>
      <trkpt lat="40.42623589" lon="-5.2956088"><ele>2289</ele><speed>7.17</speed><time>2016-06-30T11:58:02Z</time><pdop>7.0</pdop><geoidheight>54.00</geoidheight><course>348.8</course><type>1</type></trkpt>
      <trkpt lat="40.42637489" lon="-5.29561522"><ele>2298</ele><speed>9.03</speed><time>2016-06-30T11:58:04Z</time><pdop>5.0</pdop><geoidheight>54.00</geoidheight><course>12.7</course><type>1</type></trkpt>
      <trkpt lat="40.42651827" lon="-5.29546671"><ele>2296</ele><speed>10.72</speed><time>2016-06-30T11:58:06Z</time><pdop>4.0</pdop><geoidheight>54.00</geoidheight><course>43.4</course><type>1</type></trkpt>
      <trkpt lat="40.42658829" lon="-5.29538004"><ele>2298</ele><speed>10.71</speed><time>2016-06-30T11:58:07Z</time><pdop>6.0</pdop><geoidheight>54.00</geoidheight><course>43.4</course><type>1</type></trkpt>
      <trkpt lat="40.42657802" lon="-5.29520994"><ele>2300</ele><speed>11.92</speed><time>2016-06-30T11:58:08Z</time><pdop>4.0</pdop><geoidheight>54.00</geoidheight><course>87.4</course><type>1</type></trkpt>
      <trkpt lat="40.42656823" lon="-5.29505958"><ele>2301</ele><speed>12.39</speed><time>2016-06-30T11:58:09Z</time><pdop>5.0</pdop><geoidheight>54.00</geoidheight><course>92.1</course><type>1</type></trkpt>
      <trkpt lat="40.42651734" lon="-5.29493453"><ele>2305</ele><speed>11.98</speed><time>2016-06-30T11:58:10Z</time><pdop>6.0</pdop><geoidheight>54.00</geoidheight><course>110.6</course><type>1</type></trkpt>
      <trkpt lat="40.42646143" lon="-5.29477702"><ele>2305</ele><speed>13.10</speed><time>2016-06-30T11:58:11Z</time><pdop>8.0</pdop><geoidheight>54.00</geoidheight><course>114.8</course><type>1</type></trkpt>
      <trkpt lat="40.42631475" lon="-5.29471025"><ele>2305</ele><speed>13.85</speed><time>2016-06-30T11:58:12Z</time><pdop>6.0</pdop><geoidheight>54.00</geoidheight><course>153.8</course><type>1</type></trkpt>
      <trkpt lat="40.42620284" lon="-5.29463816"><ele>2305</ele><speed>13.85</speed><time>2016-06-30T11:58:13Z</time><pdop>7.0</pdop><geoidheight>54.00</geoidheight><course>153.8</course><type>1</type></trkpt>
      <trkpt lat="40.42609406" lon="-5.29465546"><ele>2308</ele><speed>12.10</speed><time>2016-06-30T11:58:14Z</time><pdop>5.0</pdop><geoidheight>54.00</geoidheight><course>187.4</course><type>1</type></trkpt>
      <trkpt lat="40.42601384" lon="-5.2947113"><ele>2309</ele><speed>10.46</speed><time>2016-06-30T11:58:15Z</time><pdop>4.0</pdop><geoidheight>54.00</geoidheight><course>205.6</course><type>1</type></trkpt>
      <trkpt lat="40.42594119" lon="-5.29477232"><ele>2310</ele><speed>8.92</speed><time>2016-06-30T11:58:16Z</time><pdop>4.0</pdop><geoidheight>54.00</geoidheight><course>224.2</course><type>1</type></trkpt>
      <trkpt lat="40.42587082" lon="-5.29492958"><ele>2311</ele><speed>7.54</speed><time>2016-06-30T11:58:18Z</time><pdop>5.0</pdop><geoidheight>54.00</geoidheight><course>245.0</course><type>1</type></trkpt>
      <trkpt lat="40.42594509" lon="-5.29504877"><ele>2314</ele><speed>6.08</speed><time>2016-06-30T11:58:20Z</time><pdop>4.0</pdop><geoidheight>54.00</geoidheight><course>297.5</course><type>1</type></trkpt>
      <trkpt lat="40.42603954" lon="-5.29511619"><ele>2314</ele><speed>6.13</speed><time>2016-06-30T11:58:22Z</time><pdop>4.0</pdop><geoidheight>54.00</geoidheight><course>340.9</course><type>1</type></trkpt>
      <trkpt lat="40.42616601" lon="-5.29510907"><ele>2314</ele><speed>7.90</speed><time>2016-06-30T11:58:24Z</time><pdop>4.0</pdop><geoidheight>54.00</geoidheight><course>3.3</course><type>1</type></trkpt>
      <trkpt lat="40.42624545" lon="-5.29508766"><ele>2315</ele><speed>8.49</speed><time>2016-06-30T11:58:25Z</time><pdop>4.0</pdop><geoidheight>54.00</geoidheight><course>10.7</course><type>1</type></trkpt>
      <trkpt lat="40.42628919" lon="-5.2949914"><ele>2315</ele><speed>8.93</speed><time>2016-06-30T11:58:26Z</time><pdop>4.0</pdop><geoidheight>54.00</geoidheight><course>40.6</course><type>1</type></trkpt>
      <trkpt lat="40.42634165" lon="-5.2948895"><ele>2123</ele><speed>10.94</speed><time>2016-06-30T11:58:27Z</time><pdop>4.0</pdop><geoidheight>54.00</geoidheight><course>63.5</course><type>1</type></trkpt>
      <trkpt lat="40.4263856" lon="-5.29477409"><ele>2161</ele><speed>10.94</speed><time>2016-06-30T11:58:28Z</time><pdop>5.0</pdop><geoidheight>54.00</geoidheight><course>63.5</course><type>1</type></trkpt>
      <trkpt lat="40.42642967" lon="-5.29462773"><ele>2194</ele><speed>12.67</speed><time>2016-06-30T11:58:29Z</time><pdop>6.0</pdop><geoidheight>54.00</geoidheight><course>68.6</course><type>1</type></trkpt>
      <trkpt lat="40.426416" lon="-5.29446763"><ele>2219</ele><speed>13.12</speed><time>2016-06-30T11:58:30Z</time><pdop>6.0</pdop><geoidheight>54.00</geoidheight><course>86.2</course><type>1</type></trkpt>
      <trkpt lat="40.42636682" lon="-5.2941755"><ele>2250</ele><speed>12.71</speed><time>2016-06-30T11:58:32Z</time><pdop>7.0</pdop><geoidheight>54.00</geoidheight><course>104.9</course><type>1</type></trkpt>
      <trkpt lat="40.42617328" lon="-5.29402946"><ele>2276</ele><speed>12.79</speed><time>2016-06-30T11:58:34Z</time><pdop>6.0</pdop><geoidheight>54.00</geoidheight><course>152.6</course><type>1</type></trkpt>
      <trkpt lat="40.42605987" lon="-5.2939684"><ele>2285</ele><speed>12.80</speed><time>2016-06-30T11:58:35Z</time><pdop>5.0</pdop><geoidheight>54.00</geoidheight><course>167.5</course><type>1</type></trkpt>
      <trkpt lat="40.42594667" lon="-5.29394593"><ele>2295</ele><speed>12.26</speed><time>2016-06-30T11:58:36Z</time><pdop>5.0</pdop><geoidheight>54.00</geoidheight><course>181.2</course><type>1</type></trkpt>
      <trkpt lat="40.42583636" lon="-5.29394895"><ele>2297</ele><speed>12.25</speed><time>2016-06-30T11:58:37Z</time><pdop>5.0</pdop><geoidheight>54.00</geoidheight><course>181.2</course><type>1</type></trkpt>
      <trkpt lat="40.42576613" lon="-5.29401431"><ele>2305</ele><speed>10.51</speed><time>2016-06-30T11:58:38Z</time><pdop>4.0</pdop><geoidheight>54.00</geoidheight><course>207.4</course><type>1</type></trkpt>
      <trkpt lat="40.42571283" lon="-5.29408766"><ele>2308</ele><speed>9.53</speed><time>2016-06-30T11:58:39Z</time><pdop>4.0</pdop><geoidheight>54.00</geoidheight><course>227.2</course><type>1</type></trkpt>
      <trkpt lat="40.42565468" lon="-5.29416981"><ele>2309</ele><speed>9.50</speed><time>2016-06-30T11:58:40Z</time><pdop>4.0</pdop><geoidheight>54.00</geoidheight><course>227.2</course><type>1</type></trkpt>
      <trkpt lat="40.42566756" lon="-5.29426406"><ele>2312</ele><speed>8.15</speed><time>2016-06-30T11:58:41Z</time><pdop>3.0</pdop><geoidheight>54.00</geoidheight><course>266.0</course><type>1</type></trkpt>
      <trkpt lat="40.42568127" lon="-5.29433739"><ele>2315</ele><speed>6.93</speed><time>2016-06-30T11:58:42Z</time><pdop>3.0</pdop><geoidheight>54.00</geoidheight><course>279.0</course><type>1</type></trkpt>
      <trkpt lat="40.4257206" lon="-5.29443149"><ele>2317</ele><speed>4.37</speed><time>2016-06-30T11:58:44Z</time><pdop>3.0</pdop><geoidheight>54.00</geoidheight><course>320.8</course><type>1</type></trkpt>
      <trkpt lat="40.42579259" lon="-5.2944489"><ele>2315</ele><speed>4.92</speed><time>2016-06-30T11:58:46Z</time><pdop>5.0</pdop><geoidheight>54.00</geoidheight><course>348.5</course><type>1</type></trkpt>
      <trkpt lat="40.42591913" lon="-5.29440712"><ele>2316</ele><speed>6.95</speed><time>2016-06-30T11:58:48Z</time><pdop>7.0</pdop><geoidheight>54.00</geoidheight><course>11.6</course><type>1</type></trkpt>
      <trkpt lat="40.42607404" lon="-5.29433607"><ele>2316</ele><speed>8.02</speed><time>2016-06-30T11:58:50Z</time><pdop>8.0</pdop><geoidheight>54.00</geoidheight><course>15.5</course><type>1</type></trkpt>
      <trkpt lat="40.42622536" lon="-5.29432472"><ele>2325</ele><speed>6.66</speed><time>2016-06-30T11:58:52Z</time><pdop>5.0</pdop><geoidheight>54.00</geoidheight><course>358.9</course><type>1</type></trkpt>
      <trkpt lat="40.42634114" lon="-5.29435152"><ele>2327</ele><speed>6.05</speed><time>2016-06-30T11:58:54Z</time><pdop>4.0</pdop><geoidheight>54.00</geoidheight><course>350.7</course><type>1</type></trkpt>
      <trkpt lat="40.42646061" lon="-5.29437161"><ele>2328</ele><speed>6.56</speed><time>2016-06-30T11:58:56Z</time><pdop>5.0</pdop><geoidheight>54.00</geoidheight><course>355.4</course><type>1</type></trkpt>
      <trkpt lat="40.42658786" lon="-5.2942634"><ele>2336</ele><speed>9.17</speed><time>2016-06-30T11:58:58Z</time><pdop>4.0</pdop><geoidheight>54.00</geoidheight><course>37.6</course><type>1</type></trkpt>
      <trkpt lat="40.42664398" lon="-5.29418598"><ele>2338</ele><speed>9.29</speed><time>2016-06-30T11:58:59Z</time><pdop>4.0</pdop><geoidheight>54.00</geoidheight><course>46.5</course><type>1</type></trkpt>
      <trkpt lat="40.42668414" lon="-5.29408328"><ele>2340</ele><speed>9.24</speed><time>2016-06-30T11:59:00Z</time><pdop>4.0</pdop><geoidheight>54.00</geoidheight><course>57.0</course><type>1</type></trkpt>
      <trkpt lat="40.42671822" lon="-5.2939641"><ele>2339</ele><speed>10.35</speed><time>2016-06-30T11:59:01Z</time><pdop>4.0</pdop><geoidheight>54.00</geoidheight><course>68.5</course><type>1</type></trkpt>
      <trkpt lat="40.42675246" lon="-5.29385073"><ele>2338</ele><speed>10.34</speed><time>2016-06-30T11:59:02Z</time><pdop>5.0</pdop><geoidheight>54.00</geoidheight><course>68.4</course><type>1</type></trkpt>
      <trkpt lat="40.42673615" lon="-5.29368842"><ele>2338</ele><speed>13.40</speed><time>2016-06-30T11:59:03Z</time><pdop>4.0</pdop><geoidheight>54.00</geoidheight><course>94.0</course><type>1</type></trkpt>
      <trkpt lat="40.42672471" lon="-5.29353308"><ele>2338</ele><speed>13.57</speed><time>2016-06-30T11:59:04Z</time><pdop>4.0</pdop><geoidheight>54.00</geoidheight><course>96.3</course><type>1</type></trkpt>
      <trkpt lat="40.42664711" lon="-5.29339313"><ele>2337</ele><speed>14.22</speed><time>2016-06-30T11:59:05Z</time><pdop>4.0</pdop><geoidheight>54.00</geoidheight><course>120.0</course><type>1</type></trkpt>
      <trkpt lat="40.42658313" lon="-5.29324823"><ele>2337</ele><speed>14.21</speed><time>2016-06-30T11:59:06Z</time><pdop>5.0</pdop><geoidheight>54.00</geoidheight><course>120.0</course><type>1</type></trkpt>
      <trkpt lat="40.42648178" lon="-5.29316204"><ele>2336</ele><speed>13.94</speed><time>2016-06-30T11:59:07Z</time><pdop>5.0</pdop><geoidheight>54.00</geoidheight><course>147.4</course><type>1</type></trkpt>
      <trkpt lat="40.42637943" lon="-5.29310856"><ele>2335</ele><speed>12.82</speed><time>2016-06-30T11:59:08Z</time><pdop>5.0</pdop><geoidheight>54.00</geoidheight><course>162.8</course><type>1</type></trkpt>
      <trkpt lat="40.42626915" lon="-5.29306392"><ele>2335</ele><speed>12.82</speed><time>2016-06-30T11:59:09Z</time><pdop>5.0</pdop><geoidheight>54.00</geoidheight><course>162.8</course><type>1</type></trkpt>
      <trkpt lat="40.42615858" lon="-5.29306475"><ele>2335</ele><speed>12.50</speed><time>2016-06-30T11:59:10Z</time><pdop>5.0</pdop><geoidheight>54.00</geoidheight><course>180.8</course><type>1</type></trkpt>
      <trkpt lat="40.42607292" lon="-5.29311007"><ele>2335</ele><speed>10.73</speed><time>2016-06-30T11:59:11Z</time><pdop>5.0</pdop><geoidheight>54.00</geoidheight><course>203.6</course><type>1</type></trkpt>
      <trkpt lat="40.42594154" lon="-5.2932467"><ele>2337</ele><speed>8.99</speed><time>2016-06-30T11:59:13Z</time><pdop>4.0</pdop><geoidheight>54.00</geoidheight><course>220.6</course><type>1</type></trkpt>
      <trkpt lat="40.42588677" lon="-5.29332551"><ele>2336</ele><speed>8.94</speed><time>2016-06-30T11:59:14Z</time><pdop>4.0</pdop><geoidheight>54.00</geoidheight><course>227.1</course><type>1</type></trkpt>
      <trkpt lat="40.42583697" lon="-5.2934114"><ele>2337</ele><speed>8.89</speed><time>2016-06-30T11:59:15Z</time><pdop>3.0</pdop><geoidheight>54.00</geoidheight><course>236.3</course><type>1</type></trkpt>
      <trkpt lat="40.42580688" lon="-5.29350813"><ele>2337</ele><speed>8.63</speed><time>2016-06-30T11:59:16Z</time><pdop>3.0</pdop><geoidheight>54.00</geoidheight><course>246.3</course><type>1</type></trkpt>
      <trkpt lat="40.42579181" lon="-5.29360554"><ele>2337</ele><speed>8.43</speed><time>2016-06-30T11:59:17Z</time><pdop>4.0</pdop><geoidheight>54.00</geoidheight><course>260.6</course><type>1</type></trkpt>
      <trkpt lat="40.4257965" lon="-5.29370079"><ele>2337</ele><speed>8.14</speed><time>2016-06-30T11:59:18Z</time><pdop>4.0</pdop><geoidheight>54.00</geoidheight><course>268.7</course><type>1</type></trkpt>
      <trkpt lat="40.42580373" lon="-5.29387566"><ele>2336</ele><speed>7.83</speed><time>2016-06-30T11:59:20Z</time><pdop>4.0</pdop><geoidheight>54.00</geoidheight><course>277.1</course><type>1</type></trkpt>
      <trkpt lat="40.42584246" lon="-5.29394454"><ele>2336</ele><speed>7.36</speed><time>2016-06-30T11:59:21Z</time><pdop>3.0</pdop><geoidheight>54.00</geoidheight><course>305.7</course><type>1</type></trkpt>
      <trkpt lat="40.42589254" lon="-5.29400641"><ele>2336</ele><speed>7.75</speed><time>2016-06-30T11:59:22Z</time><pdop>3.0</pdop><geoidheight>54.00</geoidheight><course>318.7</course><type>1</type></trkpt>
      <trkpt lat="40.42594492" lon="-5.2940668"><ele>2336</ele><speed>7.75</speed><time>2016-06-30T11:59:23Z</time><pdop>4.0</pdop><geoidheight>54.00</geoidheight><course>318.6</course><type>1</type></trkpt>
      <trkpt lat="40.42601659" lon="-5.2941035"><ele>2335</ele><speed>7.93</speed><time>2016-06-30T11:59:24Z</time><pdop>3.0</pdop><geoidheight>54.00</geoidheight><course>334.1</course><type>1</type></trkpt>
      <trkpt lat="40.42608444" lon="-5.29411581"><ele>2335</ele><speed>7.74</speed><time>2016-06-30T11:59:25Z</time><pdop>3.0</pdop><geoidheight>54.00</geoidheight><course>339.7</course><type>1</type></trkpt>
      <trkpt lat="40.42614985" lon="-5.29414477"><ele>2336</ele><speed>7.57</speed><time>2016-06-30T11:59:26Z</time><pdop>3.0</pdop><geoidheight>54.00</geoidheight><course>342.2</course><type>1</type></trkpt>
      <trkpt lat="40.42620822" lon="-5.29416709"><ele>2336</ele><speed>7.19</speed><time>2016-06-30T11:59:27Z</time><pdop>3.0</pdop><geoidheight>54.00</geoidheight><course>343.2</course><type>1</type></trkpt>
      <trkpt lat="40.42626695" lon="-5.29418499"><ele>2337</ele><speed>7.07</speed><time>2016-06-30T11:59:28Z</time><pdop>3.0</pdop><geoidheight>54.00</geoidheight><course>344.3</course><type>1</type></trkpt>
      <trkpt lat="40.4263958" lon="-5.29421857"><ele>2334</ele><speed>7.83</speed><time>2016-06-30T11:59:30Z</time><pdop>4.0</pdop><geoidheight>54.00</geoidheight><course>337.3</course><type>1</type></trkpt>
      <trkpt lat="40.42653687" lon="-5.2942863"><ele>2334</ele><speed>8.04</speed><time>2016-06-30T11:59:32Z</time><pdop>5.0</pdop><geoidheight>54.00</geoidheight><course>346.4</course><type>1</type></trkpt>
      <trkpt lat="40.42666345" lon="-5.29431601"><ele>2334</ele><speed>7.45</speed><time>2016-06-30T11:59:34Z</time><pdop>7.0</pdop><geoidheight>54.00</geoidheight><course>353.6</course><type>1</type></trkpt>
      <trkpt lat="40.42682337" lon="-5.29433556"><ele>2331</ele><speed>9.78</speed><time>2016-06-30T11:59:36Z</time><pdop>6.0</pdop><geoidheight>54.00</geoidheight><course>345.4</course><type>1</type></trkpt>
      <trkpt lat="40.42702086" lon="-5.29441835"><ele>2333</ele><speed>12.08</speed><time>2016-06-30T11:59:38Z</time><pdop>6.0</pdop><geoidheight>54.00</geoidheight><course>345.7</course><type>1</type></trkpt>
      <trkpt lat="40.4271149" lon="-5.29445921"><ele>2334</ele><speed>10.84</speed><time>2016-06-30T11:59:39Z</time><pdop>4.0</pdop><geoidheight>54.00</geoidheight><course>346.9</course><type>1</type></trkpt>
      <trkpt lat="40.42719574" lon="-5.29448066"><ele>2334</ele><speed>9.24</speed><time>2016-06-30T11:59:40Z</time><pdop>4.0</pdop><geoidheight>54.00</geoidheight><course>346.9</course><type>1</type></trkpt>
      <trkpt lat="40.42727964" lon="-5.29449753"><ele>2333</ele><speed>8.74</speed><time>2016-06-30T11:59:41Z</time><pdop>3.0</pdop><geoidheight>54.00</geoidheight><course>350.7</course><type>1</type></trkpt>
      <trkpt lat="40.42735617" lon="-5.29450295"><ele>2332</ele><speed>9.63</speed><time>2016-06-30T11:59:42Z</time><pdop>3.0</pdop><geoidheight>54.00</geoidheight><course>351.5</course><type>1</type></trkpt>
      <trkpt lat="40.4274383" lon="-5.2945277"><ele>2331</ele><speed>10.07</speed><time>2016-06-30T11:59:43Z</time><pdop>3.0</pdop><geoidheight>54.00</geoidheight><course>349.1</course><type>1</type></trkpt>
      <trkpt lat="40.4275353" lon="-5.29454557"><ele>2331</ele><speed>10.34</speed><time>2016-06-30T11:59:44Z</time><pdop>3.0</pdop><geoidheight>54.00</geoidheight><course>346.0</course><type>1</type></trkpt>
      <trkpt lat="40.42762506" lon="-5.29457279"><ele>2330</ele><speed>10.42</speed><time>2016-06-30T11:59:45Z</time><pdop>3.0</pdop><geoidheight>54.00</geoidheight><course>348.6</course><type>1</type></trkpt>
      <trkpt lat="40.42771227" lon="-5.29459546"><ele>2330</ele><speed>10.59</speed><time>2016-06-30T11:59:46Z</time><pdop>3.0</pdop><geoidheight>54.00</geoidheight><course>349.6</course><type>1</type></trkpt>
      <trkpt lat="40.42780742" lon="-5.29462264"><ele>2328</ele><speed>10.77</speed><time>2016-06-30T11:59:47Z</time><pdop>3.0</pdop><geoidheight>54.00</geoidheight><course>349.8</course><type>1</type></trkpt>
      <trkpt lat="40.42790096" lon="-5.29465827"><ele>2326</ele><speed>11.29</speed><time>2016-06-30T11:59:48Z</time><pdop>3.0</pdop><geoidheight>54.00</geoidheight><course>345.8</course><type>1</type></trkpt>
      <trkpt lat="40.42800685" lon="-5.29468395"><ele>2326</ele><speed>12.34</speed><time>2016-06-30T11:59:49Z</time><pdop>3.0</pdop><geoidheight>54.00</geoidheight><course>349.3</course><type>1</type></trkpt>
      <trkpt lat="40.42812531" lon="-5.2947133"><ele>2324</ele><speed>12.50</speed><time>2016-06-30T11:59:50Z</time><pdop>4.0</pdop><geoidheight>54.00</geoidheight><course>348.3</course><type>1</type></trkpt>
      <trkpt lat="40.42823851" lon="-5.29473906"><ele>2323</ele><speed>12.35</speed><time>2016-06-30T11:59:51Z</time><pdop>4.0</pdop><geoidheight>54.00</geoidheight><course>350.0</course><type>1</type></trkpt>
      <trkpt lat="40.42834412" lon="-5.29473598"><ele>2322</ele><speed>11.81</speed><time>2016-06-30T11:59:52Z</time><pdop>4.0</pdop><geoidheight>54.00</geoidheight><course>356.4</course><type>1</type></trkpt>
      <trkpt lat="40.42844568" lon="-5.29475337"><ele>2322</ele><speed>11.09</speed><time>2016-06-30T11:59:53Z</time><pdop>4.0</pdop><geoidheight>54.00</geoidheight><course>357.8</course><type>1</type></trkpt>
      <trkpt lat="40.42854634" lon="-5.29475898"><ele>2321</ele><speed>10.31</speed><time>2016-06-30T11:59:54Z</time><pdop>4.0</pdop><geoidheight>54.00</geoidheight><course>355.9</course><type>1</type></trkpt>
      <trkpt lat="40.42863481" lon="-5.2947471"><ele>2319</ele><speed>9.76</speed><time>2016-06-30T11:59:55Z</time><pdop>5.0</pdop><geoidheight>54.00</geoidheight><course>358.7</course><type>1</type></trkpt>
      <trkpt lat="40.42873988" lon="-5.29476906"><ele>2317</ele><speed>10.16</speed><time>2016-06-30T11:59:56Z</time><pdop>5.0</pdop><geoidheight>54.00</geoidheight><course>351.4</course><type>1</type></trkpt>
      <trkpt lat="40.42896163" lon="-5.29483352"><ele>2313</ele><speed>12.80</speed><time>2016-06-30T11:59:58Z</time><pdop>5.0</pdop><geoidheight>54.00</geoidheight><course>348.1</course><type>1</type></trkpt>
      <trkpt lat="40.42907513" lon="-5.29485242"><ele>2311</ele><speed>12.61</speed><time>2016-06-30T11:59:59Z</time><pdop>5.0</pdop><geoidheight>54.00</geoidheight><course>349.0</course><type>1</type></trkpt>
      <trkpt lat="40.42918259" lon="-5.29487883"><ele>2309</ele><speed>10.98</speed><time>2016-06-30T12:00:00Z</time><pdop>5.0</pdop><geoidheight>54.00</geoidheight><course>351.0</course><type>1</type></trkpt>
      <trkpt lat="40.42927691" lon="-5.29489025"><ele>2309</ele><speed>10.05</speed><time>2016-06-30T12:00:01Z</time><pdop>4.0</pdop><geoidheight>54.00</geoidheight><course>353.2</course><type>1</type></trkpt>
      <trkpt lat="40.42936633" lon="-5.29490432"><ele>2309</ele><speed>10.01</speed><time>2016-06-30T12:00:02Z</time><pdop>5.0</pdop><geoidheight>54.00</geoidheight><course>353.2</course><type>1</type></trkpt>
      <trkpt lat="40.42945407" lon="-5.29493051"><ele>2306</ele><speed>9.61</speed><time>2016-06-30T12:00:03Z</time><pdop>5.0</pdop><geoidheight>54.00</geoidheight><course>349.4</course><type>1</type></trkpt>
      <trkpt lat="40.42955409" lon="-5.29494209"><ele>2300</ele><speed>10.94</speed><time>2016-06-30T12:00:04Z</time><pdop>4.0</pdop><geoidheight>54.00</geoidheight><course>346.1</course><type>1</type></trkpt>
      <trkpt lat="40.42965264" lon="-5.29497854"><ele>2295</ele><speed>11.72</speed><time>2016-06-30T12:00:05Z</time><pdop>5.0</pdop><geoidheight>54.00</geoidheight><course>337.8</course><type>1</type></trkpt>
      <trkpt lat="40.42974823" lon="-5.29503651"><ele>2293</ele><speed>11.93</speed><time>2016-06-30T12:00:06Z</time><pdop>4.0</pdop><geoidheight>54.00</geoidheight><course>335.7</course><type>1</type></trkpt>
      <trkpt lat="40.42984399" lon="-5.29509298"><ele>2291</ele><speed>11.77</speed><time>2016-06-30T12:00:07Z</time><pdop>6.0</pdop><geoidheight>54.00</geoidheight><course>335.7</course><type>1</type></trkpt>
      <trkpt lat="40.43001149" lon="-5.29517359"><ele>2289</ele><speed>9.68</speed><time>2016-06-30T12:00:09Z</time><pdop>5.0</pdop><geoidheight>54.00</geoidheight><course>340.8</course><type>1</type></trkpt>
      <trkpt lat="40.43016764" lon="-5.2952656"><ele>2287</ele><speed>9.43</speed><time>2016-06-30T12:00:11Z</time><pdop>5.0</pdop><geoidheight>54.00</geoidheight><course>333.3</course><type>1</type></trkpt>
      <trkpt lat="40.43024481" lon="-5.29531487"><ele>2284</ele><speed>10.23</speed><time>2016-06-30T12:00:12Z</time><pdop>4.0</pdop><geoidheight>54.00</geoidheight><course>333.6</course><type>1</type></trkpt>
      <trkpt lat="40.43032555" lon="-5.29536735"><ele>2282</ele><speed>10.08</speed><time>2016-06-30T12:00:13Z</time><pdop>5.0</pdop><geoidheight>54.00</geoidheight><course>333.6</course><type>1</type></trkpt>
      <trkpt lat="40.43043138" lon="-5.29540469"><ele>2278</ele><speed>11.11</speed><time>2016-06-30T12:00:14Z</time><pdop>4.0</pdop><geoidheight>54.00</geoidheight><course>336.3</course><type>1</type></trkpt>
      <trkpt lat="40.43052279" lon="-5.29545694"><ele>2277</ele><speed>11.08</speed><time>2016-06-30T12:00:15Z</time><pdop>5.0</pdop><geoidheight>54.00</geoidheight><course>336.4</course><type>1</type></trkpt>
      <trkpt lat="40.43061738" lon="-5.29549858"><ele>2278</ele><speed>10.49</speed><time>2016-06-30T12:00:16Z</time><pdop>3.0</pdop><geoidheight>54.00</geoidheight><course>336.5</course><type>1</type></trkpt>
      <trkpt lat="40.43069438" lon="-5.29554696"><ele>2277</ele><speed>10.21</speed><time>2016-06-30T12:00:17Z</time><pdop>3.0</pdop><geoidheight>54.00</geoidheight><course>335.4</course><type>1</type></trkpt>
      <trkpt lat="40.43077091" lon="-5.29559514"><ele>2277</ele><speed>10.46</speed><time>2016-06-30T12:00:18Z</time><pdop>4.0</pdop><geoidheight>54.00</geoidheight><course>334.6</course><type>1</type></trkpt>
      <trkpt lat="40.43085606" lon="-5.29564798"><ele>2277</ele><speed>10.46</speed><time>2016-06-30T12:00:19Z</time><pdop>5.0</pdop><geoidheight>54.00</geoidheight><course>334.6</course><type>1</type></trkpt>
      <trkpt lat="40.43100438" lon="-5.29575145"><ele>2280</ele><speed>8.29</speed><time>2016-06-30T12:00:21Z</time><pdop>4.0</pdop><geoidheight>54.00</geoidheight><course>335.9</course><type>1</type></trkpt>
      <trkpt lat="40.43111027" lon="-5.29578781"><ele>2282</ele><speed>5.66</speed><time>2016-06-30T12:00:23Z</time><pdop>4.0</pdop><geoidheight>54.00</geoidheight><course>349.5</course><type>1</type></trkpt>
      <trkpt lat="40.43120013" lon="-5.29580898"><ele>2284</ele><speed>4.73</speed><time>2016-06-30T12:00:25Z</time><pdop>4.0</pdop><geoidheight>54.00</geoidheight><course>346.6</course><type>1</type></trkpt>
      <trkpt lat="40.4312833" lon="-5.29584554"><ele>2283</ele><speed>5.40</speed><time>2016-06-30T12:00:27Z</time><pdop>4.0</pdop><geoidheight>54.00</geoidheight><course>338.1</course><type>1</type></trkpt>
      <trkpt lat="40.43134103" lon="-5.29588279"><ele>2280</ele><speed>6.51</speed><time>2016-06-30T12:00:28Z</time><pdop>3.0</pdop><geoidheight>54.00</geoidheight><course>337.1</course><type>1</type></trkpt>
      <trkpt lat="40.43147655" lon="-5.29594408"><ele>2276</ele><speed>7.76</speed><time>2016-06-30T12:00:30Z</time><pdop>3.0</pdop><geoidheight>54.00</geoidheight><course>337.4</course><type>1</type></trkpt>
      <trkpt lat="40.43153712" lon="-5.29597821"><ele>2277</ele><speed>7.70</speed><time>2016-06-30T12:00:31Z</time><pdop>3.0</pdop><geoidheight>54.00</geoidheight><course>340.0</course><type>1</type></trkpt>
      <trkpt lat="40.43160242" lon="-5.29600509"><ele>2276</ele><speed>7.72</speed><time>2016-06-30T12:00:32Z</time><pdop>3.0</pdop><geoidheight>54.00</geoidheight><course>344.9</course><type>1</type></trkpt>
      <trkpt lat="40.43166333" lon="-5.29602803"><ele>2276</ele><speed>7.56</speed><time>2016-06-30T12:00:33Z</time><pdop>3.0</pdop><geoidheight>54.00</geoidheight><course>349.1</course><type>1</type></trkpt>
      <trkpt lat="40.43172658" lon="-5.29604849"><ele>2276</ele><speed>7.26</speed><time>2016-06-30T12:00:34Z</time><pdop>3.0</pdop><geoidheight>54.00</geoidheight><course>349.9</course><type>1</type></trkpt>
      <trkpt lat="40.43179099" lon="-5.29606357"><ele>2275</ele><speed>7.26</speed><time>2016-06-30T12:00:35Z</time><pdop>4.0</pdop><geoidheight>54.00</geoidheight><course>349.9</course><type>1</type></trkpt>
      <trkpt lat="40.43191135" lon="-5.2960604"><ele>2273</ele><speed>6.76</speed><time>2016-06-30T12:00:37Z</time><pdop>3.0</pdop><geoidheight>54.00</geoidheight><course>354.5</course><type>1</type></trkpt>
      <trkpt lat="40.43197435" lon="-5.29606191"><ele>2272</ele><speed>7.34</speed><time>2016-06-30T12:00:38Z</time><pdop>3.0</pdop><geoidheight>54.00</geoidheight><course>356.1</course><type>1</type></trkpt>
      <trkpt lat="40.43204594" lon="-5.296076"><ele>2271</ele><speed>8.31</speed><time>2016-06-30T12:00:39Z</time><pdop>3.0</pdop><geoidheight>54.00</geoidheight><course>355.3</course><type>1</type></trkpt>
      <trkpt lat="40.43212487" lon="-5.29608944"><ele>2270</ele><speed>9.33</speed><time>2016-06-30T12:00:40Z</time><pdop>3.0</pdop><geoidheight>54.00</geoidheight><course>352.9</course><type>1</type></trkpt>
      <trkpt lat="40.43221358" lon="-5.29610244"><ele>2270</ele><speed>10.43</speed><time>2016-06-30T12:00:41Z</time><pdop>3.0</pdop><geoidheight>54.00</geoidheight><course>354.1</course><type>1</type></trkpt>
      <trkpt lat="40.43230788" lon="-5.29612139"><ele>2269</ele><speed>10.56</speed><time>2016-06-30T12:00:42Z</time><pdop>3.0</pdop><geoidheight>54.00</geoidheight><course>355.4</course><type>1</type></trkpt>
      <trkpt lat="40.43239401" lon="-5.29611323"><ele>2269</ele><speed>9.98</speed><time>2016-06-30T12:00:43Z</time><pdop>4.0</pdop><geoidheight>54.00</geoidheight><course>355.9</course><type>1</type></trkpt>
      <trkpt lat="40.43248289" lon="-5.29611575"><ele>2270</ele><speed>9.47</speed><time>2016-06-30T12:00:44Z</time><pdop>5.0</pdop><geoidheight>54.00</geoidheight><course>359.0</course><type>1</type></trkpt>
      <trkpt lat="40.43264103" lon="-5.29611907"><ele>2270</ele><speed>8.96</speed><time>2016-06-30T12:00:46Z</time><pdop>6.0</pdop><geoidheight>54.00</geoidheight><course>1.2</course><type>1</type></trkpt>
      <trkpt lat="40.43279952" lon="-5.29606241"><ele>2271</ele><speed>8.59</speed><time>2016-06-30T12:00:48Z</time><pdop>5.0</pdop><geoidheight>54.00</geoidheight><course>15.9</course><type>1</type></trkpt>
      <trkpt lat="40.43292156" lon="-5.29600923"><ele>2270</ele><speed>7.22</speed><time>2016-06-30T12:00:50Z</time><pdop>4.0</pdop><geoidheight>54.00</geoidheight><course>18.6</course><type>1</type></trkpt>
      <trkpt lat="40.43304886" lon="-5.29594025"><ele>2270</ele><speed>7.86</speed><time>2016-06-30T12:00:52Z</time><pdop>6.0</pdop><geoidheight>54.00</geoidheight><course>23.0</course><type>1</type></trkpt>
      <trkpt lat="40.43324464" lon="-5.29591094"><ele>2267</ele><speed>10.79</speed><time>2016-06-30T12:00:54Z</time><pdop>7.0</pdop><geoidheight>54.00</geoidheight><course>8.3</course><type>1</type></trkpt>
      <trkpt lat="40.43344372" lon="-5.29585159"><ele>2089</ele><speed>11.42</speed><time>2016-06-30T12:00:56Z</time><pdop>8.0</pdop><geoidheight>54.00</geoidheight><course>8.9</course><type>1</type></trkpt>
      <trkpt lat="40.43359033" lon="-5.29577249"><ele>2158</ele><speed>10.06</speed><time>2016-06-30T12:00:58Z</time><pdop>6.0</pdop><geoidheight>54.00</geoidheight><course>15.1</course><type>1</type></trkpt>
      <trkpt lat="40.43377178" lon="-5.29566974"><ele>2189</ele><speed>11.17</speed><time>2016-06-30T12:01:00Z</time><pdop>9.0</pdop><geoidheight>54.00</geoidheight><course>22.8</course><type>1</type></trkpt>
      <trkpt lat="40.43400616" lon="-5.29557781"><ele>2207</ele><speed>12.92</speed><time>2016-06-30T12:01:02Z</time><pdop>10.0</pdop><geoidheight>54.00</geoidheight><course>22.2</course><type>1</type></trkpt>
      <trkpt lat="40.43426902" lon="-5.29543111"><ele>2222</ele><speed>15.22</speed><time>2016-06-30T12:01:04Z</time><pdop>6.0</pdop><geoidheight>54.00</geoidheight><course>23.5</course><type>1</type></trkpt>
      <trkpt lat="40.434392" lon="-5.29536999"><ele>2228</ele><speed>14.56</speed><time>2016-06-30T12:01:05Z</time><pdop>5.0</pdop><geoidheight>54.00</geoidheight><course>25.4</course><type>1</type></trkpt>
      <trkpt lat="40.43449056" lon="-5.29528454"><ele>2233</ele><speed>13.16</speed><time>2016-06-30T12:01:06Z</time><pdop>4.0</pdop><geoidheight>54.00</geoidheight><course>30.4</course><type>1</type></trkpt>
      <trkpt lat="40.43457175" lon="-5.29521408"><ele>2239</ele><speed>10.97</speed><time>2016-06-30T12:01:07Z</time><pdop>4.0</pdop><geoidheight>54.00</geoidheight><course>34.7</course><type>1</type></trkpt>
      <trkpt lat="40.43465305" lon="-5.29513984"><ele>2238</ele><speed>10.18</speed><time>2016-06-30T12:01:08Z</time><pdop>5.0</pdop><geoidheight>54.00</geoidheight><course>35.1</course><type>1</type></trkpt>
      <trkpt lat="40.43472873" lon="-5.29509167"><ele>2237</ele><speed>9.54</speed><time>2016-06-30T12:01:09Z</time><pdop>4.0</pdop><geoidheight>54.00</geoidheight><course>32.3</course><type>1</type></trkpt>
      <trkpt lat="40.4348119" lon="-5.29502775"><ele>2237</ele><speed>10.19</speed><time>2016-06-30T12:01:10Z</time><pdop>5.0</pdop><geoidheight>54.00</geoidheight><course>31.4</course><type>1</type></trkpt>
      <trkpt lat="40.43490393" lon="-5.2949755"><ele>2238</ele><speed>10.42</speed><time>2016-06-30T12:01:11Z</time><pdop>6.0</pdop><geoidheight>54.00</geoidheight><course>25.6</course><type>1</type></trkpt>
      <trkpt lat="40.43509785" lon="-5.29485669"><ele>2237</ele><speed>12.25</speed><time>2016-06-30T12:01:13Z</time><pdop>7.0</pdop><geoidheight>54.00</geoidheight><course>27.9</course><type>1</type></trkpt>
      <trkpt lat="40.43525833" lon="-5.29478062"><ele>2236</ele><speed>14.60</speed><time>2016-06-30T12:01:14Z</time><pdop>6.0</pdop><geoidheight>54.00</geoidheight><course>23.6</course><type>1</type></trkpt>
      <trkpt lat="40.43538855" lon="-5.29473321"><ele>2238</ele><speed>14.23</speed><time>2016-06-30T12:01:15Z</time><pdop>5.0</pdop><geoidheight>54.00</geoidheight><course>20.1</course><type>1</type></trkpt>
      <trkpt lat="40.43549506" lon="-5.29466836"><ele>2240</ele><speed>13.22</speed><time>2016-06-30T12:01:16Z</time><pdop>4.0</pdop><geoidheight>54.00</geoidheight><course>24.1</course><type>1</type></trkpt>
      <trkpt lat="40.43558977" lon="-5.29458392"><ele>2239</ele><speed>12.33</speed><time>2016-06-30T12:01:17Z</time><pdop>4.0</pdop><geoidheight>54.00</geoidheight><course>28.8</course><type>1</type></trkpt>
      <trkpt lat="40.43568158" lon="-5.29450455"><ele>2237</ele><speed>12.32</speed><time>2016-06-30T12:01:18Z</time><pdop>4.0</pdop><geoidheight>54.00</geoidheight><course>31.5</course><type>1</type></trkpt>
      <trkpt lat="40.43578701" lon="-5.29443464"><ele>2236</ele><speed>12.82</speed><time>2016-06-30T12:01:19Z</time><pdop>4.0</pdop><geoidheight>54.00</geoidheight><course>31.7</course><type>1</type></trkpt>
      <trkpt lat="40.43590589" lon="-5.29435629"><ele>2232</ele><speed>13.93</speed><time>2016-06-30T12:01:20Z</time><pdop>4.0</pdop><geoidheight>54.00</geoidheight><course>28.5</course><type>1</type></trkpt>
      <trkpt lat="40.43603009" lon="-5.29428239"><ele>2230</ele><speed>14.52</speed><time>2016-06-30T12:01:21Z</time><pdop>4.0</pdop><geoidheight>54.00</geoidheight><course>25.5</course><type>1</type></trkpt>
      <trkpt lat="40.43615151" lon="-5.2942204"><ele>2229</ele><speed>14.90</speed><time>2016-06-30T12:01:22Z</time><pdop>3.0</pdop><geoidheight>54.00</geoidheight><course>20.2</course><type>1</type></trkpt>
      <trkpt lat="40.43628126" lon="-5.29417663"><ele>2228</ele><speed>14.34</speed><time>2016-06-30T12:01:23Z</time><pdop>3.0</pdop><geoidheight>54.00</geoidheight><course>15.6</course><type>1</type></trkpt>
      <trkpt lat="40.43639203" lon="-5.29414431"><ele>2229</ele><speed>13.26</speed><time>2016-06-30T12:01:24Z</time><pdop>3.0</pdop><geoidheight>54.00</geoidheight><course>13.8</course><type>1</type></trkpt>
      <trkpt lat="40.43649501" lon="-5.29410241"><ele>2227</ele><speed>12.57</speed><time>2016-06-30T12:01:25Z</time><pdop>4.0</pdop><geoidheight>54.00</geoidheight><course>14.8</course><type>1</type></trkpt>
      <trkpt lat="40.43659138" lon="-5.29405953"><ele>2227</ele><speed>11.92</speed><time>2016-06-30T12:01:26Z</time><pdop>5.0</pdop><geoidheight>54.00</geoidheight><course>15.8</course><type>1</type></trkpt>
      <trkpt lat="40.4367092" lon="-5.29405702"><ele>2227</ele><speed>11.14</speed><time>2016-06-30T12:01:27Z</time><pdop>4.0</pdop><geoidheight>54.00</geoidheight><course>6.7</course><type>1</type></trkpt>
      <trkpt lat="40.43681312" lon="-5.29404619"><ele>2227</ele><speed>10.88</speed><time>2016-06-30T12:01:28Z</time><pdop>5.0</pdop><geoidheight>54.00</geoidheight><course>3.5</course><type>1</type></trkpt>
      <trkpt lat="40.43695171" lon="-5.29403506"><ele>2229</ele><speed>8.75</speed><time>2016-06-30T12:01:30Z</time><pdop>4.0</pdop><geoidheight>54.00</geoidheight><course>8.7</course><type>1</type></trkpt>
      <trkpt lat="40.43702177" lon="-5.29401338"><ele>2229</ele><speed>8.15</speed><time>2016-06-30T12:01:31Z</time><pdop>4.0</pdop><geoidheight>54.00</geoidheight><course>13.0</course><type>1</type></trkpt>
      <trkpt lat="40.4370968" lon="-5.29399172"><ele>2229</ele><speed>7.76</speed><time>2016-06-30T12:01:32Z</time><pdop>3.0</pdop><geoidheight>54.00</geoidheight><course>17.8</course><type>1</type></trkpt>
      <trkpt lat="40.43716872" lon="-5.29395775"><ele>2227</ele><speed>8.31</speed><time>2016-06-30T12:01:33Z</time><pdop>3.0</pdop><geoidheight>54.00</geoidheight><course>19.4</course><type>1</type></trkpt>
      <trkpt lat="40.43724747" lon="-5.29392024"><ele>2226</ele><speed>9.13</speed><time>2016-06-30T12:01:34Z</time><pdop>4.0</pdop><geoidheight>54.00</geoidheight><course>21.3</course><type>1</type></trkpt>
      <trkpt lat="40.43732815" lon="-5.29387176"><ele>2225</ele><speed>10.00</speed><time>2016-06-30T12:01:35Z</time><pdop>5.0</pdop><geoidheight>54.00</geoidheight><course>23.7</course><type>1</type></trkpt>
      <trkpt lat="40.43744904" lon="-5.29382122"><ele>2224</ele><speed>13.04</speed><time>2016-06-30T12:01:36Z</time><pdop>3.0</pdop><geoidheight>54.00</geoidheight><course>22.1</course><type>1</type></trkpt>
      <trkpt lat="40.43755458" lon="-5.29375421"><ele>2224</ele><speed>13.39</speed><time>2016-06-30T12:01:37Z</time><pdop>4.0</pdop><geoidheight>54.00</geoidheight><course>21.8</course><type>1</type></trkpt>
      <trkpt lat="40.4376617" lon="-5.29370298"><ele>2224</ele><speed>12.72</speed><time>2016-06-30T12:01:38Z</time><pdop>4.0</pdop><geoidheight>54.00</geoidheight><course>19.7</course><type>1</type></trkpt>
      <trkpt lat="40.43776148" lon="-5.29367991"><ele>2224</ele><speed>11.62</speed><time>2016-06-30T12:01:39Z</time><pdop>4.0</pdop><geoidheight>54.00</geoidheight><course>14.1</course><type>1</type></trkpt>
      <trkpt lat="40.43786492" lon="-5.29365386"><ele>2225</ele><speed>11.43</speed><time>2016-06-30T12:01:40Z</time><pdop>5.0</pdop><geoidheight>54.00</geoidheight><course>13.1</course><type>1</type></trkpt>
      <trkpt lat="40.43797784" lon="-5.29362594"><ele>2225</ele><speed>11.82</speed><time>2016-06-30T12:01:41Z</time><pdop>6.0</pdop><geoidheight>54.00</geoidheight><course>16.0</course><type>1</type></trkpt>
      <trkpt lat="40.43808424" lon="-5.2935597"><ele>2226</ele><speed>12.04</speed><time>2016-06-30T12:01:42Z</time><pdop>6.0</pdop><geoidheight>54.00</geoidheight><course>22.8</course><type>1</type></trkpt>
      <trkpt lat="40.43812465" lon="-5.29343086"><ele>2228</ele><speed>10.98</speed><time>2016-06-30T12:01:43Z</time><pdop>5.0</pdop><geoidheight>54.00</geoidheight><course>35.6</course><type>1</type></trkpt>
      <trkpt lat="40.43820161" lon="-5.29334135"><ele>2227</ele><speed>10.24</speed><time>2016-06-30T12:01:44Z</time><pdop>4.0</pdop><geoidheight>54.00</geoidheight><course>39.9</course><type>1</type></trkpt>
      <trkpt lat="40.43826492" lon="-5.29326716"><ele>2227</ele><speed>10.15</speed><time>2016-06-30T12:01:45Z</time><pdop>4.0</pdop><geoidheight>54.00</geoidheight><course>43.5</course><type>1</type></trkpt>
      <trkpt lat="40.43832859" lon="-5.29317471"><ele>2227</ele><speed>10.79</speed><time>2016-06-30T12:01:46Z</time><pdop>4.0</pdop><geoidheight>54.00</geoidheight><course>44.8</course><type>1</type></trkpt>
      <trkpt lat="40.43840885" lon="-5.29308163"><ele>2226</ele><speed>11.52</speed><time>2016-06-30T12:01:47Z</time><pdop>4.0</pdop><geoidheight>54.00</geoidheight><course>43.8</course><type>1</type></trkpt>
      <trkpt lat="40.43848624" lon="-5.29298892"><ele>2226</ele><speed>11.50</speed><time>2016-06-30T12:01:48Z</time><pdop>3.0</pdop><geoidheight>54.00</geoidheight><course>42.0</course><type>1</type></trkpt>
      <trkpt lat="40.43855958" lon="-5.29291384"><ele>2225</ele><speed>11.12</speed><time>2016-06-30T12:01:49Z</time><pdop>3.0</pdop><geoidheight>54.00</geoidheight><course>39.1</course><type>1</type></trkpt>
      <trkpt lat="40.43863422" lon="-5.29284447"><ele>2225</ele><speed>10.34</speed><time>2016-06-30T12:01:50Z</time><pdop>3.0</pdop><geoidheight>54.00</geoidheight><course>35.7</course><type>1</type></trkpt>
      <trkpt lat="40.43871004" lon="-5.29277177"><ele>2224</ele><speed>10.23</speed><time>2016-06-30T12:01:51Z</time><pdop>3.0</pdop><geoidheight>54.00</geoidheight><course>32.5</course><type>1</type></trkpt>
      <trkpt lat="40.43879701" lon="-5.2927177"><ele>2223</ele><speed>10.58</speed><time>2016-06-30T12:01:52Z</time><pdop>3.0</pdop><geoidheight>54.00</geoidheight><course>29.5</course><type>1</type></trkpt>
      <trkpt lat="40.43888306" lon="-5.29265984"><ele>2221</ele><speed>10.99</speed><time>2016-06-30T12:01:53Z</time><pdop>3.0</pdop><geoidheight>54.00</geoidheight><course>28.2</course><type>1</type></trkpt>
      <trkpt lat="40.43897238" lon="-5.2926015"><ele>2220</ele><speed>11.10</speed><time>2016-06-30T12:01:54Z</time><pdop>4.0</pdop><geoidheight>54.00</geoidheight><course>29.0</course><type>1</type></trkpt>
      <trkpt lat="40.43908368" lon="-5.29253966"><ele>2218</ele><speed>12.67</speed><time>2016-06-30T12:01:55Z</time><pdop>3.0</pdop><geoidheight>54.00</geoidheight><course>25.0</course><type>1</type></trkpt>
      <trkpt lat="40.43919271" lon="-5.29246893"><ele>2217</ele><speed>13.01</speed><time>2016-06-30T12:01:56Z</time><pdop>4.0</pdop><geoidheight>54.00</geoidheight><course>27.7</course><type>1</type></trkpt>
      <trkpt lat="40.4392815" lon="-5.29237801"><ele>2216</ele><speed>12.71</speed><time>2016-06-30T12:01:57Z</time><pdop>3.0</pdop><geoidheight>54.00</geoidheight><course>35.9</course><type>1</type></trkpt>
      <trkpt lat="40.43937018" lon="-5.29228993"><ele>2216</ele><speed>12.44</speed><time>2016-06-30T12:01:58Z</time><pdop>4.0</pdop><geoidheight>54.00</geoidheight><course>39.3</course><type>1</type></trkpt>
      <trkpt lat="40.43944973" lon="-5.29220523"><ele>2217</ele><speed>11.10</speed><time>2016-06-30T12:01:59Z</time><pdop>3.0</pdop><geoidheight>54.00</geoidheight><course>38.9</course><type>1</type></trkpt>
      <trkpt lat="40.43952813" lon="-5.29214046"><ele>2217</ele><speed>9.87</speed><time>2016-06-30T12:02:00Z</time><pdop>3.0</pdop><geoidheight>54.00</geoidheight><course>33.7</course><type>1</type></trkpt>
      <trkpt lat="40.43960039" lon="-5.29208684"><ele>2215</ele><speed>9.43</speed><time>2016-06-30T12:02:01Z</time><pdop>3.0</pdop><geoidheight>54.00</geoidheight><course>28.8</course><type>1</type></trkpt>
      <trkpt lat="40.43968423" lon="-5.29203906"><ele>2214</ele><speed>10.17</speed><time>2016-06-30T12:02:02Z</time><pdop>4.0</pdop><geoidheight>54.00</geoidheight><course>23.9</course><type>1</type></trkpt>
      <trkpt lat="40.43977" lon="-5.29199408"><ele>2213</ele><speed>10.48</speed><time>2016-06-30T12:02:03Z</time><pdop>5.0</pdop><geoidheight>54.00</geoidheight><course>24.6</course><type>1</type></trkpt>
      <trkpt lat="40.4398556" lon="-5.29192984"><ele>2211</ele><speed>11.82</speed><time>2016-06-30T12:02:04Z</time><pdop>4.0</pdop><geoidheight>54.00</geoidheight><course>25.1</course><type>1</type></trkpt>
      <trkpt lat="40.43994074" lon="-5.29187284"><ele>2209</ele><speed>11.62</speed><time>2016-06-30T12:02:05Z</time><pdop>3.0</pdop><geoidheight>54.00</geoidheight><course>27.6</course><type>1</type></trkpt>
      <trkpt lat="40.44002666" lon="-5.29180985"><ele>2209</ele><speed>10.88</speed><time>2016-06-30T12:02:06Z</time><pdop>3.0</pdop><geoidheight>54.00</geoidheight><course>29.5</course><type>1</type></trkpt>
      <trkpt lat="40.44009843" lon="-5.29175761"><ele>2208</ele><speed>9.93</speed><time>2016-06-30T12:02:07Z</time><pdop>3.0</pdop><geoidheight>54.00</geoidheight><course>29.3</course><type>1</type></trkpt>
      <trkpt lat="40.44017064" lon="-5.29171245"><ele>2208</ele><speed>9.17</speed><time>2016-06-30T12:02:08Z</time><pdop>3.0</pdop><geoidheight>54.00</geoidheight><course>27.9</course><type>1</type></trkpt>
      <trkpt lat="40.44024507" lon="-5.29165874"><ele>2209</ele><speed>9.12</speed><time>2016-06-30T12:02:09Z</time><pdop>3.0</pdop><geoidheight>54.00</geoidheight><course>26.6</course><type>1</type></trkpt>
      <trkpt lat="40.4403191" lon="-5.29161405"><ele>2208</ele><speed>9.20</speed><time>2016-06-30T12:02:10Z</time><pdop>4.0</pdop><geoidheight>54.00</geoidheight><course>26.9</course><type>1</type></trkpt>
      <trkpt lat="40.44040459" lon="-5.29155597"><ele>2208</ele><speed>9.76</speed><time>2016-06-30T12:02:11Z</time><pdop>4.0</pdop><geoidheight>54.00</geoidheight><course>27.7</course><type>1</type></trkpt>
      <trkpt lat="40.44047372" lon="-5.2914933"><ele>2207</ele><speed>10.05</speed><time>2016-06-30T12:02:12Z</time><pdop>4.0</pdop><geoidheight>54.00</geoidheight><course>30.0</course><type>1</type></trkpt>
      <trkpt lat="40.44055414" lon="-5.29145099"><ele>2205</ele><speed>10.08</speed><time>2016-06-30T12:02:13Z</time><pdop>4.0</pdop><geoidheight>54.00</geoidheight><course>24.3</course><type>1</type></trkpt>
      <trkpt lat="40.44063186" lon="-5.29141222"><ele>2204</ele><speed>10.05</speed><time>2016-06-30T12:02:14Z</time><pdop>5.0</pdop><geoidheight>54.00</geoidheight><course>23.5</course><type>1</type></trkpt>
      <trkpt lat="40.4407343" lon="-5.29139353"><ele>2203</ele><speed>10.52</speed><time>2016-06-30T12:02:15Z</time><pdop>5.0</pdop><geoidheight>54.00</geoidheight><course>14.3</course><type>1</type></trkpt>
      <trkpt lat="40.44090241" lon="-5.29133923"><ele>2200</ele><speed>10.25</speed><time>2016-06-30T12:02:17Z</time><pdop>5.0</pdop><geoidheight>54.00</geoidheight><course>15.1</course><type>1</type></trkpt>
      <trkpt lat="40.44099962" lon="-5.2913133"><ele>2199</ele><speed>10.02</speed><time>2016-06-30T12:02:18Z</time><pdop>5.0</pdop><geoidheight>54.00</geoidheight><course>11.1</course><type>1</type></trkpt>
      <trkpt lat="40.44109625" lon="-5.2913083"><ele>2198</ele><speed>9.98</speed><time>2016-06-30T12:02:19Z</time><pdop>4.0</pdop><geoidheight>54.00</geoidheight><course>6.2</course><type>1</type></trkpt>
      <trkpt lat="40.44119546" lon="-5.29130732"><ele>2196</ele><speed>10.16</speed><time>2016-06-30T12:02:20Z</time><pdop>4.0</pdop><geoidheight>54.00</geoidheight><course>4.2</course><type>1</type></trkpt>
      <trkpt lat="40.44128497" lon="-5.29128362"><ele>2195</ele><speed>10.09</speed><time>2016-06-30T12:02:21Z</time><pdop>4.0</pdop><geoidheight>54.00</geoidheight><course>4.7</course><type>1</type></trkpt>
      <trkpt lat="40.441381" lon="-5.29126067"><ele>2194</ele><speed>10.07</speed><time>2016-06-30T12:02:22Z</time><pdop>4.0</pdop><geoidheight>54.00</geoidheight><course>7.7</course><type>1</type></trkpt>
      <trkpt lat="40.44147974" lon="-5.29123027"><ele>2191</ele><speed>9.95</speed><time>2016-06-30T12:02:23Z</time><pdop>4.0</pdop><geoidheight>54.00</geoidheight><course>8.3</course><type>1</type></trkpt>
      <trkpt lat="40.44156922" lon="-5.29120171"><ele>2189</ele><speed>9.97</speed><time>2016-06-30T12:02:24Z</time><pdop>5.0</pdop><geoidheight>54.00</geoidheight><course>9.8</course><type>1</type></trkpt>
      <trkpt lat="40.44172523" lon="-5.29121759"><ele>2188</ele><speed>9.73</speed><time>2016-06-30T12:02:26Z</time><pdop>7.0</pdop><geoidheight>54.00</geoidheight><course>359.5</course><type>1</type></trkpt>
      <trkpt lat="40.44198135" lon="-5.29121907"><ele>2183</ele><speed>12.89</speed><time>2016-06-30T12:02:28Z</time><pdop>8.0</pdop><geoidheight>54.00</geoidheight><course>357.6</course><type>1</type></trkpt>
      <trkpt lat="40.44213677" lon="-5.29118913"><ele>2181</ele><speed>14.92</speed><time>2016-06-30T12:02:29Z</time><pdop>6.0</pdop><geoidheight>54.00</geoidheight><course>359.6</course><type>1</type></trkpt>
      <trkpt lat="40.44226291" lon="-5.29116349"><ele>2180</ele><speed>14.19</speed><time>2016-06-30T12:02:30Z</time><pdop>5.0</pdop><geoidheight>54.00</geoidheight><course>1.4</course><type>1</type></trkpt>
      <trkpt lat="40.44236692" lon="-5.29112922"><ele>2185</ele><speed>13.00</speed><time>2016-06-30T12:02:31Z</time><pdop>4.0</pdop><geoidheight>54.00</geoidheight><course>4.4</course><type>1</type></trkpt>
      <trkpt lat="40.44246796" lon="-5.29111436"><ele>2184</ele><speed>11.85</speed><time>2016-06-30T12:02:32Z</time><pdop>4.0</pdop><geoidheight>54.00</geoidheight><course>7.7</course><type>1</type></trkpt>
      <trkpt lat="40.44256476" lon="-5.2910731"><ele>2183</ele><speed>11.42</speed><time>2016-06-30T12:02:33Z</time><pdop>4.0</pdop><geoidheight>54.00</geoidheight><course>13.7</course><type>1</type></trkpt>
      <trkpt lat="40.44266675" lon="-5.29105779"><ele>2182</ele><speed>10.88</speed><time>2016-06-30T12:02:34Z</time><pdop>4.0</pdop><geoidheight>54.00</geoidheight><course>13.0</course><type>1</type></trkpt>
      <trkpt lat="40.44275702" lon="-5.29104011"><ele>2181</ele><speed>10.06</speed><time>2016-06-30T12:02:35Z</time><pdop>4.0</pdop><geoidheight>54.00</geoidheight><course>7.8</course><type>1</type></trkpt>
      <trkpt lat="40.44284325" lon="-5.29102788"><ele>2181</ele><speed>9.27</speed><time>2016-06-30T12:02:36Z</time><pdop>5.0</pdop><geoidheight>54.00</geoidheight><course>0.7</course><type>1</type></trkpt>
      <trkpt lat="40.442956" lon="-5.29106355"><ele>2183</ele><speed>6.46</speed><time>2016-06-30T12:02:38Z</time><pdop>4.0</pdop><geoidheight>54.00</geoidheight><course>345.9</course><type>1</type></trkpt>
      <trkpt lat="40.44306657" lon="-5.29109431"><ele>2183</ele><speed>6.76</speed><time>2016-06-30T12:02:40Z</time><pdop>3.0</pdop><geoidheight>54.00</geoidheight><course>354.2</course><type>1</type></trkpt>
      <trkpt lat="40.44314908" lon="-5.29105222"><ele>2181</ele><speed>8.56</speed><time>2016-06-30T12:02:41Z</time><pdop>3.0</pdop><geoidheight>54.00</geoidheight><course>17.3</course><type>1</type></trkpt>
      <trkpt lat="40.44327407" lon="-5.29088373"><ele>2177</ele><speed>10.29</speed><time>2016-06-30T12:02:43Z</time><pdop>6.0</pdop><geoidheight>54.00</geoidheight><course>40.9</course><type>1</type></trkpt>
      <trkpt lat="40.44335797" lon="-5.29073774"><ele>2176</ele><speed>12.35</speed><time>2016-06-30T12:02:44Z</time><pdop>7.0</pdop><geoidheight>54.00</geoidheight><course>47.7</course><type>1</type></trkpt>
      <trkpt lat="40.44333777" lon="-5.29050198"><ele>2175</ele><speed>14.25</speed><time>2016-06-30T12:02:45Z</time><pdop>6.0</pdop><geoidheight>54.00</geoidheight><course>68.7</course><type>1</type></trkpt>
      <trkpt lat="40.44335202" lon="-5.29033828"><ele>2176</ele><speed>12.81</speed><time>2016-06-30T12:02:46Z</time><pdop>5.0</pdop><geoidheight>54.00</geoidheight><course>69.0</course><type>1</type></trkpt>
      <trkpt lat="40.44327874" lon="-5.29021879"><ele>2176</ele><speed>11.02</speed><time>2016-06-30T12:02:47Z</time><pdop>6.0</pdop><geoidheight>54.00</geoidheight><course>87.3</course><type>1</type></trkpt>
      <trkpt lat="40.44315831" lon="-5.29011485"><ele>2178</ele><speed>10.77</speed><time>2016-06-30T12:02:48Z</time><pdop>7.0</pdop><geoidheight>54.00</geoidheight><course>113.2</course><type>1</type></trkpt>
      <trkpt lat="40.44304101" lon="-5.29004182"><ele>2178</ele><speed>10.81</speed><time>2016-06-30T12:02:49Z</time><pdop>7.0</pdop><geoidheight>54.00</geoidheight><course>129.4</course><type>1</type></trkpt>
      <trkpt lat="40.44283271" lon="-5.29015326"><ele>2178</ele><speed>9.44</speed><time>2016-06-30T12:02:51Z</time><pdop>7.0</pdop><geoidheight>54.00</geoidheight><course>178.1</course><type>1</type></trkpt>
      <trkpt lat="40.44271849" lon="-5.29029823"><ele>2177</ele><speed>5.94</speed><time>2016-06-30T12:02:54Z</time><pdop>9.0</pdop><geoidheight>54.00</geoidheight><course>200.4</course><type>1</type></trkpt>
      <trkpt lat="40.44293832" lon="-5.28997289"><ele>2182</ele><speed>8.01</speed><time>2016-06-30T12:02:59Z</time><pdop>11.0</pdop><geoidheight>54.00</geoidheight><course>87.4</course><type>1</type></trkpt>
      <trkpt lat="40.44286086" lon="-5.28970735"><ele>2186</ele><speed>9.58</speed><time>2016-06-30T12:03:01Z</time><pdop>9.0</pdop><geoidheight>54.00</geoidheight><course>132.1</course><type>1</type></trkpt>
      <trkpt lat="40.44265122" lon="-5.28961398"><ele>2192</ele><speed>9.71</speed><time>2016-06-30T12:03:04Z</time><pdop>7.0</pdop><geoidheight>54.00</geoidheight><course>192.8</course><type>1</type></trkpt>
      <trkpt lat="40.44254549" lon="-5.28969755"><ele>2199</ele><speed>7.43</speed><time>2016-06-30T12:03:06Z</time><pdop>6.0</pdop><geoidheight>54.00</geoidheight><course>236.2</course><type>1</type></trkpt>
      <trkpt lat="40.44258525" lon="-5.28980651"><ele>2208</ele><speed>5.85</speed><time>2016-06-30T12:03:09Z</time><pdop>4.0</pdop><geoidheight>54.00</geoidheight><course>300.3</course><type>1</type></trkpt>
      <trkpt lat="40.44266617" lon="-5.28975101"><ele>2209</ele><speed>7.29</speed><time>2016-06-30T12:03:10Z</time><pdop>4.0</pdop><geoidheight>54.00</geoidheight><course>8.2</course><type>1</type></trkpt>
      <trkpt lat="40.44273401" lon="-5.28970223"><ele>2211</ele><speed>8.38</speed><time>2016-06-30T12:03:11Z</time><pdop>4.0</pdop><geoidheight>54.00</geoidheight><course>21.7</course><type>1</type></trkpt>
      <trkpt lat="40.44280896" lon="-5.28965816"><ele>2215</ele><speed>8.90</speed><time>2016-06-30T12:03:12Z</time><pdop>5.0</pdop><geoidheight>54.00</geoidheight><course>25.1</course><type>1</type></trkpt>
      <trkpt lat="40.44283428" lon="-5.2894833"><ele>2218</ele><speed>11.77</speed><time>2016-06-30T12:03:13Z</time><pdop>4.0</pdop><geoidheight>54.00</geoidheight><course>62.8</course><type>1</type></trkpt>
      <trkpt lat="40.44287098" lon="-5.28934867"><ele>2219</ele><speed>12.04</speed><time>2016-06-30T12:03:14Z</time><pdop>5.0</pdop><geoidheight>54.00</geoidheight><course>69.2</course><type>1</type></trkpt>
      <trkpt lat="40.44284778" lon="-5.28918882"><ele>2221</ele><speed>12.28</speed><time>2016-06-30T12:03:15Z</time><pdop>5.0</pdop><geoidheight>54.00</geoidheight><course>85.5</course><type>1</type></trkpt>
      <trkpt lat="40.44280745" lon="-5.28904016"><ele>2222</ele><speed>12.34</speed><time>2016-06-30T12:03:16Z</time><pdop>5.0</pdop><geoidheight>54.00</geoidheight><course>96.9</course><type>1</type></trkpt>
      <trkpt lat="40.44279194" lon="-5.28891372"><ele>2223</ele><speed>10.00</speed><time>2016-06-30T12:03:17Z</time><pdop>5.0</pdop><geoidheight>54.00</geoidheight><course>97.0</course><type>1</type></trkpt>
      <trkpt lat="40.44264649" lon="-5.2888487"><ele>2225</ele><speed>10.85</speed><time>2016-06-30T12:03:18Z</time><pdop>5.0</pdop><geoidheight>54.00</geoidheight><course>134.4</course><type>1</type></trkpt>
      <trkpt lat="40.4424848" lon="-5.28885412"><ele>2225</ele><speed>7.80</speed><time>2016-06-30T12:03:20Z</time><pdop>7.0</pdop><geoidheight>54.00</geoidheight><course>174.6</course><type>1</type></trkpt>
      <trkpt lat="40.44240628" lon="-5.28898548"><ele>2226</ele><speed>9.71</speed><time>2016-06-30T12:03:21Z</time><pdop>4.0</pdop><geoidheight>54.00</geoidheight><course>219.3</course><type>1</type></trkpt>
      <trkpt lat="40.4423615" lon="-5.2890656"><ele>2226</ele><speed>8.73</speed><time>2016-06-30T12:03:22Z</time><pdop>4.0</pdop><geoidheight>54.00</geoidheight><course>233.8</course><type>1</type></trkpt>
      <trkpt lat="40.44232117" lon="-5.28914033"><ele>2227</ele><speed>7.13</speed><time>2016-06-30T12:03:23Z</time><pdop>3.0</pdop><geoidheight>54.00</geoidheight><course>245.7</course><type>1</type></trkpt>
      <trkpt lat="40.44233012" lon="-5.28924152"><ele>2230</ele><speed>4.53</speed><time>2016-06-30T12:03:25Z</time><pdop>3.0</pdop><geoidheight>54.00</geoidheight><course>282.1</course><type>1</type></trkpt>
      <trkpt lat="40.44242861" lon="-5.28927449"><ele>2233</ele><speed>5.44</speed><time>2016-06-30T12:03:27Z</time><pdop>3.0</pdop><geoidheight>54.00</geoidheight><course>341.5</course><type>1</type></trkpt>
      <trkpt lat="40.4424835" lon="-5.28927951"><ele>2233</ele><speed>6.88</speed><time>2016-06-30T12:03:28Z</time><pdop>3.0</pdop><geoidheight>54.00</geoidheight><course>348.3</course><type>1</type></trkpt>
      <trkpt lat="40.44256288" lon="-5.28929106"><ele>2234</ele><speed>9.03</speed><time>2016-06-30T12:03:29Z</time><pdop>3.0</pdop><geoidheight>54.00</geoidheight><course>355.3</course><type>1</type></trkpt>
      <trkpt lat="40.44265384" lon="-5.28929336"><ele>2235</ele><speed>10.29</speed><time>2016-06-30T12:03:30Z</time><pdop>3.0</pdop><geoidheight>54.00</geoidheight><course>359.2</course><type>1</type></trkpt>
      <trkpt lat="40.4427563" lon="-5.28926893"><ele>2234</ele><speed>11.01</speed><time>2016-06-30T12:03:31Z</time><pdop>3.0</pdop><geoidheight>54.00</geoidheight><course>8.5</course><type>1</type></trkpt>
      <trkpt lat="40.44283968" lon="-5.28919463"><ele>2235</ele><speed>11.25</speed><time>2016-06-30T12:03:32Z</time><pdop>4.0</pdop><geoidheight>54.00</geoidheight><course>26.1</course><type>1</type></trkpt>
      <trkpt lat="40.44291676" lon="-5.28911905"><ele>2234</ele><speed>10.76</speed><time>2016-06-30T12:03:33Z</time><pdop>4.0</pdop><geoidheight>54.00</geoidheight><course>34.5</course><type>1</type></trkpt>
      <trkpt lat="40.44296535" lon="-5.28899177"><ele>2236</ele><speed>11.04</speed><time>2016-06-30T12:03:34Z</time><pdop>5.0</pdop><geoidheight>54.00</geoidheight><course>51.7</course><type>1</type></trkpt>
      <trkpt lat="40.44296589" lon="-5.28885838"><ele>2236</ele><speed>11.00</speed><time>2016-06-30T12:03:35Z</time><pdop>5.0</pdop><geoidheight>54.00</geoidheight><course>70.7</course><type>1</type></trkpt>
      <trkpt lat="40.44291049" lon="-5.28872385"><ele>2237</ele><speed>10.45</speed><time>2016-06-30T12:03:36Z</time><pdop>5.0</pdop><geoidheight>54.00</geoidheight><course>89.4</course><type>1</type></trkpt>
      <trkpt lat="40.44289956" lon="-5.28859561"><ele>2236</ele><speed>10.50</speed><time>2016-06-30T12:03:37Z</time><pdop>5.0</pdop><geoidheight>54.00</geoidheight><course>94.6</course><type>1</type></trkpt>
      <trkpt lat="40.44278676" lon="-5.28852996"><ele>2237</ele><speed>8.58</speed><time>2016-06-30T12:03:38Z</time><pdop>5.0</pdop><geoidheight>54.00</geoidheight><course>120.7</course><type>1</type></trkpt>
      <trkpt lat="40.44262712" lon="-5.28848836"><ele>2238</ele><speed>11.09</speed><time>2016-06-30T12:03:39Z</time><pdop>4.0</pdop><geoidheight>54.00</geoidheight><course>154.4</course><type>1</type></trkpt>
      <trkpt lat="40.44250883" lon="-5.28851259"><ele>2237</ele><speed>11.31</speed><time>2016-06-30T12:03:40Z</time><pdop>5.0</pdop><geoidheight>54.00</geoidheight><course>174.6</course><type>1</type></trkpt>
      <trkpt lat="40.44242154" lon="-5.28856193"><ele>2238</ele><speed>10.80</speed><time>2016-06-30T12:03:41Z</time><pdop>4.0</pdop><geoidheight>54.00</geoidheight><course>194.1</course><type>1</type></trkpt>
      <trkpt lat="40.44235099" lon="-5.28863571"><ele>2238</ele><speed>10.33</speed><time>2016-06-30T12:03:42Z</time><pdop>4.0</pdop><geoidheight>54.00</geoidheight><course>206.6</course><type>1</type></trkpt>
      <trkpt lat="40.44233344" lon="-5.28881103"><ele>2239</ele><speed>7.70</speed><time>2016-06-30T12:03:44Z</time><pdop>4.0</pdop><geoidheight>54.00</geoidheight><course>251.3</course><type>1</type></trkpt>
      <trkpt lat="40.44233632" lon="-5.28891196"><ele>2242</ele><speed>7.92</speed><time>2016-06-30T12:03:45Z</time><pdop>3.0</pdop><geoidheight>54.00</geoidheight><course>266.9</course><type>1</type></trkpt>
      <trkpt lat="40.44234617" lon="-5.28900259"><ele>2245</ele><speed>7.57</speed><time>2016-06-30T12:03:46Z</time><pdop>3.0</pdop><geoidheight>54.00</geoidheight><course>281.2</course><type>1</type></trkpt>
      <trkpt lat="40.44236659" lon="-5.28908192"><ele>2246</ele><speed>6.65</speed><time>2016-06-30T12:03:47Z</time><pdop>3.0</pdop><geoidheight>54.00</geoidheight><course>289.7</course><type>1</type></trkpt>
      <trkpt lat="40.44240084" lon="-5.28920329"><ele>2244</ele><speed>5.87</speed><time>2016-06-30T12:03:49Z</time><pdop>3.0</pdop><geoidheight>54.00</geoidheight><course>289.3</course><type>1</type></trkpt>
      <trkpt lat="40.4424229" lon="-5.28927278"><ele>2243</ele><speed>6.41</speed><time>2016-06-30T12:03:50Z</time><pdop>3.0</pdop><geoidheight>54.00</geoidheight><course>287.7</course><type>1</type></trkpt>
      <trkpt lat="40.44244808" lon="-5.28934579"><ele>2243</ele><speed>7.09</speed><time>2016-06-30T12:03:51Z</time><pdop>3.0</pdop><geoidheight>54.00</geoidheight><course>293.0</course><type>1</type></trkpt>
      <trkpt lat="40.44248386" lon="-5.28942138"><ele>2243</ele><speed>7.75</speed><time>2016-06-30T12:03:52Z</time><pdop>3.0</pdop><geoidheight>54.00</geoidheight><course>298.7</course><type>1</type></trkpt>
      <trkpt lat="40.44252427" lon="-5.28950146"><ele>2244</ele><speed>7.99</speed><time>2016-06-30T12:03:53Z</time><pdop>3.0</pdop><geoidheight>54.00</geoidheight><course>303.2</course><type>1</type></trkpt>
      <trkpt lat="40.44256047" lon="-5.2895796"><ele>2247</ele><speed>7.89</speed><time>2016-06-30T12:03:54Z</time><pdop>3.0</pdop><geoidheight>54.00</geoidheight><course>303.3</course><type>1</type></trkpt>
      <trkpt lat="40.44259253" lon="-5.2896638"><ele>2247</ele><speed>7.82</speed><time>2016-06-30T12:03:55Z</time><pdop>3.0</pdop><geoidheight>54.00</geoidheight><course>299.6</course><type>1</type></trkpt>
      <trkpt lat="40.44262768" lon="-5.28973936"><ele>2247</ele><speed>7.85</speed><time>2016-06-30T12:03:56Z</time><pdop>3.0</pdop><geoidheight>54.00</geoidheight><course>297.7</course><type>1</type></trkpt>
      <trkpt lat="40.44265797" lon="-5.28984039"><ele>2248</ele><speed>8.54</speed><time>2016-06-30T12:03:57Z</time><pdop>3.0</pdop><geoidheight>54.00</geoidheight><course>295.1</course><type>1</type></trkpt>
      <trkpt lat="40.44269141" lon="-5.28993597"><ele>2250</ele><speed>8.52</speed><time>2016-06-30T12:03:58Z</time><pdop>3.0</pdop><geoidheight>54.00</geoidheight><course>300.0</course><type>1</type></trkpt>
      <trkpt lat="40.44273438" lon="-5.2900211"><ele>2252</ele><speed>8.67</speed><time>2016-06-30T12:03:59Z</time><pdop>3.0</pdop><geoidheight>54.00</geoidheight><course>306.4</course><type>1</type></trkpt>
      <trkpt lat="40.44278883" lon="-5.29009637"><ele>2253</ele><speed>8.81</speed><time>2016-06-30T12:04:00Z</time><pdop>3.0</pdop><geoidheight>54.00</geoidheight><course>314.2</course><type>1</type></trkpt>
      <trkpt lat="40.44285531" lon="-5.29016045"><ele>2254</ele><speed>8.87</speed><time>2016-06-30T12:04:01Z</time><pdop>3.0</pdop><geoidheight>54.00</geoidheight><course>322.3</course><type>1</type></trkpt>
      <trkpt lat="40.44292526" lon="-5.29021895"><ele>2256</ele><speed>9.25</speed><time>2016-06-30T12:04:02Z</time><pdop>3.0</pdop><geoidheight>54.00</geoidheight><course>330.1</course><type>1</type></trkpt>
      <trkpt lat="40.44301069" lon="-5.29024692"><ele>2257</ele><speed>9.66</speed><time>2016-06-30T12:04:03Z</time><pdop>3.0</pdop><geoidheight>54.00</geoidheight><course>345.4</course><type>1</type></trkpt>
      <trkpt lat="40.44310141" lon="-5.29024864"><ele>2257</ele><speed>10.04</speed><time>2016-06-30T12:04:04Z</time><pdop>3.0</pdop><geoidheight>54.00</geoidheight><course>357.3</course><type>1</type></trkpt>
      <trkpt lat="40.44319858" lon="-5.29020308"><ele>2257</ele><speed>10.84</speed><time>2016-06-30T12:04:05Z</time><pdop>4.0</pdop><geoidheight>54.00</geoidheight><course>10.8</course><type>1</type></trkpt>
      <trkpt lat="40.44325759" lon="-5.29007554"><ele>2259</ele><speed>11.13</speed><time>2016-06-30T12:04:06Z</time><pdop>5.0</pdop><geoidheight>54.00</geoidheight><course>36.4</course><type>1</type></trkpt>
      <trkpt lat="40.44325851" lon="-5.28990786"><ele>2259</ele><speed>11.61</speed><time>2016-06-30T12:04:07Z</time><pdop>6.0</pdop><geoidheight>54.00</geoidheight><course>63.9</course><type>1</type></trkpt>
      <trkpt lat="40.44322739" lon="-5.28975236"><ele>2260</ele><speed>11.77</speed><time>2016-06-30T12:04:08Z</time><pdop>6.0</pdop><geoidheight>54.00</geoidheight><course>83.2</course><type>1</type></trkpt>
      <trkpt lat="40.44319555" lon="-5.28959743"><ele>2262</ele><speed>11.88</speed><time>2016-06-30T12:04:09Z</time><pdop>5.0</pdop><geoidheight>54.00</geoidheight><course>95.6</course><type>1</type></trkpt>
      <trkpt lat="40.44314899" lon="-5.28948491"><ele>2235</ele><speed>9.82</speed><time>2016-06-30T12:04:10Z</time><pdop>5.0</pdop><geoidheight>54.00</geoidheight><course>101.5</course><type>1</type></trkpt>
      <trkpt lat="40.4430172" lon="-5.28940487"><ele>2246</ele><speed>11.30</speed><time>2016-06-30T12:04:11Z</time><pdop>4.0</pdop><geoidheight>54.00</geoidheight><course>131.8</course><type>1</type></trkpt>
      <trkpt lat="40.44291497" lon="-5.28933901"><ele>2249</ele><speed>11.23</speed><time>2016-06-30T12:04:12Z</time><pdop>5.0</pdop><geoidheight>54.00</geoidheight><course>140.1</course><type>1</type></trkpt>
      <trkpt lat="40.44270625" lon="-5.28940991"><ele>2252</ele><speed>10.74</speed><time>2016-06-30T12:04:14Z</time><pdop>7.0</pdop><geoidheight>54.00</geoidheight><course>174.7</course><type>1</type></trkpt>
      <trkpt lat="40.44271203" lon="-5.28975782"><ele>2257</ele><speed>9.91</speed><time>2016-06-30T12:04:16Z</time><pdop>4.0</pdop><geoidheight>54.00</geoidheight><course>266.8</course><type>1</type></trkpt>
      <trkpt lat="40.44272661" lon="-5.28988199"><ele>2260</ele><speed>8.79</speed><time>2016-06-30T12:04:17Z</time><pdop>4.0</pdop><geoidheight>54.00</geoidheight><course>286.1</course><type>1</type></trkpt>
      <trkpt lat="40.44276615" lon="-5.28997015"><ele>2262</ele><speed>8.02</speed><time>2016-06-30T12:04:18Z</time><pdop>4.0</pdop><geoidheight>54.00</geoidheight><course>308.6</course><type>1</type></trkpt>
      <trkpt lat="40.44287838" lon="-5.29004238"><ele>2265</ele><speed>7.29</speed><time>2016-06-30T12:04:20Z</time><pdop>4.0</pdop><geoidheight>54.00</geoidheight><course>337.9</course><type>1</type></trkpt>
      <trkpt lat="40.44299906" lon="-5.2900917"><ele>2269</ele><speed>7.83</speed><time>2016-06-30T12:04:22Z</time><pdop>4.0</pdop><geoidheight>54.00</geoidheight><course>346.9</course><type>1</type></trkpt>
      <trkpt lat="40.44307526" lon="-5.29009252"><ele>2269</ele><speed>8.22</speed><time>2016-06-30T12:04:23Z</time><pdop>4.0</pdop><geoidheight>54.00</geoidheight><course>353.8</course><type>1</type></trkpt>
      <trkpt lat="40.44314054" lon="-5.29010503"><ele>2274</ele><speed>8.63</speed><time>2016-06-30T12:04:24Z</time><pdop>3.0</pdop><geoidheight>54.00</geoidheight><course>359.2</course><type>1</type></trkpt>
      <trkpt lat="40.44321253" lon="-5.29008661"><ele>2279</ele><speed>8.93</speed><time>2016-06-30T12:04:25Z</time><pdop>3.0</pdop><geoidheight>54.00</geoidheight><course>11.8</course><type>1</type></trkpt>
      <trkpt lat="40.44327945" lon="-5.29005162"><ele>2282</ele><speed>8.87</speed><time>2016-06-30T12:04:26Z</time><pdop>3.0</pdop><geoidheight>54.00</geoidheight><course>23.5</course><type>1</type></trkpt>
      <trkpt lat="40.44334045" lon="-5.2899687"><ele>2284</ele><speed>9.34</speed><time>2016-06-30T12:04:27Z</time><pdop>3.0</pdop><geoidheight>54.00</geoidheight><course>42.3</course><type>1</type></trkpt>
      <trkpt lat="40.44339368" lon="-5.28987632"><ele>2286</ele><speed>10.48</speed><time>2016-06-30T12:04:28Z</time><pdop>3.0</pdop><geoidheight>54.00</geoidheight><course>52.9</course><type>1</type></trkpt>
      <trkpt lat="40.44342693" lon="-5.28976862"><ele>2288</ele><speed>10.54</speed><time>2016-06-30T12:04:29Z</time><pdop>5.0</pdop><geoidheight>54.00</geoidheight><course>65.5</course><type>1</type></trkpt>
      <trkpt lat="40.443399" lon="-5.28963336"><ele>2289</ele><speed>10.62</speed><time>2016-06-30T12:04:30Z</time><pdop>5.0</pdop><geoidheight>54.00</geoidheight><course>86.6</course><type>1</type></trkpt>
      <trkpt lat="40.44324201" lon="-5.28946972"><ele>2291</ele><speed>9.81</speed><time>2016-06-30T12:04:32Z</time><pdop>6.0</pdop><geoidheight>54.00</geoidheight><course>126.7</course><type>1</type></trkpt>
      <trkpt lat="40.44315084" lon="-5.28938895"><ele>2291</ele><speed>10.48</speed><time>2016-06-30T12:04:33Z</time><pdop>6.0</pdop><geoidheight>54.00</geoidheight><course>142.0</course><type>1</type></trkpt>
      <trkpt lat="40.44303171" lon="-5.28937423"><ele>2293</ele><speed>11.69</speed><time>2016-06-30T12:04:34Z</time><pdop>4.0</pdop><geoidheight>54.00</geoidheight><course>168.0</course><type>1</type></trkpt>
      <trkpt lat="40.4429188" lon="-5.28935387"><ele>2295</ele><speed>11.89</speed><time>2016-06-30T12:04:35Z</time><pdop>4.0</pdop><geoidheight>54.00</geoidheight><course>172.7</course><type>1</type></trkpt>
      <trkpt lat="40.4428148" lon="-5.28931814"><ele>2298</ele><speed>11.39</speed><time>2016-06-30T12:04:36Z</time><pdop>4.0</pdop><geoidheight>54.00</geoidheight><course>173.3</course><type>1</type></trkpt>
      <trkpt lat="40.44272042" lon="-5.2893117"><ele>2300</ele><speed>10.60</speed><time>2016-06-30T12:04:37Z</time><pdop>3.0</pdop><geoidheight>54.00</geoidheight><course>179.8</course><type>1</type></trkpt>
      <trkpt lat="40.44264062" lon="-5.28934725"><ele>2300</ele><speed>9.58</speed><time>2016-06-30T12:04:38Z</time><pdop>3.0</pdop><geoidheight>54.00</geoidheight><course>198.9</course><type>1</type></trkpt>
      <trkpt lat="40.44257569" lon="-5.28941337"><ele>2301</ele><speed>9.46</speed><time>2016-06-30T12:04:39Z</time><pdop>3.0</pdop><geoidheight>54.00</geoidheight><course>221.6</course><type>1</type></trkpt>
      <trkpt lat="40.44253374" lon="-5.28951005"><ele>2303</ele><speed>9.70</speed><time>2016-06-30T12:04:40Z</time><pdop>3.0</pdop><geoidheight>54.00</geoidheight><course>240.4</course><type>1</type></trkpt>
      <trkpt lat="40.44249987" lon="-5.28959978"><ele>2304</ele><speed>9.08</speed><time>2016-06-30T12:04:41Z</time><pdop>3.0</pdop><geoidheight>54.00</geoidheight><course>247.1</course><type>1</type></trkpt>
      <trkpt lat="40.44251044" lon="-5.28968471"><ele>2305</ele><speed>7.37</speed><time>2016-06-30T12:04:42Z</time><pdop>3.0</pdop><geoidheight>54.00</geoidheight><course>267.6</course><type>1</type></trkpt>
      <trkpt lat="40.44252246" lon="-5.28975794"><ele>2309</ele><speed>6.82</speed><time>2016-06-30T12:04:43Z</time><pdop>3.0</pdop><geoidheight>54.00</geoidheight><course>280.8</course><type>1</type></trkpt>
      <trkpt lat="40.44257831" lon="-5.28987022"><ele>2312</ele><speed>6.29</speed><time>2016-06-30T12:04:45Z</time><pdop>3.0</pdop><geoidheight>54.00</geoidheight><course>305.5</course><type>1</type></trkpt>
      <trkpt lat="40.44261708" lon="-5.28993334"><ele>2312</ele><speed>7.03</speed><time>2016-06-30T12:04:46Z</time><pdop>3.0</pdop><geoidheight>54.00</geoidheight><course>309.8</course><type>1</type></trkpt>
      <trkpt lat="40.44267096" lon="-5.28998732"><ele>2313</ele><speed>7.73</speed><time>2016-06-30T12:04:47Z</time><pdop>3.0</pdop><geoidheight>54.00</geoidheight><course>318.2</course><type>1</type></trkpt>
      <trkpt lat="40.44274881" lon="-5.29001026"><ele>2315</ele><speed>8.62</speed><time>2016-06-30T12:04:48Z</time><pdop>3.0</pdop><geoidheight>54.00</geoidheight><course>340.6</course><type>1</type></trkpt>
      <trkpt lat="40.44283409" lon="-5.29001251"><ele>2318</ele><speed>9.95</speed><time>2016-06-30T12:04:49Z</time><pdop>3.0</pdop><geoidheight>54.00</geoidheight><course>358.3</course><type>1</type></trkpt>
      <trkpt lat="40.44292332" lon="-5.28998914"><ele>2320</ele><speed>10.98</speed><time>2016-06-30T12:04:50Z</time><pdop>3.0</pdop><geoidheight>54.00</geoidheight><course>7.8</course><type>1</type></trkpt>
      <trkpt lat="40.44301543" lon="-5.28994697"><ele>2322</ele><speed>11.05</speed><time>2016-06-30T12:04:51Z</time><pdop>3.0</pdop><geoidheight>54.00</geoidheight><course>15.3</course><type>1</type></trkpt>
      <trkpt lat="40.44308481" lon="-5.28988398"><ele>2324</ele><speed>10.58</speed><time>2016-06-30T12:04:52Z</time><pdop>4.0</pdop><geoidheight>54.00</geoidheight><course>24.6</course><type>1</type></trkpt>
      <trkpt lat="40.44308986" lon="-5.28974932"><ele>2330</ele><speed>10.36</speed><time>2016-06-30T12:04:53Z</time><pdop>3.0</pdop><geoidheight>54.00</geoidheight><course>49.6</course><type>1</type></trkpt>
      <trkpt lat="40.44313791" lon="-5.28964024"><ele>2332</ele><speed>10.72</speed><time>2016-06-30T12:04:54Z</time><pdop>3.0</pdop><geoidheight>54.00</geoidheight><course>61.8</course><type>1</type></trkpt>
      <trkpt lat="40.4431742" lon="-5.28952292"><ele>2334</ele><speed>10.99</speed><time>2016-06-30T12:04:55Z</time><pdop>4.0</pdop><geoidheight>54.00</geoidheight><course>66.5</course><type>1</type></trkpt>
      <trkpt lat="40.44317853" lon="-5.28940654"><ele>2335</ele><speed>10.43</speed><time>2016-06-30T12:04:56Z</time><pdop>5.0</pdop><geoidheight>54.00</geoidheight><course>75.3</course><type>1</type></trkpt>
      <trkpt lat="40.44320926" lon="-5.28927838"><ele>2336</ele><speed>10.61</speed><time>2016-06-30T12:04:57Z</time><pdop>5.0</pdop><geoidheight>54.00</geoidheight><course>77.5</course><type>1</type></trkpt>
      <trkpt lat="40.44321222" lon="-5.28908318"><ele>2339</ele><speed>8.89</speed><time>2016-06-30T12:04:59Z</time><pdop>4.0</pdop><geoidheight>54.00</geoidheight><course>91.8</course><type>1</type></trkpt>
      <trkpt lat="40.44320387" lon="-5.28896861"><ele>2341</ele><speed>9.09</speed><time>2016-06-30T12:05:00Z</time><pdop>5.0</pdop><geoidheight>54.00</geoidheight><course>97.3</course><type>1</type></trkpt>
      <trkpt lat="40.44312727" lon="-5.28874032"><ele>2344</ele><speed>9.17</speed><time>2016-06-30T12:05:02Z</time><pdop>6.0</pdop><geoidheight>54.00</geoidheight><course>117.0</course><type>1</type></trkpt>
      <trkpt lat="40.44300939" lon="-5.28865779"><ele>2344</ele><speed>11.35</speed><time>2016-06-30T12:05:03Z</time><pdop>6.0</pdop><geoidheight>54.00</geoidheight><course>137.6</course><type>1</type></trkpt>
      <trkpt lat="40.44288117" lon="-5.28859709"><ele>2344</ele><speed>12.51</speed><time>2016-06-30T12:05:04Z</time><pdop>6.0</pdop><geoidheight>54.00</geoidheight><course>147.8</course><type>1</type></trkpt>
      <trkpt lat="40.44273116" lon="-5.28859531"><ele>2344</ele><speed>13.31</speed><time>2016-06-30T12:05:05Z</time><pdop>6.0</pdop><geoidheight>54.00</geoidheight><course>162.7</course><type>1</type></trkpt>
      <trkpt lat="40.44269909" lon="-5.28877491"><ele>2345</ele><speed>10.54</speed><time>2016-06-30T12:05:06Z</time><pdop>6.0</pdop><geoidheight>54.00</geoidheight><course>199.4</course><type>1</type></trkpt>
      <trkpt lat="40.44258856" lon="-5.2889289"><ele>2347</ele><speed>8.09</speed><time>2016-06-30T12:05:08Z</time><pdop>7.0</pdop><geoidheight>54.00</geoidheight><course>222.5</course><type>1</type></trkpt>
      <trkpt lat="40.44260067" lon="-5.28922179"><ele>2348</ele><speed>9.12</speed><time>2016-06-30T12:05:10Z</time><pdop>6.0</pdop><geoidheight>54.00</geoidheight><course>269.1</course><type>1</type></trkpt>
      <trkpt lat="40.4426734" lon="-5.28940361"><ele>2350</ele><speed>8.42</speed><time>2016-06-30T12:05:12Z</time><pdop>4.0</pdop><geoidheight>54.00</geoidheight><course>303.3</course><type>1</type></trkpt>
      <trkpt lat="40.44278379" lon="-5.28950093"><ele>2353</ele><speed>8.54</speed><time>2016-06-30T12:05:14Z</time><pdop>4.0</pdop><geoidheight>54.00</geoidheight><course>322.6</course><type>1</type></trkpt>
      <trkpt lat="40.44286159" lon="-5.28954284"><ele>2355</ele><speed>8.72</speed><time>2016-06-30T12:05:15Z</time><pdop>4.0</pdop><geoidheight>54.00</geoidheight><course>335.8</course><type>1</type></trkpt>
      <trkpt lat="40.44294711" lon="-5.28957089"><ele>2357</ele><speed>9.03</speed><time>2016-06-30T12:05:16Z</time><pdop>4.0</pdop><geoidheight>54.00</geoidheight><course>340.5</course><type>1</type></trkpt>
      <trkpt lat="40.4430272" lon="-5.28958757"><ele>2360</ele><speed>8.96</speed><time>2016-06-30T12:05:17Z</time><pdop>4.0</pdop><geoidheight>54.00</geoidheight><course>345.1</course><type>1</type></trkpt>
      <trkpt lat="40.44311159" lon="-5.2895943"><ele>2362</ele><speed>9.25</speed><time>2016-06-30T12:05:18Z</time><pdop>3.0</pdop><geoidheight>54.00</geoidheight><course>354.2</course><type>1</type></trkpt>
      <trkpt lat="40.44320073" lon="-5.28959973"><ele>2366</ele><speed>10.00</speed><time>2016-06-30T12:05:19Z</time><pdop>3.0</pdop><geoidheight>54.00</geoidheight><course>6.7</course><type>1</type></trkpt>
      <trkpt lat="40.44328661" lon="-5.28956159"><ele>2287</ele><speed>10.51</speed><time>2016-06-30T12:05:20Z</time><pdop>4.0</pdop><geoidheight>54.00</geoidheight><course>16.3</course><type>1</type></trkpt>
      <trkpt lat="40.44337649" lon="-5.28950253"><ele>2297</ele><speed>11.28</speed><time>2016-06-30T12:05:21Z</time><pdop>6.0</pdop><geoidheight>54.00</geoidheight><course>22.8</course><type>1</type></trkpt>
      <trkpt lat="40.44354874" lon="-5.28933949"><ele>2335</ele><speed>11.90</speed><time>2016-06-30T12:05:23Z</time><pdop>7.0</pdop><geoidheight>54.00</geoidheight><course>32.6</course><type>1</type></trkpt>
      <trkpt lat="40.44353169" lon="-5.28916175"><ele>2341</ele><speed>10.93</speed><time>2016-06-30T12:05:24Z</time><pdop>7.0</pdop><geoidheight>54.00</geoidheight><course>60.0</course><type>1</type></trkpt>
      <trkpt lat="40.44347316" lon="-5.28887718"><ele>2362</ele><speed>11.65</speed><time>2016-06-30T12:05:26Z</time><pdop>5.0</pdop><geoidheight>54.00</geoidheight><course>98.9</course><type>1</type></trkpt>
      <trkpt lat="40.44345069" lon="-5.28872625"><ele>2367</ele><speed>11.69</speed><time>2016-06-30T12:05:27Z</time><pdop>6.0</pdop><geoidheight>54.00</geoidheight><course>103.7</course><type>1</type></trkpt>
      <trkpt lat="40.44336385" lon="-5.28858304"><ele>2372</ele><speed>12.44</speed><time>2016-06-30T12:05:28Z</time><pdop>6.0</pdop><geoidheight>54.00</geoidheight><course>116.2</course><type>1</type></trkpt>
      <trkpt lat="40.44322277" lon="-5.28853411"><ele>2380</ele><speed>12.49</speed><time>2016-06-30T12:05:29Z</time><pdop>4.0</pdop><geoidheight>54.00</geoidheight><course>148.3</course><type>1</type></trkpt>
      <trkpt lat="40.44311867" lon="-5.28850464"><ele>2388</ele><speed>11.59</speed><time>2016-06-30T12:05:30Z</time><pdop>4.0</pdop><geoidheight>54.00</geoidheight><course>167.4</course><type>1</type></trkpt>
      <trkpt lat="40.44302578" lon="-5.28850949"><ele>2394</ele><speed>10.45</speed><time>2016-06-30T12:05:31Z</time><pdop>3.0</pdop><geoidheight>54.00</geoidheight><course>186.0</course><type>1</type></trkpt>
      <trkpt lat="40.44296268" lon="-5.28855298"><ele>2398</ele><speed>9.19</speed><time>2016-06-30T12:05:32Z</time><pdop>3.0</pdop><geoidheight>54.00</geoidheight><course>206.3</course><type>1</type></trkpt>
      <trkpt lat="40.44292064" lon="-5.288618"><ele>2402</ele><speed>7.93</speed><time>2016-06-30T12:05:33Z</time><pdop>3.0</pdop><geoidheight>54.00</geoidheight><course>225.8</course><type>1</type></trkpt>
      <trkpt lat="40.44289255" lon="-5.28869271"><ele>2404</ele><speed>7.70</speed><time>2016-06-30T12:05:34Z</time><pdop>3.0</pdop><geoidheight>54.00</geoidheight><course>244.2</course><type>1</type></trkpt>
      <trkpt lat="40.44288885" lon="-5.28877858"><ele>2406</ele><speed>7.47</speed><time>2016-06-30T12:05:35Z</time><pdop>3.0</pdop><geoidheight>54.00</geoidheight><course>263.8</course><type>1</type></trkpt>
      <trkpt lat="40.4429164" lon="-5.28886379"><ele>2407</ele><speed>7.68</speed><time>2016-06-30T12:05:36Z</time><pdop>3.0</pdop><geoidheight>54.00</geoidheight><course>287.3</course><type>1</type></trkpt>
      <trkpt lat="40.44296448" lon="-5.28892944"><ele>2408</ele><speed>7.81</speed><time>2016-06-30T12:05:37Z</time><pdop>3.0</pdop><geoidheight>54.00</geoidheight><course>308.2</course><type>1</type></trkpt>
      <trkpt lat="40.44303166" lon="-5.28896314"><ele>2408</ele><speed>8.18</speed><time>2016-06-30T12:05:38Z</time><pdop>3.0</pdop><geoidheight>54.00</geoidheight><course>329.9</course><type>1</type></trkpt>
      <trkpt lat="40.44311232" lon="-5.28900356"><ele>2410</ele><speed>9.22</speed><time>2016-06-30T12:05:39Z</time><pdop>3.0</pdop><geoidheight>54.00</geoidheight><course>337.3</course><type>1</type></trkpt>
      <trkpt lat="40.44319163" lon="-5.2889903"><ele>2412</ele><speed>9.41</speed><time>2016-06-30T12:05:40Z</time><pdop>3.0</pdop><geoidheight>54.00</geoidheight><course>353.1</course><type>1</type></trkpt>
      <trkpt lat="40.44328115" lon="-5.28892365"><ele>2413</ele><speed>10.02</speed><time>2016-06-30T12:05:41Z</time><pdop>4.0</pdop><geoidheight>54.00</geoidheight><course>12.2</course><type>1</type></trkpt>
      <trkpt lat="40.44338775" lon="-5.28881817"><ele>2414</ele><speed>12.07</speed><time>2016-06-30T12:05:42Z</time><pdop>5.0</pdop><geoidheight>54.00</geoidheight><course>25.5</course><type>1</type></trkpt>
      <trkpt lat="40.44344395" lon="-5.28865591"><ele>2414</ele><speed>12.44</speed><time>2016-06-30T12:05:43Z</time><pdop>4.0</pdop><geoidheight>54.00</geoidheight><course>46.7</course><type>1</type></trkpt>
      <trkpt lat="40.4434462" lon="-5.28849061"><ele>2416</ele><speed>12.01</speed><time>2016-06-30T12:05:44Z</time><pdop>4.0</pdop><geoidheight>54.00</geoidheight><course>63.6</course><type>1</type></trkpt>
      <trkpt lat="40.4434625" lon="-5.28831832"><ele>2418</ele><speed>12.98</speed><time>2016-06-30T12:05:45Z</time><pdop>4.0</pdop><geoidheight>54.00</geoidheight><course>71.9</course><type>1</type></trkpt>
      <trkpt lat="40.44344022" lon="-5.28817416"><ele>2420</ele><speed>11.47</speed><time>2016-06-30T12:05:46Z</time><pdop>5.0</pdop><geoidheight>54.00</geoidheight><course>82.6</course><type>1</type></trkpt>
      <trkpt lat="40.44342252" lon="-5.2880457"><ele>2420</ele><speed>10.55</speed><time>2016-06-30T12:05:47Z</time><pdop>6.0</pdop><geoidheight>54.00</geoidheight><course>88.3</course><type>1</type></trkpt>
      <trkpt lat="40.44329072" lon="-5.28797512"><ele>2421</ele><speed>8.61</speed><time>2016-06-30T12:05:48Z</time><pdop>6.0</pdop><geoidheight>54.00</geoidheight><course>116.5</course><type>1</type></trkpt>
      <trkpt lat="40.44304563" lon="-5.28793225"><ele>2426</ele><speed>10.71</speed><time>2016-06-30T12:05:50Z</time><pdop>5.0</pdop><geoidheight>54.00</geoidheight><course>168.9</course><type>1</type></trkpt>
      <trkpt lat="40.44300432" lon="-5.28802394"><ele>2426</ele><speed>9.27</speed><time>2016-06-30T12:05:51Z</time><pdop>4.0</pdop><geoidheight>54.00</geoidheight><course>205.9</course><type>1</type></trkpt>
      <trkpt lat="40.4429413" lon="-5.28808201"><ele>2427</ele><speed>8.62</speed><time>2016-06-30T12:05:52Z</time><pdop>4.0</pdop><geoidheight>54.00</geoidheight><course>216.4</course><type>1</type></trkpt>
      <trkpt lat="40.4428946" lon="-5.28817777"><ele>2427</ele><speed>8.51</speed><time>2016-06-30T12:05:53Z</time><pdop>5.0</pdop><geoidheight>54.00</geoidheight><course>230.0</course><type>1</type></trkpt>
      <trkpt lat="40.4429147" lon="-5.28831292"><ele>2429</ele><speed>9.28</speed><time>2016-06-30T12:05:54Z</time><pdop>4.0</pdop><geoidheight>54.00</geoidheight><course>273.4</course><type>1</type></trkpt>
      <trkpt lat="40.44298996" lon="-5.28846973"><ele>2432</ele><speed>8.66</speed><time>2016-06-30T12:05:56Z</time><pdop>3.0</pdop><geoidheight>54.00</geoidheight><course>316.5</course><type>1</type></trkpt>
      <trkpt lat="40.44304874" lon="-5.28852164"><ele>2433</ele><speed>7.88</speed><time>2016-06-30T12:05:57Z</time><pdop>4.0</pdop><geoidheight>54.00</geoidheight><course>321.2</course><type>1</type></trkpt>
      <trkpt lat="40.44315862" lon="-5.28850749"><ele>2435</ele><speed>10.41</speed><time>2016-06-30T12:05:58Z</time><pdop>3.0</pdop><geoidheight>54.00</geoidheight><course>354.0</course><type>1</type></trkpt>
      <trkpt lat="40.44324577" lon="-5.2885146"><ele>2437</ele><speed>10.52</speed><time>2016-06-30T12:05:59Z</time><pdop>3.0</pdop><geoidheight>54.00</geoidheight><course>357.7</course><type>1</type></trkpt>
      <trkpt lat="40.44334148" lon="-5.28850813"><ele>2438</ele><speed>10.74</speed><time>2016-06-30T12:06:00Z</time><pdop>3.0</pdop><geoidheight>54.00</geoidheight><course>1.1</course><type>1</type></trkpt>
      <trkpt lat="40.44343348" lon="-5.28847915"><ele>2440</ele><speed>11.25</speed><time>2016-06-30T12:06:01Z</time><pdop>3.0</pdop><geoidheight>54.00</geoidheight><course>10.1</course><type>1</type></trkpt>
      <trkpt lat="40.4435328" lon="-5.28844848"><ele>2443</ele><speed>11.50</speed><time>2016-06-30T12:06:02Z</time><pdop>4.0</pdop><geoidheight>54.00</geoidheight><course>12.1</course><type>1</type></trkpt>
      <trkpt lat="40.44360904" lon="-5.28839743"><ele>2445</ele><speed>10.83</speed><time>2016-06-30T12:06:03Z</time><pdop>4.0</pdop><geoidheight>54.00</geoidheight><course>21.0</course><type>1</type></trkpt>
      <trkpt lat="40.44368315" lon="-5.28828792"><ele>2446</ele><speed>11.46</speed><time>2016-06-30T12:06:04Z</time><pdop>5.0</pdop><geoidheight>54.00</geoidheight><course>37.8</course><type>1</type></trkpt>
      <trkpt lat="40.44373499" lon="-5.28812914"><ele>2449</ele><speed>12.85</speed><time>2016-06-30T12:06:05Z</time><pdop>5.0</pdop><geoidheight>54.00</geoidheight><course>51.8</course><type>1</type></trkpt>
      <trkpt lat="40.44376824" lon="-5.28797076"><ele>2450</ele><speed>13.73</speed><time>2016-06-30T12:06:06Z</time><pdop>6.0</pdop><geoidheight>54.00</geoidheight><course>61.4</course><type>1</type></trkpt>
      <trkpt lat="40.44373406" lon="-5.28781868"><ele>2451</ele><speed>12.71</speed><time>2016-06-30T12:06:07Z</time><pdop>6.0</pdop><geoidheight>54.00</geoidheight><course>79.7</course><type>1</type></trkpt>
      <trkpt lat="40.44362419" lon="-5.28769696"><ele>2451</ele><speed>12.44</speed><time>2016-06-30T12:06:08Z</time><pdop>5.0</pdop><geoidheight>54.00</geoidheight><course>110.5</course><type>1</type></trkpt>
      <trkpt lat="40.44353767" lon="-5.28758992"><ele>2452</ele><speed>12.17</speed><time>2016-06-30T12:06:09Z</time><pdop>4.0</pdop><geoidheight>54.00</geoidheight><course>129.9</course><type>1</type></trkpt>
      <trkpt lat="40.4434493" lon="-5.28752905"><ele>2453</ele><speed>11.71</speed><time>2016-06-30T12:06:10Z</time><pdop>4.0</pdop><geoidheight>54.00</geoidheight><course>145.4</course><type>1</type></trkpt>
      <trkpt lat="40.44335157" lon="-5.28747004"><ele>2454</ele><speed>10.81</speed><time>2016-06-30T12:06:11Z</time><pdop>4.0</pdop><geoidheight>54.00</geoidheight><course>157.5</course><type>1</type></trkpt>
      <trkpt lat="40.44326564" lon="-5.28744493"><ele>2455</ele><speed>10.01</speed><time>2016-06-30T12:06:12Z</time><pdop>3.0</pdop><geoidheight>54.00</geoidheight><course>167.6</course><type>1</type></trkpt>
      <trkpt lat="40.44318274" lon="-5.28744857"><ele>2455</ele><speed>9.78</speed><time>2016-06-30T12:06:13Z</time><pdop>3.0</pdop><geoidheight>54.00</geoidheight><course>181.0</course><type>1</type></trkpt>
      <trkpt lat="40.44309385" lon="-5.2874815"><ele>2456</ele><speed>9.93</speed><time>2016-06-30T12:06:14Z</time><pdop>3.0</pdop><geoidheight>54.00</geoidheight><course>195.1</course><type>1</type></trkpt>
      <trkpt lat="40.44302649" lon="-5.28754589"><ele>2457</ele><speed>9.40</speed><time>2016-06-30T12:06:15Z</time><pdop>3.0</pdop><geoidheight>54.00</geoidheight><course>210.4</course><type>1</type></trkpt>
      <trkpt lat="40.44296809" lon="-5.28761372"><ele>2459</ele><speed>8.71</speed><time>2016-06-30T12:06:16Z</time><pdop>3.0</pdop><geoidheight>54.00</geoidheight><course>225.0</course><type>1</type></trkpt>
      <trkpt lat="40.44292876" lon="-5.28769192"><ele>2459</ele><speed>8.13</speed><time>2016-06-30T12:06:17Z</time><pdop>3.0</pdop><geoidheight>54.00</geoidheight><course>235.1</course><type>1</type></trkpt>
      <trkpt lat="40.44290662" lon="-5.28775968"><ele>2461</ele><speed>7.22</speed><time>2016-06-30T12:06:18Z</time><pdop>3.0</pdop><geoidheight>54.00</geoidheight><course>250.2</course><type>1</type></trkpt>
      <trkpt lat="40.44289394" lon="-5.28784137"><ele>2461</ele><speed>7.26</speed><time>2016-06-30T12:06:19Z</time><pdop>3.0</pdop><geoidheight>54.00</geoidheight><course>257.9</course><type>1</type></trkpt>
      <trkpt lat="40.44292962" lon="-5.28791306"><ele>2463</ele><speed>7.44</speed><time>2016-06-30T12:06:20Z</time><pdop>3.0</pdop><geoidheight>54.00</geoidheight><course>287.2</course><type>1</type></trkpt>
      <trkpt lat="40.44297023" lon="-5.28799855"><ele>2464</ele><speed>8.52</speed><time>2016-06-30T12:06:21Z</time><pdop>3.0</pdop><geoidheight>54.00</geoidheight><course>299.6</course><type>1</type></trkpt>
      <trkpt lat="40.44302808" lon="-5.28807938"><ele>2465</ele><speed>8.94</speed><time>2016-06-30T12:06:22Z</time><pdop>3.0</pdop><geoidheight>54.00</geoidheight><course>313.0</course><type>1</type></trkpt>
      <trkpt lat="40.44309512" lon="-5.28813556"><ele>2467</ele><speed>8.85</speed><time>2016-06-30T12:06:23Z</time><pdop>3.0</pdop><geoidheight>54.00</geoidheight><course>328.8</course><type>1</type></trkpt>
      <trkpt lat="40.44318037" lon="-5.28817762"><ele>2467</ele><speed>9.57</speed><time>2016-06-30T12:06:24Z</time><pdop>3.0</pdop><geoidheight>54.00</geoidheight><course>340.7</course><type>1</type></trkpt>
      <trkpt lat="40.44327055" lon="-5.28817905"><ele>2468</ele><speed>10.23</speed><time>2016-06-30T12:06:25Z</time><pdop>3.0</pdop><geoidheight>54.00</geoidheight><course>355.7</course><type>1</type></trkpt>
      <trkpt lat="40.44337431" lon="-5.28816556"><ele>2466</ele><speed>10.90</speed><time>2016-06-30T12:06:26Z</time><pdop>4.0</pdop><geoidheight>54.00</geoidheight><course>2.3</course><type>1</type></trkpt>
      <trkpt lat="40.44344174" lon="-5.28805252"><ele>2467</ele><speed>10.62</speed><time>2016-06-30T12:06:27Z</time><pdop>3.0</pdop><geoidheight>54.00</geoidheight><course>30.4</course><type>1</type></trkpt>
      <trkpt lat="40.44352361" lon="-5.28794859"><ele>2467</ele><speed>12.20</speed><time>2016-06-30T12:06:28Z</time><pdop>3.0</pdop><geoidheight>54.00</geoidheight><course>41.8</course><type>1</type></trkpt>
      <trkpt lat="40.44357278" lon="-5.28780729"><ele>2466</ele><speed>13.04</speed><time>2016-06-30T12:06:29Z</time><pdop>4.0</pdop><geoidheight>54.00</geoidheight><course>55.9</course><type>1</type></trkpt>
      <trkpt lat="40.44362129" lon="-5.28766016"><ele>2466</ele><speed>13.31</speed><time>2016-06-30T12:06:30Z</time><pdop>5.0</pdop><geoidheight>54.00</geoidheight><course>59.9</course><type>1</type></trkpt>
      <trkpt lat="40.44361603" lon="-5.28749711"><ele>2465</ele><speed>13.18</speed><time>2016-06-30T12:06:31Z</time><pdop>6.0</pdop><geoidheight>54.00</geoidheight><course>72.0</course><type>1</type></trkpt>
      <trkpt lat="40.44352868" lon="-5.28736506"><ele>2464</ele><speed>12.58</speed><time>2016-06-30T12:06:32Z</time><pdop>5.0</pdop><geoidheight>54.00</geoidheight><course>96.5</course><type>1</type></trkpt>
      <trkpt lat="40.4435412" lon="-5.28721419"><ele>2462</ele><speed>12.00</speed><time>2016-06-30T12:06:33Z</time><pdop>6.0</pdop><geoidheight>54.00</geoidheight><course>94.3</course><type>1</type></trkpt>
      <trkpt lat="40.4434147" lon="-5.28713597"><ele>2462</ele><speed>10.31</speed><time>2016-06-30T12:06:34Z</time><pdop>5.0</pdop><geoidheight>54.00</geoidheight><course>115.5</course><type>1</type></trkpt>
      <trkpt lat="40.4432356" lon="-5.28706571"><ele>2464</ele><speed>12.87</speed><time>2016-06-30T12:06:35Z</time><pdop>5.0</pdop><geoidheight>54.00</geoidheight><course>146.3</course><type>1</type></trkpt>
      <trkpt lat="40.44312221" lon="-5.28708368"><ele>2465</ele><speed>11.43</speed><time>2016-06-30T12:06:36Z</time><pdop>4.0</pdop><geoidheight>54.00</geoidheight><course>169.5</course><type>1</type></trkpt>
      <trkpt lat="40.44301436" lon="-5.28708252"><ele>2465</ele><speed>10.88</speed><time>2016-06-30T12:06:37Z</time><pdop>4.0</pdop><geoidheight>54.00</geoidheight><course>178.3</course><type>1</type></trkpt>
      <trkpt lat="40.4429205" lon="-5.28710043"><ele>2465</ele><speed>10.46</speed><time>2016-06-30T12:06:38Z</time><pdop>3.0</pdop><geoidheight>54.00</geoidheight><course>185.4</course><type>1</type></trkpt>
      <trkpt lat="40.4428311" lon="-5.28711469"><ele>2466</ele><speed>10.15</speed><time>2016-06-30T12:06:39Z</time><pdop>3.0</pdop><geoidheight>54.00</geoidheight><course>191.3</course><type>1</type></trkpt>
      <trkpt lat="40.44273543" lon="-5.28715399"><ele>2467</ele><speed>10.38</speed><time>2016-06-30T12:06:40Z</time><pdop>3.0</pdop><geoidheight>54.00</geoidheight><course>196.7</course><type>1</type></trkpt>
      <trkpt lat="40.44265517" lon="-5.28719532"><ele>2468</ele><speed>9.72</speed><time>2016-06-30T12:06:41Z</time><pdop>3.0</pdop><geoidheight>54.00</geoidheight><course>201.4</course><type>1</type></trkpt>
      <trkpt lat="40.44259645" lon="-5.287243"><ele>2469</ele><speed>8.04</speed><time>2016-06-30T12:06:42Z</time><pdop>3.0</pdop><geoidheight>54.00</geoidheight><course>208.3</course><type>1</type></trkpt>
      <trkpt lat="40.44254953" lon="-5.28730762"><ele>2469</ele><speed>7.41</speed><time>2016-06-30T12:06:43Z</time><pdop>3.0</pdop><geoidheight>54.00</geoidheight><course>219.5</course><type>1</type></trkpt>
      <trkpt lat="40.44251465" lon="-5.28738017"><ele>2471</ele><speed>7.53</speed><time>2016-06-30T12:06:44Z</time><pdop>3.0</pdop><geoidheight>54.00</geoidheight><course>236.2</course><type>1</type></trkpt>
      <trkpt lat="40.44249295" lon="-5.28747391"><ele>2471</ele><speed>7.91</speed><time>2016-06-30T12:06:45Z</time><pdop>3.0</pdop><geoidheight>54.00</geoidheight><course>249.7</course><type>1</type></trkpt>
      <trkpt lat="40.44247054" lon="-5.28756461"><ele>2473</ele><speed>8.17</speed><time>2016-06-30T12:06:46Z</time><pdop>3.0</pdop><geoidheight>54.00</geoidheight><course>256.3</course><type>1</type></trkpt>
      <trkpt lat="40.44245517" lon="-5.28766667"><ele>2474</ele><speed>8.66</speed><time>2016-06-30T12:06:47Z</time><pdop>3.0</pdop><geoidheight>54.00</geoidheight><course>261.3</course><type>1</type></trkpt>
      <trkpt lat="40.44245062" lon="-5.28777165"><ele>2475</ele><speed>8.93</speed><time>2016-06-30T12:06:48Z</time><pdop>3.0</pdop><geoidheight>54.00</geoidheight><course>268.9</course><type>1</type></trkpt>
      <trkpt lat="40.44248384" lon="-5.28786677"><ele>2476</ele><speed>8.88</speed><time>2016-06-30T12:06:49Z</time><pdop>3.0</pdop><geoidheight>54.00</geoidheight><course>286.7</course><type>1</type></trkpt>
      <trkpt lat="40.44253952" lon="-5.28793755"><ele>2477</ele><speed>8.86</speed><time>2016-06-30T12:06:50Z</time><pdop>3.0</pdop><geoidheight>54.00</geoidheight><course>310.9</course><type>1</type></trkpt>
      <trkpt lat="40.44259712" lon="-5.28800537"><ele>2478</ele><speed>8.56</speed><time>2016-06-30T12:06:51Z</time><pdop>3.0</pdop><geoidheight>54.00</geoidheight><course>312.7</course><type>1</type></trkpt>
      <trkpt lat="40.44273109" lon="-5.28800067"><ele>2479</ele><speed>7.27</speed><time>2016-06-30T12:06:53Z</time><pdop>5.0</pdop><geoidheight>54.00</geoidheight><course>353.0</course><type>1</type></trkpt>
      <trkpt lat="40.44281906" lon="-5.28792977"><ele>2478</ele><speed>8.19</speed><time>2016-06-30T12:06:54Z</time><pdop>6.0</pdop><geoidheight>54.00</geoidheight><course>15.2</course><type>1</type></trkpt>
      <trkpt lat="40.44292337" lon="-5.28783983"><ele>2479</ele><speed>10.00</speed><time>2016-06-30T12:06:55Z</time><pdop>7.0</pdop><geoidheight>54.00</geoidheight><course>27.5</course><type>1</type></trkpt>
      <trkpt lat="40.44293013" lon="-5.2876404"><ele>2479</ele><speed>11.78</speed><time>2016-06-30T12:06:56Z</time><pdop>5.0</pdop><geoidheight>54.00</geoidheight><course>57.9</course><type>1</type></trkpt>
      <trkpt lat="40.44296819" lon="-5.28748328"><ele>2480</ele><speed>11.86</speed><time>2016-06-30T12:06:57Z</time><pdop>5.0</pdop><geoidheight>54.00</geoidheight><course>65.9</course><type>1</type></trkpt>
      <trkpt lat="40.44303285" lon="-5.28735504"><ele>2479</ele><speed>12.65</speed><time>2016-06-30T12:06:58Z</time><pdop>5.0</pdop><geoidheight>54.00</geoidheight><course>65.0</course><type>1</type></trkpt>
      <trkpt lat="40.44296586" lon="-5.28719181"><ele>2481</ele><speed>11.86</speed><time>2016-06-30T12:06:59Z</time><pdop>4.0</pdop><geoidheight>54.00</geoidheight><course>97.0</course><type>1</type></trkpt>
      <trkpt lat="40.44295098" lon="-5.28704876"><ele>2483</ele><speed>11.79</speed><time>2016-06-30T12:07:00Z</time><pdop>4.0</pdop><geoidheight>54.00</geoidheight><course>103.1</course><type>1</type></trkpt>
      <trkpt lat="40.44291075" lon="-5.28691273"><ele>2484</ele><speed>11.77</speed><time>2016-06-30T12:07:01Z</time><pdop>4.0</pdop><geoidheight>54.00</geoidheight><course>108.2</course><type>1</type></trkpt>
      <trkpt lat="40.44285806" lon="-5.28679307"><ele>2486</ele><speed>11.37</speed><time>2016-06-30T12:07:02Z</time><pdop>3.0</pdop><geoidheight>54.00</geoidheight><course>118.0</course><type>1</type></trkpt>
      <trkpt lat="40.44279191" lon="-5.28669678"><ele>2487</ele><speed>11.19</speed><time>2016-06-30T12:07:03Z</time><pdop>3.0</pdop><geoidheight>54.00</geoidheight><course>132.1</course><type>1</type></trkpt>
      <trkpt lat="40.44271936" lon="-5.28661399"><ele>2487</ele><speed>11.74</speed><time>2016-06-30T12:07:04Z</time><pdop>3.0</pdop><geoidheight>54.00</geoidheight><course>145.5</course><type>1</type></trkpt>
      <trkpt lat="40.44262567" lon="-5.28656112"><ele>2488</ele><speed>11.61</speed><time>2016-06-30T12:07:05Z</time><pdop>3.0</pdop><geoidheight>54.00</geoidheight><course>158.3</course><type>1</type></trkpt>
      <trkpt lat="40.4425267" lon="-5.28654716"><ele>2488</ele><speed>10.88</speed><time>2016-06-30T12:07:06Z</time><pdop>3.0</pdop><geoidheight>54.00</geoidheight><course>172.2</course><type>1</type></trkpt>
      <trkpt lat="40.44243884" lon="-5.28656862"><ele>2489</ele><speed>9.59</speed><time>2016-06-30T12:07:07Z</time><pdop>3.0</pdop><geoidheight>54.00</geoidheight><course>190.1</course><type>1</type></trkpt>
      <trkpt lat="40.4423645" lon="-5.28661875"><ele>2488</ele><speed>9.59</speed><time>2016-06-30T12:07:08Z</time><pdop>3.0</pdop><geoidheight>54.00</geoidheight><course>206.3</course><type>1</type></trkpt>
      <trkpt lat="40.44231072" lon="-5.28668989"><ele>2490</ele><speed>9.08</speed><time>2016-06-30T12:07:09Z</time><pdop>3.0</pdop><geoidheight>54.00</geoidheight><course>219.5</course><type>1</type></trkpt>
      <trkpt lat="40.44225851" lon="-5.28676395"><ele>2490</ele><speed>8.41</speed><time>2016-06-30T12:07:10Z</time><pdop>3.0</pdop><geoidheight>54.00</geoidheight><course>228.2</course><type>1</type></trkpt>
      <trkpt lat="40.44222648" lon="-5.28685259"><ele>2490</ele><speed>8.67</speed><time>2016-06-30T12:07:11Z</time><pdop>3.0</pdop><geoidheight>54.00</geoidheight><course>240.5</course><type>1</type></trkpt>
      <trkpt lat="40.44219548" lon="-5.28694663"><ele>2491</ele><speed>8.54</speed><time>2016-06-30T12:07:12Z</time><pdop>5.0</pdop><geoidheight>54.00</geoidheight><course>242.4</course><type>1</type></trkpt>
      <trkpt lat="40.44218581" lon="-5.28705963"><ele>2491</ele><speed>9.10</speed><time>2016-06-30T12:07:13Z</time><pdop>4.0</pdop><geoidheight>54.00</geoidheight><course>253.8</course><type>1</type></trkpt>
      <trkpt lat="40.44217793" lon="-5.28715764"><ele>2491</ele><speed>8.77</speed><time>2016-06-30T12:07:14Z</time><pdop>4.0</pdop><geoidheight>54.00</geoidheight><course>263.7</course><type>1</type></trkpt>
      <trkpt lat="40.44219845" lon="-5.28725447"><ele>2491</ele><speed>8.19</speed><time>2016-06-30T12:07:15Z</time><pdop>4.0</pdop><geoidheight>54.00</geoidheight><course>273.6</course><type>1</type></trkpt>
      <trkpt lat="40.4422277" lon="-5.28732845"><ele>2491</ele><speed>8.01</speed><time>2016-06-30T12:07:16Z</time><pdop>3.0</pdop><geoidheight>54.00</geoidheight><course>291.1</course><type>1</type></trkpt>
      <trkpt lat="40.44227081" lon="-5.2874108"><ele>2491</ele><speed>8.08</speed><time>2016-06-30T12:07:17Z</time><pdop>3.0</pdop><geoidheight>54.00</geoidheight><course>301.8</course><type>1</type></trkpt>
      <trkpt lat="40.44231639" lon="-5.28747452"><ele>2491</ele><speed>8.25</speed><time>2016-06-30T12:07:18Z</time><pdop>3.0</pdop><geoidheight>54.00</geoidheight><course>309.9</course><type>1</type></trkpt>
      <trkpt lat="40.44236654" lon="-5.28754165"><ele>2490</ele><speed>8.52</speed><time>2016-06-30T12:07:19Z</time><pdop>3.0</pdop><geoidheight>54.00</geoidheight><course>316.1</course><type>1</type></trkpt>
      <trkpt lat="40.44242991" lon="-5.28760615"><ele>2491</ele><speed>9.04</speed><time>2016-06-30T12:07:20Z</time><pdop>3.0</pdop><geoidheight>54.00</geoidheight><course>322.4</course><type>1</type></trkpt>
      <trkpt lat="40.44251338" lon="-5.28767338"><ele>2490</ele><speed>10.32</speed><time>2016-06-30T12:07:21Z</time><pdop>3.0</pdop><geoidheight>54.00</geoidheight><course>327.8</course><type>1</type></trkpt>
      <trkpt lat="40.44260647" lon="-5.28773186"><ele>2490</ele><speed>11.53</speed><time>2016-06-30T12:07:22Z</time><pdop>3.0</pdop><geoidheight>54.00</geoidheight><course>333.2</course><type>1</type></trkpt>
      <trkpt lat="40.44271002" lon="-5.28776603"><ele>2490</ele><speed>11.73</speed><time>2016-06-30T12:07:23Z</time><pdop>4.0</pdop><geoidheight>54.00</geoidheight><course>338.9</course><type>1</type></trkpt>
      <trkpt lat="40.44281044" lon="-5.28780943"><ele>2490</ele><speed>11.68</speed><time>2016-06-30T12:07:24Z</time><pdop>4.0</pdop><geoidheight>54.00</geoidheight><course>340.4</course><type>1</type></trkpt>
      <trkpt lat="40.4429082" lon="-5.28784211"><ele>2490</ele><speed>11.47</speed><time>2016-06-30T12:07:25Z</time><pdop>4.0</pdop><geoidheight>54.00</geoidheight><course>345.5</course><type>1</type></trkpt>
      <trkpt lat="40.44301139" lon="-5.28788181"><ele>2489</ele><speed>11.77</speed><time>2016-06-30T12:07:26Z</time><pdop>4.0</pdop><geoidheight>54.00</geoidheight><course>343.3</course><type>1</type></trkpt>
      <trkpt lat="40.44312478" lon="-5.28789154"><ele>2487</ele><speed>11.91</speed><time>2016-06-30T12:07:27Z</time><pdop>4.0</pdop><geoidheight>54.00</geoidheight><course>346.8</course><type>1</type></trkpt>
      <trkpt lat="40.44323521" lon="-5.28794358"><ele>2487</ele><speed>12.63</speed><time>2016-06-30T12:07:28Z</time><pdop>4.0</pdop><geoidheight>54.00</geoidheight><course>349.0</course><type>1</type></trkpt>
      <trkpt lat="40.44333356" lon="-5.28796037"><ele>2486</ele><speed>12.38</speed><time>2016-06-30T12:07:29Z</time><pdop>4.0</pdop><geoidheight>54.00</geoidheight><course>350.5</course><type>1</type></trkpt>
      <trkpt lat="40.443443" lon="-5.2879952"><ele>2485</ele><speed>11.83</speed><time>2016-06-30T12:07:30Z</time><pdop>4.0</pdop><geoidheight>54.00</geoidheight><course>348.7</course><type>1</type></trkpt>
      <trkpt lat="40.44354629" lon="-5.2880441"><ele>2483</ele><speed>11.92</speed><time>2016-06-30T12:07:31Z</time><pdop>4.0</pdop><geoidheight>54.00</geoidheight><course>345.9</course><type>1</type></trkpt>
      <trkpt lat="40.44364826" lon="-5.28807898"><ele>2481</ele><speed>12.22</speed><time>2016-06-30T12:07:32Z</time><pdop>4.0</pdop><geoidheight>54.00</geoidheight><course>344.3</course><type>1</type></trkpt>
      <trkpt lat="40.44376907" lon="-5.28806593"><ele>2477</ele><speed>13.09</speed><time>2016-06-30T12:07:33Z</time><pdop>3.0</pdop><geoidheight>54.00</geoidheight><course>351.7</course><type>1</type></trkpt>
      <trkpt lat="40.44388533" lon="-5.28809347"><ele>2475</ele><speed>13.27</speed><time>2016-06-30T12:07:34Z</time><pdop>3.0</pdop><geoidheight>54.00</geoidheight><course>351.1</course><type>1</type></trkpt>
      <trkpt lat="40.44400727" lon="-5.28811872"><ele>2474</ele><speed>13.05</speed><time>2016-06-30T12:07:35Z</time><pdop>3.0</pdop><geoidheight>54.00</geoidheight><course>349.6</course><type>1</type></trkpt>
      <trkpt lat="40.44412732" lon="-5.28813303"><ele>2471</ele><speed>12.75</speed><time>2016-06-30T12:07:36Z</time><pdop>3.0</pdop><geoidheight>54.00</geoidheight><course>349.2</course><type>1</type></trkpt>
      <trkpt lat="40.4442401" lon="-5.28814421"><ele>2470</ele><speed>12.55</speed><time>2016-06-30T12:07:37Z</time><pdop>3.0</pdop><geoidheight>54.00</geoidheight><course>348.9</course><type>1</type></trkpt>
      <trkpt lat="40.44435503" lon="-5.2881627"><ele>2469</ele><speed>12.77</speed><time>2016-06-30T12:07:38Z</time><pdop>3.0</pdop><geoidheight>54.00</geoidheight><course>352.0</course><type>1</type></trkpt>
      <trkpt lat="40.44446824" lon="-5.28817938"><ele>2468</ele><speed>12.77</speed><time>2016-06-30T12:07:39Z</time><pdop>4.0</pdop><geoidheight>54.00</geoidheight><course>353.9</course><type>1</type></trkpt>
      <trkpt lat="40.44458216" lon="-5.28817931"><ele>2468</ele><speed>12.93</speed><time>2016-06-30T12:07:40Z</time><pdop>4.0</pdop><geoidheight>54.00</geoidheight><course>356.8</course><type>1</type></trkpt>
      <trkpt lat="40.44469184" lon="-5.28822084"><ele>2466</ele><speed>12.30</speed><time>2016-06-30T12:07:41Z</time><pdop>3.0</pdop><geoidheight>54.00</geoidheight><course>347.9</course><type>1</type></trkpt>
      <trkpt lat="40.44481071" lon="-5.28823711"><ele>2463</ele><speed>11.82</speed><time>2016-06-30T12:07:42Z</time><pdop>3.0</pdop><geoidheight>54.00</geoidheight><course>347.1</course><type>1</type></trkpt>
      <trkpt lat="40.44491494" lon="-5.28825981"><ele>2462</ele><speed>11.52</speed><time>2016-06-30T12:07:43Z</time><pdop>3.0</pdop><geoidheight>54.00</geoidheight><course>349.8</course><type>1</type></trkpt>
      <trkpt lat="40.44502362" lon="-5.28825929"><ele>2461</ele><speed>12.03</speed><time>2016-06-30T12:07:44Z</time><pdop>3.0</pdop><geoidheight>54.00</geoidheight><course>356.7</course><type>1</type></trkpt>
      <trkpt lat="40.44514166" lon="-5.28828297"><ele>2460</ele><speed>12.88</speed><time>2016-06-30T12:07:45Z</time><pdop>3.0</pdop><geoidheight>54.00</geoidheight><course>357.2</course><type>1</type></trkpt>
      <trkpt lat="40.44526155" lon="-5.2883022"><ele>2459</ele><speed>13.19</speed><time>2016-06-30T12:07:46Z</time><pdop>3.0</pdop><geoidheight>54.00</geoidheight><course>355.8</course><type>1</type></trkpt>
      <trkpt lat="40.44539588" lon="-5.28830549"><ele>2457</ele><speed>14.28</speed><time>2016-06-30T12:07:47Z</time><pdop>3.0</pdop><geoidheight>54.00</geoidheight><course>355.3</course><type>1</type></trkpt>
      <trkpt lat="40.44553492" lon="-5.28832277"><ele>2455</ele><speed>15.01</speed><time>2016-06-30T12:07:48Z</time><pdop>3.0</pdop><geoidheight>54.00</geoidheight><course>353.6</course><type>1</type></trkpt>
      <trkpt lat="40.4456696" lon="-5.28833962"><ele>2453</ele><speed>14.65</speed><time>2016-06-30T12:07:49Z</time><pdop>4.0</pdop><geoidheight>54.00</geoidheight><course>352.2</course><type>1</type></trkpt>
      <trkpt lat="40.44578931" lon="-5.28835594"><ele>2452</ele><speed>13.97</speed><time>2016-06-30T12:07:50Z</time><pdop>3.0</pdop><geoidheight>54.00</geoidheight><course>350.2</course><type>1</type></trkpt>
      <trkpt lat="40.44590382" lon="-5.28838022"><ele>2451</ele><speed>13.36</speed><time>2016-06-30T12:07:51Z</time><pdop>3.0</pdop><geoidheight>54.00</geoidheight><course>348.6</course><type>1</type></trkpt>
      <trkpt lat="40.44602229" lon="-5.28840143"><ele>2450</ele><speed>12.99</speed><time>2016-06-30T12:07:52Z</time><pdop>4.0</pdop><geoidheight>54.00</geoidheight><course>350.6</course><type>1</type></trkpt>
      <trkpt lat="40.44613747" lon="-5.28842525"><ele>2449</ele><speed>13.19</speed><time>2016-06-30T12:07:53Z</time><pdop>4.0</pdop><geoidheight>54.00</geoidheight><course>349.3</course><type>1</type></trkpt>
      <trkpt lat="40.44624861" lon="-5.28844953"><ele>2447</ele><speed>12.93</speed><time>2016-06-30T12:07:54Z</time><pdop>5.0</pdop><geoidheight>54.00</geoidheight><course>349.7</course><type>1</type></trkpt>
      <trkpt lat="40.44634922" lon="-5.28849613"><ele>2447</ele><speed>12.27</speed><time>2016-06-30T12:07:55Z</time><pdop>6.0</pdop><geoidheight>54.00</geoidheight><course>346.1</course><type>1</type></trkpt>
      <trkpt lat="40.44647087" lon="-5.28854582"><ele>2444</ele><speed>12.84</speed><time>2016-06-30T12:07:56Z</time><pdop>4.0</pdop><geoidheight>54.00</geoidheight><course>338.6</course><type>1</type></trkpt>
      <trkpt lat="40.4465806" lon="-5.28860647"><ele>2443</ele><speed>12.25</speed><time>2016-06-30T12:07:57Z</time><pdop>4.0</pdop><geoidheight>54.00</geoidheight><course>337.2</course><type>1</type></trkpt>
      <trkpt lat="40.44667945" lon="-5.2886685"><ele>2442</ele><speed>11.54</speed><time>2016-06-30T12:07:58Z</time><pdop>3.0</pdop><geoidheight>54.00</geoidheight><course>336.7</course><type>1</type></trkpt>
      <trkpt lat="40.44676229" lon="-5.2887281"><ele>2440</ele><speed>11.45</speed><time>2016-06-30T12:07:59Z</time><pdop>3.0</pdop><geoidheight>54.00</geoidheight><course>332.9</course><type>1</type></trkpt>
      <trkpt lat="40.44686461" lon="-5.28879081"><ele>2439</ele><speed>11.96</speed><time>2016-06-30T12:08:00Z</time><pdop>3.0</pdop><geoidheight>54.00</geoidheight><course>334.9</course><type>1</type></trkpt>
      <trkpt lat="40.44698871" lon="-5.288866"><ele>2434</ele><speed>13.91</speed><time>2016-06-30T12:08:01Z</time><pdop>3.0</pdop><geoidheight>54.00</geoidheight><course>334.9</course><type>1</type></trkpt>
      <trkpt lat="40.4471109" lon="-5.28893864"><ele>2431</ele><speed>15.34</speed><time>2016-06-30T12:08:02Z</time><pdop>3.0</pdop><geoidheight>54.00</geoidheight><course>335.8</course><type>1</type></trkpt>
      <trkpt lat="40.44724024" lon="-5.28900453"><ele>2429</ele><speed>15.59</speed><time>2016-06-30T12:08:03Z</time><pdop>3.0</pdop><geoidheight>54.00</geoidheight><course>336.8</course><type>1</type></trkpt>
      <trkpt lat="40.44737397" lon="-5.28906629"><ele>2429</ele><speed>15.86</speed><time>2016-06-30T12:08:04Z</time><pdop>3.0</pdop><geoidheight>54.00</geoidheight><course>339.0</course><type>1</type></trkpt>
      <trkpt lat="40.4475153" lon="-5.28912573"><ele>2427</ele><speed>15.83</speed><time>2016-06-30T12:08:05Z</time><pdop>3.0</pdop><geoidheight>54.00</geoidheight><course>340.9</course><type>1</type></trkpt>
      <trkpt lat="40.44764367" lon="-5.28915512"><ele>2426</ele><speed>14.73</speed><time>2016-06-30T12:08:06Z</time><pdop>3.0</pdop><geoidheight>54.00</geoidheight><course>345.9</course><type>1</type></trkpt>
      <trkpt lat="40.44776761" lon="-5.28919693"><ele>2425</ele><speed>13.94</speed><time>2016-06-30T12:08:07Z</time><pdop>3.0</pdop><geoidheight>54.00</geoidheight><course>347.5</course><type>1</type></trkpt>
      <trkpt lat="40.44788165" lon="-5.28923434"><ele>2423</ele><speed>13.23</speed><time>2016-06-30T12:08:08Z</time><pdop>3.0</pdop><geoidheight>54.00</geoidheight><course>347.9</course><type>1</type></trkpt>
      <trkpt lat="40.44799276" lon="-5.28926815"><ele>2421</ele><speed>12.70</speed><time>2016-06-30T12:08:09Z</time><pdop>3.0</pdop><geoidheight>54.00</geoidheight><course>346.4</course><type>1</type></trkpt>
      <trkpt lat="40.44810238" lon="-5.28930116"><ele>2420</ele><speed>12.27</speed><time>2016-06-30T12:08:10Z</time><pdop>3.0</pdop><geoidheight>54.00</geoidheight><course>345.2</course><type>1</type></trkpt>
      <trkpt lat="40.44819941" lon="-5.28933812"><ele>2420</ele><speed>11.80</speed><time>2016-06-30T12:08:11Z</time><pdop>4.0</pdop><geoidheight>54.00</geoidheight><course>343.7</course><type>1</type></trkpt>
      <trkpt lat="40.44828846" lon="-5.28937755"><ele>2418</ele><speed>10.92</speed><time>2016-06-30T12:08:12Z</time><pdop>3.0</pdop><geoidheight>54.00</geoidheight><course>339.8</course><type>1</type></trkpt>
      <trkpt lat="40.44838247" lon="-5.28941969"><ele>2416</ele><speed>10.77</speed><time>2016-06-30T12:08:13Z</time><pdop>3.0</pdop><geoidheight>54.00</geoidheight><course>338.7</course><type>1</type></trkpt>
      <trkpt lat="40.44847395" lon="-5.2894899"><ele>2414</ele><speed>11.35</speed><time>2016-06-30T12:08:14Z</time><pdop>3.0</pdop><geoidheight>54.00</geoidheight><course>334.6</course><type>1</type></trkpt>
      <trkpt lat="40.4485677" lon="-5.28955118"><ele>2412</ele><speed>12.08</speed><time>2016-06-30T12:08:15Z</time><pdop>3.0</pdop><geoidheight>54.00</geoidheight><course>332.5</course><type>1</type></trkpt>
      <trkpt lat="40.44866826" lon="-5.28961464"><ele>2410</ele><speed>12.10</speed><time>2016-06-30T12:08:16Z</time><pdop>3.0</pdop><geoidheight>54.00</geoidheight><course>334.0</course><type>1</type></trkpt>
      <trkpt lat="40.448762" lon="-5.28966717"><ele>2408</ele><speed>11.53</speed><time>2016-06-30T12:08:17Z</time><pdop>3.0</pdop><geoidheight>54.00</geoidheight><course>335.6</course><type>1</type></trkpt>
      <trkpt lat="40.44885042" lon="-5.28970908"><ele>2406</ele><speed>10.68</speed><time>2016-06-30T12:08:18Z</time><pdop>3.0</pdop><geoidheight>54.00</geoidheight><course>337.0</course><type>1</type></trkpt>
      <trkpt lat="40.44893113" lon="-5.28975873"><ele>2405</ele><speed>10.48</speed><time>2016-06-30T12:08:19Z</time><pdop>4.0</pdop><geoidheight>54.00</geoidheight><course>334.1</course><type>1</type></trkpt>
      <trkpt lat="40.44902767" lon="-5.28982234"><ele>2401</ele><speed>11.54</speed><time>2016-06-30T12:08:20Z</time><pdop>3.0</pdop><geoidheight>54.00</geoidheight><course>332.0</course><type>1</type></trkpt>
      <trkpt lat="40.44913634" lon="-5.28988075"><ele>2397</ele><speed>13.49</speed><time>2016-06-30T12:08:21Z</time><pdop>3.0</pdop><geoidheight>54.00</geoidheight><course>334.3</course><type>1</type></trkpt>
      <trkpt lat="40.44924687" lon="-5.28994315"><ele>2394</ele><speed>14.16</speed><time>2016-06-30T12:08:22Z</time><pdop>3.0</pdop><geoidheight>54.00</geoidheight><course>335.7</course><type>1</type></trkpt>
      <trkpt lat="40.44936324" lon="-5.29000957"><ele>2392</ele><speed>13.86</speed><time>2016-06-30T12:08:23Z</time><pdop>3.0</pdop><geoidheight>54.00</geoidheight><course>338.9</course><type>1</type></trkpt>
      <trkpt lat="40.44947737" lon="-5.29004969"><ele>2391</ele><speed>12.89</speed><time>2016-06-30T12:08:24Z</time><pdop>3.0</pdop><geoidheight>54.00</geoidheight><course>341.2</course><type>1</type></trkpt>
      <trkpt lat="40.44957904" lon="-5.29010374"><ele>2391</ele><speed>12.27</speed><time>2016-06-30T12:08:25Z</time><pdop>3.0</pdop><geoidheight>54.00</geoidheight><course>340.6</course><type>1</type></trkpt>
      <trkpt lat="40.44967649" lon="-5.29014168"><ele>2388</ele><speed>11.44</speed><time>2016-06-30T12:08:26Z</time><pdop>3.0</pdop><geoidheight>54.00</geoidheight><course>342.0</course><type>1</type></trkpt>
      <trkpt lat="40.44977654" lon="-5.29017146"><ele>2387</ele><speed>11.10</speed><time>2016-06-30T12:08:27Z</time><pdop>3.0</pdop><geoidheight>54.00</geoidheight><course>346.6</course><type>1</type></trkpt>
      <trkpt lat="40.4498856" lon="-5.2902338"><ele>2385</ele><speed>11.77</speed><time>2016-06-30T12:08:28Z</time><pdop>3.0</pdop><geoidheight>54.00</geoidheight><course>342.2</course><type>1</type></trkpt>
      <trkpt lat="40.44999352" lon="-5.29026339"><ele>2382</ele><speed>12.10</speed><time>2016-06-30T12:08:29Z</time><pdop>3.0</pdop><geoidheight>54.00</geoidheight><course>344.3</course><type>1</type></trkpt>
      <trkpt lat="40.45009938" lon="-5.29031988"><ele>2380</ele><speed>12.70</speed><time>2016-06-30T12:08:30Z</time><pdop>3.0</pdop><geoidheight>54.00</geoidheight><course>340.4</course><type>1</type></trkpt>
      <trkpt lat="40.45020885" lon="-5.29037183"><ele>2378</ele><speed>13.18</speed><time>2016-06-30T12:08:31Z</time><pdop>3.0</pdop><geoidheight>54.00</geoidheight><course>339.3</course><type>1</type></trkpt>
      <trkpt lat="40.45031663" lon="-5.29041595"><ele>2376</ele><speed>13.26</speed><time>2016-06-30T12:08:32Z</time><pdop>3.0</pdop><geoidheight>54.00</geoidheight><course>340.5</course><type>1</type></trkpt>
      <trkpt lat="40.45042456" lon="-5.29046589"><ele>2374</ele><speed>12.88</speed><time>2016-06-30T12:08:33Z</time><pdop>3.0</pdop><geoidheight>54.00</geoidheight><course>340.0</course><type>1</type></trkpt>
      <trkpt lat="40.450532" lon="-5.29050734"><ele>2372</ele><speed>12.55</speed><time>2016-06-30T12:08:34Z</time><pdop>3.0</pdop><geoidheight>54.00</geoidheight><course>339.7</course><type>1</type></trkpt>
      <trkpt lat="40.45063518" lon="-5.29056192"><ele>2372</ele><speed>12.49</speed><time>2016-06-30T12:08:35Z</time><pdop>3.0</pdop><geoidheight>54.00</geoidheight><course>339.0</course><type>1</type></trkpt>
      <trkpt lat="40.45075219" lon="-5.29057483"><ele>2369</ele><speed>12.39</speed><time>2016-06-30T12:08:36Z</time><pdop>3.0</pdop><geoidheight>54.00</geoidheight><course>344.1</course><type>1</type></trkpt>
      <trkpt lat="40.45085735" lon="-5.29061428"><ele>2368</ele><speed>12.17</speed><time>2016-06-30T12:08:37Z</time><pdop>3.0</pdop><geoidheight>54.00</geoidheight><course>343.6</course><type>1</type></trkpt>
      <trkpt lat="40.45096649" lon="-5.29065811"><ele>2364</ele><speed>12.47</speed><time>2016-06-30T12:08:38Z</time><pdop>3.0</pdop><geoidheight>54.00</geoidheight><course>344.9</course><type>1</type></trkpt>
      <trkpt lat="40.45108226" lon="-5.29069112"><ele>2360</ele><speed>12.56</speed><time>2016-06-30T12:08:39Z</time><pdop>3.0</pdop><geoidheight>54.00</geoidheight><course>343.7</course><type>1</type></trkpt>
      <trkpt lat="40.45119048" lon="-5.29072845"><ele>2357</ele><speed>12.83</speed><time>2016-06-30T12:08:40Z</time><pdop>3.0</pdop><geoidheight>54.00</geoidheight><course>343.0</course><type>1</type></trkpt>
      <trkpt lat="40.45130639" lon="-5.29076792"><ele>2354</ele><speed>12.92</speed><time>2016-06-30T12:08:41Z</time><pdop>3.0</pdop><geoidheight>54.00</geoidheight><course>343.9</course><type>1</type></trkpt>
      <trkpt lat="40.45141588" lon="-5.29081524"><ele>2353</ele><speed>12.83</speed><time>2016-06-30T12:08:42Z</time><pdop>3.0</pdop><geoidheight>54.00</geoidheight><course>342.4</course><type>1</type></trkpt>
      <trkpt lat="40.45152419" lon="-5.29085934"><ele>2351</ele><speed>12.67</speed><time>2016-06-30T12:08:43Z</time><pdop>3.0</pdop><geoidheight>54.00</geoidheight><course>342.9</course><type>1</type></trkpt>
      <trkpt lat="40.45163351" lon="-5.29090941"><ele>2349</ele><speed>12.41</speed><time>2016-06-30T12:08:44Z</time><pdop>3.0</pdop><geoidheight>54.00</geoidheight><course>341.3</course><type>1</type></trkpt>
      <trkpt lat="40.45173276" lon="-5.29096927"><ele>2348</ele><speed>12.19</speed><time>2016-06-30T12:08:45Z</time><pdop>3.0</pdop><geoidheight>54.00</geoidheight><course>338.8</course><type>1</type></trkpt>
      <trkpt lat="40.45184197" lon="-5.29101565"><ele>2343</ele><speed>12.36</speed><time>2016-06-30T12:08:46Z</time><pdop>3.0</pdop><geoidheight>54.00</geoidheight><course>339.1</course><type>1</type></trkpt>
      <trkpt lat="40.45194641" lon="-5.29107005"><ele>2342</ele><speed>12.28</speed><time>2016-06-30T12:08:47Z</time><pdop>3.0</pdop><geoidheight>54.00</geoidheight><course>338.2</course><type>1</type></trkpt>
      <trkpt lat="40.4520487" lon="-5.29112874"><ele>2341</ele><speed>12.15</speed><time>2016-06-30T12:08:48Z</time><pdop>3.0</pdop><geoidheight>54.00</geoidheight><course>338.0</course><type>1</type></trkpt>
      <trkpt lat="40.45214647" lon="-5.2911817"><ele>2340</ele><speed>11.88</speed><time>2016-06-30T12:08:49Z</time><pdop>3.0</pdop><geoidheight>54.00</geoidheight><course>336.0</course><type>1</type></trkpt>
      <trkpt lat="40.4522387" lon="-5.29123443"><ele>2338</ele><speed>11.79</speed><time>2016-06-30T12:08:50Z</time><pdop>3.0</pdop><geoidheight>54.00</geoidheight><course>336.4</course><type>1</type></trkpt>
      <trkpt lat="40.45233385" lon="-5.29129261"><ele>2336</ele><speed>11.81</speed><time>2016-06-30T12:08:51Z</time><pdop>3.0</pdop><geoidheight>54.00</geoidheight><course>336.7</course><type>1</type></trkpt>
      <trkpt lat="40.45243491" lon="-5.29135032"><ele>2334</ele><speed>12.02</speed><time>2016-06-30T12:08:52Z</time><pdop>3.0</pdop><geoidheight>54.00</geoidheight><course>336.7</course><type>1</type></trkpt>
      <trkpt lat="40.45254035" lon="-5.29140809"><ele>2331</ele><speed>12.15</speed><time>2016-06-30T12:08:53Z</time><pdop>3.0</pdop><geoidheight>54.00</geoidheight><course>333.9</course><type>1</type></trkpt>
      <trkpt lat="40.45263265" lon="-5.29148388"><ele>2329</ele><speed>12.19</speed><time>2016-06-30T12:08:54Z</time><pdop>3.0</pdop><geoidheight>54.00</geoidheight><course>330.7</course><type>1</type></trkpt>
      <trkpt lat="40.45272913" lon="-5.29154919"><ele>2327</ele><speed>12.32</speed><time>2016-06-30T12:08:55Z</time><pdop>3.0</pdop><geoidheight>54.00</geoidheight><course>331.9</course><type>1</type></trkpt>
      <trkpt lat="40.45282967" lon="-5.29161248"><ele>2326</ele><speed>12.27</speed><time>2016-06-30T12:08:56Z</time><pdop>3.0</pdop><geoidheight>54.00</geoidheight><course>334.7</course><type>1</type></trkpt>
      <trkpt lat="40.4529285" lon="-5.29166937"><ele>2323</ele><speed>12.15</speed><time>2016-06-30T12:08:57Z</time><pdop>3.0</pdop><geoidheight>54.00</geoidheight><course>336.3</course><type>1</type></trkpt>
      <trkpt lat="40.45302861" lon="-5.29172838"><ele>2322</ele><speed>12.01</speed><time>2016-06-30T12:08:58Z</time><pdop>3.0</pdop><geoidheight>54.00</geoidheight><course>336.1</course><type>1</type></trkpt>
      <trkpt lat="40.45311958" lon="-5.29178019"><ele>2322</ele><speed>11.28</speed><time>2016-06-30T12:08:59Z</time><pdop>3.0</pdop><geoidheight>54.00</geoidheight><course>337.6</course><type>1</type></trkpt>
      <trkpt lat="40.45328648" lon="-5.29186711"><ele>2321</ele><speed>9.09</speed><time>2016-06-30T12:09:01Z</time><pdop>9.0</pdop><geoidheight>54.00</geoidheight><course>338.5</course><type>1</type></trkpt>
      <trkpt lat="40.45348508" lon="-5.29198426"><ele>2318</ele><speed>8.24</speed><time>2016-06-30T12:09:04Z</time><pdop>9.0</pdop><geoidheight>54.00</geoidheight><course>337.6</course><type>1</type></trkpt>
      <trkpt lat="40.45366527" lon="-5.29208594"><ele>2312</ele><speed>10.66</speed><time>2016-06-30T12:09:06Z</time><pdop>9.0</pdop><geoidheight>54.00</geoidheight><course>337.3</course><type>1</type></trkpt>
      <trkpt lat="40.45385199" lon="-5.29218463"><ele>2307</ele><speed>11.68</speed><time>2016-06-30T12:09:08Z</time><pdop>9.0</pdop><geoidheight>54.00</geoidheight><course>336.4</course><type>1</type></trkpt>
      <trkpt lat="40.45401973" lon="-5.29228042"><ele>2306</ele><speed>9.07</speed><time>2016-06-30T12:09:10Z</time><pdop>9.0</pdop><geoidheight>54.00</geoidheight><course>333.0</course><type>1</type></trkpt>
      <trkpt lat="40.4541687" lon="-5.29237822"><ele>2300</ele><speed>6.63</speed><time>2016-06-30T12:09:13Z</time><pdop>9.0</pdop><geoidheight>54.00</geoidheight><course>325.5</course><type>1</type></trkpt>
      <trkpt lat="40.45436441" lon="-5.29251957"><ele>2294</ele><speed>8.92</speed><time>2016-06-30T12:09:16Z</time><pdop>9.0</pdop><geoidheight>54.00</geoidheight><course>333.1</course><type>1</type></trkpt>
      <trkpt lat="40.4546161" lon="-5.29258516"><ele>2293</ele><speed>12.73</speed><time>2016-06-30T12:09:18Z</time><pdop>9.0</pdop><geoidheight>54.00</geoidheight><course>348.1</course><type>1</type></trkpt>
      <trkpt lat="40.4548024" lon="-5.29262986"><ele>2293</ele><speed>8.20</speed><time>2016-06-30T12:09:20Z</time><pdop>9.0</pdop><geoidheight>54.00</geoidheight><course>356.6</course><type>1</type></trkpt>
      <trkpt lat="40.45495568" lon="-5.2926306"><ele>2290</ele><speed>8.43</speed><time>2016-06-30T12:09:22Z</time><pdop>3.0</pdop><geoidheight>54.00</geoidheight><course>359.1</course><type>1</type></trkpt>
      <trkpt lat="40.45503287" lon="-5.29264137"><ele>2290</ele><speed>8.09</speed><time>2016-06-30T12:09:23Z</time><pdop>3.0</pdop><geoidheight>54.00</geoidheight><course>355.5</course><type>1</type></trkpt>
      <trkpt lat="40.45510576" lon="-5.29265919"><ele>2288</ele><speed>7.80</speed><time>2016-06-30T12:09:24Z</time><pdop>3.0</pdop><geoidheight>54.00</geoidheight><course>353.4</course><type>1</type></trkpt>
      <trkpt lat="40.45518294" lon="-5.29268274"><ele>2286</ele><speed>8.15</speed><time>2016-06-30T12:09:25Z</time><pdop>3.0</pdop><geoidheight>54.00</geoidheight><course>350.6</course><type>1</type></trkpt>
      <trkpt lat="40.45524674" lon="-5.29272109"><ele>2286</ele><speed>8.11</speed><time>2016-06-30T12:09:26Z</time><pdop>3.0</pdop><geoidheight>54.00</geoidheight><course>341.5</course><type>1</type></trkpt>
      <trkpt lat="40.45532682" lon="-5.29274669"><ele>2286</ele><speed>8.49</speed><time>2016-06-30T12:09:27Z</time><pdop>4.0</pdop><geoidheight>54.00</geoidheight><course>343.4</course><type>1</type></trkpt>
      <trkpt lat="40.45542513" lon="-5.29283594"><ele>2284</ele><speed>10.21</speed><time>2016-06-30T12:09:28Z</time><pdop>5.0</pdop><geoidheight>54.00</geoidheight><course>335.8</course><type>1</type></trkpt>
      <trkpt lat="40.45564122" lon="-5.29288125"><ele>2280</ele><speed>11.37</speed><time>2016-06-30T12:09:30Z</time><pdop>4.0</pdop><geoidheight>54.00</geoidheight><course>344.8</course><type>1</type></trkpt>
      <trkpt lat="40.45573945" lon="-5.2929102"><ele>2278</ele><speed>11.10</speed><time>2016-06-30T12:09:31Z</time><pdop>4.0</pdop><geoidheight>54.00</geoidheight><course>343.4</course><type>1</type></trkpt>
      <trkpt lat="40.45584436" lon="-5.29293394"><ele>2273</ele><speed>11.15</speed><time>2016-06-30T12:09:32Z</time><pdop>3.0</pdop><geoidheight>54.00</geoidheight><course>345.7</course><type>1</type></trkpt>
      <trkpt lat="40.45593923" lon="-5.2929723"><ele>2270</ele><speed>11.30</speed><time>2016-06-30T12:09:33Z</time><pdop>3.0</pdop><geoidheight>54.00</geoidheight><course>346.2</course><type>1</type></trkpt>
      <trkpt lat="40.45603571" lon="-5.29300475"><ele>2267</ele><speed>11.24</speed><time>2016-06-30T12:09:34Z</time><pdop>3.0</pdop><geoidheight>54.00</geoidheight><course>344.3</course><type>1</type></trkpt>
      <trkpt lat="40.45614294" lon="-5.29304175"><ele>2263</ele><speed>11.55</speed><time>2016-06-30T12:09:35Z</time><pdop>3.0</pdop><geoidheight>54.00</geoidheight><course>345.4</course><type>1</type></trkpt>
      <trkpt lat="40.45625788" lon="-5.29308683"><ele>2259</ele><speed>12.14</speed><time>2016-06-30T12:09:36Z</time><pdop>3.0</pdop><geoidheight>54.00</geoidheight><course>344.5</course><type>1</type></trkpt>
      <trkpt lat="40.45636671" lon="-5.29313672"><ele>2256</ele><speed>12.54</speed><time>2016-06-30T12:09:37Z</time><pdop>3.0</pdop><geoidheight>54.00</geoidheight><course>343.9</course><type>1</type></trkpt>
      <trkpt lat="40.45647745" lon="-5.29318574"><ele>2254</ele><speed>13.29</speed><time>2016-06-30T12:09:38Z</time><pdop>3.0</pdop><geoidheight>54.00</geoidheight><course>341.9</course><type>1</type></trkpt>
      <trkpt lat="40.45659699" lon="-5.29323363"><ele>2252</ele><speed>13.82</speed><time>2016-06-30T12:09:39Z</time><pdop>3.0</pdop><geoidheight>54.00</geoidheight><course>342.4</course><type>1</type></trkpt>
      <trkpt lat="40.45672236" lon="-5.2932704"><ele>2251</ele><speed>13.59</speed><time>2016-06-30T12:09:40Z</time><pdop>3.0</pdop><geoidheight>54.00</geoidheight><course>345.8</course><type>1</type></trkpt>
      <trkpt lat="40.45683287" lon="-5.29328107"><ele>2252</ele><speed>12.79</speed><time>2016-06-30T12:09:41Z</time><pdop>3.0</pdop><geoidheight>54.00</geoidheight><course>350.9</course><type>1</type></trkpt>
      <trkpt lat="40.45693734" lon="-5.29329666"><ele>2253</ele><speed>11.94</speed><time>2016-06-30T12:09:42Z</time><pdop>3.0</pdop><geoidheight>54.00</geoidheight><course>353.2</course><type>1</type></trkpt>
      <trkpt lat="40.45704283" lon="-5.29331779"><ele>2253</ele><speed>11.65</speed><time>2016-06-30T12:09:43Z</time><pdop>4.0</pdop><geoidheight>54.00</geoidheight><course>352.6</course><type>1</type></trkpt>
      <trkpt lat="40.45712092" lon="-5.29330825"><ele>2259</ele><speed>9.97</speed><time>2016-06-30T12:09:44Z</time><pdop>3.0</pdop><geoidheight>54.00</geoidheight><course>359.0</course><type>1</type></trkpt>
      <trkpt lat="40.45720928" lon="-5.29329924"><ele>2259</ele><speed>9.52</speed><time>2016-06-30T12:09:45Z</time><pdop>3.0</pdop><geoidheight>54.00</geoidheight><course>3.5</course><type>1</type></trkpt>
      <trkpt lat="40.45728552" lon="-5.29327971"><ele>2261</ele><speed>8.82</speed><time>2016-06-30T12:09:46Z</time><pdop>3.0</pdop><geoidheight>54.00</geoidheight><course>6.4</course><type>1</type></trkpt>
      <trkpt lat="40.45736081" lon="-5.29326937"><ele>2262</ele><speed>8.10</speed><time>2016-06-30T12:09:47Z</time><pdop>3.0</pdop><geoidheight>54.00</geoidheight><course>7.9</course><type>1</type></trkpt>
      <trkpt lat="40.45742929" lon="-5.29326226"><ele>2263</ele><speed>7.34</speed><time>2016-06-30T12:09:48Z</time><pdop>3.0</pdop><geoidheight>54.00</geoidheight><course>4.1</course><type>1</type></trkpt>
      <trkpt lat="40.45749897" lon="-5.29325472"><ele>2262</ele><speed>7.39</speed><time>2016-06-30T12:09:49Z</time><pdop>3.0</pdop><geoidheight>54.00</geoidheight><course>3.9</course><type>1</type></trkpt>
      <trkpt lat="40.45756373" lon="-5.29327289"><ele>2263</ele><speed>7.41</speed><time>2016-06-30T12:09:50Z</time><pdop>3.0</pdop><geoidheight>54.00</geoidheight><course>355.5</course><type>1</type></trkpt>
      <trkpt lat="40.45763502" lon="-5.29330444"><ele>2263</ele><speed>7.49</speed><time>2016-06-30T12:09:51Z</time><pdop>3.0</pdop><geoidheight>54.00</geoidheight><course>344.7</course><type>1</type></trkpt>
      <trkpt lat="40.45768573" lon="-5.29335565"><ele>2263</ele><speed>7.22</speed><time>2016-06-30T12:09:52Z</time><pdop>3.0</pdop><geoidheight>54.00</geoidheight><course>330.5</course><type>1</type></trkpt>
      <trkpt lat="40.4577386" lon="-5.29340378"><ele>2264</ele><speed>6.82</speed><time>2016-06-30T12:09:53Z</time><pdop>4.0</pdop><geoidheight>54.00</geoidheight><course>325.3</course><type>1</type></trkpt>
      <trkpt lat="40.45770636" lon="-5.2936183"><ele>2264</ele><speed>8.08</speed><time>2016-06-30T12:09:55Z</time><pdop>4.0</pdop><geoidheight>54.00</geoidheight><course>259.9</course><type>1</type></trkpt>
      <trkpt lat="40.45763593" lon="-5.29374032"><ele>2263</ele><speed>9.67</speed><time>2016-06-30T12:09:56Z</time><pdop>3.0</pdop><geoidheight>54.00</geoidheight><course>236.7</course><type>1</type></trkpt>
      <trkpt lat="40.45758727" lon="-5.29385387"><ele>2264</ele><speed>9.44</speed><time>2016-06-30T12:09:57Z</time><pdop>3.0</pdop><geoidheight>54.00</geoidheight><course>240.3</course><type>1</type></trkpt>
      <trkpt lat="40.45756628" lon="-5.29394977"><ele>2263</ele><speed>8.42</speed><time>2016-06-30T12:09:58Z</time><pdop>3.0</pdop><geoidheight>54.00</geoidheight><course>255.5</course><type>1</type></trkpt>
      <trkpt lat="40.45756679" lon="-5.29404077"><ele>2263</ele><speed>8.14</speed><time>2016-06-30T12:09:59Z</time><pdop>4.0</pdop><geoidheight>54.00</geoidheight><course>266.8</course><type>1</type></trkpt>
      <trkpt lat="40.45760284" lon="-5.29412335"><ele>2262</ele><speed>7.96</speed><time>2016-06-30T12:10:00Z</time><pdop>4.0</pdop><geoidheight>54.00</geoidheight><course>286.9</course><type>1</type></trkpt>
      <trkpt lat="40.45764149" lon="-5.2942209"><ele>2263</ele><speed>8.53</speed><time>2016-06-30T12:10:01Z</time><pdop>5.0</pdop><geoidheight>54.00</geoidheight><course>295.8</course><type>1</type></trkpt>
      <trkpt lat="40.457774" lon="-5.29425224"><ele>2261</ele><speed>6.40</speed><time>2016-06-30T12:10:03Z</time><pdop>6.0</pdop><geoidheight>54.00</geoidheight><course>339.1</course><type>1</type></trkpt>
      <trkpt lat="40.45790054" lon="-5.29412164"><ele>2262</ele><speed>9.17</speed><time>2016-06-30T12:10:04Z</time><pdop>5.0</pdop><geoidheight>54.00</geoidheight><course>18.9</course><type>1</type></trkpt>
      <trkpt lat="40.45800146" lon="-5.29397004"><ele>2263</ele><speed>8.30</speed><time>2016-06-30T12:10:06Z</time><pdop>5.0</pdop><geoidheight>54.00</geoidheight><course>48.4</course><type>1</type></trkpt>
      <trkpt lat="40.45801147" lon="-5.29384821"><ele>2262</ele><speed>8.93</speed><time>2016-06-30T12:10:07Z</time><pdop>5.0</pdop><geoidheight>54.00</geoidheight><course>65.2</course><type>1</type></trkpt>
      <trkpt lat="40.45804522" lon="-5.2935743"><ele>2260</ele><speed>11.28</speed><time>2016-06-30T12:10:09Z</time><pdop>6.0</pdop><geoidheight>54.00</geoidheight><course>80.7</course><type>1</type></trkpt>
      <trkpt lat="40.45804576" lon="-5.29331801"><ele>2260</ele><speed>11.46</speed><time>2016-06-30T12:10:11Z</time><pdop>5.0</pdop><geoidheight>54.00</geoidheight><course>87.3</course><type>1</type></trkpt>
      <trkpt lat="40.45801604" lon="-5.29317401"><ele>2262</ele><speed>11.59</speed><time>2016-06-30T12:10:12Z</time><pdop>4.0</pdop><geoidheight>54.00</geoidheight><course>91.0</course><type>1</type></trkpt>
      <trkpt lat="40.45797997" lon="-5.29304516"><ele>2262</ele><speed>11.93</speed><time>2016-06-30T12:10:13Z</time><pdop>3.0</pdop><geoidheight>54.00</geoidheight><course>109.8</course><type>1</type></trkpt>
      <trkpt lat="40.45792302" lon="-5.29291458"><ele>2262</ele><speed>11.99</speed><time>2016-06-30T12:10:14Z</time><pdop>3.0</pdop><geoidheight>54.00</geoidheight><course>121.8</course><type>1</type></trkpt>
      <trkpt lat="40.45785563" lon="-5.29279071"><ele>2263</ele><speed>12.41</speed><time>2016-06-30T12:10:15Z</time><pdop>3.0</pdop><geoidheight>54.00</geoidheight><course>127.8</course><type>1</type></trkpt>
      <trkpt lat="40.45777492" lon="-5.29271031"><ele>2263</ele><speed>12.19</speed><time>2016-06-30T12:10:16Z</time><pdop>3.0</pdop><geoidheight>54.00</geoidheight><course>137.0</course><type>1</type></trkpt>
      <trkpt lat="40.45768345" lon="-5.29262045"><ele>2265</ele><speed>12.77</speed><time>2016-06-30T12:10:17Z</time><pdop>4.0</pdop><geoidheight>54.00</geoidheight><course>144.1</course><type>1</type></trkpt>
      <trkpt lat="40.45755455" lon="-5.29255133"><ele>2264</ele><speed>13.62</speed><time>2016-06-30T12:10:18Z</time><pdop>5.0</pdop><geoidheight>54.00</geoidheight><course>150.9</course><type>1</type></trkpt>
      <trkpt lat="40.45745977" lon="-5.29257628"><ele>2265</ele><speed>11.58</speed><time>2016-06-30T12:10:19Z</time><pdop>4.0</pdop><geoidheight>54.00</geoidheight><course>166.9</course><type>1</type></trkpt>
      <trkpt lat="40.45736465" lon="-5.29255473"><ele>2266</ele><speed>11.01</speed><time>2016-06-30T12:10:20Z</time><pdop>3.0</pdop><geoidheight>54.00</geoidheight><course>169.2</course><type>1</type></trkpt>
      <trkpt lat="40.45726944" lon="-5.29253881"><ele>2269</ele><speed>11.03</speed><time>2016-06-30T12:10:21Z</time><pdop>3.0</pdop><geoidheight>54.00</geoidheight><course>172.5</course><type>1</type></trkpt>
      <trkpt lat="40.45717329" lon="-5.29254199"><ele>2269</ele><speed>11.22</speed><time>2016-06-30T12:10:22Z</time><pdop>3.0</pdop><geoidheight>54.00</geoidheight><course>178.4</course><type>1</type></trkpt>
      <trkpt lat="40.45706734" lon="-5.29256891"><ele>2270</ele><speed>11.78</speed><time>2016-06-30T12:10:23Z</time><pdop>3.0</pdop><geoidheight>54.00</geoidheight><course>190.5</course><type>1</type></trkpt>
      <trkpt lat="40.45698253" lon="-5.29264561"><ele>2270</ele><speed>11.67</speed><time>2016-06-30T12:10:24Z</time><pdop>3.0</pdop><geoidheight>54.00</geoidheight><course>207.5</course><type>1</type></trkpt>
      <trkpt lat="40.45691874" lon="-5.29274722"><ele>2272</ele><speed>11.24</speed><time>2016-06-30T12:10:25Z</time><pdop>3.0</pdop><geoidheight>54.00</geoidheight><course>226.4</course><type>1</type></trkpt>
      <trkpt lat="40.45688526" lon="-5.29285143"><ele>2273</ele><speed>9.92</speed><time>2016-06-30T12:10:26Z</time><pdop>3.0</pdop><geoidheight>54.00</geoidheight><course>246.3</course><type>1</type></trkpt>
      <trkpt lat="40.45686385" lon="-5.29296382"><ele>2274</ele><speed>9.92</speed><time>2016-06-30T12:10:27Z</time><pdop>3.0</pdop><geoidheight>54.00</geoidheight><course>254.8</course><type>1</type></trkpt>
      <trkpt lat="40.45687234" lon="-5.29306148"><ele>2275</ele><speed>9.11</speed><time>2016-06-30T12:10:28Z</time><pdop>3.0</pdop><geoidheight>54.00</geoidheight><course>269.2</course><type>1</type></trkpt>
      <trkpt lat="40.45692738" lon="-5.29312032"><ele>2276</ele><speed>7.92</speed><time>2016-06-30T12:10:29Z</time><pdop>4.0</pdop><geoidheight>54.00</geoidheight><course>291.4</course><type>1</type></trkpt>
      <trkpt lat="40.45703769" lon="-5.29316"><ele>2275</ele><speed>5.45</speed><time>2016-06-30T12:10:31Z</time><pdop>5.0</pdop><geoidheight>54.00</geoidheight><course>331.8</course><type>1</type></trkpt>
      <trkpt lat="40.45719518" lon="-5.29310057"><ele>2274</ele><speed>7.73</speed><time>2016-06-30T12:10:33Z</time><pdop>6.0</pdop><geoidheight>54.00</geoidheight><course>14.2</course><type>1</type></trkpt>
      <trkpt lat="40.45727714" lon="-5.29289856"><ele>2276</ele><speed>7.97</speed><time>2016-06-30T12:10:35Z</time><pdop>6.0</pdop><geoidheight>54.00</geoidheight><course>52.3</course><type>1</type></trkpt>
      <trkpt lat="40.45730689" lon="-5.29263747"><ele>2279</ele><speed>10.59</speed><time>2016-06-30T12:10:37Z</time><pdop>7.0</pdop><geoidheight>54.00</geoidheight><course>74.4</course><type>1</type></trkpt>
      <trkpt lat="40.45728489" lon="-5.29234946"><ele>2280</ele><speed>11.00</speed><time>2016-06-30T12:10:39Z</time><pdop>5.0</pdop><geoidheight>54.00</geoidheight><course>91.7</course><type>1</type></trkpt>
      <trkpt lat="40.4572231" lon="-5.29223124"><ele>2282</ele><speed>11.90</speed><time>2016-06-30T12:10:40Z</time><pdop>5.0</pdop><geoidheight>54.00</geoidheight><course>113.6</course><type>1</type></trkpt>
      <trkpt lat="40.45715887" lon="-5.29210318"><ele>2284</ele><speed>12.79</speed><time>2016-06-30T12:10:41Z</time><pdop>4.0</pdop><geoidheight>54.00</geoidheight><course>124.2</course><type>1</type></trkpt>
      <trkpt lat="40.45707287" lon="-5.29200627"><ele>2285</ele><speed>12.65</speed><time>2016-06-30T12:10:42Z</time><pdop>4.0</pdop><geoidheight>54.00</geoidheight><course>136.2</course><type>1</type></trkpt>
      <trkpt lat="40.45699064" lon="-5.29191882"><ele>2290</ele><speed>11.77</speed><time>2016-06-30T12:10:43Z</time><pdop>4.0</pdop><geoidheight>54.00</geoidheight><course>149.6</course><type>1</type></trkpt>
      <trkpt lat="40.45689706" lon="-5.29187564"><ele>2292</ele><speed>10.78</speed><time>2016-06-30T12:10:44Z</time><pdop>3.0</pdop><geoidheight>54.00</geoidheight><course>161.4</course><type>1</type></trkpt>
      <trkpt lat="40.45680401" lon="-5.29186583"><ele>2292</ele><speed>10.36</speed><time>2016-06-30T12:10:45Z</time><pdop>3.0</pdop><geoidheight>54.00</geoidheight><course>171.8</course><type>1</type></trkpt>
      <trkpt lat="40.45671541" lon="-5.29185824"><ele>2293</ele><speed>10.39</speed><time>2016-06-30T12:10:46Z</time><pdop>3.0</pdop><geoidheight>54.00</geoidheight><course>180.0</course><type>1</type></trkpt>
      <trkpt lat="40.45662402" lon="-5.29187658"><ele>2294</ele><speed>10.83</speed><time>2016-06-30T12:10:47Z</time><pdop>3.0</pdop><geoidheight>54.00</geoidheight><course>187.3</course><type>1</type></trkpt>
      <trkpt lat="40.4565378" lon="-5.29191627"><ele>2296</ele><speed>10.38</speed><time>2016-06-30T12:10:48Z</time><pdop>3.0</pdop><geoidheight>54.00</geoidheight><course>195.7</course><type>1</type></trkpt>
      <trkpt lat="40.45646575" lon="-5.29197789"><ele>2296</ele><speed>9.46</speed><time>2016-06-30T12:10:49Z</time><pdop>3.0</pdop><geoidheight>54.00</geoidheight><course>211.1</course><type>1</type></trkpt>
      <trkpt lat="40.45641576" lon="-5.29205655"><ele>2297</ele><speed>8.80</speed><time>2016-06-30T12:10:50Z</time><pdop>3.0</pdop><geoidheight>54.00</geoidheight><course>231.9</course><type>1</type></trkpt>
      <trkpt lat="40.45640629" lon="-5.29215964"><ele>2296</ele><speed>8.48</speed><time>2016-06-30T12:10:51Z</time><pdop>3.0</pdop><geoidheight>54.00</geoidheight><course>254.7</course><type>1</type></trkpt>
      <trkpt lat="40.45641368" lon="-5.29225575"><ele>2297</ele><speed>8.07</speed><time>2016-06-30T12:10:52Z</time><pdop>3.0</pdop><geoidheight>54.00</geoidheight><course>274.7</course><type>1</type></trkpt>
      <trkpt lat="40.45643918" lon="-5.29233291"><ele>2299</ele><speed>7.40</speed><time>2016-06-30T12:10:53Z</time><pdop>3.0</pdop><geoidheight>54.00</geoidheight><course>292.7</course><type>1</type></trkpt>
      <trkpt lat="40.45647672" lon="-5.29239951"><ele>2300</ele><speed>6.96</speed><time>2016-06-30T12:10:54Z</time><pdop>3.0</pdop><geoidheight>54.00</geoidheight><course>305.8</course><type>1</type></trkpt>
      <trkpt lat="40.45652405" lon="-5.29245675"><ele>2301</ele><speed>6.68</speed><time>2016-06-30T12:10:55Z</time><pdop>3.0</pdop><geoidheight>54.00</geoidheight><course>316.0</course><type>1</type></trkpt>
      <trkpt lat="40.45658075" lon="-5.29250106"><ele>2302</ele><speed>6.88</speed><time>2016-06-30T12:10:56Z</time><pdop>3.0</pdop><geoidheight>54.00</geoidheight><course>325.5</course><type>1</type></trkpt>
      <trkpt lat="40.4566299" lon="-5.29255026"><ele>2302</ele><speed>7.09</speed><time>2016-06-30T12:10:57Z</time><pdop>3.0</pdop><geoidheight>54.00</geoidheight><course>325.3</course><type>1</type></trkpt>
      <trkpt lat="40.4566931" lon="-5.29256428"><ele>2303</ele><speed>7.27</speed><time>2016-06-30T12:10:58Z</time><pdop>3.0</pdop><geoidheight>54.00</geoidheight><course>338.9</course><type>1</type></trkpt>
      <trkpt lat="40.45675439" lon="-5.29258516"><ele>2303</ele><speed>7.27</speed><time>2016-06-30T12:10:59Z</time><pdop>3.0</pdop><geoidheight>54.00</geoidheight><course>345.3</course><type>1</type></trkpt>
      <trkpt lat="40.45681726" lon="-5.29261256"><ele>2303</ele><speed>7.33</speed><time>2016-06-30T12:11:00Z</time><pdop>3.0</pdop><geoidheight>54.00</geoidheight><course>345.8</course><type>1</type></trkpt>
      <trkpt lat="40.45688329" lon="-5.29262188"><ele>2302</ele><speed>7.79</speed><time>2016-06-30T12:11:01Z</time><pdop>3.0</pdop><geoidheight>54.00</geoidheight><course>351.3</course><type>1</type></trkpt>
      <trkpt lat="40.4569535" lon="-5.29264384"><ele>2302</ele><speed>8.42</speed><time>2016-06-30T12:11:02Z</time><pdop>3.0</pdop><geoidheight>54.00</geoidheight><course>348.1</course><type>1</type></trkpt>
      <trkpt lat="40.45703661" lon="-5.29266724"><ele>2301</ele><speed>9.22</speed><time>2016-06-30T12:11:03Z</time><pdop>3.0</pdop><geoidheight>54.00</geoidheight><course>346.6</course><type>1</type></trkpt>
      <trkpt lat="40.45713137" lon="-5.29267826"><ele>2299</ele><speed>9.80</speed><time>2016-06-30T12:11:04Z</time><pdop>3.0</pdop><geoidheight>54.00</geoidheight><course>351.6</course><type>1</type></trkpt>
      <trkpt lat="40.45722087" lon="-5.29267847"><ele>2299</ele><speed>9.99</speed><time>2016-06-30T12:11:05Z</time><pdop>3.0</pdop><geoidheight>54.00</geoidheight><course>354.6</course><type>1</type></trkpt>
      <trkpt lat="40.45731197" lon="-5.2927054"><ele>2297</ele><speed>9.99</speed><time>2016-06-30T12:11:06Z</time><pdop>3.0</pdop><geoidheight>54.00</geoidheight><course>349.7</course><type>1</type></trkpt>
      <trkpt lat="40.45740099" lon="-5.29270471"><ele>2296</ele><speed>9.90</speed><time>2016-06-30T12:11:07Z</time><pdop>3.0</pdop><geoidheight>54.00</geoidheight><course>350.5</course><type>1</type></trkpt>
      <trkpt lat="40.45749148" lon="-5.2927223"><ele>2296</ele><speed>10.22</speed><time>2016-06-30T12:11:08Z</time><pdop>4.0</pdop><geoidheight>54.00</geoidheight><course>352.2</course><type>1</type></trkpt>
      <trkpt lat="40.45760567" lon="-5.29276731"><ele>2294</ele><speed>11.43</speed><time>2016-06-30T12:11:09Z</time><pdop>5.0</pdop><geoidheight>54.00</geoidheight><course>349.4</course><type>1</type></trkpt>
      <trkpt lat="40.45773981" lon="-5.29282539"><ele>2293</ele><speed>13.11</speed><time>2016-06-30T12:11:10Z</time><pdop>4.0</pdop><geoidheight>54.00</geoidheight><course>343.9</course><type>1</type></trkpt>
      <trkpt lat="40.45785321" lon="-5.2928954"><ele>2292</ele><speed>13.38</speed><time>2016-06-30T12:11:11Z</time><pdop>4.0</pdop><geoidheight>54.00</geoidheight><course>338.9</course><type>1</type></trkpt>
      <trkpt lat="40.45796494" lon="-5.29297895"><ele>2292</ele><speed>12.09</speed><time>2016-06-30T12:11:12Z</time><pdop>4.0</pdop><geoidheight>54.00</geoidheight><course>334.7</course><type>1</type></trkpt>
      <trkpt lat="40.45805152" lon="-5.29303169"><ele>2291</ele><speed>10.57</speed><time>2016-06-30T12:11:13Z</time><pdop>3.0</pdop><geoidheight>54.00</geoidheight><course>330.2</course><type>1</type></trkpt>
      <trkpt lat="40.45812687" lon="-5.29310402"><ele>2291</ele><speed>10.19</speed><time>2016-06-30T12:11:14Z</time><pdop>3.0</pdop><geoidheight>54.00</geoidheight><course>328.7</course><type>1</type></trkpt>
      <trkpt lat="40.45821969" lon="-5.29318458"><ele>2288</ele><speed>10.95</speed><time>2016-06-30T12:11:15Z</time><pdop>3.0</pdop><geoidheight>54.00</geoidheight><course>330.1</course><type>1</type></trkpt>
      <trkpt lat="40.45831146" lon="-5.29325966"><ele>2286</ele><speed>11.78</speed><time>2016-06-30T12:11:16Z</time><pdop>3.0</pdop><geoidheight>54.00</geoidheight><course>332.6</course><type>1</type></trkpt>
      <trkpt lat="40.45840444" lon="-5.29330958"><ele>2288</ele><speed>11.33</speed><time>2016-06-30T12:11:17Z</time><pdop>3.0</pdop><geoidheight>54.00</geoidheight><course>338.2</course><type>1</type></trkpt>
      <trkpt lat="40.45849333" lon="-5.29333695"><ele>2289</ele><speed>10.57</speed><time>2016-06-30T12:11:18Z</time><pdop>3.0</pdop><geoidheight>54.00</geoidheight><course>341.6</course><type>1</type></trkpt>
      <trkpt lat="40.45856089" lon="-5.29335182"><ele>2289</ele><speed>8.91</speed><time>2016-06-30T12:11:19Z</time><pdop>4.0</pdop><geoidheight>54.00</geoidheight><course>345.0</course><type>1</type></trkpt>
      <trkpt lat="40.45868066" lon="-5.2933611"><ele>2289</ele><speed>7.55</speed><time>2016-06-30T12:11:21Z</time><pdop>3.0</pdop><geoidheight>54.00</geoidheight><course>349.9</course><type>1</type></trkpt>
      <trkpt lat="40.45875569" lon="-5.29337559"><ele>2287</ele><speed>8.39</speed><time>2016-06-30T12:11:22Z</time><pdop>3.0</pdop><geoidheight>54.00</geoidheight><course>346.6</course><type>1</type></trkpt>
      <trkpt lat="40.45882695" lon="-5.29340151"><ele>2287</ele><speed>9.00</speed><time>2016-06-30T12:11:23Z</time><pdop>3.0</pdop><geoidheight>54.00</geoidheight><course>342.3</course><type>1</type></trkpt>
      <trkpt lat="40.45890648" lon="-5.29343701"><ele>2287</ele><speed>9.47</speed><time>2016-06-30T12:11:24Z</time><pdop>3.0</pdop><geoidheight>54.00</geoidheight><course>337.9</course><type>1</type></trkpt>
      <trkpt lat="40.45898181" lon="-5.29346789"><ele>2288</ele><speed>9.27</speed><time>2016-06-30T12:11:25Z</time><pdop>3.0</pdop><geoidheight>54.00</geoidheight><course>335.0</course><type>1</type></trkpt>
      <trkpt lat="40.4590523" lon="-5.293515"><ele>2287</ele><speed>8.81</speed><time>2016-06-30T12:11:26Z</time><pdop>3.0</pdop><geoidheight>54.00</geoidheight><course>332.6</course><type>1</type></trkpt>
      <trkpt lat="40.45912012" lon="-5.29355728"><ele>2287</ele><speed>8.36</speed><time>2016-06-30T12:11:27Z</time><pdop>3.0</pdop><geoidheight>54.00</geoidheight><course>334.5</course><type>1</type></trkpt>
      <trkpt lat="40.45918805" lon="-5.2935964"><ele>2292</ele><speed>8.37</speed><time>2016-06-30T12:11:28Z</time><pdop>3.0</pdop><geoidheight>54.00</geoidheight><course>335.0</course><type>1</type></trkpt>
      <trkpt lat="40.4592576" lon="-5.29365399"><ele>2290</ele><speed>8.84</speed><time>2016-06-30T12:11:29Z</time><pdop>3.0</pdop><geoidheight>54.00</geoidheight><course>331.7</course><type>1</type></trkpt>
      <trkpt lat="40.45932711" lon="-5.29370708"><ele>2288</ele><speed>9.22</speed><time>2016-06-30T12:11:30Z</time><pdop>3.0</pdop><geoidheight>54.00</geoidheight><course>327.1</course><type>1</type></trkpt>
      <trkpt lat="40.45940597" lon="-5.29376432"><ele>2287</ele><speed>9.62</speed><time>2016-06-30T12:11:31Z</time><pdop>3.0</pdop><geoidheight>54.00</geoidheight><course>327.9</course><type>1</type></trkpt>
      <trkpt lat="40.45948547" lon="-5.29383062"><ele>2285</ele><speed>10.38</speed><time>2016-06-30T12:11:32Z</time><pdop>3.0</pdop><geoidheight>54.00</geoidheight><course>328.6</course><type>1</type></trkpt>
      <trkpt lat="40.45957371" lon="-5.29389607"><ele>2284</ele><speed>11.17</speed><time>2016-06-30T12:11:33Z</time><pdop>3.0</pdop><geoidheight>54.00</geoidheight><course>328.0</course><type>1</type></trkpt>
      <trkpt lat="40.45965936" lon="-5.29397432"><ele>2283</ele><speed>11.56</speed><time>2016-06-30T12:11:34Z</time><pdop>3.0</pdop><geoidheight>54.00</geoidheight><course>327.6</course><type>1</type></trkpt>
      <trkpt lat="40.45976073" lon="-5.29401776"><ele>2282</ele><speed>11.81</speed><time>2016-06-30T12:11:35Z</time><pdop>3.0</pdop><geoidheight>54.00</geoidheight><course>333.4</course><type>1</type></trkpt>
      <trkpt lat="40.45986494" lon="-5.29405402"><ele>2280</ele><speed>11.30</speed><time>2016-06-30T12:11:36Z</time><pdop>3.0</pdop><geoidheight>54.00</geoidheight><course>342.1</course><type>1</type></trkpt>
      <trkpt lat="40.45996155" lon="-5.29407603"><ele>2280</ele><speed>11.09</speed><time>2016-06-30T12:11:37Z</time><pdop>3.0</pdop><geoidheight>54.00</geoidheight><course>351.2</course><type>1</type></trkpt>
      <trkpt lat="40.46006637" lon="-5.29406575"><ele>2277</ele><speed>10.98</speed><time>2016-06-30T12:11:38Z</time><pdop>3.0</pdop><geoidheight>54.00</geoidheight><course>359.0</course><type>1</type></trkpt>
      <trkpt lat="40.46015718" lon="-5.29406113"><ele>2277</ele><speed>10.80</speed><time>2016-06-30T12:11:39Z</time><pdop>3.0</pdop><geoidheight>54.00</geoidheight><course>2.3</course><type>1</type></trkpt>
      <trkpt lat="40.46025453" lon="-5.29405232"><ele>2278</ele><speed>11.07</speed><time>2016-06-30T12:11:40Z</time><pdop>4.0</pdop><geoidheight>54.00</geoidheight><course>6.4</course><type>1</type></trkpt>
      <trkpt lat="40.46036717" lon="-5.29402219"><ele>2278</ele><speed>11.82</speed><time>2016-06-30T12:11:41Z</time><pdop>4.0</pdop><geoidheight>54.00</geoidheight><course>11.0</course><type>1</type></trkpt>
      <trkpt lat="40.46048669" lon="-5.29399977"><ele>2277</ele><speed>12.65</speed><time>2016-06-30T12:11:42Z</time><pdop>5.0</pdop><geoidheight>54.00</geoidheight><course>12.1</course><type>1</type></trkpt>
      <trkpt lat="40.46063395" lon="-5.29399273"><ele>2277</ele><speed>13.65</speed><time>2016-06-30T12:11:43Z</time><pdop>6.0</pdop><geoidheight>54.00</geoidheight><course>6.8</course><type>1</type></trkpt>
      <trkpt lat="40.46077252" lon="-5.29383633"><ele>2149</ele><speed>11.79</speed><time>2016-06-30T12:11:45Z</time><pdop>5.0</pdop><geoidheight>54.00</geoidheight><course>22.5</course><type>1</type></trkpt>
      <trkpt lat="40.4609054" lon="-5.29366714"><ele>2193</ele><speed>11.50</speed><time>2016-06-30T12:11:47Z</time><pdop>7.0</pdop><geoidheight>54.00</geoidheight><course>36.6</course><type>1</type></trkpt>
      <trkpt lat="40.46104276" lon="-5.29358603"><ele>2203</ele><speed>13.03</speed><time>2016-06-30T12:11:48Z</time><pdop>8.0</pdop><geoidheight>54.00</geoidheight><course>33.9</course><type>1</type></trkpt>
      <trkpt lat="40.46122609" lon="-5.29342735"><ele>2232</ele><speed>13.35</speed><time>2016-06-30T12:11:50Z</time><pdop>4.0</pdop><geoidheight>54.00</geoidheight><course>30.2</course><type>1</type></trkpt>
      <trkpt lat="40.46133306" lon="-5.2933605"><ele>2241</ele><speed>13.01</speed><time>2016-06-30T12:11:51Z</time><pdop>4.0</pdop><geoidheight>54.00</geoidheight><course>27.0</course><type>1</type></trkpt>
      <trkpt lat="40.46142511" lon="-5.29330261"><ele>2245</ele><speed>12.63</speed><time>2016-06-30T12:11:52Z</time><pdop>4.0</pdop><geoidheight>54.00</geoidheight><course>23.4</course><type>1</type></trkpt>
      <trkpt lat="40.46153907" lon="-5.29322692"><ele>2247</ele><speed>12.62</speed><time>2016-06-30T12:11:53Z</time><pdop>4.0</pdop><geoidheight>54.00</geoidheight><course>21.9</course><type>1</type></trkpt>
      <trkpt lat="40.46165453" lon="-5.29320356"><ele>2251</ele><speed>12.45</speed><time>2016-06-30T12:11:54Z</time><pdop>4.0</pdop><geoidheight>54.00</geoidheight><course>13.9</course><type>1</type></trkpt>
      <trkpt lat="40.46185685" lon="-5.29318382"><ele>2253</ele><speed>11.05</speed><time>2016-06-30T12:11:56Z</time><pdop>10.0</pdop><geoidheight>54.00</geoidheight><course>359.7</course><type>1</type></trkpt>
      <trkpt lat="40.46211238" lon="-5.29320531"><ele>2258</ele><speed>9.08</speed><time>2016-06-30T12:11:59Z</time><pdop>10.0</pdop><geoidheight>54.00</geoidheight><course>356.6</course><type>1</type></trkpt>
      <trkpt lat="40.46236736" lon="-5.29320728"><ele>2263</ele><speed>9.34</speed><time>2016-06-30T12:12:02Z</time><pdop>9.0</pdop><geoidheight>54.00</geoidheight><course>1.7</course><type>1</type></trkpt>
      <trkpt lat="40.46260786" lon="-5.29319276"><ele>2264</ele><speed>9.09</speed><time>2016-06-30T12:12:05Z</time><pdop>9.0</pdop><geoidheight>54.00</geoidheight><course>5.2</course><type>1</type></trkpt>
      <trkpt lat="40.46281707" lon="-5.29320799"><ele>2264</ele><speed>11.21</speed><time>2016-06-30T12:12:07Z</time><pdop>10.0</pdop><geoidheight>54.00</geoidheight><course>2.7</course><type>1</type></trkpt>
      <trkpt lat="40.46307123" lon="-5.29314025"><ele>2263</ele><speed>10.53</speed><time>2016-06-30T12:12:10Z</time><pdop>10.0</pdop><geoidheight>54.00</geoidheight><course>9.6</course><type>1</type></trkpt>
      <trkpt lat="40.46329462" lon="-5.29308886"><ele>2263</ele><speed>11.66</speed><time>2016-06-30T12:12:12Z</time><pdop>10.0</pdop><geoidheight>54.00</geoidheight><course>12.6</course><type>1</type></trkpt>
      <trkpt lat="40.46356712" lon="-5.293098"><ele>2257</ele><speed>13.09</speed><time>2016-06-30T12:12:14Z</time><pdop>10.0</pdop><geoidheight>54.00</geoidheight><course>359.4</course><type>1</type></trkpt>
      <trkpt lat="40.46377674" lon="-5.29310018"><ele>2253</ele><speed>13.05</speed><time>2016-06-30T12:12:16Z</time><pdop>10.0</pdop><geoidheight>54.00</geoidheight><course>358.5</course><type>1</type></trkpt>
      <trkpt lat="40.46403913" lon="-5.2931124"><ele>2250</ele><speed>13.23</speed><time>2016-06-30T12:12:18Z</time><pdop>10.0</pdop><geoidheight>54.00</geoidheight><course>0.6</course><type>1</type></trkpt>
      <trkpt lat="40.46425971" lon="-5.29312272"><ele>2250</ele><speed>12.80</speed><time>2016-06-30T12:12:20Z</time><pdop>11.0</pdop><geoidheight>54.00</geoidheight><course>359.9</course><type>1</type></trkpt>
      <trkpt lat="40.464492" lon="-5.2931853"><ele>2246</ele><speed>13.59</speed><time>2016-06-30T12:12:22Z</time><pdop>10.0</pdop><geoidheight>54.00</geoidheight><course>349.0</course><type>1</type></trkpt>
      <trkpt lat="40.46472688" lon="-5.29327011"><ele>2242</ele><speed>12.92</speed><time>2016-06-30T12:12:24Z</time><pdop>9.0</pdop><geoidheight>54.00</geoidheight><course>347.5</course><type>1</type></trkpt>
      <trkpt lat="40.46494414" lon="-5.29330353"><ele>2239</ele><speed>12.76</speed><time>2016-06-30T12:12:26Z</time><pdop>10.0</pdop><geoidheight>54.00</geoidheight><course>349.8</course><type>1</type></trkpt>
      <trkpt lat="40.46518302" lon="-5.29337399"><ele>2237</ele><speed>13.60</speed><time>2016-06-30T12:12:28Z</time><pdop>10.0</pdop><geoidheight>54.00</geoidheight><course>346.5</course><type>1</type></trkpt>
      <trkpt lat="40.4654038" lon="-5.29344959"><ele>2236</ele><speed>12.11</speed><time>2016-06-30T12:12:30Z</time><pdop>9.0</pdop><geoidheight>54.00</geoidheight><course>344.4</course><type>1</type></trkpt>
      <trkpt lat="40.46563444" lon="-5.29356102"><ele>2234</ele><speed>8.62</speed><time>2016-06-30T12:12:33Z</time><pdop>9.0</pdop><geoidheight>54.00</geoidheight><course>340.3</course><type>1</type></trkpt>
      <trkpt lat="40.46584258" lon="-5.29367325"><ele>2232</ele><speed>8.65</speed><time>2016-06-30T12:12:36Z</time><pdop>9.0</pdop><geoidheight>54.00</geoidheight><course>335.4</course><type>1</type></trkpt>
      <trkpt lat="40.46599196" lon="-5.29379478"><ele>2232</ele><speed>9.77</speed><time>2016-06-30T12:12:38Z</time><pdop>9.0</pdop><geoidheight>54.00</geoidheight><course>330.1</course><type>1</type></trkpt>
      <trkpt lat="40.46616289" lon="-5.29393174"><ele>2231</ele><speed>11.60</speed><time>2016-06-30T12:12:40Z</time><pdop>9.0</pdop><geoidheight>54.00</geoidheight><course>327.4</course><type>1</type></trkpt>
      <trkpt lat="40.46642204" lon="-5.29405237"><ele>2223</ele><speed>14.22</speed><time>2016-06-30T12:12:42Z</time><pdop>9.0</pdop><geoidheight>54.00</geoidheight><course>336.2</course><type>1</type></trkpt>
      <trkpt lat="40.4666578" lon="-5.29416957"><ele>2220</ele><speed>14.04</speed><time>2016-06-30T12:12:44Z</time><pdop>9.0</pdop><geoidheight>54.00</geoidheight><course>338.8</course><type>1</type></trkpt>
      <trkpt lat="40.46687819" lon="-5.29415615"><ele>2216</ele><speed>11.61</speed><time>2016-06-30T12:12:46Z</time><pdop>9.0</pdop><geoidheight>54.00</geoidheight><course>354.2</course><type>1</type></trkpt>
      <trkpt lat="40.46706566" lon="-5.29417317"><ele>2215</ele><speed>10.72</speed><time>2016-06-30T12:12:48Z</time><pdop>9.0</pdop><geoidheight>54.00</geoidheight><course>352.6</course><type>1</type></trkpt>
      <trkpt lat="40.46726441" lon="-5.29423862"><ele>2212</ele><speed>11.52</speed><time>2016-06-30T12:12:50Z</time><pdop>9.0</pdop><geoidheight>54.00</geoidheight><course>349.7</course><type>1</type></trkpt>
      <trkpt lat="40.46747141" lon="-5.29430937"><ele>2208</ele><speed>11.62</speed><time>2016-06-30T12:12:52Z</time><pdop>9.0</pdop><geoidheight>54.00</geoidheight><course>344.9</course><type>1</type></trkpt>
      <trkpt lat="40.46766807" lon="-5.29437593"><ele>2207</ele><speed>11.42</speed><time>2016-06-30T12:12:54Z</time><pdop>9.0</pdop><geoidheight>54.00</geoidheight><course>343.0</course><type>1</type></trkpt>
      <trkpt lat="40.46784501" lon="-5.29446244"><ele>2207</ele><speed>9.81</speed><time>2016-06-30T12:12:56Z</time><pdop>9.0</pdop><geoidheight>54.00</geoidheight><course>340.7</course><type>1</type></trkpt>
      <trkpt lat="40.46801773" lon="-5.29455028"><ele>2204</ele><speed>9.37</speed><time>2016-06-30T12:12:58Z</time><pdop>9.0</pdop><geoidheight>54.00</geoidheight><course>337.9</course><type>1</type></trkpt>
      <trkpt lat="40.46820798" lon="-5.29459756"><ele>2198</ele><speed>11.08</speed><time>2016-06-30T12:13:00Z</time><pdop>9.0</pdop><geoidheight>54.00</geoidheight><course>350.7</course><type>1</type></trkpt>
      <trkpt lat="40.46842375" lon="-5.29462205"><ele>2196</ele><speed>12.02</speed><time>2016-06-30T12:13:02Z</time><pdop>10.0</pdop><geoidheight>54.00</geoidheight><course>355.4</course><type>1</type></trkpt>
      <trkpt lat="40.46872426" lon="-5.29476714"><ele>2194</ele><speed>15.00</speed><time>2016-06-30T12:13:04Z</time><pdop>10.0</pdop><geoidheight>54.00</geoidheight><course>347.1</course><type>1</type></trkpt>
      <trkpt lat="40.46898229" lon="-5.29489528"><ele>2192</ele><speed>12.98</speed><time>2016-06-30T12:13:06Z</time><pdop>9.0</pdop><geoidheight>54.00</geoidheight><course>342.1</course><type>1</type></trkpt>
      <trkpt lat="40.46918534" lon="-5.29499698"><ele>2190</ele><speed>11.21</speed><time>2016-06-30T12:13:08Z</time><pdop>9.0</pdop><geoidheight>54.00</geoidheight><course>340.2</course><type>1</type></trkpt>
      <trkpt lat="40.46935464" lon="-5.29509449"><ele>2187</ele><speed>10.16</speed><time>2016-06-30T12:13:10Z</time><pdop>9.0</pdop><geoidheight>54.00</geoidheight><course>329.1</course><type>1</type></trkpt>
      <trkpt lat="40.46948642" lon="-5.29524491"><ele>2183</ele><speed>10.04</speed><time>2016-06-30T12:13:12Z</time><pdop>3.0</pdop><geoidheight>54.00</geoidheight><course>321.3</course><type>1</type></trkpt>
      <trkpt lat="40.46955238" lon="-5.29532076"><ele>2181</ele><speed>9.91</speed><time>2016-06-30T12:13:13Z</time><pdop>3.0</pdop><geoidheight>54.00</geoidheight><course>319.3</course><type>1</type></trkpt>
      <trkpt lat="40.46961592" lon="-5.29539414"><ele>2179</ele><speed>9.71</speed><time>2016-06-30T12:13:14Z</time><pdop>3.0</pdop><geoidheight>54.00</geoidheight><course>315.3</course><type>1</type></trkpt>
      <trkpt lat="40.46967546" lon="-5.2954818"><ele>2178</ele><speed>9.76</speed><time>2016-06-30T12:13:15Z</time><pdop>3.0</pdop><geoidheight>54.00</geoidheight><course>311.9</course><type>1</type></trkpt>
      <trkpt lat="40.46973537" lon="-5.29556783"><ele>2177</ele><speed>9.53</speed><time>2016-06-30T12:13:16Z</time><pdop>4.0</pdop><geoidheight>54.00</geoidheight><course>311.5</course><type>1</type></trkpt>
      <trkpt lat="40.46977875" lon="-5.29564287"><ele>2176</ele><speed>8.59</speed><time>2016-06-30T12:13:17Z</time><pdop>3.0</pdop><geoidheight>54.00</geoidheight><course>306.9</course><type>1</type></trkpt>
      <trkpt lat="40.46981816" lon="-5.29571957"><ele>2176</ele><speed>7.87</speed><time>2016-06-30T12:13:18Z</time><pdop>4.0</pdop><geoidheight>54.00</geoidheight><course>303.1</course><type>1</type></trkpt>
      <trkpt lat="40.46981236" lon="-5.29581137"><ele>2174</ele><speed>7.47</speed><time>2016-06-30T12:13:19Z</time><pdop>3.0</pdop><geoidheight>54.00</geoidheight><course>279.6</course><type>1</type></trkpt>
      <trkpt lat="40.46982044" lon="-5.29597587"><ele>2170</ele><speed>7.75</speed><time>2016-06-30T12:13:21Z</time><pdop>4.0</pdop><geoidheight>54.00</geoidheight><course>267.0</course><type>1</type></trkpt>
      <trkpt lat="40.46976307" lon="-5.29617835"><ele>2165</ele><speed>9.10</speed><time>2016-06-30T12:13:23Z</time><pdop>3.0</pdop><geoidheight>54.00</geoidheight><course>251.7</course><type>1</type></trkpt>
      <trkpt lat="40.46972969" lon="-5.29627009"><ele>2164</ele><speed>8.26</speed><time>2016-06-30T12:13:24Z</time><pdop>3.0</pdop><geoidheight>54.00</geoidheight><course>247.7</course><type>1</type></trkpt>
      <trkpt lat="40.46971151" lon="-5.29635488"><ele>2161</ele><speed>7.87</speed><time>2016-06-30T12:13:25Z</time><pdop>3.0</pdop><geoidheight>54.00</geoidheight><course>250.8</course><type>1</type></trkpt>
      <trkpt lat="40.46971379" lon="-5.29643505"><ele>2158</ele><speed>7.67</speed><time>2016-06-30T12:13:26Z</time><pdop>3.0</pdop><geoidheight>54.00</geoidheight><course>263.1</course><type>1</type></trkpt>
      <trkpt lat="40.46971567" lon="-5.29652724"><ele>2156</ele><speed>8.28</speed><time>2016-06-30T12:13:27Z</time><pdop>3.0</pdop><geoidheight>54.00</geoidheight><course>271.0</course><type>1</type></trkpt>
      <trkpt lat="40.46972241" lon="-5.29662655"><ele>2152</ele><speed>8.58</speed><time>2016-06-30T12:13:28Z</time><pdop>3.0</pdop><geoidheight>54.00</geoidheight><course>276.7</course><type>1</type></trkpt>
      <trkpt lat="40.46973625" lon="-5.29673035"><ele>2149</ele><speed>8.85</speed><time>2016-06-30T12:13:29Z</time><pdop>3.0</pdop><geoidheight>54.00</geoidheight><course>278.9</course><type>1</type></trkpt>
      <trkpt lat="40.46974974" lon="-5.29683385"><ele>2146</ele><speed>9.22</speed><time>2016-06-30T12:13:30Z</time><pdop>3.0</pdop><geoidheight>54.00</geoidheight><course>276.2</course><type>1</type></trkpt>
      <trkpt lat="40.46974695" lon="-5.29694014"><ele>2143</ele><speed>9.42</speed><time>2016-06-30T12:13:31Z</time><pdop>3.0</pdop><geoidheight>54.00</geoidheight><course>271.3</course><type>1</type></trkpt>
      <trkpt lat="40.4697398" lon="-5.29705696"><ele>2142</ele><speed>9.73</speed><time>2016-06-30T12:13:32Z</time><pdop>3.0</pdop><geoidheight>54.00</geoidheight><course>265.8</course><type>1</type></trkpt>
      <trkpt lat="40.46973181" lon="-5.29716123"><ele>2140</ele><speed>9.56</speed><time>2016-06-30T12:13:33Z</time><pdop>3.0</pdop><geoidheight>54.00</geoidheight><course>262.7</course><type>1</type></trkpt>
      <trkpt lat="40.46971855" lon="-5.29727009"><ele>2138</ele><speed>9.92</speed><time>2016-06-30T12:13:34Z</time><pdop>3.0</pdop><geoidheight>54.00</geoidheight><course>262.4</course><type>1</type></trkpt>
      <trkpt lat="40.469715" lon="-5.29736684"><ele>2136</ele><speed>9.47</speed><time>2016-06-30T12:13:35Z</time><pdop>3.0</pdop><geoidheight>54.00</geoidheight><course>264.7</course><type>1</type></trkpt>
      <trkpt lat="40.46971225" lon="-5.29748948"><ele>2135</ele><speed>9.33</speed><time>2016-06-30T12:13:36Z</time><pdop>3.0</pdop><geoidheight>54.00</geoidheight><course>266.4</course><type>1</type></trkpt>
      <trkpt lat="40.46971025" lon="-5.29758334"><ele>2133</ele><speed>8.67</speed><time>2016-06-30T12:13:37Z</time><pdop>3.0</pdop><geoidheight>54.00</geoidheight><course>266.8</course><type>1</type></trkpt>
      <trkpt lat="40.46970247" lon="-5.29776534"><ele>2129</ele><speed>9.18</speed><time>2016-06-30T12:13:39Z</time><pdop>3.0</pdop><geoidheight>54.00</geoidheight><course>263.2</course><type>1</type></trkpt>
      <trkpt lat="40.46969085" lon="-5.29787128"><ele>2128</ele><speed>9.30</speed><time>2016-06-30T12:13:40Z</time><pdop>3.0</pdop><geoidheight>54.00</geoidheight><course>262.3</course><type>1</type></trkpt>
      <trkpt lat="40.46968811" lon="-5.29797052"><ele>2127</ele><speed>8.91</speed><time>2016-06-30T12:13:41Z</time><pdop>3.0</pdop><geoidheight>54.00</geoidheight><course>264.9</course><type>1</type></trkpt>
      <trkpt lat="40.46969132" lon="-5.29808358"><ele>2125</ele><speed>9.05</speed><time>2016-06-30T12:13:42Z</time><pdop>3.0</pdop><geoidheight>54.00</geoidheight><course>267.7</course><type>1</type></trkpt>
      <trkpt lat="40.46969124" lon="-5.29818868"><ele>2125</ele><speed>8.99</speed><time>2016-06-30T12:13:43Z</time><pdop>3.0</pdop><geoidheight>54.00</geoidheight><course>270.2</course><type>1</type></trkpt>
      <trkpt lat="40.46972632" lon="-5.29828628"><ele>2124</ele><speed>8.66</speed><time>2016-06-30T12:13:44Z</time><pdop>3.0</pdop><geoidheight>54.00</geoidheight><course>283.1</course><type>1</type></trkpt>
      <trkpt lat="40.46975355" lon="-5.29838802"><ele>2124</ele><speed>8.87</speed><time>2016-06-30T12:13:45Z</time><pdop>3.0</pdop><geoidheight>54.00</geoidheight><course>292.1</course><type>1</type></trkpt>
      <trkpt lat="40.46979236" lon="-5.29848685"><ele>2124</ele><speed>9.22</speed><time>2016-06-30T12:13:46Z</time><pdop>4.0</pdop><geoidheight>54.00</geoidheight><course>296.3</course><type>1</type></trkpt>
      <trkpt lat="40.46987126" lon="-5.29853815"><ele>2122</ele><speed>9.46</speed><time>2016-06-30T12:13:47Z</time><pdop>3.0</pdop><geoidheight>54.00</geoidheight><course>319.9</course><type>1</type></trkpt>
      <trkpt lat="40.46996072" lon="-5.29855567"><ele>2121</ele><speed>9.74</speed><time>2016-06-30T12:13:48Z</time><pdop>3.0</pdop><geoidheight>54.00</geoidheight><course>341.1</course><type>1</type></trkpt>
      <trkpt lat="40.47006438" lon="-5.29856085"><ele>2119</ele><speed>10.28</speed><time>2016-06-30T12:13:49Z</time><pdop>3.0</pdop><geoidheight>54.00</geoidheight><course>348.6</course><type>1</type></trkpt>
      <trkpt lat="40.47017953" lon="-5.2985116"><ele>2116</ele><speed>11.17</speed><time>2016-06-30T12:13:50Z</time><pdop>5.0</pdop><geoidheight>54.00</geoidheight><course>2.9</course><type>1</type></trkpt>
      <trkpt lat="40.47026838" lon="-5.29842079"><ele>2116</ele><speed>11.96</speed><time>2016-06-30T12:13:51Z</time><pdop>4.0</pdop><geoidheight>54.00</geoidheight><course>20.3</course><type>1</type></trkpt>
      <trkpt lat="40.47037076" lon="-5.29833982"><ele>2115</ele><speed>12.28</speed><time>2016-06-30T12:13:52Z</time><pdop>6.0</pdop><geoidheight>54.00</geoidheight><course>25.0</course><type>1</type></trkpt>
      <trkpt lat="40.47046256" lon="-5.29819279"><ele>2114</ele><speed>13.65</speed><time>2016-06-30T12:13:53Z</time><pdop>6.0</pdop><geoidheight>54.00</geoidheight><course>37.9</course><type>1</type></trkpt>
      <trkpt lat="40.47053874" lon="-5.29804917"><ele>2112</ele><speed>13.81</speed><time>2016-06-30T12:13:54Z</time><pdop>6.0</pdop><geoidheight>54.00</geoidheight><course>45.1</course><type>1</type></trkpt>
      <trkpt lat="40.47062285" lon="-5.29791164"><ele>2109</ele><speed>14.36</speed><time>2016-06-30T12:13:55Z</time><pdop>6.0</pdop><geoidheight>54.00</geoidheight><course>45.8</course><type>1</type></trkpt>
      <trkpt lat="40.47075218" lon="-5.29777836"><ele>2109</ele><speed>15.25</speed><time>2016-06-30T12:13:56Z</time><pdop>6.0</pdop><geoidheight>54.00</geoidheight><course>41.8</course><type>1</type></trkpt>
      <trkpt lat="40.47084781" lon="-5.29766332"><ele>2106</ele><speed>14.91</speed><time>2016-06-30T12:13:57Z</time><pdop>7.0</pdop><geoidheight>54.00</geoidheight><course>41.9</course><type>1</type></trkpt>
      <trkpt lat="40.47097542" lon="-5.29760154"><ele>2104</ele><speed>14.72</speed><time>2016-06-30T12:13:58Z</time><pdop>7.0</pdop><geoidheight>54.00</geoidheight><course>35.6</course><type>1</type></trkpt>
      <trkpt lat="40.47104944" lon="-5.29749461"><ele>2104</ele><speed>13.81</speed><time>2016-06-30T12:13:59Z</time><pdop>5.0</pdop><geoidheight>54.00</geoidheight><course>36.9</course><type>1</type></trkpt>
      <trkpt lat="40.47114934" lon="-5.29740498"><ele>2103</ele><speed>13.38</speed><time>2016-06-30T12:14:00Z</time><pdop>5.0</pdop><geoidheight>54.00</geoidheight><course>36.5</course><type>1</type></trkpt>
      <trkpt lat="40.47123571" lon="-5.29731865"><ele>2103</ele><speed>13.03</speed><time>2016-06-30T12:14:01Z</time><pdop>6.0</pdop><geoidheight>54.00</geoidheight><course>37.3</course><type>1</type></trkpt>
      <trkpt lat="40.47134498" lon="-5.29721063"><ele>2100</ele><speed>14.54</speed><time>2016-06-30T12:14:02Z</time><pdop>5.0</pdop><geoidheight>54.00</geoidheight><course>37.9</course><type>1</type></trkpt>
      <trkpt lat="40.4714559" lon="-5.2971065"><ele>2099</ele><speed>14.79</speed><time>2016-06-30T12:14:03Z</time><pdop>6.0</pdop><geoidheight>54.00</geoidheight><course>37.6</course><type>1</type></trkpt>
      <trkpt lat="40.4715427" lon="-5.29697418"><ele>2101</ele><speed>14.76</speed><time>2016-06-30T12:14:04Z</time><pdop>8.0</pdop><geoidheight>54.00</geoidheight><course>40.7</course><type>1</type></trkpt>
      <trkpt lat="40.4717081" lon="-5.29675819"><ele>2097</ele><speed>13.82</speed><time>2016-06-30T12:14:06Z</time><pdop>9.0</pdop><geoidheight>54.00</geoidheight><course>42.5</course><type>1</type></trkpt>
      <trkpt lat="40.47188986" lon="-5.29652864"><ele>2095</ele><speed>14.65</speed><time>2016-06-30T12:14:08Z</time><pdop>8.0</pdop><geoidheight>54.00</geoidheight><course>40.6</course><type>1</type></trkpt>
      <trkpt lat="40.47207178" lon="-5.29630973"><ele>2092</ele><speed>14.82</speed><time>2016-06-30T12:14:10Z</time><pdop>7.0</pdop><geoidheight>54.00</geoidheight><course>43.9</course><type>1</type></trkpt>
      <trkpt lat="40.47218366" lon="-5.29620061"><ele>2091</ele><speed>15.32</speed><time>2016-06-30T12:14:11Z</time><pdop>7.0</pdop><geoidheight>54.00</geoidheight><course>41.1</course><type>1</type></trkpt>
      <trkpt lat="40.47229488" lon="-5.2960925"><ele>2090</ele><speed>15.73</speed><time>2016-06-30T12:14:12Z</time><pdop>8.0</pdop><geoidheight>54.00</geoidheight><course>40.2</course><type>1</type></trkpt>
      <trkpt lat="40.47241371" lon="-5.29597801"><ele>2088</ele><speed>15.82</speed><time>2016-06-30T12:14:13Z</time><pdop>7.0</pdop><geoidheight>54.00</geoidheight><course>37.7</course><type>1</type></trkpt>
      <trkpt lat="40.47252742" lon="-5.29589846"><ele>2087</ele><speed>14.86</speed><time>2016-06-30T12:14:14Z</time><pdop>7.0</pdop><geoidheight>54.00</geoidheight><course>34.1</course><type>1</type></trkpt>
      <trkpt lat="40.47264982" lon="-5.29577263"><ele>2087</ele><speed>15.30</speed><time>2016-06-30T12:14:15Z</time><pdop>6.0</pdop><geoidheight>54.00</geoidheight><course>34.7</course><type>1</type></trkpt>
      <trkpt lat="40.47275064" lon="-5.29564827"><ele>2085</ele><speed>15.90</speed><time>2016-06-30T12:14:16Z</time><pdop>6.0</pdop><geoidheight>54.00</geoidheight><course>36.3</course><type>1</type></trkpt>
      <trkpt lat="40.47284941" lon="-5.29555945"><ele>2082</ele><speed>15.75</speed><time>2016-06-30T12:14:17Z</time><pdop>6.0</pdop><geoidheight>54.00</geoidheight><course>36.3</course><type>1</type></trkpt>
      <trkpt lat="40.47296882" lon="-5.29544152"><ele>2082</ele><speed>16.26</speed><time>2016-06-30T12:14:18Z</time><pdop>6.0</pdop><geoidheight>54.00</geoidheight><course>36.6</course><type>1</type></trkpt>
      <trkpt lat="40.47307315" lon="-5.29531414"><ele>2080</ele><speed>16.42</speed><time>2016-06-30T12:14:19Z</time><pdop>8.0</pdop><geoidheight>54.00</geoidheight><course>38.1</course><type>1</type></trkpt>
      <trkpt lat="40.47329338" lon="-5.29501099"><ele>2079</ele><speed>17.68</speed><time>2016-06-30T12:14:21Z</time><pdop>11.0</pdop><geoidheight>54.00</geoidheight><course>41.9</course><type>1</type></trkpt>
      <trkpt lat="40.47350212" lon="-5.29491046"><ele>2076</ele><speed>15.12</speed><time>2016-06-30T12:14:23Z</time><pdop>11.0</pdop><geoidheight>54.00</geoidheight><course>33.1</course><type>1</type></trkpt>
      <trkpt lat="40.47374221" lon="-5.29464568"><ele>2073</ele><speed>16.38</speed><time>2016-06-30T12:14:25Z</time><pdop>12.0</pdop><geoidheight>54.00</geoidheight><course>36.1</course><type>1</type></trkpt>
      <trkpt lat="40.47395096" lon="-5.29444841"><ele>2071</ele><speed>15.91</speed><time>2016-06-30T12:14:27Z</time><pdop>11.0</pdop><geoidheight>54.00</geoidheight><course>35.6</course><type>1</type></trkpt>
      <trkpt lat="40.47420332" lon="-5.29423374"><ele>2065</ele><speed>13.55</speed><time>2016-06-30T12:14:30Z</time><pdop>12.0</pdop><geoidheight>54.00</geoidheight><course>32.4</course><type>1</type></trkpt>
      <trkpt lat="40.47449771" lon="-5.29397867"><ele>2062</ele><speed>16.24</speed><time>2016-06-30T12:14:32Z</time><pdop>11.0</pdop><geoidheight>54.00</geoidheight><course>31.4</course><type>1</type></trkpt>
      <trkpt lat="40.47470552" lon="-5.29383015"><ele>2056</ele><speed>14.99</speed><time>2016-06-30T12:14:34Z</time><pdop>11.0</pdop><geoidheight>54.00</geoidheight><course>29.7</course><type>1</type></trkpt>
      <trkpt lat="40.47491895" lon="-5.29367701"><ele>2051</ele><speed>14.55</speed><time>2016-06-30T12:14:36Z</time><pdop>10.0</pdop><geoidheight>54.00</geoidheight><course>29.1</course><type>1</type></trkpt>
      <trkpt lat="40.475121" lon="-5.29350009"><ele>2047</ele><speed>14.94</speed><time>2016-06-30T12:14:38Z</time><pdop>11.0</pdop><geoidheight>54.00</geoidheight><course>30.1</course><type>1</type></trkpt>
      <trkpt lat="40.47531839" lon="-5.29333421"><ele>2042</ele><speed>13.82</speed><time>2016-06-30T12:14:40Z</time><pdop>12.0</pdop><geoidheight>54.00</geoidheight><course>29.5</course><type>1</type></trkpt>
      <trkpt lat="40.4755122" lon="-5.29316253"><ele>2039</ele><speed>13.74</speed><time>2016-06-30T12:14:42Z</time><pdop>12.0</pdop><geoidheight>54.00</geoidheight><course>32.6</course><type>1</type></trkpt>
      <trkpt lat="40.4757019" lon="-5.29295899"><ele>2031</ele><speed>13.71</speed><time>2016-06-30T12:14:44Z</time><pdop>10.0</pdop><geoidheight>54.00</geoidheight><course>33.6</course><type>1</type></trkpt>
      <trkpt lat="40.47591225" lon="-5.29278618"><ele>2028</ele><speed>13.57</speed><time>2016-06-30T12:14:46Z</time><pdop>11.0</pdop><geoidheight>54.00</geoidheight><course>33.1</course><type>1</type></trkpt>
      <trkpt lat="40.47612149" lon="-5.29262424"><ele>2023</ele><speed>13.38</speed><time>2016-06-30T12:14:48Z</time><pdop>10.0</pdop><geoidheight>54.00</geoidheight><course>27.5</course><type>1</type></trkpt>
      <trkpt lat="40.47635982" lon="-5.29249901"><ele>2020</ele><speed>13.83</speed><time>2016-06-30T12:14:50Z</time><pdop>12.0</pdop><geoidheight>54.00</geoidheight><course>26.7</course><type>1</type></trkpt>
      <trkpt lat="40.47658001" lon="-5.29234825"><ele>2015</ele><speed>14.10</speed><time>2016-06-30T12:14:52Z</time><pdop>11.0</pdop><geoidheight>54.00</geoidheight><course>28.0</course><type>1</type></trkpt>
      <trkpt lat="40.47679643" lon="-5.29213655"><ele>2013</ele><speed>15.39</speed><time>2016-06-30T12:14:54Z</time><pdop>10.0</pdop><geoidheight>54.00</geoidheight><course>34.3</course><type>1</type></trkpt>
      <trkpt lat="40.47700706" lon="-5.29194522"><ele>2008</ele><speed>15.76</speed><time>2016-06-30T12:14:56Z</time><pdop>10.0</pdop><geoidheight>54.00</geoidheight><course>34.8</course><type>1</type></trkpt>
      <trkpt lat="40.47726186" lon="-5.2917859"><ele>2003</ele><speed>14.67</speed><time>2016-06-30T12:14:58Z</time><pdop>10.0</pdop><geoidheight>54.00</geoidheight><course>27.2</course><type>1</type></trkpt>
      <trkpt lat="40.47745411" lon="-5.29166013"><ele>2000</ele><speed>12.48</speed><time>2016-06-30T12:15:00Z</time><pdop>9.0</pdop><geoidheight>54.00</geoidheight><course>26.4</course><type>1</type></trkpt>
      <trkpt lat="40.47766133" lon="-5.29152366"><ele>1995</ele><speed>12.84</speed><time>2016-06-30T12:15:02Z</time><pdop>11.0</pdop><geoidheight>54.00</geoidheight><course>26.6</course><type>1</type></trkpt>
      <trkpt lat="40.47795099" lon="-5.29141317"><ele>1991</ele><speed>15.45</speed><time>2016-06-30T12:15:04Z</time><pdop>13.0</pdop><geoidheight>54.00</geoidheight><course>19.5</course><type>1</type></trkpt>
      <trkpt lat="40.47826521" lon="-5.29130052"><ele>1990</ele><speed>17.36</speed><time>2016-06-30T12:15:06Z</time><pdop>14.0</pdop><geoidheight>54.00</geoidheight><course>18.5</course><type>1</type></trkpt>
      <trkpt lat="40.47851745" lon="-5.29115187"><ele>1987</ele><speed>17.05</speed><time>2016-06-30T12:15:08Z</time><pdop>14.0</pdop><geoidheight>54.00</geoidheight><course>20.4</course><type>1</type></trkpt>
      <trkpt lat="40.47878455" lon="-5.29101908"><ele>1979</ele><speed>15.86</speed><time>2016-06-30T12:15:10Z</time><pdop>11.0</pdop><geoidheight>54.00</geoidheight><course>23.0</course><type>1</type></trkpt>
      <trkpt lat="40.47903842" lon="-5.29086588"><ele>1975</ele><speed>15.69</speed><time>2016-06-30T12:15:12Z</time><pdop>11.0</pdop><geoidheight>54.00</geoidheight><course>24.1</course><type>1</type></trkpt>
      <trkpt lat="40.47926" lon="-5.29069947"><ele>1969</ele><speed>15.86</speed><time>2016-06-30T12:15:14Z</time><pdop>12.0</pdop><geoidheight>54.00</geoidheight><course>26.7</course><type>1</type></trkpt>
      <trkpt lat="40.47953592" lon="-5.29053058"><ele>1964</ele><speed>16.96</speed><time>2016-06-30T12:15:16Z</time><pdop>12.0</pdop><geoidheight>54.00</geoidheight><course>26.5</course><type>1</type></trkpt>
      <trkpt lat="40.47973038" lon="-5.29027986"><ele>1961</ele><speed>15.86</speed><time>2016-06-30T12:15:18Z</time><pdop>14.0</pdop><geoidheight>54.00</geoidheight><course>34.5</course><type>1</type></trkpt>
      <trkpt lat="40.48001915" lon="-5.29009644"><ele>1956</ele><speed>17.11</speed><time>2016-06-30T12:15:20Z</time><pdop>14.0</pdop><geoidheight>54.00</geoidheight><course>29.5</course><type>1</type></trkpt>
      <trkpt lat="40.48027512" lon="-5.28993066"><ele>1950</ele><speed>16.53</speed><time>2016-06-30T12:15:22Z</time><pdop>14.0</pdop><geoidheight>54.00</geoidheight><course>27.6</course><type>1</type></trkpt>
      <trkpt lat="40.48049566" lon="-5.28968695"><ele>1944</ele><speed>16.25</speed><time>2016-06-30T12:15:24Z</time><pdop>12.0</pdop><geoidheight>54.00</geoidheight><course>32.1</course><type>1</type></trkpt>
      <trkpt lat="40.48073142" lon="-5.28953912"><ele>1940</ele><speed>15.23</speed><time>2016-06-30T12:15:26Z</time><pdop>13.0</pdop><geoidheight>54.00</geoidheight><course>29.9</course><type>1</type></trkpt>
      <trkpt lat="40.48107062" lon="-5.2892883"><ele>1934</ele><speed>15.70</speed><time>2016-06-30T12:15:29Z</time><pdop>14.0</pdop><geoidheight>54.00</geoidheight><course>31.7</course><type>1</type></trkpt>
      <trkpt lat="40.48135959" lon="-5.28910432"><ele>1931</ele><speed>16.59</speed><time>2016-06-30T12:15:31Z</time><pdop>13.0</pdop><geoidheight>54.00</geoidheight><course>25.9</course><type>1</type></trkpt>
      <trkpt lat="40.48160917" lon="-5.28895829"><ele>1924</ele><speed>15.39</speed><time>2016-06-30T12:15:33Z</time><pdop>11.0</pdop><geoidheight>54.00</geoidheight><course>27.1</course><type>1</type></trkpt>
      <trkpt lat="40.48184068" lon="-5.28880386"><ele>1919</ele><speed>14.61</speed><time>2016-06-30T12:15:35Z</time><pdop>13.0</pdop><geoidheight>54.00</geoidheight><course>26.6</course><type>1</type></trkpt>
      <trkpt lat="40.48210247" lon="-5.28872895"><ele>1915</ele><speed>14.40</speed><time>2016-06-30T12:15:37Z</time><pdop>14.0</pdop><geoidheight>54.00</geoidheight><course>18.2</course><type>1</type></trkpt>
      <trkpt lat="40.48236061" lon="-5.28860626"><ele>1911</ele><speed>15.00</speed><time>2016-06-30T12:15:39Z</time><pdop>14.0</pdop><geoidheight>54.00</geoidheight><course>21.4</course><type>1</type></trkpt>
      <trkpt lat="40.48270532" lon="-5.2885476"><ele>1906</ele><speed>16.79</speed><time>2016-06-30T12:15:41Z</time><pdop>12.0</pdop><geoidheight>54.00</geoidheight><course>13.7</course><type>1</type></trkpt>
      <trkpt lat="40.48294376" lon="-5.28847015"><ele>1900</ele><speed>15.55</speed><time>2016-06-30T12:15:43Z</time><pdop>12.0</pdop><geoidheight>54.00</geoidheight><course>12.2</course><type>1</type></trkpt>
      <trkpt lat="40.48315233" lon="-5.28843561"><ele>1900</ele><speed>13.51</speed><time>2016-06-30T12:15:45Z</time><pdop>11.0</pdop><geoidheight>54.00</geoidheight><course>6.6</course><type>1</type></trkpt>
      <trkpt lat="40.48336258" lon="-5.28839043"><ele>1897</ele><speed>12.35</speed><time>2016-06-30T12:15:47Z</time><pdop>11.0</pdop><geoidheight>54.00</geoidheight><course>8.7</course><type>1</type></trkpt>
      <trkpt lat="40.48357686" lon="-5.28821613"><ele>1902</ele><speed>9.66</speed><time>2016-06-30T12:15:50Z</time><pdop>10.0</pdop><geoidheight>54.00</geoidheight><course>21.7</course><type>1</type></trkpt>
      <trkpt lat="40.4838005" lon="-5.28818425"><ele>1901</ele><speed>11.29</speed><time>2016-06-30T12:15:52Z</time><pdop>10.0</pdop><geoidheight>54.00</geoidheight><course>8.3</course><type>1</type></trkpt>
      <trkpt lat="40.48400544" lon="-5.28821943"><ele>1900</ele><speed>7.75</speed><time>2016-06-30T12:15:55Z</time><pdop>12.0</pdop><geoidheight>54.00</geoidheight><course>358.0</course><type>1</type></trkpt>
      <trkpt lat="40.48377456" lon="-5.28861629"><ele>1900</ele><speed>8.39</speed><time>2016-06-30T12:15:58Z</time><pdop>13.0</pdop><geoidheight>54.00</geoidheight><course>236.2</course><type>1</type></trkpt>
      <trkpt lat="40.48354158" lon="-5.28841913"><ele>1902</ele><speed>11.26</speed><time>2016-06-30T12:16:00Z</time><pdop>11.0</pdop><geoidheight>54.00</geoidheight><course>127.9</course><type>1</type></trkpt>
      <trkpt lat="40.48340136" lon="-5.2881374"><ele>1905</ele><speed>13.02</speed><time>2016-06-30T12:16:02Z</time><pdop>10.0</pdop><geoidheight>54.00</geoidheight><course>113.8</course><type>1</type></trkpt>
      <trkpt lat="40.48336559" lon="-5.28780668"><ele>1907</ele><speed>13.40</speed><time>2016-06-30T12:16:04Z</time><pdop>11.0</pdop><geoidheight>54.00</geoidheight><course>103.5</course><type>1</type></trkpt>
      <trkpt lat="40.48348716" lon="-5.2875043"><ele>1908</ele><speed>12.56</speed><time>2016-06-30T12:16:06Z</time><pdop>11.0</pdop><geoidheight>54.00</geoidheight><course>79.4</course><type>1</type></trkpt>
      <trkpt lat="40.48372128" lon="-5.28729999"><ele>1910</ele><speed>8.18</speed><time>2016-06-30T12:16:09Z</time><pdop>13.0</pdop><geoidheight>54.00</geoidheight><course>55.0</course><type>1</type></trkpt>
      <trkpt lat="40.48392989" lon="-5.28742393"><ele>1911</ele><speed>6.55</speed><time>2016-06-30T12:16:11Z</time><pdop>11.0</pdop><geoidheight>54.00</geoidheight><course>4.4</course><type>1</type></trkpt>
      <trkpt lat="40.48386219" lon="-5.28775164"><ele>1916</ele><speed>8.40</speed><time>2016-06-30T12:16:14Z</time><pdop>10.0</pdop><geoidheight>54.00</geoidheight><course>223.0</course><type>1</type></trkpt>
      <trkpt lat="40.48369969" lon="-5.2878321"><ele>1923</ele><speed>9.22</speed><time>2016-06-30T12:16:16Z</time><pdop>9.0</pdop><geoidheight>54.00</geoidheight><course>176.8</course><type>1</type></trkpt>
      <trkpt lat="40.48351693" lon="-5.287778"><ele>1926</ele><speed>9.40</speed><time>2016-06-30T12:16:18Z</time><pdop>10.0</pdop><geoidheight>54.00</geoidheight><course>162.4</course><type>1</type></trkpt>
      <trkpt lat="40.48335567" lon="-5.28756272"><ele>1927</ele><speed>11.08</speed><time>2016-06-30T12:16:20Z</time><pdop>11.0</pdop><geoidheight>54.00</geoidheight><course>136.4</course><type>1</type></trkpt>
      <trkpt lat="40.48328606" lon="-5.28727664"><ele>1929</ele><speed>10.66</speed><time>2016-06-30T12:16:22Z</time><pdop>11.0</pdop><geoidheight>54.00</geoidheight><course>116.8</course><type>1</type></trkpt>
      <trkpt lat="40.48327464" lon="-5.28699051"><ele>1931</ele><speed>10.31</speed><time>2016-06-30T12:16:24Z</time><pdop>12.0</pdop><geoidheight>54.00</geoidheight><course>95.3</course><type>1</type></trkpt>
      <trkpt lat="40.48341389" lon="-5.2866488"><ele>1933</ele><speed>12.58</speed><time>2016-06-30T12:16:26Z</time><pdop>12.0</pdop><geoidheight>54.00</geoidheight><course>67.6</course><type>1</type></trkpt>
      <trkpt lat="40.48353114" lon="-5.28628429"><ele>1935</ele><speed>12.58</speed><time>2016-06-30T12:16:28Z</time><pdop>11.0</pdop><geoidheight>54.00</geoidheight><course>65.9</course><type>1</type></trkpt>
      <trkpt lat="40.48376764" lon="-5.28611593"><ele>1939</ele><speed>8.91</speed><time>2016-06-30T12:16:31Z</time><pdop>12.0</pdop><geoidheight>54.00</geoidheight><course>39.3</course><type>1</type></trkpt>
      <trkpt lat="40.48403939" lon="-5.28618057"><ele>1945</ele><speed>6.20</speed><time>2016-06-30T12:16:34Z</time><pdop>11.0</pdop><geoidheight>54.00</geoidheight><course>353.4</course><type>1</type></trkpt>
      <trkpt lat="40.48417024" lon="-5.28644825"><ele>1947</ele><speed>7.47</speed><time>2016-06-30T12:16:37Z</time><pdop>5.0</pdop><geoidheight>54.00</geoidheight><course>287.0</course><type>1</type></trkpt>
      <trkpt lat="40.48424564" lon="-5.28657758"><ele>1948</ele><speed>5.47</speed><time>2016-06-30T12:16:39Z</time><pdop>4.0</pdop><geoidheight>54.00</geoidheight><course>317.0</course><type>1</type></trkpt>
      <trkpt lat="40.48433946" lon="-5.28663061"><ele>1948</ele><speed>5.73</speed><time>2016-06-30T12:16:41Z</time><pdop>4.0</pdop><geoidheight>54.00</geoidheight><course>342.0</course><type>1</type></trkpt>
      <trkpt lat="40.48441019" lon="-5.28662462"><ele>1949</ele><speed>7.00</speed><time>2016-06-30T12:16:42Z</time><pdop>3.0</pdop><geoidheight>54.00</geoidheight><course>357.1</course><type>1</type></trkpt>
      <trkpt lat="40.48448122" lon="-5.28661026"><ele>1949</ele><speed>7.83</speed><time>2016-06-30T12:16:43Z</time><pdop>4.0</pdop><geoidheight>54.00</geoidheight><course>1.9</course><type>1</type></trkpt>
      <trkpt lat="40.48456292" lon="-5.2866021"><ele>1948</ele><speed>8.39</speed><time>2016-06-30T12:16:44Z</time><pdop>3.0</pdop><geoidheight>54.00</geoidheight><course>1.2</course><type>1</type></trkpt>
      <trkpt lat="40.48463441" lon="-5.28663083"><ele>1949</ele><speed>8.27</speed><time>2016-06-30T12:16:45Z</time><pdop>3.0</pdop><geoidheight>54.00</geoidheight><course>351.8</course><type>1</type></trkpt>
      <trkpt lat="40.48469693" lon="-5.2866518"><ele>1948</ele><speed>7.82</speed><time>2016-06-30T12:16:46Z</time><pdop>4.0</pdop><geoidheight>54.00</geoidheight><course>348.9</course><type>1</type></trkpt>
      <trkpt lat="40.48477539" lon="-5.28670261"><ele>1948</ele><speed>4.66</speed><time>2016-06-30T12:16:48Z</time><pdop>5.0</pdop><geoidheight>54.00</geoidheight><course>335.4</course><type>1</type></trkpt>
      <trkpt lat="40.48478672" lon="-5.28695221"><ele>1947</ele><speed>7.27</speed><time>2016-06-30T12:16:50Z</time><pdop>7.0</pdop><geoidheight>54.00</geoidheight><course>281.3</course><type>1</type></trkpt>
      <trkpt lat="40.48463801" lon="-5.28711638"><ele>2046</ele><speed>7.33</speed><time>2016-06-30T12:16:52Z</time><pdop>7.0</pdop><geoidheight>54.00</geoidheight><course>231.4</course><type>1</type></trkpt>
      <trkpt lat="40.48450386" lon="-5.28714268"><ele>2018</ele><speed>9.27</speed><time>2016-06-30T12:16:53Z</time><pdop>7.0</pdop><geoidheight>54.00</geoidheight><course>210.5</course><type>1</type></trkpt>
      <trkpt lat="40.48428105" lon="-5.28713919"><ele>2034</ele><speed>10.14</speed><time>2016-06-30T12:16:55Z</time><pdop>9.0</pdop><geoidheight>54.00</geoidheight><course>190.9</course><type>1</type></trkpt>
      <trkpt lat="40.48417238" lon="-5.28694943"><ele>2017</ele><speed>10.61</speed><time>2016-06-30T12:16:56Z</time><pdop>8.0</pdop><geoidheight>54.00</geoidheight><course>154.9</course><type>1</type></trkpt>
      <trkpt lat="40.48403293" lon="-5.28673665"><ele>1988</ele><speed>10.82</speed><time>2016-06-30T12:16:58Z</time><pdop>5.0</pdop><geoidheight>54.00</geoidheight><course>136.7</course><type>1</type></trkpt>
      <trkpt lat="40.48395948" lon="-5.28663407"><ele>1978</ele><speed>10.51</speed><time>2016-06-30T12:16:59Z</time><pdop>5.0</pdop><geoidheight>54.00</geoidheight><course>135.6</course><type>1</type></trkpt>
      <trkpt lat="40.48390237" lon="-5.28653102"><ele>1970</ele><speed>10.33</speed><time>2016-06-30T12:17:00Z</time><pdop>4.0</pdop><geoidheight>54.00</geoidheight><course>137.9</course><type>1</type></trkpt>
      <trkpt lat="40.48383434" lon="-5.28644706"><ele>1965</ele><speed>10.28</speed><time>2016-06-30T12:17:01Z</time><pdop>4.0</pdop><geoidheight>54.00</geoidheight><course>141.8</course><type>1</type></trkpt>
      <trkpt lat="40.48375535" lon="-5.28638995"><ele>1964</ele><speed>10.40</speed><time>2016-06-30T12:17:02Z</time><pdop>4.0</pdop><geoidheight>54.00</geoidheight><course>148.1</course><type>1</type></trkpt>
      <trkpt lat="40.48366082" lon="-5.28631806"><ele>1961</ele><speed>10.84</speed><time>2016-06-30T12:17:03Z</time><pdop>4.0</pdop><geoidheight>54.00</geoidheight><course>148.9</course><type>1</type></trkpt>
      <trkpt lat="40.48357879" lon="-5.28622935"><ele>1961</ele><speed>11.30</speed><time>2016-06-30T12:17:04Z</time><pdop>4.0</pdop><geoidheight>54.00</geoidheight><course>141.7</course><type>1</type></trkpt>
      <trkpt lat="40.48349924" lon="-5.28612625"><ele>1958</ele><speed>11.47</speed><time>2016-06-30T12:17:05Z</time><pdop>4.0</pdop><geoidheight>54.00</geoidheight><course>136.4</course><type>1</type></trkpt>
      <trkpt lat="40.48343847" lon="-5.2860163"><ele>1956</ele><speed>11.00</speed><time>2016-06-30T12:17:06Z</time><pdop>5.0</pdop><geoidheight>54.00</geoidheight><course>127.0</course><type>1</type></trkpt>
      <trkpt lat="40.48339051" lon="-5.28591448"><ele>1955</ele><speed>10.69</speed><time>2016-06-30T12:17:07Z</time><pdop>5.0</pdop><geoidheight>54.00</geoidheight><course>120.6</course><type>1</type></trkpt>
      <trkpt lat="40.48331895" lon="-5.28561662"><ele>1955</ele><speed>12.25</speed><time>2016-06-30T12:17:09Z</time><pdop>4.0</pdop><geoidheight>54.00</geoidheight><course>108.1</course><type>1</type></trkpt>
      <trkpt lat="40.4832969" lon="-5.28545804"><ele>1955</ele><speed>12.44</speed><time>2016-06-30T12:17:10Z</time><pdop>4.0</pdop><geoidheight>54.00</geoidheight><course>104.0</course><type>1</type></trkpt>
      <trkpt lat="40.48328493" lon="-5.28527192"><ele>1958</ele><speed>13.04</speed><time>2016-06-30T12:17:11Z</time><pdop>3.0</pdop><geoidheight>54.00</geoidheight><course>98.0</course><type>1</type></trkpt>
      <trkpt lat="40.48328554" lon="-5.28512656"><ele>1961</ele><speed>13.11</speed><time>2016-06-30T12:17:12Z</time><pdop>3.0</pdop><geoidheight>54.00</geoidheight><course>92.5</course><type>1</type></trkpt>
      <trkpt lat="40.4832918" lon="-5.28499064"><ele>1963</ele><speed>12.85</speed><time>2016-06-30T12:17:13Z</time><pdop>3.0</pdop><geoidheight>54.00</geoidheight><course>87.5</course><type>1</type></trkpt>
      <trkpt lat="40.48329035" lon="-5.28483323"><ele>1965</ele><speed>12.68</speed><time>2016-06-30T12:17:14Z</time><pdop>3.0</pdop><geoidheight>54.00</geoidheight><course>87.6</course><type>1</type></trkpt>
      <trkpt lat="40.48329786" lon="-5.28468498"><ele>1966</ele><speed>12.66</speed><time>2016-06-30T12:17:15Z</time><pdop>3.0</pdop><geoidheight>54.00</geoidheight><course>85.3</course><type>1</type></trkpt>
      <trkpt lat="40.48331859" lon="-5.28454214"><ele>1967</ele><speed>12.21</speed><time>2016-06-30T12:17:16Z</time><pdop>3.0</pdop><geoidheight>54.00</geoidheight><course>77.7</course><type>1</type></trkpt>
      <trkpt lat="40.48335625" lon="-5.28439407"><ele>1968</ele><speed>12.32</speed><time>2016-06-30T12:17:17Z</time><pdop>4.0</pdop><geoidheight>54.00</geoidheight><course>72.2</course><type>1</type></trkpt>
      <trkpt lat="40.48339479" lon="-5.28421101"><ele>1970</ele><speed>14.01</speed><time>2016-06-30T12:17:18Z</time><pdop>5.0</pdop><geoidheight>54.00</geoidheight><course>71.5</course><type>1</type></trkpt>
      <trkpt lat="40.48346252" lon="-5.2840896"><ele>1972</ele><speed>13.28</speed><time>2016-06-30T12:17:19Z</time><pdop>7.0</pdop><geoidheight>54.00</geoidheight><course>66.1</course><type>1</type></trkpt>
      <trkpt lat="40.48366314" lon="-5.28408667"><ele>1973</ele><speed>9.03</speed><time>2016-06-30T12:17:21Z</time><pdop>8.0</pdop><geoidheight>54.00</geoidheight><course>33.0</course><type>1</type></trkpt>
      <trkpt lat="40.48386156" lon="-5.28419573"><ele>1974</ele><speed>8.21</speed><time>2016-06-30T12:17:23Z</time><pdop>10.0</pdop><geoidheight>54.00</geoidheight><course>4.4</course><type>1</type></trkpt>
      <trkpt lat="40.48374775" lon="-5.28452253"><ele>1973</ele><speed>5.59</speed><time>2016-06-30T12:17:26Z</time><pdop>11.0</pdop><geoidheight>54.00</geoidheight><course>256.0</course><type>1</type></trkpt>
      <trkpt lat="40.4835376" lon="-5.28454794"><ele>1976</ele><speed>6.34</speed><time>2016-06-30T12:17:28Z</time><pdop>11.0</pdop><geoidheight>54.00</geoidheight><course>190.9</course><type>1</type></trkpt>
      <trkpt lat="40.48325928" lon="-5.28443971"><ele>1979</ele><speed>9.32</speed><time>2016-06-30T12:17:30Z</time><pdop>11.0</pdop><geoidheight>54.00</geoidheight><course>158.3</course><type>1</type></trkpt>
      <trkpt lat="40.48303933" lon="-5.28417658"><ele>1984</ele><speed>12.53</speed><time>2016-06-30T12:17:32Z</time><pdop>6.0</pdop><geoidheight>54.00</geoidheight><course>135.1</course><type>1</type></trkpt>
      <trkpt lat="40.48295765" lon="-5.2840762"><ele>1986</ele><speed>12.20</speed><time>2016-06-30T12:17:33Z</time><pdop>6.0</pdop><geoidheight>54.00</geoidheight><course>133.6</course><type>1</type></trkpt>
      <trkpt lat="40.48288609" lon="-5.28395394"><ele>1986</ele><speed>11.52</speed><time>2016-06-30T12:17:34Z</time><pdop>6.0</pdop><geoidheight>54.00</geoidheight><course>128.6</course><type>1</type></trkpt>
      <trkpt lat="40.48279723" lon="-5.2837155"><ele>1989</ele><speed>10.81</speed><time>2016-06-30T12:17:36Z</time><pdop>9.0</pdop><geoidheight>54.00</geoidheight><course>119.5</course><type>1</type></trkpt>
      <trkpt lat="40.48297816" lon="-5.28333479"><ele>1994</ele><speed>13.62</speed><time>2016-06-30T12:17:38Z</time><pdop>8.0</pdop><geoidheight>54.00</geoidheight><course>74.0</course><type>1</type></trkpt>
      <trkpt lat="40.48314428" lon="-5.28311657"><ele>1996</ele><speed>12.22</speed><time>2016-06-30T12:17:40Z</time><pdop>12.0</pdop><geoidheight>54.00</geoidheight><course>58.4</course><type>1</type></trkpt>
      <trkpt lat="40.48342198" lon="-5.28319056"><ele>1996</ele><speed>9.82</speed><time>2016-06-30T12:17:42Z</time><pdop>11.0</pdop><geoidheight>54.00</geoidheight><course>13.1</course><type>1</type></trkpt>
      <trkpt lat="40.48349832" lon="-5.28351185"><ele>2086</ele><speed>6.31</speed><time>2016-06-30T12:17:45Z</time><pdop>11.0</pdop><geoidheight>54.00</geoidheight><course>281.2</course><type>1</type></trkpt>
      <trkpt lat="40.48336116" lon="-5.28380072"><ele>2049</ele><speed>8.54</speed><time>2016-06-30T12:17:48Z</time><pdop>11.0</pdop><geoidheight>54.00</geoidheight><course>235.9</course><type>1</type></trkpt>
      <trkpt lat="40.48307377" lon="-5.28369188"><ele>2031</ele><speed>8.43</speed><time>2016-06-30T12:17:51Z</time><pdop>11.0</pdop><geoidheight>54.00</geoidheight><course>165.7</course><type>1</type></trkpt>
      <trkpt lat="40.48294321" lon="-5.28319181"><ele>2025</ele><speed>8.59</speed><time>2016-06-30T12:17:55Z</time><pdop>12.0</pdop><geoidheight>54.00</geoidheight><course>100.5</course><type>1</type></trkpt>
      <trkpt lat="40.48300965" lon="-5.28282863"><ele>2026</ele><speed>10.64</speed><time>2016-06-30T12:17:57Z</time><pdop>12.0</pdop><geoidheight>54.00</geoidheight><course>78.4</course><type>1</type></trkpt>
      <trkpt lat="40.48314106" lon="-5.2824553"><ele>2030</ele><speed>13.38</speed><time>2016-06-30T12:17:59Z</time><pdop>11.0</pdop><geoidheight>54.00</geoidheight><course>63.7</course><type>1</type></trkpt>
      <trkpt lat="40.48327985" lon="-5.28211749"><ele>2033</ele><speed>13.62</speed><time>2016-06-30T12:18:01Z</time><pdop>10.0</pdop><geoidheight>54.00</geoidheight><course>59.9</course><type>1</type></trkpt>
      <trkpt lat="40.48343176" lon="-5.28185637"><ele>2036</ele><speed>12.78</speed><time>2016-06-30T12:18:03Z</time><pdop>10.0</pdop><geoidheight>54.00</geoidheight><course>56.7</course><type>1</type></trkpt>
      <trkpt lat="40.48368601" lon="-5.28174852"><ele>2034</ele><speed>11.96</speed><time>2016-06-30T12:18:05Z</time><pdop>11.0</pdop><geoidheight>54.00</geoidheight><course>31.5</course><type>1</type></trkpt>
      <trkpt lat="40.48385049" lon="-5.28197234"><ele>2033</ele><speed>6.23</speed><time>2016-06-30T12:18:08Z</time><pdop>14.0</pdop><geoidheight>54.00</geoidheight><course>340.2</course><type>1</type></trkpt>
      <trkpt lat="40.48370174" lon="-5.28223627"><ele>2034</ele><speed>6.87</speed><time>2016-06-30T12:18:10Z</time><pdop>12.0</pdop><geoidheight>54.00</geoidheight><course>241.9</course><type>1</type></trkpt>
      <trkpt lat="40.48347974" lon="-5.28225411"><ele>2038</ele><speed>8.51</speed><time>2016-06-30T12:18:12Z</time><pdop>11.0</pdop><geoidheight>54.00</geoidheight><course>179.5</course><type>1</type></trkpt>
      <trkpt lat="40.48326662" lon="-5.28223274"><ele>2041</ele><speed>10.99</speed><time>2016-06-30T12:18:14Z</time><pdop>10.0</pdop><geoidheight>54.00</geoidheight><course>166.7</course><type>1</type></trkpt>
      <trkpt lat="40.48305872" lon="-5.2821731"><ele>2047</ele><speed>11.46</speed><time>2016-06-30T12:18:16Z</time><pdop>9.0</pdop><geoidheight>54.00</geoidheight><course>161.0</course><type>1</type></trkpt>
      <trkpt lat="40.48287017" lon="-5.28202774"><ele>2049</ele><speed>11.61</speed><time>2016-06-30T12:18:18Z</time><pdop>9.0</pdop><geoidheight>54.00</geoidheight><course>146.0</course><type>1</type></trkpt>
      <trkpt lat="40.48271399" lon="-5.28185827"><ele>2052</ele><speed>12.36</speed><time>2016-06-30T12:18:20Z</time><pdop>9.0</pdop><geoidheight>54.00</geoidheight><course>141.4</course><type>1</type></trkpt>
      <trkpt lat="40.4825183" lon="-5.2817265"><ele>2057</ele><speed>12.38</speed><time>2016-06-30T12:18:22Z</time><pdop>9.0</pdop><geoidheight>54.00</geoidheight><course>154.4</course><type>1</type></trkpt>
      <trkpt lat="40.48233608" lon="-5.28172044"><ele>2062</ele><speed>10.00</speed><time>2016-06-30T12:18:24Z</time><pdop>9.0</pdop><geoidheight>54.00</geoidheight><course>178.9</course><type>1</type></trkpt>
      <trkpt lat="40.48221648" lon="-5.28195857"><ele>2063</ele><speed>7.59</speed><time>2016-06-30T12:18:27Z</time><pdop>10.0</pdop><geoidheight>54.00</geoidheight><course>238.7</course><type>1</type></trkpt>
      <trkpt lat="40.48233368" lon="-5.28215379"><ele>2063</ele><speed>6.38</speed><time>2016-06-30T12:18:30Z</time><pdop>11.0</pdop><geoidheight>54.00</geoidheight><course>295.8</course><type>1</type></trkpt>
      <trkpt lat="40.482623" lon="-5.28204741"><ele>2065</ele><speed>9.54</speed><time>2016-06-30T12:18:32Z</time><pdop>10.0</pdop><geoidheight>54.00</geoidheight><course>2.3</course><type>1</type></trkpt>
      <trkpt lat="40.48281697" lon="-5.28192121"><ele>2069</ele><speed>10.52</speed><time>2016-06-30T12:18:34Z</time><pdop>11.0</pdop><geoidheight>54.00</geoidheight><course>21.6</course><type>1</type></trkpt>
      <trkpt lat="40.48289624" lon="-5.28162855"><ele>2073</ele><speed>11.69</speed><time>2016-06-30T12:18:36Z</time><pdop>10.0</pdop><geoidheight>54.00</geoidheight><course>61.5</course><type>1</type></trkpt>
      <trkpt lat="40.48292027" lon="-5.28132727"><ele>2077</ele><speed>12.34</speed><time>2016-06-30T12:18:38Z</time><pdop>11.0</pdop><geoidheight>54.00</geoidheight><course>85.2</course><type>1</type></trkpt>
      <trkpt lat="40.48278033" lon="-5.28102068"><ele>2080</ele><speed>14.28</speed><time>2016-06-30T12:18:40Z</time><pdop>10.0</pdop><geoidheight>54.00</geoidheight><course>117.6</course><type>1</type></trkpt>
      <trkpt lat="40.48262241" lon="-5.28078585"><ele>2086</ele><speed>12.77</speed><time>2016-06-30T12:18:42Z</time><pdop>9.0</pdop><geoidheight>54.00</geoidheight><course>138.0</course><type>1</type></trkpt>
      <trkpt lat="40.48242216" lon="-5.2806719"><ele>2145</ele><speed>11.78</speed><time>2016-06-30T12:18:44Z</time><pdop>9.0</pdop><geoidheight>54.00</geoidheight><course>168.1</course><type>1</type></trkpt>
      <trkpt lat="40.48226782" lon="-5.28071762"><ele>2121</ele><speed>8.66</speed><time>2016-06-30T12:18:46Z</time><pdop>3.0</pdop><geoidheight>54.00</geoidheight><course>204.5</course><type>1</type></trkpt>
      <trkpt lat="40.48222845" lon="-5.28077175"><ele>2116</ele><speed>7.07</speed><time>2016-06-30T12:18:47Z</time><pdop>3.0</pdop><geoidheight>54.00</geoidheight><course>224.7</course><type>1</type></trkpt>
      <trkpt lat="40.48219449" lon="-5.28082899"><ele>2112</ele><speed>6.30</speed><time>2016-06-30T12:18:48Z</time><pdop>3.0</pdop><geoidheight>54.00</geoidheight><course>233.8</course><type>1</type></trkpt>
      <trkpt lat="40.4822216" lon="-5.28090968"><ele>2108</ele><speed>6.53</speed><time>2016-06-30T12:18:49Z</time><pdop>3.0</pdop><geoidheight>54.00</geoidheight><course>276.9</course><type>1</type></trkpt>
      <trkpt lat="40.48224652" lon="-5.28099484"><ele>2103</ele><speed>7.00</speed><time>2016-06-30T12:18:50Z</time><pdop>3.0</pdop><geoidheight>54.00</geoidheight><course>285.9</course><type>1</type></trkpt>
      <trkpt lat="40.48238817" lon="-5.2810256"><ele>2104</ele><speed>7.75</speed><time>2016-06-30T12:18:52Z</time><pdop>4.0</pdop><geoidheight>54.00</geoidheight><course>347.0</course><type>1</type></trkpt>
      <trkpt lat="40.48247073" lon="-5.28101226"><ele>2103</ele><speed>8.44</speed><time>2016-06-30T12:18:53Z</time><pdop>3.0</pdop><geoidheight>54.00</geoidheight><course>4.9</course><type>1</type></trkpt>
      <trkpt lat="40.4825512" lon="-5.28092069"><ele>2104</ele><speed>10.94</speed><time>2016-06-30T12:18:54Z</time><pdop>3.0</pdop><geoidheight>54.00</geoidheight><course>35.7</course><type>1</type></trkpt>
      <trkpt lat="40.48262486" lon="-5.28084898"><ele>2105</ele><speed>11.18</speed><time>2016-06-30T12:18:55Z</time><pdop>3.0</pdop><geoidheight>54.00</geoidheight><course>40.6</course><type>1</type></trkpt>
      <trkpt lat="40.48266858" lon="-5.28071382"><ele>2105</ele><speed>11.64</speed><time>2016-06-30T12:18:56Z</time><pdop>3.0</pdop><geoidheight>54.00</geoidheight><course>57.4</course><type>1</type></trkpt>
      <trkpt lat="40.48264797" lon="-5.28054231"><ele>2106</ele><speed>12.30</speed><time>2016-06-30T12:18:57Z</time><pdop>3.0</pdop><geoidheight>54.00</geoidheight><course>83.2</course><type>1</type></trkpt>
      <trkpt lat="40.48264455" lon="-5.28035981"><ele>2106</ele><speed>13.68</speed><time>2016-06-30T12:18:58Z</time><pdop>4.0</pdop><geoidheight>54.00</geoidheight><course>88.7</course><type>1</type></trkpt>
      <trkpt lat="40.48264281" lon="-5.28019131"><ele>2107</ele><speed>13.24</speed><time>2016-06-30T12:18:59Z</time><pdop>4.0</pdop><geoidheight>54.00</geoidheight><course>89.7</course><type>1</type></trkpt>
      <trkpt lat="40.48255976" lon="-5.28004132"><ele>2178</ele><speed>12.99</speed><time>2016-06-30T12:19:00Z</time><pdop>4.0</pdop><geoidheight>54.00</geoidheight><course>107.0</course><type>1</type></trkpt>
      <trkpt lat="40.48243649" lon="-5.27994406"><ele>2157</ele><speed>12.67</speed><time>2016-06-30T12:19:01Z</time><pdop>5.0</pdop><geoidheight>54.00</geoidheight><course>124.5</course><type>1</type></trkpt>
      <trkpt lat="40.48227578" lon="-5.27992313"><ele>2147</ele><speed>12.91</speed><time>2016-06-30T12:19:02Z</time><pdop>5.0</pdop><geoidheight>54.00</geoidheight><course>154.6</course><type>1</type></trkpt>
      <trkpt lat="40.48209244" lon="-5.27994986"><ele>2129</ele><speed>9.69</speed><time>2016-06-30T12:19:04Z</time><pdop>3.0</pdop><geoidheight>54.00</geoidheight><course>184.4</course><type>1</type></trkpt>
      <trkpt lat="40.48202459" lon="-5.2799833"><ele>2128</ele><speed>8.62</speed><time>2016-06-30T12:19:05Z</time><pdop>3.0</pdop><geoidheight>54.00</geoidheight><course>195.0</course><type>1</type></trkpt>
      <trkpt lat="40.48196442" lon="-5.28002763"><ele>2128</ele><speed>7.71</speed><time>2016-06-30T12:19:06Z</time><pdop>3.0</pdop><geoidheight>54.00</geoidheight><course>210.0</course><type>1</type></trkpt>
      <trkpt lat="40.48194405" lon="-5.28010491"><ele>2122</ele><speed>6.58</speed><time>2016-06-30T12:19:07Z</time><pdop>3.0</pdop><geoidheight>54.00</geoidheight><course>243.7</course><type>1</type></trkpt>
      <trkpt lat="40.4819477" lon="-5.2801809"><ele>2119</ele><speed>6.68</speed><time>2016-06-30T12:19:08Z</time><pdop>3.0</pdop><geoidheight>54.00</geoidheight><course>269.5</course><type>1</type></trkpt>
      <trkpt lat="40.48196803" lon="-5.28025987"><ele>2117</ele><speed>6.87</speed><time>2016-06-30T12:19:09Z</time><pdop>3.0</pdop><geoidheight>54.00</geoidheight><course>289.7</course><type>1</type></trkpt>
      <trkpt lat="40.48199322" lon="-5.28032923"><ele>2117</ele><speed>6.95</speed><time>2016-06-30T12:19:10Z</time><pdop>3.0</pdop><geoidheight>54.00</geoidheight><course>296.6</course><type>1</type></trkpt>
      <trkpt lat="40.48203793" lon="-5.28040009"><ele>2117</ele><speed>7.31</speed><time>2016-06-30T12:19:11Z</time><pdop>4.0</pdop><geoidheight>54.00</geoidheight><course>306.1</course><type>1</type></trkpt>
      <trkpt lat="40.48216734" lon="-5.28040472"><ele>2117</ele><speed>6.59</speed><time>2016-06-30T12:19:13Z</time><pdop>6.0</pdop><geoidheight>54.00</geoidheight><course>340.5</course><type>1</type></trkpt>
      <trkpt lat="40.48225391" lon="-5.28029384"><ele>2120</ele><speed>7.56</speed><time>2016-06-30T12:19:15Z</time><pdop>6.0</pdop><geoidheight>54.00</geoidheight><course>30.1</course><type>1</type></trkpt>
      <trkpt lat="40.48238001" lon="-5.28009376"><ele>2121</ele><speed>11.14</speed><time>2016-06-30T12:19:17Z</time><pdop>5.0</pdop><geoidheight>54.00</geoidheight><course>47.4</course><type>1</type></trkpt>
      <trkpt lat="40.48244231" lon="-5.27996894"><ele>2124</ele><speed>11.54</speed><time>2016-06-30T12:19:18Z</time><pdop>5.0</pdop><geoidheight>54.00</geoidheight><course>51.8</course><type>1</type></trkpt>
      <trkpt lat="40.48249613" lon="-5.27984796"><ele>2123</ele><speed>11.29</speed><time>2016-06-30T12:19:19Z</time><pdop>5.0</pdop><geoidheight>54.00</geoidheight><course>54.2</course><type>1</type></trkpt>
      <trkpt lat="40.48254106" lon="-5.27971801"><ele>2123</ele><speed>11.40</speed><time>2016-06-30T12:19:20Z</time><pdop>4.0</pdop><geoidheight>54.00</geoidheight><course>58.5</course><type>1</type></trkpt>
      <trkpt lat="40.48260087" lon="-5.2795828"><ele>2123</ele><speed>12.16</speed><time>2016-06-30T12:19:21Z</time><pdop>5.0</pdop><geoidheight>54.00</geoidheight><course>60.1</course><type>1</type></trkpt>
      <trkpt lat="40.48264077" lon="-5.27943876"><ele>2123</ele><speed>12.49</speed><time>2016-06-30T12:19:22Z</time><pdop>5.0</pdop><geoidheight>54.00</geoidheight><course>67.0</course><type>1</type></trkpt>
      <trkpt lat="40.48267793" lon="-5.2792936"><ele>2124</ele><speed>13.13</speed><time>2016-06-30T12:19:23Z</time><pdop>5.0</pdop><geoidheight>54.00</geoidheight><course>69.2</course><type>1</type></trkpt>
      <trkpt lat="40.48271752" lon="-5.27913467"><ele>2125</ele><speed>13.54</speed><time>2016-06-30T12:19:24Z</time><pdop>6.0</pdop><geoidheight>54.00</geoidheight><course>70.4</course><type>1</type></trkpt>
      <trkpt lat="40.48275727" lon="-5.27898392"><ele>2125</ele><speed>13.48</speed><time>2016-06-30T12:19:25Z</time><pdop>6.0</pdop><geoidheight>54.00</geoidheight><course>70.9</course><type>1</type></trkpt>
      <trkpt lat="40.482838" lon="-5.27884158"><ele>2129</ele><speed>13.49</speed><time>2016-06-30T12:19:26Z</time><pdop>5.0</pdop><geoidheight>54.00</geoidheight><course>62.0</course><type>1</type></trkpt>
      <trkpt lat="40.4829137" lon="-5.2787135"><ele>2131</ele><speed>12.94</speed><time>2016-06-30T12:19:27Z</time><pdop>5.0</pdop><geoidheight>54.00</geoidheight><course>57.5</course><type>1</type></trkpt>
      <trkpt lat="40.48299367" lon="-5.27860148"><ele>2132</ele><speed>12.29</speed><time>2016-06-30T12:19:28Z</time><pdop>5.0</pdop><geoidheight>54.00</geoidheight><course>55.2</course><type>1</type></trkpt>
      <trkpt lat="40.48305609" lon="-5.2784755"><ele>2133</ele><speed>12.10</speed><time>2016-06-30T12:19:29Z</time><pdop>4.0</pdop><geoidheight>54.00</geoidheight><course>55.0</course><type>1</type></trkpt>
      <trkpt lat="40.48312472" lon="-5.27835279"><ele>2136</ele><speed>12.20</speed><time>2016-06-30T12:19:30Z</time><pdop>4.0</pdop><geoidheight>54.00</geoidheight><course>55.1</course><type>1</type></trkpt>
      <trkpt lat="40.48318817" lon="-5.27823643"><ele>2138</ele><speed>12.49</speed><time>2016-06-30T12:19:31Z</time><pdop>4.0</pdop><geoidheight>54.00</geoidheight><course>55.9</course><type>1</type></trkpt>
      <trkpt lat="40.4832656" lon="-5.27811424"><ele>2140</ele><speed>13.06</speed><time>2016-06-30T12:19:32Z</time><pdop>6.0</pdop><geoidheight>54.00</geoidheight><course>55.9</course><type>1</type></trkpt>
      <trkpt lat="40.48332146" lon="-5.27796742"><ele>2141</ele><speed>13.69</speed><time>2016-06-30T12:19:33Z</time><pdop>6.0</pdop><geoidheight>54.00</geoidheight><course>62.6</course><type>1</type></trkpt>
      <trkpt lat="40.48332509" lon="-5.27779727"><ele>2143</ele><speed>13.96</speed><time>2016-06-30T12:19:34Z</time><pdop>5.0</pdop><geoidheight>54.00</geoidheight><course>80.5</course><type>1</type></trkpt>
      <trkpt lat="40.48334255" lon="-5.27763584"><ele>2145</ele><speed>14.04</speed><time>2016-06-30T12:19:35Z</time><pdop>4.0</pdop><geoidheight>54.00</geoidheight><course>87.1</course><type>1</type></trkpt>
      <trkpt lat="40.48334021" lon="-5.27746818"><ele>2145</ele><speed>13.83</speed><time>2016-06-30T12:19:36Z</time><pdop>4.0</pdop><geoidheight>54.00</geoidheight><course>88.8</course><type>1</type></trkpt>
      <trkpt lat="40.48329781" lon="-5.27735837"><ele>2146</ele><speed>11.81</speed><time>2016-06-30T12:19:37Z</time><pdop>6.0</pdop><geoidheight>54.00</geoidheight><course>98.1</course><type>1</type></trkpt>
      <trkpt lat="40.48305211" lon="-5.27736535"><ele>2147</ele><speed>9.51</speed><time>2016-06-30T12:19:39Z</time><pdop>5.0</pdop><geoidheight>54.00</geoidheight><course>174.3</course><type>1</type></trkpt>
      <trkpt lat="40.48296258" lon="-5.27739945"><ele>2150</ele><speed>9.17</speed><time>2016-06-30T12:19:40Z</time><pdop>5.0</pdop><geoidheight>54.00</geoidheight><course>196.7</course><type>1</type></trkpt>
      <trkpt lat="40.4828859" lon="-5.27744275"><ele>2150</ele><speed>8.38</speed><time>2016-06-30T12:19:41Z</time><pdop>4.0</pdop><geoidheight>54.00</geoidheight><course>215.2</course><type>1</type></trkpt>
      <trkpt lat="40.48285132" lon="-5.2776133"><ele>2151</ele><speed>7.11</speed><time>2016-06-30T12:19:43Z</time><pdop>4.0</pdop><geoidheight>54.00</geoidheight><course>257.5</course><type>1</type></trkpt>
      <trkpt lat="40.48293508" lon="-5.27770001"><ele>2151</ele><speed>6.57</speed><time>2016-06-30T12:19:45Z</time><pdop>6.0</pdop><geoidheight>54.00</geoidheight><course>312.8</course><type>1</type></trkpt>
      <trkpt lat="40.48306535" lon="-5.27775117"><ele>2146</ele><speed>7.70</speed><time>2016-06-30T12:19:47Z</time><pdop>6.0</pdop><geoidheight>54.00</geoidheight><course>344.8</course><type>1</type></trkpt>
      <trkpt lat="40.48322709" lon="-5.27765658"><ele>2155</ele><speed>9.48</speed><time>2016-06-30T12:19:49Z</time><pdop>7.0</pdop><geoidheight>54.00</geoidheight><course>18.3</course><type>1</type></trkpt>
      <trkpt lat="40.48326633" lon="-5.2774931"><ele>2157</ele><speed>11.02</speed><time>2016-06-30T12:19:50Z</time><pdop>6.0</pdop><geoidheight>54.00</geoidheight><course>47.9</course><type>1</type></trkpt>
      <trkpt lat="40.4833316" lon="-5.27721155"><ele>2160</ele><speed>11.77</speed><time>2016-06-30T12:19:52Z</time><pdop>6.0</pdop><geoidheight>54.00</geoidheight><course>74.8</course><type>1</type></trkpt>
      <trkpt lat="40.48334151" lon="-5.27700701"><ele>2161</ele><speed>13.57</speed><time>2016-06-30T12:19:53Z</time><pdop>7.0</pdop><geoidheight>54.00</geoidheight><course>80.2</course><type>1</type></trkpt>
      <trkpt lat="40.48335275" lon="-5.27681532"><ele>2162</ele><speed>14.31</speed><time>2016-06-30T12:19:54Z</time><pdop>7.0</pdop><geoidheight>54.00</geoidheight><course>82.8</course><type>1</type></trkpt>
      <trkpt lat="40.48323344" lon="-5.27653245"><ele>2165</ele><speed>11.88</speed><time>2016-06-30T12:19:56Z</time><pdop>6.0</pdop><geoidheight>54.00</geoidheight><course>107.9</course><type>1</type></trkpt>
      <trkpt lat="40.48312216" lon="-5.27642333"><ele>2170</ele><speed>11.76</speed><time>2016-06-30T12:19:57Z</time><pdop>6.0</pdop><geoidheight>54.00</geoidheight><course>123.3</course><type>1</type></trkpt>
      <trkpt lat="40.48299487" lon="-5.27635694"><ele>2171</ele><speed>12.41</speed><time>2016-06-30T12:19:58Z</time><pdop>6.0</pdop><geoidheight>54.00</geoidheight><course>142.6</course><type>1</type></trkpt>
      <trkpt lat="40.48287993" lon="-5.27636211"><ele>2170</ele><speed>11.68</speed><time>2016-06-30T12:19:59Z</time><pdop>6.0</pdop><geoidheight>54.00</geoidheight><course>163.7</course><type>1</type></trkpt>
      <trkpt lat="40.48282385" lon="-5.2764655"><ele>2170</ele><speed>8.95</speed><time>2016-06-30T12:20:00Z</time><pdop>4.0</pdop><geoidheight>54.00</geoidheight><course>199.7</course><type>1</type></trkpt>
      <trkpt lat="40.48274926" lon="-5.27652118"><ele>2170</ele><speed>8.48</speed><time>2016-06-30T12:20:01Z</time><pdop>4.0</pdop><geoidheight>54.00</geoidheight><course>209.7</course><type>1</type></trkpt>
      <trkpt lat="40.48265775" lon="-5.27663574"><ele>2171</ele><speed>7.64</speed><time>2016-06-30T12:20:03Z</time><pdop>6.0</pdop><geoidheight>54.00</geoidheight><course>223.2</course><type>1</type></trkpt>
      <trkpt lat="40.48274438" lon="-5.27670133"><ele>2173</ele><speed>6.17</speed><time>2016-06-30T12:20:04Z</time><pdop>4.0</pdop><geoidheight>54.00</geoidheight><course>286.0</course><type>1</type></trkpt>
      <trkpt lat="40.48280038" lon="-5.27681889"><ele>2178</ele><speed>5.42</speed><time>2016-06-30T12:20:06Z</time><pdop>3.0</pdop><geoidheight>54.00</geoidheight><course>311.2</course><type>1</type></trkpt>
      <trkpt lat="40.48288009" lon="-5.27690731"><ele>2180</ele><speed>6.62</speed><time>2016-06-30T12:20:08Z</time><pdop>3.0</pdop><geoidheight>54.00</geoidheight><course>324.6</course><type>1</type></trkpt>
      <trkpt lat="40.48292462" lon="-5.27695322"><ele>2182</ele><speed>7.23</speed><time>2016-06-30T12:20:09Z</time><pdop>3.0</pdop><geoidheight>54.00</geoidheight><course>324.6</course><type>1</type></trkpt>
      <trkpt lat="40.48299339" lon="-5.27698404"><ele>2184</ele><speed>8.80</speed><time>2016-06-30T12:20:10Z</time><pdop>3.0</pdop><geoidheight>54.00</geoidheight><course>338.6</course><type>1</type></trkpt>
      <trkpt lat="40.48307375" lon="-5.27702366"><ele>2185</ele><speed>8.97</speed><time>2016-06-30T12:20:11Z</time><pdop>4.0</pdop><geoidheight>54.00</geoidheight><course>341.2</course><type>1</type></trkpt>
      <trkpt lat="40.48314921" lon="-5.27703932"><ele>2185</ele><speed>8.76</speed><time>2016-06-30T12:20:12Z</time><pdop>4.0</pdop><geoidheight>54.00</geoidheight><course>347.3</course><type>1</type></trkpt>
      <trkpt lat="40.48323334" lon="-5.27699954"><ele>2186</ele><speed>9.09</speed><time>2016-06-30T12:20:13Z</time><pdop>5.0</pdop><geoidheight>54.00</geoidheight><course>5.0</course><type>1</type></trkpt>
      <trkpt lat="40.48328344" lon="-5.27688197"><ele>2189</ele><speed>9.27</speed><time>2016-06-30T12:20:14Z</time><pdop>4.0</pdop><geoidheight>54.00</geoidheight><course>38.4</course><type>1</type></trkpt>
      <trkpt lat="40.48332335" lon="-5.2767882"><ele>2189</ele><speed>9.68</speed><time>2016-06-30T12:20:15Z</time><pdop>4.0</pdop><geoidheight>54.00</geoidheight><course>54.5</course><type>1</type></trkpt>
      <trkpt lat="40.48335714" lon="-5.27670214"><ele>2191</ele><speed>10.21</speed><time>2016-06-30T12:20:16Z</time><pdop>4.0</pdop><geoidheight>54.00</geoidheight><course>62.2</course><type>1</type></trkpt>
      <trkpt lat="40.48337154" lon="-5.27656179"><ele>2191</ele><speed>10.98</speed><time>2016-06-30T12:20:17Z</time><pdop>5.0</pdop><geoidheight>54.00</geoidheight><course>74.4</course><type>1</type></trkpt>
      <trkpt lat="40.48334616" lon="-5.27641496"><ele>2191</ele><speed>11.70</speed><time>2016-06-30T12:20:18Z</time><pdop>5.0</pdop><geoidheight>54.00</geoidheight><course>89.7</course><type>1</type></trkpt>
      <trkpt lat="40.48332063" lon="-5.27625726"><ele>2192</ele><speed>12.14</speed><time>2016-06-30T12:20:19Z</time><pdop>5.0</pdop><geoidheight>54.00</geoidheight><course>97.7</course><type>1</type></trkpt>
      <trkpt lat="40.4832516" lon="-5.27611806"><ele>2193</ele><speed>11.98</speed><time>2016-06-30T12:20:20Z</time><pdop>5.0</pdop><geoidheight>54.00</geoidheight><course>113.3</course><type>1</type></trkpt>
      <trkpt lat="40.48315197" lon="-5.27603192"><ele>2194</ele><speed>12.31</speed><time>2016-06-30T12:20:21Z</time><pdop>4.0</pdop><geoidheight>54.00</geoidheight><course>139.5</course><type>1</type></trkpt>
      <trkpt lat="40.48306999" lon="-5.27595579"><ele>2196</ele><speed>11.49</speed><time>2016-06-30T12:20:22Z</time><pdop>5.0</pdop><geoidheight>54.00</geoidheight><course>150.0</course><type>1</type></trkpt>
      <trkpt lat="40.48296854" lon="-5.27590923"><ele>2198</ele><speed>11.17</speed><time>2016-06-30T12:20:23Z</time><pdop>5.0</pdop><geoidheight>54.00</geoidheight><course>162.0</course><type>1</type></trkpt>
      <trkpt lat="40.48285394" lon="-5.27593608"><ele>2203</ele><speed>7.15</speed><time>2016-06-30T12:20:25Z</time><pdop>4.0</pdop><geoidheight>54.00</geoidheight><course>191.0</course><type>1</type></trkpt>
      <trkpt lat="40.48287062" lon="-5.27608715"><ele>2206</ele><speed>4.86</speed><time>2016-06-30T12:20:28Z</time><pdop>6.0</pdop><geoidheight>54.00</geoidheight><course>296.5</course><type>1</type></trkpt>
      <trkpt lat="40.48297623" lon="-5.27622907"><ele>2207</ele><speed>6.56</speed><time>2016-06-30T12:20:30Z</time><pdop>6.0</pdop><geoidheight>54.00</geoidheight><course>313.4</course><type>1</type></trkpt>
      <trkpt lat="40.48316366" lon="-5.27610215"><ele>2211</ele><speed>9.58</speed><time>2016-06-30T12:20:32Z</time><pdop>5.0</pdop><geoidheight>54.00</geoidheight><course>13.1</course><type>1</type></trkpt>
      <trkpt lat="40.48331894" lon="-5.27600268"><ele>2218</ele><speed>10.55</speed><time>2016-06-30T12:20:34Z</time><pdop>4.0</pdop><geoidheight>54.00</geoidheight><course>30.8</course><type>1</type></trkpt>
      <trkpt lat="40.48339991" lon="-5.27591865"><ele>2222</ele><speed>11.54</speed><time>2016-06-30T12:20:35Z</time><pdop>4.0</pdop><geoidheight>54.00</geoidheight><course>42.2</course><type>1</type></trkpt>
      <trkpt lat="40.48348202" lon="-5.27582899"><ele>2223</ele><speed>11.88</speed><time>2016-06-30T12:20:36Z</time><pdop>5.0</pdop><geoidheight>54.00</geoidheight><course>45.3</course><type>1</type></trkpt>
      <trkpt lat="40.48351435" lon="-5.27567928"><ele>2225</ele><speed>13.02</speed><time>2016-06-30T12:20:37Z</time><pdop>5.0</pdop><geoidheight>54.00</geoidheight><course>62.0</course><type>1</type></trkpt>
      <trkpt lat="40.48351921" lon="-5.27552064"><ele>2228</ele><speed>13.68</speed><time>2016-06-30T12:20:38Z</time><pdop>5.0</pdop><geoidheight>54.00</geoidheight><course>75.1</course><type>1</type></trkpt>
      <trkpt lat="40.48347704" lon="-5.2753386"><ele>2229</ele><speed>14.64</speed><time>2016-06-30T12:20:39Z</time><pdop>4.0</pdop><geoidheight>54.00</geoidheight><course>96.4</course><type>1</type></trkpt>
      <trkpt lat="40.48343006" lon="-5.2751836"><ele>2216</ele><speed>14.46</speed><time>2016-06-30T12:20:40Z</time><pdop>3.0</pdop><geoidheight>54.00</geoidheight><course>108.3</course><type>1</type></trkpt>
      <trkpt lat="40.48336858" lon="-5.27505339"><ele>2222</ele><speed>13.25</speed><time>2016-06-30T12:20:41Z</time><pdop>3.0</pdop><geoidheight>54.00</geoidheight><course>120.4</course><type>1</type></trkpt>
      <trkpt lat="40.48329494" lon="-5.27495594"><ele>2228</ele><speed>11.83</speed><time>2016-06-30T12:20:42Z</time><pdop>3.0</pdop><geoidheight>54.00</geoidheight><course>134.9</course><type>1</type></trkpt>
      <trkpt lat="40.48321594" lon="-5.27488435"><ele>2232</ele><speed>10.78</speed><time>2016-06-30T12:20:43Z</time><pdop>3.0</pdop><geoidheight>54.00</geoidheight><course>147.9</course><type>1</type></trkpt>
      <trkpt lat="40.48313393" lon="-5.27483805"><ele>2235</ele><speed>10.34</speed><time>2016-06-30T12:20:44Z</time><pdop>3.0</pdop><geoidheight>54.00</geoidheight><course>159.8</course><type>1</type></trkpt>
      <trkpt lat="40.48306099" lon="-5.27482463"><ele>2239</ele><speed>9.43</speed><time>2016-06-30T12:20:45Z</time><pdop>3.0</pdop><geoidheight>54.00</geoidheight><course>170.3</course><type>1</type></trkpt>
      <trkpt lat="40.48298189" lon="-5.27479918"><ele>2240</ele><speed>9.33</speed><time>2016-06-30T12:20:46Z</time><pdop>4.0</pdop><geoidheight>54.00</geoidheight><course>167.7</course><type>1</type></trkpt>
      <trkpt lat="40.48285652" lon="-5.27490799"><ele>2247</ele><speed>4.78</speed><time>2016-06-30T12:20:49Z</time><pdop>5.0</pdop><geoidheight>54.00</geoidheight><course>212.8</course><type>1</type></trkpt>
      <trkpt lat="40.48285993" lon="-5.2750393"><ele>2248</ele><speed>6.95</speed><time>2016-06-30T12:20:50Z</time><pdop>4.0</pdop><geoidheight>54.00</geoidheight><course>252.7</course><type>1</type></trkpt>
      <trkpt lat="40.48285132" lon="-5.2751283"><ele>2251</ele><speed>7.19</speed><time>2016-06-30T12:20:51Z</time><pdop>3.0</pdop><geoidheight>54.00</geoidheight><course>264.8</course><type>1</type></trkpt>
      <trkpt lat="40.48286546" lon="-5.27521105"><ele>2254</ele><speed>6.92</speed><time>2016-06-30T12:20:52Z</time><pdop>3.0</pdop><geoidheight>54.00</geoidheight><course>284.0</course><type>1</type></trkpt>
      <trkpt lat="40.48288748" lon="-5.27527634"><ele>2256</ele><speed>6.57</speed><time>2016-06-30T12:20:53Z</time><pdop>3.0</pdop><geoidheight>54.00</geoidheight><course>293.7</course><type>1</type></trkpt>
      <trkpt lat="40.48300895" lon="-5.27532532"><ele>2257</ele><speed>7.22</speed><time>2016-06-30T12:20:55Z</time><pdop>4.0</pdop><geoidheight>54.00</geoidheight><course>334.9</course><type>1</type></trkpt>
      <trkpt lat="40.48312405" lon="-5.27527916"><ele>2256</ele><speed>9.39</speed><time>2016-06-30T12:20:56Z</time><pdop>3.0</pdop><geoidheight>54.00</geoidheight><course>1.6</course><type>1</type></trkpt>
      <trkpt lat="40.48319991" lon="-5.27525018"><ele>2258</ele><speed>9.15</speed><time>2016-06-30T12:20:57Z</time><pdop>4.0</pdop><geoidheight>54.00</geoidheight><course>7.9</course><type>1</type></trkpt>
      <trkpt lat="40.48331887" lon="-5.27514133"><ele>2258</ele><speed>12.16</speed><time>2016-06-30T12:20:58Z</time><pdop>4.0</pdop><geoidheight>54.00</geoidheight><course>22.0</course><type>1</type></trkpt>
      <trkpt lat="40.48338356" lon="-5.27502838"><ele>2262</ele><speed>11.58</speed><time>2016-06-30T12:20:59Z</time><pdop>5.0</pdop><geoidheight>54.00</geoidheight><course>31.7</course><type>1</type></trkpt>
      <trkpt lat="40.48336293" lon="-5.27464582"><ele>2264</ele><speed>13.20</speed><time>2016-06-30T12:21:01Z</time><pdop>7.0</pdop><geoidheight>54.00</geoidheight><course>81.1</course><type>1</type></trkpt>
      <trkpt lat="40.48332782" lon="-5.27443763"><ele>2266</ele><speed>14.68</speed><time>2016-06-30T12:21:02Z</time><pdop>7.0</pdop><geoidheight>54.00</geoidheight><course>93.4</course><type>1</type></trkpt>
      <trkpt lat="40.48326936" lon="-5.27424708"><ele>2268</ele><speed>15.32</speed><time>2016-06-30T12:21:03Z</time><pdop>7.0</pdop><geoidheight>54.00</geoidheight><course>102.6</course><type>1</type></trkpt>
      <trkpt lat="40.48318065" lon="-5.27406801"><ele>2275</ele><speed>15.36</speed><time>2016-06-30T12:21:04Z</time><pdop>4.0</pdop><geoidheight>54.00</geoidheight><course>117.6</course><type>1</type></trkpt>
      <trkpt lat="40.48312844" lon="-5.27392406"><ele>2279</ele><speed>13.53</speed><time>2016-06-30T12:21:05Z</time><pdop>4.0</pdop><geoidheight>54.00</geoidheight><course>124.9</course><type>1</type></trkpt>
      <trkpt lat="40.4830591" lon="-5.27381112"><ele>2282</ele><speed>12.73</speed><time>2016-06-30T12:21:06Z</time><pdop>4.0</pdop><geoidheight>54.00</geoidheight><course>133.8</course><type>1</type></trkpt>
      <trkpt lat="40.4829797" lon="-5.27377819"><ele>2284</ele><speed>10.37</speed><time>2016-06-30T12:21:07Z</time><pdop>3.0</pdop><geoidheight>54.00</geoidheight><course>154.6</course><type>1</type></trkpt>
      <trkpt lat="40.48289017" lon="-5.27374805"><ele>2285</ele><speed>10.28</speed><time>2016-06-30T12:21:08Z</time><pdop>3.0</pdop><geoidheight>54.00</geoidheight><course>163.2</course><type>1</type></trkpt>
      <trkpt lat="40.48280619" lon="-5.27373721"><ele>2288</ele><speed>9.79</speed><time>2016-06-30T12:21:09Z</time><pdop>3.0</pdop><geoidheight>54.00</geoidheight><course>171.4</course><type>1</type></trkpt>
      <trkpt lat="40.48272484" lon="-5.27374945"><ele>2289</ele><speed>9.37</speed><time>2016-06-30T12:21:10Z</time><pdop>3.0</pdop><geoidheight>54.00</geoidheight><course>185.5</course><type>1</type></trkpt>
      <trkpt lat="40.48266699" lon="-5.27379687"><ele>2292</ele><speed>8.17</speed><time>2016-06-30T12:21:11Z</time><pdop>3.0</pdop><geoidheight>54.00</geoidheight><course>207.9</course><type>1</type></trkpt>
      <trkpt lat="40.4826308" lon="-5.27386365"><ele>2292</ele><speed>6.78</speed><time>2016-06-30T12:21:12Z</time><pdop>3.0</pdop><geoidheight>54.00</geoidheight><course>230.2</course><type>1</type></trkpt>
      <trkpt lat="40.48258406" lon="-5.27395379"><ele>2293</ele><speed>4.28</speed><time>2016-06-30T12:21:14Z</time><pdop>4.0</pdop><geoidheight>54.00</geoidheight><course>238.0</course><type>1</type></trkpt>
      <trkpt lat="40.48266003" lon="-5.27403924"><ele>2293</ele><speed>6.03</speed><time>2016-06-30T12:21:15Z</time><pdop>4.0</pdop><geoidheight>54.00</geoidheight><course>299.8</course><type>1</type></trkpt>
      <trkpt lat="40.48273976" lon="-5.27407806"><ele>2293</ele><speed>7.13</speed><time>2016-06-30T12:21:16Z</time><pdop>4.0</pdop><geoidheight>54.00</geoidheight><course>325.0</course><type>1</type></trkpt>
      <trkpt lat="40.48284073" lon="-5.27406213"><ele>2291</ele><speed>8.62</speed><time>2016-06-30T12:21:17Z</time><pdop>4.0</pdop><geoidheight>54.00</geoidheight><course>345.4</course><type>1</type></trkpt>
      <trkpt lat="40.4829154" lon="-5.27401511"><ele>2297</ele><speed>9.52</speed><time>2016-06-30T12:21:18Z</time><pdop>3.0</pdop><geoidheight>54.00</geoidheight><course>12.2</course><type>1</type></trkpt>
      <trkpt lat="40.48299378" lon="-5.27395703"><ele>2300</ele><speed>9.82</speed><time>2016-06-30T12:21:19Z</time><pdop>3.0</pdop><geoidheight>54.00</geoidheight><course>27.2</course><type>1</type></trkpt>
      <trkpt lat="40.48306281" lon="-5.27387199"><ele>2303</ele><speed>10.74</speed><time>2016-06-30T12:21:20Z</time><pdop>3.0</pdop><geoidheight>54.00</geoidheight><course>43.3</course><type>1</type></trkpt>
      <trkpt lat="40.48311311" lon="-5.27373638"><ele>2304</ele><speed>12.32</speed><time>2016-06-30T12:21:21Z</time><pdop>3.0</pdop><geoidheight>54.00</geoidheight><course>59.2</course><type>1</type></trkpt>
      <trkpt lat="40.48314937" lon="-5.27358593"><ele>2305</ele><speed>13.40</speed><time>2016-06-30T12:21:22Z</time><pdop>3.0</pdop><geoidheight>54.00</geoidheight><course>70.5</course><type>1</type></trkpt>
      <trkpt lat="40.48316611" lon="-5.27342706"><ele>2307</ele><speed>13.87</speed><time>2016-06-30T12:21:23Z</time><pdop>3.0</pdop><geoidheight>54.00</geoidheight><course>79.7</course><type>1</type></trkpt>
      <trkpt lat="40.48317353" lon="-5.27327348"><ele>2308</ele><speed>13.40</speed><time>2016-06-30T12:21:24Z</time><pdop>3.0</pdop><geoidheight>54.00</geoidheight><course>85.1</course><type>1</type></trkpt>
      <trkpt lat="40.48316976" lon="-5.27312552"><ele>2310</ele><speed>12.76</speed><time>2016-06-30T12:21:25Z</time><pdop>4.0</pdop><geoidheight>54.00</geoidheight><course>90.6</course><type>1</type></trkpt>
      <trkpt lat="40.4831566" lon="-5.27298262"><ele>2312</ele><speed>11.78</speed><time>2016-06-30T12:21:26Z</time><pdop>5.0</pdop><geoidheight>54.00</geoidheight><course>97.0</course><type>1</type></trkpt>
      <trkpt lat="40.48306383" lon="-5.27288487"><ele>2313</ele><speed>11.44</speed><time>2016-06-30T12:21:27Z</time><pdop>3.0</pdop><geoidheight>54.00</geoidheight><course>123.3</course><type>1</type></trkpt>
      <trkpt lat="40.48298511" lon="-5.27280012"><ele>2314</ele><speed>11.51</speed><time>2016-06-30T12:21:28Z</time><pdop>3.0</pdop><geoidheight>54.00</geoidheight><course>141.1</course><type>1</type></trkpt>
      <trkpt lat="40.48289392" lon="-5.27273984"><ele>2315</ele><speed>11.21</speed><time>2016-06-30T12:21:29Z</time><pdop>3.0</pdop><geoidheight>54.00</geoidheight><course>158.4</course><type>1</type></trkpt>
      <trkpt lat="40.48280106" lon="-5.27274403"><ele>2316</ele><speed>10.73</speed><time>2016-06-30T12:21:30Z</time><pdop>3.0</pdop><geoidheight>54.00</geoidheight><course>175.8</course><type>1</type></trkpt>
      <trkpt lat="40.4827286" lon="-5.27277701"><ele>2316</ele><speed>9.27</speed><time>2016-06-30T12:21:31Z</time><pdop>3.0</pdop><geoidheight>54.00</geoidheight><course>194.6</course><type>1</type></trkpt>
      <trkpt lat="40.48268205" lon="-5.27284088"><ele>2318</ele><speed>7.70</speed><time>2016-06-30T12:21:32Z</time><pdop>3.0</pdop><geoidheight>54.00</geoidheight><course>222.7</course><type>1</type></trkpt>
      <trkpt lat="40.48267764" lon="-5.27291423"><ele>2319</ele><speed>6.36</speed><time>2016-06-30T12:21:33Z</time><pdop>3.0</pdop><geoidheight>54.00</geoidheight><course>256.5</course><type>1</type></trkpt>
      <trkpt lat="40.48270539" lon="-5.27298101"><ele>2320</ele><speed>5.87</speed><time>2016-06-30T12:21:34Z</time><pdop>3.0</pdop><geoidheight>54.00</geoidheight><course>291.4</course><type>1</type></trkpt>
      <trkpt lat="40.4827498" lon="-5.27303454"><ele>2322</ele><speed>6.34</speed><time>2016-06-30T12:21:35Z</time><pdop>3.0</pdop><geoidheight>54.00</geoidheight><course>319.1</course><type>1</type></trkpt>
      <trkpt lat="40.48281413" lon="-5.27306531"><ele>2324</ele><speed>7.30</speed><time>2016-06-30T12:21:36Z</time><pdop>3.0</pdop><geoidheight>54.00</geoidheight><course>339.6</course><type>1</type></trkpt>
      <trkpt lat="40.48288971" lon="-5.27306017"><ele>2326</ele><speed>8.33</speed><time>2016-06-30T12:21:37Z</time><pdop>3.0</pdop><geoidheight>54.00</geoidheight><course>359.1</course><type>1</type></trkpt>
      <trkpt lat="40.48297628" lon="-5.27302871"><ele>2327</ele><speed>10.01</speed><time>2016-06-30T12:21:38Z</time><pdop>3.0</pdop><geoidheight>54.00</geoidheight><course>16.1</course><type>1</type></trkpt>
      <trkpt lat="40.48307331" lon="-5.27297431"><ele>2329</ele><speed>11.83</speed><time>2016-06-30T12:21:39Z</time><pdop>3.0</pdop><geoidheight>54.00</geoidheight><course>25.3</course><type>1</type></trkpt>
      <trkpt lat="40.48316338" lon="-5.27286873"><ele>2332</ele><speed>13.36</speed><time>2016-06-30T12:21:40Z</time><pdop>3.0</pdop><geoidheight>54.00</geoidheight><course>38.4</course><type>1</type></trkpt>
      <trkpt lat="40.48323251" lon="-5.27273711"><ele>2335</ele><speed>14.05</speed><time>2016-06-30T12:21:41Z</time><pdop>3.0</pdop><geoidheight>54.00</geoidheight><course>55.6</course><type>1</type></trkpt>
      <trkpt lat="40.48326204" lon="-5.27257908"><ele>2338</ele><speed>14.14</speed><time>2016-06-30T12:21:42Z</time><pdop>3.0</pdop><geoidheight>54.00</geoidheight><course>76.1</course><type>1</type></trkpt>
      <trkpt lat="40.48328354" lon="-5.27241586"><ele>2340</ele><speed>13.95</speed><time>2016-06-30T12:21:43Z</time><pdop>3.0</pdop><geoidheight>54.00</geoidheight><course>78.6</course><type>1</type></trkpt>
      <trkpt lat="40.48318901" lon="-5.27227452"><ele>2342</ele><speed>13.69</speed><time>2016-06-30T12:21:44Z</time><pdop>3.0</pdop><geoidheight>54.00</geoidheight><course>117.1</course><type>1</type></trkpt>
      <trkpt lat="40.48313298" lon="-5.27213105"><ele>2342</ele><speed>13.67</speed><time>2016-06-30T12:21:45Z</time><pdop>3.0</pdop><geoidheight>54.00</geoidheight><course>117.1</course><type>1</type></trkpt>
      <trkpt lat="40.48302741" lon="-5.2720759"><ele>2343</ele><speed>11.58</speed><time>2016-06-30T12:21:46Z</time><pdop>3.0</pdop><geoidheight>54.00</geoidheight><course>148.8</course><type>1</type></trkpt>
      <trkpt lat="40.48293829" lon="-5.27200535"><ele>2343</ele><speed>11.56</speed><time>2016-06-30T12:21:47Z</time><pdop>4.0</pdop><geoidheight>54.00</geoidheight><course>148.8</course><type>1</type></trkpt>
      <trkpt lat="40.48285895" lon="-5.27203706"><ele>2344</ele><speed>9.45</speed><time>2016-06-30T12:21:48Z</time><pdop>3.0</pdop><geoidheight>54.00</geoidheight><course>184.7</course><type>1</type></trkpt>
      <trkpt lat="40.48279199" lon="-5.27209007"><ele>2345</ele><speed>8.46</speed><time>2016-06-30T12:21:49Z</time><pdop>3.0</pdop><geoidheight>54.00</geoidheight><course>204.1</course><type>1</type></trkpt>
      <trkpt lat="40.48272713" lon="-5.27212444"><ele>2346</ele><speed>7.84</speed><time>2016-06-30T12:21:50Z</time><pdop>4.0</pdop><geoidheight>54.00</geoidheight><course>208.3</course><type>1</type></trkpt>
      <trkpt lat="40.48264122" lon="-5.27223662"><ele>2347</ele><speed>6.47</speed><time>2016-06-30T12:21:52Z</time><pdop>8.0</pdop><geoidheight>54.00</geoidheight><course>227.7</course><type>1</type></trkpt>
      <trkpt lat="40.48282765" lon="-5.27241991"><ele>2348</ele><speed>6.65</speed><time>2016-06-30T12:21:55Z</time><pdop>9.0</pdop><geoidheight>54.00</geoidheight><course>314.7</course><type>1</type></trkpt>
      <trkpt lat="40.48298281" lon="-5.27234986"><ele>2348</ele><speed>9.64</speed><time>2016-06-30T12:21:56Z</time><pdop>7.0</pdop><geoidheight>54.00</geoidheight><course>352.8</course><type>1</type></trkpt>
      <trkpt lat="40.48305896" lon="-5.27217358"><ele>2354</ele><speed>14.10</speed><time>2016-06-30T12:21:57Z</time><pdop>5.0</pdop><geoidheight>54.00</geoidheight><course>45.0</course><type>1</type></trkpt>
      <trkpt lat="40.48313903" lon="-5.27205186"><ele>2358</ele><speed>14.30</speed><time>2016-06-30T12:21:58Z</time><pdop>5.0</pdop><geoidheight>54.00</geoidheight><course>59.6</course><type>1</type></trkpt>
      <trkpt lat="40.48320318" lon="-5.27190841"><ele>2360</ele><speed>14.18</speed><time>2016-06-30T12:21:59Z</time><pdop>5.0</pdop><geoidheight>54.00</geoidheight><course>59.6</course><type>1</type></trkpt>
      <trkpt lat="40.48321658" lon="-5.271783"><ele>2365</ele><speed>11.74</speed><time>2016-06-30T12:22:00Z</time><pdop>4.0</pdop><geoidheight>54.00</geoidheight><course>87.4</course><type>1</type></trkpt>
      <trkpt lat="40.48319159" lon="-5.27165815"><ele>2368</ele><speed>10.67</speed><time>2016-06-30T12:22:01Z</time><pdop>3.0</pdop><geoidheight>54.00</geoidheight><course>101.5</course><type>1</type></trkpt>
      <trkpt lat="40.48317241" lon="-5.27153478"><ele>2368</ele><speed>10.67</speed><time>2016-06-30T12:22:02Z</time><pdop>4.0</pdop><geoidheight>54.00</geoidheight><course>101.5</course><type>1</type></trkpt>
      <trkpt lat="40.48306027" lon="-5.2714665"><ele>2366</ele><speed>11.61</speed><time>2016-06-30T12:22:03Z</time><pdop>3.0</pdop><geoidheight>54.00</geoidheight><course>140.6</course><type>1</type></trkpt>
      <trkpt lat="40.48296791" lon="-5.27141302"><ele>2367</ele><speed>11.80</speed><time>2016-06-30T12:22:04Z</time><pdop>4.0</pdop><geoidheight>54.00</geoidheight><course>164.8</course><type>1</type></trkpt>
      <trkpt lat="40.48286764" lon="-5.27139663"><ele>2367</ele><speed>11.49</speed><time>2016-06-30T12:22:05Z</time><pdop>4.0</pdop><geoidheight>54.00</geoidheight><course>181.2</course><type>1</type></trkpt>
      <trkpt lat="40.48278415" lon="-5.2714246"><ele>2369</ele><speed>10.10</speed><time>2016-06-30T12:22:06Z</time><pdop>4.0</pdop><geoidheight>54.00</geoidheight><course>202.7</course><type>1</type></trkpt>
      <trkpt lat="40.48270125" lon="-5.27147015"><ele>2370</ele><speed>10.01</speed><time>2016-06-30T12:22:07Z</time><pdop>5.0</pdop><geoidheight>54.00</geoidheight><course>202.7</course><type>1</type></trkpt>
      <trkpt lat="40.4827219" lon="-5.27161726"><ele>2374</ele><speed>5.94</speed><time>2016-06-30T12:22:09Z</time><pdop>4.0</pdop><geoidheight>54.00</geoidheight><course>291.8</course><type>1</type></trkpt>
      <trkpt lat="40.48284613" lon="-5.271704"><ele>2376</ele><speed>8.25</speed><time>2016-06-30T12:22:11Z</time><pdop>5.0</pdop><geoidheight>54.00</geoidheight><course>342.6</course><type>1</type></trkpt>
      <trkpt lat="40.48298638" lon="-5.27174212"><ele>2378</ele><speed>7.87</speed><time>2016-06-30T12:22:13Z</time><pdop>5.0</pdop><geoidheight>54.00</geoidheight><course>353.8</course><type>1</type></trkpt>
      <trkpt lat="40.48313336" lon="-5.27173912"><ele>2374</ele><speed>8.81</speed><time>2016-06-30T12:22:15Z</time><pdop>5.0</pdop><geoidheight>54.00</geoidheight><course>11.6</course><type>1</type></trkpt>
      <trkpt lat="40.48324038" lon="-5.27168753"><ele>2368</ele><speed>9.78</speed><time>2016-06-30T12:22:16Z</time><pdop>4.0</pdop><geoidheight>54.00</geoidheight><course>9.5</course><type>1</type></trkpt>
      <trkpt lat="40.48333686" lon="-5.27167735"><ele>2367</ele><speed>11.01</speed><time>2016-06-30T12:22:17Z</time><pdop>5.0</pdop><geoidheight>54.00</geoidheight><course>8.3</course><type>1</type></trkpt>
      <trkpt lat="40.48355257" lon="-5.2716456"><ele>2362</ele><speed>15.00</speed><time>2016-06-30T12:22:19Z</time><pdop>6.0</pdop><geoidheight>54.00</geoidheight><course>6.2</course><type>1</type></trkpt>
      <trkpt lat="40.48368195" lon="-5.27162705"><ele>2358</ele><speed>15.01</speed><time>2016-06-30T12:22:20Z</time><pdop>7.0</pdop><geoidheight>54.00</geoidheight><course>6.2</course><type>1</type></trkpt>
      <trkpt lat="40.48394036" lon="-5.2715367"><ele>2357</ele><speed>14.86</speed><time>2016-06-30T12:22:22Z</time><pdop>9.0</pdop><geoidheight>54.00</geoidheight><course>12.1</course><type>1</type></trkpt>
      <trkpt lat="40.48419418" lon="-5.27144853"><ele>2358</ele><speed>14.63</speed><time>2016-06-30T12:22:24Z</time><pdop>10.0</pdop><geoidheight>54.00</geoidheight><course>13.2</course><type>1</type></trkpt>
      <trkpt lat="40.48437378" lon="-5.27131377"><ele>2359</ele><speed>13.31</speed><time>2016-06-30T12:22:26Z</time><pdop>10.0</pdop><geoidheight>54.00</geoidheight><course>23.3</course><type>1</type></trkpt>
      <trkpt lat="40.48458117" lon="-5.27119752"><ele>2356</ele><speed>13.79</speed><time>2016-06-30T12:22:28Z</time><pdop>10.0</pdop><geoidheight>54.00</geoidheight><course>22.1</course><type>1</type></trkpt>
      <trkpt lat="40.4848252" lon="-5.27112816"><ele>2355</ele><speed>13.59</speed><time>2016-06-30T12:22:30Z</time><pdop>10.0</pdop><geoidheight>54.00</geoidheight><course>16.8</course><type>1</type></trkpt>
      <trkpt lat="40.48506912" lon="-5.27105568"><ele>2354</ele><speed>13.13</speed><time>2016-06-30T12:22:32Z</time><pdop>11.0</pdop><geoidheight>54.00</geoidheight><course>11.6</course><type>1</type></trkpt>
      <trkpt lat="40.48530784" lon="-5.27105892"><ele>2351</ele><speed>12.93</speed><time>2016-06-30T12:22:34Z</time><pdop>10.0</pdop><geoidheight>54.00</geoidheight><course>6.7</course><type>1</type></trkpt>
      <trkpt lat="40.48555338" lon="-5.27099491"><ele>2347</ele><speed>11.26</speed><time>2016-06-30T12:22:37Z</time><pdop>7.0</pdop><geoidheight>54.00</geoidheight><course>11.3</course><type>1</type></trkpt>
      <trkpt lat="40.4857823" lon="-5.27096059"><ele>2219</ele><speed>12.48</speed><time>2016-06-30T12:22:39Z</time><pdop>8.0</pdop><geoidheight>54.00</geoidheight><course>11.3</course><type>1</type></trkpt>
      <trkpt lat="40.48599238" lon="-5.27086234"><ele>2270</ele><speed>12.10</speed><time>2016-06-30T12:22:41Z</time><pdop>8.0</pdop><geoidheight>54.00</geoidheight><course>18.1</course><type>1</type></trkpt>
      <trkpt lat="40.48620583" lon="-5.27079672"><ele>2296</ele><speed>12.28</speed><time>2016-06-30T12:22:43Z</time><pdop>8.0</pdop><geoidheight>54.00</geoidheight><course>17.8</course><type>1</type></trkpt>
      <trkpt lat="40.48639852" lon="-5.27078057"><ele>2311</ele><speed>11.49</speed><time>2016-06-30T12:22:45Z</time><pdop>5.0</pdop><geoidheight>54.00</geoidheight><course>8.7</course><type>1</type></trkpt>
      <trkpt lat="40.48652306" lon="-5.27073111"><ele>2313</ele><speed>13.20</speed><time>2016-06-30T12:22:46Z</time><pdop>5.0</pdop><geoidheight>54.00</geoidheight><course>11.9</course><type>1</type></trkpt>
      <trkpt lat="40.48663487" lon="-5.27069341"><ele>2315</ele><speed>13.17</speed><time>2016-06-30T12:22:47Z</time><pdop>5.0</pdop><geoidheight>54.00</geoidheight><course>11.9</course><type>1</type></trkpt>
      <trkpt lat="40.48678818" lon="-5.27067316"><ele>2315</ele><speed>13.66</speed><time>2016-06-30T12:22:48Z</time><pdop>6.0</pdop><geoidheight>54.00</geoidheight><course>8.0</course><type>1</type></trkpt>
      <trkpt lat="40.48691117" lon="-5.27064433"><ele>2313</ele><speed>13.31</speed><time>2016-06-30T12:22:49Z</time><pdop>7.0</pdop><geoidheight>54.00</geoidheight><course>6.1</course><type>1</type></trkpt>
      <trkpt lat="40.48711349" lon="-5.27063271"><ele>2313</ele><speed>12.18</speed><time>2016-06-30T12:22:51Z</time><pdop>6.0</pdop><geoidheight>54.00</geoidheight><course>5.6</course><type>1</type></trkpt>
      <trkpt lat="40.48722714" lon="-5.2706252"><ele>2314</ele><speed>12.08</speed><time>2016-06-30T12:22:52Z</time><pdop>5.0</pdop><geoidheight>54.00</geoidheight><course>4.6</course><type>1</type></trkpt>
      <trkpt lat="40.48733901" lon="-5.27062239"><ele>2311</ele><speed>13.15</speed><time>2016-06-30T12:22:53Z</time><pdop>4.0</pdop><geoidheight>54.00</geoidheight><course>2.0</course><type>1</type></trkpt>
      <trkpt lat="40.48745514" lon="-5.27061373"><ele>2309</ele><speed>14.14</speed><time>2016-06-30T12:22:54Z</time><pdop>4.0</pdop><geoidheight>54.00</geoidheight><course>3.0</course><type>1</type></trkpt>
      <trkpt lat="40.48757587" lon="-5.27059455"><ele>2310</ele><speed>13.89</speed><time>2016-06-30T12:22:55Z</time><pdop>4.0</pdop><geoidheight>54.00</geoidheight><course>7.7</course><type>1</type></trkpt>
      <trkpt lat="40.48768466" lon="-5.27055021"><ele>2309</ele><speed>12.80</speed><time>2016-06-30T12:22:56Z</time><pdop>5.0</pdop><geoidheight>54.00</geoidheight><course>11.7</course><type>1</type></trkpt>
      <trkpt lat="40.48779227" lon="-5.27051684"><ele>2311</ele><speed>11.93</speed><time>2016-06-30T12:22:57Z</time><pdop>5.0</pdop><geoidheight>54.00</geoidheight><course>13.5</course><type>1</type></trkpt>
      <trkpt lat="40.48799288" lon="-5.27046379"><ele>2307</ele><speed>12.27</speed><time>2016-06-30T12:22:59Z</time><pdop>6.0</pdop><geoidheight>54.00</geoidheight><course>10.5</course><type>1</type></trkpt>
      <trkpt lat="40.48810082" lon="-5.27044439"><ele>2302</ele><speed>13.32</speed><time>2016-06-30T12:23:00Z</time><pdop>5.0</pdop><geoidheight>54.00</geoidheight><course>10.8</course><type>1</type></trkpt>
      <trkpt lat="40.48822143" lon="-5.27040828"><ele>2299</ele><speed>14.13</speed><time>2016-06-30T12:23:01Z</time><pdop>5.0</pdop><geoidheight>54.00</geoidheight><course>9.4</course><type>1</type></trkpt>
      <trkpt lat="40.4883542" lon="-5.2703826"><ele>2299</ele><speed>14.01</speed><time>2016-06-30T12:23:02Z</time><pdop>6.0</pdop><geoidheight>54.00</geoidheight><course>8.2</course><type>1</type></trkpt>
      <trkpt lat="40.48856532" lon="-5.270345"><ele>2298</ele><speed>12.73</speed><time>2016-06-30T12:23:04Z</time><pdop>7.0</pdop><geoidheight>54.00</geoidheight><course>6.3</course><type>1</type></trkpt>
      <trkpt lat="40.48869344" lon="-5.27032479"><ele>2298</ele><speed>12.74</speed><time>2016-06-30T12:23:05Z</time><pdop>6.0</pdop><geoidheight>54.00</geoidheight><course>5.2</course><type>1</type></trkpt>
      <trkpt lat="40.48882239" lon="-5.27032555"><ele>2298</ele><speed>12.64</speed><time>2016-06-30T12:23:06Z</time><pdop>5.0</pdop><geoidheight>54.00</geoidheight><course>5.0</course><type>1</type></trkpt>
      <trkpt lat="40.48895239" lon="-5.27031972"><ele>2296</ele><speed>13.67</speed><time>2016-06-30T12:23:07Z</time><pdop>4.0</pdop><geoidheight>54.00</geoidheight><course>2.8</course><type>1</type></trkpt>
      <trkpt lat="40.48909927" lon="-5.27032107"><ele>2294</ele><speed>14.79</speed><time>2016-06-30T12:23:08Z</time><pdop>4.0</pdop><geoidheight>54.00</geoidheight><course>1.5</course><type>1</type></trkpt>
      <trkpt lat="40.48924716" lon="-5.27031544"><ele>2292</ele><speed>15.97</speed><time>2016-06-30T12:23:09Z</time><pdop>4.0</pdop><geoidheight>54.00</geoidheight><course>1.6</course><type>1</type></trkpt>
      <trkpt lat="40.48938987" lon="-5.27029599"><ele>2291</ele><speed>16.32</speed><time>2016-06-30T12:23:10Z</time><pdop>4.0</pdop><geoidheight>54.00</geoidheight><course>3.7</course><type>1</type></trkpt>
      <trkpt lat="40.48953997" lon="-5.27028593"><ele>2291</ele><speed>16.38</speed><time>2016-06-30T12:23:11Z</time><pdop>5.0</pdop><geoidheight>54.00</geoidheight><course>3.7</course><type>1</type></trkpt>
      <trkpt lat="40.48968364" lon="-5.27028548"><ele>2290</ele><speed>16.20</speed><time>2016-06-30T12:23:12Z</time><pdop>6.0</pdop><geoidheight>54.00</geoidheight><course>3.1</course><type>1</type></trkpt>
      <trkpt lat="40.48981811" lon="-5.27026158"><ele>2290</ele><speed>15.27</speed><time>2016-06-30T12:23:13Z</time><pdop>5.0</pdop><geoidheight>54.00</geoidheight><course>6.7</course><type>1</type></trkpt>
      <trkpt lat="40.48993175" lon="-5.2702278"><ele>2287</ele><speed>14.53</speed><time>2016-06-30T12:23:14Z</time><pdop>4.0</pdop><geoidheight>54.00</geoidheight><course>8.7</course><type>1</type></trkpt>
      <trkpt lat="40.49006316" lon="-5.27020556"><ele>2286</ele><speed>14.62</speed><time>2016-06-30T12:23:15Z</time><pdop>4.0</pdop><geoidheight>54.00</geoidheight><course>9.5</course><type>1</type></trkpt>
      <trkpt lat="40.49019913" lon="-5.27017189"><ele>2285</ele><speed>15.50</speed><time>2016-06-30T12:23:16Z</time><pdop>4.0</pdop><geoidheight>54.00</geoidheight><course>9.8</course><type>1</type></trkpt>
      <trkpt lat="40.49032949" lon="-5.27013178"><ele>2285</ele><speed>15.29</speed><time>2016-06-30T12:23:17Z</time><pdop>4.0</pdop><geoidheight>54.00</geoidheight><course>10.8</course><type>1</type></trkpt>
      <trkpt lat="40.49045767" lon="-5.27010371"><ele>2284</ele><speed>14.53</speed><time>2016-06-30T12:23:18Z</time><pdop>4.0</pdop><geoidheight>54.00</geoidheight><course>11.3</course><type>1</type></trkpt>
      <trkpt lat="40.49057996" lon="-5.27007739"><ele>2284</ele><speed>14.18</speed><time>2016-06-30T12:23:19Z</time><pdop>4.0</pdop><geoidheight>54.00</geoidheight><course>10.5</course><type>1</type></trkpt>
      <trkpt lat="40.49070087" lon="-5.27004744"><ele>2283</ele><speed>13.88</speed><time>2016-06-30T12:23:20Z</time><pdop>3.0</pdop><geoidheight>54.00</geoidheight><course>9.6</course><type>1</type></trkpt>
      <trkpt lat="40.49083115" lon="-5.27003502"><ele>2282</ele><speed>13.95</speed><time>2016-06-30T12:23:21Z</time><pdop>3.0</pdop><geoidheight>54.00</geoidheight><course>6.0</course><type>1</type></trkpt>
      <trkpt lat="40.49095414" lon="-5.27001973"><ele>2282</ele><speed>13.78</speed><time>2016-06-30T12:23:22Z</time><pdop>3.0</pdop><geoidheight>54.00</geoidheight><course>5.0</course><type>1</type></trkpt>
      <trkpt lat="40.491096" lon="-5.27000481"><ele>2282</ele><speed>14.42</speed><time>2016-06-30T12:23:23Z</time><pdop>10.0</pdop><geoidheight>54.00</geoidheight><course>4.2</course><type>1</type></trkpt>
      <trkpt lat="40.49133392" lon="-5.26997292"><ele>2284</ele><speed>13.59</speed><time>2016-06-30T12:23:25Z</time><pdop>10.0</pdop><geoidheight>54.00</geoidheight><course>5.0</course><type>1</type></trkpt>
      <trkpt lat="40.49152974" lon="-5.26991854"><ele>2282</ele><speed>12.16</speed><time>2016-06-30T12:23:27Z</time><pdop>10.0</pdop><geoidheight>54.00</geoidheight><course>6.4</course><type>1</type></trkpt>
      <trkpt lat="40.49175272" lon="-5.26992761"><ele>2282</ele><speed>12.14</speed><time>2016-06-30T12:23:29Z</time><pdop>11.0</pdop><geoidheight>54.00</geoidheight><course>0.9</course><type>1</type></trkpt>
      <trkpt lat="40.49194284" lon="-5.26992762"><ele>2283</ele><speed>11.49</speed><time>2016-06-30T12:23:31Z</time><pdop>10.0</pdop><geoidheight>54.00</geoidheight><course>0.3</course><type>1</type></trkpt>
      <trkpt lat="40.49218441" lon="-5.26994635"><ele>2281</ele><speed>12.68</speed><time>2016-06-30T12:23:33Z</time><pdop>10.0</pdop><geoidheight>54.00</geoidheight><course>358.8</course><type>1</type></trkpt>
      <trkpt lat="40.49245289" lon="-5.26992217"><ele>2280</ele><speed>14.34</speed><time>2016-06-30T12:23:35Z</time><pdop>11.0</pdop><geoidheight>54.00</geoidheight><course>1.0</course><type>1</type></trkpt>
      <trkpt lat="40.49295041" lon="-5.26986595"><ele>2272</ele><speed>16.89</speed><time>2016-06-30T12:23:38Z</time><pdop>11.0</pdop><geoidheight>54.00</geoidheight><course>5.1</course><type>1</type></trkpt>
      <trkpt lat="40.49319905" lon="-5.26979081"><ele>2269</ele><speed>15.15</speed><time>2016-06-30T12:23:40Z</time><pdop>10.0</pdop><geoidheight>54.00</geoidheight><course>12.5</course><type>1</type></trkpt>
      <trkpt lat="40.49347381" lon="-5.26973816"><ele>2266</ele><speed>15.62</speed><time>2016-06-30T12:23:42Z</time><pdop>10.0</pdop><geoidheight>54.00</geoidheight><course>10.7</course><type>1</type></trkpt>
      <trkpt lat="40.49376876" lon="-5.26969189"><ele>2260</ele><speed>16.72</speed><time>2016-06-30T12:23:44Z</time><pdop>10.0</pdop><geoidheight>54.00</geoidheight><course>10.2</course><type>1</type></trkpt>
      <trkpt lat="40.49405321" lon="-5.26960915"><ele>2256</ele><speed>16.52</speed><time>2016-06-30T12:23:46Z</time><pdop>10.0</pdop><geoidheight>54.00</geoidheight><course>10.5</course><type>1</type></trkpt>
      <trkpt lat="40.49433411" lon="-5.26956873"><ele>2251</ele><speed>16.01</speed><time>2016-06-30T12:23:48Z</time><pdop>10.0</pdop><geoidheight>54.00</geoidheight><course>8.0</course><type>1</type></trkpt>
      <trkpt lat="40.49463259" lon="-5.26949441"><ele>2248</ele><speed>17.10</speed><time>2016-06-30T12:23:50Z</time><pdop>10.0</pdop><geoidheight>54.00</geoidheight><course>11.0</course><type>1</type></trkpt>
      <trkpt lat="40.49497976" lon="-5.26945237"><ele>2249</ele><speed>18.16</speed><time>2016-06-30T12:23:52Z</time><pdop>10.0</pdop><geoidheight>54.00</geoidheight><course>7.2</course><type>1</type></trkpt>
      <trkpt lat="40.49518559" lon="-5.26933729"><ele>2243</ele><speed>15.17</speed><time>2016-06-30T12:23:54Z</time><pdop>10.0</pdop><geoidheight>54.00</geoidheight><course>11.9</course><type>1</type></trkpt>
      <trkpt lat="40.49546037" lon="-5.26925277"><ele>2241</ele><speed>15.30</speed><time>2016-06-30T12:23:56Z</time><pdop>10.0</pdop><geoidheight>54.00</geoidheight><course>11.6</course><type>1</type></trkpt>
      <trkpt lat="40.49574168" lon="-5.26921394"><ele>2239</ele><speed>15.89</speed><time>2016-06-30T12:23:58Z</time><pdop>11.0</pdop><geoidheight>54.00</geoidheight><course>8.0</course><type>1</type></trkpt>
      <trkpt lat="40.49594748" lon="-5.26915439"><ele>2234</ele><speed>14.70</speed><time>2016-06-30T12:24:00Z</time><pdop>11.0</pdop><geoidheight>54.00</geoidheight><course>9.8</course><type>1</type></trkpt>
      <trkpt lat="40.49627843" lon="-5.26913755"><ele>2228</ele><speed>15.96</speed><time>2016-06-30T12:24:02Z</time><pdop>10.0</pdop><geoidheight>54.00</geoidheight><course>7.5</course><type>1</type></trkpt>
      <trkpt lat="40.49648251" lon="-5.26905256"><ele>2224</ele><speed>14.36</speed><time>2016-06-30T12:24:04Z</time><pdop>10.0</pdop><geoidheight>54.00</geoidheight><course>10.3</course><type>1</type></trkpt>
      <trkpt lat="40.49673758" lon="-5.26898674"><ele>2221</ele><speed>14.26</speed><time>2016-06-30T12:24:06Z</time><pdop>10.0</pdop><geoidheight>54.00</geoidheight><course>11.6</course><type>1</type></trkpt>
      <trkpt lat="40.49699401" lon="-5.26889535"><ele>2212</ele><speed>15.37</speed><time>2016-06-30T12:24:08Z</time><pdop>9.0</pdop><geoidheight>54.00</geoidheight><course>13.8</course><type>1</type></trkpt>
      <trkpt lat="40.49725997" lon="-5.26881261"><ele>2207</ele><speed>15.17</speed><time>2016-06-30T12:24:10Z</time><pdop>10.0</pdop><geoidheight>54.00</geoidheight><course>13.5</course><type>1</type></trkpt>
      <trkpt lat="40.49755933" lon="-5.26877995"><ele>2203</ele><speed>16.00</speed><time>2016-06-30T12:24:12Z</time><pdop>9.0</pdop><geoidheight>54.00</geoidheight><course>5.9</course><type>1</type></trkpt>
      <trkpt lat="40.49782078" lon="-5.26872069"><ele>2201</ele><speed>14.86</speed><time>2016-06-30T12:24:14Z</time><pdop>9.0</pdop><geoidheight>54.00</geoidheight><course>10.7</course><type>1</type></trkpt>
      <trkpt lat="40.49807003" lon="-5.26864257"><ele>2198</ele><speed>13.86</speed><time>2016-06-30T12:24:16Z</time><pdop>9.0</pdop><geoidheight>54.00</geoidheight><course>14.3</course><type>1</type></trkpt>
      <trkpt lat="40.49831" lon="-5.26857068"><ele>2191</ele><speed>14.19</speed><time>2016-06-30T12:24:18Z</time><pdop>9.0</pdop><geoidheight>54.00</geoidheight><course>12.6</course><type>1</type></trkpt>
      <trkpt lat="40.49858954" lon="-5.26849948"><ele>2183</ele><speed>15.69</speed><time>2016-06-30T12:24:20Z</time><pdop>9.0</pdop><geoidheight>54.00</geoidheight><course>8.3</course><type>1</type></trkpt>
      <trkpt lat="40.49887991" lon="-5.26848138"><ele>2184</ele><speed>15.39</speed><time>2016-06-30T12:24:22Z</time><pdop>9.0</pdop><geoidheight>54.00</geoidheight><course>359.5</course><type>1</type></trkpt>
      <trkpt lat="40.49910409" lon="-5.26849922"><ele>2188</ele><speed>11.63</speed><time>2016-06-30T12:24:24Z</time><pdop>9.0</pdop><geoidheight>54.00</geoidheight><course>356.8</course><type>1</type></trkpt>
      <trkpt lat="40.49927349" lon="-5.26851178"><ele>2184</ele><speed>9.71</speed><time>2016-06-30T12:24:26Z</time><pdop>9.0</pdop><geoidheight>54.00</geoidheight><course>354.8</course><type>1</type></trkpt>
      <trkpt lat="40.4994763" lon="-5.26855607"><ele>2182</ele><speed>11.54</speed><time>2016-06-30T12:24:28Z</time><pdop>10.0</pdop><geoidheight>54.00</geoidheight><course>349.0</course><type>1</type></trkpt>
      <trkpt lat="40.49968209" lon="-5.2686596"><ele>2181</ele><speed>12.23</speed><time>2016-06-30T12:24:30Z</time><pdop>11.0</pdop><geoidheight>54.00</geoidheight><course>342.7</course><type>1</type></trkpt>
      <trkpt lat="40.4999813" lon="-5.26866595"><ele>2178</ele><speed>13.93</speed><time>2016-06-30T12:24:32Z</time><pdop>11.0</pdop><geoidheight>54.00</geoidheight><course>352.1</course><type>1</type></trkpt>
      <trkpt lat="40.50029898" lon="-5.26866199"><ele>2176</ele><speed>15.55</speed><time>2016-06-30T12:24:34Z</time><pdop>11.0</pdop><geoidheight>54.00</geoidheight><course>357.3</course><type>1</type></trkpt>
      <trkpt lat="40.5005689" lon="-5.26864265"><ele>2172</ele><speed>16.01</speed><time>2016-06-30T12:24:36Z</time><pdop>11.0</pdop><geoidheight>54.00</geoidheight><course>1.7</course><type>1</type></trkpt>
      <trkpt lat="40.50077623" lon="-5.26858974"><ele>2174</ele><speed>11.48</speed><time>2016-06-30T12:24:38Z</time><pdop>10.0</pdop><geoidheight>54.00</geoidheight><course>6.2</course><type>1</type></trkpt>
      <trkpt lat="40.50098442" lon="-5.26856246"><ele>2166</ele><speed>7.45</speed><time>2016-06-30T12:24:42Z</time><pdop>9.0</pdop><geoidheight>54.00</geoidheight><course>6.0</course><type>1</type></trkpt>
      <trkpt lat="40.50116919" lon="-5.26848009"><ele>2157</ele><speed>10.88</speed><time>2016-06-30T12:24:44Z</time><pdop>9.0</pdop><geoidheight>54.00</geoidheight><course>13.8</course><type>1</type></trkpt>
      <trkpt lat="40.50135472" lon="-5.2683972"><ele>2154</ele><speed>9.92</speed><time>2016-06-30T12:24:46Z</time><pdop>9.0</pdop><geoidheight>54.00</geoidheight><course>20.4</course><type>1</type></trkpt>
      <trkpt lat="40.50152829" lon="-5.2682801"><ele>2149</ele><speed>7.72</speed><time>2016-06-30T12:24:49Z</time><pdop>9.0</pdop><geoidheight>54.00</geoidheight><course>27.5</course><type>1</type></trkpt>
      <trkpt lat="40.50176102" lon="-5.26824172"><ele>2135</ele><speed>14.52</speed><time>2016-06-30T12:24:51Z</time><pdop>9.0</pdop><geoidheight>54.00</geoidheight><course>10.4</course><type>1</type></trkpt>
      <trkpt lat="40.50199784" lon="-5.26814604"><ele>2126</ele><speed>14.06</speed><time>2016-06-30T12:24:53Z</time><pdop>10.0</pdop><geoidheight>54.00</geoidheight><course>17.2</course><type>1</type></trkpt>
      <trkpt lat="40.50222446" lon="-5.26801298"><ele>2121</ele><speed>13.90</speed><time>2016-06-30T12:24:55Z</time><pdop>10.0</pdop><geoidheight>54.00</geoidheight><course>23.5</course><type>1</type></trkpt>
      <trkpt lat="40.50241689" lon="-5.26786073"><ele>2114</ele><speed>14.10</speed><time>2016-06-30T12:24:57Z</time><pdop>9.0</pdop><geoidheight>54.00</geoidheight><course>27.9</course><type>1</type></trkpt>
      <trkpt lat="40.50268078" lon="-5.2676872"><ele>2111</ele><speed>16.01</speed><time>2016-06-30T12:24:59Z</time><pdop>10.0</pdop><geoidheight>54.00</geoidheight><course>28.4</course><type>1</type></trkpt>
      <trkpt lat="40.50295225" lon="-5.2675105"><ele>2110</ele><speed>16.09</speed><time>2016-06-30T12:25:01Z</time><pdop>10.0</pdop><geoidheight>54.00</geoidheight><course>26.3</course><type>1</type></trkpt>
      <trkpt lat="40.50314669" lon="-5.26734894"><ele>2109</ele><speed>13.46</speed><time>2016-06-30T12:25:03Z</time><pdop>10.0</pdop><geoidheight>54.00</geoidheight><course>28.2</course><type>1</type></trkpt>
      <trkpt lat="40.50335515" lon="-5.26719831"><ele>2110</ele><speed>13.56</speed><time>2016-06-30T12:25:05Z</time><pdop>9.0</pdop><geoidheight>54.00</geoidheight><course>31.5</course><type>1</type></trkpt>
      <trkpt lat="40.5035451" lon="-5.26703898"><ele>2108</ele><speed>12.72</speed><time>2016-06-30T12:25:07Z</time><pdop>10.0</pdop><geoidheight>54.00</geoidheight><course>31.3</course><type>1</type></trkpt>
      <trkpt lat="40.50377117" lon="-5.26685206"><ele>2106</ele><speed>14.37</speed><time>2016-06-30T12:25:09Z</time><pdop>10.0</pdop><geoidheight>54.00</geoidheight><course>32.2</course><type>1</type></trkpt>
      <trkpt lat="40.50399289" lon="-5.26669167"><ele>2104</ele><speed>14.36</speed><time>2016-06-30T12:25:11Z</time><pdop>10.0</pdop><geoidheight>54.00</geoidheight><course>30.7</course><type>1</type></trkpt>
      <trkpt lat="40.5042157" lon="-5.26653476"><ele>2105</ele><speed>13.34</speed><time>2016-06-30T12:25:13Z</time><pdop>9.0</pdop><geoidheight>54.00</geoidheight><course>27.3</course><type>1</type></trkpt>
      <trkpt lat="40.50442105" lon="-5.26642269"><ele>2105</ele><speed>12.55</speed><time>2016-06-30T12:25:15Z</time><pdop>10.0</pdop><geoidheight>54.00</geoidheight><course>23.4</course><type>1</type></trkpt>
      <trkpt lat="40.50464984" lon="-5.26629489"><ele>2106</ele><speed>13.03</speed><time>2016-06-30T12:25:17Z</time><pdop>9.0</pdop><geoidheight>54.00</geoidheight><course>25.3</course><type>1</type></trkpt>
      <trkpt lat="40.50483059" lon="-5.26615289"><ele>2106</ele><speed>11.46</speed><time>2016-06-30T12:25:19Z</time><pdop>9.0</pdop><geoidheight>54.00</geoidheight><course>28.0</course><type>1</type></trkpt>
      <trkpt lat="40.50501913" lon="-5.2660941"><ele>2107</ele><speed>10.52</speed><time>2016-06-30T12:25:21Z</time><pdop>9.0</pdop><geoidheight>54.00</geoidheight><course>17.6</course><type>1</type></trkpt>
      <trkpt lat="40.50519675" lon="-5.26602208"><ele>2108</ele><speed>10.11</speed><time>2016-06-30T12:25:23Z</time><pdop>10.0</pdop><geoidheight>54.00</geoidheight><course>14.6</course><type>1</type></trkpt>
      <trkpt lat="40.50539894" lon="-5.26601758"><ele>2109</ele><speed>10.62</speed><time>2016-06-30T12:25:25Z</time><pdop>5.0</pdop><geoidheight>54.00</geoidheight><course>3.7</course><type>1</type></trkpt>
      <trkpt lat="40.50550262" lon="-5.26602754"><ele>2109</ele><speed>10.74</speed><time>2016-06-30T12:25:26Z</time><pdop>5.0</pdop><geoidheight>54.00</geoidheight><course>1.7</course><type>1</type></trkpt>
      <trkpt lat="40.50558628" lon="-5.2660065"><ele>2109</ele><speed>10.54</speed><time>2016-06-30T12:25:27Z</time><pdop>4.0</pdop><geoidheight>54.00</geoidheight><course>6.6</course><type>1</type></trkpt>
      <trkpt lat="40.50568026" lon="-5.26597307"><ele>2108</ele><speed>10.93</speed><time>2016-06-30T12:25:28Z</time><pdop>4.0</pdop><geoidheight>54.00</geoidheight><course>8.4</course><type>1</type></trkpt>
      <trkpt lat="40.5057904" lon="-5.26595936"><ele>2109</ele><speed>11.24</speed><time>2016-06-30T12:25:29Z</time><pdop>4.0</pdop><geoidheight>54.00</geoidheight><course>6.7</course><type>1</type></trkpt>
      <trkpt lat="40.50590821" lon="-5.26594613"><ele>2110</ele><speed>11.83</speed><time>2016-06-30T12:25:30Z</time><pdop>5.0</pdop><geoidheight>54.00</geoidheight><course>5.0</course><type>1</type></trkpt>
      <trkpt lat="40.50603017" lon="-5.26593691"><ele>2110</ele><speed>12.49</speed><time>2016-06-30T12:25:31Z</time><pdop>5.0</pdop><geoidheight>54.00</geoidheight><course>4.5</course><type>1</type></trkpt>
      <trkpt lat="40.50612899" lon="-5.26588734"><ele>2111</ele><speed>11.88</speed><time>2016-06-30T12:25:32Z</time><pdop>6.0</pdop><geoidheight>54.00</geoidheight><course>11.3</course><type>1</type></trkpt>
      <trkpt lat="40.50627595" lon="-5.26577863"><ele>2111</ele><speed>10.08</speed><time>2016-06-30T12:25:34Z</time><pdop>6.0</pdop><geoidheight>54.00</geoidheight><course>21.3</course><type>1</type></trkpt>
      <trkpt lat="40.50649134" lon="-5.26570817"><ele>2149</ele><speed>10.89</speed><time>2016-06-30T12:25:36Z</time><pdop>4.0</pdop><geoidheight>54.00</geoidheight><course>14.9</course><type>1</type></trkpt>
      <trkpt lat="40.50657458" lon="-5.26568038"><ele>2140</ele><speed>10.37</speed><time>2016-06-30T12:25:37Z</time><pdop>4.0</pdop><geoidheight>54.00</geoidheight><course>13.5</course><type>1</type></trkpt>
      <trkpt lat="40.50667839" lon="-5.26566557"><ele>2135</ele><speed>10.33</speed><time>2016-06-30T12:25:38Z</time><pdop>5.0</pdop><geoidheight>54.00</geoidheight><course>10.6</course><type>1</type></trkpt>
      <trkpt lat="40.50677098" lon="-5.26564269"><ele>2133</ele><speed>10.90</speed><time>2016-06-30T12:25:39Z</time><pdop>4.0</pdop><geoidheight>54.00</geoidheight><course>11.9</course><type>1</type></trkpt>
      <trkpt lat="40.50686676" lon="-5.26560096"><ele>2132</ele><speed>11.09</speed><time>2016-06-30T12:25:40Z</time><pdop>4.0</pdop><geoidheight>54.00</geoidheight><course>19.2</course><type>1</type></trkpt>
      <trkpt lat="40.50696981" lon="-5.26554083"><ele>2132</ele><speed>12.32</speed><time>2016-06-30T12:25:41Z</time><pdop>3.0</pdop><geoidheight>54.00</geoidheight><course>26.1</course><type>1</type></trkpt>
      <trkpt lat="40.50706024" lon="-5.26545659"><ele>2133</ele><speed>12.74</speed><time>2016-06-30T12:25:42Z</time><pdop>3.0</pdop><geoidheight>54.00</geoidheight><course>31.5</course><type>1</type></trkpt>
      <trkpt lat="40.50715068" lon="-5.26538934"><ele>2135</ele><speed>11.90</speed><time>2016-06-30T12:25:43Z</time><pdop>3.0</pdop><geoidheight>54.00</geoidheight><course>30.6</course><type>1</type></trkpt>
      <trkpt lat="40.50725145" lon="-5.26532372"><ele>2136</ele><speed>11.21</speed><time>2016-06-30T12:25:44Z</time><pdop>4.0</pdop><geoidheight>54.00</geoidheight><course>26.7</course><type>1</type></trkpt>
      <trkpt lat="40.50736502" lon="-5.26532463"><ele>2141</ele><speed>11.60</speed><time>2016-06-30T12:25:45Z</time><pdop>3.0</pdop><geoidheight>54.00</geoidheight><course>9.3</course><type>1</type></trkpt>
      <trkpt lat="40.50745792" lon="-5.26534407"><ele>2145</ele><speed>11.06</speed><time>2016-06-30T12:25:46Z</time><pdop>3.0</pdop><geoidheight>54.00</geoidheight><course>350.6</course><type>1</type></trkpt>
      <trkpt lat="40.50753178" lon="-5.26537509"><ele>2150</ele><speed>10.42</speed><time>2016-06-30T12:25:47Z</time><pdop>4.0</pdop><geoidheight>54.00</geoidheight><course>344.5</course><type>1</type></trkpt>
      <trkpt lat="40.50754692" lon="-5.26548795"><ele>2157</ele><speed>9.36</speed><time>2016-06-30T12:25:48Z</time><pdop>3.0</pdop><geoidheight>54.00</geoidheight><course>301.4</course><type>1</type></trkpt>
      <trkpt lat="40.50757036" lon="-5.26557452"><ele>2163</ele><speed>9.05</speed><time>2016-06-30T12:25:49Z</time><pdop>4.0</pdop><geoidheight>54.00</geoidheight><course>289.4</course><type>1</type></trkpt>
      <trkpt lat="40.50753263" lon="-5.26571521"><ele>2171</ele><speed>7.60</speed><time>2016-06-30T12:25:51Z</time><pdop>5.0</pdop><geoidheight>54.00</geoidheight><course>253.6</course><type>1</type></trkpt>
      <trkpt lat="40.50739396" lon="-5.26573549"><ele>2180</ele><speed>7.83</speed><time>2016-06-30T12:25:53Z</time><pdop>7.0</pdop><geoidheight>54.00</geoidheight><course>188.8</course><type>1</type></trkpt>
      <trkpt lat="40.50713558" lon="-5.26552516"><ele>2179</ele><speed>10.70</speed><time>2016-06-30T12:25:55Z</time><pdop>8.0</pdop><geoidheight>54.00</geoidheight><course>147.7</course><type>1</type></trkpt>
      <trkpt lat="40.50697562" lon="-5.26518798"><ele>2178</ele><speed>13.12</speed><time>2016-06-30T12:25:57Z</time><pdop>8.0</pdop><geoidheight>54.00</geoidheight><course>121.4</course><type>1</type></trkpt>
      <trkpt lat="40.50693501" lon="-5.26496832"><ele>2179</ele><speed>14.12</speed><time>2016-06-30T12:25:58Z</time><pdop>10.0</pdop><geoidheight>54.00</geoidheight><course>112.2</course><type>1</type></trkpt>
      <trkpt lat="40.5069314" lon="-5.26458931"><ele>2179</ele><speed>14.33</speed><time>2016-06-30T12:26:00Z</time><pdop>11.0</pdop><geoidheight>54.00</geoidheight><course>100.4</course><type>1</type></trkpt>
      <trkpt lat="40.50705232" lon="-5.26426006"><ele>2185</ele><speed>12.00</speed><time>2016-06-30T12:26:02Z</time><pdop>9.0</pdop><geoidheight>54.00</geoidheight><course>77.2</course><type>1</type></trkpt>
      <trkpt lat="40.507181" lon="-5.26399959"><ele>2198</ele><speed>12.76</speed><time>2016-06-30T12:26:04Z</time><pdop>7.0</pdop><geoidheight>54.00</geoidheight><course>63.2</course><type>1</type></trkpt>
      <trkpt lat="40.50732414" lon="-5.26378469"><ele>2207</ele><speed>11.88</speed><time>2016-06-30T12:26:06Z</time><pdop>5.0</pdop><geoidheight>54.00</geoidheight><course>45.0</course><type>1</type></trkpt>
      <trkpt lat="40.5074049" lon="-5.26370545"><ele>2210</ele><speed>11.10</speed><time>2016-06-30T12:26:07Z</time><pdop>6.0</pdop><geoidheight>54.00</geoidheight><course>37.8</course><type>1</type></trkpt>
      <trkpt lat="40.50760277" lon="-5.26364736"><ele>2211</ele><speed>9.65</speed><time>2016-06-30T12:26:09Z</time><pdop>8.0</pdop><geoidheight>54.00</geoidheight><course>17.4</course><type>1</type></trkpt>
      <trkpt lat="40.50780356" lon="-5.26374167"><ele>2213</ele><speed>10.41</speed><time>2016-06-30T12:26:11Z</time><pdop>9.0</pdop><geoidheight>54.00</geoidheight><course>348.2</course><type>1</type></trkpt>
      <trkpt lat="40.50776035" lon="-5.26415116"><ele>2220</ele><speed>6.78</speed><time>2016-06-30T12:26:15Z</time><pdop>11.0</pdop><geoidheight>54.00</geoidheight><course>246.3</course><type>1</type></trkpt>
      <trkpt lat="40.50763091" lon="-5.26443408"><ele>2224</ele><speed>8.36</speed><time>2016-06-30T12:26:17Z</time><pdop>10.0</pdop><geoidheight>54.00</geoidheight><course>235.5</course><type>1</type></trkpt>
      <trkpt lat="40.5073253" lon="-5.26442186"><ele>2231</ele><speed>8.12</speed><time>2016-06-30T12:26:21Z</time><pdop>15.0</pdop><geoidheight>54.00</geoidheight><course>168.3</course><type>1</type></trkpt>
      <trkpt lat="40.50707502" lon="-5.2640949"><ele>2237</ele><speed>10.89</speed><time>2016-06-30T12:26:24Z</time><pdop>17.0</pdop><geoidheight>54.00</geoidheight><course>132.8</course><type>1</type></trkpt>
      <trkpt lat="40.50692816" lon="-5.26361194"><ele>2242</ele><speed>12.12</speed><time>2016-06-30T12:26:27Z</time><pdop>23.0</pdop><geoidheight>54.00</geoidheight><course>110.7</course><type>1</type></trkpt>
      <trkpt lat="40.50727855" lon="-5.26327114"><ele>2172</ele><speed>9.20</speed><time>2016-06-30T12:26:30Z</time><pdop>19.0</pdop><geoidheight>54.00</geoidheight><course>8.5</course><type>1</type></trkpt>
      <trkpt lat="40.50679944" lon="-5.26301768"><ele>2161</ele><speed>13.15</speed><time>2016-06-30T12:26:41Z</time><pdop>21.0</pdop><geoidheight>54.00</geoidheight><course>137.1</course><type>1</type></trkpt>
      <trkpt lat="40.50647591" lon="-5.26280314"><ele>2200</ele><speed>12.63</speed><time>2016-06-30T12:26:44Z</time><pdop>17.0</pdop><geoidheight>54.00</geoidheight><course>142.7</course><type>1</type></trkpt>
      <trkpt lat="40.50644865" lon="-5.26223524"><ele>2229</ele><speed>9.63</speed><time>2016-06-30T12:26:48Z</time><pdop>22.0</pdop><geoidheight>54.00</geoidheight><course>97.4</course><type>1</type></trkpt>
      <trkpt lat="40.50670763" lon="-5.2618203"><ele>2252</ele><speed>10.89</speed><time>2016-06-30T12:26:51Z</time><pdop>18.0</pdop><geoidheight>54.00</geoidheight><course>44.2</course><type>1</type></trkpt>
      <trkpt lat="40.50700558" lon="-5.26178428"><ele>2288</ele><speed>10.54</speed><time>2016-06-30T12:26:54Z</time><pdop>15.0</pdop><geoidheight>54.00</geoidheight><course>3.5</course><type>1</type></trkpt>
      <trkpt lat="40.50729152" lon="-5.26156759"><ele>2334</ele><speed>10.15</speed><time>2016-06-30T12:26:58Z</time><pdop>14.0</pdop><geoidheight>54.00</geoidheight><course>23.8</course><type>1</type></trkpt>
      <trkpt lat="40.50757583" lon="-5.26162574"><ele>2347</ele><speed>7.91</speed><time>2016-06-30T12:27:02Z</time><pdop>14.0</pdop><geoidheight>54.00</geoidheight><course>346.1</course><type>1</type></trkpt>
      <trkpt lat="40.50738601" lon="-5.26203395"><ele>2357</ele><speed>9.67</speed><time>2016-06-30T12:27:05Z</time><pdop>12.0</pdop><geoidheight>54.00</geoidheight><course>241.6</course><type>1</type></trkpt>
      <trkpt lat="40.50707599" lon="-5.26220915"><ele>2367</ele><speed>10.15</speed><time>2016-06-30T12:27:08Z</time><pdop>16.0</pdop><geoidheight>54.00</geoidheight><course>208.9</course><type>1</type></trkpt>
      <trkpt lat="40.5067241" lon="-5.26195818"><ele>2379</ele><speed>9.54</speed><time>2016-06-30T12:27:12Z</time><pdop>16.0</pdop><geoidheight>54.00</geoidheight><course>142.6</course><type>1</type></trkpt>
      <trkpt lat="40.50674572" lon="-5.26145721"><ele>2383</ele><speed>9.43</speed><time>2016-06-30T12:27:15Z</time><pdop>18.0</pdop><geoidheight>54.00</geoidheight><course>95.9</course><type>1</type></trkpt>
      <trkpt lat="40.50688864" lon="-5.26093592"><ele>2394</ele><speed>10.72</speed><time>2016-06-30T12:27:18Z</time><pdop>18.0</pdop><geoidheight>54.00</geoidheight><course>71.9</course><type>1</type></trkpt>
      <trkpt lat="40.50723641" lon="-5.2608107"><ele>2409</ele><speed>7.33</speed><time>2016-06-30T12:27:22Z</time><pdop>16.0</pdop><geoidheight>54.00</geoidheight><course>26.1</course><type>1</type></trkpt>
      <trkpt lat="40.50726248" lon="-5.26125213"><ele>2425</ele><speed>6.98</speed><time>2016-06-30T12:27:25Z</time><pdop>13.0</pdop><geoidheight>54.00</geoidheight><course>257.9</course><type>1</type></trkpt>
      <trkpt lat="40.50709107" lon="-5.26149657"><ele>2429</ele><speed>8.89</speed><time>2016-06-30T12:27:27Z</time><pdop>11.0</pdop><geoidheight>54.00</geoidheight><course>215.7</course><type>1</type></trkpt>
      <trkpt lat="40.50691418" lon="-5.26158314"><ele>2434</ele><speed>8.66</speed><time>2016-06-30T12:27:29Z</time><pdop>10.0</pdop><geoidheight>54.00</geoidheight><course>184.2</course><type>1</type></trkpt>
      <trkpt lat="40.50668248" lon="-5.26157093"><ele>2439</ele><speed>10.11</speed><time>2016-06-30T12:27:31Z</time><pdop>11.0</pdop><geoidheight>54.00</geoidheight><course>173.3</course><type>1</type></trkpt>
      <trkpt lat="40.50643078" lon="-5.26143672"><ele>2448</ele><speed>10.42</speed><time>2016-06-30T12:27:34Z</time><pdop>12.0</pdop><geoidheight>54.00</geoidheight><course>152.9</course><type>1</type></trkpt>
      <trkpt lat="40.50645018" lon="-5.26094916"><ele>2456</ele><speed>7.50</speed><time>2016-06-30T12:27:38Z</time><pdop>19.0</pdop><geoidheight>54.00</geoidheight><course>94.3</course><type>1</type></trkpt>
      <trkpt lat="40.50668601" lon="-5.26054796"><ele>2346</ele><speed>10.04</speed><time>2016-06-30T12:27:41Z</time><pdop>11.0</pdop><geoidheight>54.00</geoidheight><course>51.0</course><type>1</type></trkpt>
      <trkpt lat="40.50685551" lon="-5.26027858"><ele>2391</ele><speed>12.75</speed><time>2016-06-30T12:27:43Z</time><pdop>9.0</pdop><geoidheight>54.00</geoidheight><course>48.9</course><type>1</type></trkpt>
      <trkpt lat="40.50701539" lon="-5.26002778"><ele>2417</ele><speed>11.93</speed><time>2016-06-30T12:27:45Z</time><pdop>10.0</pdop><geoidheight>54.00</geoidheight><course>47.7</course><type>1</type></trkpt>
      <trkpt lat="40.50716716" lon="-5.25980336"><ele>2431</ele><speed>12.32</speed><time>2016-06-30T12:27:47Z</time><pdop>11.0</pdop><geoidheight>54.00</geoidheight><course>44.3</course><type>1</type></trkpt>
      <trkpt lat="40.50741517" lon="-5.25971067"><ele>2456</ele><speed>10.18</speed><time>2016-06-30T12:27:50Z</time><pdop>12.0</pdop><geoidheight>54.00</geoidheight><course>16.1</course><type>1</type></trkpt>
      <trkpt lat="40.50740532" lon="-5.26000492"><ele>2472</ele><speed>4.53</speed><time>2016-06-30T12:27:53Z</time><pdop>12.0</pdop><geoidheight>54.00</geoidheight><course>293.5</course><type>1</type></trkpt>
      <trkpt lat="40.50725798" lon="-5.26026612"><ele>2473</ele><speed>5.85</speed><time>2016-06-30T12:27:55Z</time><pdop>14.0</pdop><geoidheight>54.00</geoidheight><course>241.0</course><type>1</type></trkpt>
      <trkpt lat="40.50683547" lon="-5.26025298"><ele>2285</ele><speed>9.30</speed><time>2016-06-30T12:27:59Z</time><pdop>18.0</pdop><geoidheight>54.00</geoidheight><course>165.7</course><type>1</type></trkpt>
      <trkpt lat="40.50669231" lon="-5.25986678"><ele>2368</ele><speed>8.72</speed><time>2016-06-30T12:28:02Z</time><pdop>17.0</pdop><geoidheight>54.00</geoidheight><course>112.6</course><type>1</type></trkpt>
      <trkpt lat="40.50684704" lon="-5.25948262"><ele>2421</ele><speed>8.79</speed><time>2016-06-30T12:28:05Z</time><pdop>15.0</pdop><geoidheight>54.00</geoidheight><course>57.8</course><type>1</type></trkpt>
      <trkpt lat="40.50704504" lon="-5.25923078"><ele>2476</ele><speed>11.13</speed><time>2016-06-30T12:28:08Z</time><pdop>8.0</pdop><geoidheight>54.00</geoidheight><course>34.4</course><type>1</type></trkpt>
      <trkpt lat="40.50720724" lon="-5.25906684"><ele>2494</ele><speed>11.52</speed><time>2016-06-30T12:28:10Z</time><pdop>8.0</pdop><geoidheight>54.00</geoidheight><course>30.5</course><type>1</type></trkpt>
      <trkpt lat="40.50737662" lon="-5.25901534"><ele>2508</ele><speed>9.93</speed><time>2016-06-30T12:28:12Z</time><pdop>10.0</pdop><geoidheight>54.00</geoidheight><course>15.5</course><type>1</type></trkpt>
      <trkpt lat="40.50754156" lon="-5.2589671"><ele>2524</ele><speed>9.34</speed><time>2016-06-30T12:28:14Z</time><pdop>8.0</pdop><geoidheight>54.00</geoidheight><course>11.8</course><type>1</type></trkpt>
      <trkpt lat="40.50770552" lon="-5.25889277"><ele>2547</ele><speed>7.98</speed><time>2016-06-30T12:28:17Z</time><pdop>6.0</pdop><geoidheight>54.00</geoidheight><course>10.0</course><type>1</type></trkpt>
      <trkpt lat="40.50784632" lon="-5.25889981"><ele>2556</ele><speed>7.94</speed><time>2016-06-30T12:28:19Z</time><pdop>7.0</pdop><geoidheight>54.00</geoidheight><course>357.1</course><type>1</type></trkpt>
      <trkpt lat="40.50799174" lon="-5.25891538"><ele>2567</ele><speed>8.67</speed><time>2016-06-30T12:28:21Z</time><pdop>5.0</pdop><geoidheight>54.00</geoidheight><course>357.7</course><type>1</type></trkpt>
      <trkpt lat="40.50815443" lon="-5.25894069"><ele>2572</ele><speed>9.09</speed><time>2016-06-30T12:28:23Z</time><pdop>7.0</pdop><geoidheight>54.00</geoidheight><course>355.4</course><type>1</type></trkpt>
      <trkpt lat="40.50832255" lon="-5.25899992"><ele>2574</ele><speed>9.33</speed><time>2016-06-30T12:28:25Z</time><pdop>12.0</pdop><geoidheight>54.00</geoidheight><course>350.7</course><type>1</type></trkpt>
      <trkpt lat="40.50854391" lon="-5.2590425"><ele>2581</ele><speed>9.09</speed><time>2016-06-30T12:28:28Z</time><pdop>11.0</pdop><geoidheight>54.00</geoidheight><course>359.0</course><type>1</type></trkpt>
      <trkpt lat="40.5087465" lon="-5.25886235"><ele>2595</ele><speed>9.92</speed><time>2016-06-30T12:28:32Z</time><pdop>10.0</pdop><geoidheight>54.00</geoidheight><course>44.5</course><type>1</type></trkpt>
      <trkpt lat="40.50881391" lon="-5.25858668"><ele>2599</ele><speed>11.91</speed><time>2016-06-30T12:28:34Z</time><pdop>12.0</pdop><geoidheight>54.00</geoidheight><course>67.7</course><type>1</type></trkpt>
      <trkpt lat="40.50852604" lon="-5.25842405"><ele>2612</ele><speed>8.69</speed><time>2016-06-30T12:28:37Z</time><pdop>10.0</pdop><geoidheight>54.00</geoidheight><course>174.0</course><type>1</type></trkpt>
      <trkpt lat="40.50831776" lon="-5.25858599"><ele>2627</ele><speed>11.55</speed><time>2016-06-30T12:28:39Z</time><pdop>7.0</pdop><geoidheight>54.00</geoidheight><course>216.1</course><type>1</type></trkpt>
      <trkpt lat="40.50823074" lon="-5.25881679"><ele>2641</ele><speed>11.45</speed><time>2016-06-30T12:28:41Z</time><pdop>6.0</pdop><geoidheight>54.00</geoidheight><course>252.0</course><type>1</type></trkpt>
      <trkpt lat="40.50823605" lon="-5.25901602"><ele>2653</ele><speed>9.42</speed><time>2016-06-30T12:28:43Z</time><pdop>5.0</pdop><geoidheight>54.00</geoidheight><course>277.0</course><type>1</type></trkpt>
      <trkpt lat="40.50829246" lon="-5.2591657"><ele>2661</ele><speed>8.14</speed><time>2016-06-30T12:28:45Z</time><pdop>4.0</pdop><geoidheight>54.00</geoidheight><course>305.9</course><type>1</type></trkpt>
      <trkpt lat="40.50841652" lon="-5.25926788"><ele>2669</ele><speed>9.10</speed><time>2016-06-30T12:28:47Z</time><pdop>4.0</pdop><geoidheight>54.00</geoidheight><course>338.5</course><type>1</type></trkpt>
      <trkpt lat="40.50849879" lon="-5.25929338"><ele>2672</ele><speed>9.82</speed><time>2016-06-30T12:28:48Z</time><pdop>4.0</pdop><geoidheight>54.00</geoidheight><course>348.7</course><type>1</type></trkpt>
      <trkpt lat="40.50859305" lon="-5.2592376"><ele>2674</ele><speed>11.10</speed><time>2016-06-30T12:28:49Z</time><pdop>4.0</pdop><geoidheight>54.00</geoidheight><course>13.0</course><type>1</type></trkpt>
      <trkpt lat="40.50868768" lon="-5.2591882"><ele>2676</ele><speed>11.26</speed><time>2016-06-30T12:28:50Z</time><pdop>5.0</pdop><geoidheight>54.00</geoidheight><course>19.5</course><type>1</type></trkpt>
      <trkpt lat="40.50876643" lon="-5.25908503"><ele>2680</ele><speed>12.04</speed><time>2016-06-30T12:28:51Z</time><pdop>5.0</pdop><geoidheight>54.00</geoidheight><course>37.6</course><type>1</type></trkpt>
      <trkpt lat="40.50886062" lon="-5.25899285"><ele>2681</ele><speed>12.66</speed><time>2016-06-30T12:28:52Z</time><pdop>6.0</pdop><geoidheight>54.00</geoidheight><course>38.9</course><type>1</type></trkpt>
      <trkpt lat="40.50893656" lon="-5.25886902"><ele>2682</ele><speed>13.32</speed><time>2016-06-30T12:28:53Z</time><pdop>7.0</pdop><geoidheight>54.00</geoidheight><course>44.8</course><type>1</type></trkpt>
      <trkpt lat="40.50894497" lon="-5.25872521"><ele>2687</ele><speed>13.21</speed><time>2016-06-30T12:28:54Z</time><pdop>5.0</pdop><geoidheight>54.00</geoidheight><course>64.0</course><type>1</type></trkpt>
      <trkpt lat="40.50899017" lon="-5.25858151"><ele>2690</ele><speed>14.44</speed><time>2016-06-30T12:28:55Z</time><pdop>5.0</pdop><geoidheight>54.00</geoidheight><course>68.1</course><type>1</type></trkpt>
      <trkpt lat="40.50901955" lon="-5.25843827"><ele>2692</ele><speed>13.73</speed><time>2016-06-30T12:28:56Z</time><pdop>6.0</pdop><geoidheight>54.00</geoidheight><course>70.2</course><type>1</type></trkpt>
      <trkpt lat="40.50898695" lon="-5.25821844"><ele>2696</ele><speed>10.00</speed><time>2016-06-30T12:28:58Z</time><pdop>7.0</pdop><geoidheight>54.00</geoidheight><course>84.2</course><type>1</type></trkpt>
      <trkpt lat="40.50879714" lon="-5.25803362"><ele>2698</ele><speed>9.47</speed><time>2016-06-30T12:29:00Z</time><pdop>8.0</pdop><geoidheight>54.00</geoidheight><course>129.9</course><type>1</type></trkpt>
      <trkpt lat="40.50864989" lon="-5.25801914"><ele>2700</ele><speed>7.53</speed><time>2016-06-30T12:29:02Z</time><pdop>8.0</pdop><geoidheight>54.00</geoidheight><course>167.3</course><type>1</type></trkpt>
      <trkpt lat="40.50848609" lon="-5.25814785"><ele>2704</ele><speed>8.58</speed><time>2016-06-30T12:29:04Z</time><pdop>6.0</pdop><geoidheight>54.00</geoidheight><course>210.1</course><type>1</type></trkpt>
      <trkpt lat="40.50839933" lon="-5.25828301"><ele>2711</ele><speed>7.40</speed><time>2016-06-30T12:29:06Z</time><pdop>4.0</pdop><geoidheight>54.00</geoidheight><course>238.6</course><type>1</type></trkpt>
      <trkpt lat="40.50839346" lon="-5.25844313"><ele>2719</ele><speed>6.90</speed><time>2016-06-30T12:29:08Z</time><pdop>4.0</pdop><geoidheight>54.00</geoidheight><course>284.4</course><type>1</type></trkpt>
      <trkpt lat="40.5084701" lon="-5.25855713"><ele>2726</ele><speed>6.88</speed><time>2016-06-30T12:29:10Z</time><pdop>4.0</pdop><geoidheight>54.00</geoidheight><course>325.2</course><type>1</type></trkpt>
      <trkpt lat="40.50858218" lon="-5.25860334"><ele>2732</ele><speed>7.34</speed><time>2016-06-30T12:29:12Z</time><pdop>4.0</pdop><geoidheight>54.00</geoidheight><course>348.6</course><type>1</type></trkpt>
      <trkpt lat="40.50873482" lon="-5.25861093"><ele>2735</ele><speed>8.59</speed><time>2016-06-30T12:29:14Z</time><pdop>7.0</pdop><geoidheight>54.00</geoidheight><course>355.3</course><type>1</type></trkpt>
      <trkpt lat="40.5089233" lon="-5.25849112"><ele>2739</ele><speed>10.75</speed><time>2016-06-30T12:29:16Z</time><pdop>6.0</pdop><geoidheight>54.00</geoidheight><course>21.9</course><type>1</type></trkpt>
      <trkpt lat="40.50908942" lon="-5.25833925"><ele>2741</ele><speed>11.73</speed><time>2016-06-30T12:29:18Z</time><pdop>6.0</pdop><geoidheight>54.00</geoidheight><course>36.4</course><type>1</type></trkpt>
      <trkpt lat="40.50919606" lon="-5.25813692"><ele>2745</ele><speed>11.17</speed><time>2016-06-30T12:29:20Z</time><pdop>8.0</pdop><geoidheight>54.00</geoidheight><course>49.9</course><type>1</type></trkpt>
      <trkpt lat="40.50911459" lon="-5.2578701"><ele>2748</ele><speed>10.84</speed><time>2016-06-30T12:29:22Z</time><pdop>8.0</pdop><geoidheight>54.00</geoidheight><course>93.6</course><type>1</type></trkpt>
      <trkpt lat="40.50895483" lon="-5.25764635"><ele>2753</ele><speed>9.67</speed><time>2016-06-30T12:29:24Z</time><pdop>8.0</pdop><geoidheight>54.00</geoidheight><course>113.8</course><type>1</type></trkpt>
      <trkpt lat="40.50880349" lon="-5.25757758"><ele>2756</ele><speed>11.48</speed><time>2016-06-30T12:29:25Z</time><pdop>7.0</pdop><geoidheight>54.00</geoidheight><course>138.9</course><type>1</type></trkpt>
      <trkpt lat="40.50858441" lon="-5.25755507"><ele>2760</ele><speed>10.13</speed><time>2016-06-30T12:29:27Z</time><pdop>7.0</pdop><geoidheight>54.00</geoidheight><course>173.5</course><type>1</type></trkpt>
      <trkpt lat="40.50850767" lon="-5.25772079"><ele>2764</ele><speed>7.24</speed><time>2016-06-30T12:29:29Z</time><pdop>5.0</pdop><geoidheight>54.00</geoidheight><course>219.0</course><type>1</type></trkpt>
      <trkpt lat="40.50850268" lon="-5.25782733"><ele>2769</ele><speed>7.51</speed><time>2016-06-30T12:29:30Z</time><pdop>4.0</pdop><geoidheight>54.00</geoidheight><course>260.3</course><type>1</type></trkpt>
      <trkpt lat="40.50851915" lon="-5.25792938"><ele>2774</ele><speed>8.10</speed><time>2016-06-30T12:29:31Z</time><pdop>4.0</pdop><geoidheight>54.00</geoidheight><course>280.0</course><type>1</type></trkpt>
      <trkpt lat="40.50855629" lon="-5.25803946"><ele>2778</ele><speed>9.49</speed><time>2016-06-30T12:29:32Z</time><pdop>4.0</pdop><geoidheight>54.00</geoidheight><course>295.7</course><type>1</type></trkpt>
      <trkpt lat="40.50861097" lon="-5.25811283"><ele>2780</ele><speed>9.15</speed><time>2016-06-30T12:29:33Z</time><pdop>4.0</pdop><geoidheight>54.00</geoidheight><course>308.5</course><type>1</type></trkpt>
      <trkpt lat="40.5087612" lon="-5.25819217"><ele>2783</ele><speed>7.90</speed><time>2016-06-30T12:29:35Z</time><pdop>6.0</pdop><geoidheight>54.00</geoidheight><course>333.5</course><type>1</type></trkpt>
      <trkpt lat="40.50896446" lon="-5.25822002"><ele>2786</ele><speed>10.23</speed><time>2016-06-30T12:29:37Z</time><pdop>8.0</pdop><geoidheight>54.00</geoidheight><course>350.6</course><type>1</type></trkpt>
      <trkpt lat="40.50913327" lon="-5.25804894"><ele>2790</ele><speed>10.57</speed><time>2016-06-30T12:29:39Z</time><pdop>9.0</pdop><geoidheight>54.00</geoidheight><course>24.2</course><type>1</type></trkpt>
      <trkpt lat="40.50917486" lon="-5.25765184"><ele>2796</ele><speed>13.13</speed><time>2016-06-30T12:29:41Z</time><pdop>7.0</pdop><geoidheight>54.00</geoidheight><course>69.5</course><type>1</type></trkpt>
      <trkpt lat="40.50915059" lon="-5.25749036"><ele>2800</ele><speed>13.06</speed><time>2016-06-30T12:29:42Z</time><pdop>6.0</pdop><geoidheight>54.00</geoidheight><course>80.7</course><type>1</type></trkpt>
      <trkpt lat="40.50914087" lon="-5.25734998"><ele>2802</ele><speed>12.17</speed><time>2016-06-30T12:29:43Z</time><pdop>5.0</pdop><geoidheight>54.00</geoidheight><course>89.7</course><type>1</type></trkpt>
      <trkpt lat="40.50913459" lon="-5.25718473"><ele>2805</ele><speed>11.54</speed><time>2016-06-30T12:29:44Z</time><pdop>5.0</pdop><geoidheight>54.00</geoidheight><course>96.0</course><type>1</type></trkpt>
      <trkpt lat="40.5089984" lon="-5.2569829"><ele>2794</ele><speed>10.38</speed><time>2016-06-30T12:29:46Z</time><pdop>5.0</pdop><geoidheight>54.00</geoidheight><course>130.7</course><type>1</type></trkpt>
      <trkpt lat="40.50892104" lon="-5.2569201"><ele>2799</ele><speed>10.06</speed><time>2016-06-30T12:29:47Z</time><pdop>5.0</pdop><geoidheight>54.00</geoidheight><course>143.8</course><type>1</type></trkpt>
      <trkpt lat="40.50882232" lon="-5.25691757"><ele>2804</ele><speed>9.94</speed><time>2016-06-30T12:29:48Z</time><pdop>5.0</pdop><geoidheight>54.00</geoidheight><course>164.8</course><type>1</type></trkpt>
      <trkpt lat="40.50871111" lon="-5.25693408"><ele>2808</ele><speed>10.59</speed><time>2016-06-30T12:29:49Z</time><pdop>5.0</pdop><geoidheight>54.00</geoidheight><course>180.0</course><type>1</type></trkpt>
      <trkpt lat="40.50863702" lon="-5.25709615"><ele>2815</ele><speed>8.11</speed><time>2016-06-30T12:29:51Z</time><pdop>4.0</pdop><geoidheight>54.00</geoidheight><course>221.8</course><type>1</type></trkpt>
      <trkpt lat="40.50866602" lon="-5.25725913"><ele>2818</ele><speed>6.85</speed><time>2016-06-30T12:29:53Z</time><pdop>4.0</pdop><geoidheight>54.00</geoidheight><course>277.3</course><type>1</type></trkpt>
      <trkpt lat="40.5087132" lon="-5.25738134"><ele>2824</ele><speed>9.74</speed><time>2016-06-30T12:29:54Z</time><pdop>3.0</pdop><geoidheight>54.00</geoidheight><course>298.2</course><type>1</type></trkpt>
      <trkpt lat="40.50878343" lon="-5.257443"><ele>2826</ele><speed>9.70</speed><time>2016-06-30T12:29:55Z</time><pdop>3.0</pdop><geoidheight>54.00</geoidheight><course>323.3</course><type>1</type></trkpt>
      <trkpt lat="40.50884984" lon="-5.25747652"><ele>2830</ele><speed>8.27</speed><time>2016-06-30T12:29:56Z</time><pdop>3.0</pdop><geoidheight>54.00</geoidheight><course>338.1</course><type>1</type></trkpt>
      <trkpt lat="40.50893301" lon="-5.25747397"><ele>2832</ele><speed>8.57</speed><time>2016-06-30T12:29:57Z</time><pdop>4.0</pdop><geoidheight>54.00</geoidheight><course>356.1</course><type>1</type></trkpt>
      <trkpt lat="40.50907809" lon="-5.25735733"><ele>2835</ele><speed>9.78</speed><time>2016-06-30T12:29:59Z</time><pdop>4.0</pdop><geoidheight>54.00</geoidheight><course>33.7</course><type>1</type></trkpt>
      <trkpt lat="40.50912319" lon="-5.2572305"><ele>2838</ele><speed>11.35</speed><time>2016-06-30T12:30:00Z</time><pdop>4.0</pdop><geoidheight>54.00</geoidheight><course>56.4</course><type>1</type></trkpt>
      <trkpt lat="40.50919568" lon="-5.25710583"><ele>2839</ele><speed>12.37</speed><time>2016-06-30T12:30:01Z</time><pdop>5.0</pdop><geoidheight>54.00</geoidheight><course>60.3</course><type>1</type></trkpt>
      <trkpt lat="40.50922834" lon="-5.25699058"><ele>2840</ele><speed>12.08</speed><time>2016-06-30T12:30:02Z</time><pdop>5.0</pdop><geoidheight>54.00</geoidheight><course>65.9</course><type>1</type></trkpt>
      <trkpt lat="40.50924499" lon="-5.25684034"><ele>2841</ele><speed>12.51</speed><time>2016-06-30T12:30:03Z</time><pdop>6.0</pdop><geoidheight>54.00</geoidheight><course>73.1</course><type>1</type></trkpt>
      <trkpt lat="40.50916706" lon="-5.25670238"><ele>2842</ele><speed>8.31</speed><time>2016-06-30T12:30:05Z</time><pdop>6.0</pdop><geoidheight>54.00</geoidheight><course>95.5</course><type>1</type></trkpt>
      <trkpt lat="40.50902347" lon="-5.25666127"><ele>2845</ele><speed>8.02</speed><time>2016-06-30T12:30:06Z</time><pdop>5.0</pdop><geoidheight>54.00</geoidheight><course>142.6</course><type>1</type></trkpt>
      <trkpt lat="40.50890261" lon="-5.25669073"><ele>2846</ele><speed>9.39</speed><time>2016-06-30T12:30:07Z</time><pdop>4.0</pdop><geoidheight>54.00</geoidheight><course>180.6</course><type>1</type></trkpt>
      <trkpt lat="40.50882269" lon="-5.2567339"><ele>2849</ele><speed>9.54</speed><time>2016-06-30T12:30:08Z</time><pdop>4.0</pdop><geoidheight>54.00</geoidheight><course>201.6</course><type>1</type></trkpt>
      <trkpt lat="40.50875331" lon="-5.25680089"><ele>2851</ele><speed>9.71</speed><time>2016-06-30T12:30:09Z</time><pdop>3.0</pdop><geoidheight>54.00</geoidheight><course>219.3</course><type>1</type></trkpt>
      <trkpt lat="40.50870459" lon="-5.25689871"><ele>2852</ele><speed>9.82</speed><time>2016-06-30T12:30:10Z</time><pdop>3.0</pdop><geoidheight>54.00</geoidheight><course>237.0</course><type>1</type></trkpt>
      <trkpt lat="40.50868235" lon="-5.25700264"><ele>2856</ele><speed>9.79</speed><time>2016-06-30T12:30:11Z</time><pdop>3.0</pdop><geoidheight>54.00</geoidheight><course>253.1</course><type>1</type></trkpt>
      <trkpt lat="40.50867169" lon="-5.25710627"><ele>2859</ele><speed>9.46</speed><time>2016-06-30T12:30:12Z</time><pdop>3.0</pdop><geoidheight>54.00</geoidheight><course>268.3</course><type>1</type></trkpt>
      <trkpt lat="40.50868894" lon="-5.257198"><ele>2862</ele><speed>8.61</speed><time>2016-06-30T12:30:13Z</time><pdop>3.0</pdop><geoidheight>54.00</geoidheight><course>286.3</course><type>1</type></trkpt>
      <trkpt lat="40.50872898" lon="-5.25727101"><ele>2865</ele><speed>8.59</speed><time>2016-06-30T12:30:14Z</time><pdop>3.0</pdop><geoidheight>54.00</geoidheight><course>302.7</course><type>1</type></trkpt>
      <trkpt lat="40.50879927" lon="-5.2573351"><ele>2865</ele><speed>9.12</speed><time>2016-06-30T12:30:15Z</time><pdop>3.0</pdop><geoidheight>54.00</geoidheight><course>319.4</course><type>1</type></trkpt>
      <trkpt lat="40.5088737" lon="-5.25740336"><ele>2866</ele><speed>10.32</speed><time>2016-06-30T12:30:16Z</time><pdop>3.0</pdop><geoidheight>54.00</geoidheight><course>324.6</course><type>1</type></trkpt>
      <trkpt lat="40.50896783" lon="-5.25747369"><ele>2866</ele><speed>11.38</speed><time>2016-06-30T12:30:17Z</time><pdop>4.0</pdop><geoidheight>54.00</geoidheight><course>328.1</course><type>1</type></trkpt>
      <trkpt lat="40.50907293" lon="-5.25752718"><ele>2866</ele><speed>12.11</speed><time>2016-06-30T12:30:18Z</time><pdop>5.0</pdop><geoidheight>54.00</geoidheight><course>334.0</course><type>1</type></trkpt>
      <trkpt lat="40.50919462" lon="-5.25743259"><ele>2865</ele><speed>11.72</speed><time>2016-06-30T12:30:19Z</time><pdop>6.0</pdop><geoidheight>54.00</geoidheight><course>0.2</course><type>1</type></trkpt>
      <trkpt lat="40.50937396" lon="-5.25734592"><ele>2866</ele><speed>10.93</speed><time>2016-06-30T12:30:21Z</time><pdop>6.0</pdop><geoidheight>54.00</geoidheight><course>15.2</course><type>1</type></trkpt>
      <trkpt lat="40.50947002" lon="-5.25723067"><ele>2867</ele><speed>12.27</speed><time>2016-06-30T12:30:22Z</time><pdop>8.0</pdop><geoidheight>54.00</geoidheight><course>31.0</course><type>1</type></trkpt>
      <trkpt lat="40.50953382" lon="-5.25698351"><ele>2870</ele><speed>11.98</speed><time>2016-06-30T12:30:24Z</time><pdop>8.0</pdop><geoidheight>54.00</geoidheight><course>54.7</course><type>1</type></trkpt>
      <trkpt lat="40.50951114" lon="-5.25677246"><ele>2874</ele><speed>8.64</speed><time>2016-06-30T12:30:26Z</time><pdop>7.0</pdop><geoidheight>54.00</geoidheight><course>77.1</course><type>1</type></trkpt>
      <trkpt lat="40.50939179" lon="-5.25658746"><ele>2877</ele><speed>7.76</speed><time>2016-06-30T12:30:28Z</time><pdop>6.0</pdop><geoidheight>54.00</geoidheight><course>124.1</course><type>1</type></trkpt>
      <trkpt lat="40.50928515" lon="-5.25653002"><ele>2878</ele><speed>8.94</speed><time>2016-06-30T12:30:29Z</time><pdop>6.0</pdop><geoidheight>54.00</geoidheight><course>148.8</course><type>1</type></trkpt>
      <trkpt lat="40.50914239" lon="-5.25663658"><ele>2878</ele><speed>8.70</speed><time>2016-06-30T12:30:31Z</time><pdop>4.0</pdop><geoidheight>54.00</geoidheight><course>215.6</course><type>1</type></trkpt>
      <trkpt lat="40.50909366" lon="-5.2567328"><ele>2880</ele><speed>8.68</speed><time>2016-06-30T12:30:32Z</time><pdop>3.0</pdop><geoidheight>54.00</geoidheight><course>245.2</course><type>1</type></trkpt>
      <trkpt lat="40.50908887" lon="-5.25683379"><ele>2881</ele><speed>9.26</speed><time>2016-06-30T12:30:33Z</time><pdop>3.0</pdop><geoidheight>54.00</geoidheight><course>269.4</course><type>1</type></trkpt>
      <trkpt lat="40.50911779" lon="-5.25694416"><ele>2882</ele><speed>10.73</speed><time>2016-06-30T12:30:34Z</time><pdop>3.0</pdop><geoidheight>54.00</geoidheight><course>291.4</course><type>1</type></trkpt>
      <trkpt lat="40.50918967" lon="-5.25704485"><ele>2884</ele><speed>11.70</speed><time>2016-06-30T12:30:35Z</time><pdop>3.0</pdop><geoidheight>54.00</geoidheight><course>310.9</course><type>1</type></trkpt>
      <trkpt lat="40.50928105" lon="-5.25711827"><ele>2885</ele><speed>12.28</speed><time>2016-06-30T12:30:36Z</time><pdop>3.0</pdop><geoidheight>54.00</geoidheight><course>328.7</course><type>1</type></trkpt>
      <trkpt lat="40.50938309" lon="-5.25717652"><ele>2887</ele><speed>12.40</speed><time>2016-06-30T12:30:37Z</time><pdop>3.0</pdop><geoidheight>54.00</geoidheight><course>336.9</course><type>1</type></trkpt>
      <trkpt lat="40.50948587" lon="-5.25720716"><ele>2887</ele><speed>11.95</speed><time>2016-06-30T12:30:38Z</time><pdop>4.0</pdop><geoidheight>54.00</geoidheight><course>341.8</course><type>1</type></trkpt>
      <trkpt lat="40.50957153" lon="-5.25723296"><ele>2889</ele><speed>10.97</speed><time>2016-06-30T12:30:39Z</time><pdop>5.0</pdop><geoidheight>54.00</geoidheight><course>344.5</course><type>1</type></trkpt>
      <trkpt lat="40.5097012" lon="-5.25717425"><ele>2890</ele><speed>12.06</speed><time>2016-06-30T12:30:40Z</time><pdop>5.0</pdop><geoidheight>54.00</geoidheight><course>3.7</course><type>1</type></trkpt>
      <trkpt lat="40.50979797" lon="-5.25715955"><ele>2892</ele><speed>11.55</speed><time>2016-06-30T12:30:41Z</time><pdop>5.0</pdop><geoidheight>54.00</geoidheight><course>3.4</course><type>1</type></trkpt>
      <trkpt lat="40.50991773" lon="-5.25715425"><ele>2895</ele><speed>11.66</speed><time>2016-06-30T12:30:42Z</time><pdop>4.0</pdop><geoidheight>54.00</geoidheight><course>357.8</course><type>1</type></trkpt>
      <trkpt lat="40.51000207" lon="-5.25717631"><ele>2898</ele><speed>11.23</speed><time>2016-06-30T12:30:43Z</time><pdop>3.0</pdop><geoidheight>54.00</geoidheight><course>354.4</course><type>1</type></trkpt>
      <trkpt lat="40.51010867" lon="-5.25714837"><ele>2898</ele><speed>10.90</speed><time>2016-06-30T12:30:44Z</time><pdop>3.0</pdop><geoidheight>54.00</geoidheight><course>3.2</course><type>1</type></trkpt>
      <trkpt lat="40.51019303" lon="-5.25712629"><ele>2899</ele><speed>10.59</speed><time>2016-06-30T12:30:45Z</time><pdop>4.0</pdop><geoidheight>54.00</geoidheight><course>8.2</course><type>1</type></trkpt>
      <trkpt lat="40.51029789" lon="-5.25707363"><ele>2899</ele><speed>11.14</speed><time>2016-06-30T12:30:46Z</time><pdop>4.0</pdop><geoidheight>54.00</geoidheight><course>18.3</course><type>1</type></trkpt>
      <trkpt lat="40.51039029" lon="-5.25696505"><ele>2900</ele><speed>12.51</speed><time>2016-06-30T12:30:47Z</time><pdop>3.0</pdop><geoidheight>54.00</geoidheight><course>34.8</course><type>1</type></trkpt>
      <trkpt lat="40.5104706" lon="-5.25686469"><ele>2902</ele><speed>12.72</speed><time>2016-06-30T12:30:48Z</time><pdop>3.0</pdop><geoidheight>54.00</geoidheight><course>40.3</course><type>1</type></trkpt>
      <trkpt lat="40.51055259" lon="-5.25675924"><ele>2905</ele><speed>12.63</speed><time>2016-06-30T12:30:49Z</time><pdop>3.0</pdop><geoidheight>54.00</geoidheight><course>44.0</course><type>1</type></trkpt>
      <trkpt lat="40.51062452" lon="-5.25664847"><ele>2906</ele><speed>12.15</speed><time>2016-06-30T12:30:50Z</time><pdop>3.0</pdop><geoidheight>54.00</geoidheight><course>50.2</course><type>1</type></trkpt>
      <trkpt lat="40.51068067" lon="-5.25654113"><ele>2908</ele><speed>11.57</speed><time>2016-06-30T12:30:51Z</time><pdop>3.0</pdop><geoidheight>54.00</geoidheight><course>56.0</course><type>1</type></trkpt>
      <trkpt lat="40.51069232" lon="-5.25641652"><ele>2908</ele><speed>10.75</speed><time>2016-06-30T12:30:52Z</time><pdop>3.0</pdop><geoidheight>54.00</geoidheight><course>74.5</course><type>1</type></trkpt>
      <trkpt lat="40.51067381" lon="-5.25631022"><ele>2908</ele><speed>9.90</speed><time>2016-06-30T12:30:53Z</time><pdop>3.0</pdop><geoidheight>54.00</geoidheight><course>96.6</course><type>1</type></trkpt>
      <trkpt lat="40.51065225" lon="-5.25621077"><ele>2909</ele><speed>9.28</speed><time>2016-06-30T12:30:54Z</time><pdop>3.0</pdop><geoidheight>54.00</geoidheight><course>103.5</course><type>1</type></trkpt>
      <trkpt lat="40.51059692" lon="-5.25611926"><ele>2908</ele><speed>9.14</speed><time>2016-06-30T12:30:55Z</time><pdop>3.0</pdop><geoidheight>54.00</geoidheight><course>117.8</course><type>1</type></trkpt>
      <trkpt lat="40.51056503" lon="-5.25601403"><ele>2908</ele><speed>9.48</speed><time>2016-06-30T12:30:56Z</time><pdop>3.0</pdop><geoidheight>54.00</geoidheight><course>111.1</course><type>1</type></trkpt>
      <trkpt lat="40.51053415" lon="-5.25587817"><ele>2910</ele><speed>10.75</speed><time>2016-06-30T12:30:57Z</time><pdop>4.0</pdop><geoidheight>54.00</geoidheight><course>107.0</course><type>1</type></trkpt>
      <trkpt lat="40.51055562" lon="-5.25578231"><ele>2909</ele><speed>10.18</speed><time>2016-06-30T12:30:58Z</time><pdop>4.0</pdop><geoidheight>54.00</geoidheight><course>94.6</course><type>1</type></trkpt>
      <trkpt lat="40.51060611" lon="-5.25555346"><ele>2910</ele><speed>9.08</speed><time>2016-06-30T12:31:00Z</time><pdop>7.0</pdop><geoidheight>54.00</geoidheight><course>76.6</course><type>1</type></trkpt>
      <trkpt lat="40.51071061" lon="-5.25542693"><ele>2911</ele><speed>10.01</speed><time>2016-06-30T12:31:01Z</time><pdop>8.0</pdop><geoidheight>54.00</geoidheight><course>58.7</course><type>1</type></trkpt>
      <trkpt lat="40.51092991" lon="-5.25525732"><ele>2763</ele><speed>11.11</speed><time>2016-06-30T12:31:03Z</time><pdop>8.0</pdop><geoidheight>54.00</geoidheight><course>43.1</course><type>1</type></trkpt>
      <trkpt lat="40.51107734" lon="-5.25506846"><ele>2807</ele><speed>11.58</speed><time>2016-06-30T12:31:05Z</time><pdop>11.0</pdop><geoidheight>54.00</geoidheight><course>45.1</course><type>1</type></trkpt>
      <trkpt lat="40.51129327" lon="-5.25478519"><ele>2833</ele><speed>14.58</speed><time>2016-06-30T12:31:07Z</time><pdop>11.0</pdop><geoidheight>54.00</geoidheight><course>46.7</course><type>1</type></trkpt>
      <trkpt lat="40.51149759" lon="-5.25464119"><ele>2843</ele><speed>17.52</speed><time>2016-06-30T12:31:08Z</time><pdop>9.0</pdop><geoidheight>54.00</geoidheight><course>39.8</course><type>1</type></trkpt>
      <trkpt lat="40.51164755" lon="-5.25449988"><ele>2856</ele><speed>17.55</speed><time>2016-06-30T12:31:09Z</time><pdop>9.0</pdop><geoidheight>54.00</geoidheight><course>38.0</course><type>1</type></trkpt>
      <trkpt lat="40.51180637" lon="-5.25437236"><ele>2864</ele><speed>17.02</speed><time>2016-06-30T12:31:10Z</time><pdop>8.0</pdop><geoidheight>54.00</geoidheight><course>38.4</course><type>1</type></trkpt>
      <trkpt lat="40.51192554" lon="-5.25424989"><ele>2866</ele><speed>16.01</speed><time>2016-06-30T12:31:11Z</time><pdop>8.0</pdop><geoidheight>54.00</geoidheight><course>40.9</course><type>1</type></trkpt>
      <trkpt lat="40.51211023" lon="-5.2540032"><ele>2864</ele><speed>14.40</speed><time>2016-06-30T12:31:13Z</time><pdop>9.0</pdop><geoidheight>54.00</geoidheight><course>47.0</course><type>1</type></trkpt>
      <trkpt lat="40.51232565" lon="-5.25374141"><ele>2873</ele><speed>14.99</speed><time>2016-06-30T12:31:15Z</time><pdop>10.0</pdop><geoidheight>54.00</geoidheight><course>44.9</course><type>1</type></trkpt>
      <trkpt lat="40.51258474" lon="-5.25349117"><ele>2877</ele><speed>17.51</speed><time>2016-06-30T12:31:17Z</time><pdop>10.0</pdop><geoidheight>54.00</geoidheight><course>37.1</course><type>1</type></trkpt>
      <trkpt lat="40.51273657" lon="-5.25336681"><ele>2877</ele><speed>17.14</speed><time>2016-06-30T12:31:18Z</time><pdop>9.0</pdop><geoidheight>54.00</geoidheight><course>36.4</course><type>1</type></trkpt>
      <trkpt lat="40.51287566" lon="-5.25324767"><ele>2877</ele><speed>16.83</speed><time>2016-06-30T12:31:19Z</time><pdop>9.0</pdop><geoidheight>54.00</geoidheight><course>36.0</course><type>1</type></trkpt>
      <trkpt lat="40.51300952" lon="-5.25313329"><ele>2876</ele><speed>16.02</speed><time>2016-06-30T12:31:20Z</time><pdop>8.0</pdop><geoidheight>54.00</geoidheight><course>36.4</course><type>1</type></trkpt>
      <trkpt lat="40.51315724" lon="-5.25301463"><ele>2873</ele><speed>16.53</speed><time>2016-06-30T12:31:21Z</time><pdop>7.0</pdop><geoidheight>54.00</geoidheight><course>35.7</course><type>1</type></trkpt>
      <trkpt lat="40.51329035" lon="-5.25290007"><ele>2870</ele><speed>17.07</speed><time>2016-06-30T12:31:22Z</time><pdop>7.0</pdop><geoidheight>54.00</geoidheight><course>35.2</course><type>1</type></trkpt>
      <trkpt lat="40.51342745" lon="-5.25278444"><ele>2867</ele><speed>17.40</speed><time>2016-06-30T12:31:23Z</time><pdop>6.0</pdop><geoidheight>54.00</geoidheight><course>34.8</course><type>1</type></trkpt>
      <trkpt lat="40.51355888" lon="-5.25266344"><ele>2866</ele><speed>17.13</speed><time>2016-06-30T12:31:24Z</time><pdop>6.0</pdop><geoidheight>54.00</geoidheight><course>35.4</course><type>1</type></trkpt>
      <trkpt lat="40.51368968" lon="-5.25254242"><ele>2863</ele><speed>17.10</speed><time>2016-06-30T12:31:25Z</time><pdop>6.0</pdop><geoidheight>54.00</geoidheight><course>35.8</course><type>1</type></trkpt>
      <trkpt lat="40.51381952" lon="-5.25242085"><ele>2862</ele><speed>16.70</speed><time>2016-06-30T12:31:26Z</time><pdop>6.0</pdop><geoidheight>54.00</geoidheight><course>35.8</course><type>1</type></trkpt>
      <trkpt lat="40.5139319" lon="-5.25230768"><ele>2861</ele><speed>16.17</speed><time>2016-06-30T12:31:27Z</time><pdop>5.0</pdop><geoidheight>54.00</geoidheight><course>36.7</course><type>1</type></trkpt>
      <trkpt lat="40.5140574" lon="-5.25220317"><ele>2859</ele><speed>15.87</speed><time>2016-06-30T12:31:28Z</time><pdop>6.0</pdop><geoidheight>54.00</geoidheight><course>35.4</course><type>1</type></trkpt>
      <trkpt lat="40.51416739" lon="-5.25208734"><ele>2856</ele><speed>15.73</speed><time>2016-06-30T12:31:29Z</time><pdop>7.0</pdop><geoidheight>54.00</geoidheight><course>38.0</course><type>1</type></trkpt>
      <trkpt lat="40.51428639" lon="-5.25197418"><ele>2852</ele><speed>16.03</speed><time>2016-06-30T12:31:30Z</time><pdop>6.0</pdop><geoidheight>54.00</geoidheight><course>38.8</course><type>1</type></trkpt>
      <trkpt lat="40.51439397" lon="-5.25184722"><ele>2850</ele><speed>15.83</speed><time>2016-06-30T12:31:31Z</time><pdop>7.0</pdop><geoidheight>54.00</geoidheight><course>42.0</course><type>1</type></trkpt>
      <trkpt lat="40.51449047" lon="-5.25171956"><ele>2848</ele><speed>15.50</speed><time>2016-06-30T12:31:32Z</time><pdop>8.0</pdop><geoidheight>54.00</geoidheight><course>45.2</course><type>1</type></trkpt>
      <trkpt lat="40.51465583" lon="-5.25146822"><ele>2847</ele><speed>14.80</speed><time>2016-06-30T12:31:34Z</time><pdop>8.0</pdop><geoidheight>54.00</geoidheight><course>47.1</course><type>1</type></trkpt>
      <trkpt lat="40.51487378" lon="-5.25120854"><ele>2841</ele><speed>15.40</speed><time>2016-06-30T12:31:36Z</time><pdop>7.0</pdop><geoidheight>54.00</geoidheight><course>46.3</course><type>1</type></trkpt>
      <trkpt lat="40.51498198" lon="-5.25106811"><ele>2839</ele><speed>15.05</speed><time>2016-06-30T12:31:37Z</time><pdop>7.0</pdop><geoidheight>54.00</geoidheight><course>48.4</course><type>1</type></trkpt>
      <trkpt lat="40.51514239" lon="-5.25080105"><ele>2834</ele><speed>15.51</speed><time>2016-06-30T12:31:39Z</time><pdop>6.0</pdop><geoidheight>54.00</geoidheight><course>48.8</course><type>1</type></trkpt>
      <trkpt lat="40.51522814" lon="-5.25066134"><ele>2846</ele><speed>14.98</speed><time>2016-06-30T12:31:40Z</time><pdop>7.0</pdop><geoidheight>54.00</geoidheight><course>50.2</course><type>1</type></trkpt>
      <trkpt lat="40.51531079" lon="-5.2505326"><ele>2841</ele><speed>14.97</speed><time>2016-06-30T12:31:41Z</time><pdop>7.0</pdop><geoidheight>54.00</geoidheight><course>50.8</course><type>1</type></trkpt>
      <trkpt lat="40.51542325" lon="-5.2503911"><ele>2839</ele><speed>15.87</speed><time>2016-06-30T12:31:42Z</time><pdop>7.0</pdop><geoidheight>54.00</geoidheight><course>47.7</course><type>1</type></trkpt>
      <trkpt lat="40.51556825" lon="-5.25024966"><ele>2836</ele><speed>17.66</speed><time>2016-06-30T12:31:43Z</time><pdop>7.0</pdop><geoidheight>54.00</geoidheight><course>42.4</course><type>1</type></trkpt>
      <trkpt lat="40.51570621" lon="-5.25010261"><ele>2834</ele><speed>17.62</speed><time>2016-06-30T12:31:44Z</time><pdop>7.0</pdop><geoidheight>54.00</geoidheight><course>41.1</course><type>1</type></trkpt>
      <trkpt lat="40.51580925" lon="-5.2499757"><ele>2834</ele><speed>17.25</speed><time>2016-06-30T12:31:45Z</time><pdop>8.0</pdop><geoidheight>54.00</geoidheight><course>39.3</course><type>1</type></trkpt>
      <trkpt lat="40.5159424" lon="-5.24984704"><ele>2832</ele><speed>16.97</speed><time>2016-06-30T12:31:46Z</time><pdop>7.0</pdop><geoidheight>54.00</geoidheight><course>38.6</course><type>1</type></trkpt>
      <trkpt lat="40.51606055" lon="-5.24972586"><ele>2829</ele><speed>16.99</speed><time>2016-06-30T12:31:47Z</time><pdop>7.0</pdop><geoidheight>54.00</geoidheight><course>38.6</course><type>1</type></trkpt>
      <trkpt lat="40.51617718" lon="-5.24960027"><ele>2827</ele><speed>17.04</speed><time>2016-06-30T12:31:48Z</time><pdop>7.0</pdop><geoidheight>54.00</geoidheight><course>39.2</course><type>1</type></trkpt>
      <trkpt lat="40.51630639" lon="-5.24947319"><ele>2824</ele><speed>17.33</speed><time>2016-06-30T12:31:49Z</time><pdop>7.0</pdop><geoidheight>54.00</geoidheight><course>39.2</course><type>1</type></trkpt>
      <trkpt lat="40.51644458" lon="-5.24933661"><ele>2823</ele><speed>17.73</speed><time>2016-06-30T12:31:50Z</time><pdop>7.0</pdop><geoidheight>54.00</geoidheight><course>38.4</course><type>1</type></trkpt>
      <trkpt lat="40.51657816" lon="-5.24920208"><ele>2820</ele><speed>17.85</speed><time>2016-06-30T12:31:51Z</time><pdop>7.0</pdop><geoidheight>54.00</geoidheight><course>39.8</course><type>1</type></trkpt>
      <trkpt lat="40.5167018" lon="-5.24905801"><ele>2819</ele><speed>18.05</speed><time>2016-06-30T12:31:52Z</time><pdop>7.0</pdop><geoidheight>54.00</geoidheight><course>39.8</course><type>1</type></trkpt>
      <trkpt lat="40.51682994" lon="-5.24892237"><ele>2817</ele><speed>18.31</speed><time>2016-06-30T12:31:53Z</time><pdop>7.0</pdop><geoidheight>54.00</geoidheight><course>39.2</course><type>1</type></trkpt>
      <trkpt lat="40.51696746" lon="-5.24878793"><ele>2815</ele><speed>18.38</speed><time>2016-06-30T12:31:54Z</time><pdop>6.0</pdop><geoidheight>54.00</geoidheight><course>38.1</course><type>1</type></trkpt>
      <trkpt lat="40.51710385" lon="-5.24866735"><ele>2813</ele><speed>18.04</speed><time>2016-06-30T12:31:55Z</time><pdop>6.0</pdop><geoidheight>54.00</geoidheight><course>37.0</course><type>1</type></trkpt>
      <trkpt lat="40.51724524" lon="-5.24854478"><ele>2809</ele><speed>18.21</speed><time>2016-06-30T12:31:56Z</time><pdop>6.0</pdop><geoidheight>54.00</geoidheight><course>35.2</course><type>1</type></trkpt>
      <trkpt lat="40.51738989" lon="-5.24842459"><ele>2805</ele><speed>17.98</speed><time>2016-06-30T12:31:57Z</time><pdop>6.0</pdop><geoidheight>54.00</geoidheight><course>34.9</course><type>1</type></trkpt>
      <trkpt lat="40.51753038" lon="-5.24829753"><ele>2801</ele><speed>17.90</speed><time>2016-06-30T12:31:58Z</time><pdop>6.0</pdop><geoidheight>54.00</geoidheight><course>36.6</course><type>1</type></trkpt>
      <trkpt lat="40.51764979" lon="-5.24816469"><ele>2798</ele><speed>17.72</speed><time>2016-06-30T12:31:59Z</time><pdop>6.0</pdop><geoidheight>54.00</geoidheight><course>38.6</course><type>1</type></trkpt>
      <trkpt lat="40.51777055" lon="-5.24803233"><ele>2795</ele><speed>17.45</speed><time>2016-06-30T12:32:00Z</time><pdop>6.0</pdop><geoidheight>54.00</geoidheight><course>40.8</course><type>1</type></trkpt>
      <trkpt lat="40.517884" lon="-5.24789542"><ele>2793</ele><speed>17.32</speed><time>2016-06-30T12:32:01Z</time><pdop>6.0</pdop><geoidheight>54.00</geoidheight><course>40.9</course><type>1</type></trkpt>
      <trkpt lat="40.5180099" lon="-5.24776357"><ele>2791</ele><speed>17.40</speed><time>2016-06-30T12:32:02Z</time><pdop>6.0</pdop><geoidheight>54.00</geoidheight><course>40.4</course><type>1</type></trkpt>
      <trkpt lat="40.51814105" lon="-5.24762724"><ele>2791</ele><speed>17.70</speed><time>2016-06-30T12:32:03Z</time><pdop>6.0</pdop><geoidheight>54.00</geoidheight><course>38.4</course><type>1</type></trkpt>
      <trkpt lat="40.51827439" lon="-5.24751248"><ele>2791</ele><speed>17.41</speed><time>2016-06-30T12:32:04Z</time><pdop>6.0</pdop><geoidheight>54.00</geoidheight><course>35.6</course><type>1</type></trkpt>
      <trkpt lat="40.51838882" lon="-5.24741507"><ele>2795</ele><speed>15.13</speed><time>2016-06-30T12:32:05Z</time><pdop>5.0</pdop><geoidheight>54.00</geoidheight><course>33.7</course><type>1</type></trkpt>
      <trkpt lat="40.51849987" lon="-5.24733305"><ele>2796</ele><speed>14.18</speed><time>2016-06-30T12:32:06Z</time><pdop>5.0</pdop><geoidheight>54.00</geoidheight><course>32.4</course><type>1</type></trkpt>
      <trkpt lat="40.51858652" lon="-5.24724814"><ele>2795</ele><speed>12.53</speed><time>2016-06-30T12:32:07Z</time><pdop>5.0</pdop><geoidheight>54.00</geoidheight><course>35.1</course><type>1</type></trkpt>
      <trkpt lat="40.51867309" lon="-5.24716546"><ele>2795</ele><speed>12.06</speed><time>2016-06-30T12:32:08Z</time><pdop>4.0</pdop><geoidheight>54.00</geoidheight><course>37.7</course><type>1</type></trkpt>
      <trkpt lat="40.51875533" lon="-5.2470785"><ele>2795</ele><speed>12.07</speed><time>2016-06-30T12:32:09Z</time><pdop>4.0</pdop><geoidheight>54.00</geoidheight><course>37.7</course><type>1</type></trkpt>
      <trkpt lat="40.51884825" lon="-5.24698725"><ele>2794</ele><speed>12.34</speed><time>2016-06-30T12:32:10Z</time><pdop>5.0</pdop><geoidheight>54.00</geoidheight><course>37.4</course><type>1</type></trkpt>
      <trkpt lat="40.51894144" lon="-5.2468948"><ele>2793</ele><speed>12.60</speed><time>2016-06-30T12:32:11Z</time><pdop>6.0</pdop><geoidheight>54.00</geoidheight><course>37.9</course><type>1</type></trkpt>
      <trkpt lat="40.51913477" lon="-5.24669746"><ele>2792</ele><speed>14.01</speed><time>2016-06-30T12:32:13Z</time><pdop>10.0</pdop><geoidheight>54.00</geoidheight><course>38.8</course><type>1</type></trkpt>
      <trkpt lat="40.51940387" lon="-5.24642104"><ele>2790</ele><speed>16.96</speed><time>2016-06-30T12:32:15Z</time><pdop>11.0</pdop><geoidheight>54.00</geoidheight><course>41.0</course><type>1</type></trkpt>
      <trkpt lat="40.51958093" lon="-5.24611507"><ele>2787</ele><speed>16.10</speed><time>2016-06-30T12:32:17Z</time><pdop>9.0</pdop><geoidheight>54.00</geoidheight><course>46.7</course><type>1</type></trkpt>
      <trkpt lat="40.51976715" lon="-5.24586177"><ele>2785</ele><speed>14.79</speed><time>2016-06-30T12:32:19Z</time><pdop>9.0</pdop><geoidheight>54.00</geoidheight><course>46.0</course><type>1</type></trkpt>
      <trkpt lat="40.51998252" lon="-5.2456145"><ele>2778</ele><speed>16.09</speed><time>2016-06-30T12:32:21Z</time><pdop>8.0</pdop><geoidheight>54.00</geoidheight><course>42.1</course><type>1</type></trkpt>
      <trkpt lat="40.52019599" lon="-5.24536578"><ele>2774</ele><speed>15.51</speed><time>2016-06-30T12:32:23Z</time><pdop>8.0</pdop><geoidheight>54.00</geoidheight><course>42.5</course><type>1</type></trkpt>
      <trkpt lat="40.5204366" lon="-5.24510513"><ele>2773</ele><speed>16.25</speed><time>2016-06-30T12:32:25Z</time><pdop>10.0</pdop><geoidheight>54.00</geoidheight><course>40.6</course><type>1</type></trkpt>
      <trkpt lat="40.52068589" lon="-5.24486025"><ele>2766</ele><speed>15.74</speed><time>2016-06-30T12:32:27Z</time><pdop>10.0</pdop><geoidheight>54.00</geoidheight><course>41.9</course><type>1</type></trkpt>
      <trkpt lat="40.52099" lon="-5.24460238"><ele>2763</ele><speed>17.23</speed><time>2016-06-30T12:32:29Z</time><pdop>12.0</pdop><geoidheight>54.00</geoidheight><course>37.9</course><type>1</type></trkpt>
      <trkpt lat="40.52118476" lon="-5.24437195"><ele>2762</ele><speed>15.92</speed><time>2016-06-30T12:32:31Z</time><pdop>12.0</pdop><geoidheight>54.00</geoidheight><course>38.2</course><type>1</type></trkpt>
      <trkpt lat="40.52139584" lon="-5.24403059"><ele>2757</ele><speed>16.75</speed><time>2016-06-30T12:32:33Z</time><pdop>9.0</pdop><geoidheight>54.00</geoidheight><course>45.5</course><type>1</type></trkpt>
      <trkpt lat="40.52161357" lon="-5.24373668"><ele>2753</ele><speed>16.69</speed><time>2016-06-30T12:32:35Z</time><pdop>9.0</pdop><geoidheight>54.00</geoidheight><course>44.6</course><type>1</type></trkpt>
      <trkpt lat="40.52185198" lon="-5.24346361"><ele>2750</ele><speed>17.08</speed><time>2016-06-30T12:32:37Z</time><pdop>10.0</pdop><geoidheight>54.00</geoidheight><course>43.3</course><type>1</type></trkpt>
      <trkpt lat="40.52204538" lon="-5.24316553"><ele>2749</ele><speed>16.85</speed><time>2016-06-30T12:32:39Z</time><pdop>13.0</pdop><geoidheight>54.00</geoidheight><course>46.3</course><type>1</type></trkpt>
      <trkpt lat="40.52224878" lon="-5.24280909"><ele>2747</ele><speed>17.45</speed><time>2016-06-30T12:32:41Z</time><pdop>16.0</pdop><geoidheight>54.00</geoidheight><course>50.3</course><type>1</type></trkpt>
      <trkpt lat="40.52253092" lon="-5.24266724"><ele>2744</ele><speed>15.82</speed><time>2016-06-30T12:32:43Z</time><pdop>14.0</pdop><geoidheight>54.00</geoidheight><course>38.8</course><type>1</type></trkpt>
      <trkpt lat="40.52275506" lon="-5.24241457"><ele>2743</ele><speed>15.61</speed><time>2016-06-30T12:32:45Z</time><pdop>8.0</pdop><geoidheight>54.00</geoidheight><course>39.0</course><type>1</type></trkpt>
      <trkpt lat="40.52288879" lon="-5.24229798"><ele>2741</ele><speed>15.03</speed><time>2016-06-30T12:32:46Z</time><pdop>7.0</pdop><geoidheight>54.00</geoidheight><course>34.3</course><type>1</type></trkpt>
      <trkpt lat="40.52301889" lon="-5.24221124"><ele>2740</ele><speed>14.65</speed><time>2016-06-30T12:32:47Z</time><pdop>6.0</pdop><geoidheight>54.00</geoidheight><course>27.0</course><type>1</type></trkpt>
      <trkpt lat="40.52312572" lon="-5.24214629"><ele>2738</ele><speed>13.77</speed><time>2016-06-30T12:32:48Z</time><pdop>6.0</pdop><geoidheight>54.00</geoidheight><course>24.3</course><type>1</type></trkpt>
      <trkpt lat="40.52326672" lon="-5.24208408"><ele>2738</ele><speed>14.85</speed><time>2016-06-30T12:32:49Z</time><pdop>5.0</pdop><geoidheight>54.00</geoidheight><course>20.4</course><type>1</type></trkpt>
      <trkpt lat="40.5233787" lon="-5.24205286"><ele>2740</ele><speed>12.37</speed><time>2016-06-30T12:32:50Z</time><pdop>5.0</pdop><geoidheight>54.00</geoidheight><course>12.5</course><type>1</type></trkpt>
      <trkpt lat="40.52348831" lon="-5.24203207"><ele>2738</ele><speed>11.22</speed><time>2016-06-30T12:32:51Z</time><pdop>4.0</pdop><geoidheight>54.00</geoidheight><course>8.6</course><type>1</type></trkpt>
      <trkpt lat="40.52359008" lon="-5.24201314"><ele>2738</ele><speed>11.19</speed><time>2016-06-30T12:32:52Z</time><pdop>5.0</pdop><geoidheight>54.00</geoidheight><course>7.6</course><type>1</type></trkpt>
      <trkpt lat="40.52369573" lon="-5.24198389"><ele>2737</ele><speed>11.35</speed><time>2016-06-30T12:32:53Z</time><pdop>5.0</pdop><geoidheight>54.00</geoidheight><course>8.2</course><type>1</type></trkpt>
      <trkpt lat="40.52383103" lon="-5.24192466"><ele>2733</ele><speed>13.87</speed><time>2016-06-30T12:32:54Z</time><pdop>4.0</pdop><geoidheight>54.00</geoidheight><course>17.0</course><type>1</type></trkpt>
      <trkpt lat="40.52395923" lon="-5.2418447"><ele>2732</ele><speed>14.78</speed><time>2016-06-30T12:32:55Z</time><pdop>5.0</pdop><geoidheight>54.00</geoidheight><course>22.5</course><type>1</type></trkpt>
      <trkpt lat="40.52407451" lon="-5.24177898"><ele>2730</ele><speed>14.29</speed><time>2016-06-30T12:32:56Z</time><pdop>5.0</pdop><geoidheight>54.00</geoidheight><course>25.6</course><type>1</type></trkpt>
      <trkpt lat="40.52419298" lon="-5.24171214"><ele>2729</ele><speed>13.60</speed><time>2016-06-30T12:32:57Z</time><pdop>4.0</pdop><geoidheight>54.00</geoidheight><course>24.4</course><type>1</type></trkpt>
      <trkpt lat="40.52430811" lon="-5.24164051"><ele>2730</ele><speed>13.53</speed><time>2016-06-30T12:32:58Z</time><pdop>5.0</pdop><geoidheight>54.00</geoidheight><course>24.2</course><type>1</type></trkpt>
      <trkpt lat="40.52441397" lon="-5.24159254"><ele>2730</ele><speed>12.91</speed><time>2016-06-30T12:32:59Z</time><pdop>6.0</pdop><geoidheight>54.00</geoidheight><course>21.4</course><type>1</type></trkpt>
      <trkpt lat="40.52451909" lon="-5.24153277"><ele>2729</ele><speed>13.01</speed><time>2016-06-30T12:33:00Z</time><pdop>6.0</pdop><geoidheight>54.00</geoidheight><course>20.6</course><type>1</type></trkpt>
      <trkpt lat="40.52466281" lon="-5.24148788"><ele>2727</ele><speed>14.34</speed><time>2016-06-30T12:33:01Z</time><pdop>6.0</pdop><geoidheight>54.00</geoidheight><course>18.1</course><type>1</type></trkpt>
      <trkpt lat="40.52480482" lon="-5.24142164"><ele>2726</ele><speed>14.90</speed><time>2016-06-30T12:33:02Z</time><pdop>6.0</pdop><geoidheight>54.00</geoidheight><course>17.7</course><type>1</type></trkpt>
      <trkpt lat="40.52492087" lon="-5.24136663"><ele>2726</ele><speed>14.78</speed><time>2016-06-30T12:33:03Z</time><pdop>6.0</pdop><geoidheight>54.00</geoidheight><course>18.9</course><type>1</type></trkpt>
      <trkpt lat="40.52502788" lon="-5.24128497"><ele>2724</ele><speed>14.71</speed><time>2016-06-30T12:33:04Z</time><pdop>5.0</pdop><geoidheight>54.00</geoidheight><course>25.1</course><type>1</type></trkpt>
      <trkpt lat="40.52513787" lon="-5.24119534"><ele>2723</ele><speed>13.97</speed><time>2016-06-30T12:33:05Z</time><pdop>4.0</pdop><geoidheight>54.00</geoidheight><course>30.5</course><type>1</type></trkpt>
      <trkpt lat="40.52525508" lon="-5.24109718"><ele>2722</ele><speed>13.57</speed><time>2016-06-30T12:33:06Z</time><pdop>4.0</pdop><geoidheight>54.00</geoidheight><course>32.5</course><type>1</type></trkpt>
      <trkpt lat="40.52535634" lon="-5.24102016"><ele>2721</ele><speed>12.94</speed><time>2016-06-30T12:33:07Z</time><pdop>4.0</pdop><geoidheight>54.00</geoidheight><course>28.0</course><type>1</type></trkpt>
      <trkpt lat="40.52545256" lon="-5.24097177"><ele>2722</ele><speed>12.79</speed><time>2016-06-30T12:33:08Z</time><pdop>4.0</pdop><geoidheight>54.00</geoidheight><course>22.7</course><type>1</type></trkpt>
      <trkpt lat="40.52556896" lon="-5.24091613"><ele>2721</ele><speed>12.87</speed><time>2016-06-30T12:33:09Z</time><pdop>4.0</pdop><geoidheight>54.00</geoidheight><course>20.1</course><type>1</type></trkpt>
      <trkpt lat="40.52567657" lon="-5.24087192"><ele>2720</ele><speed>12.78</speed><time>2016-06-30T12:33:10Z</time><pdop>4.0</pdop><geoidheight>54.00</geoidheight><course>18.2</course><type>1</type></trkpt>
      <trkpt lat="40.52581044" lon="-5.24082772"><ele>2719</ele><speed>14.42</speed><time>2016-06-30T12:33:11Z</time><pdop>4.0</pdop><geoidheight>54.00</geoidheight><course>15.7</course><type>1</type></trkpt>
      <trkpt lat="40.52594495" lon="-5.24076853"><ele>2719</ele><speed>14.62</speed><time>2016-06-30T12:33:12Z</time><pdop>5.0</pdop><geoidheight>54.00</geoidheight><course>15.4</course><type>1</type></trkpt>
      <trkpt lat="40.5260673" lon="-5.24070323"><ele>2720</ele><speed>14.64</speed><time>2016-06-30T12:33:13Z</time><pdop>6.0</pdop><geoidheight>54.00</geoidheight><course>20.4</course><type>1</type></trkpt>
      <trkpt lat="40.52617443" lon="-5.24063908"><ele>2719</ele><speed>13.96</speed><time>2016-06-30T12:33:14Z</time><pdop>7.0</pdop><geoidheight>54.00</geoidheight><course>23.5</course><type>1</type></trkpt>
      <trkpt lat="40.52642611" lon="-5.2405087"><ele>2719</ele><speed>14.24</speed><time>2016-06-30T12:33:16Z</time><pdop>10.0</pdop><geoidheight>54.00</geoidheight><course>22.9</course><type>1</type></trkpt>
      <trkpt lat="40.52664418" lon="-5.2404576"><ele>2720</ele><speed>13.40</speed><time>2016-06-30T12:33:18Z</time><pdop>11.0</pdop><geoidheight>54.00</geoidheight><course>16.7</course><type>1</type></trkpt>
      <trkpt lat="40.52687281" lon="-5.24034894"><ele>2716</ele><speed>14.28</speed><time>2016-06-30T12:33:20Z</time><pdop>10.0</pdop><geoidheight>54.00</geoidheight><course>15.8</course><type>1</type></trkpt>
      <trkpt lat="40.52712087" lon="-5.24020781"><ele>2716</ele><speed>15.12</speed><time>2016-06-30T12:33:22Z</time><pdop>9.0</pdop><geoidheight>54.00</geoidheight><course>22.0</course><type>1</type></trkpt>
      <trkpt lat="40.52730882" lon="-5.24012024"><ele>2714</ele><speed>17.19</speed><time>2016-06-30T12:33:23Z</time><pdop>9.0</pdop><geoidheight>54.00</geoidheight><course>21.5</course><type>1</type></trkpt>
      <trkpt lat="40.52747154" lon="-5.24004644"><ele>2715</ele><speed>17.67</speed><time>2016-06-30T12:33:24Z</time><pdop>8.0</pdop><geoidheight>54.00</geoidheight><course>19.8</course><type>1</type></trkpt>
      <trkpt lat="40.52763134" lon="-5.23997773"><ele>2715</ele><speed>17.63</speed><time>2016-06-30T12:33:25Z</time><pdop>7.0</pdop><geoidheight>54.00</geoidheight><course>19.4</course><type>1</type></trkpt>
      <trkpt lat="40.52776437" lon="-5.23989649"><ele>2714</ele><speed>17.34</speed><time>2016-06-30T12:33:26Z</time><pdop>7.0</pdop><geoidheight>54.00</geoidheight><course>21.2</course><type>1</type></trkpt>
      <trkpt lat="40.52788001" lon="-5.23977052"><ele>2713</ele><speed>16.78</speed><time>2016-06-30T12:33:27Z</time><pdop>6.0</pdop><geoidheight>54.00</geoidheight><course>25.9</course><type>1</type></trkpt>
      <trkpt lat="40.52800965" lon="-5.23969847"><ele>2712</ele><speed>16.56</speed><time>2016-06-30T12:33:28Z</time><pdop>7.0</pdop><geoidheight>54.00</geoidheight><course>24.7</course><type>1</type></trkpt>
      <trkpt lat="40.52814931" lon="-5.23963295"><ele>2711</ele><speed>15.88</speed><time>2016-06-30T12:33:29Z</time><pdop>6.0</pdop><geoidheight>54.00</geoidheight><course>21.2</course><type>1</type></trkpt>
      <trkpt lat="40.52826885" lon="-5.23957533"><ele>2710</ele><speed>15.44</speed><time>2016-06-30T12:33:30Z</time><pdop>5.0</pdop><geoidheight>54.00</geoidheight><course>22.3</course><type>1</type></trkpt>
      <trkpt lat="40.52839484" lon="-5.23948177"><ele>2709</ele><speed>15.65</speed><time>2016-06-30T12:33:31Z</time><pdop>5.0</pdop><geoidheight>54.00</geoidheight><course>24.5</course><type>1</type></trkpt>
      <trkpt lat="40.52852725" lon="-5.23939365"><ele>2708</ele><speed>15.80</speed><time>2016-06-30T12:33:32Z</time><pdop>6.0</pdop><geoidheight>54.00</geoidheight><course>26.1</course><type>1</type></trkpt>
      <trkpt lat="40.52865394" lon="-5.23926798"><ele>2708</ele><speed>16.51</speed><time>2016-06-30T12:33:33Z</time><pdop>8.0</pdop><geoidheight>54.00</geoidheight><course>30.4</course><type>1</type></trkpt>
      <trkpt lat="40.52878612" lon="-5.23915232"><ele>2707</ele><speed>16.98</speed><time>2016-06-30T12:33:34Z</time><pdop>8.0</pdop><geoidheight>54.00</geoidheight><course>31.5</course><type>1</type></trkpt>
      <trkpt lat="40.52899317" lon="-5.23892351"><ele>2707</ele><speed>16.66</speed><time>2016-06-30T12:33:36Z</time><pdop>6.0</pdop><geoidheight>54.00</geoidheight><course>35.5</course><type>1</type></trkpt>
      <trkpt lat="40.52909949" lon="-5.23881928"><ele>2706</ele><speed>16.13</speed><time>2016-06-30T12:33:37Z</time><pdop>7.0</pdop><geoidheight>54.00</geoidheight><course>35.5</course><type>1</type></trkpt>
      <trkpt lat="40.52922214" lon="-5.2386904"><ele>2705</ele><speed>15.80</speed><time>2016-06-30T12:33:38Z</time><pdop>6.0</pdop><geoidheight>54.00</geoidheight><course>36.2</course><type>1</type></trkpt>
      <trkpt lat="40.52931299" lon="-5.23857247"><ele>2703</ele><speed>15.29</speed><time>2016-06-30T12:33:39Z</time><pdop>7.0</pdop><geoidheight>54.00</geoidheight><course>37.6</course><type>1</type></trkpt>
      <trkpt lat="40.52943708" lon="-5.23846053"><ele>2703</ele><speed>15.92</speed><time>2016-06-30T12:33:40Z</time><pdop>8.0</pdop><geoidheight>54.00</geoidheight><course>37.7</course><type>1</type></trkpt>
      <trkpt lat="40.5295702" lon="-5.2383423"><ele>2701</ele><speed>16.22</speed><time>2016-06-30T12:33:41Z</time><pdop>7.0</pdop><geoidheight>54.00</geoidheight><course>37.0</course><type>1</type></trkpt>
      <trkpt lat="40.52970129" lon="-5.23824266"><ele>2698</ele><speed>16.23</speed><time>2016-06-30T12:33:42Z</time><pdop>7.0</pdop><geoidheight>54.00</geoidheight><course>34.2</course><type>1</type></trkpt>
      <trkpt lat="40.5298353" lon="-5.23815197"><ele>2696</ele><speed>15.69</speed><time>2016-06-30T12:33:43Z</time><pdop>6.0</pdop><geoidheight>54.00</geoidheight><course>31.5</course><type>1</type></trkpt>
      <trkpt lat="40.52996545" lon="-5.2380632"><ele>2694</ele><speed>15.33</speed><time>2016-06-30T12:33:44Z</time><pdop>6.0</pdop><geoidheight>54.00</geoidheight><course>29.9</course><type>1</type></trkpt>
      <trkpt lat="40.53007514" lon="-5.23798601"><ele>2692</ele><speed>14.20</speed><time>2016-06-30T12:33:45Z</time><pdop>6.0</pdop><geoidheight>54.00</geoidheight><course>29.0</course><type>1</type></trkpt>
      <trkpt lat="40.53016292" lon="-5.23789693"><ele>2690</ele><speed>12.37</speed><time>2016-06-30T12:33:46Z</time><pdop>6.0</pdop><geoidheight>54.00</geoidheight><course>35.9</course><type>1</type></trkpt>
      <trkpt lat="40.53025465" lon="-5.23780201"><ele>2689</ele><speed>12.74</speed><time>2016-06-30T12:33:47Z</time><pdop>5.0</pdop><geoidheight>54.00</geoidheight><course>37.2</course><type>1</type></trkpt>
      <trkpt lat="40.53033886" lon="-5.2376893"><ele>2685</ele><speed>13.03</speed><time>2016-06-30T12:33:48Z</time><pdop>6.0</pdop><geoidheight>54.00</geoidheight><course>41.4</course><type>1</type></trkpt>
      <trkpt lat="40.53043894" lon="-5.23758939"><ele>2681</ele><speed>13.12</speed><time>2016-06-30T12:33:49Z</time><pdop>7.0</pdop><geoidheight>54.00</geoidheight><course>40.1</course><type>1</type></trkpt>
      <trkpt lat="40.53064698" lon="-5.23735279"><ele>2679</ele><speed>14.80</speed><time>2016-06-30T12:33:51Z</time><pdop>9.0</pdop><geoidheight>54.00</geoidheight><course>41.6</course><type>1</type></trkpt>
      <trkpt lat="40.53086506" lon="-5.23706714"><ele>2679</ele><speed>16.75</speed><time>2016-06-30T12:33:53Z</time><pdop>8.0</pdop><geoidheight>54.00</geoidheight><course>44.1</course><type>1</type></trkpt>
      <trkpt lat="40.5309866" lon="-5.23694035"><ele>2677</ele><speed>16.64</speed><time>2016-06-30T12:33:54Z</time><pdop>9.0</pdop><geoidheight>54.00</geoidheight><course>43.0</course><type>1</type></trkpt>
      <trkpt lat="40.53109644" lon="-5.23677395"><ele>2676</ele><speed>17.59</speed><time>2016-06-30T12:33:55Z</time><pdop>9.0</pdop><geoidheight>54.00</geoidheight><course>47.5</course><type>1</type></trkpt>
      <trkpt lat="40.53130213" lon="-5.23646257"><ele>2673</ele><speed>16.75</speed><time>2016-06-30T12:33:57Z</time><pdop>8.0</pdop><geoidheight>54.00</geoidheight><course>49.1</course><type>1</type></trkpt>
      <trkpt lat="40.53147899" lon="-5.2361761"><ele>2671</ele><speed>15.42</speed><time>2016-06-30T12:33:59Z</time><pdop>11.0</pdop><geoidheight>54.00</geoidheight><course>49.8</course><type>1</type></trkpt>
      <trkpt lat="40.53168684" lon="-5.23591348"><ele>2667</ele><speed>15.81</speed><time>2016-06-30T12:34:01Z</time><pdop>8.0</pdop><geoidheight>54.00</geoidheight><course>45.3</course><type>1</type></trkpt>
      <trkpt lat="40.53179653" lon="-5.23577515"><ele>2666</ele><speed>15.70</speed><time>2016-06-30T12:34:02Z</time><pdop>7.0</pdop><geoidheight>54.00</geoidheight><course>45.5</course><type>1</type></trkpt>
      <trkpt lat="40.53191554" lon="-5.23565123"><ele>2663</ele><speed>15.85</speed><time>2016-06-30T12:34:03Z</time><pdop>7.0</pdop><geoidheight>54.00</geoidheight><course>43.4</course><type>1</type></trkpt>
      <trkpt lat="40.53202819" lon="-5.23552533"><ele>2663</ele><speed>15.66</speed><time>2016-06-30T12:34:04Z</time><pdop>7.0</pdop><geoidheight>54.00</geoidheight><course>42.3</course><type>1</type></trkpt>
      <trkpt lat="40.53214246" lon="-5.2354034"><ele>2662</ele><speed>15.61</speed><time>2016-06-30T12:34:05Z</time><pdop>6.0</pdop><geoidheight>54.00</geoidheight><course>42.6</course><type>1</type></trkpt>
      <trkpt lat="40.53225825" lon="-5.2352783"><ele>2661</ele><speed>15.72</speed><time>2016-06-30T12:34:06Z</time><pdop>7.0</pdop><geoidheight>54.00</geoidheight><course>44.3</course><type>1</type></trkpt>
      <trkpt lat="40.53236955" lon="-5.23513528"><ele>2660</ele><speed>16.14</speed><time>2016-06-30T12:34:07Z</time><pdop>8.0</pdop><geoidheight>54.00</geoidheight><course>44.4</course><type>1</type></trkpt>
      <trkpt lat="40.53246236" lon="-5.23497213"><ele>2657</ele><speed>16.81</speed><time>2016-06-30T12:34:08Z</time><pdop>8.0</pdop><geoidheight>54.00</geoidheight><course>50.1</course><type>1</type></trkpt>
      <trkpt lat="40.53256724" lon="-5.23479214"><ele>2654</ele><speed>18.63</speed><time>2016-06-30T12:34:09Z</time><pdop>6.0</pdop><geoidheight>54.00</geoidheight><course>52.5</course><type>1</type></trkpt>
      <trkpt lat="40.53267457" lon="-5.23460773"><ele>2653</ele><speed>18.63</speed><time>2016-06-30T12:34:10Z</time><pdop>6.0</pdop><geoidheight>54.00</geoidheight><course>54.5</course><type>1</type></trkpt>
      <trkpt lat="40.53275471" lon="-5.23443129"><ele>2652</ele><speed>17.77</speed><time>2016-06-30T12:34:11Z</time><pdop>5.0</pdop><geoidheight>54.00</geoidheight><course>57.3</course><type>1</type></trkpt>
      <trkpt lat="40.5328381" lon="-5.23425879"><ele>2651</ele><speed>17.53</speed><time>2016-06-30T12:34:12Z</time><pdop>6.0</pdop><geoidheight>54.00</geoidheight><course>57.6</course><type>1</type></trkpt>
      <trkpt lat="40.53286834" lon="-5.23408097"><ele>2651</ele><speed>16.99</speed><time>2016-06-30T12:34:13Z</time><pdop>6.0</pdop><geoidheight>54.00</geoidheight><course>61.9</course><type>1</type></trkpt>
      <trkpt lat="40.53294222" lon="-5.23389169"><ele>2650</ele><speed>17.39</speed><time>2016-06-30T12:34:14Z</time><pdop>7.0</pdop><geoidheight>54.00</geoidheight><course>62.5</course><type>1</type></trkpt>
      <trkpt lat="40.53297432" lon="-5.23370766"><ele>2649</ele><speed>17.19</speed><time>2016-06-30T12:34:15Z</time><pdop>7.0</pdop><geoidheight>54.00</geoidheight><course>65.8</course><type>1</type></trkpt>
      <trkpt lat="40.53305339" lon="-5.23353039"><ele>2648</ele><speed>17.02</speed><time>2016-06-30T12:34:16Z</time><pdop>7.0</pdop><geoidheight>54.00</geoidheight><course>64.5</course><type>1</type></trkpt>
      <trkpt lat="40.53307076" lon="-5.23334942"><ele>2646</ele><speed>16.20</speed><time>2016-06-30T12:34:17Z</time><pdop>7.0</pdop><geoidheight>54.00</geoidheight><course>68.1</course><type>1</type></trkpt>
      <trkpt lat="40.53313326" lon="-5.23316017"><ele>2645</ele><speed>16.12</speed><time>2016-06-30T12:34:18Z</time><pdop>8.0</pdop><geoidheight>54.00</geoidheight><course>67.9</course><type>1</type></trkpt>
      <trkpt lat="40.53322887" lon="-5.23298073"><ele>2644</ele><speed>16.40</speed><time>2016-06-30T12:34:19Z</time><pdop>7.0</pdop><geoidheight>54.00</geoidheight><course>65.0</course><type>1</type></trkpt>
      <trkpt lat="40.53328947" lon="-5.23279919"><ele>2643</ele><speed>16.47</speed><time>2016-06-30T12:34:20Z</time><pdop>9.0</pdop><geoidheight>54.00</geoidheight><course>65.4</course><type>1</type></trkpt>
      <trkpt lat="40.53346283" lon="-5.23242163"><ele>2641</ele><speed>17.69</speed><time>2016-06-30T12:34:22Z</time><pdop>8.0</pdop><geoidheight>54.00</geoidheight><course>63.5</course><type>1</type></trkpt>
      <trkpt lat="40.53356951" lon="-5.23221959"><ele>2640</ele><speed>18.16</speed><time>2016-06-30T12:34:23Z</time><pdop>8.0</pdop><geoidheight>54.00</geoidheight><course>61.5</course><type>1</type></trkpt>
      <trkpt lat="40.5336277" lon="-5.23202104"><ele>2639</ele><speed>17.87</speed><time>2016-06-30T12:34:24Z</time><pdop>8.0</pdop><geoidheight>54.00</geoidheight><course>63.1</course><type>1</type></trkpt>
      <trkpt lat="40.53372607" lon="-5.23164209"><ele>2639</ele><speed>17.52</speed><time>2016-06-30T12:34:26Z</time><pdop>10.0</pdop><geoidheight>54.00</geoidheight><course>66.9</course><type>1</type></trkpt>
      <trkpt lat="40.53385083" lon="-5.2313163"><ele>2638</ele><speed>16.60</speed><time>2016-06-30T12:34:28Z</time><pdop>9.0</pdop><geoidheight>54.00</geoidheight><course>65.9</course><type>1</type></trkpt>
      <trkpt lat="40.53386456" lon="-5.23111423"><ele>2638</ele><speed>16.50</speed><time>2016-06-30T12:34:29Z</time><pdop>8.0</pdop><geoidheight>54.00</geoidheight><course>71.2</course><type>1</type></trkpt>
      <trkpt lat="40.53395197" lon="-5.23093631"><ele>2637</ele><speed>16.49</speed><time>2016-06-30T12:34:30Z</time><pdop>9.0</pdop><geoidheight>54.00</geoidheight><course>66.5</course><type>1</type></trkpt>
      <trkpt lat="40.53404475" lon="-5.23074763"><ele>2637</ele><speed>16.74</speed><time>2016-06-30T12:34:31Z</time><pdop>8.0</pdop><geoidheight>54.00</geoidheight><course>63.0</course><type>1</type></trkpt>
      <trkpt lat="40.53414086" lon="-5.23055749"><ele>2635</ele><speed>17.05</speed><time>2016-06-30T12:34:32Z</time><pdop>9.0</pdop><geoidheight>54.00</geoidheight><course>60.8</course><type>1</type></trkpt>
      <trkpt lat="40.53425747" lon="-5.23038921"><ele>2634</ele><speed>17.33</speed><time>2016-06-30T12:34:33Z</time><pdop>8.0</pdop><geoidheight>54.00</geoidheight><course>57.3</course><type>1</type></trkpt>
      <trkpt lat="40.53433188" lon="-5.23019258"><ele>2631</ele><speed>16.83</speed><time>2016-06-30T12:34:34Z</time><pdop>9.0</pdop><geoidheight>54.00</geoidheight><course>59.5</course><type>1</type></trkpt>
      <trkpt lat="40.53447143" lon="-5.22982644"><ele>2626</ele><speed>17.03</speed><time>2016-06-30T12:34:36Z</time><pdop>10.0</pdop><geoidheight>54.00</geoidheight><course>62.5</course><type>1</type></trkpt>
      <trkpt lat="40.5346114" lon="-5.2296399"><ele>2625</ele><speed>18.60</speed><time>2016-06-30T12:34:37Z</time><pdop>9.0</pdop><geoidheight>54.00</geoidheight><course>58.2</course><type>1</type></trkpt>
      <trkpt lat="40.53469506" lon="-5.22945716"><ele>2625</ele><speed>18.49</speed><time>2016-06-30T12:34:38Z</time><pdop>7.0</pdop><geoidheight>54.00</geoidheight><course>56.7</course><type>1</type></trkpt>
      <trkpt lat="40.53476879" lon="-5.22927881"><ele>2625</ele><speed>17.59</speed><time>2016-06-30T12:34:39Z</time><pdop>7.0</pdop><geoidheight>54.00</geoidheight><course>56.3</course><type>1</type></trkpt>
      <trkpt lat="40.53484544" lon="-5.22911068"><ele>2624</ele><speed>16.39</speed><time>2016-06-30T12:34:40Z</time><pdop>7.0</pdop><geoidheight>54.00</geoidheight><course>57.6</course><type>1</type></trkpt>
      <trkpt lat="40.53493005" lon="-5.22894405"><ele>2623</ele><speed>16.21</speed><time>2016-06-30T12:34:41Z</time><pdop>8.0</pdop><geoidheight>54.00</geoidheight><course>57.2</course><type>1</type></trkpt>
      <trkpt lat="40.5350118" lon="-5.22876723"><ele>2621</ele><speed>16.26</speed><time>2016-06-30T12:34:42Z</time><pdop>9.0</pdop><geoidheight>54.00</geoidheight><course>57.8</course><type>1</type></trkpt>
      <trkpt lat="40.53512603" lon="-5.22858164"><ele>2618</ele><speed>17.11</speed><time>2016-06-30T12:34:43Z</time><pdop>7.0</pdop><geoidheight>54.00</geoidheight><course>58.4</course><type>1</type></trkpt>
      <trkpt lat="40.53521804" lon="-5.22839264"><ele>2615</ele><speed>18.14</speed><time>2016-06-30T12:34:44Z</time><pdop>6.0</pdop><geoidheight>54.00</geoidheight><course>59.1</course><type>1</type></trkpt>
      <trkpt lat="40.53530226" lon="-5.22821148"><ele>2613</ele><speed>18.11</speed><time>2016-06-30T12:34:45Z</time><pdop>6.0</pdop><geoidheight>54.00</geoidheight><course>58.7</course><type>1</type></trkpt>
      <trkpt lat="40.53538244" lon="-5.22801549"><ele>2612</ele><speed>18.45</speed><time>2016-06-30T12:34:46Z</time><pdop>6.0</pdop><geoidheight>54.00</geoidheight><course>58.1</course><type>1</type></trkpt>
      <trkpt lat="40.53546506" lon="-5.22783255"><ele>2613</ele><speed>17.54</speed><time>2016-06-30T12:34:47Z</time><pdop>5.0</pdop><geoidheight>54.00</geoidheight><course>59.0</course><type>1</type></trkpt>
      <trkpt lat="40.53554124" lon="-5.22766643"><ele>2613</ele><speed>17.23</speed><time>2016-06-30T12:34:48Z</time><pdop>6.0</pdop><geoidheight>54.00</geoidheight><course>58.3</course><type>1</type></trkpt>
      <trkpt lat="40.53563374" lon="-5.22749681"><ele>2613</ele><speed>16.87</speed><time>2016-06-30T12:34:49Z</time><pdop>6.0</pdop><geoidheight>54.00</geoidheight><course>58.0</course><type>1</type></trkpt>
      <trkpt lat="40.53571536" lon="-5.22733329"><ele>2613</ele><speed>16.58</speed><time>2016-06-30T12:34:50Z</time><pdop>6.0</pdop><geoidheight>54.00</geoidheight><course>57.4</course><type>1</type></trkpt>
      <trkpt lat="40.53576945" lon="-5.22718566"><ele>2613</ele><speed>15.12</speed><time>2016-06-30T12:34:51Z</time><pdop>7.0</pdop><geoidheight>54.00</geoidheight><course>59.9</course><type>1</type></trkpt>
      <trkpt lat="40.53582853" lon="-5.22699089"><ele>2612</ele><speed>12.20</speed><time>2016-06-30T12:34:53Z</time><pdop>9.0</pdop><geoidheight>54.00</geoidheight><course>64.3</course><type>1</type></trkpt>
      <trkpt lat="40.53596318" lon="-5.22668758"><ele>2612</ele><speed>13.96</speed><time>2016-06-30T12:34:55Z</time><pdop>10.0</pdop><geoidheight>54.00</geoidheight><course>64.6</course><type>1</type></trkpt>
      <trkpt lat="40.53609442" lon="-5.22631978"><ele>2610</ele><speed>15.90</speed><time>2016-06-30T12:34:57Z</time><pdop>10.0</pdop><geoidheight>54.00</geoidheight><course>66.4</course><type>1</type></trkpt>
      <trkpt lat="40.53619558" lon="-5.22601349"><ele>2610</ele><speed>15.29</speed><time>2016-06-30T12:34:59Z</time><pdop>10.0</pdop><geoidheight>54.00</geoidheight><course>65.9</course><type>1</type></trkpt>
      <trkpt lat="40.53631017" lon="-5.22560945"><ele>2609</ele><speed>16.10</speed><time>2016-06-30T12:35:01Z</time><pdop>12.0</pdop><geoidheight>54.00</geoidheight><course>67.1</course><type>1</type></trkpt>
      <trkpt lat="40.53648455" lon="-5.22532197"><ele>2601</ele><speed>10.50</speed><time>2016-06-30T12:35:04Z</time><pdop>10.0</pdop><geoidheight>54.00</geoidheight><course>59.1</course><type>1</type></trkpt>
      <trkpt lat="40.53660075" lon="-5.22509695"><ele>2596</ele><speed>10.96</speed><time>2016-06-30T12:35:06Z</time><pdop>8.0</pdop><geoidheight>54.00</geoidheight><course>58.5</course><type>1</type></trkpt>
      <trkpt lat="40.53667693" lon="-5.22482645"><ele>2593</ele><speed>13.26</speed><time>2016-06-30T12:35:08Z</time><pdop>7.0</pdop><geoidheight>54.00</geoidheight><course>70.0</course><type>1</type></trkpt>
      <trkpt lat="40.53672556" lon="-5.22466643"><ele>2593</ele><speed>14.16</speed><time>2016-06-30T12:35:09Z</time><pdop>7.0</pdop><geoidheight>54.00</geoidheight><course>70.6</course><type>1</type></trkpt>
      <trkpt lat="40.53681666" lon="-5.22449037"><ele>2593</ele><speed>15.27</speed><time>2016-06-30T12:35:10Z</time><pdop>8.0</pdop><geoidheight>54.00</geoidheight><course>67.5</course><type>1</type></trkpt>
      <trkpt lat="40.53690146" lon="-5.22432061"><ele>2592</ele><speed>15.97</speed><time>2016-06-30T12:35:11Z</time><pdop>9.0</pdop><geoidheight>54.00</geoidheight><course>63.1</course><type>1</type></trkpt>
      <trkpt lat="40.53702978" lon="-5.22399095"><ele>2592</ele><speed>14.63</speed><time>2016-06-30T12:35:13Z</time><pdop>8.0</pdop><geoidheight>54.00</geoidheight><course>63.9</course><type>1</type></trkpt>
      <trkpt lat="40.53708666" lon="-5.22370288"><ele>2592</ele><speed>13.34</speed><time>2016-06-30T12:35:15Z</time><pdop>5.0</pdop><geoidheight>54.00</geoidheight><course>74.5</course><type>1</type></trkpt>
      <trkpt lat="40.53712393" lon="-5.2235454"><ele>2592</ele><speed>13.81</speed><time>2016-06-30T12:35:16Z</time><pdop>5.0</pdop><geoidheight>54.00</geoidheight><course>74.1</course><type>1</type></trkpt>
      <trkpt lat="40.5371838" lon="-5.22337291"><ele>2591</ele><speed>15.05</speed><time>2016-06-30T12:35:17Z</time><pdop>5.0</pdop><geoidheight>54.00</geoidheight><course>70.9</course><type>1</type></trkpt>
      <trkpt lat="40.53723622" lon="-5.22318869"><ele>2592</ele><speed>15.62</speed><time>2016-06-30T12:35:18Z</time><pdop>6.0</pdop><geoidheight>54.00</geoidheight><course>68.6</course><type>1</type></trkpt>
      <trkpt lat="40.53729073" lon="-5.22301941"><ele>2592</ele><speed>15.69</speed><time>2016-06-30T12:35:19Z</time><pdop>6.0</pdop><geoidheight>54.00</geoidheight><course>67.9</course><type>1</type></trkpt>
      <trkpt lat="40.53733212" lon="-5.22271378"><ele>2592</ele><speed>14.58</speed><time>2016-06-30T12:35:21Z</time><pdop>7.0</pdop><geoidheight>54.00</geoidheight><course>73.6</course><type>1</type></trkpt>
      <trkpt lat="40.53737122" lon="-5.22239327"><ele>2592</ele><speed>14.58</speed><time>2016-06-30T12:35:23Z</time><pdop>9.0</pdop><geoidheight>54.00</geoidheight><course>76.1</course><type>1</type></trkpt>
      <trkpt lat="40.53748191" lon="-5.22200661"><ele>2591</ele><speed>16.17</speed><time>2016-06-30T12:35:25Z</time><pdop>13.0</pdop><geoidheight>54.00</geoidheight><course>72.7</course><type>1</type></trkpt>
      <trkpt lat="40.53760824" lon="-5.22165083"><ele>2592</ele><speed>15.57</speed><time>2016-06-30T12:35:27Z</time><pdop>10.0</pdop><geoidheight>54.00</geoidheight><course>66.9</course><type>1</type></trkpt>
      <trkpt lat="40.5376961" lon="-5.22137244"><ele>2588</ele><speed>14.63</speed><time>2016-06-30T12:35:29Z</time><pdop>9.0</pdop><geoidheight>54.00</geoidheight><course>67.9</course><type>1</type></trkpt>
      <trkpt lat="40.53778516" lon="-5.22106571"><ele>2585</ele><speed>14.13</speed><time>2016-06-30T12:35:31Z</time><pdop>8.0</pdop><geoidheight>54.00</geoidheight><course>67.5</course><type>1</type></trkpt>
      <trkpt lat="40.53787397" lon="-5.22091545"><ele>2583</ele><speed>14.41</speed><time>2016-06-30T12:35:32Z</time><pdop>8.0</pdop><geoidheight>54.00</geoidheight><course>65.1</course><type>1</type></trkpt>
      <trkpt lat="40.53795291" lon="-5.22074484"><ele>2581</ele><speed>14.20</speed><time>2016-06-30T12:35:33Z</time><pdop>8.0</pdop><geoidheight>54.00</geoidheight><course>64.3</course><type>1</type></trkpt>
      <trkpt lat="40.53813933" lon="-5.22046497"><ele>2579</ele><speed>14.14</speed><time>2016-06-30T12:35:35Z</time><pdop>10.0</pdop><geoidheight>54.00</geoidheight><course>58.5</course><type>1</type></trkpt>
      <trkpt lat="40.53829079" lon="-5.2201375"><ele>2576</ele><speed>14.72</speed><time>2016-06-30T12:35:37Z</time><pdop>9.0</pdop><geoidheight>54.00</geoidheight><course>61.4</course><type>1</type></trkpt>
      <trkpt lat="40.5383786" lon="-5.2198694"><ele>2574</ele><speed>13.53</speed><time>2016-06-30T12:35:39Z</time><pdop>11.0</pdop><geoidheight>54.00</geoidheight><course>63.0</course><type>1</type></trkpt>
      <trkpt lat="40.53844883" lon="-5.21950727"><ele>2509</ele><speed>12.06</speed><time>2016-06-30T12:35:42Z</time><pdop>13.0</pdop><geoidheight>54.00</geoidheight><course>69.6</course><type>1</type></trkpt>
      <trkpt lat="40.53861607" lon="-5.21919072"><ele>2527</ele><speed>13.67</speed><time>2016-06-30T12:35:44Z</time><pdop>10.0</pdop><geoidheight>54.00</geoidheight><course>64.5</course><type>1</type></trkpt>
      <trkpt lat="40.53883608" lon="-5.2188945"><ele>2529</ele><speed>14.73</speed><time>2016-06-30T12:35:46Z</time><pdop>11.0</pdop><geoidheight>54.00</geoidheight><course>54.9</course><type>1</type></trkpt>
      <trkpt lat="40.53896754" lon="-5.21859674"><ele>2534</ele><speed>13.91</speed><time>2016-06-30T12:35:48Z</time><pdop>9.0</pdop><geoidheight>54.00</geoidheight><course>53.5</course><type>1</type></trkpt>
      <trkpt lat="40.53914738" lon="-5.21831395"><ele>2536</ele><speed>14.18</speed><time>2016-06-30T12:35:50Z</time><pdop>9.0</pdop><geoidheight>54.00</geoidheight><course>55.8</course><type>1</type></trkpt>
      <trkpt lat="40.53926482" lon="-5.21799165"><ele>2534</ele><speed>14.61</speed><time>2016-06-30T12:35:52Z</time><pdop>10.0</pdop><geoidheight>54.00</geoidheight><course>62.5</course><type>1</type></trkpt>
      <trkpt lat="40.53936028" lon="-5.21764873"><ele>2531</ele><speed>14.95</speed><time>2016-06-30T12:35:54Z</time><pdop>11.0</pdop><geoidheight>54.00</geoidheight><course>66.0</course><type>1</type></trkpt>
      <trkpt lat="40.53947473" lon="-5.21729923"><ele>2529</ele><speed>15.17</speed><time>2016-06-30T12:35:56Z</time><pdop>12.0</pdop><geoidheight>54.00</geoidheight><course>67.5</course><type>1</type></trkpt>
      <trkpt lat="40.53959771" lon="-5.21695177"><ele>2525</ele><speed>16.22</speed><time>2016-06-30T12:35:58Z</time><pdop>14.0</pdop><geoidheight>54.00</geoidheight><course>69.1</course><type>1</type></trkpt>
      <trkpt lat="40.53976159" lon="-5.21657216"><ele>2524</ele><speed>17.46</speed><time>2016-06-30T12:36:00Z</time><pdop>14.0</pdop><geoidheight>54.00</geoidheight><course>65.2</course><type>1</type></trkpt>
      <trkpt lat="40.53998127" lon="-5.21606054"><ele>2518</ele><speed>17.35</speed><time>2016-06-30T12:36:03Z</time><pdop>13.0</pdop><geoidheight>54.00</geoidheight><course>67.5</course><type>1</type></trkpt>
      <trkpt lat="40.54011805" lon="-5.21569268"><ele>2514</ele><speed>15.94</speed><time>2016-06-30T12:36:05Z</time><pdop>12.0</pdop><geoidheight>54.00</geoidheight><course>67.9</course><type>1</type></trkpt>
      <trkpt lat="40.54022612" lon="-5.21534987"><ele>2645</ele><speed>15.12</speed><time>2016-06-30T12:36:07Z</time><pdop>12.0</pdop><geoidheight>54.00</geoidheight><course>69.2</course><type>1</type></trkpt>
      <trkpt lat="40.54033654" lon="-5.21499183"><ele>2635</ele><speed>15.56</speed><time>2016-06-30T12:36:09Z</time><pdop>14.0</pdop><geoidheight>54.00</geoidheight><course>69.8</course><type>1</type></trkpt>
      <trkpt lat="40.54045653" lon="-5.21463394"><ele>2595</ele><speed>16.06</speed><time>2016-06-30T12:36:11Z</time><pdop>17.0</pdop><geoidheight>54.00</geoidheight><course>67.5</course><type>1</type></trkpt>
      <trkpt lat="40.54068403" lon="-5.21412852"><ele>2571</ele><speed>15.16</speed><time>2016-06-30T12:36:14Z</time><pdop>19.0</pdop><geoidheight>54.00</geoidheight><course>64.3</course><type>1</type></trkpt>
      <trkpt lat="40.54085372" lon="-5.21361712"><ele>2548</ele><speed>14.88</speed><time>2016-06-30T12:36:17Z</time><pdop>21.0</pdop><geoidheight>54.00</geoidheight><course>63.1</course><type>1</type></trkpt>
      <trkpt lat="40.54122131" lon="-5.21310326"><ele>2536</ele><speed>19.28</speed><time>2016-06-30T12:36:20Z</time><pdop>22.0</pdop><geoidheight>54.00</geoidheight><course>48.1</course><type>1</type></trkpt>
      <trkpt lat="40.54155762" lon="-5.21260896"><ele>2523</ele><speed>17.92</speed><time>2016-06-30T12:36:23Z</time><pdop>24.0</pdop><geoidheight>54.00</geoidheight><course>48.0</course><type>1</type></trkpt>
      <trkpt lat="40.54188356" lon="-5.2122508"><ele>2501</ele><speed>11.78</speed><time>2016-06-30T12:36:26Z</time><pdop>14.0</pdop><geoidheight>54.00</geoidheight><course>52.0</course><type>1</type></trkpt>
      <trkpt lat="40.54202876" lon="-5.21198528"><ele>2487</ele><speed>13.65</speed><time>2016-06-30T12:36:28Z</time><pdop>12.0</pdop><geoidheight>54.00</geoidheight><course>57.5</course><type>1</type></trkpt>
      <trkpt lat="40.54216928" lon="-5.21163696"><ele>2479</ele><speed>16.44</speed><time>2016-06-30T12:36:30Z</time><pdop>11.0</pdop><geoidheight>54.00</geoidheight><course>63.5</course><type>1</type></trkpt>
      <trkpt lat="40.54233487" lon="-5.21129559"><ele>2472</ele><speed>16.22</speed><time>2016-06-30T12:36:32Z</time><pdop>12.0</pdop><geoidheight>54.00</geoidheight><course>58.3</course><type>1</type></trkpt>
      <trkpt lat="40.54242999" lon="-5.21098438"><ele>2472</ele><speed>15.10</speed><time>2016-06-30T12:36:34Z</time><pdop>15.0</pdop><geoidheight>54.00</geoidheight><course>61.8</course><type>1</type></trkpt>
      <trkpt lat="40.54241283" lon="-5.21067406"><ele>2471</ele><speed>14.08</speed><time>2016-06-30T12:36:36Z</time><pdop>9.0</pdop><geoidheight>54.00</geoidheight><course>78.9</course><type>1</type></trkpt>
      <trkpt lat="40.54232664" lon="-5.21039776"><ele>2471</ele><speed>12.36</speed><time>2016-06-30T12:36:38Z</time><pdop>6.0</pdop><geoidheight>54.00</geoidheight><course>115.4</course><type>1</type></trkpt>
      <trkpt lat="40.54223344" lon="-5.21030244"><ele>2471</ele><speed>12.13</speed><time>2016-06-30T12:36:39Z</time><pdop>5.0</pdop><geoidheight>54.00</geoidheight><course>136.8</course><type>1</type></trkpt>
      <trkpt lat="40.54211852" lon="-5.21023666"><ele>2473</ele><speed>12.73</speed><time>2016-06-30T12:36:40Z</time><pdop>5.0</pdop><geoidheight>54.00</geoidheight><course>154.6</course><type>1</type></trkpt>
      <trkpt lat="40.54201541" lon="-5.21019435"><ele>2474</ele><speed>13.39</speed><time>2016-06-30T12:36:41Z</time><pdop>4.0</pdop><geoidheight>54.00</geoidheight><course>165.9</course><type>1</type></trkpt>
      <trkpt lat="40.54189763" lon="-5.2101729"><ele>2474</ele><speed>13.59</speed><time>2016-06-30T12:36:42Z</time><pdop>4.0</pdop><geoidheight>54.00</geoidheight><course>171.3</course><type>1</type></trkpt>
      <trkpt lat="40.54180275" lon="-5.21019619"><ele>2474</ele><speed>12.40</speed><time>2016-06-30T12:36:43Z</time><pdop>4.0</pdop><geoidheight>54.00</geoidheight><course>179.8</course><type>1</type></trkpt>
      <trkpt lat="40.5417654" lon="-5.2103225"><ele>2479</ele><speed>4.16</speed><time>2016-06-30T12:36:46Z</time><pdop>6.0</pdop><geoidheight>54.00</geoidheight><course>231.7</course><type>1</type></trkpt>
      <trkpt lat="40.54184817" lon="-5.21043257"><ele>2482</ele><speed>3.47</speed><time>2016-06-30T12:36:48Z</time><pdop>7.0</pdop><geoidheight>54.00</geoidheight><course>298.0</course><type>1</type></trkpt>
      <trkpt lat="40.54200888" lon="-5.2103984"><ele>2482</ele><speed>5.08</speed><time>2016-06-30T12:36:50Z</time><pdop>8.0</pdop><geoidheight>54.00</geoidheight><course>15.0</course><type>1</type></trkpt>
      <trkpt lat="40.54218196" lon="-5.21028272"><ele>2484</ele><speed>10.79</speed><time>2016-06-30T12:36:51Z</time><pdop>6.0</pdop><geoidheight>54.00</geoidheight><course>30.6</course><type>1</type></trkpt>
      <trkpt lat="40.54230234" lon="-5.21020098"><ele>2487</ele><speed>12.35</speed><time>2016-06-30T12:36:52Z</time><pdop>6.0</pdop><geoidheight>54.00</geoidheight><course>35.7</course><type>1</type></trkpt>
      <trkpt lat="40.54241879" lon="-5.21009499"><ele>2489</ele><speed>13.62</speed><time>2016-06-30T12:36:53Z</time><pdop>6.0</pdop><geoidheight>54.00</geoidheight><course>41.7</course><type>1</type></trkpt>
      <trkpt lat="40.54244513" lon="-5.20985474"><ele>2497</ele><speed>12.11</speed><time>2016-06-30T12:36:55Z</time><pdop>5.0</pdop><geoidheight>54.00</geoidheight><course>71.7</course><type>1</type></trkpt>
      <trkpt lat="40.54244963" lon="-5.20971929"><ele>2498</ele><speed>12.10</speed><time>2016-06-30T12:36:56Z</time><pdop>6.0</pdop><geoidheight>54.00</geoidheight><course>75.1</course><type>1</type></trkpt>
      <trkpt lat="40.54235823" lon="-5.20958468"><ele>2499</ele><speed>11.88</speed><time>2016-06-30T12:36:57Z</time><pdop>6.0</pdop><geoidheight>54.00</geoidheight><course>101.3</course><type>1</type></trkpt>
      <trkpt lat="40.54222244" lon="-5.2094072"><ele>2501</ele><speed>11.33</speed><time>2016-06-30T12:36:59Z</time><pdop>5.0</pdop><geoidheight>54.00</geoidheight><course>141.8</course><type>1</type></trkpt>
      <trkpt lat="40.54213051" lon="-5.20934938"><ele>2503</ele><speed>11.74</speed><time>2016-06-30T12:37:00Z</time><pdop>4.0</pdop><geoidheight>54.00</geoidheight><course>157.9</course><type>1</type></trkpt>
      <trkpt lat="40.54201798" lon="-5.20931656"><ele>2504</ele><speed>12.38</speed><time>2016-06-30T12:37:01Z</time><pdop>5.0</pdop><geoidheight>54.00</geoidheight><course>163.5</course><type>1</type></trkpt>
      <trkpt lat="40.54190413" lon="-5.20931736"><ele>2506</ele><speed>12.84</speed><time>2016-06-30T12:37:02Z</time><pdop>6.0</pdop><geoidheight>54.00</geoidheight><course>173.1</course><type>1</type></trkpt>
      <trkpt lat="40.5417669" lon="-5.20951875"><ele>2508</ele><speed>11.19</speed><time>2016-06-30T12:37:04Z</time><pdop>5.0</pdop><geoidheight>54.00</geoidheight><course>212.4</course><type>1</type></trkpt>
      <trkpt lat="40.54174795" lon="-5.20975279"><ele>2519</ele><speed>9.68</speed><time>2016-06-30T12:37:06Z</time><pdop>4.0</pdop><geoidheight>54.00</geoidheight><course>260.5</course><type>1</type></trkpt>
      <trkpt lat="40.54174633" lon="-5.20986234"><ele>2524</ele><speed>9.35</speed><time>2016-06-30T12:37:07Z</time><pdop>4.0</pdop><geoidheight>54.00</geoidheight><course>272.0</course><type>1</type></trkpt>
      <trkpt lat="40.5417845" lon="-5.21000626"><ele>2534</ele><speed>7.47</speed><time>2016-06-30T12:37:09Z</time><pdop>4.0</pdop><geoidheight>54.00</geoidheight><course>296.5</course><type>1</type></trkpt>
      <trkpt lat="40.54186129" lon="-5.2100893"><ele>2539</ele><speed>6.02</speed><time>2016-06-30T12:37:11Z</time><pdop>4.0</pdop><geoidheight>54.00</geoidheight><course>336.8</course><type>1</type></trkpt>
      <trkpt lat="40.54199188" lon="-5.21003464"><ele>2544</ele><speed>5.24</speed><time>2016-06-30T12:37:14Z</time><pdop>8.0</pdop><geoidheight>54.00</geoidheight><course>24.4</course><type>1</type></trkpt>
      <trkpt lat="40.54200255" lon="-5.20973209"><ele>2545</ele><speed>9.73</speed><time>2016-06-30T12:37:16Z</time><pdop>7.0</pdop><geoidheight>54.00</geoidheight><course>77.1</course><type>1</type></trkpt>
      <trkpt lat="40.54205173" lon="-5.20940371"><ele>2547</ele><speed>12.47</speed><time>2016-06-30T12:37:18Z</time><pdop>8.0</pdop><geoidheight>54.00</geoidheight><course>83.9</course><type>1</type></trkpt>
      <trkpt lat="40.5419202" lon="-5.20930257"><ele>2549</ele><speed>11.81</speed><time>2016-06-30T12:37:19Z</time><pdop>8.0</pdop><geoidheight>54.00</geoidheight><course>112.1</course><type>1</type></trkpt>
      <trkpt lat="40.54174659" lon="-5.20909375"><ele>2550</ele><speed>12.76</speed><time>2016-06-30T12:37:21Z</time><pdop>9.0</pdop><geoidheight>54.00</geoidheight><course>134.9</course><type>1</type></trkpt>
      <trkpt lat="40.54150165" lon="-5.20887037"><ele>2554</ele><speed>14.89</speed><time>2016-06-30T12:37:23Z</time><pdop>9.0</pdop><geoidheight>54.00</geoidheight><course>145.7</course><type>1</type></trkpt>
      <trkpt lat="40.54129608" lon="-5.20888406"><ele>2559</ele><speed>12.42</speed><time>2016-06-30T12:37:25Z</time><pdop>11.0</pdop><geoidheight>54.00</geoidheight><course>163.8</course><type>1</type></trkpt>
      <trkpt lat="40.54117293" lon="-5.20917739"><ele>2568</ele><speed>5.78</speed><time>2016-06-30T12:37:29Z</time><pdop>12.0</pdop><geoidheight>54.00</geoidheight><course>226.8</course><type>1</type></trkpt>
      <trkpt lat="40.54133701" lon="-5.20930172"><ele>2578</ele><speed>6.62</speed><time>2016-06-30T12:37:31Z</time><pdop>8.0</pdop><geoidheight>54.00</geoidheight><course>334.8</course><type>1</type></trkpt>
      <trkpt lat="40.54147994" lon="-5.20896865"><ele>2587</ele><speed>10.57</speed><time>2016-06-30T12:37:36Z</time><pdop>11.0</pdop><geoidheight>54.00</geoidheight><course>77.8</course><type>1</type></trkpt>
      <trkpt lat="40.54152339" lon="-5.20870322"><ele>2591</ele><speed>11.43</speed><time>2016-06-30T12:37:38Z</time><pdop>9.0</pdop><geoidheight>54.00</geoidheight><course>84.1</course><type>1</type></trkpt>
      <trkpt lat="40.54142309" lon="-5.20855316"><ele>2592</ele><speed>12.77</speed><time>2016-06-30T12:37:39Z</time><pdop>7.0</pdop><geoidheight>54.00</geoidheight><course>112.6</course><type>1</type></trkpt>
      <trkpt lat="40.54128335" lon="-5.20839658"><ele>2596</ele><speed>12.22</speed><time>2016-06-30T12:37:41Z</time><pdop>7.0</pdop><geoidheight>54.00</geoidheight><course>146.9</course><type>1</type></trkpt>
      <trkpt lat="40.54107708" lon="-5.2083744"><ele>2599</ele><speed>12.18</speed><time>2016-06-30T12:37:43Z</time><pdop>7.0</pdop><geoidheight>54.00</geoidheight><course>180.2</course><type>1</type></trkpt>
      <trkpt lat="40.54091717" lon="-5.20850946"><ele>2540</ele><speed>10.47</speed><time>2016-06-30T12:37:45Z</time><pdop>7.0</pdop><geoidheight>54.00</geoidheight><course>210.6</course><type>1</type></trkpt>
      <trkpt lat="40.54090368" lon="-5.20870415"><ele>2571</ele><speed>7.83</speed><time>2016-06-30T12:37:47Z</time><pdop>5.0</pdop><geoidheight>54.00</geoidheight><course>263.7</course><type>1</type></trkpt>
      <trkpt lat="40.5409529" lon="-5.2088403"><ele>2594</ele><speed>7.16</speed><time>2016-06-30T12:37:49Z</time><pdop>4.0</pdop><geoidheight>54.00</geoidheight><course>304.9</course><type>1</type></trkpt>
      <trkpt lat="40.54105352" lon="-5.20892843"><ele>2605</ele><speed>6.90</speed><time>2016-06-30T12:37:51Z</time><pdop>6.0</pdop><geoidheight>54.00</geoidheight><course>332.9</course><type>1</type></trkpt>
      <trkpt lat="40.54122952" lon="-5.2087144"><ele>2617</ele><speed>9.17</speed><time>2016-06-30T12:37:54Z</time><pdop>8.0</pdop><geoidheight>54.00</geoidheight><course>45.9</course><type>1</type></trkpt>
      <trkpt lat="40.54135221" lon="-5.20844156"><ele>2620</ele><speed>11.83</speed><time>2016-06-30T12:37:56Z</time><pdop>9.0</pdop><geoidheight>54.00</geoidheight><course>55.8</course><type>1</type></trkpt>
      <trkpt lat="40.54130244" lon="-5.20811848"><ele>2621</ele><speed>12.40</speed><time>2016-06-30T12:37:58Z</time><pdop>9.0</pdop><geoidheight>54.00</geoidheight><course>84.7</course><type>1</type></trkpt>
      <trkpt lat="40.54102613" lon="-5.20801527"><ele>2625</ele><speed>11.64</speed><time>2016-06-30T12:38:00Z</time><pdop>7.0</pdop><geoidheight>54.00</geoidheight><course>153.6</course><type>1</type></trkpt>
      <trkpt lat="40.5408126" lon="-5.20795452"><ele>2628</ele><speed>10.96</speed><time>2016-06-30T12:38:02Z</time><pdop>8.0</pdop><geoidheight>54.00</geoidheight><course>170.6</course><type>1</type></trkpt>
      <trkpt lat="40.54063654" lon="-5.20797837"><ele>2634</ele><speed>10.13</speed><time>2016-06-30T12:38:04Z</time><pdop>11.0</pdop><geoidheight>54.00</geoidheight><course>181.5</course><type>1</type></trkpt>
      <trkpt lat="40.54063447" lon="-5.20828177"><ele>2640</ele><speed>6.30</speed><time>2016-06-30T12:38:07Z</time><pdop>12.0</pdop><geoidheight>54.00</geoidheight><course>247.6</course><type>1</type></trkpt>
      <trkpt lat="40.54084924" lon="-5.20829236"><ele>2650</ele><speed>4.73</speed><time>2016-06-30T12:38:12Z</time><pdop>11.0</pdop><geoidheight>54.00</geoidheight><course>47.4</course><type>1</type></trkpt>
      <trkpt lat="40.54096827" lon="-5.20809653"><ele>2651</ele><speed>9.48</speed><time>2016-06-30T12:38:13Z</time><pdop>10.0</pdop><geoidheight>54.00</geoidheight><course>55.0</course><type>1</type></trkpt>
      <trkpt lat="40.54104605" lon="-5.20779708"><ele>2658</ele><speed>11.46</speed><time>2016-06-30T12:38:15Z</time><pdop>10.0</pdop><geoidheight>54.00</geoidheight><course>71.5</course><type>1</type></trkpt>
      <trkpt lat="40.54093773" lon="-5.20761966"><ele>2657</ele><speed>8.80</speed><time>2016-06-30T12:38:17Z</time><pdop>9.0</pdop><geoidheight>54.00</geoidheight><course>106.6</course><type>1</type></trkpt>
      <trkpt lat="40.5407601" lon="-5.20742734"><ele>2660</ele><speed>11.11</speed><time>2016-06-30T12:38:19Z</time><pdop>9.0</pdop><geoidheight>54.00</geoidheight><course>139.4</course><type>1</type></trkpt>
      <trkpt lat="40.54054152" lon="-5.20730599"><ele>2666</ele><speed>12.64</speed><time>2016-06-30T12:38:21Z</time><pdop>8.0</pdop><geoidheight>54.00</geoidheight><course>158.9</course><type>1</type></trkpt>
      <trkpt lat="40.54031148" lon="-5.20746583"><ele>2667</ele><speed>13.47</speed><time>2016-06-30T12:38:23Z</time><pdop>8.0</pdop><geoidheight>54.00</geoidheight><course>191.2</course><type>1</type></trkpt>
      <trkpt lat="40.54017989" lon="-5.20762636"><ele>2671</ele><speed>10.34</speed><time>2016-06-30T12:38:25Z</time><pdop>8.0</pdop><geoidheight>54.00</geoidheight><course>210.2</course><type>1</type></trkpt>
      <trkpt lat="40.54008022" lon="-5.20784772"><ele>2677</ele><speed>9.90</speed><time>2016-06-30T12:38:27Z</time><pdop>6.0</pdop><geoidheight>54.00</geoidheight><course>232.8</course><type>1</type></trkpt>
      <trkpt lat="40.53999059" lon="-5.20804596"><ele>2684</ele><speed>9.62</speed><time>2016-06-30T12:38:29Z</time><pdop>5.0</pdop><geoidheight>54.00</geoidheight><course>240.7</course><type>1</type></trkpt>
      <trkpt lat="40.5399459" lon="-5.20814866"><ele>2686</ele><speed>9.03</speed><time>2016-06-30T12:38:30Z</time><pdop>5.0</pdop><geoidheight>54.00</geoidheight><course>241.9</course><type>1</type></trkpt>
      <trkpt lat="40.53993829" lon="-5.20829503"><ele>2689</ele><speed>6.71</speed><time>2016-06-30T12:38:32Z</time><pdop>4.0</pdop><geoidheight>54.00</geoidheight><course>272.0</course><type>1</type></trkpt>
      <trkpt lat="40.54001126" lon="-5.20842108"><ele>2690</ele><speed>6.37</speed><time>2016-06-30T12:38:34Z</time><pdop>4.0</pdop><geoidheight>54.00</geoidheight><course>313.0</course><type>1</type></trkpt>
      <trkpt lat="40.54010837" lon="-5.20840284"><ele>2691</ele><speed>5.38</speed><time>2016-06-30T12:38:36Z</time><pdop>5.0</pdop><geoidheight>54.00</geoidheight><course>8.8</course><type>1</type></trkpt>
      <trkpt lat="40.54021397" lon="-5.20825481"><ele>2691</ele><speed>7.51</speed><time>2016-06-30T12:38:38Z</time><pdop>7.0</pdop><geoidheight>54.00</geoidheight><course>44.3</course><type>1</type></trkpt>
      <trkpt lat="40.54031797" lon="-5.20800849"><ele>2694</ele><speed>11.48</speed><time>2016-06-30T12:38:40Z</time><pdop>8.0</pdop><geoidheight>54.00</geoidheight><course>59.9</course><type>1</type></trkpt>
      <trkpt lat="40.54028081" lon="-5.20768184"><ele>2696</ele><speed>11.76</speed><time>2016-06-30T12:38:42Z</time><pdop>5.0</pdop><geoidheight>54.00</geoidheight><course>87.7</course><type>1</type></trkpt>
      <trkpt lat="40.54027937" lon="-5.20755112"><ele>2697</ele><speed>11.67</speed><time>2016-06-30T12:38:43Z</time><pdop>5.0</pdop><geoidheight>54.00</geoidheight><course>98.1</course><type>1</type></trkpt>
      <trkpt lat="40.5402424" lon="-5.20742468"><ele>2698</ele><speed>11.73</speed><time>2016-06-30T12:38:44Z</time><pdop>4.0</pdop><geoidheight>54.00</geoidheight><course>108.8</course><type>1</type></trkpt>
      <trkpt lat="40.54014532" lon="-5.20730745"><ele>2698</ele><speed>12.73</speed><time>2016-06-30T12:38:45Z</time><pdop>5.0</pdop><geoidheight>54.00</geoidheight><course>125.3</course><type>1</type></trkpt>
      <trkpt lat="40.54002691" lon="-5.20723345"><ele>2697</ele><speed>12.55</speed><time>2016-06-30T12:38:46Z</time><pdop>6.0</pdop><geoidheight>54.00</geoidheight><course>139.1</course><type>1</type></trkpt>
      <trkpt lat="40.53988622" lon="-5.20715716"><ele>2698</ele><speed>14.13</speed><time>2016-06-30T12:38:47Z</time><pdop>6.0</pdop><geoidheight>54.00</geoidheight><course>148.0</course><type>1</type></trkpt>
      <trkpt lat="40.53978462" lon="-5.20720492"><ele>2697</ele><speed>12.98</speed><time>2016-06-30T12:38:48Z</time><pdop>6.0</pdop><geoidheight>54.00</geoidheight><course>165.9</course><type>1</type></trkpt>
      <trkpt lat="40.53964812" lon="-5.20735239"><ele>2697</ele><speed>9.95</speed><time>2016-06-30T12:38:50Z</time><pdop>6.0</pdop><geoidheight>54.00</geoidheight><course>194.3</course><type>1</type></trkpt>
      <trkpt lat="40.53963337" lon="-5.20753448"><ele>2699</ele><speed>7.13</speed><time>2016-06-30T12:38:52Z</time><pdop>7.0</pdop><geoidheight>54.00</geoidheight><course>238.4</course><type>1</type></trkpt>
      <trkpt lat="40.53970984" lon="-5.20776185"><ele>2701</ele><speed>4.70</speed><time>2016-06-30T12:38:55Z</time><pdop>10.0</pdop><geoidheight>54.00</geoidheight><course>277.9</course><type>1</type></trkpt>
      <trkpt lat="40.53989821" lon="-5.20770803"><ele>2702</ele><speed>3.65</speed><time>2016-06-30T12:38:58Z</time><pdop>11.0</pdop><geoidheight>54.00</geoidheight><course>11.6</course><type>1</type></trkpt>
      <trkpt lat="40.5399666" lon="-5.20745793"><ele>2704</ele><speed>8.63</speed><time>2016-06-30T12:39:00Z</time><pdop>8.0</pdop><geoidheight>54.00</geoidheight><course>67.8</course><type>1</type></trkpt>
      <trkpt lat="40.54001861" lon="-5.20723553"><ele>2707</ele><speed>10.08</speed><time>2016-06-30T12:39:02Z</time><pdop>8.0</pdop><geoidheight>54.00</geoidheight><course>75.8</course><type>1</type></trkpt>
      <trkpt lat="40.54002799" lon="-5.2069409"><ele>2707</ele><speed>11.86</speed><time>2016-06-30T12:39:04Z</time><pdop>7.0</pdop><geoidheight>54.00</geoidheight><course>95.9</course><type>1</type></trkpt>
      <trkpt lat="40.53996245" lon="-5.20669386"><ele>2708</ele><speed>11.57</speed><time>2016-06-30T12:39:06Z</time><pdop>8.0</pdop><geoidheight>54.00</geoidheight><course>117.8</course><type>1</type></trkpt>
      <trkpt lat="40.53978959" lon="-5.20658636"><ele>2708</ele><speed>11.62</speed><time>2016-06-30T12:39:08Z</time><pdop>7.0</pdop><geoidheight>54.00</geoidheight><course>148.0</course><type>1</type></trkpt>
      <trkpt lat="40.53967667" lon="-5.20651492"><ele>2709</ele><speed>12.55</speed><time>2016-06-30T12:39:09Z</time><pdop>6.0</pdop><geoidheight>54.00</geoidheight><course>154.1</course><type>1</type></trkpt>
      <trkpt lat="40.5395229" lon="-5.20656666"><ele>2709</ele><speed>9.75</speed><time>2016-06-30T12:39:11Z</time><pdop>6.0</pdop><geoidheight>54.00</geoidheight><course>183.9</course><type>1</type></trkpt>
      <trkpt lat="40.53942643" lon="-5.20673995"><ele>2714</ele><speed>8.71</speed><time>2016-06-30T12:39:13Z</time><pdop>5.0</pdop><geoidheight>54.00</geoidheight><course>233.3</course><type>1</type></trkpt>
      <trkpt lat="40.5393695" lon="-5.20693422"><ele>2715</ele><speed>8.46</speed><time>2016-06-30T12:39:15Z</time><pdop>5.0</pdop><geoidheight>54.00</geoidheight><course>261.6</course><type>1</type></trkpt>
      <trkpt lat="40.53945531" lon="-5.20705973"><ele>2716</ele><speed>7.11</speed><time>2016-06-30T12:39:17Z</time><pdop>5.0</pdop><geoidheight>54.00</geoidheight><course>306.1</course><type>1</type></trkpt>
      <trkpt lat="40.53962232" lon="-5.20709"><ele>2717</ele><speed>8.60</speed><time>2016-06-30T12:39:19Z</time><pdop>5.0</pdop><geoidheight>54.00</geoidheight><course>350.4</course><type>1</type></trkpt>
      <trkpt lat="40.53975994" lon="-5.20704963"><ele>2720</ele><speed>8.18</speed><time>2016-06-30T12:39:21Z</time><pdop>5.0</pdop><geoidheight>54.00</geoidheight><course>13.8</course><type>1</type></trkpt>
      <trkpt lat="40.53987291" lon="-5.20697016"><ele>2724</ele><speed>7.67</speed><time>2016-06-30T12:39:23Z</time><pdop>4.0</pdop><geoidheight>54.00</geoidheight><course>30.4</course><type>1</type></trkpt>
      <trkpt lat="40.53997223" lon="-5.20685973"><ele>2726</ele><speed>7.58</speed><time>2016-06-30T12:39:25Z</time><pdop>6.0</pdop><geoidheight>54.00</geoidheight><course>43.9</course><type>1</type></trkpt>
      <trkpt lat="40.54001179" lon="-5.20671312"><ele>2727</ele><speed>10.27</speed><time>2016-06-30T12:39:26Z</time><pdop>6.0</pdop><geoidheight>54.00</geoidheight><course>61.3</course><type>1</type></trkpt>
      <trkpt lat="40.54007142" lon="-5.206378"><ele>2726</ele><speed>13.95</speed><time>2016-06-30T12:39:28Z</time><pdop>7.0</pdop><geoidheight>54.00</geoidheight><course>75.6</course><type>1</type></trkpt>
      <trkpt lat="40.5401459" lon="-5.20607194"><ele>2724</ele><speed>13.20</speed><time>2016-06-30T12:39:30Z</time><pdop>8.0</pdop><geoidheight>54.00</geoidheight><course>73.9</course><type>1</type></trkpt>
      <trkpt lat="40.54018312" lon="-5.20585222"><ele>2728</ele><speed>10.89</speed><time>2016-06-30T12:39:32Z</time><pdop>5.0</pdop><geoidheight>54.00</geoidheight><course>74.1</course><type>1</type></trkpt>
      <trkpt lat="40.54020616" lon="-5.2057149"><ele>2728</ele><speed>11.51</speed><time>2016-06-30T12:39:33Z</time><pdop>5.0</pdop><geoidheight>54.00</geoidheight><course>77.3</course><type>1</type></trkpt>
      <trkpt lat="40.54021789" lon="-5.20558788"><ele>2731</ele><speed>11.74</speed><time>2016-06-30T12:39:34Z</time><pdop>5.0</pdop><geoidheight>54.00</geoidheight><course>79.6</course><type>1</type></trkpt>
      <trkpt lat="40.54022294" lon="-5.20545477"><ele>2731</ele><speed>11.74</speed><time>2016-06-30T12:39:35Z</time><pdop>4.0</pdop><geoidheight>54.00</geoidheight><course>82.1</course><type>1</type></trkpt>
      <trkpt lat="40.54023726" lon="-5.2053276"><ele>2731</ele><speed>11.57</speed><time>2016-06-30T12:39:36Z</time><pdop>4.0</pdop><geoidheight>54.00</geoidheight><course>81.9</course><type>1</type></trkpt>
      <trkpt lat="40.54024947" lon="-5.20520768"><ele>2732</ele><speed>10.67</speed><time>2016-06-30T12:39:37Z</time><pdop>5.0</pdop><geoidheight>54.00</geoidheight><course>83.3</course><type>1</type></trkpt>
      <trkpt lat="40.54025691" lon="-5.20496302"><ele>2733</ele><speed>10.40</speed><time>2016-06-30T12:39:39Z</time><pdop>6.0</pdop><geoidheight>54.00</geoidheight><course>81.8</course><type>1</type></trkpt>
      <trkpt lat="40.54030757" lon="-5.20469776"><ele>2733</ele><speed>10.92</speed><time>2016-06-30T12:39:41Z</time><pdop>9.0</pdop><geoidheight>54.00</geoidheight><course>79.1</course><type>1</type></trkpt>
      <trkpt lat="40.54037244" lon="-5.20441168"><ele>2731</ele><speed>12.41</speed><time>2016-06-30T12:39:43Z</time><pdop>11.0</pdop><geoidheight>54.00</geoidheight><course>75.2</course><type>1</type></trkpt>
      <trkpt lat="40.54052443" lon="-5.20415221"><ele>2729</ele><speed>12.00</speed><time>2016-06-30T12:39:45Z</time><pdop>9.0</pdop><geoidheight>54.00</geoidheight><course>61.1</course><type>1</type></trkpt>
      <trkpt lat="40.54063699" lon="-5.20393765"><ele>2729</ele><speed>11.39</speed><time>2016-06-30T12:39:47Z</time><pdop>9.0</pdop><geoidheight>54.00</geoidheight><course>62.2</course><type>1</type></trkpt>
      <trkpt lat="40.54076607" lon="-5.20367745"><ele>2726</ele><speed>12.31</speed><time>2016-06-30T12:39:49Z</time><pdop>11.0</pdop><geoidheight>54.00</geoidheight><course>64.2</course><type>1</type></trkpt>
      <trkpt lat="40.54094175" lon="-5.20334358"><ele>2724</ele><speed>14.89</speed><time>2016-06-30T12:39:51Z</time><pdop>17.0</pdop><geoidheight>54.00</geoidheight><course>62.3</course><type>1</type></trkpt>
      <trkpt lat="40.54112356" lon="-5.20289129"><ele>2721</ele><speed>13.93</speed><time>2016-06-30T12:39:54Z</time><pdop>15.0</pdop><geoidheight>54.00</geoidheight><course>65.5</course><type>1</type></trkpt>
      <trkpt lat="40.54133176" lon="-5.20248056"><ele>2714</ele><speed>11.91</speed><time>2016-06-30T12:39:57Z</time><pdop>14.0</pdop><geoidheight>54.00</geoidheight><course>53.3</course><type>1</type></trkpt>
      <trkpt lat="40.54153935" lon="-5.20222012"><ele>2708</ele><speed>14.61</speed><time>2016-06-30T12:39:59Z</time><pdop>15.0</pdop><geoidheight>54.00</geoidheight><course>49.7</course><type>1</type></trkpt>
      <trkpt lat="40.54170775" lon="-5.20193303"><ele>2704</ele><speed>15.38</speed><time>2016-06-30T12:40:01Z</time><pdop>14.0</pdop><geoidheight>54.00</geoidheight><course>51.3</course><type>1</type></trkpt>
      <trkpt lat="40.54191019" lon="-5.20166397"><ele>2701</ele><speed>14.88</speed><time>2016-06-30T12:40:03Z</time><pdop>15.0</pdop><geoidheight>54.00</geoidheight><course>49.1</course><type>1</type></trkpt>
      <trkpt lat="40.54210719" lon="-5.20124756"><ele>2698</ele><speed>14.07</speed><time>2016-06-30T12:40:06Z</time><pdop>22.0</pdop><geoidheight>54.00</geoidheight><course>54.3</course><type>1</type></trkpt>
      <trkpt lat="40.54245693" lon="-5.20068172"><ele>2691</ele><speed>15.05</speed><time>2016-06-30T12:40:10Z</time><pdop>24.0</pdop><geoidheight>54.00</geoidheight><course>56.7</course><type>1</type></trkpt>
      <trkpt lat="40.5427292" lon="-5.20024452"><ele>2686</ele><speed>14.48</speed><time>2016-06-30T12:40:13Z</time><pdop>21.0</pdop><geoidheight>54.00</geoidheight><course>53.2</course><type>1</type></trkpt>
      <trkpt lat="40.54296409" lon="-5.1997951"><ele>2684</ele><speed>14.33</speed><time>2016-06-30T12:40:16Z</time><pdop>18.0</pdop><geoidheight>54.00</geoidheight><course>51.0</course><type>1</type></trkpt>
      <trkpt lat="40.54325591" lon="-5.19941535"><ele>2680</ele><speed>14.85</speed><time>2016-06-30T12:40:19Z</time><pdop>11.0</pdop><geoidheight>54.00</geoidheight><course>48.3</course><type>1</type></trkpt>
      <trkpt lat="40.54345973" lon="-5.1991529"><ele>2674</ele><speed>14.02</speed><time>2016-06-30T12:40:21Z</time><pdop>12.0</pdop><geoidheight>54.00</geoidheight><course>46.1</course><type>1</type></trkpt>
      <trkpt lat="40.54371961" lon="-5.19882315"><ele>2665</ele><speed>14.08</speed><time>2016-06-30T12:40:24Z</time><pdop>20.0</pdop><geoidheight>54.00</geoidheight><course>46.2</course><type>1</type></trkpt>
      <trkpt lat="40.54401553" lon="-5.19839992"><ele>2657</ele><speed>14.73</speed><time>2016-06-30T12:40:27Z</time><pdop>15.0</pdop><geoidheight>54.00</geoidheight><course>50.0</course><type>1</type></trkpt>
      <trkpt lat="40.54417322" lon="-5.19812498"><ele>2651</ele><speed>14.32</speed><time>2016-06-30T12:40:29Z</time><pdop>14.0</pdop><geoidheight>54.00</geoidheight><course>54.6</course><type>1</type></trkpt>
      <trkpt lat="40.54435237" lon="-5.19781788"><ele>2647</ele><speed>16.22</speed><time>2016-06-30T12:40:31Z</time><pdop>14.0</pdop><geoidheight>54.00</geoidheight><course>49.8</course><type>1</type></trkpt>
      <trkpt lat="40.54457436" lon="-5.19753649"><ele>2644</ele><speed>16.62</speed><time>2016-06-30T12:40:33Z</time><pdop>12.0</pdop><geoidheight>54.00</geoidheight><course>44.7</course><type>1</type></trkpt>
      <trkpt lat="40.5447711" lon="-5.19726353"><ele>2644</ele><speed>15.04</speed><time>2016-06-30T12:40:35Z</time><pdop>10.0</pdop><geoidheight>54.00</geoidheight><course>47.9</course><type>1</type></trkpt>
      <trkpt lat="40.5449268" lon="-5.19696021"><ele>2638</ele><speed>14.60</speed><time>2016-06-30T12:40:37Z</time><pdop>8.0</pdop><geoidheight>54.00</geoidheight><course>59.2</course><type>1</type></trkpt>
      <trkpt lat="40.54503292" lon="-5.1966369"><ele>2636</ele><speed>14.59</speed><time>2016-06-30T12:40:39Z</time><pdop>8.0</pdop><geoidheight>54.00</geoidheight><course>68.6</course><type>1</type></trkpt>
      <trkpt lat="40.54512349" lon="-5.19632186"><ele>2631</ele><speed>13.53</speed><time>2016-06-30T12:40:41Z</time><pdop>7.0</pdop><geoidheight>54.00</geoidheight><course>69.8</course><type>1</type></trkpt>
      <trkpt lat="40.54521535" lon="-5.19605262"><ele>2626</ele><speed>12.61</speed><time>2016-06-30T12:40:43Z</time><pdop>8.0</pdop><geoidheight>54.00</geoidheight><course>63.7</course><type>1</type></trkpt>
      <trkpt lat="40.54531928" lon="-5.19580615"><ele>2626</ele><speed>11.76</speed><time>2016-06-30T12:40:45Z</time><pdop>8.0</pdop><geoidheight>54.00</geoidheight><course>60.4</course><type>1</type></trkpt>
      <trkpt lat="40.54544392" lon="-5.19556087"><ele>2622</ele><speed>12.09</speed><time>2016-06-30T12:40:47Z</time><pdop>7.0</pdop><geoidheight>54.00</geoidheight><course>55.4</course><type>1</type></trkpt>
      <trkpt lat="40.54556284" lon="-5.19532309"><ele>2621</ele><speed>12.07</speed><time>2016-06-30T12:40:49Z</time><pdop>8.0</pdop><geoidheight>54.00</geoidheight><course>56.7</course><type>1</type></trkpt>
      <trkpt lat="40.54571812" lon="-5.19506811"><ele>2620</ele><speed>13.28</speed><time>2016-06-30T12:40:51Z</time><pdop>9.0</pdop><geoidheight>54.00</geoidheight><course>53.7</course><type>1</type></trkpt>
      <trkpt lat="40.54589252" lon="-5.19481039"><ele>2618</ele><speed>14.03</speed><time>2016-06-30T12:40:53Z</time><pdop>15.0</pdop><geoidheight>54.00</geoidheight><course>51.9</course><type>1</type></trkpt>
      <trkpt lat="40.546103" lon="-5.1945506"><ele>2614</ele><speed>13.88</speed><time>2016-06-30T12:40:55Z</time><pdop>12.0</pdop><geoidheight>54.00</geoidheight><course>49.1</course><type>1</type></trkpt>
      <trkpt lat="40.54626457" lon="-5.19431554"><ele>2612</ele><speed>12.33</speed><time>2016-06-30T12:40:57Z</time><pdop>10.0</pdop><geoidheight>54.00</geoidheight><course>48.8</course><type>1</type></trkpt>
      <trkpt lat="40.5464402" lon="-5.19407689"><ele>2606</ele><speed>13.16</speed><time>2016-06-30T12:40:59Z</time><pdop>9.0</pdop><geoidheight>54.00</geoidheight><course>50.9</course><type>1</type></trkpt>
      <trkpt lat="40.54660525" lon="-5.19379759"><ele>2603</ele><speed>14.50</speed><time>2016-06-30T12:41:01Z</time><pdop>11.0</pdop><geoidheight>54.00</geoidheight><course>52.8</course><type>1</type></trkpt>
      <trkpt lat="40.54676044" lon="-5.19352902"><ele>2603</ele><speed>13.88</speed><time>2016-06-30T12:41:03Z</time><pdop>15.0</pdop><geoidheight>54.00</geoidheight><course>51.2</course><type>1</type></trkpt>
      <trkpt lat="40.5469153" lon="-5.19328946"><ele>2600</ele><speed>12.62</speed><time>2016-06-30T12:41:05Z</time><pdop>11.0</pdop><geoidheight>54.00</geoidheight><course>52.9</course><type>1</type></trkpt>
      <trkpt lat="40.54708413" lon="-5.19301647"><ele>2594</ele><speed>14.33</speed><time>2016-06-30T12:41:07Z</time><pdop>12.0</pdop><geoidheight>54.00</geoidheight><course>56.7</course><type>1</type></trkpt>
      <trkpt lat="40.54725351" lon="-5.19271588"><ele>2587</ele><speed>15.23</speed><time>2016-06-30T12:41:09Z</time><pdop>13.0</pdop><geoidheight>54.00</geoidheight><course>56.6</course><type>1</type></trkpt>
      <trkpt lat="40.54741677" lon="-5.19241158"><ele>2583</ele><speed>15.19</speed><time>2016-06-30T12:41:11Z</time><pdop>14.0</pdop><geoidheight>54.00</geoidheight><course>58.8</course><type>1</type></trkpt>
      <trkpt lat="40.54759028" lon="-5.19212424"><ele>2578</ele><speed>14.23</speed><time>2016-06-30T12:41:13Z</time><pdop>15.0</pdop><geoidheight>54.00</geoidheight><course>54.5</course><type>1</type></trkpt>
      <trkpt lat="40.54781476" lon="-5.19181899"><ele>2573</ele><speed>16.10</speed><time>2016-06-30T12:41:15Z</time><pdop>13.0</pdop><geoidheight>54.00</geoidheight><course>51.6</course><type>1</type></trkpt>
      <trkpt lat="40.54794588" lon="-5.19150344"><ele>2567</ele><speed>15.20</speed><time>2016-06-30T12:41:17Z</time><pdop>13.0</pdop><geoidheight>54.00</geoidheight><course>55.8</course><type>1</type></trkpt>
      <trkpt lat="40.54809801" lon="-5.19120295"><ele>2561</ele><speed>14.80</speed><time>2016-06-30T12:41:19Z</time><pdop>14.0</pdop><geoidheight>54.00</geoidheight><course>55.9</course><type>1</type></trkpt>
      <trkpt lat="40.5483578" lon="-5.19071387"><ele>2556</ele><speed>17.04</speed><time>2016-06-30T12:41:22Z</time><pdop>20.0</pdop><geoidheight>54.00</geoidheight><course>60.3</course><type>1</type></trkpt>
      <trkpt lat="40.54852166" lon="-5.1903191"><ele>2555</ele><speed>17.46</speed><time>2016-06-30T12:41:24Z</time><pdop>16.0</pdop><geoidheight>54.00</geoidheight><course>62.5</course><type>1</type></trkpt>
      <trkpt lat="40.54862429" lon="-5.18995908"><ele>2551</ele><speed>16.08</speed><time>2016-06-30T12:41:26Z</time><pdop>12.0</pdop><geoidheight>54.00</geoidheight><course>62.8</course><type>1</type></trkpt>
      <trkpt lat="40.54870995" lon="-5.18963455"><ele>2551</ele><speed>14.13</speed><time>2016-06-30T12:41:28Z</time><pdop>11.0</pdop><geoidheight>54.00</geoidheight><course>66.9</course><type>1</type></trkpt>
      <trkpt lat="40.54879699" lon="-5.18932861"><ele>2549</ele><speed>13.74</speed><time>2016-06-30T12:41:30Z</time><pdop>10.0</pdop><geoidheight>54.00</geoidheight><course>66.1</course><type>1</type></trkpt>
      <trkpt lat="40.54888962" lon="-5.18906079"><ele>2550</ele><speed>12.75</speed><time>2016-06-30T12:41:32Z</time><pdop>11.0</pdop><geoidheight>54.00</geoidheight><course>63.6</course><type>1</type></trkpt>
      <trkpt lat="40.54895763" lon="-5.18878744"><ele>2550</ele><speed>12.40</speed><time>2016-06-30T12:41:34Z</time><pdop>9.0</pdop><geoidheight>54.00</geoidheight><course>66.1</course><type>1</type></trkpt>
      <trkpt lat="40.54902516" lon="-5.18847254"><ele>2548</ele><speed>14.07</speed><time>2016-06-30T12:41:36Z</time><pdop>8.0</pdop><geoidheight>54.00</geoidheight><course>74.7</course><type>1</type></trkpt>
      <trkpt lat="40.54908318" lon="-5.18815465"><ele>2549</ele><speed>13.55</speed><time>2016-06-30T12:41:38Z</time><pdop>6.0</pdop><geoidheight>54.00</geoidheight><course>78.8</course><type>1</type></trkpt>
      <trkpt lat="40.5491081" lon="-5.18799786"><ele>2550</ele><speed>13.06</speed><time>2016-06-30T12:41:39Z</time><pdop>7.0</pdop><geoidheight>54.00</geoidheight><course>78.5</course><type>1</type></trkpt>
      <trkpt lat="40.5491963" lon="-5.18771995"><ele>2551</ele><speed>12.16</speed><time>2016-06-30T12:41:41Z</time><pdop>8.0</pdop><geoidheight>54.00</geoidheight><course>69.9</course><type>1</type></trkpt>
      <trkpt lat="40.549362" lon="-5.18754179"><ele>2550</ele><speed>11.24</speed><time>2016-06-30T12:41:43Z</time><pdop>6.0</pdop><geoidheight>54.00</geoidheight><course>42.8</course><type>1</type></trkpt>
      <trkpt lat="40.54955411" lon="-5.18751296"><ele>2552</ele><speed>9.60</speed><time>2016-06-30T12:41:45Z</time><pdop>7.0</pdop><geoidheight>54.00</geoidheight><course>15.8</course><type>1</type></trkpt>
      <trkpt lat="40.54979731" lon="-5.1875973"><ele>2552</ele><speed>12.24</speed><time>2016-06-30T12:41:47Z</time><pdop>9.0</pdop><geoidheight>54.00</geoidheight><course>350.6</course><type>1</type></trkpt>
      <trkpt lat="40.54987934" lon="-5.18789547"><ele>2552</ele><speed>7.76</speed><time>2016-06-30T12:41:50Z</time><pdop>17.0</pdop><geoidheight>54.00</geoidheight><course>310.9</course><type>1</type></trkpt>
      <trkpt lat="40.54941597" lon="-5.18804116"><ele>2553</ele><speed>7.33</speed><time>2016-06-30T12:41:54Z</time><pdop>31.0</pdop><geoidheight>54.00</geoidheight><course>188.1</course><type>1</type></trkpt>
      <trkpt lat="40.54915759" lon="-5.18735784"><ele>2554</ele><speed>12.63</speed><time>2016-06-30T12:41:57Z</time><pdop>23.0</pdop><geoidheight>54.00</geoidheight><course>113.9</course><type>1</type></trkpt>
      <trkpt lat="40.54914481" lon="-5.18675308"><ele>2556</ele><speed>12.94</speed><time>2016-06-30T12:42:00Z</time><pdop>21.0</pdop><geoidheight>54.00</geoidheight><course>91.6</course><type>1</type></trkpt>
      <trkpt lat="40.54928678" lon="-5.18633608"><ele>2561</ele><speed>11.25</speed><time>2016-06-30T12:42:03Z</time><pdop>17.0</pdop><geoidheight>54.00</geoidheight><course>68.6</course><type>1</type></trkpt>
      <trkpt lat="40.54963644" lon="-5.18610976"><ele>2564</ele><speed>12.10</speed><time>2016-06-30T12:42:06Z</time><pdop>17.0</pdop><geoidheight>54.00</geoidheight><course>32.6</course><type>1</type></trkpt>
      <trkpt lat="40.54980393" lon="-5.18658685"><ele>2569</ele><speed>5.39</speed><time>2016-06-30T12:42:11Z</time><pdop>18.0</pdop><geoidheight>54.00</geoidheight><course>303.5</course><type>1</type></trkpt>
      <trkpt lat="40.54939165" lon="-5.18674022"><ele>2570</ele><speed>7.44</speed><time>2016-06-30T12:42:15Z</time><pdop>25.0</pdop><geoidheight>54.00</geoidheight><course>198.1</course><type>1</type></trkpt>
      <trkpt lat="40.54902771" lon="-5.1863144"><ele>2571</ele><speed>8.21</speed><time>2016-06-30T12:42:19Z</time><pdop>19.0</pdop><geoidheight>54.00</geoidheight><course>137.0</course><type>1</type></trkpt>
      <trkpt lat="40.54899897" lon="-5.18577178"><ele>2575</ele><speed>11.19</speed><time>2016-06-30T12:42:22Z</time><pdop>21.0</pdop><geoidheight>54.00</geoidheight><course>103.0</course><type>1</type></trkpt>
      <trkpt lat="40.54930037" lon="-5.18504413"><ele>2345</ele><speed>10.25</speed><time>2016-06-30T12:42:27Z</time><pdop>19.0</pdop><geoidheight>54.00</geoidheight><course>70.4</course><type>1</type></trkpt>
      <trkpt lat="40.54973667" lon="-5.18500922"><ele>2455</ele><speed>10.87</speed><time>2016-06-30T12:42:30Z</time><pdop>16.0</pdop><geoidheight>54.00</geoidheight><course>15.6</course><type>1</type></trkpt>
      <trkpt lat="40.54989678" lon="-5.18537357"><ele>2507</ele><speed>4.81</speed><time>2016-06-30T12:42:34Z</time><pdop>18.0</pdop><geoidheight>54.00</geoidheight><course>307.4</course><type>1</type></trkpt>
      <trkpt lat="40.54979469" lon="-5.18581074"><ele>2552</ele><speed>6.68</speed><time>2016-06-30T12:42:37Z</time><pdop>13.0</pdop><geoidheight>54.00</geoidheight><course>248.9</course><type>1</type></trkpt>
      <trkpt lat="40.54951619" lon="-5.18578964"><ele>2571</ele><speed>7.86</speed><time>2016-06-30T12:42:40Z</time><pdop>13.0</pdop><geoidheight>54.00</geoidheight><course>179.2</course><type>1</type></trkpt>
      <trkpt lat="40.54931846" lon="-5.18561809"><ele>2586</ele><speed>9.23</speed><time>2016-06-30T12:42:42Z</time><pdop>9.0</pdop><geoidheight>54.00</geoidheight><course>140.4</course><type>1</type></trkpt>
      <trkpt lat="40.54928432" lon="-5.18524127"><ele>2597</ele><speed>14.42</speed><time>2016-06-30T12:42:44Z</time><pdop>6.0</pdop><geoidheight>54.00</geoidheight><course>91.0</course><type>1</type></trkpt>
      <trkpt lat="40.54926968" lon="-5.18504375"><ele>2600</ele><speed>14.38</speed><time>2016-06-30T12:42:45Z</time><pdop>6.0</pdop><geoidheight>54.00</geoidheight><course>87.6</course><type>1</type></trkpt>
      <trkpt lat="40.54929017" lon="-5.18486707"><ele>2601</ele><speed>14.56</speed><time>2016-06-30T12:42:46Z</time><pdop>7.0</pdop><geoidheight>54.00</geoidheight><course>86.2</course><type>1</type></trkpt>
      <trkpt lat="40.54933213" lon="-5.18463257"><ele>2601</ele><speed>11.30</speed><time>2016-06-30T12:42:48Z</time><pdop>12.0</pdop><geoidheight>54.00</geoidheight><course>80.6</course><type>1</type></trkpt>
      <trkpt lat="40.54955329" lon="-5.18442767"><ele>2603</ele><speed>11.63</speed><time>2016-06-30T12:42:50Z</time><pdop>11.0</pdop><geoidheight>54.00</geoidheight><course>51.5</course><type>1</type></trkpt>
      <trkpt lat="40.54970751" lon="-5.18419373"><ele>2609</ele><speed>12.13</speed><time>2016-06-30T12:42:52Z</time><pdop>9.0</pdop><geoidheight>54.00</geoidheight><course>49.6</course><type>1</type></trkpt>
      <trkpt lat="40.54987715" lon="-5.18404935"><ele>2617</ele><speed>10.77</speed><time>2016-06-30T12:42:54Z</time><pdop>8.0</pdop><geoidheight>54.00</geoidheight><course>35.1</course><type>1</type></trkpt>
      <trkpt lat="40.55006343" lon="-5.18399367"><ele>2622</ele><speed>9.84</speed><time>2016-06-30T12:42:56Z</time><pdop>8.0</pdop><geoidheight>54.00</geoidheight><course>19.1</course><type>1</type></trkpt>
      <trkpt lat="40.55026003" lon="-5.18397411"><ele>2626</ele><speed>8.88</speed><time>2016-06-30T12:42:58Z</time><pdop>8.0</pdop><geoidheight>54.00</geoidheight><course>8.0</course><type>1</type></trkpt>
      <trkpt lat="40.55044984" lon="-5.18406514"><ele>2627</ele><speed>6.08</speed><time>2016-06-30T12:43:01Z</time><pdop>13.0</pdop><geoidheight>54.00</geoidheight><course>349.6</course><type>1</type></trkpt>
      <trkpt lat="40.55035559" lon="-5.18442337"><ele>2634</ele><speed>5.87</speed><time>2016-06-30T12:43:04Z</time><pdop>12.0</pdop><geoidheight>54.00</geoidheight><course>245.7</course><type>1</type></trkpt>
      <trkpt lat="40.55012916" lon="-5.18439559"><ele>2638</ele><speed>8.36</speed><time>2016-06-30T12:43:06Z</time><pdop>10.0</pdop><geoidheight>54.00</geoidheight><course>170.2</course><type>1</type></trkpt>
      <trkpt lat="40.54991555" lon="-5.18431437"><ele>2638</ele><speed>10.17</speed><time>2016-06-30T12:43:08Z</time><pdop>12.0</pdop><geoidheight>54.00</geoidheight><course>161.0</course><type>1</type></trkpt>
      <trkpt lat="40.54969632" lon="-5.18396816"><ele>2634</ele><speed>10.85</speed><time>2016-06-30T12:43:11Z</time><pdop>16.0</pdop><geoidheight>54.00</geoidheight><course>133.1</course><type>1</type></trkpt>
      <trkpt lat="40.5496518" lon="-5.18345177"><ele>2636</ele><speed>12.68</speed><time>2016-06-30T12:43:14Z</time><pdop>21.0</pdop><geoidheight>54.00</geoidheight><course>103.0</course><type>1</type></trkpt>
      <trkpt lat="40.54995317" lon="-5.18303238"><ele>2641</ele><speed>10.98</speed><time>2016-06-30T12:43:17Z</time><pdop>15.0</pdop><geoidheight>54.00</geoidheight><course>62.0</course><type>1</type></trkpt>
      <trkpt lat="40.55023338" lon="-5.18307722"><ele>2654</ele><speed>7.78</speed><time>2016-06-30T12:43:20Z</time><pdop>10.0</pdop><geoidheight>54.00</geoidheight><course>3.7</course><type>1</type></trkpt>
      <trkpt lat="40.55029067" lon="-5.18334482"><ele>2657</ele><speed>4.93</speed><time>2016-06-30T12:43:24Z</time><pdop>13.0</pdop><geoidheight>54.00</geoidheight><course>282.5</course><type>1</type></trkpt>
      <trkpt lat="40.55013239" lon="-5.18361587"><ele>2660</ele><speed>8.17</speed><time>2016-06-30T12:43:27Z</time><pdop>15.0</pdop><geoidheight>54.00</geoidheight><course>242.1</course><type>1</type></trkpt>
      <trkpt lat="40.54945607" lon="-5.18369687"><ele>2430</ele><speed>10.19</speed><time>2016-06-30T12:43:33Z</time><pdop>8.0</pdop><geoidheight>54.00</geoidheight><course>172.2</course><type>1</type></trkpt>
      <trkpt lat="40.54924119" lon="-5.18359674"><ele>2478</ele><speed>9.57</speed><time>2016-06-30T12:43:35Z</time><pdop>10.0</pdop><geoidheight>54.00</geoidheight><course>161.6</course><type>1</type></trkpt>
      <trkpt lat="40.54909952" lon="-5.18334048"><ele>2520</ele><speed>10.81</speed><time>2016-06-30T12:43:37Z</time><pdop>13.0</pdop><geoidheight>54.00</geoidheight><course>135.7</course><type>1</type></trkpt>
      <trkpt lat="40.54901741" lon="-5.1829102"><ele>2562</ele><speed>11.97</speed><time>2016-06-30T12:43:39Z</time><pdop>16.0</pdop><geoidheight>54.00</geoidheight><course>111.0</course><type>1</type></trkpt>
      <trkpt lat="40.54900929" lon="-5.18246009"><ele>2610</ele><speed>13.34</speed><time>2016-06-30T12:43:41Z</time><pdop>13.0</pdop><geoidheight>54.00</geoidheight><course>99.9</course><type>1</type></trkpt>
      <trkpt lat="40.54920299" lon="-5.18218881"><ele>2639</ele><speed>12.14</speed><time>2016-06-30T12:43:43Z</time><pdop>9.0</pdop><geoidheight>54.00</geoidheight><course>65.9</course><type>1</type></trkpt>
      <trkpt lat="40.54928874" lon="-5.18190515"><ele>2336</ele><speed>12.57</speed><time>2016-06-30T12:43:45Z</time><pdop>7.0</pdop><geoidheight>54.00</geoidheight><course>70.4</course><type>1</type></trkpt>
      <trkpt lat="40.54937376" lon="-5.18162575"><ele>2473</ele><speed>13.14</speed><time>2016-06-30T12:43:47Z</time><pdop>7.0</pdop><geoidheight>54.00</geoidheight><course>71.1</course><type>1</type></trkpt>
      <trkpt lat="40.54933181" lon="-5.18135658"><ele>2541</ele><speed>12.73</speed><time>2016-06-30T12:43:49Z</time><pdop>7.0</pdop><geoidheight>54.00</geoidheight><course>102.4</course><type>1</type></trkpt>
      <trkpt lat="40.54921517" lon="-5.18111327"><ele>2605</ele><speed>12.46</speed><time>2016-06-30T12:43:51Z</time><pdop>6.0</pdop><geoidheight>54.00</geoidheight><course>126.7</course><type>1</type></trkpt>
      <trkpt lat="40.54907518" lon="-5.18095768"><ele>2639</ele><speed>10.04</speed><time>2016-06-30T12:43:53Z</time><pdop>7.0</pdop><geoidheight>54.00</geoidheight><course>137.0</course><type>1</type></trkpt>
      <trkpt lat="40.5489052" lon="-5.18097145"><ele>2661</ele><speed>8.85</speed><time>2016-06-30T12:43:55Z</time><pdop>9.0</pdop><geoidheight>54.00</geoidheight><course>165.3</course><type>1</type></trkpt>
      <trkpt lat="40.54898587" lon="-5.18120624"><ele>2666</ele><speed>4.96</speed><time>2016-06-30T12:43:57Z</time><pdop>9.0</pdop><geoidheight>54.00</geoidheight><course>281.8</course><type>1</type></trkpt>
      <trkpt lat="40.5491143" lon="-5.18140385"><ele>2676</ele><speed>7.75</speed><time>2016-06-30T12:43:59Z</time><pdop>5.0</pdop><geoidheight>54.00</geoidheight><course>333.6</course><type>1</type></trkpt>
      <trkpt lat="40.54925209" lon="-5.18145138"><ele>2681</ele><speed>8.06</speed><time>2016-06-30T12:44:01Z</time><pdop>5.0</pdop><geoidheight>54.00</geoidheight><course>343.1</course><type>1</type></trkpt>
      <trkpt lat="40.54941085" lon="-5.18152606"><ele>2685</ele><speed>8.98</speed><time>2016-06-30T12:44:03Z</time><pdop>7.0</pdop><geoidheight>54.00</geoidheight><course>346.9</course><type>1</type></trkpt>
      <trkpt lat="40.54956702" lon="-5.18142516"><ele>2688</ele><speed>9.79</speed><time>2016-06-30T12:44:05Z</time><pdop>7.0</pdop><geoidheight>54.00</geoidheight><course>21.3</course><type>1</type></trkpt>
      <trkpt lat="40.54971054" lon="-5.18121631"><ele>2695</ele><speed>12.85</speed><time>2016-06-30T12:44:07Z</time><pdop>5.0</pdop><geoidheight>54.00</geoidheight><course>51.7</course><type>1</type></trkpt>
      <trkpt lat="40.54974562" lon="-5.18108007"><ele>2699</ele><speed>13.42</speed><time>2016-06-30T12:44:08Z</time><pdop>5.0</pdop><geoidheight>54.00</geoidheight><course>65.3</course><type>1</type></trkpt>
      <trkpt lat="40.5497585" lon="-5.18093108"><ele>2702</ele><speed>13.70</speed><time>2016-06-30T12:44:09Z</time><pdop>5.0</pdop><geoidheight>54.00</geoidheight><course>79.7</course><type>1</type></trkpt>
      <trkpt lat="40.54976253" lon="-5.18079015"><ele>2703</ele><speed>13.19</speed><time>2016-06-30T12:44:10Z</time><pdop>5.0</pdop><geoidheight>54.00</geoidheight><course>84.4</course><type>1</type></trkpt>
      <trkpt lat="40.54972462" lon="-5.18066483"><ele>2706</ele><speed>11.71</speed><time>2016-06-30T12:44:11Z</time><pdop>5.0</pdop><geoidheight>54.00</geoidheight><course>96.6</course><type>1</type></trkpt>
      <trkpt lat="40.54960815" lon="-5.18050365"><ele>2708</ele><speed>9.51</speed><time>2016-06-30T12:44:13Z</time><pdop>6.0</pdop><geoidheight>54.00</geoidheight><course>119.1</course><type>1</type></trkpt>
      <trkpt lat="40.54944676" lon="-5.18058912"><ele>2708</ele><speed>10.36</speed><time>2016-06-30T12:44:14Z</time><pdop>4.0</pdop><geoidheight>54.00</geoidheight><course>181.3</course><type>1</type></trkpt>
      <trkpt lat="40.54937933" lon="-5.1806245"><ele>2711</ele><speed>9.58</speed><time>2016-06-30T12:44:15Z</time><pdop>4.0</pdop><geoidheight>54.00</geoidheight><course>199.7</course><type>1</type></trkpt>
      <trkpt lat="40.54930104" lon="-5.18066303"><ele>2711</ele><speed>9.25</speed><time>2016-06-30T12:44:16Z</time><pdop>4.0</pdop><geoidheight>54.00</geoidheight><course>203.6</course><type>1</type></trkpt>
      <trkpt lat="40.54923056" lon="-5.18069983"><ele>2712</ele><speed>8.58</speed><time>2016-06-30T12:44:17Z</time><pdop>4.0</pdop><geoidheight>54.00</geoidheight><course>206.2</course><type>1</type></trkpt>
      <trkpt lat="40.54921497" lon="-5.18084082"><ele>2713</ele><speed>6.15</speed><time>2016-06-30T12:44:19Z</time><pdop>6.0</pdop><geoidheight>54.00</geoidheight><course>239.4</course><type>1</type></trkpt>
      <trkpt lat="40.54933307" lon="-5.18098659"><ele>2713</ele><speed>6.38</speed><time>2016-06-30T12:44:21Z</time><pdop>8.0</pdop><geoidheight>54.00</geoidheight><course>290.8</course><type>1</type></trkpt>
      <trkpt lat="40.54957239" lon="-5.18092265"><ele>2715</ele><speed>7.23</speed><time>2016-06-30T12:44:23Z</time><pdop>12.0</pdop><geoidheight>54.00</geoidheight><course>354.0</course><type>1</type></trkpt>
      <trkpt lat="40.54981435" lon="-5.18070005"><ele>2715</ele><speed>10.82</speed><time>2016-06-30T12:44:25Z</time><pdop>12.0</pdop><geoidheight>54.00</geoidheight><course>31.2</course><type>1</type></trkpt>
      <trkpt lat="40.55010337" lon="-5.18045112"><ele>2717</ele><speed>13.96</speed><time>2016-06-30T12:44:27Z</time><pdop>11.0</pdop><geoidheight>54.00</geoidheight><course>37.6</course><type>1</type></trkpt>
      <trkpt lat="40.55023848" lon="-5.18020498"><ele>2717</ele><speed>13.98</speed><time>2016-06-30T12:44:29Z</time><pdop>10.0</pdop><geoidheight>54.00</geoidheight><course>52.5</course><type>1</type></trkpt>
      <trkpt lat="40.5502128" lon="-5.17990315"><ele>2720</ele><speed>13.27</speed><time>2016-06-30T12:44:31Z</time><pdop>10.0</pdop><geoidheight>54.00</geoidheight><course>93.5</course><type>1</type></trkpt>
      <trkpt lat="40.55017558" lon="-5.17958672"><ele>2721</ele><speed>13.74</speed><time>2016-06-30T12:44:33Z</time><pdop>10.0</pdop><geoidheight>54.00</geoidheight><course>101.2</course><type>1</type></trkpt>
      <trkpt lat="40.55007496" lon="-5.17936369"><ele>2721</ele><speed>11.58</speed><time>2016-06-30T12:44:35Z</time><pdop>11.0</pdop><geoidheight>54.00</geoidheight><course>112.7</course><type>1</type></trkpt>
      <trkpt lat="40.5498423" lon="-5.17913697"><ele>2487</ele><speed>10.77</speed><time>2016-06-30T12:44:38Z</time><pdop>12.0</pdop><geoidheight>54.00</geoidheight><course>131.7</course><type>1</type></trkpt>
      <trkpt lat="40.5496991" lon="-5.17883305"><ele>2587</ele><speed>13.83</speed><time>2016-06-30T12:44:40Z</time><pdop>12.0</pdop><geoidheight>54.00</geoidheight><course>117.8</course><type>1</type></trkpt>
      <trkpt lat="40.5496615" lon="-5.17850244"><ele>2652</ele><speed>13.75</speed><time>2016-06-30T12:44:42Z</time><pdop>12.0</pdop><geoidheight>54.00</geoidheight><course>107.9</course><type>1</type></trkpt>
      <trkpt lat="40.54969334" lon="-5.17813077"><ele>2687</ele><speed>13.89</speed><time>2016-06-30T12:44:44Z</time><pdop>12.0</pdop><geoidheight>54.00</geoidheight><course>94.1</course><type>1</type></trkpt>
      <trkpt lat="40.54997532" lon="-5.17768711"><ele>2703</ele><speed>14.98</speed><time>2016-06-30T12:44:47Z</time><pdop>11.0</pdop><geoidheight>54.00</geoidheight><course>55.6</course><type>1</type></trkpt>
      <trkpt lat="40.55013433" lon="-5.17743829"><ele>2709</ele><speed>13.51</speed><time>2016-06-30T12:44:49Z</time><pdop>11.0</pdop><geoidheight>54.00</geoidheight><course>52.2</course><type>1</type></trkpt>
      <trkpt lat="40.55047013" lon="-5.17733444"><ele>2701</ele><speed>12.14</speed><time>2016-06-30T12:44:52Z</time><pdop>20.0</pdop><geoidheight>54.00</geoidheight><course>20.9</course><type>1</type></trkpt>
      <trkpt lat="40.55040826" lon="-5.1777759"><ele>2707</ele><speed>2.54</speed><time>2016-06-30T12:44:56Z</time><pdop>15.0</pdop><geoidheight>54.00</geoidheight><course>303.9</course><type>1</type></trkpt>
      <trkpt lat="40.55012219" lon="-5.17771334"><ele>2717</ele><speed>6.22</speed><time>2016-06-30T12:44:59Z</time><pdop>14.0</pdop><geoidheight>54.00</geoidheight><course>139.8</course><type>1</type></trkpt>
      <trkpt lat="40.55007353" lon="-5.17724398"><ele>2734</ele><speed>10.20</speed><time>2016-06-30T12:45:03Z</time><pdop>15.0</pdop><geoidheight>54.00</geoidheight><course>89.6</course><type>1</type></trkpt>
      <trkpt lat="40.55025442" lon="-5.17672287"><ele>2745</ele><speed>13.67</speed><time>2016-06-30T12:45:06Z</time><pdop>14.0</pdop><geoidheight>54.00</geoidheight><course>60.7</course><type>1</type></trkpt>
      <trkpt lat="40.55040176" lon="-5.17643785"><ele>2750</ele><speed>12.32</speed><time>2016-06-30T12:45:08Z</time><pdop>15.0</pdop><geoidheight>54.00</geoidheight><course>55.4</course><type>1</type></trkpt>
      <trkpt lat="40.5506049" lon="-5.17613748"><ele>2773</ele><speed>12.22</speed><time>2016-06-30T12:45:11Z</time><pdop>16.0</pdop><geoidheight>54.00</geoidheight><course>42.6</course><type>1</type></trkpt>
      <trkpt lat="40.55080924" lon="-5.17645945"><ele>2789</ele><speed>9.96</speed><time>2016-06-30T12:45:13Z</time><pdop>9.0</pdop><geoidheight>54.00</geoidheight><course>328.3</course><type>1</type></trkpt>
      <trkpt lat="40.55090015" lon="-5.1766378"><ele>2794</ele><speed>7.83</speed><time>2016-06-30T12:45:15Z</time><pdop>9.0</pdop><geoidheight>54.00</geoidheight><course>313.2</course><type>1</type></trkpt>
      <trkpt lat="40.5508725" lon="-5.17691944"><ele>2801</ele><speed>9.24</speed><time>2016-06-30T12:45:17Z</time><pdop>7.0</pdop><geoidheight>54.00</geoidheight><course>266.8</course><type>1</type></trkpt>
      <trkpt lat="40.55086221" lon="-5.17711975"><ele>2806</ele><speed>7.20</speed><time>2016-06-30T12:45:19Z</time><pdop>8.0</pdop><geoidheight>54.00</geoidheight><course>265.2</course><type>1</type></trkpt>
      <trkpt lat="40.5506027" lon="-5.17718532"><ele>2815</ele><speed>6.32</speed><time>2016-06-30T12:45:23Z</time><pdop>13.0</pdop><geoidheight>54.00</geoidheight><course>187.9</course><type>1</type></trkpt>
      <trkpt lat="40.55065027" lon="-5.1764063"><ele>2812</ele><speed>9.60</speed><time>2016-06-30T12:45:28Z</time><pdop>27.0</pdop><geoidheight>54.00</geoidheight><course>84.3</course><type>1</type></trkpt>
      <trkpt lat="40.55097225" lon="-5.17602232"><ele>2815</ele><speed>10.68</speed><time>2016-06-30T12:45:30Z</time><pdop>21.0</pdop><geoidheight>54.00</geoidheight><course>45.2</course><type>1</type></trkpt>
      <trkpt lat="40.55128327" lon="-5.17589322"><ele>2828</ele><speed>10.44</speed><time>2016-06-30T12:45:33Z</time><pdop>13.0</pdop><geoidheight>54.00</geoidheight><course>17.5</course><type>1</type></trkpt>
      <trkpt lat="40.55149837" lon="-5.17599717"><ele>2834</ele><speed>11.01</speed><time>2016-06-30T12:45:35Z</time><pdop>10.0</pdop><geoidheight>54.00</geoidheight><course>342.5</course><type>1</type></trkpt>
      <trkpt lat="40.55159786" lon="-5.1762104"><ele>2843</ele><speed>9.64</speed><time>2016-06-30T12:45:37Z</time><pdop>9.0</pdop><geoidheight>54.00</geoidheight><course>321.0</course><type>1</type></trkpt>
      <trkpt lat="40.55157377" lon="-5.17643462"><ele>2849</ele><speed>6.33</speed><time>2016-06-30T12:45:39Z</time><pdop>8.0</pdop><geoidheight>54.00</geoidheight><course>279.6</course><type>1</type></trkpt>
      <trkpt lat="40.55150407" lon="-5.17662705"><ele>2849</ele><speed>7.68</speed><time>2016-06-30T12:45:41Z</time><pdop>9.0</pdop><geoidheight>54.00</geoidheight><course>254.9</course><type>1</type></trkpt>
      <trkpt lat="40.55138054" lon="-5.17680698"><ele>2851</ele><speed>6.33</speed><time>2016-06-30T12:45:44Z</time><pdop>9.0</pdop><geoidheight>54.00</geoidheight><course>234.8</course><type>1</type></trkpt>
      <trkpt lat="40.5511287" lon="-5.17666009"><ele>2854</ele><speed>8.59</speed><time>2016-06-30T12:45:46Z</time><pdop>8.0</pdop><geoidheight>54.00</geoidheight><course>167.2</course><type>1</type></trkpt>
      <trkpt lat="40.55096472" lon="-5.17655488"><ele>2856</ele><speed>8.76</speed><time>2016-06-30T12:45:48Z</time><pdop>8.0</pdop><geoidheight>54.00</geoidheight><course>156.1</course><type>1</type></trkpt>
      <trkpt lat="40.55083121" lon="-5.17638429"><ele>2857</ele><speed>8.85</speed><time>2016-06-30T12:45:50Z</time><pdop>9.0</pdop><geoidheight>54.00</geoidheight><course>137.6</course><type>1</type></trkpt>
      <trkpt lat="40.55076262" lon="-5.176175"><ele>2858</ele><speed>8.36</speed><time>2016-06-30T12:45:52Z</time><pdop>7.0</pdop><geoidheight>54.00</geoidheight><course>124.6</course><type>1</type></trkpt>
      <trkpt lat="40.55066376" lon="-5.17599842"><ele>2863</ele><speed>7.94</speed><time>2016-06-30T12:45:54Z</time><pdop>9.0</pdop><geoidheight>54.00</geoidheight><course>131.7</course><type>1</type></trkpt>
      <trkpt lat="40.55073077" lon="-5.17621329"><ele>2886</ele><speed>6.18</speed><time>2016-06-30T12:46:02Z</time><pdop>9.0</pdop><geoidheight>54.00</geoidheight><course>325.3</course><type>1</type></trkpt>
      <trkpt lat="40.55119627" lon="-5.17535572"><ele>2666</ele><speed>10.56</speed><time>2016-06-30T12:46:09Z</time><pdop>11.0</pdop><geoidheight>54.00</geoidheight><course>73.6</course><type>1</type></trkpt>
      <trkpt lat="40.55101433" lon="-5.17509282"><ele>2767</ele><speed>7.15</speed><time>2016-06-30T12:46:13Z</time><pdop>18.0</pdop><geoidheight>54.00</geoidheight><course>138.4</course><type>1</type></trkpt>
      <trkpt lat="40.55083588" lon="-5.17561996"><ele>2868</ele><speed>9.28</speed><time>2016-06-30T12:46:18Z</time><pdop>13.0</pdop><geoidheight>54.00</geoidheight><course>269.4</course><type>1</type></trkpt>
      <trkpt lat="40.55082758" lon="-5.17589456"><ele>2905</ele><speed>8.40</speed><time>2016-06-30T12:46:20Z</time><pdop>9.0</pdop><geoidheight>54.00</geoidheight><course>271.8</course><type>1</type></trkpt>
      <trkpt lat="40.55092913" lon="-5.17615832"><ele>2921</ele><speed>7.63</speed><time>2016-06-30T12:46:23Z</time><pdop>9.0</pdop><geoidheight>54.00</geoidheight><course>302.6</course><type>1</type></trkpt>
      <trkpt lat="40.5510636" lon="-5.17630937"><ele>2932</ele><speed>8.93</speed><time>2016-06-30T12:46:25Z</time><pdop>9.0</pdop><geoidheight>54.00</geoidheight><course>317.8</course><type>1</type></trkpt>
      <trkpt lat="40.55128153" lon="-5.17620008"><ele>2933</ele><speed>8.73</speed><time>2016-06-30T12:46:27Z</time><pdop>10.0</pdop><geoidheight>54.00</geoidheight><course>358.7</course><type>1</type></trkpt>
      <trkpt lat="40.55156339" lon="-5.17597285"><ele>2938</ele><speed>12.53</speed><time>2016-06-30T12:46:29Z</time><pdop>10.0</pdop><geoidheight>54.00</geoidheight><course>25.2</course><type>1</type></trkpt>
      <trkpt lat="40.55166116" lon="-5.17578345"><ele>2942</ele><speed>14.44</speed><time>2016-06-30T12:46:30Z</time><pdop>8.0</pdop><geoidheight>54.00</geoidheight><course>44.2</course><type>1</type></trkpt>
      <trkpt lat="40.55177138" lon="-5.17563835"><ele>2943</ele><speed>14.75</speed><time>2016-06-30T12:46:31Z</time><pdop>8.0</pdop><geoidheight>54.00</geoidheight><course>47.2</course><type>1</type></trkpt>
      <trkpt lat="40.55187555" lon="-5.1754841"><ele>2944</ele><speed>14.91</speed><time>2016-06-30T12:46:32Z</time><pdop>7.0</pdop><geoidheight>54.00</geoidheight><course>50.8</course><type>1</type></trkpt>
      <trkpt lat="40.55196041" lon="-5.17535744"><ele>2949</ele><speed>14.06</speed><time>2016-06-30T12:46:33Z</time><pdop>5.0</pdop><geoidheight>54.00</geoidheight><course>49.9</course><type>1</type></trkpt>
      <trkpt lat="40.55204636" lon="-5.17523654"><ele>2949</ele><speed>13.56</speed><time>2016-06-30T12:46:34Z</time><pdop>5.0</pdop><geoidheight>54.00</geoidheight><course>48.0</course><type>1</type></trkpt>
      <trkpt lat="40.55213991" lon="-5.17511377"><ele>2950</ele><speed>13.47</speed><time>2016-06-30T12:46:35Z</time><pdop>4.0</pdop><geoidheight>54.00</geoidheight><course>46.3</course><type>1</type></trkpt>
      <trkpt lat="40.55221568" lon="-5.1750076"><ele>2953</ele><speed>12.52</speed><time>2016-06-30T12:46:36Z</time><pdop>4.0</pdop><geoidheight>54.00</geoidheight><course>47.1</course><type>1</type></trkpt>
      <trkpt lat="40.55230702" lon="-5.17490806"><ele>2956</ele><speed>12.33</speed><time>2016-06-30T12:46:37Z</time><pdop>4.0</pdop><geoidheight>54.00</geoidheight><course>41.8</course><type>1</type></trkpt>
      <trkpt lat="40.55238644" lon="-5.17481783"><ele>2958</ele><speed>12.23</speed><time>2016-06-30T12:46:38Z</time><pdop>4.0</pdop><geoidheight>54.00</geoidheight><course>39.2</course><type>1</type></trkpt>
      <trkpt lat="40.5524593" lon="-5.17472851"><ele>2959</ele><speed>11.72</speed><time>2016-06-30T12:46:39Z</time><pdop>4.0</pdop><geoidheight>54.00</geoidheight><course>40.5</course><type>1</type></trkpt>
      <trkpt lat="40.55253582" lon="-5.17461847"><ele>2958</ele><speed>12.05</speed><time>2016-06-30T12:46:40Z</time><pdop>4.0</pdop><geoidheight>54.00</geoidheight><course>43.9</course><type>1</type></trkpt>
      <trkpt lat="40.55260759" lon="-5.174514"><ele>2959</ele><speed>12.12</speed><time>2016-06-30T12:46:41Z</time><pdop>5.0</pdop><geoidheight>54.00</geoidheight><course>44.2</course><type>1</type></trkpt>
      <trkpt lat="40.55267583" lon="-5.17438868"><ele>2960</ele><speed>12.65</speed><time>2016-06-30T12:46:42Z</time><pdop>5.0</pdop><geoidheight>54.00</geoidheight><course>50.0</course><type>1</type></trkpt>
      <trkpt lat="40.55274964" lon="-5.17427292"><ele>2960</ele><speed>12.65</speed><time>2016-06-30T12:46:43Z</time><pdop>5.0</pdop><geoidheight>54.00</geoidheight><course>50.9</course><type>1</type></trkpt>
      <trkpt lat="40.55283412" lon="-5.1741212"><ele>2958</ele><speed>14.20</speed><time>2016-06-30T12:46:44Z</time><pdop>6.0</pdop><geoidheight>54.00</geoidheight><course>50.7</course><type>1</type></trkpt>
      <trkpt lat="40.55291745" lon="-5.1739815"><ele>2957</ele><speed>14.94</speed><time>2016-06-30T12:46:45Z</time><pdop>7.0</pdop><geoidheight>54.00</geoidheight><course>52.1</course><type>1</type></trkpt>
      <trkpt lat="40.55303605" lon="-5.17381917"><ele>2955</ele><speed>16.47</speed><time>2016-06-30T12:46:46Z</time><pdop>9.0</pdop><geoidheight>54.00</geoidheight><course>51.5</course><type>1</type></trkpt>
      <trkpt lat="40.55314222" lon="-5.17364219"><ele>2955</ele><speed>17.83</speed><time>2016-06-30T12:46:47Z</time><pdop>9.0</pdop><geoidheight>54.00</geoidheight><course>52.2</course><type>1</type></trkpt>
      <trkpt lat="40.55326455" lon="-5.17348434"><ele>2957</ele><speed>17.66</speed><time>2016-06-30T12:46:48Z</time><pdop>8.0</pdop><geoidheight>54.00</geoidheight><course>50.4</course><type>1</type></trkpt>
      <trkpt lat="40.55332656" lon="-5.17332206"><ele>2954</ele><speed>15.95</speed><time>2016-06-30T12:46:49Z</time><pdop>7.0</pdop><geoidheight>54.00</geoidheight><course>54.5</course><type>1</type></trkpt>
      <trkpt lat="40.55345893" lon="-5.17303676"><ele>2955</ele><speed>13.90</speed><time>2016-06-30T12:46:51Z</time><pdop>6.0</pdop><geoidheight>54.00</geoidheight><course>59.8</course><type>1</type></trkpt>
      <trkpt lat="40.55354224" lon="-5.17288467"><ele>2952</ele><speed>14.37</speed><time>2016-06-30T12:46:52Z</time><pdop>6.0</pdop><geoidheight>54.00</geoidheight><course>57.4</course><type>1</type></trkpt>
      <trkpt lat="40.55362059" lon="-5.17273963"><ele>2952</ele><speed>14.77</speed><time>2016-06-30T12:46:53Z</time><pdop>6.0</pdop><geoidheight>54.00</geoidheight><course>57.5</course><type>1</type></trkpt>
      <trkpt lat="40.55369261" lon="-5.17259038"><ele>2950</ele><speed>14.68</speed><time>2016-06-30T12:46:54Z</time><pdop>7.0</pdop><geoidheight>54.00</geoidheight><course>58.0</course><type>1</type></trkpt>
      <trkpt lat="40.55375396" lon="-5.17241649"><ele>2949</ele><speed>15.96</speed><time>2016-06-30T12:46:55Z</time><pdop>6.0</pdop><geoidheight>54.00</geoidheight><course>61.6</course><type>1</type></trkpt>
      <trkpt lat="40.55383092" lon="-5.17225022"><ele>2951</ele><speed>16.31</speed><time>2016-06-30T12:46:56Z</time><pdop>6.0</pdop><geoidheight>54.00</geoidheight><course>59.2</course><type>1</type></trkpt>
      <trkpt lat="40.55391053" lon="-5.17207593"><ele>2951</ele><speed>16.57</speed><time>2016-06-30T12:46:57Z</time><pdop>6.0</pdop><geoidheight>54.00</geoidheight><course>59.3</course><type>1</type></trkpt>
      <trkpt lat="40.55397427" lon="-5.17193196"><ele>2950</ele><speed>15.30</speed><time>2016-06-30T12:46:58Z</time><pdop>7.0</pdop><geoidheight>54.00</geoidheight><course>57.7</course><type>1</type></trkpt>
      <trkpt lat="40.55405095" lon="-5.17177712"><ele>2950</ele><speed>15.10</speed><time>2016-06-30T12:46:59Z</time><pdop>8.0</pdop><geoidheight>54.00</geoidheight><course>57.4</course><type>1</type></trkpt>
      <trkpt lat="40.55421235" lon="-5.17148212"><ele>2950</ele><speed>15.17</speed><time>2016-06-30T12:47:01Z</time><pdop>7.0</pdop><geoidheight>54.00</geoidheight><course>56.5</course><type>1</type></trkpt>
      <trkpt lat="40.55429655" lon="-5.17133921"><ele>2949</ele><speed>15.04</speed><time>2016-06-30T12:47:02Z</time><pdop>6.0</pdop><geoidheight>54.00</geoidheight><course>55.9</course><type>1</type></trkpt>
      <trkpt lat="40.55437092" lon="-5.17120117"><ele>2949</ele><speed>14.47</speed><time>2016-06-30T12:47:03Z</time><pdop>5.0</pdop><geoidheight>54.00</geoidheight><course>56.4</course><type>1</type></trkpt>
      <trkpt lat="40.55443537" lon="-5.1710615"><ele>2949</ele><speed>13.76</speed><time>2016-06-30T12:47:04Z</time><pdop>5.0</pdop><geoidheight>54.00</geoidheight><course>59.1</course><type>1</type></trkpt>
      <trkpt lat="40.5545115" lon="-5.17091273"><ele>2949</ele><speed>13.87</speed><time>2016-06-30T12:47:05Z</time><pdop>5.0</pdop><geoidheight>54.00</geoidheight><course>59.8</course><type>1</type></trkpt>
      <trkpt lat="40.55457937" lon="-5.1707605"><ele>2949</ele><speed>14.59</speed><time>2016-06-30T12:47:06Z</time><pdop>5.0</pdop><geoidheight>54.00</geoidheight><course>59.2</course><type>1</type></trkpt>
      <trkpt lat="40.55465945" lon="-5.17060705"><ele>2951</ele><speed>15.05</speed><time>2016-06-30T12:47:07Z</time><pdop>4.0</pdop><geoidheight>54.00</geoidheight><course>57.2</course><type>1</type></trkpt>
      <trkpt lat="40.55474356" lon="-5.17045954"><ele>2951</ele><speed>14.69</speed><time>2016-06-30T12:47:08Z</time><pdop>4.0</pdop><geoidheight>54.00</geoidheight><course>54.1</course><type>1</type></trkpt>
      <trkpt lat="40.55482003" lon="-5.17031476"><ele>2951</ele><speed>14.55</speed><time>2016-06-30T12:47:09Z</time><pdop>5.0</pdop><geoidheight>54.00</geoidheight><course>53.8</course><type>1</type></trkpt>
      <trkpt lat="40.55491191" lon="-5.1701842"><ele>2950</ele><speed>14.38</speed><time>2016-06-30T12:47:10Z</time><pdop>5.0</pdop><geoidheight>54.00</geoidheight><course>50.5</course><type>1</type></trkpt>
      <trkpt lat="40.55501854" lon="-5.17004826"><ele>2951</ele><speed>15.06</speed><time>2016-06-30T12:47:11Z</time><pdop>6.0</pdop><geoidheight>54.00</geoidheight><course>48.7</course><type>1</type></trkpt>
      <trkpt lat="40.55512257" lon="-5.16991607"><ele>2951</ele><speed>15.60</speed><time>2016-06-30T12:47:12Z</time><pdop>7.0</pdop><geoidheight>54.00</geoidheight><course>47.7</course><type>1</type></trkpt>
      <trkpt lat="40.55522733" lon="-5.16978446"><ele>2953</ele><speed>15.87</speed><time>2016-06-30T12:47:13Z</time><pdop>7.0</pdop><geoidheight>54.00</geoidheight><course>47.4</course><type>1</type></trkpt>
      <trkpt lat="40.55531723" lon="-5.1696396"><ele>2952</ele><speed>15.88</speed><time>2016-06-30T12:47:14Z</time><pdop>7.0</pdop><geoidheight>54.00</geoidheight><course>48.6</course><type>1</type></trkpt>
      <trkpt lat="40.55549398" lon="-5.16936173"><ele>2730</ele><speed>15.31</speed><time>2016-06-30T12:47:16Z</time><pdop>6.0</pdop><geoidheight>54.00</geoidheight><course>52.5</course><type>1</type></trkpt>
      <trkpt lat="40.55558406" lon="-5.16923356"><ele>2809</ele><speed>14.89</speed><time>2016-06-30T12:47:17Z</time><pdop>5.0</pdop><geoidheight>54.00</geoidheight><course>51.5</course><type>1</type></trkpt>
      <trkpt lat="40.55566868" lon="-5.16909622"><ele>2855</ele><speed>14.60</speed><time>2016-06-30T12:47:18Z</time><pdop>5.0</pdop><geoidheight>54.00</geoidheight><course>51.0</course><type>1</type></trkpt>
      <trkpt lat="40.55573938" lon="-5.16896435"><ele>2878</ele><speed>14.47</speed><time>2016-06-30T12:47:19Z</time><pdop>5.0</pdop><geoidheight>54.00</geoidheight><course>50.0</course><type>1</type></trkpt>
      <trkpt lat="40.55580162" lon="-5.16883165"><ele>2893</ele><speed>14.09</speed><time>2016-06-30T12:47:20Z</time><pdop>5.0</pdop><geoidheight>54.00</geoidheight><course>52.6</course><type>1</type></trkpt>
      <trkpt lat="40.55584064" lon="-5.16870216"><ele>2905</ele><speed>14.06</speed><time>2016-06-30T12:47:21Z</time><pdop>5.0</pdop><geoidheight>54.00</geoidheight><course>55.5</course><type>1</type></trkpt>
      <trkpt lat="40.55591423" lon="-5.16855974"><ele>2917</ele><speed>14.59</speed><time>2016-06-30T12:47:22Z</time><pdop>5.0</pdop><geoidheight>54.00</geoidheight><course>55.7</course><type>1</type></trkpt>
      <trkpt lat="40.55596602" lon="-5.16843387"><ele>2924</ele><speed>14.26</speed><time>2016-06-30T12:47:23Z</time><pdop>5.0</pdop><geoidheight>54.00</geoidheight><course>52.4</course><type>1</type></trkpt>
      <trkpt lat="40.55604922" lon="-5.16831347"><ele>2929</ele><speed>13.54</speed><time>2016-06-30T12:47:24Z</time><pdop>5.0</pdop><geoidheight>54.00</geoidheight><course>49.5</course><type>1</type></trkpt>
      <trkpt lat="40.55611058" lon="-5.16819963"><ele>2936</ele><speed>13.00</speed><time>2016-06-30T12:47:25Z</time><pdop>4.0</pdop><geoidheight>54.00</geoidheight><course>50.8</course><type>1</type></trkpt>
      <trkpt lat="40.55618569" lon="-5.16807295"><ele>2940</ele><speed>13.41</speed><time>2016-06-30T12:47:26Z</time><pdop>4.0</pdop><geoidheight>54.00</geoidheight><course>51.9</course><type>1</type></trkpt>
      <trkpt lat="40.55627203" lon="-5.16794846"><ele>2942</ele><speed>14.26</speed><time>2016-06-30T12:47:27Z</time><pdop>4.0</pdop><geoidheight>54.00</geoidheight><course>51.0</course><type>1</type></trkpt>
      <trkpt lat="40.5563643" lon="-5.16779186"><ele>2940</ele><speed>15.28</speed><time>2016-06-30T12:47:28Z</time><pdop>4.0</pdop><geoidheight>54.00</geoidheight><course>51.1</course><type>1</type></trkpt>
      <trkpt lat="40.55646212" lon="-5.1676425"><ele>2939</ele><speed>15.91</speed><time>2016-06-30T12:47:29Z</time><pdop>5.0</pdop><geoidheight>54.00</geoidheight><course>51.8</course><type>1</type></trkpt>
      <trkpt lat="40.55659974" lon="-5.16748758"><ele>2938</ele><speed>17.41</speed><time>2016-06-30T12:47:30Z</time><pdop>5.0</pdop><geoidheight>54.00</geoidheight><course>48.2</course><type>1</type></trkpt>
      <trkpt lat="40.55670942" lon="-5.16731898"><ele>2941</ele><speed>18.02</speed><time>2016-06-30T12:47:31Z</time><pdop>4.0</pdop><geoidheight>54.00</geoidheight><course>49.9</course><type>1</type></trkpt>
      <trkpt lat="40.55681871" lon="-5.16716505"><ele>2942</ele><speed>17.13</speed><time>2016-06-30T12:47:32Z</time><pdop>4.0</pdop><geoidheight>54.00</geoidheight><course>49.0</course><type>1</type></trkpt>
      <trkpt lat="40.55692163" lon="-5.16702353"><ele>2941</ele><speed>16.05</speed><time>2016-06-30T12:47:33Z</time><pdop>4.0</pdop><geoidheight>54.00</geoidheight><course>48.2</course><type>1</type></trkpt>
      <trkpt lat="40.55701721" lon="-5.16688432"><ele>2940</ele><speed>15.52</speed><time>2016-06-30T12:47:34Z</time><pdop>5.0</pdop><geoidheight>54.00</geoidheight><course>47.1</course><type>1</type></trkpt>
      <trkpt lat="40.55712786" lon="-5.16674979"><ele>2940</ele><speed>15.70</speed><time>2016-06-30T12:47:35Z</time><pdop>4.0</pdop><geoidheight>54.00</geoidheight><course>44.6</course><type>1</type></trkpt>
      <trkpt lat="40.55723452" lon="-5.16661763"><ele>2945</ele><speed>15.95</speed><time>2016-06-30T12:47:36Z</time><pdop>4.0</pdop><geoidheight>54.00</geoidheight><course>43.6</course><type>1</type></trkpt>
      <trkpt lat="40.55734544" lon="-5.16648114"><ele>2945</ele><speed>16.66</speed><time>2016-06-30T12:47:37Z</time><pdop>4.0</pdop><geoidheight>54.00</geoidheight><course>42.6</course><type>1</type></trkpt>
      <trkpt lat="40.55746696" lon="-5.1663358"><ele>2946</ele><speed>17.63</speed><time>2016-06-30T12:47:38Z</time><pdop>4.0</pdop><geoidheight>54.00</geoidheight><course>42.7</course><type>1</type></trkpt>
      <trkpt lat="40.55757623" lon="-5.16618595"><ele>2945</ele><speed>17.91</speed><time>2016-06-30T12:47:39Z</time><pdop>5.0</pdop><geoidheight>54.00</geoidheight><course>43.3</course><type>1</type></trkpt>
      <trkpt lat="40.55767437" lon="-5.16603292"><ele>2944</ele><speed>17.79</speed><time>2016-06-30T12:47:40Z</time><pdop>8.0</pdop><geoidheight>54.00</geoidheight><course>45.1</course><type>1</type></trkpt>
      <trkpt lat="40.55779824" lon="-5.16589066"><ele>2944</ele><speed>17.96</speed><time>2016-06-30T12:47:41Z</time><pdop>10.0</pdop><geoidheight>54.00</geoidheight><course>43.6</course><type>1</type></trkpt>
      <trkpt lat="40.55808652" lon="-5.16557398"><ele>2943</ele><speed>19.15</speed><time>2016-06-30T12:47:43Z</time><pdop>15.0</pdop><geoidheight>54.00</geoidheight><course>40.7</course><type>1</type></trkpt>
      <trkpt lat="40.55838577" lon="-5.16530146"><ele>2942</ele><speed>19.28</speed><time>2016-06-30T12:47:45Z</time><pdop>14.0</pdop><geoidheight>54.00</geoidheight><course>38.5</course><type>1</type></trkpt>
      <trkpt lat="40.55866946" lon="-5.16505947"><ele>2939</ele><speed>18.57</speed><time>2016-06-30T12:47:47Z</time><pdop>13.0</pdop><geoidheight>54.00</geoidheight><course>35.7</course><type>1</type></trkpt>
      <trkpt lat="40.55897488" lon="-5.16484612"><ele>2936</ele><speed>18.58</speed><time>2016-06-30T12:47:49Z</time><pdop>8.0</pdop><geoidheight>54.00</geoidheight><course>33.9</course><type>1</type></trkpt>
      <trkpt lat="40.55913024" lon="-5.16472033"><ele>2934</ele><speed>19.26</speed><time>2016-06-30T12:47:50Z</time><pdop>6.0</pdop><geoidheight>54.00</geoidheight><course>34.6</course><type>1</type></trkpt>
      <trkpt lat="40.55927182" lon="-5.16457208"><ele>2934</ele><speed>18.91</speed><time>2016-06-30T12:47:51Z</time><pdop>5.0</pdop><geoidheight>54.00</geoidheight><course>37.5</course><type>1</type></trkpt>
      <trkpt lat="40.5594056" lon="-5.16442587"><ele>2931</ele><speed>18.82</speed><time>2016-06-30T12:47:52Z</time><pdop>5.0</pdop><geoidheight>54.00</geoidheight><course>41.2</course><type>1</type></trkpt>
      <trkpt lat="40.55953967" lon="-5.16427003"><ele>2929</ele><speed>18.60</speed><time>2016-06-30T12:47:53Z</time><pdop>5.0</pdop><geoidheight>54.00</geoidheight><course>44.3</course><type>1</type></trkpt>
      <trkpt lat="40.55964967" lon="-5.16411652"><ele>2925</ele><speed>18.46</speed><time>2016-06-30T12:47:54Z</time><pdop>6.0</pdop><geoidheight>54.00</geoidheight><course>43.5</course><type>1</type></trkpt>
      <trkpt lat="40.55978107" lon="-5.16396883"><ele>2924</ele><speed>18.57</speed><time>2016-06-30T12:47:55Z</time><pdop>5.0</pdop><geoidheight>54.00</geoidheight><course>40.9</course><type>1</type></trkpt>
      <trkpt lat="40.55992994" lon="-5.16382527"><ele>2924</ele><speed>19.10</speed><time>2016-06-30T12:47:56Z</time><pdop>6.0</pdop><geoidheight>54.00</geoidheight><course>38.7</course><type>1</type></trkpt>
      <trkpt lat="40.56007232" lon="-5.16367755"><ele>2923</ele><speed>19.27</speed><time>2016-06-30T12:47:57Z</time><pdop>7.0</pdop><geoidheight>54.00</geoidheight><course>38.3</course><type>1</type></trkpt>
      <trkpt lat="40.56020177" lon="-5.16354151"><ele>2921</ele><speed>18.85</speed><time>2016-06-30T12:47:58Z</time><pdop>9.0</pdop><geoidheight>54.00</geoidheight><course>37.8</course><type>1</type></trkpt>
      <trkpt lat="40.5607902" lon="-5.16320934"><ele>2688</ele><speed>20.15</speed><time>2016-06-30T12:48:01Z</time><pdop>4.0</pdop><geoidheight>54.00</geoidheight><course>27.6</course><type>1</type></trkpt>
      <trkpt lat="40.56096636" lon="-5.16309362"><ele>2732</ele><speed>20.35</speed><time>2016-06-30T12:48:02Z</time><pdop>4.0</pdop><geoidheight>54.00</geoidheight><course>29.2</course><type>1</type></trkpt>
      <trkpt lat="40.56111341" lon="-5.16296363"><ele>2791</ele><speed>20.64</speed><time>2016-06-30T12:48:03Z</time><pdop>4.0</pdop><geoidheight>54.00</geoidheight><course>30.9</course><type>1</type></trkpt>
      <trkpt lat="40.56126596" lon="-5.16284069"><ele>2813</ele><speed>20.80</speed><time>2016-06-30T12:48:04Z</time><pdop>4.0</pdop><geoidheight>54.00</geoidheight><course>31.9</course><type>1</type></trkpt>
      <trkpt lat="40.56141965" lon="-5.16270366"><ele>2836</ele><speed>20.83</speed><time>2016-06-30T12:48:05Z</time><pdop>4.0</pdop><geoidheight>54.00</geoidheight><course>32.6</course><type>1</type></trkpt>
      <trkpt lat="40.56158295" lon="-5.16257274"><ele>2851</ele><speed>20.93</speed><time>2016-06-30T12:48:06Z</time><pdop>4.0</pdop><geoidheight>54.00</geoidheight><course>32.9</course><type>1</type></trkpt>
      <trkpt lat="40.5617151" lon="-5.16243698"><ele>2851</ele><speed>20.25</speed><time>2016-06-30T12:48:07Z</time><pdop>4.0</pdop><geoidheight>54.00</geoidheight><course>34.3</course><type>1</type></trkpt>
      <trkpt lat="40.56185134" lon="-5.16229292"><ele>2847</ele><speed>19.81</speed><time>2016-06-30T12:48:08Z</time><pdop>5.0</pdop><geoidheight>54.00</geoidheight><course>35.0</course><type>1</type></trkpt>
      <trkpt lat="40.56199591" lon="-5.16215686"><ele>2850</ele><speed>19.81</speed><time>2016-06-30T12:48:09Z</time><pdop>5.0</pdop><geoidheight>54.00</geoidheight><course>34.9</course><type>1</type></trkpt>
      <trkpt lat="40.56214184" lon="-5.16201953"><ele>2848</ele><speed>19.89</speed><time>2016-06-30T12:48:10Z</time><pdop>5.0</pdop><geoidheight>54.00</geoidheight><course>35.3</course><type>1</type></trkpt>
      <trkpt lat="40.56230154" lon="-5.16188471"><ele>2852</ele><speed>20.16</speed><time>2016-06-30T12:48:11Z</time><pdop>6.0</pdop><geoidheight>54.00</geoidheight><course>35.2</course><type>1</type></trkpt>
      <trkpt lat="40.56244915" lon="-5.16174914"><ele>2855</ele><speed>20.26</speed><time>2016-06-30T12:48:12Z</time><pdop>5.0</pdop><geoidheight>54.00</geoidheight><course>35.5</course><type>1</type></trkpt>
      <trkpt lat="40.56257877" lon="-5.16160488"><ele>2853</ele><speed>20.05</speed><time>2016-06-30T12:48:13Z</time><pdop>6.0</pdop><geoidheight>54.00</geoidheight><course>37.2</course><type>1</type></trkpt>
      <trkpt lat="40.56273203" lon="-5.16145594"><ele>2852</ele><speed>20.57</speed><time>2016-06-30T12:48:14Z</time><pdop>6.0</pdop><geoidheight>54.00</geoidheight><course>37.4</course><type>1</type></trkpt>
      <trkpt lat="40.56288115" lon="-5.16129943"><ele>2853</ele><speed>20.72</speed><time>2016-06-30T12:48:15Z</time><pdop>7.0</pdop><geoidheight>54.00</geoidheight><course>37.7</course><type>1</type></trkpt>
      <trkpt lat="40.5630281" lon="-5.16114934"><ele>2858</ele><speed>20.59</speed><time>2016-06-30T12:48:16Z</time><pdop>7.0</pdop><geoidheight>54.00</geoidheight><course>37.4</course><type>1</type></trkpt>
      <trkpt lat="40.56318191" lon="-5.16100394"><ele>2861</ele><speed>20.52</speed><time>2016-06-30T12:48:17Z</time><pdop>7.0</pdop><geoidheight>54.00</geoidheight><course>36.8</course><type>1</type></trkpt>
      <trkpt lat="40.56332727" lon="-5.16085284"><ele>2862</ele><speed>20.21</speed><time>2016-06-30T12:48:18Z</time><pdop>7.0</pdop><geoidheight>54.00</geoidheight><course>37.1</course><type>1</type></trkpt>
      <trkpt lat="40.5634763" lon="-5.16069911"><ele>2863</ele><speed>20.23</speed><time>2016-06-30T12:48:19Z</time><pdop>7.0</pdop><geoidheight>54.00</geoidheight><course>36.9</course><type>1</type></trkpt>
      <trkpt lat="40.56360894" lon="-5.16055243"><ele>2856</ele><speed>19.94</speed><time>2016-06-30T12:48:20Z</time><pdop>7.0</pdop><geoidheight>54.00</geoidheight><course>37.8</course><type>1</type></trkpt>
      <trkpt lat="40.56375859" lon="-5.16039987"><ele>2857</ele><speed>20.21</speed><time>2016-06-30T12:48:21Z</time><pdop>8.0</pdop><geoidheight>54.00</geoidheight><course>37.8</course><type>1</type></trkpt>
      <trkpt lat="40.56389277" lon="-5.16024067"><ele>2854</ele><speed>20.17</speed><time>2016-06-30T12:48:22Z</time><pdop>8.0</pdop><geoidheight>54.00</geoidheight><course>38.9</course><type>1</type></trkpt>
      <trkpt lat="40.56405018" lon="-5.16009174"><ele>2858</ele><speed>20.59</speed><time>2016-06-30T12:48:23Z</time><pdop>8.0</pdop><geoidheight>54.00</geoidheight><course>38.5</course><type>1</type></trkpt>
      <trkpt lat="40.56422584" lon="-5.15994625"><ele>2860</ele><speed>21.04</speed><time>2016-06-30T12:48:24Z</time><pdop>8.0</pdop><geoidheight>54.00</geoidheight><course>37.5</course><type>1</type></trkpt>
      <trkpt lat="40.56435681" lon="-5.15979249"><ele>2863</ele><speed>20.63</speed><time>2016-06-30T12:48:25Z</time><pdop>7.0</pdop><geoidheight>54.00</geoidheight><course>38.2</course><type>1</type></trkpt>
      <trkpt lat="40.56449109" lon="-5.15964909"><ele>2861</ele><speed>20.34</speed><time>2016-06-30T12:48:26Z</time><pdop>7.0</pdop><geoidheight>54.00</geoidheight><course>38.5</course><type>1</type></trkpt>
      <trkpt lat="40.56463639" lon="-5.1594979"><ele>2861</ele><speed>20.35</speed><time>2016-06-30T12:48:27Z</time><pdop>6.0</pdop><geoidheight>54.00</geoidheight><course>38.4</course><type>1</type></trkpt>
      <trkpt lat="40.56480352" lon="-5.15935016"><ele>2860</ele><speed>20.84</speed><time>2016-06-30T12:48:28Z</time><pdop>7.0</pdop><geoidheight>54.00</geoidheight><course>37.3</course><type>1</type></trkpt>
      <trkpt lat="40.56494529" lon="-5.15920553"><ele>2861</ele><speed>20.78</speed><time>2016-06-30T12:48:29Z</time><pdop>7.0</pdop><geoidheight>54.00</geoidheight><course>37.6</course><type>1</type></trkpt>
      <trkpt lat="40.56509152" lon="-5.15905828"><ele>2860</ele><speed>20.77</speed><time>2016-06-30T12:48:30Z</time><pdop>8.0</pdop><geoidheight>54.00</geoidheight><course>37.5</course><type>1</type></trkpt>
      <trkpt lat="40.56524494" lon="-5.15890938"><ele>2859</ele><speed>20.92</speed><time>2016-06-30T12:48:31Z</time><pdop>9.0</pdop><geoidheight>54.00</geoidheight><course>37.2</course><type>1</type></trkpt>
      <trkpt lat="40.56546573" lon="-5.15859537"><ele>2855</ele><speed>19.60</speed><time>2016-06-30T12:48:33Z</time><pdop>11.0</pdop><geoidheight>54.00</geoidheight><course>41.1</course><type>1</type></trkpt>
      <trkpt lat="40.56577496" lon="-5.15828326"><ele>2856</ele><speed>19.89</speed><time>2016-06-30T12:48:35Z</time><pdop>11.0</pdop><geoidheight>54.00</geoidheight><course>39.4</course><type>1</type></trkpt>
      <trkpt lat="40.56608163" lon="-5.15796998"><ele>2854</ele><speed>20.27</speed><time>2016-06-30T12:48:37Z</time><pdop>12.0</pdop><geoidheight>54.00</geoidheight><course>38.9</course><type>1</type></trkpt>
      <trkpt lat="40.56633608" lon="-5.15764709"><ele>2849</ele><speed>19.66</speed><time>2016-06-30T12:48:39Z</time><pdop>13.0</pdop><geoidheight>54.00</geoidheight><course>41.2</course><type>1</type></trkpt>
      <trkpt lat="40.56665481" lon="-5.15738166"><ele>2843</ele><speed>19.90</speed><time>2016-06-30T12:48:41Z</time><pdop>13.0</pdop><geoidheight>54.00</geoidheight><course>38.2</course><type>1</type></trkpt>
      <trkpt lat="40.56685986" lon="-5.15706495"><ele>2837</ele><speed>19.05</speed><time>2016-06-30T12:48:43Z</time><pdop>18.0</pdop><geoidheight>54.00</geoidheight><course>42.5</course><type>1</type></trkpt>
      <trkpt lat="40.56726188" lon="-5.15677567"><ele>2834</ele><speed>21.62</speed><time>2016-06-30T12:48:45Z</time><pdop>19.0</pdop><geoidheight>54.00</geoidheight><course>36.0</course><type>1</type></trkpt>
      <trkpt lat="40.56760813" lon="-5.1564662"><ele>2833</ele><speed>22.05</speed><time>2016-06-30T12:48:47Z</time><pdop>19.0</pdop><geoidheight>54.00</geoidheight><course>36.0</course><type>1</type></trkpt>
      <trkpt lat="40.56788831" lon="-5.15615494"><ele>2832</ele><speed>21.29</speed><time>2016-06-30T12:48:49Z</time><pdop>18.0</pdop><geoidheight>54.00</geoidheight><course>38.1</course><type>1</type></trkpt>
      <trkpt lat="40.56817219" lon="-5.15584375"><ele>2828</ele><speed>20.50</speed><time>2016-06-30T12:48:51Z</time><pdop>18.0</pdop><geoidheight>54.00</geoidheight><course>40.3</course><type>1</type></trkpt>
      <trkpt lat="40.56850791" lon="-5.155386"><ele>2822</ele><speed>18.83</speed><time>2016-06-30T12:48:54Z</time><pdop>18.0</pdop><geoidheight>54.00</geoidheight><course>43.7</course><type>1</type></trkpt>
      <trkpt lat="40.56874427" lon="-5.15504863"><ele>2821</ele><speed>19.06</speed><time>2016-06-30T12:48:56Z</time><pdop>17.0</pdop><geoidheight>54.00</geoidheight><course>45.3</course><type>1</type></trkpt>
      <trkpt lat="40.56901437" lon="-5.15473634"><ele>2819</ele><speed>19.19</speed><time>2016-06-30T12:48:58Z</time><pdop>13.0</pdop><geoidheight>54.00</geoidheight><course>44.6</course><type>1</type></trkpt>
      <trkpt lat="40.56928947" lon="-5.1544043"><ele>2812</ele><speed>18.69</speed><time>2016-06-30T12:49:00Z</time><pdop>11.0</pdop><geoidheight>54.00</geoidheight><course>45.2</course><type>1</type></trkpt>
      <trkpt lat="40.56958934" lon="-5.15413277"><ele>2808</ele><speed>18.69</speed><time>2016-06-30T12:49:02Z</time><pdop>13.0</pdop><geoidheight>54.00</geoidheight><course>41.1</course><type>1</type></trkpt>
      <trkpt lat="40.56987437" lon="-5.15380831"><ele>2807</ele><speed>19.50</speed><time>2016-06-30T12:49:04Z</time><pdop>15.0</pdop><geoidheight>54.00</geoidheight><course>42.5</course><type>1</type></trkpt>
      <trkpt lat="40.5701077" lon="-5.15349581"><ele>2798</ele><speed>18.51</speed><time>2016-06-30T12:49:06Z</time><pdop>14.0</pdop><geoidheight>54.00</geoidheight><course>45.2</course><type>1</type></trkpt>
      <trkpt lat="40.57027773" lon="-5.15316688"><ele>2791</ele><speed>18.01</speed><time>2016-06-30T12:49:08Z</time><pdop>12.0</pdop><geoidheight>54.00</geoidheight><course>48.4</course><type>1</type></trkpt>
      <trkpt lat="40.57052472" lon="-5.15284877"><ele>2785</ele><speed>18.50</speed><time>2016-06-30T12:49:10Z</time><pdop>11.0</pdop><geoidheight>54.00</geoidheight><course>45.2</course><type>1</type></trkpt>
      <trkpt lat="40.57075774" lon="-5.15252997"><ele>2782</ele><speed>18.47</speed><time>2016-06-30T12:49:12Z</time><pdop>10.0</pdop><geoidheight>54.00</geoidheight><course>44.8</course><type>1</type></trkpt>
      <trkpt lat="40.57090845" lon="-5.15237021"><ele>2781</ele><speed>18.86</speed><time>2016-06-30T12:49:13Z</time><pdop>11.0</pdop><geoidheight>54.00</geoidheight><course>43.7</course><type>1</type></trkpt>
      <trkpt lat="40.5711952" lon="-5.15205801"><ele>2776</ele><speed>19.21</speed><time>2016-06-30T12:49:15Z</time><pdop>12.0</pdop><geoidheight>54.00</geoidheight><course>42.6</course><type>1</type></trkpt>
      <trkpt lat="40.57147744" lon="-5.15173775"><ele>2773</ele><speed>19.66</speed><time>2016-06-30T12:49:17Z</time><pdop>16.0</pdop><geoidheight>54.00</geoidheight><course>42.5</course><type>1</type></trkpt>
      <trkpt lat="40.57174723" lon="-5.15145831"><ele>2771</ele><speed>19.30</speed><time>2016-06-30T12:49:19Z</time><pdop>18.0</pdop><geoidheight>54.00</geoidheight><course>39.3</course><type>1</type></trkpt>
      <trkpt lat="40.57207162" lon="-5.15116373"><ele>2768</ele><speed>20.08</speed><time>2016-06-30T12:49:21Z</time><pdop>18.0</pdop><geoidheight>54.00</geoidheight><course>38.8</course><type>1</type></trkpt>
      <trkpt lat="40.57229357" lon="-5.15083712"><ele>2764</ele><speed>19.26</speed><time>2016-06-30T12:49:23Z</time><pdop>18.0</pdop><geoidheight>54.00</geoidheight><course>42.7</course><type>1</type></trkpt>
      <trkpt lat="40.5725924" lon="-5.15054849"><ele>2760</ele><speed>18.86</speed><time>2016-06-30T12:49:25Z</time><pdop>15.0</pdop><geoidheight>54.00</geoidheight><course>40.6</course><type>1</type></trkpt>
      <trkpt lat="40.57288158" lon="-5.15027731"><ele>2753</ele><speed>18.45</speed><time>2016-06-30T12:49:27Z</time><pdop>14.0</pdop><geoidheight>54.00</geoidheight><course>40.1</course><type>1</type></trkpt>
      <trkpt lat="40.57312028" lon="-5.15000576"><ele>2744</ele><speed>18.71</speed><time>2016-06-30T12:49:29Z</time><pdop>12.0</pdop><geoidheight>54.00</geoidheight><course>41.1</course><type>1</type></trkpt>
      <trkpt lat="40.57344231" lon="-5.14972912"><ele>2737</ele><speed>19.53</speed><time>2016-06-30T12:49:31Z</time><pdop>11.0</pdop><geoidheight>54.00</geoidheight><course>38.8</course><type>1</type></trkpt>
      <trkpt lat="40.57361694" lon="-5.14959322"><ele>2734</ele><speed>19.34</speed><time>2016-06-30T12:49:32Z</time><pdop>11.0</pdop><geoidheight>54.00</geoidheight><course>37.6</course><type>1</type></trkpt>
      <trkpt lat="40.57382679" lon="-5.14930904"><ele>2725</ele><speed>17.73</speed><time>2016-06-30T12:49:34Z</time><pdop>12.0</pdop><geoidheight>54.00</geoidheight><course>41.4</course><type>1</type></trkpt>
      <trkpt lat="40.57408297" lon="-5.14902343"><ele>2723</ele><speed>18.21</speed><time>2016-06-30T12:49:36Z</time><pdop>14.0</pdop><geoidheight>54.00</geoidheight><course>41.8</course><type>1</type></trkpt>
      <trkpt lat="40.57436942" lon="-5.14872422"><ele>2719</ele><speed>19.42</speed><time>2016-06-30T12:49:38Z</time><pdop>14.0</pdop><geoidheight>54.00</geoidheight><course>40.8</course><type>1</type></trkpt>
      <trkpt lat="40.57463021" lon="-5.14839493"><ele>2714</ele><speed>19.53</speed><time>2016-06-30T12:49:40Z</time><pdop>12.0</pdop><geoidheight>54.00</geoidheight><course>43.9</course><type>1</type></trkpt>
      <trkpt lat="40.57486816" lon="-5.14807062"><ele>2709</ele><speed>18.84</speed><time>2016-06-30T12:49:42Z</time><pdop>11.0</pdop><geoidheight>54.00</geoidheight><course>45.2</course><type>1</type></trkpt>
      <trkpt lat="40.575091" lon="-5.14775509"><ele>2705</ele><speed>18.07</speed><time>2016-06-30T12:49:44Z</time><pdop>9.0</pdop><geoidheight>54.00</geoidheight><course>47.2</course><type>1</type></trkpt>
      <trkpt lat="40.57521231" lon="-5.14758671"><ele>2702</ele><speed>18.55</speed><time>2016-06-30T12:49:45Z</time><pdop>9.0</pdop><geoidheight>54.00</geoidheight><course>47.6</course><type>1</type></trkpt>
      <trkpt lat="40.57532003" lon="-5.14740818"><ele>2700</ele><speed>19.23</speed><time>2016-06-30T12:49:46Z</time><pdop>9.0</pdop><geoidheight>54.00</geoidheight><course>49.8</course><type>1</type></trkpt>
      <trkpt lat="40.57546299" lon="-5.14723301"><ele>2698</ele><speed>19.62</speed><time>2016-06-30T12:49:47Z</time><pdop>10.0</pdop><geoidheight>54.00</geoidheight><course>48.4</course><type>1</type></trkpt>
      <trkpt lat="40.57572515" lon="-5.14686894"><ele>2694</ele><speed>19.69</speed><time>2016-06-30T12:49:49Z</time><pdop>10.0</pdop><geoidheight>54.00</geoidheight><course>47.2</course><type>1</type></trkpt>
      <trkpt lat="40.57598099" lon="-5.14653419"><ele>2687</ele><speed>18.96</speed><time>2016-06-30T12:49:51Z</time><pdop>11.0</pdop><geoidheight>54.00</geoidheight><course>45.7</course><type>1</type></trkpt>
      <trkpt lat="40.57623282" lon="-5.14620083"><ele>2682</ele><speed>19.07</speed><time>2016-06-30T12:49:53Z</time><pdop>12.0</pdop><geoidheight>54.00</geoidheight><course>46.4</course><type>1</type></trkpt>
      <trkpt lat="40.5764874" lon="-5.1458467"><ele>2677</ele><speed>19.92</speed><time>2016-06-30T12:49:55Z</time><pdop>13.0</pdop><geoidheight>54.00</geoidheight><course>48.4</course><type>1</type></trkpt>
      <trkpt lat="40.57681354" lon="-5.14550127"><ele>2675</ele><speed>20.31</speed><time>2016-06-30T12:49:57Z</time><pdop>12.0</pdop><geoidheight>54.00</geoidheight><course>45.2</course><type>1</type></trkpt>
      <trkpt lat="40.5770867" lon="-5.14514855"><ele>2670</ele><speed>20.23</speed><time>2016-06-30T12:49:59Z</time><pdop>10.0</pdop><geoidheight>54.00</geoidheight><course>47.8</course><type>1</type></trkpt>
      <trkpt lat="40.57722457" lon="-5.14496149"><ele>2664</ele><speed>19.99</speed><time>2016-06-30T12:50:00Z</time><pdop>8.0</pdop><geoidheight>54.00</geoidheight><course>49.0</course><type>1</type></trkpt>
      <trkpt lat="40.57734792" lon="-5.14478622"><ele>2662</ele><speed>19.75</speed><time>2016-06-30T12:50:01Z</time><pdop>9.0</pdop><geoidheight>54.00</geoidheight><course>48.5</course><type>1</type></trkpt>
      <trkpt lat="40.57745313" lon="-5.14461122"><ele>2662</ele><speed>19.54</speed><time>2016-06-30T12:50:02Z</time><pdop>8.0</pdop><geoidheight>54.00</geoidheight><course>48.5</course><type>1</type></trkpt>
      <trkpt lat="40.57758251" lon="-5.14442267"><ele>2660</ele><speed>19.70</speed><time>2016-06-30T12:50:03Z</time><pdop>7.0</pdop><geoidheight>54.00</geoidheight><course>49.2</course><type>1</type></trkpt>
      <trkpt lat="40.57772521" lon="-5.14424091"><ele>2659</ele><speed>20.16</speed><time>2016-06-30T12:50:04Z</time><pdop>8.0</pdop><geoidheight>54.00</geoidheight><course>48.0</course><type>1</type></trkpt>
      <trkpt lat="40.5779246" lon="-5.14389223"><ele>2659</ele><speed>19.16</speed><time>2016-06-30T12:50:06Z</time><pdop>15.0</pdop><geoidheight>54.00</geoidheight><course>50.3</course><type>1</type></trkpt>
      <trkpt lat="40.57821112" lon="-5.14350456"><ele>2657</ele><speed>20.42</speed><time>2016-06-30T12:50:08Z</time><pdop>16.0</pdop><geoidheight>54.00</geoidheight><course>49.1</course><type>1</type></trkpt>
      <trkpt lat="40.57847683" lon="-5.14316802"><ele>2654</ele><speed>19.82</speed><time>2016-06-30T12:50:10Z</time><pdop>12.0</pdop><geoidheight>54.00</geoidheight><course>46.4</course><type>1</type></trkpt>
      <trkpt lat="40.57878017" lon="-5.14288033"><ele>2653</ele><speed>19.03</speed><time>2016-06-30T12:50:12Z</time><pdop>12.0</pdop><geoidheight>54.00</geoidheight><course>41.1</course><type>1</type></trkpt>
      <trkpt lat="40.579001" lon="-5.14257647"><ele>2648</ele><speed>18.72</speed><time>2016-06-30T12:50:14Z</time><pdop>14.0</pdop><geoidheight>54.00</geoidheight><course>42.9</course><type>1</type></trkpt>
      <trkpt lat="40.57917427" lon="-5.14228655"><ele>2648</ele><speed>17.73</speed><time>2016-06-30T12:50:16Z</time><pdop>17.0</pdop><geoidheight>54.00</geoidheight><course>46.5</course><type>1</type></trkpt>
      <trkpt lat="40.57937341" lon="-5.14190052"><ele>2644</ele><speed>18.33</speed><time>2016-06-30T12:50:18Z</time><pdop>13.0</pdop><geoidheight>54.00</geoidheight><course>49.8</course><type>1</type></trkpt>
      <trkpt lat="40.57954808" lon="-5.14158028"><ele>2641</ele><speed>17.57</speed><time>2016-06-30T12:50:20Z</time><pdop>16.0</pdop><geoidheight>54.00</geoidheight><course>50.7</course><type>1</type></trkpt>
      <trkpt lat="40.57982537" lon="-5.14127283"><ele>2637</ele><speed>18.68</speed><time>2016-06-30T12:50:22Z</time><pdop>12.0</pdop><geoidheight>54.00</geoidheight><course>46.4</course><type>1</type></trkpt>
      <trkpt lat="40.58013288" lon="-5.14089677"><ele>2630</ele><speed>20.24</speed><time>2016-06-30T12:50:24Z</time><pdop>8.0</pdop><geoidheight>54.00</geoidheight><course>47.1</course><type>1</type></trkpt>
      <trkpt lat="40.58025289" lon="-5.14070625"><ele>2630</ele><speed>20.23</speed><time>2016-06-30T12:50:25Z</time><pdop>7.0</pdop><geoidheight>54.00</geoidheight><course>48.3</course><type>1</type></trkpt>
      <trkpt lat="40.58037974" lon="-5.14053687"><ele>2628</ele><speed>20.39</speed><time>2016-06-30T12:50:26Z</time><pdop>7.0</pdop><geoidheight>54.00</geoidheight><course>47.7</course><type>1</type></trkpt>
      <trkpt lat="40.58050587" lon="-5.14035707"><ele>2626</ele><speed>20.42</speed><time>2016-06-30T12:50:27Z</time><pdop>9.0</pdop><geoidheight>54.00</geoidheight><course>47.8</course><type>1</type></trkpt>
      <trkpt lat="40.58058491" lon="-5.14015771"><ele>2621</ele><speed>19.79</speed><time>2016-06-30T12:50:28Z</time><pdop>8.0</pdop><geoidheight>54.00</geoidheight><course>52.3</course><type>1</type></trkpt>
      <trkpt lat="40.58069156" lon="-5.13997369"><ele>2620</ele><speed>19.84</speed><time>2016-06-30T12:50:29Z</time><pdop>7.0</pdop><geoidheight>54.00</geoidheight><course>53.8</course><type>1</type></trkpt>
      <trkpt lat="40.58080351" lon="-5.13977806"><ele>2617</ele><speed>19.89</speed><time>2016-06-30T12:50:30Z</time><pdop>7.0</pdop><geoidheight>54.00</geoidheight><course>53.9</course><type>1</type></trkpt>
      <trkpt lat="40.580902" lon="-5.13960138"><ele>2617</ele><speed>19.47</speed><time>2016-06-30T12:50:31Z</time><pdop>7.0</pdop><geoidheight>54.00</geoidheight><course>54.2</course><type>1</type></trkpt>
      <trkpt lat="40.58100238" lon="-5.13942749"><ele>2616</ele><speed>19.10</speed><time>2016-06-30T12:50:32Z</time><pdop>8.0</pdop><geoidheight>54.00</geoidheight><course>54.0</course><type>1</type></trkpt>
      <trkpt lat="40.5811052" lon="-5.13924395"><ele>2614</ele><speed>19.06</speed><time>2016-06-30T12:50:33Z</time><pdop>10.0</pdop><geoidheight>54.00</geoidheight><course>54.2</course><type>1</type></trkpt>
      <trkpt lat="40.58131683" lon="-5.13889052"><ele>2611</ele><speed>18.89</speed><time>2016-06-30T12:50:35Z</time><pdop>15.0</pdop><geoidheight>54.00</geoidheight><course>53.7</course><type>1</type></trkpt>
      <trkpt lat="40.58151678" lon="-5.13850468"><ele>2610</ele><speed>19.16</speed><time>2016-06-30T12:50:37Z</time><pdop>10.0</pdop><geoidheight>54.00</geoidheight><course>53.1</course><type>1</type></trkpt>
      <trkpt lat="40.58165199" lon="-5.13832298"><ele>2609</ele><speed>19.10</speed><time>2016-06-30T12:50:38Z</time><pdop>9.0</pdop><geoidheight>54.00</geoidheight><course>52.3</course><type>1</type></trkpt>
      <trkpt lat="40.58178538" lon="-5.13814749"><ele>2608</ele><speed>19.34</speed><time>2016-06-30T12:50:39Z</time><pdop>8.0</pdop><geoidheight>54.00</geoidheight><course>51.0</course><type>1</type></trkpt>
      <trkpt lat="40.58192989" lon="-5.13796805"><ele>2605</ele><speed>19.73</speed><time>2016-06-30T12:50:40Z</time><pdop>8.0</pdop><geoidheight>54.00</geoidheight><course>50.0</course><type>1</type></trkpt>
      <trkpt lat="40.58204432" lon="-5.13778264"><ele>2601</ele><speed>20.09</speed><time>2016-06-30T12:50:41Z</time><pdop>7.0</pdop><geoidheight>54.00</geoidheight><course>50.8</course><type>1</type></trkpt>
      <trkpt lat="40.58215277" lon="-5.13758867"><ele>2599</ele><speed>20.51</speed><time>2016-06-30T12:50:42Z</time><pdop>7.0</pdop><geoidheight>54.00</geoidheight><course>51.4</course><type>1</type></trkpt>
      <trkpt lat="40.58226807" lon="-5.13738871"><ele>2597</ele><speed>20.93</speed><time>2016-06-30T12:50:43Z</time><pdop>8.0</pdop><geoidheight>54.00</geoidheight><course>52.5</course><type>1</type></trkpt>
      <trkpt lat="40.58233555" lon="-5.13717854"><ele>2595</ele><speed>20.85</speed><time>2016-06-30T12:50:44Z</time><pdop>7.0</pdop><geoidheight>54.00</geoidheight><course>55.5</course><type>1</type></trkpt>
      <trkpt lat="40.58244508" lon="-5.13697012"><ele>2594</ele><speed>20.80</speed><time>2016-06-30T12:50:45Z</time><pdop>8.0</pdop><geoidheight>54.00</geoidheight><course>55.6</course><type>1</type></trkpt>
      <trkpt lat="40.58255613" lon="-5.13676797"><ele>2593</ele><speed>20.28</speed><time>2016-06-30T12:50:46Z</time><pdop>8.0</pdop><geoidheight>54.00</geoidheight><course>54.4</course><type>1</type></trkpt>
      <trkpt lat="40.58266539" lon="-5.13657659"><ele>2593</ele><speed>20.35</speed><time>2016-06-30T12:50:47Z</time><pdop>10.0</pdop><geoidheight>54.00</geoidheight><course>53.7</course><type>1</type></trkpt>
      <trkpt lat="40.58279683" lon="-5.13640179"><ele>2591</ele><speed>20.27</speed><time>2016-06-30T12:50:48Z</time><pdop>10.0</pdop><geoidheight>54.00</geoidheight><course>50.8</course><type>1</type></trkpt>
      <trkpt lat="40.58289806" lon="-5.13620368"><ele>2590</ele><speed>20.05</speed><time>2016-06-30T12:50:49Z</time><pdop>9.0</pdop><geoidheight>54.00</geoidheight><course>52.1</course><type>1</type></trkpt>
      <trkpt lat="40.58301649" lon="-5.1360472"><ele>2589</ele><speed>18.72</speed><time>2016-06-30T12:50:50Z</time><pdop>8.0</pdop><geoidheight>54.00</geoidheight><course>50.0</course><type>1</type></trkpt>
      <trkpt lat="40.5831575" lon="-5.13578457"><ele>2588</ele><speed>15.41</speed><time>2016-06-30T12:50:52Z</time><pdop>9.0</pdop><geoidheight>54.00</geoidheight><course>53.7</course><type>1</type></trkpt>
      <trkpt lat="40.58315994" lon="-5.13548509"><ele>2584</ele><speed>13.03</speed><time>2016-06-30T12:50:54Z</time><pdop>8.0</pdop><geoidheight>54.00</geoidheight><course>74.4</course><type>1</type></trkpt>
      <trkpt lat="40.58310708" lon="-5.13518097"><ele>2584</ele><speed>12.97</speed><time>2016-06-30T12:50:56Z</time><pdop>7.0</pdop><geoidheight>54.00</geoidheight><course>92.8</course><type>1</type></trkpt>
      <trkpt lat="40.58292166" lon="-5.13509635"><ele>2578</ele><speed>10.04</speed><time>2016-06-30T12:50:58Z</time><pdop>4.0</pdop><geoidheight>54.00</geoidheight><course>140.7</course><type>1</type></trkpt>
      <trkpt lat="40.58284435" lon="-5.13506956"><ele>2577</ele><speed>8.08</speed><time>2016-06-30T12:50:59Z</time><pdop>4.0</pdop><geoidheight>54.00</geoidheight><course>160.8</course><type>1</type></trkpt>
      <trkpt lat="40.5827655" lon="-5.135114"><ele>2573</ele><speed>5.37</speed><time>2016-06-30T12:51:01Z</time><pdop>3.0</pdop><geoidheight>54.00</geoidheight><course>216.4</course><type>1</type></trkpt>
      <trkpt lat="40.58276678" lon="-5.13526082"><ele>2570</ele><speed>6.80</speed><time>2016-06-30T12:51:03Z</time><pdop>4.0</pdop><geoidheight>54.00</geoidheight><course>269.5</course><type>1</type></trkpt>
      <trkpt lat="40.58279961" lon="-5.13537552"><ele>2569</ele><speed>8.75</speed><time>2016-06-30T12:51:04Z</time><pdop>5.0</pdop><geoidheight>54.00</geoidheight><course>282.1</course><type>1</type></trkpt>
      <trkpt lat="40.58293057" lon="-5.13548877"><ele>2568</ele><speed>8.01</speed><time>2016-06-30T12:51:06Z</time><pdop>7.0</pdop><geoidheight>54.00</geoidheight><course>311.3</course><type>1</type></trkpt>
      <trkpt lat="40.58311337" lon="-5.13537662"><ele>2566</ele><speed>7.05</speed><time>2016-06-30T12:51:08Z</time><pdop>8.0</pdop><geoidheight>54.00</geoidheight><course>4.9</course><type>1</type></trkpt>
      <trkpt lat="40.58330674" lon="-5.13510334"><ele>2565</ele><speed>12.51</speed><time>2016-06-30T12:51:10Z</time><pdop>9.0</pdop><geoidheight>54.00</geoidheight><course>44.6</course><type>1</type></trkpt>
      <trkpt lat="40.58346325" lon="-5.13480523"><ele>2565</ele><speed>14.52</speed><time>2016-06-30T12:51:12Z</time><pdop>7.0</pdop><geoidheight>54.00</geoidheight><course>57.2</course><type>1</type></trkpt>
      <trkpt lat="40.58355035" lon="-5.13446073"><ele>2563</ele><speed>15.07</speed><time>2016-06-30T12:51:14Z</time><pdop>7.0</pdop><geoidheight>54.00</geoidheight><course>66.7</course><type>1</type></trkpt>
      <trkpt lat="40.58361901" lon="-5.13428456"><ele>2561</ele><speed>14.97</speed><time>2016-06-30T12:51:15Z</time><pdop>6.0</pdop><geoidheight>54.00</geoidheight><course>65.0</course><type>1</type></trkpt>
      <trkpt lat="40.58367684" lon="-5.13412243"><ele>2561</ele><speed>15.40</speed><time>2016-06-30T12:51:16Z</time><pdop>6.0</pdop><geoidheight>54.00</geoidheight><course>61.7</course><type>1</type></trkpt>
      <trkpt lat="40.5837642" lon="-5.13396161"><ele>2560</ele><speed>15.93</speed><time>2016-06-30T12:51:17Z</time><pdop>6.0</pdop><geoidheight>54.00</geoidheight><course>58.8</course><type>1</type></trkpt>
      <trkpt lat="40.5838553" lon="-5.13380508"><ele>2558</ele><speed>16.20</speed><time>2016-06-30T12:51:18Z</time><pdop>6.0</pdop><geoidheight>54.00</geoidheight><course>57.3</course><type>1</type></trkpt>
      <trkpt lat="40.58394632" lon="-5.13364215"><ele>2558</ele><speed>16.06</speed><time>2016-06-30T12:51:19Z</time><pdop>6.0</pdop><geoidheight>54.00</geoidheight><course>57.2</course><type>1</type></trkpt>
      <trkpt lat="40.58403743" lon="-5.13347866"><ele>2557</ele><speed>16.03</speed><time>2016-06-30T12:51:20Z</time><pdop>7.0</pdop><geoidheight>54.00</geoidheight><course>57.6</course><type>1</type></trkpt>
      <trkpt lat="40.58410866" lon="-5.13331808"><ele>2558</ele><speed>15.78</speed><time>2016-06-30T12:51:21Z</time><pdop>6.0</pdop><geoidheight>54.00</geoidheight><course>60.6</course><type>1</type></trkpt>
      <trkpt lat="40.58419087" lon="-5.13314358"><ele>2558</ele><speed>15.96</speed><time>2016-06-30T12:51:22Z</time><pdop>6.0</pdop><geoidheight>54.00</geoidheight><course>61.9</course><type>1</type></trkpt>
      <trkpt lat="40.58421448" lon="-5.1329809"><ele>2559</ele><speed>16.05</speed><time>2016-06-30T12:51:23Z</time><pdop>5.0</pdop><geoidheight>54.00</geoidheight><course>66.5</course><type>1</type></trkpt>
      <trkpt lat="40.58427247" lon="-5.13280902"><ele>2560</ele><speed>16.12</speed><time>2016-06-30T12:51:24Z</time><pdop>6.0</pdop><geoidheight>54.00</geoidheight><course>66.5</course><type>1</type></trkpt>
      <trkpt lat="40.58433535" lon="-5.13264997"><ele>2559</ele><speed>16.24</speed><time>2016-06-30T12:51:25Z</time><pdop>6.0</pdop><geoidheight>54.00</geoidheight><course>64.7</course><type>1</type></trkpt>
      <trkpt lat="40.58440667" lon="-5.13247214"><ele>2558</ele><speed>15.85</speed><time>2016-06-30T12:51:26Z</time><pdop>6.0</pdop><geoidheight>54.00</geoidheight><course>64.1</course><type>1</type></trkpt>
      <trkpt lat="40.58447394" lon="-5.13231"><ele>2559</ele><speed>15.38</speed><time>2016-06-30T12:51:27Z</time><pdop>7.0</pdop><geoidheight>54.00</geoidheight><course>63.0</course><type>1</type></trkpt>
      <trkpt lat="40.5845374" lon="-5.13215227"><ele>2559</ele><speed>15.39</speed><time>2016-06-30T12:51:28Z</time><pdop>7.0</pdop><geoidheight>54.00</geoidheight><course>64.0</course><type>1</type></trkpt>
      <trkpt lat="40.58459774" lon="-5.13198306"><ele>2558</ele><speed>15.48</speed><time>2016-06-30T12:51:29Z</time><pdop>7.0</pdop><geoidheight>54.00</geoidheight><course>65.3</course><type>1</type></trkpt>
      <trkpt lat="40.58465608" lon="-5.13180982"><ele>2558</ele><speed>15.61</speed><time>2016-06-30T12:51:30Z</time><pdop>8.0</pdop><geoidheight>54.00</geoidheight><course>66.0</course><type>1</type></trkpt>
      <trkpt lat="40.58470705" lon="-5.13163415"><ele>2557</ele><speed>15.44</speed><time>2016-06-30T12:51:31Z</time><pdop>7.0</pdop><geoidheight>54.00</geoidheight><course>65.5</course><type>1</type></trkpt>
      <trkpt lat="40.58477438" lon="-5.13147144"><ele>2556</ele><speed>15.29</speed><time>2016-06-30T12:51:32Z</time><pdop>7.0</pdop><geoidheight>54.00</geoidheight><course>63.9</course><type>1</type></trkpt>
      <trkpt lat="40.58484583" lon="-5.13132303"><ele>2556</ele><speed>15.12</speed><time>2016-06-30T12:51:33Z</time><pdop>7.0</pdop><geoidheight>54.00</geoidheight><course>63.2</course><type>1</type></trkpt>
      <trkpt lat="40.58490994" lon="-5.13116214"><ele>2556</ele><speed>15.12</speed><time>2016-06-30T12:51:34Z</time><pdop>7.0</pdop><geoidheight>54.00</geoidheight><course>62.3</course><type>1</type></trkpt>
      <trkpt lat="40.58498193" lon="-5.13100366"><ele>2555</ele><speed>15.02</speed><time>2016-06-30T12:51:35Z</time><pdop>7.0</pdop><geoidheight>54.00</geoidheight><course>62.0</course><type>1</type></trkpt>
      <trkpt lat="40.58509783" lon="-5.13070384"><ele>2556</ele><speed>14.75</speed><time>2016-06-30T12:51:37Z</time><pdop>7.0</pdop><geoidheight>54.00</geoidheight><course>61.2</course><type>1</type></trkpt>
      <trkpt lat="40.58517612" lon="-5.1305581"><ele>2555</ele><speed>14.77</speed><time>2016-06-30T12:51:38Z</time><pdop>6.0</pdop><geoidheight>54.00</geoidheight><course>60.6</course><type>1</type></trkpt>
      <trkpt lat="40.58525529" lon="-5.13040281"><ele>2556</ele><speed>14.88</speed><time>2016-06-30T12:51:39Z</time><pdop>6.0</pdop><geoidheight>54.00</geoidheight><course>60.8</course><type>1</type></trkpt>
      <trkpt lat="40.58532486" lon="-5.13023905"><ele>2556</ele><speed>14.86</speed><time>2016-06-30T12:51:40Z</time><pdop>6.0</pdop><geoidheight>54.00</geoidheight><course>62.3</course><type>1</type></trkpt>
      <trkpt lat="40.58535758" lon="-5.13008256"><ele>2556</ele><speed>14.76</speed><time>2016-06-30T12:51:41Z</time><pdop>6.0</pdop><geoidheight>54.00</geoidheight><course>66.6</course><type>1</type></trkpt>
      <trkpt lat="40.5854097" lon="-5.12992175"><ele>2556</ele><speed>14.92</speed><time>2016-06-30T12:51:42Z</time><pdop>7.0</pdop><geoidheight>54.00</geoidheight><course>69.5</course><type>1</type></trkpt>
      <trkpt lat="40.58546432" lon="-5.12976351"><ele>2556</ele><speed>14.88</speed><time>2016-06-30T12:51:43Z</time><pdop>7.0</pdop><geoidheight>54.00</geoidheight><course>69.7</course><type>1</type></trkpt>
      <trkpt lat="40.58550726" lon="-5.12959183"><ele>2556</ele><speed>14.63</speed><time>2016-06-30T12:51:44Z</time><pdop>7.0</pdop><geoidheight>54.00</geoidheight><course>72.8</course><type>1</type></trkpt>
      <trkpt lat="40.58554226" lon="-5.12942381"><ele>2556</ele><speed>14.73</speed><time>2016-06-30T12:51:45Z</time><pdop>7.0</pdop><geoidheight>54.00</geoidheight><course>74.7</course><type>1</type></trkpt>
      <trkpt lat="40.5855912" lon="-5.12924705"><ele>2556</ele><speed>15.17</speed><time>2016-06-30T12:51:46Z</time><pdop>8.0</pdop><geoidheight>54.00</geoidheight><course>74.3</course><type>1</type></trkpt>
      <trkpt lat="40.58563913" lon="-5.1290716"><ele>2555</ele><speed>15.66</speed><time>2016-06-30T12:51:47Z</time><pdop>7.0</pdop><geoidheight>54.00</geoidheight><course>72.0</course><type>1</type></trkpt>
      <trkpt lat="40.5856744" lon="-5.12889906"><ele>2557</ele><speed>15.37</speed><time>2016-06-30T12:51:48Z</time><pdop>7.0</pdop><geoidheight>54.00</geoidheight><course>72.6</course><type>1</type></trkpt>
      <trkpt lat="40.58570257" lon="-5.12871985"><ele>2557</ele><speed>15.53</speed><time>2016-06-30T12:51:49Z</time><pdop>8.0</pdop><geoidheight>54.00</geoidheight><course>73.8</course><type>1</type></trkpt>
      <trkpt lat="40.58577925" lon="-5.12836104"><ele>2559</ele><speed>15.32</speed><time>2016-06-30T12:51:51Z</time><pdop>11.0</pdop><geoidheight>54.00</geoidheight><course>75.1</course><type>1</type></trkpt>
      <trkpt lat="40.58587683" lon="-5.12800867"><ele>2561</ele><speed>14.94</speed><time>2016-06-30T12:51:53Z</time><pdop>10.0</pdop><geoidheight>54.00</geoidheight><course>71.5</course><type>1</type></trkpt>
      <trkpt lat="40.58596701" lon="-5.12771504"><ele>2560</ele><speed>13.76</speed><time>2016-06-30T12:51:55Z</time><pdop>12.0</pdop><geoidheight>54.00</geoidheight><course>68.8</course><type>1</type></trkpt>
      <trkpt lat="40.58620871" lon="-5.127473"><ele>2561</ele><speed>11.98</speed><time>2016-06-30T12:51:58Z</time><pdop>12.0</pdop><geoidheight>54.00</geoidheight><course>47.1</course><type>1</type></trkpt>
      <trkpt lat="40.58633825" lon="-5.12719854"><ele>2559</ele><speed>13.78</speed><time>2016-06-30T12:52:00Z</time><pdop>13.0</pdop><geoidheight>54.00</geoidheight><course>55.5</course><type>1</type></trkpt>
      <trkpt lat="40.58649975" lon="-5.12688281"><ele>2558</ele><speed>15.14</speed><time>2016-06-30T12:52:02Z</time><pdop>15.0</pdop><geoidheight>54.00</geoidheight><course>56.4</course><type>1</type></trkpt>
      <trkpt lat="40.58671963" lon="-5.12673389"><ele>2555</ele><speed>17.21</speed><time>2016-06-30T12:52:03Z</time><pdop>12.0</pdop><geoidheight>54.00</geoidheight><course>42.3</course><type>1</type></trkpt>
      <trkpt lat="40.58694816" lon="-5.12643287"><ele>2551</ele><speed>16.96</speed><time>2016-06-30T12:52:05Z</time><pdop>11.0</pdop><geoidheight>54.00</geoidheight><course>43.8</course><type>1</type></trkpt>
      <trkpt lat="40.587183" lon="-5.12615838"><ele>2548</ele><speed>17.57</speed><time>2016-06-30T12:52:07Z</time><pdop>12.0</pdop><geoidheight>54.00</geoidheight><course>44.7</course><type>1</type></trkpt>
      <trkpt lat="40.58745415" lon="-5.12588171"><ele>2548</ele><speed>18.01</speed><time>2016-06-30T12:52:09Z</time><pdop>14.0</pdop><geoidheight>54.00</geoidheight><course>41.7</course><type>1</type></trkpt>
      <trkpt lat="40.58770364" lon="-5.12554412"><ele>2545</ele><speed>18.31</speed><time>2016-06-30T12:52:11Z</time><pdop>14.0</pdop><geoidheight>54.00</geoidheight><course>43.9</course><type>1</type></trkpt>
      <trkpt lat="40.58798078" lon="-5.12525578"><ele>2539</ele><speed>17.37</speed><time>2016-06-30T12:52:13Z</time><pdop>12.0</pdop><geoidheight>54.00</geoidheight><course>42.1</course><type>1</type></trkpt>
      <trkpt lat="40.58821295" lon="-5.12502838"><ele>2539</ele><speed>17.00</speed><time>2016-06-30T12:52:15Z</time><pdop>13.0</pdop><geoidheight>54.00</geoidheight><course>39.7</course><type>1</type></trkpt>
      <trkpt lat="40.58840736" lon="-5.12479854"><ele>2539</ele><speed>15.93</speed><time>2016-06-30T12:52:17Z</time><pdop>14.0</pdop><geoidheight>54.00</geoidheight><course>39.4</course><type>1</type></trkpt>
      <trkpt lat="40.58864276" lon="-5.12465931"><ele>2534</ele><speed>14.97</speed><time>2016-06-30T12:52:19Z</time><pdop>11.0</pdop><geoidheight>54.00</geoidheight><course>30.9</course><type>1</type></trkpt>
      <trkpt lat="40.58884712" lon="-5.12442879"><ele>2530</ele><speed>15.34</speed><time>2016-06-30T12:52:21Z</time><pdop>11.0</pdop><geoidheight>54.00</geoidheight><course>33.8</course><type>1</type></trkpt>
      <trkpt lat="40.58911012" lon="-5.12423743"><ele>2525</ele><speed>15.58</speed><time>2016-06-30T12:52:23Z</time><pdop>10.0</pdop><geoidheight>54.00</geoidheight><course>29.8</course><type>1</type></trkpt>
      <trkpt lat="40.58931867" lon="-5.12406389"><ele>2524</ele><speed>14.72</speed><time>2016-06-30T12:52:25Z</time><pdop>12.0</pdop><geoidheight>54.00</geoidheight><course>30.8</course><type>1</type></trkpt>
      <trkpt lat="40.58955749" lon="-5.12384369"><ele>2521</ele><speed>15.55</speed><time>2016-06-30T12:52:27Z</time><pdop>12.0</pdop><geoidheight>54.00</geoidheight><course>32.9</course><type>1</type></trkpt>
      <trkpt lat="40.58981069" lon="-5.12365392"><ele>2518</ele><speed>15.64</speed><time>2016-06-30T12:52:29Z</time><pdop>12.0</pdop><geoidheight>54.00</geoidheight><course>33.4</course><type>1</type></trkpt>
      <trkpt lat="40.59005992" lon="-5.12351344"><ele>2515</ele><speed>15.22</speed><time>2016-06-30T12:52:31Z</time><pdop>14.0</pdop><geoidheight>54.00</geoidheight><course>26.2</course><type>1</type></trkpt>
      <trkpt lat="40.59031005" lon="-5.12332134"><ele>2512</ele><speed>15.31</speed><time>2016-06-30T12:52:33Z</time><pdop>13.0</pdop><geoidheight>54.00</geoidheight><course>30.3</course><type>1</type></trkpt>
      <trkpt lat="40.59053587" lon="-5.12311738"><ele>2509</ele><speed>15.21</speed><time>2016-06-30T12:52:35Z</time><pdop>14.0</pdop><geoidheight>54.00</geoidheight><course>31.1</course><type>1</type></trkpt>
      <trkpt lat="40.59080412" lon="-5.12293995"><ele>2504</ele><speed>16.08</speed><time>2016-06-30T12:52:37Z</time><pdop>13.0</pdop><geoidheight>54.00</geoidheight><course>28.6</course><type>1</type></trkpt>
      <trkpt lat="40.59113213" lon="-5.12272208"><ele>2502</ele><speed>18.04</speed><time>2016-06-30T12:52:39Z</time><pdop>13.0</pdop><geoidheight>54.00</geoidheight><course>28.8</course><type>1</type></trkpt>
      <trkpt lat="40.59141465" lon="-5.12247411"><ele>2499</ele><speed>17.88</speed><time>2016-06-30T12:52:41Z</time><pdop>12.0</pdop><geoidheight>54.00</geoidheight><course>32.2</course><type>1</type></trkpt>
      <trkpt lat="40.59169227" lon="-5.12222518"><ele>2497</ele><speed>16.79</speed><time>2016-06-30T12:52:43Z</time><pdop>11.0</pdop><geoidheight>54.00</geoidheight><course>33.2</course><type>1</type></trkpt>
      <trkpt lat="40.59195992" lon="-5.12201314"><ele>2496</ele><speed>16.38</speed><time>2016-06-30T12:52:45Z</time><pdop>11.0</pdop><geoidheight>54.00</geoidheight><course>31.5</course><type>1</type></trkpt>
      <trkpt lat="40.59218891" lon="-5.12173017"><ele>2491</ele><speed>17.16</speed><time>2016-06-30T12:52:47Z</time><pdop>11.0</pdop><geoidheight>54.00</geoidheight><course>38.1</course><type>1</type></trkpt>
      <trkpt lat="40.59238264" lon="-5.12144429"><ele>2484</ele><speed>16.79</speed><time>2016-06-30T12:52:49Z</time><pdop>13.0</pdop><geoidheight>54.00</geoidheight><course>44.1</course><type>1</type></trkpt>
      <trkpt lat="40.59264482" lon="-5.12119271"><ele>2483</ele><speed>17.43</speed><time>2016-06-30T12:52:51Z</time><pdop>13.0</pdop><geoidheight>54.00</geoidheight><course>38.9</course><type>1</type></trkpt>
      <trkpt lat="40.59287041" lon="-5.12100425"><ele>2480</ele><speed>16.46</speed><time>2016-06-30T12:52:53Z</time><pdop>14.0</pdop><geoidheight>54.00</geoidheight><course>36.4</course><type>1</type></trkpt>
      <trkpt lat="40.59310288" lon="-5.12087279"><ele>2479</ele><speed>15.77</speed><time>2016-06-30T12:52:55Z</time><pdop>14.0</pdop><geoidheight>54.00</geoidheight><course>31.4</course><type>1</type></trkpt>
      <trkpt lat="40.59342192" lon="-5.12070399"><ele>2479</ele><speed>17.27</speed><time>2016-06-30T12:52:57Z</time><pdop>14.0</pdop><geoidheight>54.00</geoidheight><course>25.1</course><type>1</type></trkpt>
      <trkpt lat="40.59369896" lon="-5.12052913"><ele>2478</ele><speed>16.63</speed><time>2016-06-30T12:52:59Z</time><pdop>12.0</pdop><geoidheight>54.00</geoidheight><course>26.5</course><type>1</type></trkpt>
      <trkpt lat="40.59392911" lon="-5.12037351"><ele>2477</ele><speed>15.59</speed><time>2016-06-30T12:53:01Z</time><pdop>12.0</pdop><geoidheight>54.00</geoidheight><course>25.7</course><type>1</type></trkpt>
      <trkpt lat="40.59419777" lon="-5.12024016"><ele>2475</ele><speed>15.82</speed><time>2016-06-30T12:53:03Z</time><pdop>12.0</pdop><geoidheight>54.00</geoidheight><course>24.9</course><type>1</type></trkpt>
      <trkpt lat="40.59441399" lon="-5.12013004"><ele>2473</ele><speed>14.48</speed><time>2016-06-30T12:53:05Z</time><pdop>13.0</pdop><geoidheight>54.00</geoidheight><course>22.3</course><type>1</type></trkpt>
      <trkpt lat="40.59474631" lon="-5.11992853"><ele>2470</ele><speed>17.85</speed><time>2016-06-30T12:53:07Z</time><pdop>12.0</pdop><geoidheight>54.00</geoidheight><course>24.7</course><type>1</type></trkpt>
      <trkpt lat="40.59507935" lon="-5.11975577"><ele>2468</ele><speed>18.68</speed><time>2016-06-30T12:53:09Z</time><pdop>12.0</pdop><geoidheight>54.00</geoidheight><course>22.1</course><type>1</type></trkpt>
      <trkpt lat="40.59537158" lon="-5.1195356"><ele>2465</ele><speed>18.79</speed><time>2016-06-30T12:53:11Z</time><pdop>13.0</pdop><geoidheight>54.00</geoidheight><course>26.7</course><type>1</type></trkpt>
      <trkpt lat="40.59567212" lon="-5.11927431"><ele>2463</ele><speed>19.17</speed><time>2016-06-30T12:53:13Z</time><pdop>12.0</pdop><geoidheight>54.00</geoidheight><course>26.7</course><type>1</type></trkpt>
      <trkpt lat="40.59595662" lon="-5.11914448"><ele>2462</ele><speed>18.45</speed><time>2016-06-30T12:53:15Z</time><pdop>13.0</pdop><geoidheight>54.00</geoidheight><course>21.4</course><type>1</type></trkpt>
      <trkpt lat="40.59622599" lon="-5.11902135"><ele>2460</ele><speed>17.57</speed><time>2016-06-30T12:53:17Z</time><pdop>13.0</pdop><geoidheight>54.00</geoidheight><course>19.1</course><type>1</type></trkpt>
      <trkpt lat="40.59652276" lon="-5.11886381"><ele>2456</ele><speed>17.45</speed><time>2016-06-30T12:53:19Z</time><pdop>13.0</pdop><geoidheight>54.00</geoidheight><course>21.2</course><type>1</type></trkpt>
      <trkpt lat="40.59682201" lon="-5.11868416"><ele>2454</ele><speed>17.56</speed><time>2016-06-30T12:53:21Z</time><pdop>12.0</pdop><geoidheight>54.00</geoidheight><course>23.7</course><type>1</type></trkpt>
      <trkpt lat="40.59711318" lon="-5.11851971"><ele>2451</ele><speed>17.54</speed><time>2016-06-30T12:53:23Z</time><pdop>11.0</pdop><geoidheight>54.00</geoidheight><course>24.4</course><type>1</type></trkpt>
      <trkpt lat="40.59746922" lon="-5.11826761"><ele>2449</ele><speed>19.75</speed><time>2016-06-30T12:53:25Z</time><pdop>12.0</pdop><geoidheight>54.00</geoidheight><course>27.1</course><type>1</type></trkpt>
      <trkpt lat="40.59771102" lon="-5.11807111"><ele>2447</ele><speed>17.91</speed><time>2016-06-30T12:53:27Z</time><pdop>11.0</pdop><geoidheight>54.00</geoidheight><course>28.3</course><type>1</type></trkpt>
      <trkpt lat="40.59797198" lon="-5.11785491"><ele>2447</ele><speed>17.00</speed><time>2016-06-30T12:53:29Z</time><pdop>10.0</pdop><geoidheight>54.00</geoidheight><course>29.9</course><type>1</type></trkpt>
      <trkpt lat="40.5980864" lon="-5.11775575"><ele>2445</ele><speed>17.09</speed><time>2016-06-30T12:53:30Z</time><pdop>5.0</pdop><geoidheight>54.00</geoidheight><course>31.2</course><type>1</type></trkpt>
      <trkpt lat="40.59820872" lon="-5.11764297"><ele>2442</ele><speed>17.33</speed><time>2016-06-30T12:53:31Z</time><pdop>5.0</pdop><geoidheight>54.00</geoidheight><course>33.1</course><type>1</type></trkpt>
      <trkpt lat="40.59834754" lon="-5.11753429"><ele>2440</ele><speed>17.48</speed><time>2016-06-30T12:53:32Z</time><pdop>6.0</pdop><geoidheight>54.00</geoidheight><course>32.0</course><type>1</type></trkpt>
      <trkpt lat="40.59845772" lon="-5.11740936"><ele>2439</ele><speed>17.16</speed><time>2016-06-30T12:53:33Z</time><pdop>8.0</pdop><geoidheight>54.00</geoidheight><course>33.0</course><type>1</type></trkpt>
      <trkpt lat="40.59877571" lon="-5.11719177"><ele>2437</ele><speed>18.36</speed><time>2016-06-30T12:53:35Z</time><pdop>10.0</pdop><geoidheight>54.00</geoidheight><course>29.8</course><type>1</type></trkpt>
      <trkpt lat="40.59896319" lon="-5.11708135"><ele>2437</ele><speed>19.09</speed><time>2016-06-30T12:53:36Z</time><pdop>10.0</pdop><geoidheight>54.00</geoidheight><course>27.9</course><type>1</type></trkpt>
      <trkpt lat="40.59920059" lon="-5.11689149"><ele>2432</ele><speed>17.41</speed><time>2016-06-30T12:53:38Z</time><pdop>7.0</pdop><geoidheight>54.00</geoidheight><course>28.7</course><type>1</type></trkpt>
      <trkpt lat="40.59934674" lon="-5.11676703"><ele>2430</ele><speed>17.69</speed><time>2016-06-30T12:53:39Z</time><pdop>6.0</pdop><geoidheight>54.00</geoidheight><course>30.8</course><type>1</type></trkpt>
      <trkpt lat="40.59947631" lon="-5.11664149"><ele>2428</ele><speed>17.42</speed><time>2016-06-30T12:53:40Z</time><pdop>6.0</pdop><geoidheight>54.00</geoidheight><course>33.9</course><type>1</type></trkpt>
      <trkpt lat="40.59960847" lon="-5.11653995"><ele>2426</ele><speed>17.41</speed><time>2016-06-30T12:53:41Z</time><pdop>6.0</pdop><geoidheight>54.00</geoidheight><course>33.2</course><type>1</type></trkpt>
      <trkpt lat="40.59972053" lon="-5.11642572"><ele>2423</ele><speed>16.40</speed><time>2016-06-30T12:53:42Z</time><pdop>6.0</pdop><geoidheight>54.00</geoidheight><course>35.0</course><type>1</type></trkpt>
      <trkpt lat="40.59980603" lon="-5.1163218"><ele>2424</ele><speed>15.37</speed><time>2016-06-30T12:53:43Z</time><pdop>5.0</pdop><geoidheight>54.00</geoidheight><course>38.2</course><type>1</type></trkpt>
      <trkpt lat="40.59990045" lon="-5.11620021"><ele>2423</ele><speed>15.76</speed><time>2016-06-30T12:53:44Z</time><pdop>5.0</pdop><geoidheight>54.00</geoidheight><course>40.1</course><type>1</type></trkpt>
      <trkpt lat="40.60001634" lon="-5.11606453"><ele>2421</ele><speed>16.59</speed><time>2016-06-30T12:53:45Z</time><pdop>5.0</pdop><geoidheight>54.00</geoidheight><course>41.1</course><type>1</type></trkpt>
      <trkpt lat="40.60012369" lon="-5.11593246"><ele>2420</ele><speed>16.71</speed><time>2016-06-30T12:53:46Z</time><pdop>5.0</pdop><geoidheight>54.00</geoidheight><course>42.2</course><type>1</type></trkpt>
      <trkpt lat="40.6002244" lon="-5.11579097"><ele>2420</ele><speed>15.97</speed><time>2016-06-30T12:53:47Z</time><pdop>6.0</pdop><geoidheight>54.00</geoidheight><course>43.7</course><type>1</type></trkpt>
      <trkpt lat="40.6003234" lon="-5.11566521"><ele>2419</ele><speed>15.34</speed><time>2016-06-30T12:53:48Z</time><pdop>7.0</pdop><geoidheight>54.00</geoidheight><course>43.2</course><type>1</type></trkpt>
      <trkpt lat="40.600436" lon="-5.11554836"><ele>2419</ele><speed>15.38</speed><time>2016-06-30T12:53:49Z</time><pdop>8.0</pdop><geoidheight>54.00</geoidheight><course>41.8</course><type>1</type></trkpt>
      <trkpt lat="40.60055617" lon="-5.11532553"><ele>2416</ele><speed>12.86</speed><time>2016-06-30T12:53:51Z</time><pdop>9.0</pdop><geoidheight>54.00</geoidheight><course>44.3</course><type>1</type></trkpt>
      <trkpt lat="40.60086201" lon="-5.11513943"><ele>2413</ele><speed>15.61</speed><time>2016-06-30T12:53:53Z</time><pdop>10.0</pdop><geoidheight>54.00</geoidheight><course>29.4</course><type>1</type></trkpt>
      <trkpt lat="40.60110947" lon="-5.11500099"><ele>2409</ele><speed>15.58</speed><time>2016-06-30T12:53:55Z</time><pdop>9.0</pdop><geoidheight>54.00</geoidheight><course>23.4</course><type>1</type></trkpt>
      <trkpt lat="40.60128476" lon="-5.11487957"><ele>2408</ele><speed>17.05</speed><time>2016-06-30T12:53:56Z</time><pdop>10.0</pdop><geoidheight>54.00</geoidheight><course>24.2</course><type>1</type></trkpt>
      <trkpt lat="40.60157355" lon="-5.11474539"><ele>2407</ele><speed>16.68</speed><time>2016-06-30T12:53:58Z</time><pdop>11.0</pdop><geoidheight>54.00</geoidheight><course>20.6</course><type>1</type></trkpt>
      <trkpt lat="40.60180797" lon="-5.11458456"><ele>2404</ele><speed>15.40</speed><time>2016-06-30T12:54:00Z</time><pdop>14.0</pdop><geoidheight>54.00</geoidheight><course>23.4</course><type>1</type></trkpt>
      <trkpt lat="40.60211065" lon="-5.11450546"><ele>2400</ele><speed>16.27</speed><time>2016-06-30T12:54:02Z</time><pdop>15.0</pdop><geoidheight>54.00</geoidheight><course>16.2</course><type>1</type></trkpt>
      <trkpt lat="40.60243606" lon="-5.11427425"><ele>2392</ele><speed>18.09</speed><time>2016-06-30T12:54:04Z</time><pdop>17.0</pdop><geoidheight>54.00</geoidheight><course>20.8</course><type>1</type></trkpt>
      <trkpt lat="40.60281109" lon="-5.11405648"><ele>2387</ele><speed>20.01</speed><time>2016-06-30T12:54:06Z</time><pdop>20.0</pdop><geoidheight>54.00</geoidheight><course>19.1</course><type>1</type></trkpt>
      <trkpt lat="40.60324021" lon="-5.11392891"><ele>2377</ele><speed>18.56</speed><time>2016-06-30T12:54:09Z</time><pdop>15.0</pdop><geoidheight>54.00</geoidheight><course>14.1</course><type>1</type></trkpt>
      <trkpt lat="40.60359444" lon="-5.11373007"><ele>2368</ele><speed>19.26</speed><time>2016-06-30T12:54:11Z</time><pdop>10.0</pdop><geoidheight>54.00</geoidheight><course>19.4</course><type>1</type></trkpt>
      <trkpt lat="40.60389981" lon="-5.11355745"><ele>2359</ele><speed>18.63</speed><time>2016-06-30T12:54:13Z</time><pdop>9.0</pdop><geoidheight>54.00</geoidheight><course>23.4</course><type>1</type></trkpt>
      <trkpt lat="40.60417535" lon="-5.11335046"><ele>2352</ele><speed>18.28</speed><time>2016-06-30T12:54:15Z</time><pdop>7.0</pdop><geoidheight>54.00</geoidheight><course>27.6</course><type>1</type></trkpt>
      <trkpt lat="40.60431954" lon="-5.11324867"><ele>2349</ele><speed>18.27</speed><time>2016-06-30T12:54:16Z</time><pdop>7.0</pdop><geoidheight>54.00</geoidheight><course>26.5</course><type>1</type></trkpt>
      <trkpt lat="40.6044596" lon="-5.11314978"><ele>2346</ele><speed>18.40</speed><time>2016-06-30T12:54:17Z</time><pdop>7.0</pdop><geoidheight>54.00</geoidheight><course>26.1</course><type>1</type></trkpt>
      <trkpt lat="40.60460506" lon="-5.11303645"><ele>2343</ele><speed>18.50</speed><time>2016-06-30T12:54:18Z</time><pdop>7.0</pdop><geoidheight>54.00</geoidheight><course>27.6</course><type>1</type></trkpt>
      <trkpt lat="40.60474788" lon="-5.11292521"><ele>2342</ele><speed>18.33</speed><time>2016-06-30T12:54:19Z</time><pdop>7.0</pdop><geoidheight>54.00</geoidheight><course>29.8</course><type>1</type></trkpt>
      <trkpt lat="40.6048867" lon="-5.11280816"><ele>2341</ele><speed>18.25</speed><time>2016-06-30T12:54:20Z</time><pdop>7.0</pdop><geoidheight>54.00</geoidheight><course>30.9</course><type>1</type></trkpt>
      <trkpt lat="40.60512822" lon="-5.11261654"><ele>2340</ele><speed>16.56</speed><time>2016-06-30T12:54:22Z</time><pdop>10.0</pdop><geoidheight>54.00</geoidheight><course>31.9</course><type>1</type></trkpt>
      <trkpt lat="40.60532206" lon="-5.11249794"><ele>2340</ele><speed>13.66</speed><time>2016-06-30T12:54:24Z</time><pdop>11.0</pdop><geoidheight>54.00</geoidheight><course>28.0</course><type>1</type></trkpt>
      <trkpt lat="40.60545227" lon="-5.11228322"><ele>2333</ele><speed>11.37</speed><time>2016-06-30T12:54:26Z</time><pdop>9.0</pdop><geoidheight>54.00</geoidheight><course>38.8</course><type>1</type></trkpt>
      <trkpt lat="40.6055894" lon="-5.11215695"><ele>2335</ele><speed>10.12</speed><time>2016-06-30T12:54:28Z</time><pdop>9.0</pdop><geoidheight>54.00</geoidheight><course>39.0</course><type>1</type></trkpt>
      <trkpt lat="40.60568221" lon="-5.11194707"><ele>2335</ele><speed>10.44</speed><time>2016-06-30T12:54:30Z</time><pdop>11.0</pdop><geoidheight>54.00</geoidheight><course>49.4</course><type>1</type></trkpt>
      <trkpt lat="40.6059054" lon="-5.11179227"><ele>2333</ele><speed>11.52</speed><time>2016-06-30T12:54:32Z</time><pdop>14.0</pdop><geoidheight>54.00</geoidheight><course>36.6</course><type>1</type></trkpt>
      <trkpt lat="40.60615133" lon="-5.11160604"><ele>2329</ele><speed>10.42</speed><time>2016-06-30T12:54:35Z</time><pdop>12.0</pdop><geoidheight>54.00</geoidheight><course>31.3</course><type>1</type></trkpt>
      <trkpt lat="40.60639333" lon="-5.11151946"><ele>2324</ele><speed>9.84</speed><time>2016-06-30T12:54:38Z</time><pdop>14.0</pdop><geoidheight>54.00</geoidheight><course>14.0</course><type>1</type></trkpt>
      <trkpt lat="40.60666164" lon="-5.11143684"><ele>2318</ele><speed>12.63</speed><time>2016-06-30T12:54:40Z</time><pdop>14.0</pdop><geoidheight>54.00</geoidheight><course>13.3</course><type>1</type></trkpt>
      <trkpt lat="40.6068746" lon="-5.11116978"><ele>2308</ele><speed>10.99</speed><time>2016-06-30T12:54:43Z</time><pdop>14.0</pdop><geoidheight>54.00</geoidheight><course>29.6</course><type>1</type></trkpt>
      <trkpt lat="40.60711624" lon="-5.11103677"><ele>2303</ele><speed>12.30</speed><time>2016-06-30T12:54:45Z</time><pdop>14.0</pdop><geoidheight>54.00</geoidheight><course>24.1</course><type>1</type></trkpt>
      <trkpt lat="40.60734498" lon="-5.11077257"><ele>2289</ele><speed>13.16</speed><time>2016-06-30T12:54:48Z</time><pdop>14.0</pdop><geoidheight>54.00</geoidheight><course>33.6</course><type>1</type></trkpt>
      <trkpt lat="40.60750204" lon="-5.11039023"><ele>2281</ele><speed>12.41</speed><time>2016-06-30T12:54:51Z</time><pdop>13.0</pdop><geoidheight>54.00</geoidheight><course>54.6</course><type>1</type></trkpt>
      <trkpt lat="40.60758086" lon="-5.11003223"><ele>2272</ele><speed>10.86</speed><time>2016-06-30T12:54:54Z</time><pdop>15.0</pdop><geoidheight>54.00</geoidheight><course>64.0</course><type>1</type></trkpt>
      <trkpt lat="40.60786107" lon="-5.10967603"><ele>2268</ele><speed>12.67</speed><time>2016-06-30T12:54:57Z</time><pdop>16.0</pdop><geoidheight>54.00</geoidheight><course>52.3</course><type>1</type></trkpt>
      <trkpt lat="40.60808577" lon="-5.10934222"><ele>2263</ele><speed>10.01</speed><time>2016-06-30T12:55:00Z</time><pdop>13.0</pdop><geoidheight>54.00</geoidheight><course>53.0</course><type>1</type></trkpt>
      <trkpt lat="40.60831818" lon="-5.10903742"><ele>2260</ele><speed>11.08</speed><time>2016-06-30T12:55:03Z</time><pdop>11.0</pdop><geoidheight>54.00</geoidheight><course>50.8</course><type>1</type></trkpt>
      <trkpt lat="40.60849067" lon="-5.10881314"><ele>2258</ele><speed>12.38</speed><time>2016-06-30T12:55:05Z</time><pdop>10.0</pdop><geoidheight>54.00</geoidheight><course>47.5</course><type>1</type></trkpt>
      <trkpt lat="40.60861429" lon="-5.10862332"><ele>2256</ele><speed>11.57</speed><time>2016-06-30T12:55:07Z</time><pdop>10.0</pdop><geoidheight>54.00</geoidheight><course>47.8</course><type>1</type></trkpt>
      <trkpt lat="40.60868252" lon="-5.10828584"><ele>2254</ele><speed>10.46</speed><time>2016-06-30T12:55:10Z</time><pdop>11.0</pdop><geoidheight>54.00</geoidheight><course>69.3</course><type>1</type></trkpt>
      <trkpt lat="40.60874012" lon="-5.10803212"><ele>2252</ele><speed>10.23</speed><time>2016-06-30T12:55:12Z</time><pdop>10.0</pdop><geoidheight>54.00</geoidheight><course>70.9</course><type>1</type></trkpt>
      <trkpt lat="40.60885102" lon="-5.10777282"><ele>2252</ele><speed>9.59</speed><time>2016-06-30T12:55:15Z</time><pdop>10.0</pdop><geoidheight>54.00</geoidheight><course>52.7</course><type>1</type></trkpt>
      <trkpt lat="40.60896691" lon="-5.10759093"><ele>2250</ele><speed>10.13</speed><time>2016-06-30T12:55:17Z</time><pdop>10.0</pdop><geoidheight>54.00</geoidheight><course>52.9</course><type>1</type></trkpt>
      <trkpt lat="40.60903145" lon="-5.10734504"><ele>2249</ele><speed>10.83</speed><time>2016-06-30T12:55:19Z</time><pdop>11.0</pdop><geoidheight>54.00</geoidheight><course>66.6</course><type>1</type></trkpt>
      <trkpt lat="40.60912321" lon="-5.10710558"><ele>2250</ele><speed>11.44</speed><time>2016-06-30T12:55:21Z</time><pdop>10.0</pdop><geoidheight>54.00</geoidheight><course>65.0</course><type>1</type></trkpt>
      <trkpt lat="40.6092404" lon="-5.10688662"><ele>2250</ele><speed>10.96</speed><time>2016-06-30T12:55:23Z</time><pdop>11.0</pdop><geoidheight>54.00</geoidheight><course>56.6</course><type>1</type></trkpt>
      <trkpt lat="40.60940168" lon="-5.10672042"><ele>2249</ele><speed>10.08</speed><time>2016-06-30T12:55:25Z</time><pdop>10.0</pdop><geoidheight>54.00</geoidheight><course>42.6</course><type>1</type></trkpt>
      <trkpt lat="40.60962967" lon="-5.10662356"><ele>2248</ele><speed>9.37</speed><time>2016-06-30T12:55:28Z</time><pdop>10.0</pdop><geoidheight>54.00</geoidheight><course>23.2</course><type>1</type></trkpt>
      <trkpt lat="40.60978058" lon="-5.10649781"><ele>2246</ele><speed>10.37</speed><time>2016-06-30T12:55:30Z</time><pdop>9.0</pdop><geoidheight>54.00</geoidheight><course>27.8</course><type>1</type></trkpt>
      <trkpt lat="40.6099388" lon="-5.10637997"><ele>2244</ele><speed>9.78</speed><time>2016-06-30T12:55:32Z</time><pdop>9.0</pdop><geoidheight>54.00</geoidheight><course>34.7</course><type>1</type></trkpt>
      <trkpt lat="40.61009039" lon="-5.10625706"><ele>2241</ele><speed>9.80</speed><time>2016-06-30T12:55:34Z</time><pdop>9.0</pdop><geoidheight>54.00</geoidheight><course>34.6</course><type>1</type></trkpt>
      <trkpt lat="40.61026832" lon="-5.10610807"><ele>2240</ele><speed>10.63</speed><time>2016-06-30T12:55:36Z</time><pdop>10.0</pdop><geoidheight>54.00</geoidheight><course>32.2</course><type>1</type></trkpt>
      <trkpt lat="40.61044435" lon="-5.10592863"><ele>2241</ele><speed>11.04</speed><time>2016-06-30T12:55:38Z</time><pdop>11.0</pdop><geoidheight>54.00</geoidheight><course>35.9</course><type>1</type></trkpt>
      <trkpt lat="40.61064616" lon="-5.10576063"><ele>2239</ele><speed>12.56</speed><time>2016-06-30T12:55:40Z</time><pdop>12.0</pdop><geoidheight>54.00</geoidheight><course>36.2</course><type>1</type></trkpt>
      <trkpt lat="40.61081356" lon="-5.1055185"><ele>2235</ele><speed>14.26</speed><time>2016-06-30T12:55:42Z</time><pdop>12.0</pdop><geoidheight>54.00</geoidheight><course>42.2</course><type>1</type></trkpt>
      <trkpt lat="40.61103133" lon="-5.10530306"><ele>2232</ele><speed>13.52</speed><time>2016-06-30T12:55:44Z</time><pdop>12.0</pdop><geoidheight>54.00</geoidheight><course>38.1</course><type>1</type></trkpt>
      <trkpt lat="40.61124598" lon="-5.10509142"><ele>2228</ele><speed>12.92</speed><time>2016-06-30T12:55:46Z</time><pdop>10.0</pdop><geoidheight>54.00</geoidheight><course>40.6</course><type>1</type></trkpt>
      <trkpt lat="40.61143751" lon="-5.10487922"><ele>2224</ele><speed>13.54</speed><time>2016-06-30T12:55:48Z</time><pdop>10.0</pdop><geoidheight>54.00</geoidheight><course>43.7</course><type>1</type></trkpt>
      <trkpt lat="40.61160902" lon="-5.1046493"><ele>2224</ele><speed>13.71</speed><time>2016-06-30T12:55:50Z</time><pdop>10.0</pdop><geoidheight>54.00</geoidheight><course>44.6</course><type>1</type></trkpt>
      <trkpt lat="40.61180692" lon="-5.10437319"><ele>2223</ele><speed>15.11</speed><time>2016-06-30T12:55:52Z</time><pdop>11.0</pdop><geoidheight>54.00</geoidheight><course>46.0</course><type>1</type></trkpt>
      <trkpt lat="40.61197198" lon="-5.1041105"><ele>2219</ele><speed>14.42</speed><time>2016-06-30T12:55:54Z</time><pdop>11.0</pdop><geoidheight>54.00</geoidheight><course>49.6</course><type>1</type></trkpt>
      <trkpt lat="40.61206466" lon="-5.10386929"><ele>2218</ele><speed>12.80</speed><time>2016-06-30T12:55:56Z</time><pdop>10.0</pdop><geoidheight>54.00</geoidheight><course>56.5</course><type>1</type></trkpt>
      <trkpt lat="40.61222711" lon="-5.10360837"><ele>2216</ele><speed>13.52</speed><time>2016-06-30T12:55:58Z</time><pdop>12.0</pdop><geoidheight>54.00</geoidheight><course>54.2</course><type>1</type></trkpt>
      <trkpt lat="40.6123994" lon="-5.10336052"><ele>2216</ele><speed>13.31</speed><time>2016-06-30T12:56:00Z</time><pdop>14.0</pdop><geoidheight>54.00</geoidheight><course>48.6</course><type>1</type></trkpt>
      <trkpt lat="40.61259281" lon="-5.10317184"><ele>2213</ele><speed>12.41</speed><time>2016-06-30T12:56:02Z</time><pdop>12.0</pdop><geoidheight>54.00</geoidheight><course>44.5</course><type>1</type></trkpt>
      <trkpt lat="40.61277905" lon="-5.10297743"><ele>2206</ele><speed>10.17</speed><time>2016-06-30T12:56:05Z</time><pdop>10.0</pdop><geoidheight>54.00</geoidheight><course>30.7</course><type>1</type></trkpt>
      <trkpt lat="40.61297468" lon="-5.10286053"><ele>2204</ele><speed>10.73</speed><time>2016-06-30T12:56:07Z</time><pdop>11.0</pdop><geoidheight>54.00</geoidheight><course>22.2</course><type>1</type></trkpt>
      <trkpt lat="40.61316801" lon="-5.10272679"><ele>2203</ele><speed>11.61</speed><time>2016-06-30T12:56:09Z</time><pdop>11.0</pdop><geoidheight>54.00</geoidheight><course>27.0</course><type>1</type></trkpt>
      <trkpt lat="40.6134056" lon="-5.10249235"><ele>2199</ele><speed>14.12</speed><time>2016-06-30T12:56:11Z</time><pdop>11.0</pdop><geoidheight>54.00</geoidheight><course>34.4</course><type>1</type></trkpt>
      <trkpt lat="40.61363268" lon="-5.10228745"><ele>2197</ele><speed>14.45</speed><time>2016-06-30T12:56:13Z</time><pdop>12.0</pdop><geoidheight>54.00</geoidheight><course>35.2</course><type>1</type></trkpt>
      <trkpt lat="40.6138823" lon="-5.102093"><ele>2196</ele><speed>15.08</speed><time>2016-06-30T12:56:15Z</time><pdop>11.0</pdop><geoidheight>54.00</geoidheight><course>34.9</course><type>1</type></trkpt>
      <trkpt lat="40.61402745" lon="-5.10188106"><ele>2197</ele><speed>13.55</speed><time>2016-06-30T12:56:17Z</time><pdop>12.0</pdop><geoidheight>54.00</geoidheight><course>40.0</course><type>1</type></trkpt>
      <trkpt lat="40.61421122" lon="-5.1016645"><ele>2196</ele><speed>13.62</speed><time>2016-06-30T12:56:19Z</time><pdop>12.0</pdop><geoidheight>54.00</geoidheight><course>40.7</course><type>1</type></trkpt>
      <trkpt lat="40.61442251" lon="-5.10143306"><ele>2196</ele><speed>11.68</speed><time>2016-06-30T12:56:22Z</time><pdop>12.0</pdop><geoidheight>54.00</geoidheight><course>38.4</course><type>1</type></trkpt>
      <trkpt lat="40.61459097" lon="-5.10126032"><ele>2193</ele><speed>11.72</speed><time>2016-06-30T12:56:24Z</time><pdop>11.0</pdop><geoidheight>54.00</geoidheight><course>36.9</course><type>1</type></trkpt>
      <trkpt lat="40.61474551" lon="-5.10109302"><ele>2190</ele><speed>11.25</speed><time>2016-06-30T12:56:26Z</time><pdop>11.0</pdop><geoidheight>54.00</geoidheight><course>42.1</course><type>1</type></trkpt>
      <trkpt lat="40.61489106" lon="-5.10090623"><ele>2188</ele><speed>12.37</speed><time>2016-06-30T12:56:28Z</time><pdop>10.0</pdop><geoidheight>54.00</geoidheight><course>36.9</course><type>1</type></trkpt>
      <trkpt lat="40.61506276" lon="-5.10070459"><ele>2183</ele><speed>12.86</speed><time>2016-06-30T12:56:30Z</time><pdop>10.0</pdop><geoidheight>54.00</geoidheight><course>37.6</course><type>1</type></trkpt>
      <trkpt lat="40.61520228" lon="-5.10050811"><ele>2178</ele><speed>11.82</speed><time>2016-06-30T12:56:32Z</time><pdop>11.0</pdop><geoidheight>54.00</geoidheight><course>40.3</course><type>1</type></trkpt>
      <trkpt lat="40.61542156" lon="-5.10029132"><ele>2174</ele><speed>9.88</speed><time>2016-06-30T12:56:35Z</time><pdop>11.0</pdop><geoidheight>54.00</geoidheight><course>37.5</course><type>1</type></trkpt>
      <trkpt lat="40.61556426" lon="-5.10006252"><ele>2173</ele><speed>9.52</speed><time>2016-06-30T12:56:38Z</time><pdop>11.0</pdop><geoidheight>54.00</geoidheight><course>46.3</course><type>1</type></trkpt>
      <trkpt lat="40.61574133" lon="-5.09975515"><ele>2172</ele><speed>10.03</speed><time>2016-06-30T12:56:41Z</time><pdop>12.0</pdop><geoidheight>54.00</geoidheight><course>54.1</course><type>1</type></trkpt>
      <trkpt lat="40.61589689" lon="-5.09954724"><ele>2165</ele><speed>9.30</speed><time>2016-06-30T12:56:44Z</time><pdop>11.0</pdop><geoidheight>54.00</geoidheight><course>53.4</course><type>1</type></trkpt>
      <trkpt lat="40.61607429" lon="-5.09927508"><ele>2162</ele><speed>10.35</speed><time>2016-06-30T12:56:47Z</time><pdop>13.0</pdop><geoidheight>54.00</geoidheight><course>52.0</course><type>1</type></trkpt>
      <trkpt lat="40.61625748" lon="-5.09905273"><ele>2158</ele><speed>11.91</speed><time>2016-06-30T12:56:49Z</time><pdop>14.0</pdop><geoidheight>54.00</geoidheight><course>48.9</course><type>1</type></trkpt>
      <trkpt lat="40.61647967" lon="-5.09881096"><ele>2156</ele><speed>13.00</speed><time>2016-06-30T12:56:51Z</time><pdop>13.0</pdop><geoidheight>54.00</geoidheight><course>43.9</course><type>1</type></trkpt>
      <trkpt lat="40.61666112" lon="-5.09856197"><ele>2146</ele><speed>13.13</speed><time>2016-06-30T12:56:53Z</time><pdop>13.0</pdop><geoidheight>54.00</geoidheight><course>46.3</course><type>1</type></trkpt>
      <trkpt lat="40.61681743" lon="-5.09815285"><ele>2138</ele><speed>14.26</speed><time>2016-06-30T12:56:56Z</time><pdop>13.0</pdop><geoidheight>54.00</geoidheight><course>58.8</course><type>1</type></trkpt>
      <trkpt lat="40.61683278" lon="-5.09774891"><ele>2130</ele><speed>11.50</speed><time>2016-06-30T12:56:59Z</time><pdop>14.0</pdop><geoidheight>54.00</geoidheight><course>73.2</course><type>1</type></trkpt>
      <trkpt lat="40.61690195" lon="-5.09742202"><ele>2126</ele><speed>13.32</speed><time>2016-06-30T12:57:01Z</time><pdop>14.0</pdop><geoidheight>54.00</geoidheight><course>75.7</course><type>1</type></trkpt>
      <trkpt lat="40.61699422" lon="-5.09706919"><ele>2123</ele><speed>11.13</speed><time>2016-06-30T12:57:04Z</time><pdop>13.0</pdop><geoidheight>54.00</geoidheight><course>78.3</course><type>1</type></trkpt>
      <trkpt lat="40.61710015" lon="-5.09675782"><ele>2120</ele><speed>13.34</speed><time>2016-06-30T12:57:06Z</time><pdop>12.0</pdop><geoidheight>54.00</geoidheight><course>69.6</course><type>1</type></trkpt>
      <trkpt lat="40.61724855" lon="-5.09635231"><ele>2117</ele><speed>13.16</speed><time>2016-06-30T12:57:09Z</time><pdop>15.0</pdop><geoidheight>54.00</geoidheight><course>66.5</course><type>1</type></trkpt>
      <trkpt lat="40.61742984" lon="-5.09595464"><ele>2115</ele><speed>12.59</speed><time>2016-06-30T12:57:12Z</time><pdop>19.0</pdop><geoidheight>54.00</geoidheight><course>62.9</course><type>1</type></trkpt>
      <trkpt lat="40.61756117" lon="-5.09554386"><ele>2111</ele><speed>13.32</speed><time>2016-06-30T12:57:15Z</time><pdop>14.0</pdop><geoidheight>54.00</geoidheight><course>66.1</course><type>1</type></trkpt>
      <trkpt lat="40.61770947" lon="-5.09508047"><ele>2104</ele><speed>13.71</speed><time>2016-06-30T12:57:18Z</time><pdop>16.0</pdop><geoidheight>54.00</geoidheight><course>68.2</course><type>1</type></trkpt>
      <trkpt lat="40.61787043" lon="-5.09477354"><ele>2100</ele><speed>12.83</speed><time>2016-06-30T12:57:20Z</time><pdop>12.0</pdop><geoidheight>54.00</geoidheight><course>61.9</course><type>1</type></trkpt>
      <trkpt lat="40.61804068" lon="-5.09441703"><ele>2097</ele><speed>11.53</speed><time>2016-06-30T12:57:23Z</time><pdop>11.0</pdop><geoidheight>54.00</geoidheight><course>55.1</course><type>1</type></trkpt>
      <trkpt lat="40.618199" lon="-5.09415382"><ele>2097</ele><speed>8.75</speed><time>2016-06-30T12:57:26Z</time><pdop>10.0</pdop><geoidheight>54.00</geoidheight><course>57.5</course><type>1</type></trkpt>
      <trkpt lat="40.61833232" lon="-5.09396168"><ele>2096</ele><speed>10.07</speed><time>2016-06-30T12:57:28Z</time><pdop>11.0</pdop><geoidheight>54.00</geoidheight><course>50.7</course><type>1</type></trkpt>
      <trkpt lat="40.61850983" lon="-5.09365393"><ele>2096</ele><speed>11.21</speed><time>2016-06-30T12:57:31Z</time><pdop>11.0</pdop><geoidheight>54.00</geoidheight><course>52.2</course><type>1</type></trkpt>
      <trkpt lat="40.61867743" lon="-5.09346741"><ele>2094</ele><speed>11.18</speed><time>2016-06-30T12:57:33Z</time><pdop>11.0</pdop><geoidheight>54.00</geoidheight><course>42.1</course><type>1</type></trkpt>
      <trkpt lat="40.61886545" lon="-5.09319315"><ele>2095</ele><speed>10.23</speed><time>2016-06-30T12:57:36Z</time><pdop>10.0</pdop><geoidheight>54.00</geoidheight><course>52.9</course><type>1</type></trkpt>
      <trkpt lat="40.61901941" lon="-5.09294191"><ele>2093</ele><speed>8.61</speed><time>2016-06-30T12:57:39Z</time><pdop>10.0</pdop><geoidheight>54.00</geoidheight><course>49.5</course><type>1</type></trkpt>
      <trkpt lat="40.6191953" lon="-5.09279645"><ele>2093</ele><speed>10.73</speed><time>2016-06-30T12:57:41Z</time><pdop>10.0</pdop><geoidheight>54.00</geoidheight><course>36.9</course><type>1</type></trkpt>
      <trkpt lat="40.61939136" lon="-5.09266092"><ele>2094</ele><speed>11.18</speed><time>2016-06-30T12:57:43Z</time><pdop>10.0</pdop><geoidheight>54.00</geoidheight><course>26.6</course><type>1</type></trkpt>
      <trkpt lat="40.61958479" lon="-5.09257949"><ele>2096</ele><speed>11.65</speed><time>2016-06-30T12:57:45Z</time><pdop>9.0</pdop><geoidheight>54.00</geoidheight><course>15.4</course><type>1</type></trkpt>
      <trkpt lat="40.619771" lon="-5.09253456"><ele>2101</ele><speed>10.71</speed><time>2016-06-30T12:57:47Z</time><pdop>10.0</pdop><geoidheight>54.00</geoidheight><course>11.1</course><type>1</type></trkpt>
      <trkpt lat="40.62002213" lon="-5.09244022"><ele>2105</ele><speed>10.31</speed><time>2016-06-30T12:57:50Z</time><pdop>11.0</pdop><geoidheight>54.00</geoidheight><course>18.7</course><type>1</type></trkpt>
      <trkpt lat="40.6202477" lon="-5.09230298"><ele>2109</ele><speed>9.15</speed><time>2016-06-30T12:57:53Z</time><pdop>10.0</pdop><geoidheight>54.00</geoidheight><course>26.0</course><type>1</type></trkpt>
      <trkpt lat="40.62049903" lon="-5.09214629"><ele>2112</ele><speed>10.86</speed><time>2016-06-30T12:57:56Z</time><pdop>10.0</pdop><geoidheight>54.00</geoidheight><course>36.2</course><type>1</type></trkpt>
      <trkpt lat="40.62064229" lon="-5.09192154"><ele>2116</ele><speed>12.73</speed><time>2016-06-30T12:57:58Z</time><pdop>9.0</pdop><geoidheight>54.00</geoidheight><course>62.8</course><type>1</type></trkpt>
      <trkpt lat="40.62064487" lon="-5.09163753"><ele>2121</ele><speed>12.40</speed><time>2016-06-30T12:58:00Z</time><pdop>4.0</pdop><geoidheight>54.00</geoidheight><course>96.1</course><type>1</type></trkpt>
      <trkpt lat="40.62061149" lon="-5.09150466"><ele>2123</ele><speed>12.11</speed><time>2016-06-30T12:58:01Z</time><pdop>4.0</pdop><geoidheight>54.00</geoidheight><course>100.6</course><type>1</type></trkpt>
      <trkpt lat="40.62056276" lon="-5.09138031"><ele>2123</ele><speed>11.80</speed><time>2016-06-30T12:58:02Z</time><pdop>6.0</pdop><geoidheight>54.00</geoidheight><course>109.3</course><type>1</type></trkpt>
      <trkpt lat="40.62040551" lon="-5.09131589"><ele>2123</ele><speed>8.23</speed><time>2016-06-30T12:58:04Z</time><pdop>7.0</pdop><geoidheight>54.00</geoidheight><course>139.1</course><type>1</type></trkpt>
      <trkpt lat="40.62025004" lon="-5.0914196"><ele>2130</ele><speed>6.00</speed><time>2016-06-30T12:58:07Z</time><pdop>6.0</pdop><geoidheight>54.00</geoidheight><course>216.5</course><type>1</type></trkpt>
      <trkpt lat="40.62021622" lon="-5.09157192"><ele>2133</ele><speed>6.37</speed><time>2016-06-30T12:58:09Z</time><pdop>5.0</pdop><geoidheight>54.00</geoidheight><course>251.1</course><type>1</type></trkpt>
      <trkpt lat="40.62026704" lon="-5.09172859"><ele>2137</ele><speed>6.90</speed><time>2016-06-30T12:58:11Z</time><pdop>4.0</pdop><geoidheight>54.00</geoidheight><course>285.3</course><type>1</type></trkpt>
      <trkpt lat="40.62033627" lon="-5.091872"><ele>2141</ele><speed>6.85</speed><time>2016-06-30T12:58:13Z</time><pdop>4.0</pdop><geoidheight>54.00</geoidheight><course>300.4</course><type>1</type></trkpt>
      <trkpt lat="40.62040789" lon="-5.09201138"><ele>2143</ele><speed>7.00</speed><time>2016-06-30T12:58:15Z</time><pdop>5.0</pdop><geoidheight>54.00</geoidheight><course>299.5</course><type>1</type></trkpt>
      <trkpt lat="40.62047225" lon="-5.09216921"><ele>2144</ele><speed>7.89</speed><time>2016-06-30T12:58:17Z</time><pdop>6.0</pdop><geoidheight>54.00</geoidheight><course>303.6</course><type>1</type></trkpt>
      <trkpt lat="40.62057088" lon="-5.09218152"><ele>2145</ele><speed>6.38</speed><time>2016-06-30T12:58:19Z</time><pdop>4.0</pdop><geoidheight>54.00</geoidheight><course>340.1</course><type>1</type></trkpt>
      <trkpt lat="40.62067771" lon="-5.09221418"><ele>2145</ele><speed>8.59</speed><time>2016-06-30T12:58:20Z</time><pdop>5.0</pdop><geoidheight>54.00</geoidheight><course>345.9</course><type>1</type></trkpt>
      <trkpt lat="40.62076944" lon="-5.09218323"><ele>2146</ele><speed>9.05</speed><time>2016-06-30T12:58:21Z</time><pdop>4.0</pdop><geoidheight>54.00</geoidheight><course>3.3</course><type>1</type></trkpt>
      <trkpt lat="40.62093492" lon="-5.09208507"><ele>2147</ele><speed>9.89</speed><time>2016-06-30T12:58:23Z</time><pdop>6.0</pdop><geoidheight>54.00</geoidheight><course>24.3</course><type>1</type></trkpt>
      <trkpt lat="40.62101941" lon="-5.09200444"><ele>2148</ele><speed>10.54</speed><time>2016-06-30T12:58:24Z</time><pdop>5.0</pdop><geoidheight>54.00</geoidheight><course>30.1</course><type>1</type></trkpt>
      <trkpt lat="40.621106" lon="-5.09191786"><ele>2149</ele><speed>10.99</speed><time>2016-06-30T12:58:25Z</time><pdop>5.0</pdop><geoidheight>54.00</geoidheight><course>30.6</course><type>1</type></trkpt>
      <trkpt lat="40.62118719" lon="-5.09185201"><ele>2150</ele><speed>10.87</speed><time>2016-06-30T12:58:26Z</time><pdop>5.0</pdop><geoidheight>54.00</geoidheight><course>32.6</course><type>1</type></trkpt>
      <trkpt lat="40.62123843" lon="-5.09166508"><ele>2150</ele><speed>10.83</speed><time>2016-06-30T12:58:28Z</time><pdop>4.0</pdop><geoidheight>54.00</geoidheight><course>66.1</course><type>1</type></trkpt>
      <trkpt lat="40.62125452" lon="-5.0915209"><ele>2150</ele><speed>12.02</speed><time>2016-06-30T12:58:29Z</time><pdop>3.0</pdop><geoidheight>54.00</geoidheight><course>85.5</course><type>1</type></trkpt>
      <trkpt lat="40.62125685" lon="-5.09136937"><ele>2149</ele><speed>12.78</speed><time>2016-06-30T12:58:30Z</time><pdop>4.0</pdop><geoidheight>54.00</geoidheight><course>89.4</course><type>1</type></trkpt>
      <trkpt lat="40.62123276" lon="-5.09122413"><ele>2148</ele><speed>13.36</speed><time>2016-06-30T12:58:31Z</time><pdop>5.0</pdop><geoidheight>54.00</geoidheight><course>97.4</course><type>1</type></trkpt>
      <trkpt lat="40.62115493" lon="-5.09108979"><ele>2149</ele><speed>13.44</speed><time>2016-06-30T12:58:32Z</time><pdop>6.0</pdop><geoidheight>54.00</geoidheight><course>110.1</course><type>1</type></trkpt>
      <trkpt lat="40.62109501" lon="-5.09092674"><ele>2149</ele><speed>14.09</speed><time>2016-06-30T12:58:33Z</time><pdop>6.0</pdop><geoidheight>54.00</geoidheight><course>113.6</course><type>1</type></trkpt>
      <trkpt lat="40.62097303" lon="-5.09084864"><ele>2150</ele><speed>13.72</speed><time>2016-06-30T12:58:34Z</time><pdop>6.0</pdop><geoidheight>54.00</geoidheight><course>127.2</course><type>1</type></trkpt>
      <trkpt lat="40.62086865" lon="-5.09072239"><ele>2151</ele><speed>13.61</speed><time>2016-06-30T12:58:35Z</time><pdop>7.0</pdop><geoidheight>54.00</geoidheight><course>133.0</course><type>1</type></trkpt>
      <trkpt lat="40.62076401" lon="-5.09076752"><ele>2149</ele><speed>10.31</speed><time>2016-06-30T12:58:36Z</time><pdop>4.0</pdop><geoidheight>54.00</geoidheight><course>154.2</course><type>1</type></trkpt>
      <trkpt lat="40.6206175" lon="-5.09073702"><ele>2150</ele><speed>8.78</speed><time>2016-06-30T12:58:38Z</time><pdop>5.0</pdop><geoidheight>54.00</geoidheight><course>174.3</course><type>1</type></trkpt>
      <trkpt lat="40.6204893" lon="-5.09083776"><ele>2150</ele><speed>8.37</speed><time>2016-06-30T12:58:40Z</time><pdop>4.0</pdop><geoidheight>54.00</geoidheight><course>207.6</course><type>1</type></trkpt>
      <trkpt lat="40.620392" lon="-5.090957"><ele>2149</ele><speed>7.52</speed><time>2016-06-30T12:58:42Z</time><pdop>3.0</pdop><geoidheight>54.00</geoidheight><course>224.0</course><type>1</type></trkpt>
      <trkpt lat="40.62034659" lon="-5.09102159"><ele>2150</ele><speed>7.49</speed><time>2016-06-30T12:58:43Z</time><pdop>4.0</pdop><geoidheight>54.00</geoidheight><course>231.8</course><type>1</type></trkpt>
      <trkpt lat="40.62030003" lon="-5.09116002"><ele>2152</ele><speed>6.78</speed><time>2016-06-30T12:58:45Z</time><pdop>4.0</pdop><geoidheight>54.00</geoidheight><course>252.4</course><type>1</type></trkpt>
      <trkpt lat="40.62028082" lon="-5.09129776"><ele>2156</ele><speed>5.83</speed><time>2016-06-30T12:58:47Z</time><pdop>4.0</pdop><geoidheight>54.00</geoidheight><course>264.5</course><type>1</type></trkpt>
      <trkpt lat="40.62028235" lon="-5.09142402"><ele>2160</ele><speed>5.35</speed><time>2016-06-30T12:58:49Z</time><pdop>4.0</pdop><geoidheight>54.00</geoidheight><course>269.6</course><type>1</type></trkpt>
      <trkpt lat="40.62027453" lon="-5.09157013"><ele>2159</ele><speed>6.50</speed><time>2016-06-30T12:58:51Z</time><pdop>4.0</pdop><geoidheight>54.00</geoidheight><course>263.3</course><type>1</type></trkpt>
      <trkpt lat="40.62024588" lon="-5.09173553"><ele>2160</ele><speed>7.28</speed><time>2016-06-30T12:58:53Z</time><pdop>4.0</pdop><geoidheight>54.00</geoidheight><course>258.2</course><type>1</type></trkpt>
      <trkpt lat="40.62023187" lon="-5.09183137"><ele>2161</ele><speed>7.51</speed><time>2016-06-30T12:58:54Z</time><pdop>4.0</pdop><geoidheight>54.00</geoidheight><course>256.1</course><type>1</type></trkpt>
      <trkpt lat="40.62020603" lon="-5.09199283"><ele>2164</ele><speed>6.63</speed><time>2016-06-30T12:58:56Z</time><pdop>4.0</pdop><geoidheight>54.00</geoidheight><course>259.7</course><type>1</type></trkpt>
      <trkpt lat="40.62017428" lon="-5.09214152"><ele>2166</ele><speed>6.95</speed><time>2016-06-30T12:58:58Z</time><pdop>4.0</pdop><geoidheight>54.00</geoidheight><course>253.3</course><type>1</type></trkpt>
      <trkpt lat="40.6201427" lon="-5.0922272"><ele>2166</ele><speed>7.69</speed><time>2016-06-30T12:58:59Z</time><pdop>4.0</pdop><geoidheight>54.00</geoidheight><course>245.7</course><type>1</type></trkpt>
      <trkpt lat="40.62007183" lon="-5.09237731"><ele>2167</ele><speed>7.67</speed><time>2016-06-30T12:59:01Z</time><pdop>5.0</pdop><geoidheight>54.00</geoidheight><course>239.9</course><type>1</type></trkpt>
      <trkpt lat="40.62003125" lon="-5.09253839"><ele>2169</ele><speed>7.41</speed><time>2016-06-30T12:59:03Z</time><pdop>4.0</pdop><geoidheight>54.00</geoidheight><course>252.0</course><type>1</type></trkpt>
      <trkpt lat="40.62001501" lon="-5.09269065"><ele>2174</ele><speed>6.88</speed><time>2016-06-30T12:59:05Z</time><pdop>4.0</pdop><geoidheight>54.00</geoidheight><course>263.3</course><type>1</type></trkpt>
      <trkpt lat="40.62001761" lon="-5.09282468"><ele>2177</ele><speed>5.48</speed><time>2016-06-30T12:59:07Z</time><pdop>4.0</pdop><geoidheight>54.00</geoidheight><course>274.0</course><type>1</type></trkpt>
      <trkpt lat="40.62008898" lon="-5.09291409"><ele>2179</ele><speed>5.66</speed><time>2016-06-30T12:59:09Z</time><pdop>4.0</pdop><geoidheight>54.00</geoidheight><course>323.1</course><type>1</type></trkpt>
      <trkpt lat="40.62020458" lon="-5.09290462"><ele>2184</ele><speed>7.56</speed><time>2016-06-30T12:59:11Z</time><pdop>4.0</pdop><geoidheight>54.00</geoidheight><course>8.6</course><type>1</type></trkpt>
      <trkpt lat="40.62025844" lon="-5.09284155"><ele>2185</ele><speed>8.12</speed><time>2016-06-30T12:59:12Z</time><pdop>4.0</pdop><geoidheight>54.00</geoidheight><course>32.1</course><type>1</type></trkpt>
      <trkpt lat="40.62030145" lon="-5.09273091"><ele>2185</ele><speed>9.79</speed><time>2016-06-30T12:59:13Z</time><pdop>5.0</pdop><geoidheight>54.00</geoidheight><course>53.3</course><type>1</type></trkpt>
      <trkpt lat="40.62028853" lon="-5.09258785"><ele>2188</ele><speed>11.92</speed><time>2016-06-30T12:59:14Z</time><pdop>4.0</pdop><geoidheight>54.00</geoidheight><course>79.8</course><type>1</type></trkpt>
      <trkpt lat="40.6202701" lon="-5.09243589"><ele>2190</ele><speed>12.69</speed><time>2016-06-30T12:59:15Z</time><pdop>3.0</pdop><geoidheight>54.00</geoidheight><course>96.7</course><type>1</type></trkpt>
      <trkpt lat="40.62024757" lon="-5.09229571"><ele>2190</ele><speed>12.33</speed><time>2016-06-30T12:59:16Z</time><pdop>3.0</pdop><geoidheight>54.00</geoidheight><course>102.0</course><type>1</type></trkpt>
      <trkpt lat="40.62021567" lon="-5.09216482"><ele>2190</ele><speed>11.46</speed><time>2016-06-30T12:59:17Z</time><pdop>5.0</pdop><geoidheight>54.00</geoidheight><course>106.4</course><type>1</type></trkpt>
      <trkpt lat="40.62012145" lon="-5.09205534"><ele>2190</ele><speed>11.95</speed><time>2016-06-30T12:59:18Z</time><pdop>6.0</pdop><geoidheight>54.00</geoidheight><course>125.4</course><type>1</type></trkpt>
      <trkpt lat="40.61990982" lon="-5.09198203"><ele>2191</ele><speed>11.41</speed><time>2016-06-30T12:59:20Z</time><pdop>5.0</pdop><geoidheight>54.00</geoidheight><course>153.4</course><type>1</type></trkpt>
      <trkpt lat="40.61975966" lon="-5.09201009"><ele>2193</ele><speed>8.49</speed><time>2016-06-30T12:59:22Z</time><pdop>4.0</pdop><geoidheight>54.00</geoidheight><course>192.4</course><type>1</type></trkpt>
      <trkpt lat="40.61968053" lon="-5.09206515"><ele>2197</ele><speed>8.70</speed><time>2016-06-30T12:59:23Z</time><pdop>4.0</pdop><geoidheight>54.00</geoidheight><course>206.8</course><type>1</type></trkpt>
      <trkpt lat="40.61961996" lon="-5.09211434"><ele>2199</ele><speed>7.30</speed><time>2016-06-30T12:59:24Z</time><pdop>3.0</pdop><geoidheight>54.00</geoidheight><course>216.6</course><type>1</type></trkpt>
      <trkpt lat="40.61959228" lon="-5.09218082"><ele>2200</ele><speed>6.16</speed><time>2016-06-30T12:59:25Z</time><pdop>3.0</pdop><geoidheight>54.00</geoidheight><course>239.9</course><type>1</type></trkpt>
      <trkpt lat="40.61959215" lon="-5.0922643"><ele>2203</ele><speed>6.49</speed><time>2016-06-30T12:59:26Z</time><pdop>3.0</pdop><geoidheight>54.00</geoidheight><course>270.9</course><type>1</type></trkpt>
      <trkpt lat="40.61962228" lon="-5.09234648"><ele>2204</ele><speed>7.04</speed><time>2016-06-30T12:59:27Z</time><pdop>3.0</pdop><geoidheight>54.00</geoidheight><course>300.7</course><type>1</type></trkpt>
      <trkpt lat="40.61967197" lon="-5.09238833"><ele>2206</ele><speed>7.35</speed><time>2016-06-30T12:59:28Z</time><pdop>3.0</pdop><geoidheight>54.00</geoidheight><course>327.0</course><type>1</type></trkpt>
      <trkpt lat="40.61973677" lon="-5.09239817"><ele>2208</ele><speed>7.71</speed><time>2016-06-30T12:59:29Z</time><pdop>3.0</pdop><geoidheight>54.00</geoidheight><course>353.3</course><type>1</type></trkpt>
      <trkpt lat="40.61980033" lon="-5.09237504"><ele>2209</ele><speed>7.59</speed><time>2016-06-30T12:59:30Z</time><pdop>3.0</pdop><geoidheight>54.00</geoidheight><course>12.9</course><type>1</type></trkpt>
      <trkpt lat="40.61987561" lon="-5.09230567"><ele>2210</ele><speed>9.53</speed><time>2016-06-30T12:59:31Z</time><pdop>3.0</pdop><geoidheight>54.00</geoidheight><course>32.0</course><type>1</type></trkpt>
      <trkpt lat="40.61994214" lon="-5.09222748"><ele>2212</ele><speed>10.56</speed><time>2016-06-30T12:59:32Z</time><pdop>3.0</pdop><geoidheight>54.00</geoidheight><course>41.3</course><type>1</type></trkpt>
      <trkpt lat="40.62000222" lon="-5.09212704"><ele>2213</ele><speed>10.98</speed><time>2016-06-30T12:59:33Z</time><pdop>3.0</pdop><geoidheight>54.00</geoidheight><course>50.5</course><type>1</type></trkpt>
      <trkpt lat="40.62005385" lon="-5.09201252"><ele>2217</ele><speed>12.08</speed><time>2016-06-30T12:59:34Z</time><pdop>3.0</pdop><geoidheight>54.00</geoidheight><course>59.7</course><type>1</type></trkpt>
      <trkpt lat="40.62008441" lon="-5.09187941"><ele>2219</ele><speed>12.29</speed><time>2016-06-30T12:59:35Z</time><pdop>3.0</pdop><geoidheight>54.00</geoidheight><course>73.8</course><type>1</type></trkpt>
      <trkpt lat="40.62008049" lon="-5.0917224"><ele>2220</ele><speed>12.54</speed><time>2016-06-30T12:59:36Z</time><pdop>3.0</pdop><geoidheight>54.00</geoidheight><course>88.7</course><type>1</type></trkpt>
      <trkpt lat="40.62004479" lon="-5.0915781"><ele>2220</ele><speed>12.86</speed><time>2016-06-30T12:59:37Z</time><pdop>3.0</pdop><geoidheight>54.00</geoidheight><course>105.5</course><type>1</type></trkpt>
      <trkpt lat="40.61997955" lon="-5.0914567"><ele>2219</ele><speed>13.08</speed><time>2016-06-30T12:59:38Z</time><pdop>3.0</pdop><geoidheight>54.00</geoidheight><course>124.5</course><type>1</type></trkpt>
      <trkpt lat="40.61988444" lon="-5.09135937"><ele>2219</ele><speed>12.92</speed><time>2016-06-30T12:59:39Z</time><pdop>3.0</pdop><geoidheight>54.00</geoidheight><course>141.2</course><type>1</type></trkpt>
      <trkpt lat="40.61979296" lon="-5.09131616"><ele>2220</ele><speed>11.90</speed><time>2016-06-30T12:59:40Z</time><pdop>3.0</pdop><geoidheight>54.00</geoidheight><course>158.5</course><type>1</type></trkpt>
      <trkpt lat="40.61969759" lon="-5.09131116"><ele>2222</ele><speed>10.68</speed><time>2016-06-30T12:59:41Z</time><pdop>3.0</pdop><geoidheight>54.00</geoidheight><course>176.6</course><type>1</type></trkpt>
      <trkpt lat="40.61962226" lon="-5.0913469"><ele>2223</ele><speed>9.51</speed><time>2016-06-30T12:59:42Z</time><pdop>3.0</pdop><geoidheight>54.00</geoidheight><course>194.7</course><type>1</type></trkpt>
      <trkpt lat="40.61955463" lon="-5.09139063"><ele>2225</ele><speed>8.71</speed><time>2016-06-30T12:59:43Z</time><pdop>3.0</pdop><geoidheight>54.00</geoidheight><course>208.0</course><type>1</type></trkpt>
      <trkpt lat="40.61950148" lon="-5.09144415"><ele>2226</ele><speed>7.81</speed><time>2016-06-30T12:59:44Z</time><pdop>3.0</pdop><geoidheight>54.00</geoidheight><course>216.8</course><type>1</type></trkpt>
      <trkpt lat="40.61945793" lon="-5.09151254"><ele>2227</ele><speed>7.55</speed><time>2016-06-30T12:59:45Z</time><pdop>3.0</pdop><geoidheight>54.00</geoidheight><course>226.3</course><type>1</type></trkpt>
      <trkpt lat="40.61942299" lon="-5.09158198"><ele>2227</ele><speed>7.31</speed><time>2016-06-30T12:59:46Z</time><pdop>3.0</pdop><geoidheight>54.00</geoidheight><course>234.6</course><type>1</type></trkpt>
      <trkpt lat="40.619383" lon="-5.09165946"><ele>2229</ele><speed>7.39</speed><time>2016-06-30T12:59:47Z</time><pdop>3.0</pdop><geoidheight>54.00</geoidheight><course>238.8</course><type>1</type></trkpt>
      <trkpt lat="40.619344" lon="-5.09179856"><ele>2231</ele><speed>6.10</speed><time>2016-06-30T12:59:49Z</time><pdop>3.0</pdop><geoidheight>54.00</geoidheight><course>255.9</course><type>1</type></trkpt>
      <trkpt lat="40.61937843" lon="-5.0919284"><ele>2233</ele><speed>6.16</speed><time>2016-06-30T12:59:51Z</time><pdop>3.0</pdop><geoidheight>54.00</geoidheight><course>296.1</course><type>1</type></trkpt>
      <trkpt lat="40.61942358" lon="-5.09198076"><ele>2234</ele><speed>6.57</speed><time>2016-06-30T12:59:52Z</time><pdop>3.0</pdop><geoidheight>54.00</geoidheight><course>317.1</course><type>1</type></trkpt>
      <trkpt lat="40.61948266" lon="-5.09202175"><ele>2236</ele><speed>7.54</speed><time>2016-06-30T12:59:53Z</time><pdop>3.0</pdop><geoidheight>54.00</geoidheight><course>332.9</course><type>1</type></trkpt>
      <trkpt lat="40.61955209" lon="-5.0920446"><ele>2238</ele><speed>8.22</speed><time>2016-06-30T12:59:54Z</time><pdop>3.0</pdop><geoidheight>54.00</geoidheight><course>342.8</course><type>1</type></trkpt>
      <trkpt lat="40.61962612" lon="-5.09206373"><ele>2239</ele><speed>8.32</speed><time>2016-06-30T12:59:55Z</time><pdop>3.0</pdop><geoidheight>54.00</geoidheight><course>351.4</course><type>1</type></trkpt>
      <trkpt lat="40.61970165" lon="-5.09206055"><ele>2241</ele><speed>8.76</speed><time>2016-06-30T12:59:56Z</time><pdop>3.0</pdop><geoidheight>54.00</geoidheight><course>0.7</course><type>1</type></trkpt>
      <trkpt lat="40.6197956" lon="-5.0920384"><ele>2242</ele><speed>10.15</speed><time>2016-06-30T12:59:57Z</time><pdop>3.0</pdop><geoidheight>54.00</geoidheight><course>9.4</course><type>1</type></trkpt>
      <trkpt lat="40.61989621" lon="-5.09198909"><ele>2243</ele><speed>11.44</speed><time>2016-06-30T12:59:58Z</time><pdop>3.0</pdop><geoidheight>54.00</geoidheight><course>18.4</course><type>1</type></trkpt>
      <trkpt lat="40.6199934" lon="-5.09192493"><ele>2245</ele><speed>11.70</speed><time>2016-06-30T12:59:59Z</time><pdop>3.0</pdop><geoidheight>54.00</geoidheight><course>26.2</course><type>1</type></trkpt>
      <trkpt lat="40.62007798" lon="-5.09183592"><ele>2248</ele><speed>12.43</speed><time>2016-06-30T13:00:00Z</time><pdop>3.0</pdop><geoidheight>54.00</geoidheight><course>35.7</course><type>1</type></trkpt>
      <trkpt lat="40.62015707" lon="-5.09171889"><ele>2250</ele><speed>13.31</speed><time>2016-06-30T13:00:01Z</time><pdop>3.0</pdop><geoidheight>54.00</geoidheight><course>47.2</course><type>1</type></trkpt>
      <trkpt lat="40.62021122" lon="-5.09158423"><ele>2252</ele><speed>13.22</speed><time>2016-06-30T13:00:02Z</time><pdop>3.0</pdop><geoidheight>54.00</geoidheight><course>60.5</course><type>1</type></trkpt>
      <trkpt lat="40.62023438" lon="-5.09143993"><ele>2254</ele><speed>12.54</speed><time>2016-06-30T13:00:03Z</time><pdop>3.0</pdop><geoidheight>54.00</geoidheight><course>75.5</course><type>1</type></trkpt>
      <trkpt lat="40.62023573" lon="-5.09129756"><ele>2255</ele><speed>12.37</speed><time>2016-06-30T13:00:04Z</time><pdop>3.0</pdop><geoidheight>54.00</geoidheight><course>88.7</course><type>1</type></trkpt>
      <trkpt lat="40.6202072" lon="-5.09116006"><ele>2256</ele><speed>12.34</speed><time>2016-06-30T13:00:05Z</time><pdop>3.0</pdop><geoidheight>54.00</geoidheight><course>103.4</course><type>1</type></trkpt>
      <trkpt lat="40.62016835" lon="-5.09102221"><ele>2256</ele><speed>12.23</speed><time>2016-06-30T13:00:06Z</time><pdop>4.0</pdop><geoidheight>54.00</geoidheight><course>109.1</course><type>1</type></trkpt>
      <trkpt lat="40.62010194" lon="-5.09092875"><ele>2258</ele><speed>10.99</speed><time>2016-06-30T13:00:07Z</time><pdop>5.0</pdop><geoidheight>54.00</geoidheight><course>123.1</course><type>1</type></trkpt>
      <trkpt lat="40.61992195" lon="-5.0909561"><ele>2258</ele><speed>9.25</speed><time>2016-06-30T13:00:09Z</time><pdop>4.0</pdop><geoidheight>54.00</geoidheight><course>181.0</course><type>1</type></trkpt>
      <trkpt lat="40.61985019" lon="-5.09097391"><ele>2260</ele><speed>8.49</speed><time>2016-06-30T13:00:10Z</time><pdop>4.0</pdop><geoidheight>54.00</geoidheight><course>195.2</course><type>1</type></trkpt>
      <trkpt lat="40.6197826" lon="-5.09100642"><ele>2261</ele><speed>7.72</speed><time>2016-06-30T13:00:11Z</time><pdop>4.0</pdop><geoidheight>54.00</geoidheight><course>202.0</course><type>1</type></trkpt>
      <trkpt lat="40.61970548" lon="-5.09110468"><ele>2263</ele><speed>5.97</speed><time>2016-06-30T13:00:13Z</time><pdop>4.0</pdop><geoidheight>54.00</geoidheight><course>223.6</course><type>1</type></trkpt>
      <trkpt lat="40.61963557" lon="-5.09122237"><ele>2267</ele><speed>6.54</speed><time>2016-06-30T13:00:15Z</time><pdop>4.0</pdop><geoidheight>54.00</geoidheight><course>237.6</course><type>1</type></trkpt>
      <trkpt lat="40.61957651" lon="-5.09137497"><ele>2270</ele><speed>6.86</speed><time>2016-06-30T13:00:17Z</time><pdop>4.0</pdop><geoidheight>54.00</geoidheight><course>247.7</course><type>1</type></trkpt>
      <trkpt lat="40.61955495" lon="-5.0915191"><ele>2273</ele><speed>5.71</speed><time>2016-06-30T13:00:19Z</time><pdop>4.0</pdop><geoidheight>54.00</geoidheight><course>259.9</course><type>1</type></trkpt>
      <trkpt lat="40.61957605" lon="-5.09167761"><ele>2276</ele><speed>7.28</speed><time>2016-06-30T13:00:21Z</time><pdop>3.0</pdop><geoidheight>54.00</geoidheight><course>291.8</course><type>1</type></trkpt>
      <trkpt lat="40.61963073" lon="-5.09174594"><ele>2279</ele><speed>8.38</speed><time>2016-06-30T13:00:22Z</time><pdop>3.0</pdop><geoidheight>54.00</geoidheight><course>317.7</course><type>1</type></trkpt>
      <trkpt lat="40.61970804" lon="-5.09178469"><ele>2283</ele><speed>9.48</speed><time>2016-06-30T13:00:23Z</time><pdop>3.0</pdop><geoidheight>54.00</geoidheight><course>344.7</course><type>1</type></trkpt>
      <trkpt lat="40.61980584" lon="-5.09177232"><ele>2285</ele><speed>10.81</speed><time>2016-06-30T13:00:24Z</time><pdop>3.0</pdop><geoidheight>54.00</geoidheight><course>6.4</course><type>1</type></trkpt>
      <trkpt lat="40.61989707" lon="-5.09175846"><ele>2286</ele><speed>10.47</speed><time>2016-06-30T13:00:25Z</time><pdop>4.0</pdop><geoidheight>54.00</geoidheight><course>9.8</course><type>1</type></trkpt>
      <trkpt lat="40.61999787" lon="-5.0916635"><ele>2285</ele><speed>11.75</speed><time>2016-06-30T13:00:26Z</time><pdop>5.0</pdop><geoidheight>54.00</geoidheight><course>22.1</course><type>1</type></trkpt>
      <trkpt lat="40.62004886" lon="-5.09146568"><ele>2284</ele><speed>9.24</speed><time>2016-06-30T13:00:28Z</time><pdop>9.0</pdop><geoidheight>54.00</geoidheight><course>51.4</course><type>1</type></trkpt>
      <trkpt lat="40.62002216" lon="-5.09116829"><ele>2284</ele><speed>9.16</speed><time>2016-06-30T13:00:30Z</time><pdop>11.0</pdop><geoidheight>54.00</geoidheight><course>79.5</course><type>1</type></trkpt>
      <trkpt lat="40.61984035" lon="-5.09092072"><ele>2288</ele><speed>8.27</speed><time>2016-06-30T13:00:32Z</time><pdop>12.0</pdop><geoidheight>54.00</geoidheight><course>115.7</course><type>1</type></trkpt>
      <trkpt lat="40.61960406" lon="-5.09075105"><ele>2292</ele><speed>9.49</speed><time>2016-06-30T13:00:34Z</time><pdop>10.0</pdop><geoidheight>54.00</geoidheight><course>139.5</course><type>1</type></trkpt>
      <trkpt lat="40.61944464" lon="-5.09086125"><ele>2296</ele><speed>8.33</speed><time>2016-06-30T13:00:36Z</time><pdop>8.0</pdop><geoidheight>54.00</geoidheight><course>194.1</course><type>1</type></trkpt>
      <trkpt lat="40.61941815" lon="-5.09103527"><ele>2304</ele><speed>7.40</speed><time>2016-06-30T13:00:38Z</time><pdop>6.0</pdop><geoidheight>54.00</geoidheight><course>254.4</course><type>1</type></trkpt>
      <trkpt lat="40.61939064" lon="-5.09119658"><ele>2308</ele><speed>6.47</speed><time>2016-06-30T13:00:40Z</time><pdop>5.0</pdop><geoidheight>54.00</geoidheight><course>277.4</course><type>1</type></trkpt>
      <trkpt lat="40.61945868" lon="-5.09135622"><ele>2309</ele><speed>7.62</speed><time>2016-06-30T13:00:42Z</time><pdop>7.0</pdop><geoidheight>54.00</geoidheight><course>295.5</course><type>1</type></trkpt>
      <trkpt lat="40.61954961" lon="-5.09149712"><ele>2315</ele><speed>7.93</speed><time>2016-06-30T13:00:44Z</time><pdop>5.0</pdop><geoidheight>54.00</geoidheight><course>308.0</course><type>1</type></trkpt>
      <trkpt lat="40.61965314" lon="-5.09159304"><ele>2320</ele><speed>8.12</speed><time>2016-06-30T13:00:46Z</time><pdop>4.0</pdop><geoidheight>54.00</geoidheight><course>335.0</course><type>1</type></trkpt>
      <trkpt lat="40.61973086" lon="-5.09160389"><ele>2322</ele><speed>8.74</speed><time>2016-06-30T13:00:47Z</time><pdop>4.0</pdop><geoidheight>54.00</geoidheight><course>356.8</course><type>1</type></trkpt>
      <trkpt lat="40.61980534" lon="-5.09156142"><ele>2323</ele><speed>9.67</speed><time>2016-06-30T13:00:48Z</time><pdop>3.0</pdop><geoidheight>54.00</geoidheight><course>23.7</course><type>1</type></trkpt>
      <trkpt lat="40.61988182" lon="-5.09149477"><ele>2322</ele><speed>10.39</speed><time>2016-06-30T13:00:49Z</time><pdop>4.0</pdop><geoidheight>54.00</geoidheight><course>34.7</course><type>1</type></trkpt>
      <trkpt lat="40.61994502" lon="-5.09138007"><ele>2323</ele><speed>11.49</speed><time>2016-06-30T13:00:50Z</time><pdop>5.0</pdop><geoidheight>54.00</geoidheight><course>45.7</course><type>1</type></trkpt>
      <trkpt lat="40.61998691" lon="-5.09121419"><ele>2322</ele><speed>13.35</speed><time>2016-06-30T13:00:51Z</time><pdop>6.0</pdop><geoidheight>54.00</geoidheight><course>59.7</course><type>1</type></trkpt>
      <trkpt lat="40.62000606" lon="-5.09105364"><ele>2323</ele><speed>13.48</speed><time>2016-06-30T13:00:52Z</time><pdop>7.0</pdop><geoidheight>54.00</geoidheight><course>67.3</course><type>1</type></trkpt>
      <trkpt lat="40.61982716" lon="-5.09089992"><ele>2326</ele><speed>14.20</speed><time>2016-06-30T13:00:53Z</time><pdop>5.0</pdop><geoidheight>54.00</geoidheight><course>107.8</course><type>1</type></trkpt>
      <trkpt lat="40.61978063" lon="-5.09074321"><ele>2326</ele><speed>13.83</speed><time>2016-06-30T13:00:54Z</time><pdop>5.0</pdop><geoidheight>54.00</geoidheight><course>111.7</course><type>1</type></trkpt>
      <trkpt lat="40.61971278" lon="-5.09062078"><ele>2327</ele><speed>13.10</speed><time>2016-06-30T13:00:55Z</time><pdop>6.0</pdop><geoidheight>54.00</geoidheight><course>119.2</course><type>1</type></trkpt>
      <trkpt lat="40.61952818" lon="-5.0904902"><ele>2327</ele><speed>11.43</speed><time>2016-06-30T13:00:57Z</time><pdop>5.0</pdop><geoidheight>54.00</geoidheight><course>152.7</course><type>1</type></trkpt>
      <trkpt lat="40.61941398" lon="-5.09045013"><ele>2327</ele><speed>11.95</speed><time>2016-06-30T13:00:58Z</time><pdop>6.0</pdop><geoidheight>54.00</geoidheight><course>160.2</course><type>1</type></trkpt>
      <trkpt lat="40.61928925" lon="-5.09043391"><ele>2329</ele><speed>12.39</speed><time>2016-06-30T13:00:59Z</time><pdop>6.0</pdop><geoidheight>54.00</geoidheight><course>169.2</course><type>1</type></trkpt>
      <trkpt lat="40.61916853" lon="-5.09042526"><ele>2330</ele><speed>12.75</speed><time>2016-06-30T13:01:00Z</time><pdop>5.0</pdop><geoidheight>54.00</geoidheight><course>174.2</course><type>1</type></trkpt>
      <trkpt lat="40.61905091" lon="-5.09041487"><ele>2330</ele><speed>12.85</speed><time>2016-06-30T13:01:01Z</time><pdop>5.0</pdop><geoidheight>54.00</geoidheight><course>175.2</course><type>1</type></trkpt>
      <trkpt lat="40.61888837" lon="-5.0905144"><ele>2332</ele><speed>12.21</speed><time>2016-06-30T13:01:03Z</time><pdop>6.0</pdop><geoidheight>54.00</geoidheight><course>194.7</course><type>1</type></trkpt>
      <trkpt lat="40.61875688" lon="-5.09065838"><ele>2334</ele><speed>10.11</speed><time>2016-06-30T13:01:05Z</time><pdop>5.0</pdop><geoidheight>54.00</geoidheight><course>217.8</course><type>1</type></trkpt>
      <trkpt lat="40.61866148" lon="-5.0907369"><ele>2335</ele><speed>10.84</speed><time>2016-06-30T13:01:06Z</time><pdop>5.0</pdop><geoidheight>54.00</geoidheight><course>217.0</course><type>1</type></trkpt>
      <trkpt lat="40.61865283" lon="-5.09090489"><ele>2337</ele><speed>7.71</speed><time>2016-06-30T13:01:08Z</time><pdop>5.0</pdop><geoidheight>54.00</geoidheight><course>255.6</course><type>1</type></trkpt>
      <trkpt lat="40.6187209" lon="-5.09100784"><ele>2340</ele><speed>5.38</speed><time>2016-06-30T13:01:10Z</time><pdop>5.0</pdop><geoidheight>54.00</geoidheight><course>296.6</course><type>1</type></trkpt>
      <trkpt lat="40.61889154" lon="-5.0909868"><ele>2345</ele><speed>8.17</speed><time>2016-06-30T13:01:12Z</time><pdop>4.0</pdop><geoidheight>54.00</geoidheight><course>8.8</course><type>1</type></trkpt>
      <trkpt lat="40.61903447" lon="-5.09088951"><ele>2347</ele><speed>9.29</speed><time>2016-06-30T13:01:14Z</time><pdop>5.0</pdop><geoidheight>54.00</geoidheight><course>35.4</course><type>1</type></trkpt>
      <trkpt lat="40.61906152" lon="-5.09074126"><ele>2348</ele><speed>11.51</speed><time>2016-06-30T13:01:15Z</time><pdop>4.0</pdop><geoidheight>54.00</geoidheight><course>63.3</course><type>1</type></trkpt>
      <trkpt lat="40.61910632" lon="-5.09061189"><ele>2349</ele><speed>12.39</speed><time>2016-06-30T13:01:16Z</time><pdop>4.0</pdop><geoidheight>54.00</geoidheight><course>65.9</course><type>1</type></trkpt>
      <trkpt lat="40.6191364" lon="-5.09047122"><ele>2351</ele><speed>12.95</speed><time>2016-06-30T13:01:17Z</time><pdop>5.0</pdop><geoidheight>54.00</geoidheight><course>72.9</course><type>1</type></trkpt>
      <trkpt lat="40.6191319" lon="-5.09030075"><ele>2351</ele><speed>13.61</speed><time>2016-06-30T13:01:18Z</time><pdop>6.0</pdop><geoidheight>54.00</geoidheight><course>85.2</course><type>1</type></trkpt>
      <trkpt lat="40.6189835" lon="-5.09017777"><ele>2353</ele><speed>14.22</speed><time>2016-06-30T13:01:19Z</time><pdop>4.0</pdop><geoidheight>54.00</geoidheight><course>119.9</course><type>1</type></trkpt>
      <trkpt lat="40.61891477" lon="-5.0900417"><ele>2354</ele><speed>14.12</speed><time>2016-06-30T13:01:20Z</time><pdop>4.0</pdop><geoidheight>54.00</geoidheight><course>123.9</course><type>1</type></trkpt>
      <trkpt lat="40.61883493" lon="-5.0899093"><ele>2354</ele><speed>13.93</speed><time>2016-06-30T13:01:21Z</time><pdop>6.0</pdop><geoidheight>54.00</geoidheight><course>127.1</course><type>1</type></trkpt>
      <trkpt lat="40.61873627" lon="-5.08981884"><ele>2354</ele><speed>13.21</speed><time>2016-06-30T13:01:22Z</time><pdop>7.0</pdop><geoidheight>54.00</geoidheight><course>134.3</course><type>1</type></trkpt>
      <trkpt lat="40.61864868" lon="-5.08969761"><ele>2356</ele><speed>13.12</speed><time>2016-06-30T13:01:23Z</time><pdop>7.0</pdop><geoidheight>54.00</geoidheight><course>136.3</course><type>1</type></trkpt>
      <trkpt lat="40.61850897" lon="-5.08977349"><ele>2356</ele><speed>12.00</speed><time>2016-06-30T13:01:24Z</time><pdop>6.0</pdop><geoidheight>54.00</geoidheight><course>164.6</course><type>1</type></trkpt>
      <trkpt lat="40.61831308" lon="-5.08985491"><ele>2360</ele><speed>11.91</speed><time>2016-06-30T13:01:26Z</time><pdop>6.0</pdop><geoidheight>54.00</geoidheight><course>193.5</course><type>1</type></trkpt>
      <trkpt lat="40.61824568" lon="-5.09004785"><ele>2361</ele><speed>9.55</speed><time>2016-06-30T13:01:28Z</time><pdop>4.0</pdop><geoidheight>54.00</geoidheight><course>227.0</course><type>1</type></trkpt>
      <trkpt lat="40.61822732" lon="-5.09014993"><ele>2363</ele><speed>8.02</speed><time>2016-06-30T13:01:29Z</time><pdop>4.0</pdop><geoidheight>54.00</geoidheight><course>252.9</course><type>1</type></trkpt>
      <trkpt lat="40.61822548" lon="-5.09032611"><ele>2367</ele><speed>7.09</speed><time>2016-06-30T13:01:31Z</time><pdop>5.0</pdop><geoidheight>54.00</geoidheight><course>277.1</course><type>1</type></trkpt>
      <trkpt lat="40.61833723" lon="-5.09040373"><ele>2373</ele><speed>7.09</speed><time>2016-06-30T13:01:33Z</time><pdop>4.0</pdop><geoidheight>54.00</geoidheight><course>339.7</course><type>1</type></trkpt>
      <trkpt lat="40.61845338" lon="-5.09037356"><ele>2375</ele><speed>7.81</speed><time>2016-06-30T13:01:35Z</time><pdop>4.0</pdop><geoidheight>54.00</geoidheight><course>18.5</course><type>1</type></trkpt>
      <trkpt lat="40.61855101" lon="-5.09022543"><ele>2377</ele><speed>9.70</speed><time>2016-06-30T13:01:37Z</time><pdop>5.0</pdop><geoidheight>54.00</geoidheight><course>52.9</course><type>1</type></trkpt>
      <trkpt lat="40.61856729" lon="-5.09009537"><ele>2377</ele><speed>11.22</speed><time>2016-06-30T13:01:38Z</time><pdop>4.0</pdop><geoidheight>54.00</geoidheight><course>75.9</course><type>1</type></trkpt>
      <trkpt lat="40.61857654" lon="-5.08996838"><ele>2378</ele><speed>11.83</speed><time>2016-06-30T13:01:39Z</time><pdop>4.0</pdop><geoidheight>54.00</geoidheight><course>86.0</course><type>1</type></trkpt>
      <trkpt lat="40.61856176" lon="-5.08982487"><ele>2380</ele><speed>12.08</speed><time>2016-06-30T13:01:40Z</time><pdop>4.0</pdop><geoidheight>54.00</geoidheight><course>94.3</course><type>1</type></trkpt>
      <trkpt lat="40.61853867" lon="-5.08968054"><ele>2381</ele><speed>12.51</speed><time>2016-06-30T13:01:41Z</time><pdop>4.0</pdop><geoidheight>54.00</geoidheight><course>100.0</course><type>1</type></trkpt>
      <trkpt lat="40.61850119" lon="-5.08955052"><ele>2381</ele><speed>12.17</speed><time>2016-06-30T13:01:42Z</time><pdop>5.0</pdop><geoidheight>54.00</geoidheight><course>106.3</course><type>1</type></trkpt>
      <trkpt lat="40.61843813" lon="-5.08943145"><ele>2382</ele><speed>12.08</speed><time>2016-06-30T13:01:43Z</time><pdop>6.0</pdop><geoidheight>54.00</geoidheight><course>116.1</course><type>1</type></trkpt>
      <trkpt lat="40.61836953" lon="-5.08929604"><ele>2383</ele><speed>12.65</speed><time>2016-06-30T13:01:44Z</time><pdop>6.0</pdop><geoidheight>54.00</geoidheight><course>120.9</course><type>1</type></trkpt>
      <trkpt lat="40.61827121" lon="-5.08920626"><ele>2383</ele><speed>13.00</speed><time>2016-06-30T13:01:45Z</time><pdop>6.0</pdop><geoidheight>54.00</geoidheight><course>132.9</course><type>1</type></trkpt>
      <trkpt lat="40.61815484" lon="-5.08914989"><ele>2383</ele><speed>13.62</speed><time>2016-06-30T13:01:46Z</time><pdop>5.0</pdop><geoidheight>54.00</geoidheight><course>148.0</course><type>1</type></trkpt>
      <trkpt lat="40.6180444" lon="-5.08909301"><ele>2384</ele><speed>13.25</speed><time>2016-06-30T13:01:47Z</time><pdop>4.0</pdop><geoidheight>54.00</geoidheight><course>153.8</course><type>1</type></trkpt>
      <trkpt lat="40.61792788" lon="-5.08904479"><ele>2385</ele><speed>12.96</speed><time>2016-06-30T13:01:48Z</time><pdop>4.0</pdop><geoidheight>54.00</geoidheight><course>160.9</course><type>1</type></trkpt>
      <trkpt lat="40.61782821" lon="-5.08904109"><ele>2387</ele><speed>11.94</speed><time>2016-06-30T13:01:49Z</time><pdop>4.0</pdop><geoidheight>54.00</geoidheight><course>171.4</course><type>1</type></trkpt>
      <trkpt lat="40.61771995" lon="-5.0890473"><ele>2390</ele><speed>11.47</speed><time>2016-06-30T13:01:50Z</time><pdop>4.0</pdop><geoidheight>54.00</geoidheight><course>182.3</course><type>1</type></trkpt>
      <trkpt lat="40.61763694" lon="-5.08907906"><ele>2394</ele><speed>9.79</speed><time>2016-06-30T13:01:51Z</time><pdop>4.0</pdop><geoidheight>54.00</geoidheight><course>196.3</course><type>1</type></trkpt>
      <trkpt lat="40.61753732" lon="-5.08919294"><ele>2397</ele><speed>7.96</speed><time>2016-06-30T13:01:53Z</time><pdop>4.0</pdop><geoidheight>54.00</geoidheight><course>224.1</course><type>1</type></trkpt>
      <trkpt lat="40.6175354" lon="-5.08933246"><ele>2398</ele><speed>6.76</speed><time>2016-06-30T13:01:55Z</time><pdop>3.0</pdop><geoidheight>54.00</geoidheight><course>279.1</course><type>1</type></trkpt>
      <trkpt lat="40.61756965" lon="-5.08940102"><ele>2397</ele><speed>7.18</speed><time>2016-06-30T13:01:56Z</time><pdop>3.0</pdop><geoidheight>54.00</geoidheight><course>303.4</course><type>1</type></trkpt>
      <trkpt lat="40.61762666" lon="-5.08945047"><ele>2399</ele><speed>7.89</speed><time>2016-06-30T13:01:57Z</time><pdop>3.0</pdop><geoidheight>54.00</geoidheight><course>328.9</course><type>1</type></trkpt>
      <trkpt lat="40.61768833" lon="-5.08946925"><ele>2400</ele><speed>6.90</speed><time>2016-06-30T13:01:58Z</time><pdop>3.0</pdop><geoidheight>54.00</geoidheight><course>342.1</course><type>1</type></trkpt>
      <trkpt lat="40.61777778" lon="-5.08946372"><ele>2401</ele><speed>8.49</speed><time>2016-06-30T13:01:59Z</time><pdop>4.0</pdop><geoidheight>54.00</geoidheight><course>356.0</course><type>1</type></trkpt>
      <trkpt lat="40.61789946" lon="-5.08925374"><ele>2403</ele><speed>10.92</speed><time>2016-06-30T13:02:01Z</time><pdop>4.0</pdop><geoidheight>54.00</geoidheight><course>44.7</course><type>1</type></trkpt>
      <trkpt lat="40.61795551" lon="-5.08914718"><ele>2406</ele><speed>11.53</speed><time>2016-06-30T13:02:02Z</time><pdop>4.0</pdop><geoidheight>54.00</geoidheight><course>57.4</course><type>1</type></trkpt>
      <trkpt lat="40.61799312" lon="-5.08900953"><ele>2409</ele><speed>12.25</speed><time>2016-06-30T13:02:03Z</time><pdop>3.0</pdop><geoidheight>54.00</geoidheight><course>70.6</course><type>1</type></trkpt>
      <trkpt lat="40.61800322" lon="-5.0888579"><ele>2412</ele><speed>12.83</speed><time>2016-06-30T13:02:04Z</time><pdop>3.0</pdop><geoidheight>54.00</geoidheight><course>85.1</course><type>1</type></trkpt>
      <trkpt lat="40.61797608" lon="-5.08871264"><ele>2415</ele><speed>12.97</speed><time>2016-06-30T13:02:05Z</time><pdop>3.0</pdop><geoidheight>54.00</geoidheight><course>101.1</course><type>1</type></trkpt>
      <trkpt lat="40.61793888" lon="-5.08857694"><ele>2416</ele><speed>12.34</speed><time>2016-06-30T13:02:06Z</time><pdop>4.0</pdop><geoidheight>54.00</geoidheight><course>106.0</course><type>1</type></trkpt>
      <trkpt lat="40.61786207" lon="-5.08840848"><ele>2418</ele><speed>8.40</speed><time>2016-06-30T13:02:08Z</time><pdop>8.0</pdop><geoidheight>54.00</geoidheight><course>120.3</course><type>1</type></trkpt>
      <trkpt lat="40.61766664" lon="-5.08834929"><ele>2419</ele><speed>8.31</speed><time>2016-06-30T13:02:10Z</time><pdop>9.0</pdop><geoidheight>54.00</geoidheight><course>161.9</course><type>1</type></trkpt>
      <trkpt lat="40.61742846" lon="-5.08838485"><ele>2420</ele><speed>10.37</speed><time>2016-06-30T13:02:12Z</time><pdop>10.0</pdop><geoidheight>54.00</geoidheight><course>184.7</course><type>1</type></trkpt>
      <trkpt lat="40.61744253" lon="-5.08863499"><ele>2421</ele><speed>7.82</speed><time>2016-06-30T13:02:14Z</time><pdop>7.0</pdop><geoidheight>54.00</geoidheight><course>243.0</course><type>1</type></trkpt>
      <trkpt lat="40.61741689" lon="-5.08884537"><ele>2422</ele><speed>8.29</speed><time>2016-06-30T13:02:16Z</time><pdop>8.0</pdop><geoidheight>54.00</geoidheight><course>260.3</course><type>1</type></trkpt>
      <trkpt lat="40.6175942" lon="-5.08896662"><ele>2423</ele><speed>8.11</speed><time>2016-06-30T13:02:18Z</time><pdop>10.0</pdop><geoidheight>54.00</geoidheight><course>309.7</course><type>1</type></trkpt>
      <trkpt lat="40.61777011" lon="-5.08881529"><ele>2427</ele><speed>6.23</speed><time>2016-06-30T13:02:20Z</time><pdop>10.0</pdop><geoidheight>54.00</geoidheight><course>10.4</course><type>1</type></trkpt>
      <trkpt lat="40.61788031" lon="-5.08861399"><ele>2432</ele><speed>11.06</speed><time>2016-06-30T13:02:21Z</time><pdop>6.0</pdop><geoidheight>54.00</geoidheight><course>52.4</course><type>1</type></trkpt>
      <trkpt lat="40.6179466" lon="-5.08848086"><ele>2434</ele><speed>11.10</speed><time>2016-06-30T13:02:22Z</time><pdop>6.0</pdop><geoidheight>54.00</geoidheight><course>61.6</course><type>1</type></trkpt>
      <trkpt lat="40.61798202" lon="-5.08835772"><ele>2436</ele><speed>11.34</speed><time>2016-06-30T13:02:23Z</time><pdop>5.0</pdop><geoidheight>54.00</geoidheight><course>68.8</course><type>1</type></trkpt>
      <trkpt lat="40.61800789" lon="-5.08822775"><ele>2439</ele><speed>11.90</speed><time>2016-06-30T13:02:24Z</time><pdop>4.0</pdop><geoidheight>54.00</geoidheight><course>76.0</course><type>1</type></trkpt>
      <trkpt lat="40.61802807" lon="-5.08807888"><ele>2441</ele><speed>12.82</speed><time>2016-06-30T13:02:25Z</time><pdop>4.0</pdop><geoidheight>54.00</geoidheight><course>85.4</course><type>1</type></trkpt>
      <trkpt lat="40.61801968" lon="-5.08793348"><ele>2442</ele><speed>12.69</speed><time>2016-06-30T13:02:26Z</time><pdop>4.0</pdop><geoidheight>54.00</geoidheight><course>89.6</course><type>1</type></trkpt>
      <trkpt lat="40.6179696" lon="-5.08777023"><ele>2443</ele><speed>13.53</speed><time>2016-06-30T13:02:27Z</time><pdop>4.0</pdop><geoidheight>54.00</geoidheight><course>107.8</course><type>1</type></trkpt>
      <trkpt lat="40.61792313" lon="-5.08764574"><ele>2443</ele><speed>12.60</speed><time>2016-06-30T13:02:28Z</time><pdop>5.0</pdop><geoidheight>54.00</geoidheight><course>112.0</course><type>1</type></trkpt>
      <trkpt lat="40.61777764" lon="-5.08748672"><ele>2445</ele><speed>9.84</speed><time>2016-06-30T13:02:30Z</time><pdop>7.0</pdop><geoidheight>54.00</geoidheight><course>132.6</course><type>1</type></trkpt>
      <trkpt lat="40.617597" lon="-5.08751049"><ele>2444</ele><speed>8.66</speed><time>2016-06-30T13:02:32Z</time><pdop>8.0</pdop><geoidheight>54.00</geoidheight><course>175.2</course><type>1</type></trkpt>
      <trkpt lat="40.61750156" lon="-5.08774053"><ele>2445</ele><speed>8.71</speed><time>2016-06-30T13:02:34Z</time><pdop>7.0</pdop><geoidheight>54.00</geoidheight><course>224.2</course><type>1</type></trkpt>
      <trkpt lat="40.61761904" lon="-5.08791774"><ele>2447</ele><speed>7.52</speed><time>2016-06-30T13:02:36Z</time><pdop>5.0</pdop><geoidheight>54.00</geoidheight><course>293.5</course><type>1</type></trkpt>
      <trkpt lat="40.61771912" lon="-5.08798164"><ele>2449</ele><speed>9.05</speed><time>2016-06-30T13:02:37Z</time><pdop>4.0</pdop><geoidheight>54.00</geoidheight><course>321.5</course><type>1</type></trkpt>
      <trkpt lat="40.61779774" lon="-5.08804936"><ele>2451</ele><speed>9.11</speed><time>2016-06-30T13:02:38Z</time><pdop>3.0</pdop><geoidheight>54.00</geoidheight><course>327.3</course><type>1</type></trkpt>
      <trkpt lat="40.61786353" lon="-5.08810461"><ele>2454</ele><speed>9.07</speed><time>2016-06-30T13:02:39Z</time><pdop>3.0</pdop><geoidheight>54.00</geoidheight><course>335.5</course><type>1</type></trkpt>
      <trkpt lat="40.6179356" lon="-5.08814528"><ele>2455</ele><speed>8.82</speed><time>2016-06-30T13:02:40Z</time><pdop>4.0</pdop><geoidheight>54.00</geoidheight><course>339.6</course><type>1</type></trkpt>
      <trkpt lat="40.61803554" lon="-5.08815159"><ele>2456</ele><speed>10.20</speed><time>2016-06-30T13:02:41Z</time><pdop>3.0</pdop><geoidheight>54.00</geoidheight><course>352.7</course><type>1</type></trkpt>
      <trkpt lat="40.61812083" lon="-5.08816498"><ele>2461</ele><speed>10.48</speed><time>2016-06-30T13:02:42Z</time><pdop>3.0</pdop><geoidheight>54.00</geoidheight><course>354.9</course><type>1</type></trkpt>
      <trkpt lat="40.61819745" lon="-5.08816373"><ele>2465</ele><speed>9.82</speed><time>2016-06-30T13:02:43Z</time><pdop>3.0</pdop><geoidheight>54.00</geoidheight><course>359.7</course><type>1</type></trkpt>
      <trkpt lat="40.61827031" lon="-5.08814457"><ele>2468</ele><speed>8.85</speed><time>2016-06-30T13:02:44Z</time><pdop>3.0</pdop><geoidheight>54.00</geoidheight><course>11.2</course><type>1</type></trkpt>
      <trkpt lat="40.618334" lon="-5.08812409"><ele>2472</ele><speed>8.21</speed><time>2016-06-30T13:02:45Z</time><pdop>3.0</pdop><geoidheight>54.00</geoidheight><course>11.1</course><type>1</type></trkpt>
      <trkpt lat="40.61839217" lon="-5.08799988"><ele>2472</ele><speed>9.53</speed><time>2016-06-30T13:02:46Z</time><pdop>5.0</pdop><geoidheight>54.00</geoidheight><course>40.6</course><type>1</type></trkpt>
      <trkpt lat="40.6184412" lon="-5.08783518"><ele>2470</ele><speed>11.69</speed><time>2016-06-30T13:02:47Z</time><pdop>5.0</pdop><geoidheight>54.00</geoidheight><course>56.8</course><type>1</type></trkpt>
      <trkpt lat="40.61845411" lon="-5.08768059"><ele>2471</ele><speed>12.99</speed><time>2016-06-30T13:02:48Z</time><pdop>5.0</pdop><geoidheight>54.00</geoidheight><course>69.8</course><type>1</type></trkpt>
      <trkpt lat="40.61839929" lon="-5.08750156"><ele>2471</ele><speed>14.32</speed><time>2016-06-30T13:02:49Z</time><pdop>5.0</pdop><geoidheight>54.00</geoidheight><course>88.5</course><type>1</type></trkpt>
      <trkpt lat="40.61833176" lon="-5.08739047"><ele>2470</ele><speed>12.79</speed><time>2016-06-30T13:02:50Z</time><pdop>5.0</pdop><geoidheight>54.00</geoidheight><course>106.1</course><type>1</type></trkpt>
      <trkpt lat="40.61829462" lon="-5.08726355"><ele>2469</ele><speed>12.17</speed><time>2016-06-30T13:02:51Z</time><pdop>5.0</pdop><geoidheight>54.00</geoidheight><course>109.2</course><type>1</type></trkpt>
      <trkpt lat="40.61823473" lon="-5.08713601"><ele>2469</ele><speed>12.15</speed><time>2016-06-30T13:02:52Z</time><pdop>6.0</pdop><geoidheight>54.00</geoidheight><course>113.1</course><type>1</type></trkpt>
      <trkpt lat="40.61807165" lon="-5.08701837"><ele>2471</ele><speed>9.06</speed><time>2016-06-30T13:02:54Z</time><pdop>9.0</pdop><geoidheight>54.00</geoidheight><course>135.8</course><type>1</type></trkpt>
      <trkpt lat="40.61793054" lon="-5.08707274"><ele>2470</ele><speed>9.12</speed><time>2016-06-30T13:02:55Z</time><pdop>7.0</pdop><geoidheight>54.00</geoidheight><course>171.1</course><type>1</type></trkpt>
      <trkpt lat="40.61787258" lon="-5.08722768"><ele>2471</ele><speed>9.07</speed><time>2016-06-30T13:02:56Z</time><pdop>6.0</pdop><geoidheight>54.00</geoidheight><course>211.7</course><type>1</type></trkpt>
      <trkpt lat="40.61770727" lon="-5.08735506"><ele>2472</ele><speed>9.20</speed><time>2016-06-30T13:02:58Z</time><pdop>6.0</pdop><geoidheight>54.00</geoidheight><course>215.4</course><type>1</type></trkpt>
      <trkpt lat="40.61763429" lon="-5.08754883"><ele>2475</ele><speed>8.52</speed><time>2016-06-30T13:03:00Z</time><pdop>5.0</pdop><geoidheight>54.00</geoidheight><course>236.0</course><type>1</type></trkpt>
      <trkpt lat="40.61758993" lon="-5.0876548"><ele>2476</ele><speed>8.52</speed><time>2016-06-30T13:03:01Z</time><pdop>5.0</pdop><geoidheight>54.00</geoidheight><course>239.4</course><type>1</type></trkpt>
      <trkpt lat="40.61754045" lon="-5.08777389"><ele>2478</ele><speed>8.87</speed><time>2016-06-30T13:03:02Z</time><pdop>5.0</pdop><geoidheight>54.00</geoidheight><course>244.0</course><type>1</type></trkpt>
      <trkpt lat="40.6175249" lon="-5.08789863"><ele>2482</ele><speed>8.85</speed><time>2016-06-30T13:03:03Z</time><pdop>4.0</pdop><geoidheight>54.00</geoidheight><course>257.6</course><type>1</type></trkpt>
      <trkpt lat="40.61753804" lon="-5.0879998"><ele>2484</ele><speed>8.06</speed><time>2016-06-30T13:03:04Z</time><pdop>4.0</pdop><geoidheight>54.00</geoidheight><course>278.6</course><type>1</type></trkpt>
      <trkpt lat="40.61758111" lon="-5.08808568"><ele>2487</ele><speed>8.13</speed><time>2016-06-30T13:03:05Z</time><pdop>3.0</pdop><geoidheight>54.00</geoidheight><course>305.2</course><type>1</type></trkpt>
      <trkpt lat="40.61763901" lon="-5.08814528"><ele>2489</ele><speed>8.78</speed><time>2016-06-30T13:03:06Z</time><pdop>3.0</pdop><geoidheight>54.00</geoidheight><course>329.0</course><type>1</type></trkpt>
      <trkpt lat="40.61781838" lon="-5.08815373"><ele>2496</ele><speed>10.71</speed><time>2016-06-30T13:03:08Z</time><pdop>9.0</pdop><geoidheight>54.00</geoidheight><course>5.9</course><type>1</type></trkpt>
      <trkpt lat="40.61798814" lon="-5.08800336"><ele>2499</ele><speed>11.86</speed><time>2016-06-30T13:03:10Z</time><pdop>9.0</pdop><geoidheight>54.00</geoidheight><course>37.0</course><type>1</type></trkpt>
      <trkpt lat="40.61807518" lon="-5.08770273"><ele>2496</ele><speed>12.50</speed><time>2016-06-30T13:03:12Z</time><pdop>10.0</pdop><geoidheight>54.00</geoidheight><course>67.6</course><type>1</type></trkpt>
      <trkpt lat="40.61800959" lon="-5.08733328"><ele>2496</ele><speed>14.22</speed><time>2016-06-30T13:03:14Z</time><pdop>10.0</pdop><geoidheight>54.00</geoidheight><course>91.7</course><type>1</type></trkpt>
      <trkpt lat="40.61791232" lon="-5.08718111"><ele>2500</ele><speed>13.92</speed><time>2016-06-30T13:03:15Z</time><pdop>4.0</pdop><geoidheight>54.00</geoidheight><course>110.6</course><type>1</type></trkpt>
      <trkpt lat="40.61784446" lon="-5.0870351"><ele>2502</ele><speed>13.89</speed><time>2016-06-30T13:03:16Z</time><pdop>4.0</pdop><geoidheight>54.00</geoidheight><course>115.0</course><type>1</type></trkpt>
      <trkpt lat="40.61774315" lon="-5.08696582"><ele>2504</ele><speed>12.31</speed><time>2016-06-30T13:03:17Z</time><pdop>4.0</pdop><geoidheight>54.00</geoidheight><course>139.3</course><type>1</type></trkpt>
      <trkpt lat="40.61763658" lon="-5.08691679"><ele>2503</ele><speed>12.45</speed><time>2016-06-30T13:03:18Z</time><pdop>3.0</pdop><geoidheight>54.00</geoidheight><course>162.3</course><type>1</type></trkpt>
      <trkpt lat="40.61753812" lon="-5.08687193"><ele>2504</ele><speed>12.08</speed><time>2016-06-30T13:03:19Z</time><pdop>4.0</pdop><geoidheight>54.00</geoidheight><course>165.5</course><type>1</type></trkpt>
      <trkpt lat="40.61742511" lon="-5.08691492"><ele>2504</ele><speed>11.97</speed><time>2016-06-30T13:03:20Z</time><pdop>4.0</pdop><geoidheight>54.00</geoidheight><course>184.0</course><type>1</type></trkpt>
      <trkpt lat="40.61734761" lon="-5.08700416"><ele>2504</ele><speed>11.98</speed><time>2016-06-30T13:03:21Z</time><pdop>5.0</pdop><geoidheight>54.00</geoidheight><course>201.8</course><type>1</type></trkpt>
      <trkpt lat="40.61730048" lon="-5.0871556"><ele>2508</ele><speed>8.26</speed><time>2016-06-30T13:03:23Z</time><pdop>5.0</pdop><geoidheight>54.00</geoidheight><course>233.4</course><type>1</type></trkpt>
      <trkpt lat="40.61733419" lon="-5.0873173"><ele>2509</ele><speed>6.57</speed><time>2016-06-30T13:03:25Z</time><pdop>5.0</pdop><geoidheight>54.00</geoidheight><course>282.9</course><type>1</type></trkpt>
      <trkpt lat="40.61745038" lon="-5.08741117"><ele>2516</ele><speed>8.18</speed><time>2016-06-30T13:03:27Z</time><pdop>3.0</pdop><geoidheight>54.00</geoidheight><course>336.4</course><type>1</type></trkpt>
      <trkpt lat="40.61752383" lon="-5.08744056"><ele>2517</ele><speed>8.27</speed><time>2016-06-30T13:03:28Z</time><pdop>4.0</pdop><geoidheight>54.00</geoidheight><course>344.0</course><type>1</type></trkpt>
      <trkpt lat="40.61764884" lon="-5.08737089"><ele>2519</ele><speed>7.21</speed><time>2016-06-30T13:03:30Z</time><pdop>5.0</pdop><geoidheight>54.00</geoidheight><course>16.2</course><type>1</type></trkpt>
      <trkpt lat="40.61772235" lon="-5.08706269"><ele>2523</ele><speed>11.70</speed><time>2016-06-30T13:03:32Z</time><pdop>6.0</pdop><geoidheight>54.00</geoidheight><course>67.4</course><type>1</type></trkpt>
      <trkpt lat="40.61767267" lon="-5.08690154"><ele>2523</ele><speed>13.55</speed><time>2016-06-30T13:03:33Z</time><pdop>5.0</pdop><geoidheight>54.00</geoidheight><course>93.0</course><type>1</type></trkpt>
      <trkpt lat="40.61767796" lon="-5.08672833"><ele>2524</ele><speed>13.72</speed><time>2016-06-30T13:03:34Z</time><pdop>5.0</pdop><geoidheight>54.00</geoidheight><course>94.7</course><type>1</type></trkpt>
      <trkpt lat="40.61764227" lon="-5.08657512"><ele>2525</ele><speed>13.60</speed><time>2016-06-30T13:03:35Z</time><pdop>6.0</pdop><geoidheight>54.00</geoidheight><course>102.0</course><type>1</type></trkpt>
      <trkpt lat="40.61762014" lon="-5.0864098"><ele>2526</ele><speed>13.87</speed><time>2016-06-30T13:03:36Z</time><pdop>7.0</pdop><geoidheight>54.00</geoidheight><course>104.9</course><type>1</type></trkpt>
      <trkpt lat="40.61739238" lon="-5.08627867"><ele>2529</ele><speed>12.58</speed><time>2016-06-30T13:03:38Z</time><pdop>7.0</pdop><geoidheight>54.00</geoidheight><course>136.1</course><type>1</type></trkpt>
      <trkpt lat="40.61726967" lon="-5.08630861"><ele>2530</ele><speed>12.03</speed><time>2016-06-30T13:03:39Z</time><pdop>5.0</pdop><geoidheight>54.00</geoidheight><course>163.2</course><type>1</type></trkpt>
      <trkpt lat="40.6171768" lon="-5.08629104"><ele>2532</ele><speed>11.01</speed><time>2016-06-30T13:03:40Z</time><pdop>5.0</pdop><geoidheight>54.00</geoidheight><course>173.2</course><type>1</type></trkpt>
      <trkpt lat="40.61708584" lon="-5.08629176"><ele>2533</ele><speed>10.51</speed><time>2016-06-30T13:03:41Z</time><pdop>5.0</pdop><geoidheight>54.00</geoidheight><course>179.8</course><type>1</type></trkpt>
      <trkpt lat="40.61691406" lon="-5.08636854"><ele>2536</ele><speed>10.31</speed><time>2016-06-30T13:03:43Z</time><pdop>6.0</pdop><geoidheight>54.00</geoidheight><course>202.0</course><type>1</type></trkpt>
      <trkpt lat="40.61684151" lon="-5.08653842"><ele>2538</ele><speed>8.17</speed><time>2016-06-30T13:03:45Z</time><pdop>6.0</pdop><geoidheight>54.00</geoidheight><course>224.8</course><type>1</type></trkpt>
      <trkpt lat="40.61693972" lon="-5.08675437"><ele>2541</ele><speed>8.53</speed><time>2016-06-30T13:03:47Z</time><pdop>7.0</pdop><geoidheight>54.00</geoidheight><course>280.8</course><type>1</type></trkpt>
      <trkpt lat="40.61711341" lon="-5.08674175"><ele>2544</ele><speed>6.48</speed><time>2016-06-30T13:03:49Z</time><pdop>7.0</pdop><geoidheight>54.00</geoidheight><course>339.0</course><type>1</type></trkpt>
      <trkpt lat="40.61730447" lon="-5.08662231"><ele>2544</ele><speed>8.94</speed><time>2016-06-30T13:03:51Z</time><pdop>6.0</pdop><geoidheight>54.00</geoidheight><course>22.5</course><type>1</type></trkpt>
      <trkpt lat="40.61743892" lon="-5.08644888"><ele>2545</ele><speed>11.13</speed><time>2016-06-30T13:03:53Z</time><pdop>6.0</pdop><geoidheight>54.00</geoidheight><course>46.2</course><type>1</type></trkpt>
      <trkpt lat="40.61749438" lon="-5.08628623"><ele>2547</ele><speed>13.20</speed><time>2016-06-30T13:03:54Z</time><pdop>5.0</pdop><geoidheight>54.00</geoidheight><course>59.8</course><type>1</type></trkpt>
      <trkpt lat="40.61753884" lon="-5.08614022"><ele>2550</ele><speed>13.94</speed><time>2016-06-30T13:03:55Z</time><pdop>5.0</pdop><geoidheight>54.00</geoidheight><course>70.4</course><type>1</type></trkpt>
      <trkpt lat="40.61755381" lon="-5.0859811"><ele>2554</ele><speed>14.14</speed><time>2016-06-30T13:03:56Z</time><pdop>4.0</pdop><geoidheight>54.00</geoidheight><course>83.1</course><type>1</type></trkpt>
      <trkpt lat="40.6175434" lon="-5.08581505"><ele>2555</ele><speed>14.29</speed><time>2016-06-30T13:03:57Z</time><pdop>4.0</pdop><geoidheight>54.00</geoidheight><course>91.8</course><type>1</type></trkpt>
      <trkpt lat="40.61754629" lon="-5.08565112"><ele>2556</ele><speed>14.09</speed><time>2016-06-30T13:03:58Z</time><pdop>5.0</pdop><geoidheight>54.00</geoidheight><course>93.2</course><type>1</type></trkpt>
      <trkpt lat="40.61752672" lon="-5.08550831"><ele>2557</ele><speed>13.14</speed><time>2016-06-30T13:03:59Z</time><pdop>6.0</pdop><geoidheight>54.00</geoidheight><course>99.1</course><type>1</type></trkpt>
      <trkpt lat="40.6174094" lon="-5.08543029"><ele>2557</ele><speed>11.62</speed><time>2016-06-30T13:04:00Z</time><pdop>4.0</pdop><geoidheight>54.00</geoidheight><course>131.3</course><type>1</type></trkpt>
      <trkpt lat="40.61732193" lon="-5.08536945"><ele>2559</ele><speed>10.90</speed><time>2016-06-30T13:04:01Z</time><pdop>5.0</pdop><geoidheight>54.00</geoidheight><course>138.7</course><type>1</type></trkpt>
      <trkpt lat="40.61723127" lon="-5.08533913"><ele>2560</ele><speed>10.53</speed><time>2016-06-30T13:04:02Z</time><pdop>4.0</pdop><geoidheight>54.00</geoidheight><course>164.0</course><type>1</type></trkpt>
      <trkpt lat="40.61715298" lon="-5.08535715"><ele>2560</ele><speed>9.84</speed><time>2016-06-30T13:04:03Z</time><pdop>4.0</pdop><geoidheight>54.00</geoidheight><course>183.3</course><type>1</type></trkpt>
      <trkpt lat="40.61706557" lon="-5.08539624"><ele>2560</ele><speed>10.33</speed><time>2016-06-30T13:04:04Z</time><pdop>4.0</pdop><geoidheight>54.00</geoidheight><course>195.2</course><type>1</type></trkpt>
      <trkpt lat="40.61699766" lon="-5.08546824"><ele>2565</ele><speed>10.36</speed><time>2016-06-30T13:04:05Z</time><pdop>5.0</pdop><geoidheight>54.00</geoidheight><course>206.7</course><type>1</type></trkpt>
      <trkpt lat="40.61698791" lon="-5.08565245"><ele>2563</ele><speed>8.16</speed><time>2016-06-30T13:04:07Z</time><pdop>6.0</pdop><geoidheight>54.00</geoidheight><course>246.1</course><type>1</type></trkpt>
      <trkpt lat="40.61699757" lon="-5.0858467"><ele>2560</ele><speed>7.42</speed><time>2016-06-30T13:04:09Z</time><pdop>4.0</pdop><geoidheight>54.00</geoidheight><course>277.5</course><type>1</type></trkpt>
      <trkpt lat="40.61707459" lon="-5.08601691"><ele>2563</ele><speed>8.35</speed><time>2016-06-30T13:04:11Z</time><pdop>5.0</pdop><geoidheight>54.00</geoidheight><course>306.0</course><type>1</type></trkpt>
      <trkpt lat="40.61714341" lon="-5.08607967"><ele>2564</ele><speed>8.65</speed><time>2016-06-30T13:04:12Z</time><pdop>4.0</pdop><geoidheight>54.00</geoidheight><course>318.0</course><type>1</type></trkpt>
      <trkpt lat="40.6172128" lon="-5.08613004"><ele>2565</ele><speed>8.84</speed><time>2016-06-30T13:04:13Z</time><pdop>4.0</pdop><geoidheight>54.00</geoidheight><course>333.3</course><type>1</type></trkpt>
      <trkpt lat="40.61729573" lon="-5.08614876"><ele>2565</ele><speed>9.10</speed><time>2016-06-30T13:04:14Z</time><pdop>4.0</pdop><geoidheight>54.00</geoidheight><course>349.9</course><type>1</type></trkpt>
      <trkpt lat="40.6173897" lon="-5.0861481"><ele>2566</ele><speed>9.75</speed><time>2016-06-30T13:04:15Z</time><pdop>5.0</pdop><geoidheight>54.00</geoidheight><course>355.6</course><type>1</type></trkpt>
      <trkpt lat="40.61750182" lon="-5.08615298"><ele>2567</ele><speed>11.23</speed><time>2016-06-30T13:04:16Z</time><pdop>6.0</pdop><geoidheight>54.00</geoidheight><course>359.0</course><type>1</type></trkpt>
      <trkpt lat="40.61759551" lon="-5.08602108"><ele>2569</ele><speed>12.21</speed><time>2016-06-30T13:04:17Z</time><pdop>4.0</pdop><geoidheight>54.00</geoidheight><course>26.0</course><type>1</type></trkpt>
      <trkpt lat="40.61766835" lon="-5.08586083"><ele>2570</ele><speed>12.75</speed><time>2016-06-30T13:04:18Z</time><pdop>4.0</pdop><geoidheight>54.00</geoidheight><course>46.0</course><type>1</type></trkpt>
      <trkpt lat="40.6177043" lon="-5.08572488"><ele>2572</ele><speed>12.46</speed><time>2016-06-30T13:04:19Z</time><pdop>4.0</pdop><geoidheight>54.00</geoidheight><course>66.6</course><type>1</type></trkpt>
      <trkpt lat="40.61771157" lon="-5.08558678"><ele>2575</ele><speed>12.34</speed><time>2016-06-30T13:04:20Z</time><pdop>4.0</pdop><geoidheight>54.00</geoidheight><course>86.9</course><type>1</type></trkpt>
      <trkpt lat="40.61770815" lon="-5.0854503"><ele>2577</ele><speed>11.92</speed><time>2016-06-30T13:04:21Z</time><pdop>4.0</pdop><geoidheight>54.00</geoidheight><course>89.3</course><type>1</type></trkpt>
      <trkpt lat="40.61768098" lon="-5.08532221"><ele>2578</ele><speed>11.44</speed><time>2016-06-30T13:04:22Z</time><pdop>4.0</pdop><geoidheight>54.00</geoidheight><course>101.9</course><type>1</type></trkpt>
      <trkpt lat="40.6175741" lon="-5.08522536"><ele>2577</ele><speed>7.20</speed><time>2016-06-30T13:04:24Z</time><pdop>6.0</pdop><geoidheight>54.00</geoidheight><course>135.1</course><type>1</type></trkpt>
      <trkpt lat="40.61739611" lon="-5.0851874"><ele>2576</ele><speed>7.61</speed><time>2016-06-30T13:04:26Z</time><pdop>9.0</pdop><geoidheight>54.00</geoidheight><course>157.8</course><type>1</type></trkpt>
      <trkpt lat="40.61722157" lon="-5.08542079"><ele>2575</ele><speed>9.48</speed><time>2016-06-30T13:04:28Z</time><pdop>8.0</pdop><geoidheight>54.00</geoidheight><course>208.4</course><type>1</type></trkpt>
      <trkpt lat="40.61722375" lon="-5.08567032"><ele>2577</ele><speed>7.87</speed><time>2016-06-30T13:04:30Z</time><pdop>7.0</pdop><geoidheight>54.00</geoidheight><course>258.4</course><type>1</type></trkpt>
      <trkpt lat="40.61733611" lon="-5.08585934"><ele>2578</ele><speed>7.43</speed><time>2016-06-30T13:04:32Z</time><pdop>7.0</pdop><geoidheight>54.00</geoidheight><course>288.7</course><type>1</type></trkpt>
      <trkpt lat="40.61754105" lon="-5.08596841"><ele>2579</ele><speed>9.89</speed><time>2016-06-30T13:04:34Z</time><pdop>7.0</pdop><geoidheight>54.00</geoidheight><course>334.1</course><type>1</type></trkpt>
      <trkpt lat="40.61774315" lon="-5.08597564"><ele>2580</ele><speed>10.26</speed><time>2016-06-30T13:04:36Z</time><pdop>6.0</pdop><geoidheight>54.00</geoidheight><course>352.6</course><type>1</type></trkpt>
      <trkpt lat="40.61793213" lon="-5.08598053"><ele>2583</ele><speed>10.92</speed><time>2016-06-30T13:04:38Z</time><pdop>5.0</pdop><geoidheight>54.00</geoidheight><course>358.4</course><type>1</type></trkpt>
      <trkpt lat="40.61800841" lon="-5.08584524"><ele>2587</ele><speed>11.31</speed><time>2016-06-30T13:04:39Z</time><pdop>4.0</pdop><geoidheight>54.00</geoidheight><course>33.5</course><type>1</type></trkpt>
      <trkpt lat="40.61808509" lon="-5.08574711"><ele>2590</ele><speed>11.62</speed><time>2016-06-30T13:04:40Z</time><pdop>4.0</pdop><geoidheight>54.00</geoidheight><course>43.3</course><type>1</type></trkpt>
      <trkpt lat="40.61815709" lon="-5.08563598"><ele>2592</ele><speed>12.08</speed><time>2016-06-30T13:04:41Z</time><pdop>3.0</pdop><geoidheight>54.00</geoidheight><course>49.8</course><type>1</type></trkpt>
      <trkpt lat="40.61821515" lon="-5.08552718"><ele>2595</ele><speed>11.82</speed><time>2016-06-30T13:04:42Z</time><pdop>3.0</pdop><geoidheight>54.00</geoidheight><course>56.7</course><type>1</type></trkpt>
      <trkpt lat="40.61824082" lon="-5.08538931"><ele>2597</ele><speed>11.68</speed><time>2016-06-30T13:04:43Z</time><pdop>3.0</pdop><geoidheight>54.00</geoidheight><course>72.6</course><type>1</type></trkpt>
      <trkpt lat="40.61822759" lon="-5.08524998"><ele>2599</ele><speed>11.62</speed><time>2016-06-30T13:04:44Z</time><pdop>3.0</pdop><geoidheight>54.00</geoidheight><course>96.3</course><type>1</type></trkpt>
      <trkpt lat="40.61818292" lon="-5.08512062"><ele>2599</ele><speed>11.82</speed><time>2016-06-30T13:04:45Z</time><pdop>3.0</pdop><geoidheight>54.00</geoidheight><course>115.2</course><type>1</type></trkpt>
      <trkpt lat="40.61812818" lon="-5.08500729"><ele>2600</ele><speed>11.42</speed><time>2016-06-30T13:04:46Z</time><pdop>4.0</pdop><geoidheight>54.00</geoidheight><course>119.0</course><type>1</type></trkpt>
      <trkpt lat="40.61808256" lon="-5.08490951"><ele>2599</ele><speed>10.40</speed><time>2016-06-30T13:04:47Z</time><pdop>5.0</pdop><geoidheight>54.00</geoidheight><course>122.3</course><type>1</type></trkpt>
      <trkpt lat="40.617996" lon="-5.08484418"><ele>2599</ele><speed>10.41</speed><time>2016-06-30T13:04:48Z</time><pdop>6.0</pdop><geoidheight>54.00</geoidheight><course>137.6</course><type>1</type></trkpt>
      <trkpt lat="40.61785742" lon="-5.08488793"><ele>2599</ele><speed>11.48</speed><time>2016-06-30T13:04:49Z</time><pdop>4.0</pdop><geoidheight>54.00</geoidheight><course>170.3</course><type>1</type></trkpt>
      <trkpt lat="40.61775517" lon="-5.08490922"><ele>2599</ele><speed>11.29</speed><time>2016-06-30T13:04:50Z</time><pdop>4.0</pdop><geoidheight>54.00</geoidheight><course>182.9</course><type>1</type></trkpt>
      <trkpt lat="40.61766287" lon="-5.08494425"><ele>2600</ele><speed>10.86</speed><time>2016-06-30T13:04:51Z</time><pdop>4.0</pdop><geoidheight>54.00</geoidheight><course>197.6</course><type>1</type></trkpt>
      <trkpt lat="40.61758095" lon="-5.08500808"><ele>2600</ele><speed>10.33</speed><time>2016-06-30T13:04:52Z</time><pdop>4.0</pdop><geoidheight>54.00</geoidheight><course>210.4</course><type>1</type></trkpt>
      <trkpt lat="40.61751893" lon="-5.08508681"><ele>2601</ele><speed>9.83</speed><time>2016-06-30T13:04:53Z</time><pdop>4.0</pdop><geoidheight>54.00</geoidheight><course>221.0</course><type>1</type></trkpt>
      <trkpt lat="40.61749273" lon="-5.08516856"><ele>2602</ele><speed>8.52</speed><time>2016-06-30T13:04:54Z</time><pdop>3.0</pdop><geoidheight>54.00</geoidheight><course>235.1</course><type>1</type></trkpt>
      <trkpt lat="40.61747017" lon="-5.08526544"><ele>2603</ele><speed>8.27</speed><time>2016-06-30T13:04:55Z</time><pdop>3.0</pdop><geoidheight>54.00</geoidheight><course>245.0</course><type>1</type></trkpt>
      <trkpt lat="40.61745786" lon="-5.08534937"><ele>2602</ele><speed>7.83</speed><time>2016-06-30T13:04:56Z</time><pdop>3.0</pdop><geoidheight>54.00</geoidheight><course>254.7</course><type>1</type></trkpt>
      <trkpt lat="40.61744051" lon="-5.08543818"><ele>2603</ele><speed>7.71</speed><time>2016-06-30T13:04:57Z</time><pdop>3.0</pdop><geoidheight>54.00</geoidheight><course>262.8</course><type>1</type></trkpt>
      <trkpt lat="40.61744846" lon="-5.08553792"><ele>2601</ele><speed>7.86</speed><time>2016-06-30T13:04:58Z</time><pdop>3.0</pdop><geoidheight>54.00</geoidheight><course>271.9</course><type>1</type></trkpt>
      <trkpt lat="40.61744658" lon="-5.08563655"><ele>2600</ele><speed>8.08</speed><time>2016-06-30T13:04:59Z</time><pdop>4.0</pdop><geoidheight>54.00</geoidheight><course>278.3</course><type>1</type></trkpt>
      <trkpt lat="40.61756689" lon="-5.08584502"><ele>2602</ele><speed>10.92</speed><time>2016-06-30T13:05:01Z</time><pdop>4.0</pdop><geoidheight>54.00</geoidheight><course>303.5</course><type>1</type></trkpt>
      <trkpt lat="40.617636" lon="-5.085942"><ele>2602</ele><speed>11.52</speed><time>2016-06-30T13:05:02Z</time><pdop>4.0</pdop><geoidheight>54.00</geoidheight><course>308.3</course><type>1</type></trkpt>
      <trkpt lat="40.61770511" lon="-5.08603731"><ele>2605</ele><speed>11.51</speed><time>2016-06-30T13:05:03Z</time><pdop>4.0</pdop><geoidheight>54.00</geoidheight><course>311.3</course><type>1</type></trkpt>
      <trkpt lat="40.61776996" lon="-5.08612084"><ele>2607</ele><speed>10.21</speed><time>2016-06-30T13:05:04Z</time><pdop>3.0</pdop><geoidheight>54.00</geoidheight><course>310.2</course><type>1</type></trkpt>
      <trkpt lat="40.61780783" lon="-5.0862132"><ele>2608</ele><speed>9.27</speed><time>2016-06-30T13:05:05Z</time><pdop>4.0</pdop><geoidheight>54.00</geoidheight><course>304.4</course><type>1</type></trkpt>
      <trkpt lat="40.61785596" lon="-5.08631479"><ele>2610</ele><speed>9.54</speed><time>2016-06-30T13:05:06Z</time><pdop>4.0</pdop><geoidheight>54.00</geoidheight><course>302.4</course><type>1</type></trkpt>
      <trkpt lat="40.61790302" lon="-5.08642212"><ele>2611</ele><speed>10.37</speed><time>2016-06-30T13:05:07Z</time><pdop>3.0</pdop><geoidheight>54.00</geoidheight><course>303.6</course><type>1</type></trkpt>
      <trkpt lat="40.61796598" lon="-5.08651273"><ele>2614</ele><speed>10.82</speed><time>2016-06-30T13:05:08Z</time><pdop>4.0</pdop><geoidheight>54.00</geoidheight><course>309.2</course><type>1</type></trkpt>
      <trkpt lat="40.61802911" lon="-5.08661126"><ele>2616</ele><speed>10.36</speed><time>2016-06-30T13:05:09Z</time><pdop>4.0</pdop><geoidheight>54.00</geoidheight><course>315.1</course><type>1</type></trkpt>
      <trkpt lat="40.61809547" lon="-5.08667386"><ele>2617</ele><speed>9.36</speed><time>2016-06-30T13:05:10Z</time><pdop>5.0</pdop><geoidheight>54.00</geoidheight><course>318.9</course><type>1</type></trkpt>
      <trkpt lat="40.61827127" lon="-5.08661484"><ele>2620</ele><speed>9.24</speed><time>2016-06-30T13:05:12Z</time><pdop>7.0</pdop><geoidheight>54.00</geoidheight><course>1.0</course><type>1</type></trkpt>
      <trkpt lat="40.61828192" lon="-5.08645014"><ele>2624</ele><speed>9.25</speed><time>2016-06-30T13:05:13Z</time><pdop>6.0</pdop><geoidheight>54.00</geoidheight><course>48.7</course><type>1</type></trkpt>
      <trkpt lat="40.61834209" lon="-5.08623319"><ele>2629</ele><speed>9.91</speed><time>2016-06-30T13:05:15Z</time><pdop>4.0</pdop><geoidheight>54.00</geoidheight><course>87.9</course><type>1</type></trkpt>
      <trkpt lat="40.61833497" lon="-5.08611942"><ele>2630</ele><speed>10.89</speed><time>2016-06-30T13:05:16Z</time><pdop>4.0</pdop><geoidheight>54.00</geoidheight><course>99.6</course><type>1</type></trkpt>
      <trkpt lat="40.61832243" lon="-5.08598737"><ele>2631</ele><speed>11.14</speed><time>2016-06-30T13:05:17Z</time><pdop>5.0</pdop><geoidheight>54.00</geoidheight><course>101.5</course><type>1</type></trkpt>
      <trkpt lat="40.61829126" lon="-5.08585354"><ele>2631</ele><speed>11.82</speed><time>2016-06-30T13:05:18Z</time><pdop>6.0</pdop><geoidheight>54.00</geoidheight><course>106.8</course><type>1</type></trkpt>
      <trkpt lat="40.61816524" lon="-5.0857175"><ele>2633</ele><speed>8.58</speed><time>2016-06-30T13:05:20Z</time><pdop>7.0</pdop><geoidheight>54.00</geoidheight><course>133.2</course><type>1</type></trkpt>
      <trkpt lat="40.61787905" lon="-5.08572001"><ele>2637</ele><speed>14.02</speed><time>2016-06-30T13:05:22Z</time><pdop>5.0</pdop><geoidheight>54.00</geoidheight><course>183.4</course><type>1</type></trkpt>
      <trkpt lat="40.61774836" lon="-5.08577332"><ele>2638</ele><speed>13.72</speed><time>2016-06-30T13:05:23Z</time><pdop>4.0</pdop><geoidheight>54.00</geoidheight><course>195.1</course><type>1</type></trkpt>
      <trkpt lat="40.61762723" lon="-5.08582104"><ele>2639</ele><speed>13.97</speed><time>2016-06-30T13:05:24Z</time><pdop>4.0</pdop><geoidheight>54.00</geoidheight><course>199.8</course><type>1</type></trkpt>
      <trkpt lat="40.61755121" lon="-5.08592528"><ele>2640</ele><speed>13.29</speed><time>2016-06-30T13:05:25Z</time><pdop>5.0</pdop><geoidheight>54.00</geoidheight><course>211.9</course><type>1</type></trkpt>
      <trkpt lat="40.61756482" lon="-5.0860996"><ele>2640</ele><speed>8.09</speed><time>2016-06-30T13:05:27Z</time><pdop>5.0</pdop><geoidheight>54.00</geoidheight><course>240.1</course><type>1</type></trkpt>
      <trkpt lat="40.6176141" lon="-5.08630971"><ele>2642</ele><speed>8.43</speed><time>2016-06-30T13:05:29Z</time><pdop>6.0</pdop><geoidheight>54.00</geoidheight><course>282.0</course><type>1</type></trkpt>
      <trkpt lat="40.61770189" lon="-5.08641938"><ele>2643</ele><speed>9.86</speed><time>2016-06-30T13:05:30Z</time><pdop>4.0</pdop><geoidheight>54.00</geoidheight><course>310.4</course><type>1</type></trkpt>
      <trkpt lat="40.61779149" lon="-5.08647912"><ele>2644</ele><speed>9.50</speed><time>2016-06-30T13:05:31Z</time><pdop>3.0</pdop><geoidheight>54.00</geoidheight><course>332.7</course><type>1</type></trkpt>
      <trkpt lat="40.61787489" lon="-5.08650246"><ele>2646</ele><speed>9.72</speed><time>2016-06-30T13:05:32Z</time><pdop>3.0</pdop><geoidheight>54.00</geoidheight><course>351.1</course><type>1</type></trkpt>
      <trkpt lat="40.6179606" lon="-5.08649779"><ele>2648</ele><speed>9.37</speed><time>2016-06-30T13:05:33Z</time><pdop>3.0</pdop><geoidheight>54.00</geoidheight><course>1.3</course><type>1</type></trkpt>
      <trkpt lat="40.6180464" lon="-5.08648848"><ele>2649</ele><speed>8.99</speed><time>2016-06-30T13:05:34Z</time><pdop>3.0</pdop><geoidheight>54.00</geoidheight><course>4.7</course><type>1</type></trkpt>
      <trkpt lat="40.61813347" lon="-5.08648566"><ele>2652</ele><speed>9.04</speed><time>2016-06-30T13:05:35Z</time><pdop>3.0</pdop><geoidheight>54.00</geoidheight><course>5.0</course><type>1</type></trkpt>
      <trkpt lat="40.61820442" lon="-5.0864536"><ele>2654</ele><speed>8.83</speed><time>2016-06-30T13:05:36Z</time><pdop>3.0</pdop><geoidheight>54.00</geoidheight><course>11.9</course><type>1</type></trkpt>
      <trkpt lat="40.61827429" lon="-5.08641615"><ele>2656</ele><speed>8.60</speed><time>2016-06-30T13:05:37Z</time><pdop>3.0</pdop><geoidheight>54.00</geoidheight><course>26.0</course><type>1</type></trkpt>
      <trkpt lat="40.61834012" lon="-5.08635578"><ele>2657</ele><speed>9.13</speed><time>2016-06-30T13:05:38Z</time><pdop>4.0</pdop><geoidheight>54.00</geoidheight><course>34.8</course><type>1</type></trkpt>
      <trkpt lat="40.61842214" lon="-5.08626342"><ele>2657</ele><speed>10.83</speed><time>2016-06-30T13:05:39Z</time><pdop>4.0</pdop><geoidheight>54.00</geoidheight><course>44.3</course><type>1</type></trkpt>
      <trkpt lat="40.6184489" lon="-5.08614814"><ele>2658</ele><speed>10.98</speed><time>2016-06-30T13:05:40Z</time><pdop>5.0</pdop><geoidheight>54.00</geoidheight><course>60.2</course><type>1</type></trkpt>
      <trkpt lat="40.61842708" lon="-5.08593913"><ele>2658</ele><speed>8.67</speed><time>2016-06-30T13:05:42Z</time><pdop>5.0</pdop><geoidheight>54.00</geoidheight><course>86.0</course><type>1</type></trkpt>
      <trkpt lat="40.61823085" lon="-5.08579486"><ele>2661</ele><speed>7.90</speed><time>2016-06-30T13:05:45Z</time><pdop>6.0</pdop><geoidheight>54.00</geoidheight><course>156.7</course><type>1</type></trkpt>
      <trkpt lat="40.61807982" lon="-5.08589039"><ele>2663</ele><speed>11.01</speed><time>2016-06-30T13:05:46Z</time><pdop>4.0</pdop><geoidheight>54.00</geoidheight><course>198.6</course><type>1</type></trkpt>
      <trkpt lat="40.61799767" lon="-5.08595735"><ele>2664</ele><speed>11.72</speed><time>2016-06-30T13:05:47Z</time><pdop>4.0</pdop><geoidheight>54.00</geoidheight><course>218.8</course><type>1</type></trkpt>
      <trkpt lat="40.61796069" lon="-5.08607477"><ele>2667</ele><speed>12.16</speed><time>2016-06-30T13:05:48Z</time><pdop>3.0</pdop><geoidheight>54.00</geoidheight><course>235.6</course><type>1</type></trkpt>
      <trkpt lat="40.61791595" lon="-5.08619914"><ele>2668</ele><speed>12.14</speed><time>2016-06-30T13:05:49Z</time><pdop>4.0</pdop><geoidheight>54.00</geoidheight><course>241.5</course><type>1</type></trkpt>
      <trkpt lat="40.61786572" lon="-5.0863087"><ele>2669</ele><speed>11.16</speed><time>2016-06-30T13:05:50Z</time><pdop>4.0</pdop><geoidheight>54.00</geoidheight><course>244.6</course><type>1</type></trkpt>
      <trkpt lat="40.61784664" lon="-5.08640534"><ele>2655</ele><speed>9.43</speed><time>2016-06-30T13:05:51Z</time><pdop>4.0</pdop><geoidheight>54.00</geoidheight><course>252.9</course><type>1</type></trkpt>
      <trkpt lat="40.6178583" lon="-5.08651211"><ele>2659</ele><speed>8.85</speed><time>2016-06-30T13:05:52Z</time><pdop>4.0</pdop><geoidheight>54.00</geoidheight><course>267.1</course><type>1</type></trkpt>
      <trkpt lat="40.61788577" lon="-5.08661514"><ele>2664</ele><speed>8.60</speed><time>2016-06-30T13:05:53Z</time><pdop>5.0</pdop><geoidheight>54.00</geoidheight><course>281.3</course><type>1</type></trkpt>
      <trkpt lat="40.61799003" lon="-5.08670859"><ele>2668</ele><speed>10.08</speed><time>2016-06-30T13:05:54Z</time><pdop>4.0</pdop><geoidheight>54.00</geoidheight><course>310.3</course><type>1</type></trkpt>
      <trkpt lat="40.61805845" lon="-5.08676397"><ele>2672</ele><speed>10.23</speed><time>2016-06-30T13:05:55Z</time><pdop>4.0</pdop><geoidheight>54.00</geoidheight><course>328.2</course><type>1</type></trkpt>
      <trkpt lat="40.61815226" lon="-5.08679612"><ele>2674</ele><speed>10.20</speed><time>2016-06-30T13:05:56Z</time><pdop>4.0</pdop><geoidheight>54.00</geoidheight><course>342.2</course><type>1</type></trkpt>
      <trkpt lat="40.61823809" lon="-5.08680738"><ele>2676</ele><speed>10.16</speed><time>2016-06-30T13:05:57Z</time><pdop>4.0</pdop><geoidheight>54.00</geoidheight><course>352.3</course><type>1</type></trkpt>
      <trkpt lat="40.61830769" lon="-5.08672732"><ele>2676</ele><speed>9.65</speed><time>2016-06-30T13:05:58Z</time><pdop>4.0</pdop><geoidheight>54.00</geoidheight><course>18.2</course><type>1</type></trkpt>
      <trkpt lat="40.61835178" lon="-5.08662182"><ele>2678</ele><speed>9.48</speed><time>2016-06-30T13:05:59Z</time><pdop>4.0</pdop><geoidheight>54.00</geoidheight><course>46.9</course><type>1</type></trkpt>
      <trkpt lat="40.61839361" lon="-5.08652111"><ele>2680</ele><speed>10.02</speed><time>2016-06-30T13:06:00Z</time><pdop>3.0</pdop><geoidheight>54.00</geoidheight><course>60.9</course><type>1</type></trkpt>
      <trkpt lat="40.6184364" lon="-5.08640412"><ele>2681</ele><speed>10.87</speed><time>2016-06-30T13:06:01Z</time><pdop>3.0</pdop><geoidheight>54.00</geoidheight><course>68.7</course><type>1</type></trkpt>
      <trkpt lat="40.61845836" lon="-5.08627379"><ele>2685</ele><speed>11.68</speed><time>2016-06-30T13:06:02Z</time><pdop>3.0</pdop><geoidheight>54.00</geoidheight><course>73.8</course><type>1</type></trkpt>
      <trkpt lat="40.61848707" lon="-5.08612675"><ele>2686</ele><speed>12.55</speed><time>2016-06-30T13:06:03Z</time><pdop>4.0</pdop><geoidheight>54.00</geoidheight><course>76.0</course><type>1</type></trkpt>
      <trkpt lat="40.61850692" lon="-5.08597585"><ele>2687</ele><speed>12.83</speed><time>2016-06-30T13:06:04Z</time><pdop>4.0</pdop><geoidheight>54.00</geoidheight><course>78.5</course><type>1</type></trkpt>
      <trkpt lat="40.61852143" lon="-5.08582262"><ele>2687</ele><speed>12.75</speed><time>2016-06-30T13:06:05Z</time><pdop>6.0</pdop><geoidheight>54.00</geoidheight><course>81.0</course><type>1</type></trkpt>
      <trkpt lat="40.61844727" lon="-5.08563164"><ele>2690</ele><speed>9.69</speed><time>2016-06-30T13:06:07Z</time><pdop>5.0</pdop><geoidheight>54.00</geoidheight><course>103.6</course><type>1</type></trkpt>
      <trkpt lat="40.6183841" lon="-5.08554454"><ele>2690</ele><speed>9.63</speed><time>2016-06-30T13:06:08Z</time><pdop>5.0</pdop><geoidheight>54.00</geoidheight><course>117.4</course><type>1</type></trkpt>
      <trkpt lat="40.61822591" lon="-5.08544521"><ele>2692</ele><speed>9.69</speed><time>2016-06-30T13:06:10Z</time><pdop>7.0</pdop><geoidheight>54.00</geoidheight><course>147.5</course><type>1</type></trkpt>
      <trkpt lat="40.61809197" lon="-5.08542889"><ele>2691</ele><speed>11.21</speed><time>2016-06-30T13:06:11Z</time><pdop>7.0</pdop><geoidheight>54.00</geoidheight><course>160.2</course><type>1</type></trkpt>
      <trkpt lat="40.61789836" lon="-5.08554587"><ele>2692</ele><speed>10.99</speed><time>2016-06-30T13:06:13Z</time><pdop>6.0</pdop><geoidheight>54.00</geoidheight><course>195.0</course><type>1</type></trkpt>
      <trkpt lat="40.61767578" lon="-5.08564241"><ele>2698</ele><speed>12.64</speed><time>2016-06-30T13:06:15Z</time><pdop>6.0</pdop><geoidheight>54.00</geoidheight><course>206.4</course><type>1</type></trkpt>
      <trkpt lat="40.61760514" lon="-5.08574621"><ele>2651</ele><speed>12.94</speed><time>2016-06-30T13:06:16Z</time><pdop>5.0</pdop><geoidheight>54.00</geoidheight><course>219.1</course><type>1</type></trkpt>
      <trkpt lat="40.61752893" lon="-5.08586041"><ele>2667</ele><speed>12.83</speed><time>2016-06-30T13:06:17Z</time><pdop>5.0</pdop><geoidheight>54.00</geoidheight><course>222.9</course><type>1</type></trkpt>
      <trkpt lat="40.61749293" lon="-5.08599613"><ele>2678</ele><speed>12.40</speed><time>2016-06-30T13:06:18Z</time><pdop>6.0</pdop><geoidheight>54.00</geoidheight><course>232.1</course><type>1</type></trkpt>
      <trkpt lat="40.61756367" lon="-5.08612206"><ele>2686</ele><speed>10.43</speed><time>2016-06-30T13:06:19Z</time><pdop>5.0</pdop><geoidheight>54.00</geoidheight><course>266.0</course><type>1</type></trkpt>
      <trkpt lat="40.61770221" lon="-5.08628693"><ele>2699</ele><speed>9.22</speed><time>2016-06-30T13:06:21Z</time><pdop>5.0</pdop><geoidheight>54.00</geoidheight><course>308.7</course><type>1</type></trkpt>
      <trkpt lat="40.61786339" lon="-5.08633155"><ele>2702</ele><speed>8.56</speed><time>2016-06-30T13:06:23Z</time><pdop>5.0</pdop><geoidheight>54.00</geoidheight><course>343.8</course><type>1</type></trkpt>
      <trkpt lat="40.61802898" lon="-5.0862938"><ele>2706</ele><speed>9.31</speed><time>2016-06-30T13:06:25Z</time><pdop>6.0</pdop><geoidheight>54.00</geoidheight><course>1.4</course><type>1</type></trkpt>
      <trkpt lat="40.61814269" lon="-5.08615963"><ele>2709</ele><speed>9.01</speed><time>2016-06-30T13:06:27Z</time><pdop>6.0</pdop><geoidheight>54.00</geoidheight><course>35.5</course><type>1</type></trkpt>
      <trkpt lat="40.61825073" lon="-5.08596587"><ele>2712</ele><speed>9.61</speed><time>2016-06-30T13:06:29Z</time><pdop>5.0</pdop><geoidheight>54.00</geoidheight><course>55.4</course><type>1</type></trkpt>
      <trkpt lat="40.61833192" lon="-5.08575174"><ele>2717</ele><speed>10.22</speed><time>2016-06-30T13:06:31Z</time><pdop>4.0</pdop><geoidheight>54.00</geoidheight><course>68.6</course><type>1</type></trkpt>
      <trkpt lat="40.61835312" lon="-5.08563185"><ele>2720</ele><speed>10.11</speed><time>2016-06-30T13:06:32Z</time><pdop>4.0</pdop><geoidheight>54.00</geoidheight><course>79.2</course><type>1</type></trkpt>
      <trkpt lat="40.61834737" lon="-5.08551555"><ele>2721</ele><speed>10.11</speed><time>2016-06-30T13:06:33Z</time><pdop>4.0</pdop><geoidheight>54.00</geoidheight><course>92.4</course><type>1</type></trkpt>
      <trkpt lat="40.61833951" lon="-5.08539407"><ele>2722</ele><speed>10.43</speed><time>2016-06-30T13:06:34Z</time><pdop>4.0</pdop><geoidheight>54.00</geoidheight><course>95.5</course><type>1</type></trkpt>
      <trkpt lat="40.61832341" lon="-5.08526855"><ele>2721</ele><speed>10.66</speed><time>2016-06-30T13:06:35Z</time><pdop>5.0</pdop><geoidheight>54.00</geoidheight><course>100.3</course><type>1</type></trkpt>
      <trkpt lat="40.61814724" lon="-5.08530893"><ele>2724</ele><speed>8.11</speed><time>2016-06-30T13:06:37Z</time><pdop>5.0</pdop><geoidheight>54.00</geoidheight><course>172.0</course><type>1</type></trkpt>
      <trkpt lat="40.61803331" lon="-5.08533588"><ele>2724</ele><speed>9.66</speed><time>2016-06-30T13:06:38Z</time><pdop>5.0</pdop><geoidheight>54.00</geoidheight><course>184.8</course><type>1</type></trkpt>
      <trkpt lat="40.61796362" lon="-5.08543666"><ele>2724</ele><speed>11.43</speed><time>2016-06-30T13:06:39Z</time><pdop>4.0</pdop><geoidheight>54.00</geoidheight><course>213.5</course><type>1</type></trkpt>
      <trkpt lat="40.61786888" lon="-5.08553678"><ele>2725</ele><speed>12.55</speed><time>2016-06-30T13:06:40Z</time><pdop>4.0</pdop><geoidheight>54.00</geoidheight><course>223.1</course><type>1</type></trkpt>
      <trkpt lat="40.61779945" lon="-5.08564947"><ele>2724</ele><speed>12.27</speed><time>2016-06-30T13:06:41Z</time><pdop>4.0</pdop><geoidheight>54.00</geoidheight><course>231.1</course><type>1</type></trkpt>
      <trkpt lat="40.61773827" lon="-5.08578435"><ele>2724</ele><speed>12.13</speed><time>2016-06-30T13:06:42Z</time><pdop>4.0</pdop><geoidheight>54.00</geoidheight><course>240.8</course><type>1</type></trkpt>
      <trkpt lat="40.61778909" lon="-5.08588882"><ele>2725</ele><speed>10.05</speed><time>2016-06-30T13:06:43Z</time><pdop>4.0</pdop><geoidheight>54.00</geoidheight><course>271.1</course><type>1</type></trkpt>
      <trkpt lat="40.6178076" lon="-5.0859876"><ele>2725</ele><speed>9.49</speed><time>2016-06-30T13:06:44Z</time><pdop>4.0</pdop><geoidheight>54.00</geoidheight><course>284.9</course><type>1</type></trkpt>
      <trkpt lat="40.61784562" lon="-5.0860879"><ele>2726</ele><speed>9.42</speed><time>2016-06-30T13:06:45Z</time><pdop>3.0</pdop><geoidheight>54.00</geoidheight><course>295.2</course><type>1</type></trkpt>
      <trkpt lat="40.61789222" lon="-5.08617511"><ele>2727</ele><speed>9.68</speed><time>2016-06-30T13:06:46Z</time><pdop>3.0</pdop><geoidheight>54.00</geoidheight><course>304.8</course><type>1</type></trkpt>
      <trkpt lat="40.61795129" lon="-5.08623636"><ele>2726</ele><speed>9.20</speed><time>2016-06-30T13:06:47Z</time><pdop>3.0</pdop><geoidheight>54.00</geoidheight><course>318.7</course><type>1</type></trkpt>
      <trkpt lat="40.61802571" lon="-5.08628746"><ele>2726</ele><speed>9.56</speed><time>2016-06-30T13:06:48Z</time><pdop>3.0</pdop><geoidheight>54.00</geoidheight><course>328.9</course><type>1</type></trkpt>
      <trkpt lat="40.61810136" lon="-5.08632517"><ele>2728</ele><speed>9.45</speed><time>2016-06-30T13:06:49Z</time><pdop>3.0</pdop><geoidheight>54.00</geoidheight><course>339.0</course><type>1</type></trkpt>
      <trkpt lat="40.61819465" lon="-5.08634489"><ele>2728</ele><speed>9.44</speed><time>2016-06-30T13:06:50Z</time><pdop>3.0</pdop><geoidheight>54.00</geoidheight><course>349.8</course><type>1</type></trkpt>
      <trkpt lat="40.61827374" lon="-5.08632562"><ele>2728</ele><speed>8.94</speed><time>2016-06-30T13:06:51Z</time><pdop>3.0</pdop><geoidheight>54.00</geoidheight><course>0.9</course><type>1</type></trkpt>
      <trkpt lat="40.61835738" lon="-5.08628559"><ele>2726</ele><speed>8.98</speed><time>2016-06-30T13:06:52Z</time><pdop>3.0</pdop><geoidheight>54.00</geoidheight><course>13.6</course><type>1</type></trkpt>
      <trkpt lat="40.61843722" lon="-5.0862592"><ele>2725</ele><speed>9.51</speed><time>2016-06-30T13:06:53Z</time><pdop>3.0</pdop><geoidheight>54.00</geoidheight><course>15.6</course><type>1</type></trkpt>
      <trkpt lat="40.61852454" lon="-5.08623738"><ele>2724</ele><speed>9.86</speed><time>2016-06-30T13:06:54Z</time><pdop>3.0</pdop><geoidheight>54.00</geoidheight><course>13.0</course><type>1</type></trkpt>
      <trkpt lat="40.61861543" lon="-5.08621673"><ele>2723</ele><speed>9.92</speed><time>2016-06-30T13:06:55Z</time><pdop>3.0</pdop><geoidheight>54.00</geoidheight><course>10.6</course><type>1</type></trkpt>
      <trkpt lat="40.61869698" lon="-5.08620523"><ele>2725</ele><speed>9.69</speed><time>2016-06-30T13:06:56Z</time><pdop>3.0</pdop><geoidheight>54.00</geoidheight><course>7.6</course><type>1</type></trkpt>
      <trkpt lat="40.61878274" lon="-5.08619588"><ele>2724</ele><speed>9.43</speed><time>2016-06-30T13:06:57Z</time><pdop>3.0</pdop><geoidheight>54.00</geoidheight><course>5.4</course><type>1</type></trkpt>
      <trkpt lat="40.61886031" lon="-5.08618423"><ele>2724</ele><speed>9.21</speed><time>2016-06-30T13:06:58Z</time><pdop>3.0</pdop><geoidheight>54.00</geoidheight><course>5.3</course><type>1</type></trkpt>
      <trkpt lat="40.61894393" lon="-5.0861746"><ele>2723</ele><speed>9.17</speed><time>2016-06-30T13:06:59Z</time><pdop>3.0</pdop><geoidheight>54.00</geoidheight><course>5.5</course><type>1</type></trkpt>
      <trkpt lat="40.6190201" lon="-5.08616662"><ele>2723</ele><speed>8.64</speed><time>2016-06-30T13:07:00Z</time><pdop>3.0</pdop><geoidheight>54.00</geoidheight><course>5.5</course><type>1</type></trkpt>
      <trkpt lat="40.61909604" lon="-5.0861512"><ele>2723</ele><speed>8.49</speed><time>2016-06-30T13:07:01Z</time><pdop>3.0</pdop><geoidheight>54.00</geoidheight><course>6.6</course><type>1</type></trkpt>
      <trkpt lat="40.61917837" lon="-5.08612623"><ele>2722</ele><speed>8.61</speed><time>2016-06-30T13:07:02Z</time><pdop>3.0</pdop><geoidheight>54.00</geoidheight><course>10.0</course><type>1</type></trkpt>
      <trkpt lat="40.61925882" lon="-5.0860949"><ele>2721</ele><speed>9.13</speed><time>2016-06-30T13:07:03Z</time><pdop>3.0</pdop><geoidheight>54.00</geoidheight><course>14.0</course><type>1</type></trkpt>
      <trkpt lat="40.6193383" lon="-5.08603713"><ele>2720</ele><speed>9.72</speed><time>2016-06-30T13:07:04Z</time><pdop>3.0</pdop><geoidheight>54.00</geoidheight><course>20.6</course><type>1</type></trkpt>
      <trkpt lat="40.61941716" lon="-5.08597393"><ele>2720</ele><speed>10.28</speed><time>2016-06-30T13:07:05Z</time><pdop>3.0</pdop><geoidheight>54.00</geoidheight><course>31.2</course><type>1</type></trkpt>
      <trkpt lat="40.61947563" lon="-5.08588267"><ele>2721</ele><speed>10.53</speed><time>2016-06-30T13:07:06Z</time><pdop>3.0</pdop><geoidheight>54.00</geoidheight><course>46.3</course><type>1</type></trkpt>
      <trkpt lat="40.61952482" lon="-5.08578061"><ele>2723</ele><speed>10.45</speed><time>2016-06-30T13:07:07Z</time><pdop>3.0</pdop><geoidheight>54.00</geoidheight><course>58.7</course><type>1</type></trkpt>
      <trkpt lat="40.61955902" lon="-5.08568407"><ele>2724</ele><speed>9.60</speed><time>2016-06-30T13:07:08Z</time><pdop>3.0</pdop><geoidheight>54.00</geoidheight><course>66.0</course><type>1</type></trkpt>
      <trkpt lat="40.61959644" lon="-5.08559809"><ele>2724</ele><speed>8.73</speed><time>2016-06-30T13:07:09Z</time><pdop>3.0</pdop><geoidheight>54.00</geoidheight><course>63.5</course><type>1</type></trkpt>
      <trkpt lat="40.61963952" lon="-5.08552144"><ele>2722</ele><speed>9.02</speed><time>2016-06-30T13:07:10Z</time><pdop>3.0</pdop><geoidheight>54.00</geoidheight><course>56.5</course><type>1</type></trkpt>
      <trkpt lat="40.61969151" lon="-5.08542503"><ele>2721</ele><speed>10.15</speed><time>2016-06-30T13:07:11Z</time><pdop>3.0</pdop><geoidheight>54.00</geoidheight><course>55.7</course><type>1</type></trkpt>
      <trkpt lat="40.61974046" lon="-5.0853164"><ele>2720</ele><speed>10.96</speed><time>2016-06-30T13:07:12Z</time><pdop>3.0</pdop><geoidheight>54.00</geoidheight><course>59.2</course><type>1</type></trkpt>
      <trkpt lat="40.61978426" lon="-5.08519172"><ele>2719</ele><speed>11.47</speed><time>2016-06-30T13:07:13Z</time><pdop>3.0</pdop><geoidheight>54.00</geoidheight><course>64.5</course><type>1</type></trkpt>
      <trkpt lat="40.61982303" lon="-5.08506361"><ele>2719</ele><speed>11.63</speed><time>2016-06-30T13:07:14Z</time><pdop>3.0</pdop><geoidheight>54.00</geoidheight><course>69.9</course><type>1</type></trkpt>
      <trkpt lat="40.61984906" lon="-5.08493584"><ele>2719</ele><speed>11.77</speed><time>2016-06-30T13:07:15Z</time><pdop>3.0</pdop><geoidheight>54.00</geoidheight><course>76.1</course><type>1</type></trkpt>
      <trkpt lat="40.61985603" lon="-5.0847943"><ele>2718</ele><speed>11.91</speed><time>2016-06-30T13:07:16Z</time><pdop>3.0</pdop><geoidheight>54.00</geoidheight><course>83.3</course><type>1</type></trkpt>
      <trkpt lat="40.61984884" lon="-5.08465423"><ele>2717</ele><speed>11.66</speed><time>2016-06-30T13:07:17Z</time><pdop>3.0</pdop><geoidheight>54.00</geoidheight><course>92.5</course><type>1</type></trkpt>
      <trkpt lat="40.61983292" lon="-5.08452682"><ele>2717</ele><speed>11.47</speed><time>2016-06-30T13:07:18Z</time><pdop>3.0</pdop><geoidheight>54.00</geoidheight><course>101.6</course><type>1</type></trkpt>
      <trkpt lat="40.6197939" lon="-5.08439422"><ele>2716</ele><speed>11.36</speed><time>2016-06-30T13:07:19Z</time><pdop>3.0</pdop><geoidheight>54.00</geoidheight><course>109.1</course><type>1</type></trkpt>
      <trkpt lat="40.61974898" lon="-5.08428024"><ele>2716</ele><speed>10.47</speed><time>2016-06-30T13:07:20Z</time><pdop>3.0</pdop><geoidheight>54.00</geoidheight><course>114.6</course><type>1</type></trkpt>
      <trkpt lat="40.61970174" lon="-5.08418479"><ele>2716</ele><speed>9.74</speed><time>2016-06-30T13:07:21Z</time><pdop>3.0</pdop><geoidheight>54.00</geoidheight><course>120.3</course><type>1</type></trkpt>
      <trkpt lat="40.61964959" lon="-5.08409168"><ele>2715</ele><speed>9.47</speed><time>2016-06-30T13:07:22Z</time><pdop>3.0</pdop><geoidheight>54.00</geoidheight><course>125.6</course><type>1</type></trkpt>
      <trkpt lat="40.61959053" lon="-5.08400709"><ele>2715</ele><speed>9.57</speed><time>2016-06-30T13:07:23Z</time><pdop>3.0</pdop><geoidheight>54.00</geoidheight><course>130.3</course><type>1</type></trkpt>
      <trkpt lat="40.61952832" lon="-5.08392006"><ele>2714</ele><speed>9.85</speed><time>2016-06-30T13:07:24Z</time><pdop>3.0</pdop><geoidheight>54.00</geoidheight><course>132.7</course><type>1</type></trkpt>
      <trkpt lat="40.61946206" lon="-5.08384397"><ele>2713</ele><speed>9.71</speed><time>2016-06-30T13:07:25Z</time><pdop>3.0</pdop><geoidheight>54.00</geoidheight><course>138.6</course><type>1</type></trkpt>
      <trkpt lat="40.61938712" lon="-5.08378485"><ele>2713</ele><speed>9.84</speed><time>2016-06-30T13:07:26Z</time><pdop>3.0</pdop><geoidheight>54.00</geoidheight><course>145.5</course><type>1</type></trkpt>
      <trkpt lat="40.61930874" lon="-5.08372251"><ele>2713</ele><speed>10.05</speed><time>2016-06-30T13:07:27Z</time><pdop>3.0</pdop><geoidheight>54.00</geoidheight><course>151.2</course><type>1</type></trkpt>
      <trkpt lat="40.61922086" lon="-5.08368141"><ele>2712</ele><speed>10.80</speed><time>2016-06-30T13:07:28Z</time><pdop>3.0</pdop><geoidheight>54.00</geoidheight><course>156.2</course><type>1</type></trkpt>
      <trkpt lat="40.61912447" lon="-5.08366136"><ele>2710</ele><speed>11.28</speed><time>2016-06-30T13:07:29Z</time><pdop>3.0</pdop><geoidheight>54.00</geoidheight><course>164.4</course><type>1</type></trkpt>
      <trkpt lat="40.61902298" lon="-5.08364013"><ele>2709</ele><speed>11.15</speed><time>2016-06-30T13:07:30Z</time><pdop>3.0</pdop><geoidheight>54.00</geoidheight><course>168.0</course><type>1</type></trkpt>
      <trkpt lat="40.61893138" lon="-5.08362855"><ele>2710</ele><speed>10.45</speed><time>2016-06-30T13:07:31Z</time><pdop>3.0</pdop><geoidheight>54.00</geoidheight><course>172.1</course><type>1</type></trkpt>
      <trkpt lat="40.61884288" lon="-5.08361985"><ele>2711</ele><speed>9.82</speed><time>2016-06-30T13:07:32Z</time><pdop>3.0</pdop><geoidheight>54.00</geoidheight><course>175.3</course><type>1</type></trkpt>
      <trkpt lat="40.61875211" lon="-5.08360888"><ele>2711</ele><speed>9.61</speed><time>2016-06-30T13:07:33Z</time><pdop>3.0</pdop><geoidheight>54.00</geoidheight><course>173.9</course><type>1</type></trkpt>
      <trkpt lat="40.61866669" lon="-5.08358968"><ele>2710</ele><speed>9.49</speed><time>2016-06-30T13:07:34Z</time><pdop>3.0</pdop><geoidheight>54.00</geoidheight><course>168.8</course><type>1</type></trkpt>
      <trkpt lat="40.6185802" lon="-5.08355767"><ele>2709</ele><speed>9.65</speed><time>2016-06-30T13:07:35Z</time><pdop>3.0</pdop><geoidheight>54.00</geoidheight><course>166.2</course><type>1</type></trkpt>
      <trkpt lat="40.61849907" lon="-5.08353425"><ele>2708</ele><speed>9.48</speed><time>2016-06-30T13:07:36Z</time><pdop>3.0</pdop><geoidheight>54.00</geoidheight><course>167.8</course><type>1</type></trkpt>
      <trkpt lat="40.61841869" lon="-5.08350024"><ele>2708</ele><speed>8.95</speed><time>2016-06-30T13:07:37Z</time><pdop>3.0</pdop><geoidheight>54.00</geoidheight><course>163.4</course><type>1</type></trkpt>
      <trkpt lat="40.61835332" lon="-5.08344835"><ele>2706</ele><speed>8.80</speed><time>2016-06-30T13:07:38Z</time><pdop>3.0</pdop><geoidheight>54.00</geoidheight><course>149.4</course><type>1</type></trkpt>
      <trkpt lat="40.61830109" lon="-5.08338223"><ele>2704</ele><speed>8.63</speed><time>2016-06-30T13:07:39Z</time><pdop>3.0</pdop><geoidheight>54.00</geoidheight><course>138.7</course><type>1</type></trkpt>
      <trkpt lat="40.61824963" lon="-5.08331035"><ele>2702</ele><speed>8.71</speed><time>2016-06-30T13:07:40Z</time><pdop>3.0</pdop><geoidheight>54.00</geoidheight><course>132.7</course><type>1</type></trkpt>
      <trkpt lat="40.61820616" lon="-5.08316849"><ele>2700</ele><speed>11.10</speed><time>2016-06-30T13:07:41Z</time><pdop>3.0</pdop><geoidheight>54.00</geoidheight><course>120.5</course><type>1</type></trkpt>
      <trkpt lat="40.61814436" lon="-5.08303125"><ele>2698</ele><speed>13.00</speed><time>2016-06-30T13:07:42Z</time><pdop>3.0</pdop><geoidheight>54.00</geoidheight><course>119.6</course><type>1</type></trkpt>
      <trkpt lat="40.61808804" lon="-5.08289764"><ele>2697</ele><speed>12.76</speed><time>2016-06-30T13:07:43Z</time><pdop>3.0</pdop><geoidheight>54.00</geoidheight><course>119.8</course><type>1</type></trkpt>
      <trkpt lat="40.61802471" lon="-5.0827816"><ele>2697</ele><speed>12.15</speed><time>2016-06-30T13:07:44Z</time><pdop>3.0</pdop><geoidheight>54.00</geoidheight><course>122.6</course><type>1</type></trkpt>
      <trkpt lat="40.61796113" lon="-5.0826845"><ele>2698</ele><speed>11.98</speed><time>2016-06-30T13:07:45Z</time><pdop>3.0</pdop><geoidheight>54.00</geoidheight><course>126.1</course><type>1</type></trkpt>
      <trkpt lat="40.61790279" lon="-5.08256799"><ele>2698</ele><speed>10.98</speed><time>2016-06-30T13:07:46Z</time><pdop>3.0</pdop><geoidheight>54.00</geoidheight><course>123.7</course><type>1</type></trkpt>
      <trkpt lat="40.61786332" lon="-5.08245458"><ele>2699</ele><speed>10.23</speed><time>2016-06-30T13:07:47Z</time><pdop>3.0</pdop><geoidheight>54.00</geoidheight><course>117.2</course><type>1</type></trkpt>
      <trkpt lat="40.61782022" lon="-5.08236695"><ele>2698</ele><speed>9.42</speed><time>2016-06-30T13:07:48Z</time><pdop>3.0</pdop><geoidheight>54.00</geoidheight><course>117.4</course><type>1</type></trkpt>
      <trkpt lat="40.61779813" lon="-5.08226878"><ele>2696</ele><speed>9.08</speed><time>2016-06-30T13:07:49Z</time><pdop>3.0</pdop><geoidheight>54.00</geoidheight><course>109.4</course><type>1</type></trkpt>
      <trkpt lat="40.61777907" lon="-5.08215928"><ele>2693</ele><speed>9.30</speed><time>2016-06-30T13:07:50Z</time><pdop>3.0</pdop><geoidheight>54.00</geoidheight><course>103.4</course><type>1</type></trkpt>
      <trkpt lat="40.61776246" lon="-5.08204875"><ele>2689</ele><speed>10.39</speed><time>2016-06-30T13:07:51Z</time><pdop>3.0</pdop><geoidheight>54.00</geoidheight><course>99.9</course><type>1</type></trkpt>
      <trkpt lat="40.61775417" lon="-5.08192115"><ele>2686</ele><speed>11.28</speed><time>2016-06-30T13:07:52Z</time><pdop>3.0</pdop><geoidheight>54.00</geoidheight><course>97.5</course><type>1</type></trkpt>
      <trkpt lat="40.61773179" lon="-5.0817681"><ele>2682</ele><speed>13.10</speed><time>2016-06-30T13:07:53Z</time><pdop>3.0</pdop><geoidheight>54.00</geoidheight><course>98.1</course><type>1</type></trkpt>
      <trkpt lat="40.6177173" lon="-5.08162494"><ele>2679</ele><speed>13.58</speed><time>2016-06-30T13:07:54Z</time><pdop>3.0</pdop><geoidheight>54.00</geoidheight><course>97.5</course><type>1</type></trkpt>
      <trkpt lat="40.61769924" lon="-5.08147868"><ele>2677</ele><speed>13.00</speed><time>2016-06-30T13:07:55Z</time><pdop>3.0</pdop><geoidheight>54.00</geoidheight><course>97.5</course><type>1</type></trkpt>
      <trkpt lat="40.61768203" lon="-5.08132709"><ele>2675</ele><speed>13.05</speed><time>2016-06-30T13:07:56Z</time><pdop>3.0</pdop><geoidheight>54.00</geoidheight><course>96.8</course><type>1</type></trkpt>
      <trkpt lat="40.61766286" lon="-5.08118487"><ele>2674</ele><speed>12.98</speed><time>2016-06-30T13:07:57Z</time><pdop>3.0</pdop><geoidheight>54.00</geoidheight><course>94.9</course><type>1</type></trkpt>
      <trkpt lat="40.61766312" lon="-5.08102851"><ele>2673</ele><speed>13.18</speed><time>2016-06-30T13:07:58Z</time><pdop>3.0</pdop><geoidheight>54.00</geoidheight><course>90.8</course><type>1</type></trkpt>
      <trkpt lat="40.61766851" lon="-5.08087246"><ele>2672</ele><speed>13.28</speed><time>2016-06-30T13:07:59Z</time><pdop>3.0</pdop><geoidheight>54.00</geoidheight><course>88.4</course><type>1</type></trkpt>
      <trkpt lat="40.61767368" lon="-5.08071464"><ele>2671</ele><speed>13.36</speed><time>2016-06-30T13:08:00Z</time><pdop>4.0</pdop><geoidheight>54.00</geoidheight><course>89.5</course><type>1</type></trkpt>
      <trkpt lat="40.61766533" lon="-5.08056105"><ele>2669</ele><speed>13.44</speed><time>2016-06-30T13:08:01Z</time><pdop>4.0</pdop><geoidheight>54.00</geoidheight><course>92.6</course><type>1</type></trkpt>
      <trkpt lat="40.61766946" lon="-5.08038898"><ele>2670</ele><speed>13.82</speed><time>2016-06-30T13:08:02Z</time><pdop>5.0</pdop><geoidheight>54.00</geoidheight><course>92.7</course><type>1</type></trkpt>
      <trkpt lat="40.61766915" lon="-5.08022902"><ele>2669</ele><speed>14.03</speed><time>2016-06-30T13:08:03Z</time><pdop>5.0</pdop><geoidheight>54.00</geoidheight><course>90.4</course><type>1</type></trkpt>
      <trkpt lat="40.61766543" lon="-5.08008777"><ele>2667</ele><speed>13.21</speed><time>2016-06-30T13:08:04Z</time><pdop>4.0</pdop><geoidheight>54.00</geoidheight><course>87.5</course><type>1</type></trkpt>
      <trkpt lat="40.61766651" lon="-5.079963"><ele>2663</ele><speed>12.80</speed><time>2016-06-30T13:08:05Z</time><pdop>4.0</pdop><geoidheight>54.00</geoidheight><course>84.4</course><type>1</type></trkpt>
      <trkpt lat="40.61768274" lon="-5.07980882"><ele>2660</ele><speed>13.11</speed><time>2016-06-30T13:08:06Z</time><pdop>4.0</pdop><geoidheight>54.00</geoidheight><course>82.2</course><type>1</type></trkpt>
      <trkpt lat="40.6176983" lon="-5.07947961"><ele>2648</ele><speed>15.55</speed><time>2016-06-30T13:08:08Z</time><pdop>4.0</pdop><geoidheight>54.00</geoidheight><course>85.2</course><type>1</type></trkpt>
      <trkpt lat="40.61770557" lon="-5.07930544"><ele>2644</ele><speed>15.71</speed><time>2016-06-30T13:08:09Z</time><pdop>3.0</pdop><geoidheight>54.00</geoidheight><course>86.1</course><type>1</type></trkpt>
      <trkpt lat="40.61771264" lon="-5.07911703"><ele>2640</ele><speed>15.84</speed><time>2016-06-30T13:08:10Z</time><pdop>4.0</pdop><geoidheight>54.00</geoidheight><course>86.6</course><type>1</type></trkpt>
      <trkpt lat="40.61772236" lon="-5.07893833"><ele>2637</ele><speed>15.96</speed><time>2016-06-30T13:08:11Z</time><pdop>4.0</pdop><geoidheight>54.00</geoidheight><course>85.4</course><type>1</type></trkpt>
      <trkpt lat="40.61773403" lon="-5.07875069"><ele>2635</ele><speed>15.94</speed><time>2016-06-30T13:08:12Z</time><pdop>4.0</pdop><geoidheight>54.00</geoidheight><course>83.4</course><type>1</type></trkpt>
      <trkpt lat="40.61775847" lon="-5.07856572"><ele>2634</ele><speed>15.53</speed><time>2016-06-30T13:08:13Z</time><pdop>4.0</pdop><geoidheight>54.00</geoidheight><course>81.8</course><type>1</type></trkpt>
      <trkpt lat="40.61776745" lon="-5.07838904"><ele>2633</ele><speed>14.96</speed><time>2016-06-30T13:08:14Z</time><pdop>4.0</pdop><geoidheight>54.00</geoidheight><course>84.2</course><type>1</type></trkpt>
      <trkpt lat="40.61775041" lon="-5.07822565"><ele>2631</ele><speed>14.69</speed><time>2016-06-30T13:08:15Z</time><pdop>4.0</pdop><geoidheight>54.00</geoidheight><course>91.9</course><type>1</type></trkpt>
      <trkpt lat="40.61773433" lon="-5.07805992"><ele>2629</ele><speed>14.62</speed><time>2016-06-30T13:08:16Z</time><pdop>3.0</pdop><geoidheight>54.00</geoidheight><course>98.0</course><type>1</type></trkpt>
      <trkpt lat="40.61772327" lon="-5.07788976"><ele>2627</ele><speed>14.87</speed><time>2016-06-30T13:08:17Z</time><pdop>3.0</pdop><geoidheight>54.00</geoidheight><course>95.3</course><type>1</type></trkpt>
      <trkpt lat="40.61772079" lon="-5.07771753"><ele>2626</ele><speed>14.87</speed><time>2016-06-30T13:08:18Z</time><pdop>3.0</pdop><geoidheight>54.00</geoidheight><course>92.1</course><type>1</type></trkpt>
      <trkpt lat="40.61771171" lon="-5.07753298"><ele>2626</ele><speed>14.84</speed><time>2016-06-30T13:08:19Z</time><pdop>3.0</pdop><geoidheight>54.00</geoidheight><course>94.0</course><type>1</type></trkpt>
      <trkpt lat="40.61770481" lon="-5.07736243"><ele>2625</ele><speed>14.74</speed><time>2016-06-30T13:08:20Z</time><pdop>4.0</pdop><geoidheight>54.00</geoidheight><course>93.9</course><type>1</type></trkpt>
      <trkpt lat="40.61767348" lon="-5.07720639"><ele>2622</ele><speed>14.39</speed><time>2016-06-30T13:08:21Z</time><pdop>3.0</pdop><geoidheight>54.00</geoidheight><course>96.7</course><type>1</type></trkpt>
      <trkpt lat="40.61766955" lon="-5.07703402"><ele>2619</ele><speed>14.75</speed><time>2016-06-30T13:08:22Z</time><pdop>9.0</pdop><geoidheight>54.00</geoidheight><course>92.7</course><type>1</type></trkpt>
      <trkpt lat="40.61765767" lon="-5.07664256"><ele>2614</ele><speed>16.76</speed><time>2016-06-30T13:08:24Z</time><pdop>9.0</pdop><geoidheight>54.00</geoidheight><course>92.8</course><type>1</type></trkpt>
      <trkpt lat="40.61760792" lon="-5.07627755"><ele>2609</ele><speed>16.22</speed><time>2016-06-30T13:08:26Z</time><pdop>9.0</pdop><geoidheight>54.00</geoidheight><course>96.9</course><type>1</type></trkpt>
      <trkpt lat="40.61758312" lon="-5.07589282"><ele>2607</ele><speed>16.12</speed><time>2016-06-30T13:08:28Z</time><pdop>9.0</pdop><geoidheight>54.00</geoidheight><course>93.4</course><type>1</type></trkpt>
      <trkpt lat="40.61756733" lon="-5.0755043"><ele>2608</ele><speed>16.15</speed><time>2016-06-30T13:08:30Z</time><pdop>9.0</pdop><geoidheight>54.00</geoidheight><course>94.4</course><type>1</type></trkpt>
      <trkpt lat="40.61752842" lon="-5.07515207"><ele>2610</ele><speed>14.55</speed><time>2016-06-30T13:08:32Z</time><pdop>9.0</pdop><geoidheight>54.00</geoidheight><course>97.8</course><type>1</type></trkpt>
      <trkpt lat="40.61748101" lon="-5.07482547"><ele>2610</ele><speed>14.85</speed><time>2016-06-30T13:08:34Z</time><pdop>9.0</pdop><geoidheight>54.00</geoidheight><course>100.2</course><type>1</type></trkpt>
      <trkpt lat="40.61742876" lon="-5.07448511"><ele>2612</ele><speed>14.50</speed><time>2016-06-30T13:08:36Z</time><pdop>9.0</pdop><geoidheight>54.00</geoidheight><course>101.3</course><type>1</type></trkpt>
      <trkpt lat="40.61737849" lon="-5.0741578"><ele>2614</ele><speed>14.14</speed><time>2016-06-30T13:08:38Z</time><pdop>9.0</pdop><geoidheight>54.00</geoidheight><course>100.3</course><type>1</type></trkpt>
      <trkpt lat="40.61731751" lon="-5.07384154"><ele>2616</ele><speed>13.51</speed><time>2016-06-30T13:08:40Z</time><pdop>9.0</pdop><geoidheight>54.00</geoidheight><course>104.3</course><type>1</type></trkpt>
      <trkpt lat="40.6172128" lon="-5.07356351"><ele>2617</ele><speed>12.99</speed><time>2016-06-30T13:08:42Z</time><pdop>9.0</pdop><geoidheight>54.00</geoidheight><course>121.4</course><type>1</type></trkpt>
      <trkpt lat="40.6170423" lon="-5.07339803"><ele>2616</ele><speed>11.21</speed><time>2016-06-30T13:08:44Z</time><pdop>9.0</pdop><geoidheight>54.00</geoidheight><course>146.9</course><type>1</type></trkpt>
      <trkpt lat="40.61688867" lon="-5.07332829"><ele>2615</ele><speed>8.84</speed><time>2016-06-30T13:08:46Z</time><pdop>9.0</pdop><geoidheight>54.00</geoidheight><course>168.0</course><type>1</type></trkpt>
      <trkpt lat="40.61670915" lon="-5.07338565"><ele>2612</ele><speed>9.47</speed><time>2016-06-30T13:08:48Z</time><pdop>10.0</pdop><geoidheight>54.00</geoidheight><course>189.1</course><type>1</type></trkpt>
      <trkpt lat="40.6164887" lon="-5.07343116"><ele>2610</ele><speed>10.92</speed><time>2016-06-30T13:08:50Z</time><pdop>10.0</pdop><geoidheight>54.00</geoidheight><course>185.5</course><type>1</type></trkpt>
      <trkpt lat="40.61621509" lon="-5.07342668"><ele>2608</ele><speed>10.16</speed><time>2016-06-30T13:08:53Z</time><pdop>10.0</pdop><geoidheight>54.00</geoidheight><course>180.1</course><type>1</type></trkpt>
      <trkpt lat="40.61599103" lon="-5.07343653"><ele>2603</ele><speed>12.80</speed><time>2016-06-30T13:08:55Z</time><pdop>9.0</pdop><geoidheight>54.00</geoidheight><course>181.3</course><type>1</type></trkpt>
      <trkpt lat="40.61573167" lon="-5.07344397"><ele>2601</ele><speed>14.50</speed><time>2016-06-30T13:08:57Z</time><pdop>9.0</pdop><geoidheight>54.00</geoidheight><course>180.9</course><type>1</type></trkpt>
      <trkpt lat="40.6155373" lon="-5.07342049"><ele>2603</ele><speed>11.93</speed><time>2016-06-30T13:08:59Z</time><pdop>9.0</pdop><geoidheight>54.00</geoidheight><course>173.0</course><type>1</type></trkpt>
      <trkpt lat="40.61536785" lon="-5.07328156"><ele>2610</ele><speed>11.84</speed><time>2016-06-30T13:09:01Z</time><pdop>9.0</pdop><geoidheight>54.00</geoidheight><course>153.2</course><type>1</type></trkpt>
      <trkpt lat="40.61519191" lon="-5.07312574"><ele>2617</ele><speed>11.66</speed><time>2016-06-30T13:09:03Z</time><pdop>9.0</pdop><geoidheight>54.00</geoidheight><course>148.0</course><type>1</type></trkpt>
      <trkpt lat="40.61502395" lon="-5.07299011"><ele>2622</ele><speed>10.69</speed><time>2016-06-30T13:09:05Z</time><pdop>9.0</pdop><geoidheight>54.00</geoidheight><course>148.2</course><type>1</type></trkpt>
      <trkpt lat="40.61486067" lon="-5.07292351"><ele>2625</ele><speed>9.31</speed><time>2016-06-30T13:09:07Z</time><pdop>9.0</pdop><geoidheight>54.00</geoidheight><course>166.6</course><type>1</type></trkpt>
      <trkpt lat="40.61464058" lon="-5.07293026"><ele>2627</ele><speed>8.49</speed><time>2016-06-30T13:09:10Z</time><pdop>10.0</pdop><geoidheight>54.00</geoidheight><course>188.2</course><type>1</type></trkpt>
      <trkpt lat="40.61439125" lon="-5.07300715"><ele>2629</ele><speed>9.21</speed><time>2016-06-30T13:09:13Z</time><pdop>11.0</pdop><geoidheight>54.00</geoidheight><course>186.9</course><type>1</type></trkpt>
      <trkpt lat="40.61423364" lon="-5.07317117"><ele>2631</ele><speed>5.78</speed><time>2016-06-30T13:09:17Z</time><pdop>9.0</pdop><geoidheight>54.00</geoidheight><course>261.0</course><type>1</type></trkpt>
      <trkpt lat="40.61432731" lon="-5.07332631"><ele>2631</ele><speed>8.54</speed><time>2016-06-30T13:09:19Z</time><pdop>4.0</pdop><geoidheight>54.00</geoidheight><course>311.8</course><type>1</type></trkpt>
      <trkpt lat="40.61440982" lon="-5.07340221"><ele>2630</ele><speed>9.68</speed><time>2016-06-30T13:09:20Z</time><pdop>5.0</pdop><geoidheight>54.00</geoidheight><course>318.8</course><type>1</type></trkpt>
      <trkpt lat="40.6145654" lon="-5.07321299"><ele>2627</ele><speed>11.78</speed><time>2016-06-30T13:09:21Z</time><pdop>5.0</pdop><geoidheight>54.00</geoidheight><course>14.4</course><type>1</type></trkpt>
      <trkpt lat="40.61468013" lon="-5.07313122"><ele>2629</ele><speed>13.80</speed><time>2016-06-30T13:09:22Z</time><pdop>4.0</pdop><geoidheight>54.00</geoidheight><course>28.0</course><type>1</type></trkpt>
      <trkpt lat="40.61478263" lon="-5.07302523"><ele>2429</ele><speed>14.05</speed><time>2016-06-30T13:09:23Z</time><pdop>4.0</pdop><geoidheight>54.00</geoidheight><course>40.4</course><type>1</type></trkpt>
      <trkpt lat="40.61486322" lon="-5.0729061"><ele>2506</ele><speed>14.08</speed><time>2016-06-30T13:09:24Z</time><pdop>3.0</pdop><geoidheight>54.00</geoidheight><course>49.7</course><type>1</type></trkpt>
      <trkpt lat="40.61493698" lon="-5.07276934"><ele>2544</ele><speed>14.24</speed><time>2016-06-30T13:09:25Z</time><pdop>3.0</pdop><geoidheight>54.00</geoidheight><course>56.2</course><type>1</type></trkpt>
      <trkpt lat="40.61500777" lon="-5.07263229"><ele>2579</ele><speed>14.50</speed><time>2016-06-30T13:09:26Z</time><pdop>3.0</pdop><geoidheight>54.00</geoidheight><course>61.0</course><type>1</type></trkpt>
      <trkpt lat="40.61506374" lon="-5.07248115"><ele>2602</ele><speed>14.83</speed><time>2016-06-30T13:09:27Z</time><pdop>3.0</pdop><geoidheight>54.00</geoidheight><course>66.0</course><type>1</type></trkpt>
      <trkpt lat="40.61510246" lon="-5.0723104"><ele>2614</ele><speed>14.97</speed><time>2016-06-30T13:09:28Z</time><pdop>3.0</pdop><geoidheight>54.00</geoidheight><course>72.3</course><type>1</type></trkpt>
      <trkpt lat="40.61512896" lon="-5.07213048"><ele>2616</ele><speed>15.19</speed><time>2016-06-30T13:09:29Z</time><pdop>3.0</pdop><geoidheight>54.00</geoidheight><course>78.4</course><type>1</type></trkpt>
      <trkpt lat="40.61511646" lon="-5.0719727"><ele>2625</ele><speed>14.04</speed><time>2016-06-30T13:09:30Z</time><pdop>3.0</pdop><geoidheight>54.00</geoidheight><course>91.0</course><type>1</type></trkpt>
      <trkpt lat="40.61508447" lon="-5.07182448"><ele>2629</ele><speed>13.23</speed><time>2016-06-30T13:09:31Z</time><pdop>3.0</pdop><geoidheight>54.00</geoidheight><course>104.5</course><type>1</type></trkpt>
      <trkpt lat="40.6150278" lon="-5.07170116"><ele>2632</ele><speed>12.34</speed><time>2016-06-30T13:09:32Z</time><pdop>3.0</pdop><geoidheight>54.00</geoidheight><course>119.7</course><type>1</type></trkpt>
      <trkpt lat="40.6149598" lon="-5.0716339"><ele>2635</ele><speed>10.46</speed><time>2016-06-30T13:09:33Z</time><pdop>3.0</pdop><geoidheight>54.00</geoidheight><course>138.0</course><type>1</type></trkpt>
      <trkpt lat="40.6148877" lon="-5.07160865"><ele>2637</ele><speed>8.45</speed><time>2016-06-30T13:09:34Z</time><pdop>3.0</pdop><geoidheight>54.00</geoidheight><course>156.9</course><type>1</type></trkpt>
      <trkpt lat="40.61482533" lon="-5.07161738"><ele>2639</ele><speed>7.22</speed><time>2016-06-30T13:09:35Z</time><pdop>3.0</pdop><geoidheight>54.00</geoidheight><course>182.6</course><type>1</type></trkpt>
      <trkpt lat="40.61476498" lon="-5.07166555"><ele>2641</ele><speed>7.33</speed><time>2016-06-30T13:09:36Z</time><pdop>3.0</pdop><geoidheight>54.00</geoidheight><course>206.8</course><type>1</type></trkpt>
      <trkpt lat="40.6147061" lon="-5.07179779"><ele>2641</ele><speed>6.91</speed><time>2016-06-30T13:09:38Z</time><pdop>3.0</pdop><geoidheight>54.00</geoidheight><course>243.3</course><type>1</type></trkpt>
      <trkpt lat="40.61475814" lon="-5.07187183"><ele>2639</ele><speed>7.46</speed><time>2016-06-30T13:09:39Z</time><pdop>3.0</pdop><geoidheight>54.00</geoidheight><course>292.9</course><type>1</type></trkpt>
      <trkpt lat="40.61482406" lon="-5.07193556"><ele>2637</ele><speed>9.16</speed><time>2016-06-30T13:09:40Z</time><pdop>3.0</pdop><geoidheight>54.00</geoidheight><course>320.0</course><type>1</type></trkpt>
      <trkpt lat="40.61489726" lon="-5.07199338"><ele>2638</ele><speed>9.73</speed><time>2016-06-30T13:09:41Z</time><pdop>4.0</pdop><geoidheight>54.00</geoidheight><course>327.0</course><type>1</type></trkpt>
      <trkpt lat="40.6150146" lon="-5.07197108"><ele>2637</ele><speed>11.30</speed><time>2016-06-30T13:09:42Z</time><pdop>4.0</pdop><geoidheight>54.00</geoidheight><course>355.8</course><type>1</type></trkpt>
      <trkpt lat="40.61513302" lon="-5.07196329"><ele>2639</ele><speed>12.18</speed><time>2016-06-30T13:09:43Z</time><pdop>5.0</pdop><geoidheight>54.00</geoidheight><course>1.6</course><type>1</type></trkpt>
      <trkpt lat="40.61524568" lon="-5.07187532"><ele>2640</ele><speed>13.48</speed><time>2016-06-30T13:09:44Z</time><pdop>4.0</pdop><geoidheight>54.00</geoidheight><course>23.7</course><type>1</type></trkpt>
      <trkpt lat="40.61533775" lon="-5.07178277"><ele>2643</ele><speed>14.07</speed><time>2016-06-30T13:09:45Z</time><pdop>4.0</pdop><geoidheight>54.00</geoidheight><course>36.4</course><type>1</type></trkpt>
      <trkpt lat="40.61543988" lon="-5.07165674"><ele>2645</ele><speed>14.78</speed><time>2016-06-30T13:09:46Z</time><pdop>3.0</pdop><geoidheight>54.00</geoidheight><course>43.0</course><type>1</type></trkpt>
      <trkpt lat="40.61552409" lon="-5.07152887"><ele>2649</ele><speed>14.54</speed><time>2016-06-30T13:09:47Z</time><pdop>3.0</pdop><geoidheight>54.00</geoidheight><course>48.9</course><type>1</type></trkpt>
      <trkpt lat="40.61558755" lon="-5.07139097"><ele>2651</ele><speed>13.92</speed><time>2016-06-30T13:09:48Z</time><pdop>3.0</pdop><geoidheight>54.00</geoidheight><course>58.1</course><type>1</type></trkpt>
      <trkpt lat="40.61563301" lon="-5.07124517"><ele>2652</ele><speed>13.62</speed><time>2016-06-30T13:09:49Z</time><pdop>3.0</pdop><geoidheight>54.00</geoidheight><course>65.9</course><type>1</type></trkpt>
      <trkpt lat="40.61568209" lon="-5.07108123"><ele>2652</ele><speed>14.44</speed><time>2016-06-30T13:09:50Z</time><pdop>4.0</pdop><geoidheight>54.00</geoidheight><course>65.7</course><type>1</type></trkpt>
      <trkpt lat="40.61571836" lon="-5.07091555"><ele>2651</ele><speed>14.87</speed><time>2016-06-30T13:09:51Z</time><pdop>5.0</pdop><geoidheight>54.00</geoidheight><course>72.0</course><type>1</type></trkpt>
      <trkpt lat="40.61572793" lon="-5.07075301"><ele>2651</ele><speed>14.07</speed><time>2016-06-30T13:09:52Z</time><pdop>6.0</pdop><geoidheight>54.00</geoidheight><course>79.4</course><type>1</type></trkpt>
      <trkpt lat="40.6156944" lon="-5.07056081"><ele>2651</ele><speed>14.89</speed><time>2016-06-30T13:09:53Z</time><pdop>7.0</pdop><geoidheight>54.00</geoidheight><course>91.2</course><type>1</type></trkpt>
      <trkpt lat="40.61560205" lon="-5.07024372"><ele>2652</ele><speed>14.76</speed><time>2016-06-30T13:09:55Z</time><pdop>7.0</pdop><geoidheight>54.00</geoidheight><course>105.9</course><type>1</type></trkpt>
      <trkpt lat="40.61552003" lon="-5.07006152"><ele>2653</ele><speed>15.56</speed><time>2016-06-30T13:09:56Z</time><pdop>4.0</pdop><geoidheight>54.00</geoidheight><course>114.8</course><type>1</type></trkpt>
      <trkpt lat="40.6154654" lon="-5.06989833"><ele>2653</ele><speed>15.75</speed><time>2016-06-30T13:09:57Z</time><pdop>4.0</pdop><geoidheight>54.00</geoidheight><course>114.0</course><type>1</type></trkpt>
      <trkpt lat="40.61541793" lon="-5.06973071"><ele>2653</ele><speed>15.48</speed><time>2016-06-30T13:09:58Z</time><pdop>4.0</pdop><geoidheight>54.00</geoidheight><course>113.6</course><type>1</type></trkpt>
      <trkpt lat="40.61536385" lon="-5.06956208"><ele>2653</ele><speed>14.88</speed><time>2016-06-30T13:09:59Z</time><pdop>4.0</pdop><geoidheight>54.00</geoidheight><course>115.0</course><type>1</type></trkpt>
      <trkpt lat="40.61530633" lon="-5.06940955"><ele>2653</ele><speed>14.27</speed><time>2016-06-30T13:10:00Z</time><pdop>3.0</pdop><geoidheight>54.00</geoidheight><course>115.8</course><type>1</type></trkpt>
      <trkpt lat="40.61525154" lon="-5.0692698"><ele>2653</ele><speed>13.50</speed><time>2016-06-30T13:10:01Z</time><pdop>3.0</pdop><geoidheight>54.00</geoidheight><course>115.9</course><type>1</type></trkpt>
      <trkpt lat="40.61520242" lon="-5.06913237"><ele>2653</ele><speed>13.27</speed><time>2016-06-30T13:10:02Z</time><pdop>3.0</pdop><geoidheight>54.00</geoidheight><course>115.8</course><type>1</type></trkpt>
      <trkpt lat="40.61514729" lon="-5.06898993"><ele>2653</ele><speed>13.32</speed><time>2016-06-30T13:10:03Z</time><pdop>3.0</pdop><geoidheight>54.00</geoidheight><course>116.1</course><type>1</type></trkpt>
      <trkpt lat="40.61509746" lon="-5.06885449"><ele>2652</ele><speed>13.19</speed><time>2016-06-30T13:10:04Z</time><pdop>3.0</pdop><geoidheight>54.00</geoidheight><course>115.5</course><type>1</type></trkpt>
      <trkpt lat="40.61504331" lon="-5.06870105"><ele>2652</ele><speed>13.59</speed><time>2016-06-30T13:10:05Z</time><pdop>3.0</pdop><geoidheight>54.00</geoidheight><course>114.7</course><type>1</type></trkpt>
      <trkpt lat="40.61499638" lon="-5.06853292"><ele>2652</ele><speed>14.32</speed><time>2016-06-30T13:10:06Z</time><pdop>3.0</pdop><geoidheight>54.00</geoidheight><course>111.0</course><type>1</type></trkpt>
      <trkpt lat="40.61495496" lon="-5.06834356"><ele>2651</ele><speed>15.53</speed><time>2016-06-30T13:10:07Z</time><pdop>3.0</pdop><geoidheight>54.00</geoidheight><course>105.7</course><type>1</type></trkpt>
      <trkpt lat="40.61492501" lon="-5.06812764"><ele>2651</ele><speed>17.07</speed><time>2016-06-30T13:10:08Z</time><pdop>3.0</pdop><geoidheight>54.00</geoidheight><course>100.8</course><type>1</type></trkpt>
      <trkpt lat="40.61489329" lon="-5.06794845"><ele>2650</ele><speed>17.19</speed><time>2016-06-30T13:10:09Z</time><pdop>3.0</pdop><geoidheight>54.00</geoidheight><course>98.0</course><type>1</type></trkpt>
      <trkpt lat="40.61486499" lon="-5.06776796"><ele>2650</ele><speed>16.37</speed><time>2016-06-30T13:10:10Z</time><pdop>3.0</pdop><geoidheight>54.00</geoidheight><course>98.3</course><type>1</type></trkpt>
      <trkpt lat="40.61483944" lon="-5.06759538"><ele>2650</ele><speed>14.92</speed><time>2016-06-30T13:10:11Z</time><pdop>3.0</pdop><geoidheight>54.00</geoidheight><course>99.7</course><type>1</type></trkpt>
      <trkpt lat="40.61481579" lon="-5.06743461"><ele>2651</ele><speed>14.10</speed><time>2016-06-30T13:10:12Z</time><pdop>3.0</pdop><geoidheight>54.00</geoidheight><course>100.3</course><type>1</type></trkpt>
      <trkpt lat="40.61479217" lon="-5.06727069"><ele>2650</ele><speed>14.29</speed><time>2016-06-30T13:10:13Z</time><pdop>3.0</pdop><geoidheight>54.00</geoidheight><course>100.2</course><type>1</type></trkpt>
      <trkpt lat="40.61476775" lon="-5.06709657"><ele>2651</ele><speed>14.76</speed><time>2016-06-30T13:10:14Z</time><pdop>3.0</pdop><geoidheight>54.00</geoidheight><course>99.8</course><type>1</type></trkpt>
      <trkpt lat="40.61475529" lon="-5.06693004"><ele>2652</ele><speed>14.34</speed><time>2016-06-30T13:10:15Z</time><pdop>3.0</pdop><geoidheight>54.00</geoidheight><course>99.5</course><type>1</type></trkpt>
      <trkpt lat="40.61472983" lon="-5.0667732"><ele>2652</ele><speed>13.55</speed><time>2016-06-30T13:10:16Z</time><pdop>3.0</pdop><geoidheight>54.00</geoidheight><course>103.0</course><type>1</type></trkpt>
      <trkpt lat="40.61468725" lon="-5.06662779"><ele>2651</ele><speed>12.95</speed><time>2016-06-30T13:10:17Z</time><pdop>3.0</pdop><geoidheight>54.00</geoidheight><course>110.9</course><type>1</type></trkpt>
      <trkpt lat="40.61462922" lon="-5.06649583"><ele>2652</ele><speed>12.82</speed><time>2016-06-30T13:10:18Z</time><pdop>3.0</pdop><geoidheight>54.00</geoidheight><course>120.8</course><type>1</type></trkpt>
      <trkpt lat="40.61454783" lon="-5.06639095"><ele>2651</ele><speed>12.62</speed><time>2016-06-30T13:10:19Z</time><pdop>3.0</pdop><geoidheight>54.00</geoidheight><course>131.1</course><type>1</type></trkpt>
      <trkpt lat="40.61446451" lon="-5.06630484"><ele>2651</ele><speed>11.55</speed><time>2016-06-30T13:10:20Z</time><pdop>3.0</pdop><geoidheight>54.00</geoidheight><course>142.8</course><type>1</type></trkpt>
      <trkpt lat="40.61438192" lon="-5.06627008"><ele>2650</ele><speed>9.90</speed><time>2016-06-30T13:10:21Z</time><pdop>3.0</pdop><geoidheight>54.00</geoidheight><course>161.2</course><type>1</type></trkpt>
      <trkpt lat="40.61429604" lon="-5.06627498"><ele>2649</ele><speed>9.33</speed><time>2016-06-30T13:10:22Z</time><pdop>3.0</pdop><geoidheight>54.00</geoidheight><course>178.1</course><type>1</type></trkpt>
      <trkpt lat="40.61421977" lon="-5.06630803"><ele>2647</ele><speed>9.06</speed><time>2016-06-30T13:10:23Z</time><pdop>4.0</pdop><geoidheight>54.00</geoidheight><course>193.3</course><type>1</type></trkpt>
      <trkpt lat="40.61425692" lon="-5.06646715"><ele>2646</ele><speed>5.76</speed><time>2016-06-30T13:10:25Z</time><pdop>4.0</pdop><geoidheight>54.00</geoidheight><course>275.1</course><type>1</type></trkpt>
      <trkpt lat="40.61429098" lon="-5.06655466"><ele>2645</ele><speed>6.85</speed><time>2016-06-30T13:10:26Z</time><pdop>4.0</pdop><geoidheight>54.00</geoidheight><course>291.1</course><type>1</type></trkpt>
      <trkpt lat="40.61443083" lon="-5.06655034"><ele>2644</ele><speed>5.51</speed><time>2016-06-30T13:10:28Z</time><pdop>4.0</pdop><geoidheight>54.00</geoidheight><course>344.7</course><type>1</type></trkpt>
      <trkpt lat="40.61452654" lon="-5.0664482"><ele>2643</ele><speed>7.21</speed><time>2016-06-30T13:10:29Z</time><pdop>5.0</pdop><geoidheight>54.00</geoidheight><course>19.7</course><type>1</type></trkpt>
      <trkpt lat="40.61463467" lon="-5.06620762"><ele>2644</ele><speed>13.78</speed><time>2016-06-30T13:10:30Z</time><pdop>3.0</pdop><geoidheight>54.00</geoidheight><course>52.8</course><type>1</type></trkpt>
      <trkpt lat="40.61470059" lon="-5.06607197"><ele>2644</ele><speed>13.00</speed><time>2016-06-30T13:10:31Z</time><pdop>3.0</pdop><geoidheight>54.00</geoidheight><course>57.9</course><type>1</type></trkpt>
      <trkpt lat="40.61475664" lon="-5.0659405"><ele>2645</ele><speed>12.58</speed><time>2016-06-30T13:10:32Z</time><pdop>3.0</pdop><geoidheight>54.00</geoidheight><course>63.8</course><type>1</type></trkpt>
      <trkpt lat="40.6147854" lon="-5.06579468"><ele>2644</ele><speed>12.91</speed><time>2016-06-30T13:10:33Z</time><pdop>3.0</pdop><geoidheight>54.00</geoidheight><course>72.7</course><type>1</type></trkpt>
      <trkpt lat="40.61480516" lon="-5.06562571"><ele>2643</ele><speed>14.03</speed><time>2016-06-30T13:10:34Z</time><pdop>3.0</pdop><geoidheight>54.00</geoidheight><course>79.8</course><type>1</type></trkpt>
      <trkpt lat="40.61481936" lon="-5.06545156"><ele>2642</ele><speed>14.96</speed><time>2016-06-30T13:10:35Z</time><pdop>3.0</pdop><geoidheight>54.00</geoidheight><course>82.7</course><type>1</type></trkpt>
      <trkpt lat="40.61483523" lon="-5.06526886"><ele>2641</ele><speed>15.39</speed><time>2016-06-30T13:10:36Z</time><pdop>3.0</pdop><geoidheight>54.00</geoidheight><course>81.2</course><type>1</type></trkpt>
      <trkpt lat="40.61486909" lon="-5.06507943"><ele>2641</ele><speed>15.56</speed><time>2016-06-30T13:10:37Z</time><pdop>3.0</pdop><geoidheight>54.00</geoidheight><course>80.4</course><type>1</type></trkpt>
      <trkpt lat="40.61489018" lon="-5.06489786"><ele>2641</ele><speed>15.27</speed><time>2016-06-30T13:10:38Z</time><pdop>3.0</pdop><geoidheight>54.00</geoidheight><course>82.5</course><type>1</type></trkpt>
      <trkpt lat="40.61490476" lon="-5.0647301"><ele>2641</ele><speed>14.30</speed><time>2016-06-30T13:10:39Z</time><pdop>3.0</pdop><geoidheight>54.00</geoidheight><course>85.4</course><type>1</type></trkpt>
      <trkpt lat="40.6149127" lon="-5.06456697"><ele>2642</ele><speed>13.60</speed><time>2016-06-30T13:10:40Z</time><pdop>3.0</pdop><geoidheight>54.00</geoidheight><course>85.8</course><type>1</type></trkpt>
      <trkpt lat="40.61491307" lon="-5.06440866"><ele>2640</ele><speed>13.69</speed><time>2016-06-30T13:10:41Z</time><pdop>3.0</pdop><geoidheight>54.00</geoidheight><course>89.5</course><type>1</type></trkpt>
      <trkpt lat="40.61492004" lon="-5.06424799"><ele>2636</ele><speed>13.44</speed><time>2016-06-30T13:10:42Z</time><pdop>3.0</pdop><geoidheight>54.00</geoidheight><course>86.9</course><type>1</type></trkpt>
      <trkpt lat="40.61492964" lon="-5.06408556"><ele>2634</ele><speed>13.78</speed><time>2016-06-30T13:10:43Z</time><pdop>3.0</pdop><geoidheight>54.00</geoidheight><course>84.4</course><type>1</type></trkpt>
      <trkpt lat="40.61494059" lon="-5.06391603"><ele>2633</ele><speed>14.12</speed><time>2016-06-30T13:10:44Z</time><pdop>3.0</pdop><geoidheight>54.00</geoidheight><course>85.2</course><type>1</type></trkpt>
      <trkpt lat="40.61494564" lon="-5.06372927"><ele>2632</ele><speed>15.39</speed><time>2016-06-30T13:10:45Z</time><pdop>4.0</pdop><geoidheight>54.00</geoidheight><course>87.1</course><type>1</type></trkpt>
      <trkpt lat="40.61495629" lon="-5.06349025"><ele>2627</ele><speed>18.63</speed><time>2016-06-30T13:10:46Z</time><pdop>4.0</pdop><geoidheight>54.00</geoidheight><course>86.9</course><type>1</type></trkpt>
      <trkpt lat="40.6149631" lon="-5.06325401"><ele>2625</ele><speed>19.26</speed><time>2016-06-30T13:10:47Z</time><pdop>4.0</pdop><geoidheight>54.00</geoidheight><course>86.0</course><type>1</type></trkpt>
      <trkpt lat="40.61497963" lon="-5.06303659"><ele>2623</ele><speed>18.37</speed><time>2016-06-30T13:10:48Z</time><pdop>3.0</pdop><geoidheight>54.00</geoidheight><course>84.2</course><type>1</type></trkpt>
      <trkpt lat="40.61500144" lon="-5.0628377"><ele>2622</ele><speed>16.94</speed><time>2016-06-30T13:10:49Z</time><pdop>3.0</pdop><geoidheight>54.00</geoidheight><course>83.6</course><type>1</type></trkpt>
      <trkpt lat="40.61501818" lon="-5.06265948"><ele>2621</ele><speed>15.82</speed><time>2016-06-30T13:10:50Z</time><pdop>3.0</pdop><geoidheight>54.00</geoidheight><course>82.5</course><type>1</type></trkpt>
      <trkpt lat="40.61504944" lon="-5.06247844"><ele>2619</ele><speed>15.51</speed><time>2016-06-30T13:10:51Z</time><pdop>3.0</pdop><geoidheight>54.00</geoidheight><course>79.6</course><type>1</type></trkpt>
      <trkpt lat="40.61507874" lon="-5.0622978"><ele>2617</ele><speed>15.43</speed><time>2016-06-30T13:10:52Z</time><pdop>3.0</pdop><geoidheight>54.00</geoidheight><course>78.6</course><type>1</type></trkpt>
      <trkpt lat="40.61510487" lon="-5.06211759"><ele>2616</ele><speed>15.56</speed><time>2016-06-30T13:10:53Z</time><pdop>4.0</pdop><geoidheight>54.00</geoidheight><course>78.2</course><type>1</type></trkpt>
      <trkpt lat="40.61515682" lon="-5.06190726"><ele>2614</ele><speed>17.04</speed><time>2016-06-30T13:10:54Z</time><pdop>5.0</pdop><geoidheight>54.00</geoidheight><course>76.9</course><type>1</type></trkpt>
      <trkpt lat="40.61517053" lon="-5.06167545"><ele>2612</ele><speed>18.82</speed><time>2016-06-30T13:10:55Z</time><pdop>4.0</pdop><geoidheight>54.00</geoidheight><course>82.0</course><type>1</type></trkpt>
      <trkpt lat="40.61518281" lon="-5.06145933"><ele>2613</ele><speed>17.90</speed><time>2016-06-30T13:10:56Z</time><pdop>3.0</pdop><geoidheight>54.00</geoidheight><course>86.8</course><type>1</type></trkpt>
      <trkpt lat="40.61518793" lon="-5.06128839"><ele>2614</ele><speed>15.72</speed><time>2016-06-30T13:10:57Z</time><pdop>3.0</pdop><geoidheight>54.00</geoidheight><course>87.9</course><type>1</type></trkpt>
      <trkpt lat="40.61520136" lon="-5.06110687"><ele>2614</ele><speed>14.94</speed><time>2016-06-30T13:10:58Z</time><pdop>4.0</pdop><geoidheight>54.00</geoidheight><course>85.6</course><type>1</type></trkpt>
      <trkpt lat="40.61523875" lon="-5.06077515"><ele>2610</ele><speed>14.57</speed><time>2016-06-30T13:11:00Z</time><pdop>4.0</pdop><geoidheight>54.00</geoidheight><course>82.1</course><type>1</type></trkpt>
      <trkpt lat="40.61526066" lon="-5.06060803"><ele>2609</ele><speed>14.55</speed><time>2016-06-30T13:11:01Z</time><pdop>4.0</pdop><geoidheight>54.00</geoidheight><course>81.2</course><type>1</type></trkpt>
      <trkpt lat="40.6153051" lon="-5.06041509"><ele>2606</ele><speed>16.18</speed><time>2016-06-30T13:11:02Z</time><pdop>4.0</pdop><geoidheight>54.00</geoidheight><course>76.5</course><type>1</type></trkpt>
      <trkpt lat="40.61534167" lon="-5.06021504"><ele>2605</ele><speed>16.67</speed><time>2016-06-30T13:11:03Z</time><pdop>4.0</pdop><geoidheight>54.00</geoidheight><course>76.5</course><type>1</type></trkpt>
      <trkpt lat="40.61539777" lon="-5.06002026"><ele>2605</ele><speed>16.82</speed><time>2016-06-30T13:11:04Z</time><pdop>5.0</pdop><geoidheight>54.00</geoidheight><course>73.6</course><type>1</type></trkpt>
      <trkpt lat="40.61545708" lon="-5.05983259"><ele>2605</ele><speed>16.64</speed><time>2016-06-30T13:11:05Z</time><pdop>5.0</pdop><geoidheight>54.00</geoidheight><course>71.7</course><type>1</type></trkpt>
      <trkpt lat="40.61546752" lon="-5.05966576"><ele>2604</ele><speed>15.52</speed><time>2016-06-30T13:11:06Z</time><pdop>4.0</pdop><geoidheight>54.00</geoidheight><course>75.6</course><type>1</type></trkpt>
      <trkpt lat="40.61549849" lon="-5.05947633"><ele>2604</ele><speed>16.12</speed><time>2016-06-30T13:11:07Z</time><pdop>4.0</pdop><geoidheight>54.00</geoidheight><course>76.0</course><type>1</type></trkpt>
      <trkpt lat="40.61552764" lon="-5.05927882"><ele>2604</ele><speed>16.54</speed><time>2016-06-30T13:11:08Z</time><pdop>5.0</pdop><geoidheight>54.00</geoidheight><course>77.9</course><type>1</type></trkpt>
      <trkpt lat="40.61555783" lon="-5.05908768"><ele>2604</ele><speed>16.46</speed><time>2016-06-30T13:11:09Z</time><pdop>5.0</pdop><geoidheight>54.00</geoidheight><course>78.4</course><type>1</type></trkpt>
      <trkpt lat="40.61558572" lon="-5.05890635"><ele>2605</ele><speed>16.09</speed><time>2016-06-30T13:11:10Z</time><pdop>5.0</pdop><geoidheight>54.00</geoidheight><course>78.4</course><type>1</type></trkpt>
      <trkpt lat="40.61561269" lon="-5.05872763"><ele>2605</ele><speed>15.57</speed><time>2016-06-30T13:11:11Z</time><pdop>5.0</pdop><geoidheight>54.00</geoidheight><course>77.7</course><type>1</type></trkpt>
      <trkpt lat="40.61565569" lon="-5.05857446"><ele>2606</ele><speed>14.83</speed><time>2016-06-30T13:11:12Z</time><pdop>5.0</pdop><geoidheight>54.00</geoidheight><course>76.0</course><type>1</type></trkpt>
      <trkpt lat="40.61569558" lon="-5.05842332"><ele>2603</ele><speed>14.40</speed><time>2016-06-30T13:11:13Z</time><pdop>5.0</pdop><geoidheight>54.00</geoidheight><course>74.8</course><type>1</type></trkpt>
      <trkpt lat="40.61573905" lon="-5.05827173"><ele>2602</ele><speed>13.87</speed><time>2016-06-30T13:11:14Z</time><pdop>5.0</pdop><geoidheight>54.00</geoidheight><course>71.6</course><type>1</type></trkpt>
      <trkpt lat="40.61577086" lon="-5.05812364"><ele>2601</ele><speed>13.92</speed><time>2016-06-30T13:11:15Z</time><pdop>4.0</pdop><geoidheight>54.00</geoidheight><course>68.8</course><type>1</type></trkpt>
      <trkpt lat="40.61580941" lon="-5.0579625"><ele>2598</ele><speed>14.34</speed><time>2016-06-30T13:11:16Z</time><pdop>4.0</pdop><geoidheight>54.00</geoidheight><course>67.6</course><type>1</type></trkpt>
      <trkpt lat="40.61585538" lon="-5.05780385"><ele>2597</ele><speed>14.56</speed><time>2016-06-30T13:11:17Z</time><pdop>4.0</pdop><geoidheight>54.00</geoidheight><course>68.5</course><type>1</type></trkpt>
      <trkpt lat="40.61589263" lon="-5.05764739"><ele>2596</ele><speed>14.54</speed><time>2016-06-30T13:11:18Z</time><pdop>4.0</pdop><geoidheight>54.00</geoidheight><course>69.9</course><type>1</type></trkpt>
      <trkpt lat="40.61594459" lon="-5.05747972"><ele>2595</ele><speed>15.15</speed><time>2016-06-30T13:11:19Z</time><pdop>4.0</pdop><geoidheight>54.00</geoidheight><course>71.3</course><type>1</type></trkpt>
      <trkpt lat="40.61598134" lon="-5.05730091"><ele>2594</ele><speed>15.51</speed><time>2016-06-30T13:11:20Z</time><pdop>3.0</pdop><geoidheight>54.00</geoidheight><course>74.3</course><type>1</type></trkpt>
      <trkpt lat="40.616022" lon="-5.05711949"><ele>2593</ele><speed>15.47</speed><time>2016-06-30T13:11:21Z</time><pdop>4.0</pdop><geoidheight>54.00</geoidheight><course>73.9</course><type>1</type></trkpt>
      <trkpt lat="40.61608565" lon="-5.05694548"><ele>2591</ele><speed>15.58</speed><time>2016-06-30T13:11:22Z</time><pdop>4.0</pdop><geoidheight>54.00</geoidheight><course>68.7</course><type>1</type></trkpt>
      <trkpt lat="40.61614666" lon="-5.05680339"><ele>2589</ele><speed>15.29</speed><time>2016-06-30T13:11:23Z</time><pdop>4.0</pdop><geoidheight>54.00</geoidheight><course>64.7</course><type>1</type></trkpt>
      <trkpt lat="40.61620862" lon="-5.0566365"><ele>2586</ele><speed>15.75</speed><time>2016-06-30T13:11:24Z</time><pdop>4.0</pdop><geoidheight>54.00</geoidheight><course>63.1</course><type>1</type></trkpt>
      <trkpt lat="40.61625615" lon="-5.05645106"><ele>2584</ele><speed>15.81</speed><time>2016-06-30T13:11:25Z</time><pdop>4.0</pdop><geoidheight>54.00</geoidheight><course>66.4</course><type>1</type></trkpt>
      <trkpt lat="40.61633867" lon="-5.05610219"><ele>2579</ele><speed>15.25</speed><time>2016-06-30T13:11:27Z</time><pdop>4.0</pdop><geoidheight>54.00</geoidheight><course>70.4</course><type>1</type></trkpt>
      <trkpt lat="40.6163722" lon="-5.05595819"><ele>2579</ele><speed>14.43</speed><time>2016-06-30T13:11:28Z</time><pdop>4.0</pdop><geoidheight>54.00</geoidheight><course>70.6</course><type>1</type></trkpt>
      <trkpt lat="40.61642454" lon="-5.05580983"><ele>2577</ele><speed>14.09</speed><time>2016-06-30T13:11:29Z</time><pdop>5.0</pdop><geoidheight>54.00</geoidheight><course>66.5</course><type>1</type></trkpt>
      <trkpt lat="40.61647447" lon="-5.05565334"><ele>2575</ele><speed>14.21</speed><time>2016-06-30T13:11:30Z</time><pdop>5.0</pdop><geoidheight>54.00</geoidheight><course>66.4</course><type>1</type></trkpt>
      <trkpt lat="40.61654674" lon="-5.0555121"><ele>2573</ele><speed>14.46</speed><time>2016-06-30T13:11:31Z</time><pdop>6.0</pdop><geoidheight>54.00</geoidheight><course>63.3</course><type>1</type></trkpt>
      <trkpt lat="40.61660972" lon="-5.05536425"><ele>2573</ele><speed>14.39</speed><time>2016-06-30T13:11:32Z</time><pdop>6.0</pdop><geoidheight>54.00</geoidheight><course>62.6</course><type>1</type></trkpt>
      <trkpt lat="40.61662282" lon="-5.05519944"><ele>2571</ele><speed>14.28</speed><time>2016-06-30T13:11:33Z</time><pdop>6.0</pdop><geoidheight>54.00</geoidheight><course>68.3</course><type>1</type></trkpt>
      <trkpt lat="40.61668344" lon="-5.05503649"><ele>2568</ele><speed>14.66</speed><time>2016-06-30T13:11:34Z</time><pdop>6.0</pdop><geoidheight>54.00</geoidheight><course>67.3</course><type>1</type></trkpt>
      <trkpt lat="40.61676619" lon="-5.05485229"><ele>2568</ele><speed>15.70</speed><time>2016-06-30T13:11:35Z</time><pdop>6.0</pdop><geoidheight>54.00</geoidheight><course>65.4</course><type>1</type></trkpt>
      <trkpt lat="40.61683229" lon="-5.05467035"><ele>2566</ele><speed>16.23</speed><time>2016-06-30T13:11:36Z</time><pdop>6.0</pdop><geoidheight>54.00</geoidheight><course>65.8</course><type>1</type></trkpt>
      <trkpt lat="40.61687061" lon="-5.05448994"><ele>2565</ele><speed>16.28</speed><time>2016-06-30T13:11:37Z</time><pdop>5.0</pdop><geoidheight>54.00</geoidheight><course>66.3</course><type>1</type></trkpt>
      <trkpt lat="40.616927" lon="-5.05436129"><ele>2563</ele><speed>15.39</speed><time>2016-06-30T13:11:38Z</time><pdop>7.0</pdop><geoidheight>54.00</geoidheight><course>62.4</course><type>1</type></trkpt>
      <trkpt lat="40.61702497" lon="-5.05419484"><ele>2562</ele><speed>16.27</speed><time>2016-06-30T13:11:39Z</time><pdop>8.0</pdop><geoidheight>54.00</geoidheight><course>57.8</course><type>1</type></trkpt>
      <trkpt lat="40.61711626" lon="-5.05397908"><ele>2560</ele><speed>18.40</speed><time>2016-06-30T13:11:40Z</time><pdop>7.0</pdop><geoidheight>54.00</geoidheight><course>58.5</course><type>1</type></trkpt>
      <trkpt lat="40.61718998" lon="-5.05377291"><ele>2558</ele><speed>18.66</speed><time>2016-06-30T13:11:41Z</time><pdop>6.0</pdop><geoidheight>54.00</geoidheight><course>59.8</course><type>1</type></trkpt>
      <trkpt lat="40.61727717" lon="-5.05356725"><ele>2556</ele><speed>18.75</speed><time>2016-06-30T13:11:42Z</time><pdop>5.0</pdop><geoidheight>54.00</geoidheight><course>59.2</course><type>1</type></trkpt>
      <trkpt lat="40.61736841" lon="-5.05338181"><ele>2555</ele><speed>18.09</speed><time>2016-06-30T13:11:43Z</time><pdop>4.0</pdop><geoidheight>54.00</geoidheight><course>58.0</course><type>1</type></trkpt>
      <trkpt lat="40.61744098" lon="-5.05321184"><ele>2553</ele><speed>16.66</speed><time>2016-06-30T13:11:44Z</time><pdop>4.0</pdop><geoidheight>54.00</geoidheight><course>59.8</course><type>1</type></trkpt>
      <trkpt lat="40.61751304" lon="-5.05305033"><ele>2636</ele><speed>16.13</speed><time>2016-06-30T13:11:45Z</time><pdop>4.0</pdop><geoidheight>54.00</geoidheight><course>59.5</course><type>1</type></trkpt>
      <trkpt lat="40.61759101" lon="-5.05289339"><ele>2611</ele><speed>16.01</speed><time>2016-06-30T13:11:46Z</time><pdop>4.0</pdop><geoidheight>54.00</geoidheight><course>58.9</course><type>1</type></trkpt>
      <trkpt lat="40.61765012" lon="-5.05269491"><ele>2596</ele><speed>17.10</speed><time>2016-06-30T13:11:47Z</time><pdop>6.0</pdop><geoidheight>54.00</geoidheight><course>62.4</course><type>1</type></trkpt>
      <trkpt lat="40.6177446" lon="-5.05248394"><ele>2584</ele><speed>18.26</speed><time>2016-06-30T13:11:48Z</time><pdop>6.0</pdop><geoidheight>54.00</geoidheight><course>61.1</course><type>1</type></trkpt>
      <trkpt lat="40.61784646" lon="-5.05227263"><ele>2577</ele><speed>19.26</speed><time>2016-06-30T13:11:49Z</time><pdop>6.0</pdop><geoidheight>54.00</geoidheight><course>60.1</course><type>1</type></trkpt>
      <trkpt lat="40.6179269" lon="-5.0520732"><ele>2573</ele><speed>19.51</speed><time>2016-06-30T13:11:50Z</time><pdop>11.0</pdop><geoidheight>54.00</geoidheight><course>61.1</course><type>1</type></trkpt>
      <trkpt lat="40.6181075" lon="-5.05167263"><ele>2561</ele><speed>18.95</speed><time>2016-06-30T13:11:52Z</time><pdop>10.0</pdop><geoidheight>54.00</geoidheight><course>63.6</course><type>1</type></trkpt>
      <trkpt lat="40.61823178" lon="-5.05133231"><ele>2554</ele><speed>16.65</speed><time>2016-06-30T13:11:54Z</time><pdop>10.0</pdop><geoidheight>54.00</geoidheight><course>62.4</course><type>1</type></trkpt>
      <trkpt lat="40.6183467" lon="-5.0510259"><ele>2548</ele><speed>14.94</speed><time>2016-06-30T13:11:56Z</time><pdop>10.0</pdop><geoidheight>54.00</geoidheight><course>61.5</course><type>1</type></trkpt>
      <trkpt lat="40.61845311" lon="-5.050727"><ele>2540</ele><speed>13.84</speed><time>2016-06-30T13:11:58Z</time><pdop>10.0</pdop><geoidheight>54.00</geoidheight><course>63.8</course><type>1</type></trkpt>
      <trkpt lat="40.61856443" lon="-5.05045817"><ele>2535</ele><speed>13.61</speed><time>2016-06-30T13:12:00Z</time><pdop>10.0</pdop><geoidheight>54.00</geoidheight><course>58.8</course><type>1</type></trkpt>
      <trkpt lat="40.61873039" lon="-5.0501597"><ele>2522</ele><speed>15.59</speed><time>2016-06-30T13:12:02Z</time><pdop>10.0</pdop><geoidheight>54.00</geoidheight><course>55.4</course><type>1</type></trkpt>
      <trkpt lat="40.61893833" lon="-5.04983377"><ele>2515</ele><speed>17.80</speed><time>2016-06-30T13:12:04Z</time><pdop>10.0</pdop><geoidheight>54.00</geoidheight><course>53.8</course><type>1</type></trkpt>
      <trkpt lat="40.61911197" lon="-5.04952172"><ele>2511</ele><speed>16.47</speed><time>2016-06-30T13:12:06Z</time><pdop>11.0</pdop><geoidheight>54.00</geoidheight><course>54.4</course><type>1</type></trkpt>
      <trkpt lat="40.61924916" lon="-5.04920596"><ele>2502</ele><speed>15.65</speed><time>2016-06-30T13:12:08Z</time><pdop>10.0</pdop><geoidheight>54.00</geoidheight><course>57.1</course><type>1</type></trkpt>
      <trkpt lat="40.61940185" lon="-5.04884119"><ele>2488</ele><speed>18.77</speed><time>2016-06-30T13:12:10Z</time><pdop>10.0</pdop><geoidheight>54.00</geoidheight><course>56.0</course><type>1</type></trkpt>
      <trkpt lat="40.61959616" lon="-5.04848566"><ele>2476</ele><speed>18.86</speed><time>2016-06-30T13:12:12Z</time><pdop>11.0</pdop><geoidheight>54.00</geoidheight><course>54.8</course><type>1</type></trkpt>
      <trkpt lat="40.61979758" lon="-5.04813771"><ele>2473</ele><speed>18.96</speed><time>2016-06-30T13:12:14Z</time><pdop>12.0</pdop><geoidheight>54.00</geoidheight><course>52.8</course><type>1</type></trkpt>
      <trkpt lat="40.61997611" lon="-5.04776393"><ele>2464</ele><speed>19.19</speed><time>2016-06-30T13:12:16Z</time><pdop>11.0</pdop><geoidheight>54.00</geoidheight><course>58.9</course><type>1</type></trkpt>
      <trkpt lat="40.62005012" lon="-5.04738594"><ele>2458</ele><speed>17.27</speed><time>2016-06-30T13:12:18Z</time><pdop>11.0</pdop><geoidheight>54.00</geoidheight><course>69.1</course><type>1</type></trkpt>
      <trkpt lat="40.62014941" lon="-5.04700384"><ele>2453</ele><speed>15.38</speed><time>2016-06-30T13:12:20Z</time><pdop>10.0</pdop><geoidheight>54.00</geoidheight><course>75.3</course><type>1</type></trkpt>
      <trkpt lat="40.62021622" lon="-5.04673231"><ele>2452</ele><speed>12.54</speed><time>2016-06-30T13:12:22Z</time><pdop>9.0</pdop><geoidheight>54.00</geoidheight><course>67.1</course><type>1</type></trkpt>
      <trkpt lat="40.62029993" lon="-5.04651577"><ele>2452</ele><speed>10.14</speed><time>2016-06-30T13:12:24Z</time><pdop>9.0</pdop><geoidheight>54.00</geoidheight><course>61.1</course><type>1</type></trkpt>
      <trkpt lat="40.62037689" lon="-5.04630514"><ele>2449</ele><speed>10.34</speed><time>2016-06-30T13:12:26Z</time><pdop>10.0</pdop><geoidheight>54.00</geoidheight><course>63.9</course><type>1</type></trkpt>
      <trkpt lat="40.62046223" lon="-5.04604643"><ele>2447</ele><speed>12.10</speed><time>2016-06-30T13:12:28Z</time><pdop>11.0</pdop><geoidheight>54.00</geoidheight><course>67.5</course><type>1</type></trkpt>
      <trkpt lat="40.6205599" lon="-5.04575786"><ele>2445</ele><speed>13.73</speed><time>2016-06-30T13:12:30Z</time><pdop>12.0</pdop><geoidheight>54.00</geoidheight><course>64.1</course><type>1</type></trkpt>
      <trkpt lat="40.62074334" lon="-5.04545041"><ele>2442</ele><speed>15.62</speed><time>2016-06-30T13:12:32Z</time><pdop>10.0</pdop><geoidheight>54.00</geoidheight><course>53.0</course><type>1</type></trkpt>
      <trkpt lat="40.62090809" lon="-5.04517633"><ele>2443</ele><speed>13.51</speed><time>2016-06-30T13:12:34Z</time><pdop>10.0</pdop><geoidheight>54.00</geoidheight><course>49.2</course><type>1</type></trkpt>
      <trkpt lat="40.62104011" lon="-5.04496579"><ele>2443</ele><speed>11.14</speed><time>2016-06-30T13:12:36Z</time><pdop>10.0</pdop><geoidheight>54.00</geoidheight><course>50.0</course><type>1</type></trkpt>
      <trkpt lat="40.62116631" lon="-5.04478616"><ele>2440</ele><speed>10.60</speed><time>2016-06-30T13:12:38Z</time><pdop>10.0</pdop><geoidheight>54.00</geoidheight><course>44.8</course><type>1</type></trkpt>
      <trkpt lat="40.62132931" lon="-5.04452142"><ele>2436</ele><speed>9.67</speed><time>2016-06-30T13:12:41Z</time><pdop>10.0</pdop><geoidheight>54.00</geoidheight><course>52.8</course><type>1</type></trkpt>
      <trkpt lat="40.62143459" lon="-5.04433184"><ele>2433</ele><speed>9.81</speed><time>2016-06-30T13:12:43Z</time><pdop>9.0</pdop><geoidheight>54.00</geoidheight><course>53.0</course><type>1</type></trkpt>
      <trkpt lat="40.62155691" lon="-5.04411429"><ele>2425</ele><speed>12.71</speed><time>2016-06-30T13:12:45Z</time><pdop>9.0</pdop><geoidheight>54.00</geoidheight><course>52.0</course><type>1</type></trkpt>
      <trkpt lat="40.6217064" lon="-5.04384489"><ele>2419</ele><speed>14.39</speed><time>2016-06-30T13:12:47Z</time><pdop>10.0</pdop><geoidheight>54.00</geoidheight><course>54.6</course><type>1</type></trkpt>
      <trkpt lat="40.62191378" lon="-5.0434438"><ele>2413</ele><speed>12.71</speed><time>2016-06-30T13:12:50Z</time><pdop>10.0</pdop><geoidheight>54.00</geoidheight><course>56.0</course><type>1</type></trkpt>
      <trkpt lat="40.62202574" lon="-5.04323898"><ele>2402</ele><speed>13.85</speed><time>2016-06-30T13:12:52Z</time><pdop>10.0</pdop><geoidheight>54.00</geoidheight><course>53.3</course><type>1</type></trkpt>
      <trkpt lat="40.62217587" lon="-5.04294267"><ele>2390</ele><speed>16.76</speed><time>2016-06-30T13:12:54Z</time><pdop>11.0</pdop><geoidheight>54.00</geoidheight><course>54.9</course><type>1</type></trkpt>
      <trkpt lat="40.62233667" lon="-5.04256795"><ele>2380</ele><speed>18.74</speed><time>2016-06-30T13:12:56Z</time><pdop>12.0</pdop><geoidheight>54.00</geoidheight><course>59.2</course><type>1</type></trkpt>
      <trkpt lat="40.62257236" lon="-5.04225298"><ele>2380</ele><speed>16.77</speed><time>2016-06-30T13:12:58Z</time><pdop>9.0</pdop><geoidheight>54.00</geoidheight><course>48.2</course><type>1</type></trkpt>
      <trkpt lat="40.62277043" lon="-5.04200491"><ele>2380</ele><speed>14.15</speed><time>2016-06-30T13:13:00Z</time><pdop>9.0</pdop><geoidheight>54.00</geoidheight><course>48.4</course><type>1</type></trkpt>
      <trkpt lat="40.62296181" lon="-5.04176875"><ele>2380</ele><speed>14.41</speed><time>2016-06-30T13:13:02Z</time><pdop>10.0</pdop><geoidheight>54.00</geoidheight><course>44.9</course><type>1</type></trkpt>
      <trkpt lat="40.62318925" lon="-5.04149083"><ele>2378</ele><speed>16.63</speed><time>2016-06-30T13:13:04Z</time><pdop>11.0</pdop><geoidheight>54.00</geoidheight><course>45.7</course><type>1</type></trkpt>
      <trkpt lat="40.6233711" lon="-5.04113739"><ele>2373</ele><speed>17.67</speed><time>2016-06-30T13:13:06Z</time><pdop>10.0</pdop><geoidheight>54.00</geoidheight><course>52.0</course><type>1</type></trkpt>
      <trkpt lat="40.62357786" lon="-5.04085293"><ele>2369</ele><speed>15.89</speed><time>2016-06-30T13:13:08Z</time><pdop>10.0</pdop><geoidheight>54.00</geoidheight><course>50.5</course><type>1</type></trkpt>
      <trkpt lat="40.62375464" lon="-5.04057228"><ele>2364</ele><speed>15.05</speed><time>2016-06-30T13:13:10Z</time><pdop>10.0</pdop><geoidheight>54.00</geoidheight><course>48.9</course><type>1</type></trkpt>
      <trkpt lat="40.62399198" lon="-5.04032689"><ele>2356</ele><speed>17.18</speed><time>2016-06-30T13:13:12Z</time><pdop>10.0</pdop><geoidheight>54.00</geoidheight><course>37.4</course><type>1</type></trkpt>
      <trkpt lat="40.624236" lon="-5.04005937"><ele>2346</ele><speed>17.87</speed><time>2016-06-30T13:13:14Z</time><pdop>10.0</pdop><geoidheight>54.00</geoidheight><course>40.4</course><type>1</type></trkpt>
      <trkpt lat="40.62445373" lon="-5.03978108"><ele>2338</ele><speed>17.73</speed><time>2016-06-30T13:13:16Z</time><pdop>10.0</pdop><geoidheight>54.00</geoidheight><course>44.3</course><type>1</type></trkpt>
      <trkpt lat="40.62469064" lon="-5.03949384"><ele>2330</ele><speed>18.47</speed><time>2016-06-30T13:13:18Z</time><pdop>10.0</pdop><geoidheight>54.00</geoidheight><course>44.8</course><type>1</type></trkpt>
      <trkpt lat="40.62487825" lon="-5.03917248"><ele>2322</ele><speed>17.85</speed><time>2016-06-30T13:13:20Z</time><pdop>11.0</pdop><geoidheight>54.00</geoidheight><course>49.2</course><type>1</type></trkpt>
      <trkpt lat="40.62505155" lon="-5.03887206"><ele>2312</ele><speed>17.47</speed><time>2016-06-30T13:13:22Z</time><pdop>10.0</pdop><geoidheight>54.00</geoidheight><course>49.5</course><type>1</type></trkpt>
      <trkpt lat="40.6252477" lon="-5.03854309"><ele>2306</ele><speed>17.45</speed><time>2016-06-30T13:13:24Z</time><pdop>9.0</pdop><geoidheight>54.00</geoidheight><course>55.0</course><type>1</type></trkpt>
      <trkpt lat="40.62541964" lon="-5.03820961"><ele>2302</ele><speed>16.96</speed><time>2016-06-30T13:13:26Z</time><pdop>9.0</pdop><geoidheight>54.00</geoidheight><course>55.8</course><type>1</type></trkpt>
      <trkpt lat="40.62558749" lon="-5.03791791"><ele>2298</ele><speed>15.96</speed><time>2016-06-30T13:13:28Z</time><pdop>10.0</pdop><geoidheight>54.00</geoidheight><course>50.5</course><type>1</type></trkpt>
      <trkpt lat="40.62573841" lon="-5.03761866"><ele>2287</ele><speed>16.54</speed><time>2016-06-30T13:13:30Z</time><pdop>10.0</pdop><geoidheight>54.00</geoidheight><course>52.7</course><type>1</type></trkpt>
      <trkpt lat="40.62592942" lon="-5.03734255"><ele>2280</ele><speed>16.69</speed><time>2016-06-30T13:13:32Z</time><pdop>10.0</pdop><geoidheight>54.00</geoidheight><course>49.5</course><type>1</type></trkpt>
      <trkpt lat="40.6261182" lon="-5.03707653"><ele>2278</ele><speed>15.77</speed><time>2016-06-30T13:13:34Z</time><pdop>12.0</pdop><geoidheight>54.00</geoidheight><course>49.0</course><type>1</type></trkpt>
      <trkpt lat="40.62634711" lon="-5.03676449"><ele>2269</ele><speed>17.46</speed><time>2016-06-30T13:13:36Z</time><pdop>12.0</pdop><geoidheight>54.00</geoidheight><course>49.1</course><type>1</type></trkpt>
      <trkpt lat="40.62654728" lon="-5.03645646"><ele>2261</ele><speed>16.74</speed><time>2016-06-30T13:13:38Z</time><pdop>11.0</pdop><geoidheight>54.00</geoidheight><course>48.9</course><type>1</type></trkpt>
      <trkpt lat="40.62674182" lon="-5.03617615"><ele>2258</ele><speed>16.38</speed><time>2016-06-30T13:13:40Z</time><pdop>10.0</pdop><geoidheight>54.00</geoidheight><course>45.6</course><type>1</type></trkpt>
      <trkpt lat="40.62696097" lon="-5.03589618"><ele>2255</ele><speed>17.16</speed><time>2016-06-30T13:13:42Z</time><pdop>11.0</pdop><geoidheight>54.00</geoidheight><course>44.3</course><type>1</type></trkpt>
      <trkpt lat="40.627186" lon="-5.03562332"><ele>2253</ele><speed>16.35</speed><time>2016-06-30T13:13:44Z</time><pdop>11.0</pdop><geoidheight>54.00</geoidheight><course>41.9</course><type>1</type></trkpt>
      <trkpt lat="40.62739888" lon="-5.03537984"><ele>2250</ele><speed>15.23</speed><time>2016-06-30T13:13:46Z</time><pdop>11.0</pdop><geoidheight>54.00</geoidheight><course>39.9</course><type>1</type></trkpt>
      <trkpt lat="40.62757465" lon="-5.03514448"><ele>2244</ele><speed>14.61</speed><time>2016-06-30T13:13:48Z</time><pdop>11.0</pdop><geoidheight>54.00</geoidheight><course>45.2</course><type>1</type></trkpt>
      <trkpt lat="40.62776651" lon="-5.03490005"><ele>2238</ele><speed>15.59</speed><time>2016-06-30T13:13:50Z</time><pdop>11.0</pdop><geoidheight>54.00</geoidheight><course>43.9</course><type>1</type></trkpt>
      <trkpt lat="40.6279548" lon="-5.03460827"><ele>2228</ele><speed>16.42</speed><time>2016-06-30T13:13:52Z</time><pdop>11.0</pdop><geoidheight>54.00</geoidheight><course>50.9</course><type>1</type></trkpt>
      <trkpt lat="40.62813188" lon="-5.03431807"><ele>2222</ele><speed>16.09</speed><time>2016-06-30T13:13:54Z</time><pdop>11.0</pdop><geoidheight>54.00</geoidheight><course>48.3</course><type>1</type></trkpt>
      <trkpt lat="40.62833726" lon="-5.03405756"><ele>2216</ele><speed>16.82</speed><time>2016-06-30T13:13:56Z</time><pdop>10.0</pdop><geoidheight>54.00</geoidheight><course>41.8</course><type>1</type></trkpt>
      <trkpt lat="40.62851456" lon="-5.0337815"><ele>2208</ele><speed>15.40</speed><time>2016-06-30T13:13:58Z</time><pdop>10.0</pdop><geoidheight>54.00</geoidheight><course>47.1</course><type>1</type></trkpt>
      <trkpt lat="40.62871131" lon="-5.03350841"><ele>2206</ele><speed>14.67</speed><time>2016-06-30T13:14:00Z</time><pdop>10.0</pdop><geoidheight>54.00</geoidheight><course>48.4</course><type>1</type></trkpt>
      <trkpt lat="40.62888109" lon="-5.03324001"><ele>2205</ele><speed>14.81</speed><time>2016-06-30T13:14:02Z</time><pdop>11.0</pdop><geoidheight>54.00</geoidheight><course>50.8</course><type>1</type></trkpt>
      <trkpt lat="40.62904845" lon="-5.03300217"><ele>2203</ele><speed>14.37</speed><time>2016-06-30T13:14:04Z</time><pdop>12.0</pdop><geoidheight>54.00</geoidheight><course>45.6</course><type>1</type></trkpt>
      <trkpt lat="40.62935926" lon="-5.03273298"><ele>2199</ele><speed>18.01</speed><time>2016-06-30T13:14:06Z</time><pdop>12.0</pdop><geoidheight>54.00</geoidheight><course>36.3</course><type>1</type></trkpt>
      <trkpt lat="40.62950683" lon="-5.03251917"><ele>2192</ele><speed>15.06</speed><time>2016-06-30T13:14:08Z</time><pdop>11.0</pdop><geoidheight>54.00</geoidheight><course>37.4</course><type>1</type></trkpt>
      <trkpt lat="40.62968284" lon="-5.03232459"><ele>2187</ele><speed>12.85</speed><time>2016-06-30T13:14:10Z</time><pdop>10.0</pdop><geoidheight>54.00</geoidheight><course>42.6</course><type>1</type></trkpt>
      <trkpt lat="40.62986016" lon="-5.03211597"><ele>2181</ele><speed>14.00</speed><time>2016-06-30T13:14:12Z</time><pdop>11.0</pdop><geoidheight>54.00</geoidheight><course>44.2</course><type>1</type></trkpt>
      <trkpt lat="40.63000661" lon="-5.03188853"><ele>2175</ele><speed>14.40</speed><time>2016-06-30T13:14:14Z</time><pdop>11.0</pdop><geoidheight>54.00</geoidheight><course>46.9</course><type>1</type></trkpt>
      <trkpt lat="40.63016791" lon="-5.03159032"><ele>2174</ele><speed>15.72</speed><time>2016-06-30T13:14:16Z</time><pdop>11.0</pdop><geoidheight>54.00</geoidheight><course>52.8</course><type>1</type></trkpt>
      <trkpt lat="40.63029486" lon="-5.03131527"><ele>2177</ele><speed>12.20</speed><time>2016-06-30T13:14:18Z</time><pdop>10.0</pdop><geoidheight>54.00</geoidheight><course>62.1</course><type>1</type></trkpt>
      <trkpt lat="40.63036456" lon="-5.03108832"><ele>2175</ele><speed>10.00</speed><time>2016-06-30T13:14:20Z</time><pdop>10.0</pdop><geoidheight>54.00</geoidheight><course>64.2</course><type>1</type></trkpt>
      <trkpt lat="40.63047474" lon="-5.03086111"><ele>2173</ele><speed>11.53</speed><time>2016-06-30T13:14:22Z</time><pdop>10.0</pdop><geoidheight>54.00</geoidheight><course>59.7</course><type>1</type></trkpt>
      <trkpt lat="40.63059549" lon="-5.03061634"><ele>2170</ele><speed>12.32</speed><time>2016-06-30T13:14:24Z</time><pdop>10.0</pdop><geoidheight>54.00</geoidheight><course>56.8</course><type>1</type></trkpt>
      <trkpt lat="40.63071798" lon="-5.03037249"><ele>2170</ele><speed>12.07</speed><time>2016-06-30T13:14:26Z</time><pdop>10.0</pdop><geoidheight>54.00</geoidheight><course>57.7</course><type>1</type></trkpt>
      <trkpt lat="40.63081931" lon="-5.03013553"><ele>2169</ele><speed>11.06</speed><time>2016-06-30T13:14:28Z</time><pdop>10.0</pdop><geoidheight>54.00</geoidheight><course>56.8</course><type>1</type></trkpt>
      <trkpt lat="40.63093482" lon="-5.02992268"><ele>2166</ele><speed>11.06</speed><time>2016-06-30T13:14:30Z</time><pdop>9.0</pdop><geoidheight>54.00</geoidheight><course>54.1</course><type>1</type></trkpt>
      <trkpt lat="40.63109254" lon="-5.02975901"><ele>2163</ele><speed>11.33</speed><time>2016-06-30T13:14:32Z</time><pdop>9.0</pdop><geoidheight>54.00</geoidheight><course>31.9</course><type>1</type></trkpt>
      <trkpt lat="40.63134841" lon="-5.02975631"><ele>2162</ele><speed>9.13</speed><time>2016-06-30T13:14:35Z</time><pdop>10.0</pdop><geoidheight>54.00</geoidheight><course>358.1</course><type>1</type></trkpt>
      <trkpt lat="40.63151108" lon="-5.02995579"><ele>2162</ele><speed>5.72</speed><time>2016-06-30T13:14:39Z</time><pdop>11.0</pdop><geoidheight>54.00</geoidheight><course>320.4</course><type>1</type></trkpt>
      <trkpt lat="40.63160542" lon="-5.03017323"><ele>2165</ele><speed>6.62</speed><time>2016-06-30T13:14:42Z</time><pdop>6.0</pdop><geoidheight>54.00</geoidheight><course>294.9</course><type>1</type></trkpt>
      <trkpt lat="40.63167023" lon="-5.03034222"><ele>2169</ele><speed>6.94</speed><time>2016-06-30T13:14:44Z</time><pdop>4.0</pdop><geoidheight>54.00</geoidheight><course>305.2</course><type>1</type></trkpt>
      <trkpt lat="40.63174392" lon="-5.03043827"><ele>2172</ele><speed>6.63</speed><time>2016-06-30T13:14:46Z</time><pdop>5.0</pdop><geoidheight>54.00</geoidheight><course>319.2</course><type>1</type></trkpt>
      <trkpt lat="40.63183993" lon="-5.03053987"><ele>2174</ele><speed>7.02</speed><time>2016-06-30T13:14:48Z</time><pdop>5.0</pdop><geoidheight>54.00</geoidheight><course>321.8</course><type>1</type></trkpt>
      <trkpt lat="40.6318955" lon="-5.03067061"><ele>2177</ele><speed>5.35</speed><time>2016-06-30T13:14:50Z</time><pdop>5.0</pdop><geoidheight>54.00</geoidheight><course>303.5</course><type>1</type></trkpt>
      <trkpt lat="40.63194875" lon="-5.03084257"><ele>2176</ele><speed>7.56</speed><time>2016-06-30T13:14:52Z</time><pdop>7.0</pdop><geoidheight>54.00</geoidheight><course>291.3</course><type>1</type></trkpt>
      <trkpt lat="40.63177647" lon="-5.03097728"><ele>2174</ele><speed>5.65</speed><time>2016-06-30T13:14:55Z</time><pdop>11.0</pdop><geoidheight>54.00</geoidheight><course>229.5</course><type>1</type></trkpt>
      <trkpt lat="40.6313741" lon="-5.03070013"><ele>2171</ele><speed>12.82</speed><time>2016-06-30T13:14:57Z</time><pdop>9.0</pdop><geoidheight>54.00</geoidheight><course>152.2</course><type>1</type></trkpt>
      <trkpt lat="40.63120684" lon="-5.03046809"><ele>2170</ele><speed>10.48</speed><time>2016-06-30T13:14:59Z</time><pdop>9.0</pdop><geoidheight>54.00</geoidheight><course>135.8</course><type>1</type></trkpt>
      <trkpt lat="40.63106378" lon="-5.03015781"><ele>2171</ele><speed>12.35</speed><time>2016-06-30T13:15:01Z</time><pdop>7.0</pdop><geoidheight>54.00</geoidheight><course>119.1</course><type>1</type></trkpt>
      <trkpt lat="40.6309997" lon="-5.02999212"><ele>2171</ele><speed>13.29</speed><time>2016-06-30T13:15:02Z</time><pdop>6.0</pdop><geoidheight>54.00</geoidheight><course>116.5</course><type>1</type></trkpt>
      <trkpt lat="40.63095756" lon="-5.02983491"><ele>2171</ele><speed>13.20</speed><time>2016-06-30T13:15:03Z</time><pdop>6.0</pdop><geoidheight>54.00</geoidheight><course>113.9</course><type>1</type></trkpt>
      <trkpt lat="40.63090215" lon="-5.02965638"><ele>2171</ele><speed>13.59</speed><time>2016-06-30T13:15:04Z</time><pdop>6.0</pdop><geoidheight>54.00</geoidheight><course>111.2</course><type>1</type></trkpt>
      <trkpt lat="40.63089853" lon="-5.02946702"><ele>2171</ele><speed>13.46</speed><time>2016-06-30T13:15:05Z</time><pdop>5.0</pdop><geoidheight>54.00</geoidheight><course>94.0</course><type>1</type></trkpt>
      <trkpt lat="40.63091323" lon="-5.029304"><ele>2172</ele><speed>12.75</speed><time>2016-06-30T13:15:06Z</time><pdop>5.0</pdop><geoidheight>54.00</geoidheight><course>84.0</course><type>1</type></trkpt>
      <trkpt lat="40.63094227" lon="-5.02917593"><ele>2171</ele><speed>11.80</speed><time>2016-06-30T13:15:07Z</time><pdop>5.0</pdop><geoidheight>54.00</geoidheight><course>75.4</course><type>1</type></trkpt>
      <trkpt lat="40.63097222" lon="-5.02905419"><ele>2171</ele><speed>10.64</speed><time>2016-06-30T13:15:08Z</time><pdop>5.0</pdop><geoidheight>54.00</geoidheight><course>72.7</course><type>1</type></trkpt>
      <trkpt lat="40.63108565" lon="-5.02887421"><ele>2171</ele><speed>10.25</speed><time>2016-06-30T13:15:10Z</time><pdop>4.0</pdop><geoidheight>54.00</geoidheight><course>51.1</course><type>1</type></trkpt>
      <trkpt lat="40.63115187" lon="-5.02877182"><ele>2172</ele><speed>11.01</speed><time>2016-06-30T13:15:11Z</time><pdop>4.0</pdop><geoidheight>54.00</geoidheight><course>48.7</course><type>1</type></trkpt>
      <trkpt lat="40.63120281" lon="-5.02866905"><ele>2175</ele><speed>10.87</speed><time>2016-06-30T13:15:12Z</time><pdop>4.0</pdop><geoidheight>54.00</geoidheight><course>52.8</course><type>1</type></trkpt>
      <trkpt lat="40.63125262" lon="-5.02856849"><ele>2176</ele><speed>10.41</speed><time>2016-06-30T13:15:13Z</time><pdop>4.0</pdop><geoidheight>54.00</geoidheight><course>57.8</course><type>1</type></trkpt>
      <trkpt lat="40.63129996" lon="-5.028467"><ele>2178</ele><speed>10.06</speed><time>2016-06-30T13:15:14Z</time><pdop>5.0</pdop><geoidheight>54.00</geoidheight><course>57.6</course><type>1</type></trkpt>
      <trkpt lat="40.63133553" lon="-5.0283708"><ele>2178</ele><speed>9.93</speed><time>2016-06-30T13:15:15Z</time><pdop>4.0</pdop><geoidheight>54.00</geoidheight><course>55.5</course><type>1</type></trkpt>
      <trkpt lat="40.63139122" lon="-5.0282746"><ele>2178</ele><speed>10.09</speed><time>2016-06-30T13:15:16Z</time><pdop>4.0</pdop><geoidheight>54.00</geoidheight><course>52.6</course><type>1</type></trkpt>
      <trkpt lat="40.63144891" lon="-5.02817098"><ele>2179</ele><speed>10.51</speed><time>2016-06-30T13:15:17Z</time><pdop>4.0</pdop><geoidheight>54.00</geoidheight><course>52.5</course><type>1</type></trkpt>
      <trkpt lat="40.6315074" lon="-5.02806203"><ele>2179</ele><speed>10.70</speed><time>2016-06-30T13:15:18Z</time><pdop>4.0</pdop><geoidheight>54.00</geoidheight><course>54.7</course><type>1</type></trkpt>
      <trkpt lat="40.63155405" lon="-5.02795171"><ele>2180</ele><speed>11.00</speed><time>2016-06-30T13:15:19Z</time><pdop>4.0</pdop><geoidheight>54.00</geoidheight><course>57.9</course><type>1</type></trkpt>
      <trkpt lat="40.63158727" lon="-5.02782597"><ele>2182</ele><speed>11.20</speed><time>2016-06-30T13:15:20Z</time><pdop>4.0</pdop><geoidheight>54.00</geoidheight><course>67.3</course><type>1</type></trkpt>
      <trkpt lat="40.63159911" lon="-5.02769061"><ele>2182</ele><speed>12.06</speed><time>2016-06-30T13:15:21Z</time><pdop>4.0</pdop><geoidheight>54.00</geoidheight><course>82.1</course><type>1</type></trkpt>
      <trkpt lat="40.63157862" lon="-5.02753241"><ele>2183</ele><speed>13.40</speed><time>2016-06-30T13:15:22Z</time><pdop>4.0</pdop><geoidheight>54.00</geoidheight><course>97.9</course><type>1</type></trkpt>
      <trkpt lat="40.63152107" lon="-5.02738188"><ele>2183</ele><speed>14.29</speed><time>2016-06-30T13:15:23Z</time><pdop>3.0</pdop><geoidheight>54.00</geoidheight><course>115.3</course><type>1</type></trkpt>
      <trkpt lat="40.63145007" lon="-5.02725275"><ele>2183</ele><speed>13.44</speed><time>2016-06-30T13:15:24Z</time><pdop>4.0</pdop><geoidheight>54.00</geoidheight><course>123.2</course><type>1</type></trkpt>
      <trkpt lat="40.63138224" lon="-5.02716366"><ele>2183</ele><speed>11.34</speed><time>2016-06-30T13:15:25Z</time><pdop>5.0</pdop><geoidheight>54.00</geoidheight><course>132.2</course><type>1</type></trkpt>
      <trkpt lat="40.63129693" lon="-5.02705148"><ele>2184</ele><speed>12.00</speed><time>2016-06-30T13:15:26Z</time><pdop>7.0</pdop><geoidheight>54.00</geoidheight><course>133.5</course><type>1</type></trkpt>
      <trkpt lat="40.6312074" lon="-5.02733547"><ele>2182</ele><speed>7.30</speed><time>2016-06-30T13:15:29Z</time><pdop>6.0</pdop><geoidheight>54.00</geoidheight><course>250.8</course><type>1</type></trkpt>
      <trkpt lat="40.63118811" lon="-5.02753504"><ele>2181</ele><speed>7.38</speed><time>2016-06-30T13:15:31Z</time><pdop>6.0</pdop><geoidheight>54.00</geoidheight><course>285.3</course><type>1</type></trkpt>
      <trkpt lat="40.63127185" lon="-5.02767462"><ele>2183</ele><speed>7.36</speed><time>2016-06-30T13:15:33Z</time><pdop>6.0</pdop><geoidheight>54.00</geoidheight><course>312.4</course><type>1</type></trkpt>
      <trkpt lat="40.63133318" lon="-5.02781433"><ele>2183</ele><speed>7.32</speed><time>2016-06-30T13:15:35Z</time><pdop>5.0</pdop><geoidheight>54.00</geoidheight><course>310.9</course><type>1</type></trkpt>
      <trkpt lat="40.63142389" lon="-5.02792518"><ele>2185</ele><speed>7.49</speed><time>2016-06-30T13:15:37Z</time><pdop>5.0</pdop><geoidheight>54.00</geoidheight><course>325.5</course><type>1</type></trkpt>
      <trkpt lat="40.63153624" lon="-5.02792752"><ele>2186</ele><speed>6.17</speed><time>2016-06-30T13:15:39Z</time><pdop>5.0</pdop><geoidheight>54.00</geoidheight><course>349.6</course><type>1</type></trkpt>
      <trkpt lat="40.6316682" lon="-5.02769685"><ele>2186</ele><speed>10.12</speed><time>2016-06-30T13:15:41Z</time><pdop>5.0</pdop><geoidheight>54.00</geoidheight><course>41.3</course><type>1</type></trkpt>
      <trkpt lat="40.63166741" lon="-5.02752459"><ele>2186</ele><speed>11.12</speed><time>2016-06-30T13:15:42Z</time><pdop>5.0</pdop><geoidheight>54.00</geoidheight><course>69.5</course><type>1</type></trkpt>
      <trkpt lat="40.63162392" lon="-5.02735701"><ele>2186</ele><speed>11.80</speed><time>2016-06-30T13:15:43Z</time><pdop>5.0</pdop><geoidheight>54.00</geoidheight><course>90.7</course><type>1</type></trkpt>
      <trkpt lat="40.6316092" lon="-5.02720168"><ele>2187</ele><speed>11.98</speed><time>2016-06-30T13:15:44Z</time><pdop>6.0</pdop><geoidheight>54.00</geoidheight><course>93.7</course><type>1</type></trkpt>
      <trkpt lat="40.63156769" lon="-5.02706299"><ele>2188</ele><speed>11.57</speed><time>2016-06-30T13:15:45Z</time><pdop>6.0</pdop><geoidheight>54.00</geoidheight><course>101.0</course><type>1</type></trkpt>
      <trkpt lat="40.63146847" lon="-5.02696741"><ele>2190</ele><speed>10.31</speed><time>2016-06-30T13:15:46Z</time><pdop>6.0</pdop><geoidheight>54.00</geoidheight><course>119.1</course><type>1</type></trkpt>
      <trkpt lat="40.6312526" lon="-5.0268719"><ele>2192</ele><speed>9.46</speed><time>2016-06-30T13:15:48Z</time><pdop>6.0</pdop><geoidheight>54.00</geoidheight><course>144.9</course><type>1</type></trkpt>
      <trkpt lat="40.63114526" lon="-5.0270124"><ele>2194</ele><speed>5.83</speed><time>2016-06-30T13:15:50Z</time><pdop>6.0</pdop><geoidheight>54.00</geoidheight><course>211.4</course><type>1</type></trkpt>
      <trkpt lat="40.63109245" lon="-5.02717634"><ele>2196</ele><speed>5.29</speed><time>2016-06-30T13:15:52Z</time><pdop>6.0</pdop><geoidheight>54.00</geoidheight><course>268.7</course><type>1</type></trkpt>
      <trkpt lat="40.63117462" lon="-5.02729298"><ele>2199</ele><speed>5.99</speed><time>2016-06-30T13:15:54Z</time><pdop>5.0</pdop><geoidheight>54.00</geoidheight><course>313.1</course><type>1</type></trkpt>
      <trkpt lat="40.63130527" lon="-5.02721827"><ele>2200</ele><speed>5.71</speed><time>2016-06-30T13:15:56Z</time><pdop>6.0</pdop><geoidheight>54.00</geoidheight><course>8.7</course><type>1</type></trkpt>
      <trkpt lat="40.63133099" lon="-5.02680556"><ele>2205</ele><speed>14.68</speed><time>2016-06-30T13:15:58Z</time><pdop>4.0</pdop><geoidheight>54.00</geoidheight><course>90.5</course><type>1</type></trkpt>
      <trkpt lat="40.63129949" lon="-5.02662629"><ele>2206</ele><speed>16.01</speed><time>2016-06-30T13:15:59Z</time><pdop>3.0</pdop><geoidheight>54.00</geoidheight><course>105.6</course><type>1</type></trkpt>
      <trkpt lat="40.63122847" lon="-5.02644412"><ele>2208</ele><speed>16.90</speed><time>2016-06-30T13:16:00Z</time><pdop>3.0</pdop><geoidheight>54.00</geoidheight><course>119.1</course><type>1</type></trkpt>
      <trkpt lat="40.63114481" lon="-5.02631532"><ele>2209</ele><speed>15.75</speed><time>2016-06-30T13:16:01Z</time><pdop>3.0</pdop><geoidheight>54.00</geoidheight><course>133.6</course><type>1</type></trkpt>
      <trkpt lat="40.63103116" lon="-5.02621005"><ele>2210</ele><speed>15.39</speed><time>2016-06-30T13:16:02Z</time><pdop>3.0</pdop><geoidheight>54.00</geoidheight><course>142.5</course><type>1</type></trkpt>
      <trkpt lat="40.63093691" lon="-5.02612694"><ele>2213</ele><speed>14.01</speed><time>2016-06-30T13:16:03Z</time><pdop>3.0</pdop><geoidheight>54.00</geoidheight><course>148.8</course><type>1</type></trkpt>
      <trkpt lat="40.63085164" lon="-5.02611867"><ele>2215</ele><speed>12.07</speed><time>2016-06-30T13:16:04Z</time><pdop>4.0</pdop><geoidheight>54.00</geoidheight><course>161.9</course><type>1</type></trkpt>
      <trkpt lat="40.63077124" lon="-5.02618742"><ele>2217</ele><speed>10.95</speed><time>2016-06-30T13:16:05Z</time><pdop>5.0</pdop><geoidheight>54.00</geoidheight><course>188.1</course><type>1</type></trkpt>
      <trkpt lat="40.6306906" lon="-5.02635465"><ele>2216</ele><speed>8.97</speed><time>2016-06-30T13:16:07Z</time><pdop>5.0</pdop><geoidheight>54.00</geoidheight><course>224.4</course><type>1</type></trkpt>
      <trkpt lat="40.63066803" lon="-5.02648362"><ele>2218</ele><speed>6.18</speed><time>2016-06-30T13:16:09Z</time><pdop>5.0</pdop><geoidheight>54.00</geoidheight><course>237.6</course><type>1</type></trkpt>
      <trkpt lat="40.63075968" lon="-5.02653564"><ele>2218</ele><speed>5.65</speed><time>2016-06-30T13:16:10Z</time><pdop>5.0</pdop><geoidheight>54.00</geoidheight><course>295.8</course><type>1</type></trkpt>
      <trkpt lat="40.63086656" lon="-5.02648756"><ele>2218</ele><speed>4.22</speed><time>2016-06-30T13:16:12Z</time><pdop>7.0</pdop><geoidheight>54.00</geoidheight><course>0.9</course><type>1</type></trkpt>
      <trkpt lat="40.63102871" lon="-5.02631337"><ele>2218</ele><speed>10.33</speed><time>2016-06-30T13:16:13Z</time><pdop>5.0</pdop><geoidheight>54.00</geoidheight><course>38.4</course><type>1</type></trkpt>
      <trkpt lat="40.6311225" lon="-5.02619057"><ele>2220</ele><speed>11.72</speed><time>2016-06-30T13:16:14Z</time><pdop>6.0</pdop><geoidheight>54.00</geoidheight><course>44.5</course><type>1</type></trkpt>
      <trkpt lat="40.63110032" lon="-5.02601544"><ele>2221</ele><speed>12.39</speed><time>2016-06-30T13:16:15Z</time><pdop>5.0</pdop><geoidheight>54.00</geoidheight><course>66.9</course><type>1</type></trkpt>
      <trkpt lat="40.63116744" lon="-5.02586606"><ele>2222</ele><speed>12.89</speed><time>2016-06-30T13:16:16Z</time><pdop>5.0</pdop><geoidheight>54.00</geoidheight><course>67.4</course><type>1</type></trkpt>
      <trkpt lat="40.63122726" lon="-5.02569031"><ele>2224</ele><speed>14.41</speed><time>2016-06-30T13:16:17Z</time><pdop>5.0</pdop><geoidheight>54.00</geoidheight><course>70.4</course><type>1</type></trkpt>
      <trkpt lat="40.63126816" lon="-5.02550598"><ele>2226</ele><speed>15.63</speed><time>2016-06-30T13:16:18Z</time><pdop>4.0</pdop><geoidheight>54.00</geoidheight><course>76.4</course><type>1</type></trkpt>
      <trkpt lat="40.63128266" lon="-5.02531073"><ele>2229</ele><speed>16.42</speed><time>2016-06-30T13:16:19Z</time><pdop>4.0</pdop><geoidheight>54.00</geoidheight><course>88.8</course><type>1</type></trkpt>
      <trkpt lat="40.63125406" lon="-5.0251193"><ele>2231</ele><speed>16.77</speed><time>2016-06-30T13:16:20Z</time><pdop>4.0</pdop><geoidheight>54.00</geoidheight><course>103.7</course><type>1</type></trkpt>
      <trkpt lat="40.63121225" lon="-5.02493862"><ele>2233</ele><speed>16.22</speed><time>2016-06-30T13:16:21Z</time><pdop>4.0</pdop><geoidheight>54.00</geoidheight><course>107.2</course><type>1</type></trkpt>
      <trkpt lat="40.6311761" lon="-5.02478364"><ele>2234</ele><speed>14.63</speed><time>2016-06-30T13:16:22Z</time><pdop>5.0</pdop><geoidheight>54.00</geoidheight><course>110.0</course><type>1</type></trkpt>
      <trkpt lat="40.63101038" lon="-5.0248244"><ele>2234</ele><speed>12.70</speed><time>2016-06-30T13:16:23Z</time><pdop>4.0</pdop><geoidheight>54.00</geoidheight><course>162.8</course><type>1</type></trkpt>
      <trkpt lat="40.63090716" lon="-5.02478741"><ele>2235</ele><speed>12.31</speed><time>2016-06-30T13:16:24Z</time><pdop>4.0</pdop><geoidheight>54.00</geoidheight><course>166.1</course><type>1</type></trkpt>
      <trkpt lat="40.63079012" lon="-5.02492433"><ele>2234</ele><speed>9.70</speed><time>2016-06-30T13:16:26Z</time><pdop>6.0</pdop><geoidheight>54.00</geoidheight><course>206.8</course><type>1</type></trkpt>
      <trkpt lat="40.63084679" lon="-5.02510499"><ele>2238</ele><speed>6.84</speed><time>2016-06-30T13:16:28Z</time><pdop>6.0</pdop><geoidheight>54.00</geoidheight><course>265.8</course><type>1</type></trkpt>
      <trkpt lat="40.63096826" lon="-5.02513784"><ele>2241</ele><speed>4.40</speed><time>2016-06-30T13:16:30Z</time><pdop>6.0</pdop><geoidheight>54.00</geoidheight><course>314.7</course><type>1</type></trkpt>
      <trkpt lat="40.63115411" lon="-5.02484666"><ele>2243</ele><speed>10.02</speed><time>2016-06-30T13:16:32Z</time><pdop>8.0</pdop><geoidheight>54.00</geoidheight><course>44.1</course><type>1</type></trkpt>
      <trkpt lat="40.63117727" lon="-5.02462772"><ele>2243</ele><speed>12.43</speed><time>2016-06-30T13:16:33Z</time><pdop>6.0</pdop><geoidheight>54.00</geoidheight><course>70.8</course><type>1</type></trkpt>
      <trkpt lat="40.63115933" lon="-5.02438837"><ele>2245</ele><speed>15.16</speed><time>2016-06-30T13:16:34Z</time><pdop>5.0</pdop><geoidheight>54.00</geoidheight><course>96.1</course><type>1</type></trkpt>
      <trkpt lat="40.63110657" lon="-5.02422128"><ele>2249</ele><speed>15.13</speed><time>2016-06-30T13:16:35Z</time><pdop>4.0</pdop><geoidheight>54.00</geoidheight><course>113.1</course><type>1</type></trkpt>
      <trkpt lat="40.63104777" lon="-5.02406753"><ele>2251</ele><speed>14.03</speed><time>2016-06-30T13:16:36Z</time><pdop>4.0</pdop><geoidheight>54.00</geoidheight><course>126.1</course><type>1</type></trkpt>
      <trkpt lat="40.63095808" lon="-5.02394832"><ele>2251</ele><speed>13.96</speed><time>2016-06-30T13:16:37Z</time><pdop>4.0</pdop><geoidheight>54.00</geoidheight><course>134.1</course><type>1</type></trkpt>
      <trkpt lat="40.63086236" lon="-5.02385764"><ele>2252</ele><speed>13.20</speed><time>2016-06-30T13:16:38Z</time><pdop>5.0</pdop><geoidheight>54.00</geoidheight><course>141.6</course><type>1</type></trkpt>
      <trkpt lat="40.63075334" lon="-5.02405321"><ele>2254</ele><speed>8.51</speed><time>2016-06-30T13:16:40Z</time><pdop>5.0</pdop><geoidheight>54.00</geoidheight><course>225.1</course><type>1</type></trkpt>
      <trkpt lat="40.63070732" lon="-5.02420002"><ele>2256</ele><speed>7.20</speed><time>2016-06-30T13:16:42Z</time><pdop>6.0</pdop><geoidheight>54.00</geoidheight><course>245.7</course><type>1</type></trkpt>
      <trkpt lat="40.63083587" lon="-5.02405739"><ele>2260</ele><speed>5.01</speed><time>2016-06-30T13:16:46Z</time><pdop>9.0</pdop><geoidheight>54.00</geoidheight><course>78.1</course><type>1</type></trkpt>
      <trkpt lat="40.63101625" lon="-5.02371265"><ele>2264</ele><speed>13.53</speed><time>2016-06-30T13:16:48Z</time><pdop>8.0</pdop><geoidheight>54.00</geoidheight><course>75.9</course><type>1</type></trkpt>
      <trkpt lat="40.63100005" lon="-5.02352139"><ele>2268</ele><speed>15.46</speed><time>2016-06-30T13:16:49Z</time><pdop>6.0</pdop><geoidheight>54.00</geoidheight><course>95.9</course><type>1</type></trkpt>
      <trkpt lat="40.63099122" lon="-5.02332713"><ele>2267</ele><speed>15.55</speed><time>2016-06-30T13:16:50Z</time><pdop>6.0</pdop><geoidheight>54.00</geoidheight><course>98.6</course><type>1</type></trkpt>
      <trkpt lat="40.6309682" lon="-5.02312452"><ele>2267</ele><speed>16.16</speed><time>2016-06-30T13:16:51Z</time><pdop>6.0</pdop><geoidheight>54.00</geoidheight><course>102.0</course><type>1</type></trkpt>
      <trkpt lat="40.63089908" lon="-5.0229838"><ele>2267</ele><speed>15.24</speed><time>2016-06-30T13:16:52Z</time><pdop>6.0</pdop><geoidheight>54.00</geoidheight><course>111.7</course><type>1</type></trkpt>
      <trkpt lat="40.63070471" lon="-5.02301268"><ele>2267</ele><speed>9.75</speed><time>2016-06-30T13:16:54Z</time><pdop>7.0</pdop><geoidheight>54.00</geoidheight><course>156.1</course><type>1</type></trkpt>
      <trkpt lat="40.63052436" lon="-5.02307096"><ele>2269</ele><speed>9.47</speed><time>2016-06-30T13:16:56Z</time><pdop>6.0</pdop><geoidheight>54.00</geoidheight><course>190.7</course><type>1</type></trkpt>
      <trkpt lat="40.63043375" lon="-5.02324367"><ele>2270</ele><speed>8.33</speed><time>2016-06-30T13:16:58Z</time><pdop>5.0</pdop><geoidheight>54.00</geoidheight><course>223.3</course><type>1</type></trkpt>
      <trkpt lat="40.63053752" lon="-5.02332338"><ele>2270</ele><speed>6.88</speed><time>2016-06-30T13:16:59Z</time><pdop>5.0</pdop><geoidheight>54.00</geoidheight><course>273.4</course><type>1</type></trkpt>
      <trkpt lat="40.63075287" lon="-5.02318224"><ele>2270</ele><speed>10.62</speed><time>2016-06-30T13:17:01Z</time><pdop>5.0</pdop><geoidheight>54.00</geoidheight><course>34.1</course><type>1</type></trkpt>
      <trkpt lat="40.63082585" lon="-5.02305757"><ele>2270</ele><speed>11.76</speed><time>2016-06-30T13:17:02Z</time><pdop>6.0</pdop><geoidheight>54.00</geoidheight><course>43.8</course><type>1</type></trkpt>
      <trkpt lat="40.630799" lon="-5.02277081"><ele>2274</ele><speed>11.16</speed><time>2016-06-30T13:17:04Z</time><pdop>5.0</pdop><geoidheight>54.00</geoidheight><course>92.2</course><type>1</type></trkpt>
      <trkpt lat="40.63078954" lon="-5.02261062"><ele>2275</ele><speed>12.85</speed><time>2016-06-30T13:17:05Z</time><pdop>5.0</pdop><geoidheight>54.00</geoidheight><course>98.0</course><type>1</type></trkpt>
      <trkpt lat="40.63074517" lon="-5.02244392"><ele>2278</ele><speed>14.13</speed><time>2016-06-30T13:17:06Z</time><pdop>4.0</pdop><geoidheight>54.00</geoidheight><course>108.8</course><type>1</type></trkpt>
      <trkpt lat="40.63068513" lon="-5.0222906"><ele>2280</ele><speed>14.26</speed><time>2016-06-30T13:17:07Z</time><pdop>4.0</pdop><geoidheight>54.00</geoidheight><course>118.4</course><type>1</type></trkpt>
      <trkpt lat="40.63059789" lon="-5.02217808"><ele>2281</ele><speed>13.63</speed><time>2016-06-30T13:17:08Z</time><pdop>4.0</pdop><geoidheight>54.00</geoidheight><course>132.2</course><type>1</type></trkpt>
      <trkpt lat="40.63051872" lon="-5.02207305"><ele>2281</ele><speed>13.09</speed><time>2016-06-30T13:17:09Z</time><pdop>4.0</pdop><geoidheight>54.00</geoidheight><course>141.7</course><type>1</type></trkpt>
      <trkpt lat="40.63039979" lon="-5.02208302"><ele>2281</ele><speed>11.77</speed><time>2016-06-30T13:17:10Z</time><pdop>4.0</pdop><geoidheight>54.00</geoidheight><course>163.6</course><type>1</type></trkpt>
      <trkpt lat="40.63030159" lon="-5.02207677"><ele>2281</ele><speed>11.36</speed><time>2016-06-30T13:17:11Z</time><pdop>4.0</pdop><geoidheight>54.00</geoidheight><course>177.4</course><type>1</type></trkpt>
      <trkpt lat="40.63023849" lon="-5.0221446"><ele>2282</ele><speed>10.24</speed><time>2016-06-30T13:17:12Z</time><pdop>5.0</pdop><geoidheight>54.00</geoidheight><course>203.6</course><type>1</type></trkpt>
      <trkpt lat="40.63019962" lon="-5.022295"><ele>2284</ele><speed>7.80</speed><time>2016-06-30T13:17:14Z</time><pdop>6.0</pdop><geoidheight>54.00</geoidheight><course>240.7</course><type>1</type></trkpt>
      <trkpt lat="40.63025798" lon="-5.02240906"><ele>2286</ele><speed>5.69</speed><time>2016-06-30T13:17:16Z</time><pdop>5.0</pdop><geoidheight>54.00</geoidheight><course>304.5</course><type>1</type></trkpt>
      <trkpt lat="40.63036772" lon="-5.02247472"><ele>2288</ele><speed>6.42</speed><time>2016-06-30T13:17:18Z</time><pdop>5.0</pdop><geoidheight>54.00</geoidheight><course>326.0</course><type>1</type></trkpt>
      <trkpt lat="40.63047266" lon="-5.02253229"><ele>2290</ele><speed>6.85</speed><time>2016-06-30T13:17:20Z</time><pdop>6.0</pdop><geoidheight>54.00</geoidheight><course>327.3</course><type>1</type></trkpt>
      <trkpt lat="40.63060149" lon="-5.02262592"><ele>2293</ele><speed>7.60</speed><time>2016-06-30T13:17:22Z</time><pdop>6.0</pdop><geoidheight>54.00</geoidheight><course>330.5</course><type>1</type></trkpt>
      <trkpt lat="40.63073465" lon="-5.0227214"><ele>2299</ele><speed>5.57</speed><time>2016-06-30T13:17:25Z</time><pdop>6.0</pdop><geoidheight>54.00</geoidheight><course>318.2</course><type>1</type></trkpt>
      <trkpt lat="40.63086416" lon="-5.0228184"><ele>2303</ele><speed>5.87</speed><time>2016-06-30T13:17:28Z</time><pdop>5.0</pdop><geoidheight>54.00</geoidheight><course>333.0</course><type>1</type></trkpt>
      <trkpt lat="40.63100562" lon="-5.02276844"><ele>2308</ele><speed>8.13</speed><time>2016-06-30T13:17:30Z</time><pdop>4.0</pdop><geoidheight>54.00</geoidheight><course>27.4</course><type>1</type></trkpt>
      <trkpt lat="40.63107387" lon="-5.02269605"><ele>2307</ele><speed>8.70</speed><time>2016-06-30T13:17:31Z</time><pdop>4.0</pdop><geoidheight>54.00</geoidheight><course>34.9</course><type>1</type></trkpt>
      <trkpt lat="40.63114713" lon="-5.02250723"><ele>2305</ele><speed>12.97</speed><time>2016-06-30T13:17:32Z</time><pdop>5.0</pdop><geoidheight>54.00</geoidheight><course>53.9</course><type>1</type></trkpt>
      <trkpt lat="40.6311337" lon="-5.02221008"><ele>2304</ele><speed>12.50</speed><time>2016-06-30T13:17:34Z</time><pdop>6.0</pdop><geoidheight>54.00</geoidheight><course>79.5</course><type>1</type></trkpt>
      <trkpt lat="40.63105142" lon="-5.02193945"><ele>2305</ele><speed>10.98</speed><time>2016-06-30T13:17:36Z</time><pdop>7.0</pdop><geoidheight>54.00</geoidheight><course>99.9</course><type>1</type></trkpt>
      <trkpt lat="40.63082559" lon="-5.02188651"><ele>2301</ele><speed>8.33</speed><time>2016-06-30T13:17:38Z</time><pdop>9.0</pdop><geoidheight>54.00</geoidheight><course>141.0</course><type>1</type></trkpt>
      <trkpt lat="40.63052999" lon="-5.02200165"><ele>2302</ele><speed>10.65</speed><time>2016-06-30T13:17:40Z</time><pdop>9.0</pdop><geoidheight>54.00</geoidheight><course>184.2</course><type>1</type></trkpt>
      <trkpt lat="40.63053436" lon="-5.02233741"><ele>2303</ele><speed>6.16</speed><time>2016-06-30T13:17:44Z</time><pdop>5.0</pdop><geoidheight>54.00</geoidheight><course>293.7</course><type>1</type></trkpt>
      <trkpt lat="40.63064871" lon="-5.02246294"><ele>2307</ele><speed>7.46</speed><time>2016-06-30T13:17:46Z</time><pdop>6.0</pdop><geoidheight>54.00</geoidheight><course>318.5</course><type>1</type></trkpt>
      <trkpt lat="40.63084006" lon="-5.02250046"><ele>2416</ele><speed>8.76</speed><time>2016-06-30T13:17:48Z</time><pdop>8.0</pdop><geoidheight>54.00</geoidheight><course>346.0</course><type>1</type></trkpt>
      <trkpt lat="40.63100068" lon="-5.02242909"><ele>2368</ele><speed>9.27</speed><time>2016-06-30T13:17:50Z</time><pdop>6.0</pdop><geoidheight>54.00</geoidheight><course>13.0</course><type>1</type></trkpt>
      <trkpt lat="40.63106552" lon="-5.02225506"><ele>2359</ele><speed>11.71</speed><time>2016-06-30T13:17:51Z</time><pdop>7.0</pdop><geoidheight>54.00</geoidheight><course>44.2</course><type>1</type></trkpt>
      <trkpt lat="40.63111124" lon="-5.02193803"><ele>2345</ele><speed>14.41</speed><time>2016-06-30T13:17:53Z</time><pdop>7.0</pdop><geoidheight>54.00</geoidheight><course>73.4</course><type>1</type></trkpt>
      <trkpt lat="40.63103726" lon="-5.02178501"><ele>2339</ele><speed>14.43</speed><time>2016-06-30T13:17:54Z</time><pdop>5.0</pdop><geoidheight>54.00</geoidheight><course>98.8</course><type>1</type></trkpt>
      <trkpt lat="40.63100076" lon="-5.02163504"><ele>2335</ele><speed>14.08</speed><time>2016-06-30T13:17:55Z</time><pdop>5.0</pdop><geoidheight>54.00</geoidheight><course>114.7</course><type>1</type></trkpt>
      <trkpt lat="40.63093409" lon="-5.02148865"><ele>2333</ele><speed>13.71</speed><time>2016-06-30T13:17:56Z</time><pdop>5.0</pdop><geoidheight>54.00</geoidheight><course>119.0</course><type>1</type></trkpt>
      <trkpt lat="40.63085913" lon="-5.02136951"><ele>2331</ele><speed>13.30</speed><time>2016-06-30T13:17:57Z</time><pdop>6.0</pdop><geoidheight>54.00</geoidheight><course>125.0</course><type>1</type></trkpt>
      <trkpt lat="40.63074765" lon="-5.02134462"><ele>2330</ele><speed>12.20</speed><time>2016-06-30T13:17:58Z</time><pdop>6.0</pdop><geoidheight>54.00</geoidheight><course>147.3</course><type>1</type></trkpt>
      <trkpt lat="40.63063649" lon="-5.02132915"><ele>2328</ele><speed>11.58</speed><time>2016-06-30T13:17:59Z</time><pdop>6.0</pdop><geoidheight>54.00</geoidheight><course>160.3</course><type>1</type></trkpt>
      <trkpt lat="40.63051976" lon="-5.02137169"><ele>2328</ele><speed>11.68</speed><time>2016-06-30T13:18:00Z</time><pdop>7.0</pdop><geoidheight>54.00</geoidheight><course>175.7</course><type>1</type></trkpt>
      <trkpt lat="40.6304778" lon="-5.02157878"><ele>2325</ele><speed>7.52</speed><time>2016-06-30T13:18:02Z</time><pdop>5.0</pdop><geoidheight>54.00</geoidheight><course>232.0</course><type>1</type></trkpt>
      <trkpt lat="40.63053714" lon="-5.02166466"><ele>2326</ele><speed>6.81</speed><time>2016-06-30T13:18:03Z</time><pdop>4.0</pdop><geoidheight>54.00</geoidheight><course>284.3</course><type>1</type></trkpt>
      <trkpt lat="40.63061845" lon="-5.02178931"><ele>2327</ele><speed>7.53</speed><time>2016-06-30T13:18:05Z</time><pdop>4.0</pdop><geoidheight>54.00</geoidheight><course>317.1</course><type>1</type></trkpt>
      <trkpt lat="40.63069177" lon="-5.02186735"><ele>2326</ele><speed>8.29</speed><time>2016-06-30T13:18:06Z</time><pdop>5.0</pdop><geoidheight>54.00</geoidheight><course>318.8</course><type>1</type></trkpt>
      <trkpt lat="40.63083371" lon="-5.0217568"><ele>2328</ele><speed>6.89</speed><time>2016-06-30T13:18:08Z</time><pdop>7.0</pdop><geoidheight>54.00</geoidheight><course>12.8</course><type>1</type></trkpt>
      <trkpt lat="40.6309429" lon="-5.02151953"><ele>2332</ele><speed>12.52</speed><time>2016-06-30T13:18:09Z</time><pdop>5.0</pdop><geoidheight>54.00</geoidheight><course>47.3</course><type>1</type></trkpt>
      <trkpt lat="40.63098951" lon="-5.02137928"><ele>2334</ele><speed>12.43</speed><time>2016-06-30T13:18:10Z</time><pdop>4.0</pdop><geoidheight>54.00</geoidheight><course>56.0</course><type>1</type></trkpt>
      <trkpt lat="40.63105139" lon="-5.02124828"><ele>2336</ele><speed>12.51</speed><time>2016-06-30T13:18:11Z</time><pdop>4.0</pdop><geoidheight>54.00</geoidheight><course>65.1</course><type>1</type></trkpt>
      <trkpt lat="40.63108499" lon="-5.02109674"><ele>2336</ele><speed>12.56</speed><time>2016-06-30T13:18:12Z</time><pdop>4.0</pdop><geoidheight>54.00</geoidheight><course>77.8</course><type>1</type></trkpt>
      <trkpt lat="40.63107914" lon="-5.02094302"><ele>2335</ele><speed>13.16</speed><time>2016-06-30T13:18:13Z</time><pdop>4.0</pdop><geoidheight>54.00</geoidheight><course>93.8</course><type>1</type></trkpt>
      <trkpt lat="40.63104914" lon="-5.02079335"><ele>2334</ele><speed>13.15</speed><time>2016-06-30T13:18:14Z</time><pdop>4.0</pdop><geoidheight>54.00</geoidheight><course>100.9</course><type>1</type></trkpt>
      <trkpt lat="40.63102401" lon="-5.02063454"><ele>2335</ele><speed>13.21</speed><time>2016-06-30T13:18:15Z</time><pdop>5.0</pdop><geoidheight>54.00</geoidheight><course>101.8</course><type>1</type></trkpt>
      <trkpt lat="40.63085162" lon="-5.02056264"><ele>2337</ele><speed>9.06</speed><time>2016-06-30T13:18:17Z</time><pdop>7.0</pdop><geoidheight>54.00</geoidheight><course>144.9</course><type>1</type></trkpt>
      <trkpt lat="40.63070036" lon="-5.02052165"><ele>2337</ele><speed>11.59</speed><time>2016-06-30T13:18:18Z</time><pdop>7.0</pdop><geoidheight>54.00</geoidheight><course>158.5</course><type>1</type></trkpt>
      <trkpt lat="40.63060498" lon="-5.02063202"><ele>2337</ele><speed>10.79</speed><time>2016-06-30T13:18:19Z</time><pdop>7.0</pdop><geoidheight>54.00</geoidheight><course>186.5</course><type>1</type></trkpt>
      <trkpt lat="40.63043173" lon="-5.02075731"><ele>2340</ele><speed>10.46</speed><time>2016-06-30T13:18:21Z</time><pdop>9.0</pdop><geoidheight>54.00</geoidheight><course>197.8</course><type>1</type></trkpt>
      <trkpt lat="40.63045102" lon="-5.0210226"><ele>2343</ele><speed>5.72</speed><time>2016-06-30T13:18:25Z</time><pdop>6.0</pdop><geoidheight>54.00</geoidheight><course>261.6</course><type>1</type></trkpt>
      <trkpt lat="40.63051562" lon="-5.02115988"><ele>2345</ele><speed>6.42</speed><time>2016-06-30T13:18:27Z</time><pdop>4.0</pdop><geoidheight>54.00</geoidheight><course>303.9</course><type>1</type></trkpt>
      <trkpt lat="40.63063648" lon="-5.02123219"><ele>2343</ele><speed>7.65</speed><time>2016-06-30T13:18:29Z</time><pdop>4.0</pdop><geoidheight>54.00</geoidheight><course>332.1</course><type>1</type></trkpt>
      <trkpt lat="40.63079617" lon="-5.02116082"><ele>2343</ele><speed>8.16</speed><time>2016-06-30T13:18:31Z</time><pdop>5.0</pdop><geoidheight>54.00</geoidheight><course>7.9</course><type>1</type></trkpt>
      <trkpt lat="40.63087437" lon="-5.02091909"><ele>2343</ele><speed>13.70</speed><time>2016-06-30T13:18:32Z</time><pdop>4.0</pdop><geoidheight>54.00</geoidheight><course>58.0</course><type>1</type></trkpt>
      <trkpt lat="40.6309078" lon="-5.02076285"><ele>2344</ele><speed>13.53</speed><time>2016-06-30T13:18:33Z</time><pdop>4.0</pdop><geoidheight>54.00</geoidheight><course>74.7</course><type>1</type></trkpt>
      <trkpt lat="40.63089962" lon="-5.02060222"><ele>2345</ele><speed>13.06</speed><time>2016-06-30T13:18:34Z</time><pdop>4.0</pdop><geoidheight>54.00</geoidheight><course>91.1</course><type>1</type></trkpt>
      <trkpt lat="40.63085708" lon="-5.0204475"><ele>2346</ele><speed>13.02</speed><time>2016-06-30T13:18:35Z</time><pdop>4.0</pdop><geoidheight>54.00</geoidheight><course>106.5</course><type>1</type></trkpt>
      <trkpt lat="40.6308211" lon="-5.02030583"><ele>2346</ele><speed>12.86</speed><time>2016-06-30T13:18:36Z</time><pdop>4.0</pdop><geoidheight>54.00</geoidheight><course>110.7</course><type>1</type></trkpt>
      <trkpt lat="40.63076252" lon="-5.02019044"><ele>2347</ele><speed>12.73</speed><time>2016-06-30T13:18:37Z</time><pdop>5.0</pdop><geoidheight>54.00</geoidheight><course>118.4</course><type>1</type></trkpt>
      <trkpt lat="40.63061117" lon="-5.0200681"><ele>2348</ele><speed>10.79</speed><time>2016-06-30T13:18:39Z</time><pdop>7.0</pdop><geoidheight>54.00</geoidheight><course>135.3</course><type>1</type></trkpt>
      <trkpt lat="40.63044278" lon="-5.02019007"><ele>2347</ele><speed>8.20</speed><time>2016-06-30T13:18:41Z</time><pdop>7.0</pdop><geoidheight>54.00</geoidheight><course>189.5</course><type>1</type></trkpt>
      <trkpt lat="40.63038721" lon="-5.02040558"><ele>2346</ele><speed>5.84</speed><time>2016-06-30T13:18:44Z</time><pdop>7.0</pdop><geoidheight>54.00</geoidheight><course>243.5</course><type>1</type></trkpt>
      <trkpt lat="40.63048217" lon="-5.02052559"><ele>2346</ele><speed>7.97</speed><time>2016-06-30T13:18:45Z</time><pdop>7.0</pdop><geoidheight>54.00</geoidheight><course>290.4</course><type>1</type></trkpt>
      <trkpt lat="40.63065453" lon="-5.02054991"><ele>2349</ele><speed>7.03</speed><time>2016-06-30T13:18:47Z</time><pdop>7.0</pdop><geoidheight>54.00</geoidheight><course>329.9</course><type>1</type></trkpt>
      <trkpt lat="40.63085907" lon="-5.02033061"><ele>2352</ele><speed>11.43</speed><time>2016-06-30T13:18:49Z</time><pdop>5.0</pdop><geoidheight>54.00</geoidheight><course>36.1</course><type>1</type></trkpt>
      <trkpt lat="40.63093251" lon="-5.02022398"><ele>2352</ele><speed>12.40</speed><time>2016-06-30T13:18:50Z</time><pdop>4.0</pdop><geoidheight>54.00</geoidheight><course>45.7</course><type>1</type></trkpt>
      <trkpt lat="40.63099544" lon="-5.02010851"><ele>2355</ele><speed>12.57</speed><time>2016-06-30T13:18:51Z</time><pdop>4.0</pdop><geoidheight>54.00</geoidheight><course>54.5</course><type>1</type></trkpt>
      <trkpt lat="40.63105745" lon="-5.01998167"><ele>2357</ele><speed>12.43</speed><time>2016-06-30T13:18:52Z</time><pdop>4.0</pdop><geoidheight>54.00</geoidheight><course>63.6</course><type>1</type></trkpt>
      <trkpt lat="40.6310971" lon="-5.01983565"><ele>2359</ele><speed>12.92</speed><time>2016-06-30T13:18:53Z</time><pdop>4.0</pdop><geoidheight>54.00</geoidheight><course>72.3</course><type>1</type></trkpt>
      <trkpt lat="40.63113122" lon="-5.01966572"><ele>2359</ele><speed>13.86</speed><time>2016-06-30T13:18:54Z</time><pdop>3.0</pdop><geoidheight>54.00</geoidheight><course>80.7</course><type>1</type></trkpt>
      <trkpt lat="40.63114919" lon="-5.01949353"><ele>2359</ele><speed>14.18</speed><time>2016-06-30T13:18:55Z</time><pdop>4.0</pdop><geoidheight>54.00</geoidheight><course>90.2</course><type>1</type></trkpt>
      <trkpt lat="40.63112415" lon="-5.01933322"><ele>2361</ele><speed>13.99</speed><time>2016-06-30T13:18:56Z</time><pdop>4.0</pdop><geoidheight>54.00</geoidheight><course>100.6</course><type>1</type></trkpt>
      <trkpt lat="40.63108883" lon="-5.01919219"><ele>2363</ele><speed>13.39</speed><time>2016-06-30T13:18:57Z</time><pdop>3.0</pdop><geoidheight>54.00</geoidheight><course>108.4</course><type>1</type></trkpt>
      <trkpt lat="40.6310378" lon="-5.01905338"><ele>2364</ele><speed>12.75</speed><time>2016-06-30T13:18:58Z</time><pdop>3.0</pdop><geoidheight>54.00</geoidheight><course>115.4</course><type>1</type></trkpt>
      <trkpt lat="40.63098989" lon="-5.01893156"><ele>2365</ele><speed>11.93</speed><time>2016-06-30T13:18:59Z</time><pdop>4.0</pdop><geoidheight>54.00</geoidheight><course>121.2</course><type>1</type></trkpt>
      <trkpt lat="40.63091791" lon="-5.01883923"><ele>2365</ele><speed>11.37</speed><time>2016-06-30T13:19:00Z</time><pdop>4.0</pdop><geoidheight>54.00</geoidheight><course>131.0</course><type>1</type></trkpt>
      <trkpt lat="40.63083545" lon="-5.01878183"><ele>2364</ele><speed>11.06</speed><time>2016-06-30T13:19:01Z</time><pdop>4.0</pdop><geoidheight>54.00</geoidheight><course>140.6</course><type>1</type></trkpt>
      <trkpt lat="40.63074946" lon="-5.0187631"><ele>2363</ele><speed>10.48</speed><time>2016-06-30T13:19:02Z</time><pdop>3.0</pdop><geoidheight>54.00</geoidheight><course>156.4</course><type>1</type></trkpt>
      <trkpt lat="40.63066548" lon="-5.01879517"><ele>2362</ele><speed>9.62</speed><time>2016-06-30T13:19:03Z</time><pdop>3.0</pdop><geoidheight>54.00</geoidheight><course>183.2</course><type>1</type></trkpt>
      <trkpt lat="40.6305744" lon="-5.01885693"><ele>2362</ele><speed>10.74</speed><time>2016-06-30T13:19:04Z</time><pdop>3.0</pdop><geoidheight>54.00</geoidheight><course>202.1</course><type>1</type></trkpt>
      <trkpt lat="40.6305106" lon="-5.01892952"><ele>2363</ele><speed>10.16</speed><time>2016-06-30T13:19:05Z</time><pdop>4.0</pdop><geoidheight>54.00</geoidheight><course>213.2</course><type>1</type></trkpt>
      <trkpt lat="40.63041396" lon="-5.01904936"><ele>2365</ele><speed>7.25</speed><time>2016-06-30T13:19:07Z</time><pdop>5.0</pdop><geoidheight>54.00</geoidheight><course>226.6</course><type>1</type></trkpt>
      <trkpt lat="40.63042295" lon="-5.01918941"><ele>2368</ele><speed>5.37</speed><time>2016-06-30T13:19:09Z</time><pdop>6.0</pdop><geoidheight>54.00</geoidheight><course>257.7</course><type>1</type></trkpt>
      <trkpt lat="40.6305598" lon="-5.01928491"><ele>2369</ele><speed>6.53</speed><time>2016-06-30T13:19:11Z</time><pdop>4.0</pdop><geoidheight>54.00</geoidheight><course>311.9</course><type>1</type></trkpt>
      <trkpt lat="40.63066921" lon="-5.01941227"><ele>2369</ele><speed>7.87</speed><time>2016-06-30T13:19:13Z</time><pdop>4.0</pdop><geoidheight>54.00</geoidheight><course>318.9</course><type>1</type></trkpt>
      <trkpt lat="40.63072383" lon="-5.01947368"><ele>2369</ele><speed>7.70</speed><time>2016-06-30T13:19:14Z</time><pdop>3.0</pdop><geoidheight>54.00</geoidheight><course>320.7</course><type>1</type></trkpt>
      <trkpt lat="40.63077699" lon="-5.01952279"><ele>2370</ele><speed>7.77</speed><time>2016-06-30T13:19:15Z</time><pdop>4.0</pdop><geoidheight>54.00</geoidheight><course>325.0</course><type>1</type></trkpt>
      <trkpt lat="40.630915" lon="-5.01960453"><ele>2369</ele><speed>8.16</speed><time>2016-06-30T13:19:17Z</time><pdop>5.0</pdop><geoidheight>54.00</geoidheight><course>335.5</course><type>1</type></trkpt>
      <trkpt lat="40.63105795" lon="-5.0196475"><ele>2368</ele><speed>8.54</speed><time>2016-06-30T13:19:19Z</time><pdop>5.0</pdop><geoidheight>54.00</geoidheight><course>342.7</course><type>1</type></trkpt>
      <trkpt lat="40.6312158" lon="-5.01966346"><ele>2366</ele><speed>8.49</speed><time>2016-06-30T13:19:21Z</time><pdop>6.0</pdop><geoidheight>54.00</geoidheight><course>352.7</course><type>1</type></trkpt>
      <trkpt lat="40.63137608" lon="-5.01963078"><ele>2366</ele><speed>9.54</speed><time>2016-06-30T13:19:23Z</time><pdop>7.0</pdop><geoidheight>54.00</geoidheight><course>10.6</course><type>1</type></trkpt>
      <trkpt lat="40.63150885" lon="-5.01957373"><ele>2363</ele><speed>12.54</speed><time>2016-06-30T13:19:24Z</time><pdop>5.0</pdop><geoidheight>54.00</geoidheight><course>19.0</course><type>1</type></trkpt>
      <trkpt lat="40.63161943" lon="-5.01950545"><ele>2362</ele><speed>12.81</speed><time>2016-06-30T13:19:25Z</time><pdop>5.0</pdop><geoidheight>54.00</geoidheight><course>22.8</course><type>1</type></trkpt>
      <trkpt lat="40.63171461" lon="-5.01943926"><ele>2363</ele><speed>11.88</speed><time>2016-06-30T13:19:26Z</time><pdop>5.0</pdop><geoidheight>54.00</geoidheight><course>27.9</course><type>1</type></trkpt>
      <trkpt lat="40.63179183" lon="-5.01937589"><ele>2364</ele><speed>10.99</speed><time>2016-06-30T13:19:27Z</time><pdop>4.0</pdop><geoidheight>54.00</geoidheight><course>32.3</course><type>1</type></trkpt>
      <trkpt lat="40.63187624" lon="-5.01931108"><ele>2364</ele><speed>10.58</speed><time>2016-06-30T13:19:28Z</time><pdop>4.0</pdop><geoidheight>54.00</geoidheight><course>33.9</course><type>1</type></trkpt>
      <trkpt lat="40.63196071" lon="-5.01923603"><ele>2363</ele><speed>10.79</speed><time>2016-06-30T13:19:29Z</time><pdop>4.0</pdop><geoidheight>54.00</geoidheight><course>33.2</course><type>1</type></trkpt>
      <trkpt lat="40.6320398" lon="-5.0191638"><ele>2362</ele><speed>11.33</speed><time>2016-06-30T13:19:30Z</time><pdop>3.0</pdop><geoidheight>54.00</geoidheight><course>31.6</course><type>1</type></trkpt>
      <trkpt lat="40.63214036" lon="-5.01909548"><ele>2361</ele><speed>12.19</speed><time>2016-06-30T13:19:31Z</time><pdop>3.0</pdop><geoidheight>54.00</geoidheight><course>31.2</course><type>1</type></trkpt>
      <trkpt lat="40.63223955" lon="-5.0190186"><ele>2361</ele><speed>12.93</speed><time>2016-06-30T13:19:32Z</time><pdop>3.0</pdop><geoidheight>54.00</geoidheight><course>33.4</course><type>1</type></trkpt>
      <trkpt lat="40.63233277" lon="-5.01892697"><ele>2361</ele><speed>13.59</speed><time>2016-06-30T13:19:33Z</time><pdop>4.0</pdop><geoidheight>54.00</geoidheight><course>36.4</course><type>1</type></trkpt>
      <trkpt lat="40.63242706" lon="-5.01882869"><ele>2361</ele><speed>13.82</speed><time>2016-06-30T13:19:34Z</time><pdop>4.0</pdop><geoidheight>54.00</geoidheight><course>38.7</course><type>1</type></trkpt>
      <trkpt lat="40.6325219" lon="-5.01872752"><ele>2361</ele><speed>13.82</speed><time>2016-06-30T13:19:35Z</time><pdop>4.0</pdop><geoidheight>54.00</geoidheight><course>38.7</course><type>1</type></trkpt>
      <trkpt lat="40.63261924" lon="-5.01862734"><ele>2362</ele><speed>13.79</speed><time>2016-06-30T13:19:36Z</time><pdop>3.0</pdop><geoidheight>54.00</geoidheight><course>38.6</course><type>1</type></trkpt>
      <trkpt lat="40.63271607" lon="-5.0185245"><ele>2362</ele><speed>13.54</speed><time>2016-06-30T13:19:37Z</time><pdop>3.0</pdop><geoidheight>54.00</geoidheight><course>39.1</course><type>1</type></trkpt>
      <trkpt lat="40.63280874" lon="-5.01842033"><ele>2362</ele><speed>13.25</speed><time>2016-06-30T13:19:38Z</time><pdop>3.0</pdop><geoidheight>54.00</geoidheight><course>39.1</course><type>1</type></trkpt>
      <trkpt lat="40.63288787" lon="-5.01831559"><ele>2362</ele><speed>12.19</speed><time>2016-06-30T13:19:39Z</time><pdop>3.0</pdop><geoidheight>54.00</geoidheight><course>41.2</course><type>1</type></trkpt>
      <trkpt lat="40.63295667" lon="-5.01822472"><ele>2362</ele><speed>11.40</speed><time>2016-06-30T13:19:40Z</time><pdop>3.0</pdop><geoidheight>54.00</geoidheight><course>42.7</course><type>1</type></trkpt>
      <trkpt lat="40.63302901" lon="-5.01814069"><ele>2361</ele><speed>10.82</speed><time>2016-06-30T13:19:41Z</time><pdop>4.0</pdop><geoidheight>54.00</geoidheight><course>40.4</course><type>1</type></trkpt>
      <trkpt lat="40.63311338" lon="-5.01806613"><ele>2360</ele><speed>11.11</speed><time>2016-06-30T13:19:42Z</time><pdop>3.0</pdop><geoidheight>54.00</geoidheight><course>34.7</course><type>1</type></trkpt>
      <trkpt lat="40.63320992" lon="-5.01798901"><ele>2358</ele><speed>11.77</speed><time>2016-06-30T13:19:43Z</time><pdop>3.0</pdop><geoidheight>54.00</geoidheight><course>31.1</course><type>1</type></trkpt>
      <trkpt lat="40.63330676" lon="-5.01791577"><ele>2357</ele><speed>12.02</speed><time>2016-06-30T13:19:44Z</time><pdop>3.0</pdop><geoidheight>54.00</geoidheight><course>29.8</course><type>1</type></trkpt>
      <trkpt lat="40.63339675" lon="-5.01784799"><ele>2356</ele><speed>12.03</speed><time>2016-06-30T13:19:45Z</time><pdop>3.0</pdop><geoidheight>54.00</geoidheight><course>29.5</course><type>1</type></trkpt>
      <trkpt lat="40.63349043" lon="-5.01778063"><ele>2356</ele><speed>11.89</speed><time>2016-06-30T13:19:46Z</time><pdop>4.0</pdop><geoidheight>54.00</geoidheight><course>30.4</course><type>1</type></trkpt>
      <trkpt lat="40.63358257" lon="-5.01770561"><ele>2356</ele><speed>11.85</speed><time>2016-06-30T13:19:47Z</time><pdop>4.0</pdop><geoidheight>54.00</geoidheight><course>33.1</course><type>1</type></trkpt>
      <trkpt lat="40.63367137" lon="-5.01763003"><ele>2357</ele><speed>11.61</speed><time>2016-06-30T13:19:48Z</time><pdop>4.0</pdop><geoidheight>54.00</geoidheight><course>34.3</course><type>1</type></trkpt>
      <trkpt lat="40.63376008" lon="-5.01756977"><ele>2357</ele><speed>10.94</speed><time>2016-06-30T13:19:49Z</time><pdop>3.0</pdop><geoidheight>54.00</geoidheight><course>31.3</course><type>1</type></trkpt>
      <trkpt lat="40.63383707" lon="-5.0175151"><ele>2358</ele><speed>9.91</speed><time>2016-06-30T13:19:50Z</time><pdop>3.0</pdop><geoidheight>54.00</geoidheight><course>28.9</course><type>1</type></trkpt>
      <trkpt lat="40.63390363" lon="-5.01746647"><ele>2358</ele><speed>8.85</speed><time>2016-06-30T13:19:51Z</time><pdop>3.0</pdop><geoidheight>54.00</geoidheight><course>28.8</course><type>1</type></trkpt>
      <trkpt lat="40.63397616" lon="-5.01742269"><ele>2358</ele><speed>8.61</speed><time>2016-06-30T13:19:52Z</time><pdop>4.0</pdop><geoidheight>54.00</geoidheight><course>26.2</course><type>1</type></trkpt>
      <trkpt lat="40.6340432" lon="-5.01737272"><ele>2357</ele><speed>8.18</speed><time>2016-06-30T13:19:53Z</time><pdop>4.0</pdop><geoidheight>54.00</geoidheight><course>27.1</course><type>1</type></trkpt>
      <trkpt lat="40.63416346" lon="-5.01728435"><ele>2356</ele><speed>7.94</speed><time>2016-06-30T13:19:55Z</time><pdop>6.0</pdop><geoidheight>54.00</geoidheight><course>28.6</course><type>1</type></trkpt>
      <trkpt lat="40.63433348" lon="-5.01716875"><ele>2351</ele><speed>10.80</speed><time>2016-06-30T13:19:57Z</time><pdop>4.0</pdop><geoidheight>54.00</geoidheight><course>24.2</course><type>1</type></trkpt>
      <trkpt lat="40.63442797" lon="-5.01712836"><ele>2350</ele><speed>11.65</speed><time>2016-06-30T13:19:58Z</time><pdop>4.0</pdop><geoidheight>54.00</geoidheight><course>22.5</course><type>1</type></trkpt>
      <trkpt lat="40.63452226" lon="-5.01707735"><ele>2349</ele><speed>12.09</speed><time>2016-06-30T13:19:59Z</time><pdop>4.0</pdop><geoidheight>54.00</geoidheight><course>21.8</course><type>1</type></trkpt>
      <trkpt lat="40.63461841" lon="-5.01702157"><ele>2347</ele><speed>11.84</speed><time>2016-06-30T13:20:00Z</time><pdop>4.0</pdop><geoidheight>54.00</geoidheight><course>21.4</course><type>1</type></trkpt>
      <trkpt lat="40.63471236" lon="-5.01697213"><ele>2346</ele><speed>11.13</speed><time>2016-06-30T13:20:01Z</time><pdop>4.0</pdop><geoidheight>54.00</geoidheight><course>21.1</course><type>1</type></trkpt>
      <trkpt lat="40.63480192" lon="-5.01692764"><ele>2344</ele><speed>10.84</speed><time>2016-06-30T13:20:02Z</time><pdop>4.0</pdop><geoidheight>54.00</geoidheight><course>20.9</course><type>1</type></trkpt>
      <trkpt lat="40.63489462" lon="-5.01688089"><ele>2343</ele><speed>11.13</speed><time>2016-06-30T13:20:03Z</time><pdop>4.0</pdop><geoidheight>54.00</geoidheight><course>22.3</course><type>1</type></trkpt>
      <trkpt lat="40.63498252" lon="-5.01682338"><ele>2340</ele><speed>11.59</speed><time>2016-06-30T13:20:04Z</time><pdop>3.0</pdop><geoidheight>54.00</geoidheight><course>23.9</course><type>1</type></trkpt>
      <trkpt lat="40.63508457" lon="-5.0167741"><ele>2339</ele><speed>11.84</speed><time>2016-06-30T13:20:05Z</time><pdop>3.0</pdop><geoidheight>54.00</geoidheight><course>21.9</course><type>1</type></trkpt>
      <trkpt lat="40.63518806" lon="-5.0167348"><ele>2337</ele><speed>11.79</speed><time>2016-06-30T13:20:06Z</time><pdop>3.0</pdop><geoidheight>54.00</geoidheight><course>17.5</course><type>1</type></trkpt>
      <trkpt lat="40.63528538" lon="-5.01669527"><ele>2335</ele><speed>11.36</speed><time>2016-06-30T13:20:07Z</time><pdop>3.0</pdop><geoidheight>54.00</geoidheight><course>15.3</course><type>1</type></trkpt>
      <trkpt lat="40.63538704" lon="-5.01665816"><ele>2334</ele><speed>11.33</speed><time>2016-06-30T13:20:08Z</time><pdop>3.0</pdop><geoidheight>54.00</geoidheight><course>16.0</course><type>1</type></trkpt>
      <trkpt lat="40.63548666" lon="-5.01661856"><ele>2333</ele><speed>11.37</speed><time>2016-06-30T13:20:09Z</time><pdop>3.0</pdop><geoidheight>54.00</geoidheight><course>17.7</course><type>1</type></trkpt>
      <trkpt lat="40.63558723" lon="-5.01657784"><ele>2330</ele><speed>11.94</speed><time>2016-06-30T13:20:10Z</time><pdop>3.0</pdop><geoidheight>54.00</geoidheight><course>18.4</course><type>1</type></trkpt>
      <trkpt lat="40.63569282" lon="-5.01652946"><ele>2326</ele><speed>12.97</speed><time>2016-06-30T13:20:11Z</time><pdop>3.0</pdop><geoidheight>54.00</geoidheight><course>18.6</course><type>1</type></trkpt>
      <trkpt lat="40.63580818" lon="-5.01647293"><ele>2324</ele><speed>13.89</speed><time>2016-06-30T13:20:12Z</time><pdop>3.0</pdop><geoidheight>54.00</geoidheight><course>19.3</course><type>1</type></trkpt>
      <trkpt lat="40.63593388" lon="-5.016417"><ele>2322</ele><speed>14.35</speed><time>2016-06-30T13:20:13Z</time><pdop>3.0</pdop><geoidheight>54.00</geoidheight><course>20.1</course><type>1</type></trkpt>
      <trkpt lat="40.63605592" lon="-5.01635511"><ele>2320</ele><speed>14.12</speed><time>2016-06-30T13:20:14Z</time><pdop>3.0</pdop><geoidheight>54.00</geoidheight><course>20.7</course><type>1</type></trkpt>
      <trkpt lat="40.63616841" lon="-5.01630005"><ele>2319</ele><speed>13.35</speed><time>2016-06-30T13:20:15Z</time><pdop>3.0</pdop><geoidheight>54.00</geoidheight><course>21.9</course><type>1</type></trkpt>
      <trkpt lat="40.63627811" lon="-5.0162337"><ele>2318</ele><speed>13.22</speed><time>2016-06-30T13:20:16Z</time><pdop>3.0</pdop><geoidheight>54.00</geoidheight><course>24.7</course><type>1</type></trkpt>
      <trkpt lat="40.63637545" lon="-5.01615914"><ele>2316</ele><speed>12.95</speed><time>2016-06-30T13:20:17Z</time><pdop>3.0</pdop><geoidheight>54.00</geoidheight><course>29.7</course><type>1</type></trkpt>
      <trkpt lat="40.63647852" lon="-5.0160792"><ele>2312</ele><speed>13.72</speed><time>2016-06-30T13:20:18Z</time><pdop>3.0</pdop><geoidheight>54.00</geoidheight><course>33.1</course><type>1</type></trkpt>
      <trkpt lat="40.63657197" lon="-5.01597808"><ele>2309</ele><speed>14.50</speed><time>2016-06-30T13:20:19Z</time><pdop>3.0</pdop><geoidheight>54.00</geoidheight><course>36.1</course><type>1</type></trkpt>
      <trkpt lat="40.63667139" lon="-5.01586155"><ele>2306</ele><speed>14.99</speed><time>2016-06-30T13:20:20Z</time><pdop>3.0</pdop><geoidheight>54.00</geoidheight><course>40.0</course><type>1</type></trkpt>
      <trkpt lat="40.63676883" lon="-5.01573903"><ele>2303</ele><speed>15.12</speed><time>2016-06-30T13:20:21Z</time><pdop>3.0</pdop><geoidheight>54.00</geoidheight><course>41.5</course><type>1</type></trkpt>
      <trkpt lat="40.63686162" lon="-5.01561854"><ele>2301</ele><speed>14.86</speed><time>2016-06-30T13:20:22Z</time><pdop>4.0</pdop><geoidheight>54.00</geoidheight><course>42.1</course><type>1</type></trkpt>
      <trkpt lat="40.63695828" lon="-5.01549797"><ele>2301</ele><speed>14.73</speed><time>2016-06-30T13:20:23Z</time><pdop>4.0</pdop><geoidheight>54.00</geoidheight><course>43.0</course><type>1</type></trkpt>
      <trkpt lat="40.6370457" lon="-5.01537148"><ele>2299</ele><speed>14.56</speed><time>2016-06-30T13:20:24Z</time><pdop>4.0</pdop><geoidheight>54.00</geoidheight><course>45.6</course><type>1</type></trkpt>
      <trkpt lat="40.63712652" lon="-5.0152306"><ele>2298</ele><speed>14.73</speed><time>2016-06-30T13:20:25Z</time><pdop>4.0</pdop><geoidheight>54.00</geoidheight><course>51.3</course><type>1</type></trkpt>
      <trkpt lat="40.63719968" lon="-5.0150942"><ele>2297</ele><speed>14.59</speed><time>2016-06-30T13:20:26Z</time><pdop>4.0</pdop><geoidheight>54.00</geoidheight><course>54.4</course><type>1</type></trkpt>
      <trkpt lat="40.63727048" lon="-5.01495348"><ele>2295</ele><speed>14.40</speed><time>2016-06-30T13:20:27Z</time><pdop>4.0</pdop><geoidheight>54.00</geoidheight><course>55.2</course><type>1</type></trkpt>
      <trkpt lat="40.63733575" lon="-5.01481486"><ele>2294</ele><speed>14.12</speed><time>2016-06-30T13:20:28Z</time><pdop>4.0</pdop><geoidheight>54.00</geoidheight><course>56.1</course><type>1</type></trkpt>
      <trkpt lat="40.63741068" lon="-5.01467552"><ele>2292</ele><speed>13.85</speed><time>2016-06-30T13:20:29Z</time><pdop>4.0</pdop><geoidheight>54.00</geoidheight><course>56.6</course><type>1</type></trkpt>
      <trkpt lat="40.63747825" lon="-5.01453665"><ele>2291</ele><speed>13.53</speed><time>2016-06-30T13:20:30Z</time><pdop>4.0</pdop><geoidheight>54.00</geoidheight><course>59.7</course><type>1</type></trkpt>
      <trkpt lat="40.63754266" lon="-5.01440665"><ele>2290</ele><speed>13.68</speed><time>2016-06-30T13:20:31Z</time><pdop>4.0</pdop><geoidheight>54.00</geoidheight><course>57.1</course><type>1</type></trkpt>
      <trkpt lat="40.63761301" lon="-5.01427378"><ele>2287</ele><speed>14.09</speed><time>2016-06-30T13:20:32Z</time><pdop>4.0</pdop><geoidheight>54.00</geoidheight><course>56.8</course><type>1</type></trkpt>
      <trkpt lat="40.6376731" lon="-5.01413334"><ele>2285</ele><speed>14.23</speed><time>2016-06-30T13:20:33Z</time><pdop>4.0</pdop><geoidheight>54.00</geoidheight><course>56.5</course><type>1</type></trkpt>
      <trkpt lat="40.63774855" lon="-5.01399023"><ele>2283</ele><speed>14.27</speed><time>2016-06-30T13:20:34Z</time><pdop>4.0</pdop><geoidheight>54.00</geoidheight><course>57.7</course><type>1</type></trkpt>
      <trkpt lat="40.63780738" lon="-5.01384758"><ele>2280</ele><speed>14.43</speed><time>2016-06-30T13:20:35Z</time><pdop>4.0</pdop><geoidheight>54.00</geoidheight><course>58.5</course><type>1</type></trkpt>
      <trkpt lat="40.63788206" lon="-5.01370967"><ele>2277</ele><speed>14.52</speed><time>2016-06-30T13:20:36Z</time><pdop>4.0</pdop><geoidheight>54.00</geoidheight><course>54.7</course><type>1</type></trkpt>
      <trkpt lat="40.63795421" lon="-5.01357572"><ele>2278</ele><speed>13.96</speed><time>2016-06-30T13:20:37Z</time><pdop>4.0</pdop><geoidheight>54.00</geoidheight><course>52.3</course><type>1</type></trkpt>
      <trkpt lat="40.63804393" lon="-5.01345126"><ele>2277</ele><speed>14.07</speed><time>2016-06-30T13:20:38Z</time><pdop>5.0</pdop><geoidheight>54.00</geoidheight><course>48.1</course><type>1</type></trkpt>
      <trkpt lat="40.63812435" lon="-5.01332531"><ele>2271</ele><speed>14.59</speed><time>2016-06-30T13:20:39Z</time><pdop>4.0</pdop><geoidheight>54.00</geoidheight><course>49.1</course><type>1</type></trkpt>
      <trkpt lat="40.63820444" lon="-5.01318329"><ele>2267</ele><speed>14.95</speed><time>2016-06-30T13:20:40Z</time><pdop>4.0</pdop><geoidheight>54.00</geoidheight><course>51.5</course><type>1</type></trkpt>
      <trkpt lat="40.63827966" lon="-5.01304712"><ele>2264</ele><speed>14.57</speed><time>2016-06-30T13:20:41Z</time><pdop>4.0</pdop><geoidheight>54.00</geoidheight><course>52.6</course><type>1</type></trkpt>
      <trkpt lat="40.63835603" lon="-5.01292012"><ele>2263</ele><speed>14.06</speed><time>2016-06-30T13:20:42Z</time><pdop>5.0</pdop><geoidheight>54.00</geoidheight><course>50.8</course><type>1</type></trkpt>
      <trkpt lat="40.6384556" lon="-5.01281946"><ele>2262</ele><speed>13.86</speed><time>2016-06-30T13:20:43Z</time><pdop>7.0</pdop><geoidheight>54.00</geoidheight><course>45.1</course><type>1</type></trkpt>
      <trkpt lat="40.6385686" lon="-5.01271792"><ele>2255</ele><speed>15.02</speed><time>2016-06-30T13:20:44Z</time><pdop>5.0</pdop><geoidheight>54.00</geoidheight><course>36.9</course><type>1</type></trkpt>
      <trkpt lat="40.63867739" lon="-5.01259899"><ele>2250</ele><speed>15.00</speed><time>2016-06-30T13:20:45Z</time><pdop>5.0</pdop><geoidheight>54.00</geoidheight><course>39.7</course><type>1</type></trkpt>
      <trkpt lat="40.63878213" lon="-5.01248925"><ele>2247</ele><speed>15.00</speed><time>2016-06-30T13:20:46Z</time><pdop>5.0</pdop><geoidheight>54.00</geoidheight><course>41.2</course><type>1</type></trkpt>
      <trkpt lat="40.63885928" lon="-5.01237676"><ele>2245</ele><speed>14.34</speed><time>2016-06-30T13:20:47Z</time><pdop>6.0</pdop><geoidheight>54.00</geoidheight><course>43.0</course><type>1</type></trkpt>
      <trkpt lat="40.63899938" lon="-5.01226685"><ele>2240</ele><speed>16.20</speed><time>2016-06-30T13:20:48Z</time><pdop>6.0</pdop><geoidheight>54.00</geoidheight><course>33.7</course><type>1</type></trkpt>
      <trkpt lat="40.63910974" lon="-5.01217701"><ele>2234</ele><speed>15.87</speed><time>2016-06-30T13:20:49Z</time><pdop>6.0</pdop><geoidheight>54.00</geoidheight><course>30.4</course><type>1</type></trkpt>
      <trkpt lat="40.63925808" lon="-5.01211947"><ele>2226</ele><speed>17.54</speed><time>2016-06-30T13:20:50Z</time><pdop>5.0</pdop><geoidheight>54.00</geoidheight><course>22.7</course><type>1</type></trkpt>
      <trkpt lat="40.63940116" lon="-5.01204396"><ele>2223</ele><speed>18.13</speed><time>2016-06-30T13:20:51Z</time><pdop>5.0</pdop><geoidheight>54.00</geoidheight><course>19.6</course><type>1</type></trkpt>
      <trkpt lat="40.63954422" lon="-5.01198735"><ele>2220</ele><speed>17.56</speed><time>2016-06-30T13:20:52Z</time><pdop>5.0</pdop><geoidheight>54.00</geoidheight><course>18.1</course><type>1</type></trkpt>
      <trkpt lat="40.63967746" lon="-5.01190966"><ele>2218</ele><speed>16.45</speed><time>2016-06-30T13:20:53Z</time><pdop>6.0</pdop><geoidheight>54.00</geoidheight><course>18.8</course><type>1</type></trkpt>
      <trkpt lat="40.63981035" lon="-5.01185252"><ele>2217</ele><speed>14.69</speed><time>2016-06-30T13:20:54Z</time><pdop>5.0</pdop><geoidheight>54.00</geoidheight><course>19.9</course><type>1</type></trkpt>
      <trkpt lat="40.63992939" lon="-5.01179298"><ele>2215</ele><speed>13.87</speed><time>2016-06-30T13:20:55Z</time><pdop>5.0</pdop><geoidheight>54.00</geoidheight><course>20.9</course><type>1</type></trkpt>
      <trkpt lat="40.6400425" lon="-5.01174228"><ele>2211</ele><speed>13.95</speed><time>2016-06-30T13:20:56Z</time><pdop>5.0</pdop><geoidheight>54.00</geoidheight><course>19.9</course><type>1</type></trkpt>
      <trkpt lat="40.64016393" lon="-5.01169763"><ele>2208</ele><speed>14.94</speed><time>2016-06-30T13:20:57Z</time><pdop>4.0</pdop><geoidheight>54.00</geoidheight><course>17.4</course><type>1</type></trkpt>
      <trkpt lat="40.6403051" lon="-5.01164304"><ele>2205</ele><speed>16.02</speed><time>2016-06-30T13:20:58Z</time><pdop>4.0</pdop><geoidheight>54.00</geoidheight><course>14.8</course><type>1</type></trkpt>
      <trkpt lat="40.64045529" lon="-5.01160683"><ele>2203</ele><speed>16.92</speed><time>2016-06-30T13:20:59Z</time><pdop>4.0</pdop><geoidheight>54.00</geoidheight><course>13.7</course><type>1</type></trkpt>
      <trkpt lat="40.64060185" lon="-5.01155884"><ele>2203</ele><speed>16.63</speed><time>2016-06-30T13:21:00Z</time><pdop>4.0</pdop><geoidheight>54.00</geoidheight><course>14.7</course><type>1</type></trkpt>
      <trkpt lat="40.64073803" lon="-5.01149731"><ele>2205</ele><speed>15.66</speed><time>2016-06-30T13:21:01Z</time><pdop>4.0</pdop><geoidheight>54.00</geoidheight><course>19.5</course><type>1</type></trkpt>
      <trkpt lat="40.64084869" lon="-5.01141793"><ele>2208</ele><speed>14.50</speed><time>2016-06-30T13:21:02Z</time><pdop>4.0</pdop><geoidheight>54.00</geoidheight><course>27.0</course><type>1</type></trkpt>
      <trkpt lat="40.64093801" lon="-5.01133891"><ele>2213</ele><speed>13.10</speed><time>2016-06-30T13:21:03Z</time><pdop>4.0</pdop><geoidheight>54.00</geoidheight><course>31.4</course><type>1</type></trkpt>
      <trkpt lat="40.64101825" lon="-5.01128148"><ele>2216</ele><speed>10.96</speed><time>2016-06-30T13:21:04Z</time><pdop>4.0</pdop><geoidheight>54.00</geoidheight><course>29.2</course><type>1</type></trkpt>
      <trkpt lat="40.64109823" lon="-5.01122922"><ele>2218</ele><speed>10.20</speed><time>2016-06-30T13:21:05Z</time><pdop>4.0</pdop><geoidheight>54.00</geoidheight><course>27.7</course><type>1</type></trkpt>
      <trkpt lat="40.64116618" lon="-5.01117958"><ele>2218</ele><speed>9.65</speed><time>2016-06-30T13:21:06Z</time><pdop>4.0</pdop><geoidheight>54.00</geoidheight><course>29.7</course><type>1</type></trkpt>
      <trkpt lat="40.64124312" lon="-5.01111102"><ele>2219</ele><speed>9.49</speed><time>2016-06-30T13:21:07Z</time><pdop>4.0</pdop><geoidheight>54.00</geoidheight><course>31.0</course><type>1</type></trkpt>
      <trkpt lat="40.64131434" lon="-5.01105778"><ele>2219</ele><speed>9.14</speed><time>2016-06-30T13:21:08Z</time><pdop>4.0</pdop><geoidheight>54.00</geoidheight><course>29.9</course><type>1</type></trkpt>
      <trkpt lat="40.64139216" lon="-5.01100201"><ele>2220</ele><speed>9.60</speed><time>2016-06-30T13:21:09Z</time><pdop>4.0</pdop><geoidheight>54.00</geoidheight><course>27.7</course><type>1</type></trkpt>
      <trkpt lat="40.64147777" lon="-5.01095712"><ele>2220</ele><speed>10.17</speed><time>2016-06-30T13:21:10Z</time><pdop>4.0</pdop><geoidheight>54.00</geoidheight><course>24.6</course><type>1</type></trkpt>
      <trkpt lat="40.64156054" lon="-5.01092742"><ele>2220</ele><speed>9.72</speed><time>2016-06-30T13:21:11Z</time><pdop>4.0</pdop><geoidheight>54.00</geoidheight><course>16.1</course><type>1</type></trkpt>
      <trkpt lat="40.64163793" lon="-5.01092708"><ele>2220</ele><speed>8.76</speed><time>2016-06-30T13:21:12Z</time><pdop>4.0</pdop><geoidheight>54.00</geoidheight><course>3.5</course><type>1</type></trkpt>
      <trkpt lat="40.64178985" lon="-5.01097881"><ele>2220</ele><speed>8.47</speed><time>2016-06-30T13:21:14Z</time><pdop>7.0</pdop><geoidheight>54.00</geoidheight><course>348.1</course><type>1</type></trkpt>
      <trkpt lat="40.64177688" lon="-5.01120324"><ele>2221</ele><speed>7.70</speed><time>2016-06-30T13:21:16Z</time><pdop>7.0</pdop><geoidheight>54.00</geoidheight><course>273.9</course><type>1</type></trkpt>
      <trkpt lat="40.64177923" lon="-5.01142564"><ele>2221</ele><speed>8.08</speed><time>2016-06-30T13:21:18Z</time><pdop>7.0</pdop><geoidheight>54.00</geoidheight><course>272.6</course><type>1</type></trkpt>
      <trkpt lat="40.64178964" lon="-5.01159177"><ele>2230</ele><speed>4.56</speed><time>2016-06-30T13:21:21Z</time><pdop>6.0</pdop><geoidheight>54.00</geoidheight><course>283.6</course><type>1</type></trkpt>
      <trkpt lat="40.64186464" lon="-5.01170255"><ele>2231</ele><speed>6.38</speed><time>2016-06-30T13:21:23Z</time><pdop>6.0</pdop><geoidheight>54.00</geoidheight><course>319.0</course><type>1</type></trkpt>
      <trkpt lat="40.64199871" lon="-5.01168571"><ele>2234</ele><speed>8.79</speed><time>2016-06-30T13:21:25Z</time><pdop>4.0</pdop><geoidheight>54.00</geoidheight><course>14.2</course><type>1</type></trkpt>
      <trkpt lat="40.64207724" lon="-5.01165135"><ele>2234</ele><speed>8.99</speed><time>2016-06-30T13:21:26Z</time><pdop>5.0</pdop><geoidheight>54.00</geoidheight><course>15.3</course><type>1</type></trkpt>
      <trkpt lat="40.64210316" lon="-5.01149091"><ele>2235</ele><speed>11.60</speed><time>2016-06-30T13:21:27Z</time><pdop>4.0</pdop><geoidheight>54.00</geoidheight><course>64.3</course><type>1</type></trkpt>
      <trkpt lat="40.64211856" lon="-5.01133605"><ele>2236</ele><speed>12.89</speed><time>2016-06-30T13:21:28Z</time><pdop>4.0</pdop><geoidheight>54.00</geoidheight><course>81.0</course><type>1</type></trkpt>
      <trkpt lat="40.6420909" lon="-5.01118198"><ele>2237</ele><speed>14.13</speed><time>2016-06-30T13:21:29Z</time><pdop>3.0</pdop><geoidheight>54.00</geoidheight><course>99.6</course><type>1</type></trkpt>
      <trkpt lat="40.64205476" lon="-5.01102049"><ele>2238</ele><speed>14.40</speed><time>2016-06-30T13:21:30Z</time><pdop>4.0</pdop><geoidheight>54.00</geoidheight><course>105.8</course><type>1</type></trkpt>
      <trkpt lat="40.6419909" lon="-5.01088813"><ele>2239</ele><speed>12.96</speed><time>2016-06-30T13:21:31Z</time><pdop>6.0</pdop><geoidheight>54.00</geoidheight><course>115.5</course><type>1</type></trkpt>
      <trkpt lat="40.64179668" lon="-5.01072224"><ele>2241</ele><speed>12.12</speed><time>2016-06-30T13:21:33Z</time><pdop>8.0</pdop><geoidheight>54.00</geoidheight><course>136.3</course><type>1</type></trkpt>
      <trkpt lat="40.64145447" lon="-5.01074835"><ele>2241</ele><speed>14.12</speed><time>2016-06-30T13:21:35Z</time><pdop>10.0</pdop><geoidheight>54.00</geoidheight><course>169.1</course><type>1</type></trkpt>
      <trkpt lat="40.64130236" lon="-5.0109468"><ele>2242</ele><speed>12.60</speed><time>2016-06-30T13:21:37Z</time><pdop>8.0</pdop><geoidheight>54.00</geoidheight><course>204.8</course><type>1</type></trkpt>
      <trkpt lat="40.64141445" lon="-5.01115714"><ele>2252</ele><speed>4.43</speed><time>2016-06-30T13:21:41Z</time><pdop>9.0</pdop><geoidheight>54.00</geoidheight><course>298.4</course><type>1</type></trkpt>
      <trkpt lat="40.64165579" lon="-5.01096331"><ele>2258</ele><speed>8.74</speed><time>2016-06-30T13:21:44Z</time><pdop>8.0</pdop><geoidheight>54.00</geoidheight><course>36.1</course><type>1</type></trkpt>
      <trkpt lat="40.64175721" lon="-5.01082729"><ele>2261</ele><speed>10.50</speed><time>2016-06-30T13:21:45Z</time><pdop>8.0</pdop><geoidheight>54.00</geoidheight><course>43.6</course><type>1</type></trkpt>
      <trkpt lat="40.64174661" lon="-5.0106183"><ele>2263</ele><speed>11.80</speed><time>2016-06-30T13:21:46Z</time><pdop>8.0</pdop><geoidheight>54.00</geoidheight><course>74.3</course><type>1</type></trkpt>
      <trkpt lat="40.64170269" lon="-5.01044447"><ele>2264</ele><speed>12.25</speed><time>2016-06-30T13:21:47Z</time><pdop>7.0</pdop><geoidheight>54.00</geoidheight><course>93.8</course><type>1</type></trkpt>
      <trkpt lat="40.6416822" lon="-5.01015123"><ele>2268</ele><speed>11.67</speed><time>2016-06-30T13:21:49Z</time><pdop>9.0</pdop><geoidheight>54.00</geoidheight><course>98.4</course><type>1</type></trkpt>
      <trkpt lat="40.64140389" lon="-5.01011062"><ele>2273</ele><speed>13.77</speed><time>2016-06-30T13:21:50Z</time><pdop>6.0</pdop><geoidheight>54.00</geoidheight><course>160.8</course><type>1</type></trkpt>
      <trkpt lat="40.64129323" lon="-5.0100791"><ele>2278</ele><speed>12.65</speed><time>2016-06-30T13:21:51Z</time><pdop>5.0</pdop><geoidheight>54.00</geoidheight><course>174.2</course><type>1</type></trkpt>
      <trkpt lat="40.64119348" lon="-5.01008333"><ele>2281</ele><speed>11.29</speed><time>2016-06-30T13:21:52Z</time><pdop>5.0</pdop><geoidheight>54.00</geoidheight><course>186.9</course><type>1</type></trkpt>
      <trkpt lat="40.6410541" lon="-5.01017405"><ele>2286</ele><speed>9.26</speed><time>2016-06-30T13:21:54Z</time><pdop>5.0</pdop><geoidheight>54.00</geoidheight><course>212.1</course><type>1</type></trkpt>
      <trkpt lat="40.64109685" lon="-5.01027296"><ele>2290</ele><speed>4.75</speed><time>2016-06-30T13:21:56Z</time><pdop>4.0</pdop><geoidheight>54.00</geoidheight><course>300.3</course><type>1</type></trkpt>
      <trkpt lat="40.64120966" lon="-5.01026857"><ele>2291</ele><speed>8.07</speed><time>2016-06-30T13:21:58Z</time><pdop>4.0</pdop><geoidheight>54.00</geoidheight><course>6.4</course><type>1</type></trkpt>
      <trkpt lat="40.64129798" lon="-5.01020442"><ele>2292</ele><speed>10.19</speed><time>2016-06-30T13:21:59Z</time><pdop>4.0</pdop><geoidheight>54.00</geoidheight><course>24.9</course><type>1</type></trkpt>
      <trkpt lat="40.64138011" lon="-5.01010459"><ele>2294</ele><speed>12.23</speed><time>2016-06-30T13:22:00Z</time><pdop>3.0</pdop><geoidheight>54.00</geoidheight><course>40.4</course><type>1</type></trkpt>
      <trkpt lat="40.64144247" lon="-5.00996966"><ele>2296</ele><speed>13.22</speed><time>2016-06-30T13:22:01Z</time><pdop>3.0</pdop><geoidheight>54.00</geoidheight><course>54.3</course><type>1</type></trkpt>
      <trkpt lat="40.64149104" lon="-5.00982233"><ele>2298</ele><speed>13.78</speed><time>2016-06-30T13:22:02Z</time><pdop>4.0</pdop><geoidheight>54.00</geoidheight><course>67.4</course><type>1</type></trkpt>
      <trkpt lat="40.64151168" lon="-5.00965956"><ele>2299</ele><speed>14.12</speed><time>2016-06-30T13:22:03Z</time><pdop>4.0</pdop><geoidheight>54.00</geoidheight><course>78.9</course><type>1</type></trkpt>
      <trkpt lat="40.64151074" lon="-5.00948812"><ele>2302</ele><speed>14.65</speed><time>2016-06-30T13:22:04Z</time><pdop>3.0</pdop><geoidheight>54.00</geoidheight><course>91.3</course><type>1</type></trkpt>
      <trkpt lat="40.64148226" lon="-5.00931806"><ele>2304</ele><speed>14.86</speed><time>2016-06-30T13:22:05Z</time><pdop>3.0</pdop><geoidheight>54.00</geoidheight><course>101.1</course><type>1</type></trkpt>
      <trkpt lat="40.6414289" lon="-5.00916524"><ele>2307</ele><speed>14.33</speed><time>2016-06-30T13:22:06Z</time><pdop>4.0</pdop><geoidheight>54.00</geoidheight><course>111.6</course><type>1</type></trkpt>
      <trkpt lat="40.64136058" lon="-5.00904598"><ele>2309</ele><speed>13.35</speed><time>2016-06-30T13:22:07Z</time><pdop>4.0</pdop><geoidheight>54.00</geoidheight><course>124.0</course><type>1</type></trkpt>
      <trkpt lat="40.64126833" lon="-5.00899448"><ele>2310</ele><speed>11.67</speed><time>2016-06-30T13:22:08Z</time><pdop>3.0</pdop><geoidheight>54.00</geoidheight><course>143.8</course><type>1</type></trkpt>
      <trkpt lat="40.64117806" lon="-5.00896324"><ele>2311</ele><speed>10.67</speed><time>2016-06-30T13:22:09Z</time><pdop>3.0</pdop><geoidheight>54.00</geoidheight><course>162.3</course><type>1</type></trkpt>
      <trkpt lat="40.6410929" lon="-5.00896021"><ele>2313</ele><speed>10.21</speed><time>2016-06-30T13:22:10Z</time><pdop>3.0</pdop><geoidheight>54.00</geoidheight><course>181.5</course><type>1</type></trkpt>
      <trkpt lat="40.6410096" lon="-5.00901581"><ele>2313</ele><speed>10.29</speed><time>2016-06-30T13:22:11Z</time><pdop>3.0</pdop><geoidheight>54.00</geoidheight><course>195.9</course><type>1</type></trkpt>
      <trkpt lat="40.64091429" lon="-5.00908197"><ele>2313</ele><speed>11.11</speed><time>2016-06-30T13:22:12Z</time><pdop>4.0</pdop><geoidheight>54.00</geoidheight><course>204.1</course><type>1</type></trkpt>
      <trkpt lat="40.64086505" lon="-5.00925106"><ele>2314</ele><speed>8.43</speed><time>2016-06-30T13:22:14Z</time><pdop>6.0</pdop><geoidheight>54.00</geoidheight><course>229.9</course><type>1</type></trkpt>
      <trkpt lat="40.64079714" lon="-5.00944253"><ele>2317</ele><speed>8.05</speed><time>2016-06-30T13:22:16Z</time><pdop>7.0</pdop><geoidheight>54.00</geoidheight><course>237.8</course><type>1</type></trkpt>
      <trkpt lat="40.64072835" lon="-5.00960457"><ele>2320</ele><speed>7.79</speed><time>2016-06-30T13:22:18Z</time><pdop>7.0</pdop><geoidheight>54.00</geoidheight><course>237.1</course><type>1</type></trkpt>
      <trkpt lat="40.64061613" lon="-5.0098051"><ele>2323</ele><speed>7.36</speed><time>2016-06-30T13:22:21Z</time><pdop>9.0</pdop><geoidheight>54.00</geoidheight><course>231.2</course><type>1</type></trkpt>
      <trkpt lat="40.64047859" lon="-5.01000406"><ele>2330</ele><speed>6.95</speed><time>2016-06-30T13:22:24Z</time><pdop>10.0</pdop><geoidheight>54.00</geoidheight><course>226.7</course><type>1</type></trkpt>
      <trkpt lat="40.64043036" lon="-5.01024251"><ele>2333</ele><speed>7.83</speed><time>2016-06-30T13:22:27Z</time><pdop>6.0</pdop><geoidheight>54.00</geoidheight><course>257.7</course><type>1</type></trkpt>
      <trkpt lat="40.64042108" lon="-5.01048916"><ele>2343</ele><speed>7.78</speed><time>2016-06-30T13:22:30Z</time><pdop>6.0</pdop><geoidheight>54.00</geoidheight><course>285.6</course><type>1</type></trkpt>
      <trkpt lat="40.64049952" lon="-5.01065825"><ele>2351</ele><speed>5.94</speed><time>2016-06-30T13:22:33Z</time><pdop>6.0</pdop><geoidheight>54.00</geoidheight><course>313.9</course><type>1</type></trkpt>
      <trkpt lat="40.64062157" lon="-5.01071734"><ele>2356</ele><speed>6.82</speed><time>2016-06-30T13:22:35Z</time><pdop>6.0</pdop><geoidheight>54.00</geoidheight><course>334.6</course><type>1</type></trkpt>
      <trkpt lat="40.64078452" lon="-5.01067669"><ele>2359</ele><speed>8.60</speed><time>2016-06-30T13:22:37Z</time><pdop>6.0</pdop><geoidheight>54.00</geoidheight><course>17.5</course><type>1</type></trkpt>
      <trkpt lat="40.64090235" lon="-5.01049712"><ele>2362</ele><speed>9.70</speed><time>2016-06-30T13:22:39Z</time><pdop>5.0</pdop><geoidheight>54.00</geoidheight><course>45.1</course><type>1</type></trkpt>
      <trkpt lat="40.64093833" lon="-5.01029383"><ele>2360</ele><speed>13.19</speed><time>2016-06-30T13:22:40Z</time><pdop>6.0</pdop><geoidheight>54.00</geoidheight><course>67.1</course><type>1</type></trkpt>
      <trkpt lat="40.64088634" lon="-5.01011662"><ele>2362</ele><speed>13.95</speed><time>2016-06-30T13:22:41Z</time><pdop>4.0</pdop><geoidheight>54.00</geoidheight><course>93.4</course><type>1</type></trkpt>
      <trkpt lat="40.64085406" lon="-5.00995523"><ele>2364</ele><speed>14.17</speed><time>2016-06-30T13:22:42Z</time><pdop>4.0</pdop><geoidheight>54.00</geoidheight><course>103.9</course><type>1</type></trkpt>
      <trkpt lat="40.64080286" lon="-5.00980724"><ele>2366</ele><speed>14.00</speed><time>2016-06-30T13:22:43Z</time><pdop>4.0</pdop><geoidheight>54.00</geoidheight><course>114.4</course><type>1</type></trkpt>
      <trkpt lat="40.6407448" lon="-5.00965398"><ele>2367</ele><speed>14.17</speed><time>2016-06-30T13:22:44Z</time><pdop>5.0</pdop><geoidheight>54.00</geoidheight><course>117.6</course><type>1</type></trkpt>
      <trkpt lat="40.6406654" lon="-5.00952468"><ele>2369</ele><speed>13.89</speed><time>2016-06-30T13:22:45Z</time><pdop>6.0</pdop><geoidheight>54.00</geoidheight><course>124.1</course><type>1</type></trkpt>
      <trkpt lat="40.64054293" lon="-5.00952478"><ele>2372</ele><speed>12.65</speed><time>2016-06-30T13:22:46Z</time><pdop>5.0</pdop><geoidheight>54.00</geoidheight><course>156.3</course><type>1</type></trkpt>
      <trkpt lat="40.64044198" lon="-5.00951176"><ele>2376</ele><speed>11.75</speed><time>2016-06-30T13:22:47Z</time><pdop>5.0</pdop><geoidheight>54.00</geoidheight><course>171.3</course><type>1</type></trkpt>
      <trkpt lat="40.64033952" lon="-5.00952185"><ele>2378</ele><speed>11.55</speed><time>2016-06-30T13:22:48Z</time><pdop>5.0</pdop><geoidheight>54.00</geoidheight><course>185.3</course><type>1</type></trkpt>
      <trkpt lat="40.64024718" lon="-5.0095741"><ele>2378</ele><speed>11.71</speed><time>2016-06-30T13:22:49Z</time><pdop>6.0</pdop><geoidheight>54.00</geoidheight><course>197.1</course><type>1</type></trkpt>
      <trkpt lat="40.64015827" lon="-5.00972447"><ele>2385</ele><speed>9.30</speed><time>2016-06-30T13:22:51Z</time><pdop>7.0</pdop><geoidheight>54.00</geoidheight><course>224.6</course><type>1</type></trkpt>
      <trkpt lat="40.64033006" lon="-5.00987731"><ele>2390</ele><speed>4.55</speed><time>2016-06-30T13:22:54Z</time><pdop>7.0</pdop><geoidheight>54.00</geoidheight><course>303.9</course><type>1</type></trkpt>
      <trkpt lat="40.64047169" lon="-5.00980255"><ele>2392</ele><speed>6.42</speed><time>2016-06-30T13:22:56Z</time><pdop>8.0</pdop><geoidheight>54.00</geoidheight><course>18.7</course><type>1</type></trkpt>
      <trkpt lat="40.64058418" lon="-5.00960841"><ele>2393</ele><speed>9.01</speed><time>2016-06-30T13:22:58Z</time><pdop>6.0</pdop><geoidheight>54.00</geoidheight><course>56.0</course><type>1</type></trkpt>
      <trkpt lat="40.64064767" lon="-5.00944025"><ele>2395</ele><speed>11.69</speed><time>2016-06-30T13:22:59Z</time><pdop>6.0</pdop><geoidheight>54.00</geoidheight><course>66.3</course><type>1</type></trkpt>
      <trkpt lat="40.6406507" lon="-5.00925796"><ele>2401</ele><speed>12.84</speed><time>2016-06-30T13:23:00Z</time><pdop>5.0</pdop><geoidheight>54.00</geoidheight><course>85.0</course><type>1</type></trkpt>
      <trkpt lat="40.64064718" lon="-5.0091283"><ele>2403</ele><speed>12.34</speed><time>2016-06-30T13:23:01Z</time><pdop>4.0</pdop><geoidheight>54.00</geoidheight><course>93.5</course><type>1</type></trkpt>
      <trkpt lat="40.64062092" lon="-5.00898988"><ele>2406</ele><speed>12.14</speed><time>2016-06-30T13:23:02Z</time><pdop>4.0</pdop><geoidheight>54.00</geoidheight><course>104.8</course><type>1</type></trkpt>
      <trkpt lat="40.64057514" lon="-5.00886034"><ele>2409</ele><speed>11.90</speed><time>2016-06-30T13:23:03Z</time><pdop>4.0</pdop><geoidheight>54.00</geoidheight><course>117.7</course><type>1</type></trkpt>
      <trkpt lat="40.64052845" lon="-5.00874536"><ele>2410</ele><speed>11.68</speed><time>2016-06-30T13:23:04Z</time><pdop>4.0</pdop><geoidheight>54.00</geoidheight><course>121.4</course><type>1</type></trkpt>
      <trkpt lat="40.64041757" lon="-5.00867907"><ele>2414</ele><speed>12.67</speed><time>2016-06-30T13:23:05Z</time><pdop>3.0</pdop><geoidheight>54.00</geoidheight><course>145.0</course><type>1</type></trkpt>
      <trkpt lat="40.64032183" lon="-5.00860439"><ele>2417</ele><speed>13.10</speed><time>2016-06-30T13:23:06Z</time><pdop>3.0</pdop><geoidheight>54.00</geoidheight><course>150.6</course><type>1</type></trkpt>
      <trkpt lat="40.64021578" lon="-5.00854924"><ele>2419</ele><speed>12.91</speed><time>2016-06-30T13:23:07Z</time><pdop>3.0</pdop><geoidheight>54.00</geoidheight><course>154.7</course><type>1</type></trkpt>
      <trkpt lat="40.64011115" lon="-5.00850998"><ele>2421</ele><speed>12.58</speed><time>2016-06-30T13:23:08Z</time><pdop>3.0</pdop><geoidheight>54.00</geoidheight><course>163.1</course><type>1</type></trkpt>
      <trkpt lat="40.64000457" lon="-5.00850004"><ele>2423</ele><speed>12.29</speed><time>2016-06-30T13:23:09Z</time><pdop>3.0</pdop><geoidheight>54.00</geoidheight><course>174.8</course><type>1</type></trkpt>
      <trkpt lat="40.63990105" lon="-5.00852192"><ele>2425</ele><speed>11.99</speed><time>2016-06-30T13:23:10Z</time><pdop>3.0</pdop><geoidheight>54.00</geoidheight><course>187.0</course><type>1</type></trkpt>
      <trkpt lat="40.639784" lon="-5.0085614"><ele>2426</ele><speed>12.83</speed><time>2016-06-30T13:23:11Z</time><pdop>4.0</pdop><geoidheight>54.00</geoidheight><course>192.3</course><type>1</type></trkpt>
      <trkpt lat="40.63969838" lon="-5.00862189"><ele>2428</ele><speed>12.28</speed><time>2016-06-30T13:23:12Z</time><pdop>4.0</pdop><geoidheight>54.00</geoidheight><course>203.4</course><type>1</type></trkpt>
      <trkpt lat="40.63964266" lon="-5.00868283"><ele>2429</ele><speed>10.31</speed><time>2016-06-30T13:23:13Z</time><pdop>4.0</pdop><geoidheight>54.00</geoidheight><course>209.6</course><type>1</type></trkpt>
      <trkpt lat="40.63958459" lon="-5.00885107"><ele>2432</ele><speed>8.62</speed><time>2016-06-30T13:23:15Z</time><pdop>6.0</pdop><geoidheight>54.00</geoidheight><course>233.3</course><type>1</type></trkpt>
      <trkpt lat="40.63964952" lon="-5.00899812"><ele>2438</ele><speed>6.58</speed><time>2016-06-30T13:23:17Z</time><pdop>5.0</pdop><geoidheight>54.00</geoidheight><course>293.6</course><type>1</type></trkpt>
      <trkpt lat="40.63972952" lon="-5.00909294"><ele>2441</ele><speed>6.30</speed><time>2016-06-30T13:23:19Z</time><pdop>6.0</pdop><geoidheight>54.00</geoidheight><course>316.4</course><type>1</type></trkpt>
      <trkpt lat="40.63989176" lon="-5.00886009"><ele>2446</ele><speed>10.74</speed><time>2016-06-30T13:23:21Z</time><pdop>5.0</pdop><geoidheight>54.00</geoidheight><course>44.6</course><type>1</type></trkpt>
      <trkpt lat="40.63993495" lon="-5.00876014"><ele>2446</ele><speed>11.32</speed><time>2016-06-30T13:23:22Z</time><pdop>4.0</pdop><geoidheight>54.00</geoidheight><course>57.2</course><type>1</type></trkpt>
      <trkpt lat="40.63997748" lon="-5.00863513"><ele>2448</ele><speed>11.70</speed><time>2016-06-30T13:23:23Z</time><pdop>4.0</pdop><geoidheight>54.00</geoidheight><course>70.0</course><type>1</type></trkpt>
      <trkpt lat="40.64000826" lon="-5.00850082"><ele>2451</ele><speed>12.17</speed><time>2016-06-30T13:23:24Z</time><pdop>4.0</pdop><geoidheight>54.00</geoidheight><course>74.2</course><type>1</type></trkpt>
      <trkpt lat="40.64003477" lon="-5.00837691"><ele>2454</ele><speed>11.69</speed><time>2016-06-30T13:23:25Z</time><pdop>4.0</pdop><geoidheight>54.00</geoidheight><course>72.1</course><type>1</type></trkpt>
      <trkpt lat="40.64007008" lon="-5.00825091"><ele>2456</ele><speed>11.16</speed><time>2016-06-30T13:23:26Z</time><pdop>3.0</pdop><geoidheight>54.00</geoidheight><course>74.5</course><type>1</type></trkpt>
      <trkpt lat="40.64006663" lon="-5.00812432"><ele>2459</ele><speed>11.15</speed><time>2016-06-30T13:23:27Z</time><pdop>3.0</pdop><geoidheight>54.00</geoidheight><course>89.9</course><type>1</type></trkpt>
      <trkpt lat="40.64002996" lon="-5.0079905"><ele>2459</ele><speed>12.58</speed><time>2016-06-30T13:23:28Z</time><pdop>3.0</pdop><geoidheight>54.00</geoidheight><course>108.6</course><type>1</type></trkpt>
      <trkpt lat="40.63998111" lon="-5.00785183"><ele>2460</ele><speed>12.89</speed><time>2016-06-30T13:23:29Z</time><pdop>4.0</pdop><geoidheight>54.00</geoidheight><course>115.1</course><type>1</type></trkpt>
      <trkpt lat="40.63992012" lon="-5.00770709"><ele>2460</ele><speed>13.24</speed><time>2016-06-30T13:23:30Z</time><pdop>5.0</pdop><geoidheight>54.00</geoidheight><course>118.0</course><type>1</type></trkpt>
      <trkpt lat="40.63976435" lon="-5.00772268"><ele>2463</ele><speed>13.09</speed><time>2016-06-30T13:23:31Z</time><pdop>4.0</pdop><geoidheight>54.00</geoidheight><course>158.8</course><type>1</type></trkpt>
      <trkpt lat="40.63965323" lon="-5.00772854"><ele>2465</ele><speed>11.69</speed><time>2016-06-30T13:23:32Z</time><pdop>3.0</pdop><geoidheight>54.00</geoidheight><course>177.4</course><type>1</type></trkpt>
      <trkpt lat="40.63956219" lon="-5.00776212"><ele>2467</ele><speed>10.63</speed><time>2016-06-30T13:23:33Z</time><pdop>3.0</pdop><geoidheight>54.00</geoidheight><course>193.9</course><type>1</type></trkpt>
      <trkpt lat="40.6394693" lon="-5.00780588"><ele>2467</ele><speed>11.13</speed><time>2016-06-30T13:23:34Z</time><pdop>4.0</pdop><geoidheight>54.00</geoidheight><course>201.4</course><type>1</type></trkpt>
      <trkpt lat="40.63945578" lon="-5.00789894"><ele>2470</ele><speed>9.21</speed><time>2016-06-30T13:23:35Z</time><pdop>4.0</pdop><geoidheight>54.00</geoidheight><course>225.6</course><type>1</type></trkpt>
      <trkpt lat="40.63941968" lon="-5.00807533"><ele>2473</ele><speed>8.18</speed><time>2016-06-30T13:23:37Z</time><pdop>4.0</pdop><geoidheight>54.00</geoidheight><course>258.3</course><type>1</type></trkpt>
      <trkpt lat="40.63945734" lon="-5.00825023"><ele>2475</ele><speed>8.10</speed><time>2016-06-30T13:23:39Z</time><pdop>5.0</pdop><geoidheight>54.00</geoidheight><course>284.9</course><type>1</type></trkpt>
      <trkpt lat="40.63961311" lon="-5.00829702"><ele>2477</ele><speed>9.28</speed><time>2016-06-30T13:23:41Z</time><pdop>5.0</pdop><geoidheight>54.00</geoidheight><course>347.1</course><type>1</type></trkpt>
      <trkpt lat="40.63977886" lon="-5.00821385"><ele>2480</ele><speed>10.46</speed><time>2016-06-30T13:23:43Z</time><pdop>5.0</pdop><geoidheight>54.00</geoidheight><course>24.7</course><type>1</type></trkpt>
      <trkpt lat="40.63984874" lon="-5.00797015"><ele>2481</ele><speed>10.88</speed><time>2016-06-30T13:23:45Z</time><pdop>6.0</pdop><geoidheight>54.00</geoidheight><course>64.1</course><type>1</type></trkpt>
      <trkpt lat="40.63983634" lon="-5.00780369"><ele>2484</ele><speed>12.24</speed><time>2016-06-30T13:23:46Z</time><pdop>5.0</pdop><geoidheight>54.00</geoidheight><course>86.7</course><type>1</type></trkpt>
      <trkpt lat="40.63981515" lon="-5.00765341"><ele>2487</ele><speed>12.89</speed><time>2016-06-30T13:23:47Z</time><pdop>4.0</pdop><geoidheight>54.00</geoidheight><course>99.0</course><type>1</type></trkpt>
      <trkpt lat="40.63979174" lon="-5.0075018"><ele>2487</ele><speed>13.05</speed><time>2016-06-30T13:23:48Z</time><pdop>4.0</pdop><geoidheight>54.00</geoidheight><course>107.2</course><type>1</type></trkpt>
      <trkpt lat="40.63974572" lon="-5.00736294"><ele>2489</ele><speed>12.85</speed><time>2016-06-30T13:23:49Z</time><pdop>4.0</pdop><geoidheight>54.00</geoidheight><course>113.2</course><type>1</type></trkpt>
      <trkpt lat="40.63969131" lon="-5.00723362"><ele>2492</ele><speed>12.11</speed><time>2016-06-30T13:23:50Z</time><pdop>3.0</pdop><geoidheight>54.00</geoidheight><course>121.8</course><type>1</type></trkpt>
      <trkpt lat="40.63962233" lon="-5.0071347"><ele>2493</ele><speed>11.43</speed><time>2016-06-30T13:23:51Z</time><pdop>3.0</pdop><geoidheight>54.00</geoidheight><course>133.0</course><type>1</type></trkpt>
      <trkpt lat="40.63953487" lon="-5.00705911"><ele>2494</ele><speed>11.82</speed><time>2016-06-30T13:23:52Z</time><pdop>4.0</pdop><geoidheight>54.00</geoidheight><course>141.9</course><type>1</type></trkpt>
      <trkpt lat="40.6394335" lon="-5.00701902"><ele>2496</ele><speed>12.29</speed><time>2016-06-30T13:23:53Z</time><pdop>4.0</pdop><geoidheight>54.00</geoidheight><course>156.7</course><type>1</type></trkpt>
      <trkpt lat="40.63931758" lon="-5.00704382"><ele>2499</ele><speed>12.45</speed><time>2016-06-30T13:23:54Z</time><pdop>4.0</pdop><geoidheight>54.00</geoidheight><course>177.0</course><type>1</type></trkpt>
      <trkpt lat="40.63920812" lon="-5.00706325"><ele>2503</ele><speed>12.00</speed><time>2016-06-30T13:23:55Z</time><pdop>4.0</pdop><geoidheight>54.00</geoidheight><course>186.6</course><type>1</type></trkpt>
      <trkpt lat="40.63912238" lon="-5.00707963"><ele>2506</ele><speed>10.77</speed><time>2016-06-30T13:23:56Z</time><pdop>3.0</pdop><geoidheight>54.00</geoidheight><course>192.5</course><type>1</type></trkpt>
      <trkpt lat="40.63903582" lon="-5.00712513"><ele>2507</ele><speed>10.60</speed><time>2016-06-30T13:23:57Z</time><pdop>4.0</pdop><geoidheight>54.00</geoidheight><course>196.8</course><type>1</type></trkpt>
      <trkpt lat="40.63894476" lon="-5.00718156"><ele>2508</ele><speed>10.92</speed><time>2016-06-30T13:23:58Z</time><pdop>5.0</pdop><geoidheight>54.00</geoidheight><course>204.2</course><type>1</type></trkpt>
      <trkpt lat="40.63884276" lon="-5.00738357"><ele>2510</ele><speed>11.71</speed><time>2016-06-30T13:24:00Z</time><pdop>5.0</pdop><geoidheight>54.00</geoidheight><course>230.6</course><type>1</type></trkpt>
      <trkpt lat="40.63890031" lon="-5.00757848"><ele>2513</ele><speed>8.93</speed><time>2016-06-30T13:24:02Z</time><pdop>6.0</pdop><geoidheight>54.00</geoidheight><course>271.6</course><type>1</type></trkpt>
      <trkpt lat="40.63900314" lon="-5.00771192"><ele>2516</ele><speed>6.58</speed><time>2016-06-30T13:24:04Z</time><pdop>7.0</pdop><geoidheight>54.00</geoidheight><course>299.7</course><type>1</type></trkpt>
      <trkpt lat="40.63915276" lon="-5.00749458"><ele>2516</ele><speed>10.64</speed><time>2016-06-30T13:24:05Z</time><pdop>6.0</pdop><geoidheight>54.00</geoidheight><course>36.3</course><type>1</type></trkpt>
      <trkpt lat="40.63924672" lon="-5.00726014"><ele>2520</ele><speed>11.76</speed><time>2016-06-30T13:24:07Z</time><pdop>5.0</pdop><geoidheight>54.00</geoidheight><course>71.8</course><type>1</type></trkpt>
      <trkpt lat="40.6392592" lon="-5.00710057"><ele>2521</ele><speed>12.54</speed><time>2016-06-30T13:24:08Z</time><pdop>4.0</pdop><geoidheight>54.00</geoidheight><course>87.2</course><type>1</type></trkpt>
      <trkpt lat="40.63925298" lon="-5.00694135"><ele>2523</ele><speed>13.43</speed><time>2016-06-30T13:24:09Z</time><pdop>4.0</pdop><geoidheight>54.00</geoidheight><course>95.4</course><type>1</type></trkpt>
      <trkpt lat="40.63923117" lon="-5.00678883"><ele>2525</ele><speed>13.25</speed><time>2016-06-30T13:24:10Z</time><pdop>4.0</pdop><geoidheight>54.00</geoidheight><course>102.6</course><type>1</type></trkpt>
      <trkpt lat="40.63920198" lon="-5.00664274"><ele>2526</ele><speed>12.90</speed><time>2016-06-30T13:24:11Z</time><pdop>4.0</pdop><geoidheight>54.00</geoidheight><course>107.5</course><type>1</type></trkpt>
      <trkpt lat="40.63915965" lon="-5.00650524"><ele>2528</ele><speed>12.39</speed><time>2016-06-30T13:24:12Z</time><pdop>3.0</pdop><geoidheight>54.00</geoidheight><course>113.9</course><type>1</type></trkpt>
      <trkpt lat="40.63909982" lon="-5.00638739"><ele>2530</ele><speed>12.46</speed><time>2016-06-30T13:24:13Z</time><pdop>3.0</pdop><geoidheight>54.00</geoidheight><course>122.0</course><type>1</type></trkpt>
      <trkpt lat="40.63902011" lon="-5.00628416"><ele>2532</ele><speed>12.37</speed><time>2016-06-30T13:24:14Z</time><pdop>3.0</pdop><geoidheight>54.00</geoidheight><course>133.4</course><type>1</type></trkpt>
      <trkpt lat="40.6389386" lon="-5.00619673"><ele>2533</ele><speed>12.03</speed><time>2016-06-30T13:24:15Z</time><pdop>3.0</pdop><geoidheight>54.00</geoidheight><course>140.6</course><type>1</type></trkpt>
      <trkpt lat="40.63884897" lon="-5.00613962"><ele>2535</ele><speed>11.40</speed><time>2016-06-30T13:24:16Z</time><pdop>5.0</pdop><geoidheight>54.00</geoidheight><course>150.9</course><type>1</type></trkpt>
      <trkpt lat="40.63867003" lon="-5.0061986"><ele>2534</ele><speed>10.00</speed><time>2016-06-30T13:24:18Z</time><pdop>8.0</pdop><geoidheight>54.00</geoidheight><course>181.6</course><type>1</type></trkpt>
      <trkpt lat="40.63862824" lon="-5.00646288"><ele>2535</ele><speed>10.09</speed><time>2016-06-30T13:24:20Z</time><pdop>9.0</pdop><geoidheight>54.00</geoidheight><course>231.4</course><type>1</type></trkpt>
      <trkpt lat="40.63869045" lon="-5.00669923"><ele>2534</ele><speed>9.93</speed><time>2016-06-30T13:24:22Z</time><pdop>5.0</pdop><geoidheight>54.00</geoidheight><course>275.8</course><type>1</type></trkpt>
      <trkpt lat="40.63874373" lon="-5.00689781"><ele>2538</ele><speed>10.45</speed><time>2016-06-30T13:24:24Z</time><pdop>5.0</pdop><geoidheight>54.00</geoidheight><course>295.1</course><type>1</type></trkpt>
      <trkpt lat="40.63881608" lon="-5.00711274"><ele>2541</ele><speed>10.71</speed><time>2016-06-30T13:24:26Z</time><pdop>4.0</pdop><geoidheight>54.00</geoidheight><course>298.6</course><type>1</type></trkpt>
      <trkpt lat="40.6388787" lon="-5.00723083"><ele>2544</ele><speed>11.26</speed><time>2016-06-30T13:24:27Z</time><pdop>4.0</pdop><geoidheight>54.00</geoidheight><course>303.6</course><type>1</type></trkpt>
      <trkpt lat="40.63893565" lon="-5.0073337"><ele>2545</ele><speed>11.10</speed><time>2016-06-30T13:24:28Z</time><pdop>5.0</pdop><geoidheight>54.00</geoidheight><course>306.1</course><type>1</type></trkpt>
      <trkpt lat="40.63899649" lon="-5.00744667"><ele>2545</ele><speed>11.15</speed><time>2016-06-30T13:24:29Z</time><pdop>6.0</pdop><geoidheight>54.00</geoidheight><course>309.5</course><type>1</type></trkpt>
      <trkpt lat="40.63911344" lon="-5.0075814"><ele>2546</ele><speed>9.16</speed><time>2016-06-30T13:24:31Z</time><pdop>7.0</pdop><geoidheight>54.00</geoidheight><course>318.5</course><type>1</type></trkpt>
      <trkpt lat="40.63918487" lon="-5.00741573"><ele>2546</ele><speed>9.28</speed><time>2016-06-30T13:24:32Z</time><pdop>4.0</pdop><geoidheight>54.00</geoidheight><course>28.6</course><type>1</type></trkpt>
      <trkpt lat="40.63925802" lon="-5.00732822"><ele>2545</ele><speed>10.50</speed><time>2016-06-30T13:24:33Z</time><pdop>4.0</pdop><geoidheight>54.00</geoidheight><course>44.2</course><type>1</type></trkpt>
      <trkpt lat="40.6393063" lon="-5.00721508"><ele>2544</ele><speed>11.07</speed><time>2016-06-30T13:24:34Z</time><pdop>4.0</pdop><geoidheight>54.00</geoidheight><course>56.8</course><type>1</type></trkpt>
      <trkpt lat="40.63934886" lon="-5.00708981"><ele>2544</ele><speed>11.27</speed><time>2016-06-30T13:24:35Z</time><pdop>3.0</pdop><geoidheight>54.00</geoidheight><course>63.3</course><type>1</type></trkpt>
      <trkpt lat="40.63938664" lon="-5.00697258"><ele>2545</ele><speed>10.60</speed><time>2016-06-30T13:24:36Z</time><pdop>3.0</pdop><geoidheight>54.00</geoidheight><course>64.4</course><type>1</type></trkpt>
      <trkpt lat="40.63942652" lon="-5.00687863"><ele>2546</ele><speed>9.56</speed><time>2016-06-30T13:24:37Z</time><pdop>3.0</pdop><geoidheight>54.00</geoidheight><course>62.2</course><type>1</type></trkpt>
      <trkpt lat="40.63945982" lon="-5.00677886"><ele>2546</ele><speed>9.22</speed><time>2016-06-30T13:24:38Z</time><pdop>3.0</pdop><geoidheight>54.00</geoidheight><course>63.0</course><type>1</type></trkpt>
      <trkpt lat="40.63949974" lon="-5.00667124"><ele>2546</ele><speed>9.60</speed><time>2016-06-30T13:24:39Z</time><pdop>3.0</pdop><geoidheight>54.00</geoidheight><course>64.9</course><type>1</type></trkpt>
      <trkpt lat="40.63955239" lon="-5.00656923"><ele>2545</ele><speed>10.02</speed><time>2016-06-30T13:24:40Z</time><pdop>3.0</pdop><geoidheight>54.00</geoidheight><course>63.8</course><type>1</type></trkpt>
      <trkpt lat="40.63958104" lon="-5.00647249"><ele>2545</ele><speed>9.87</speed><time>2016-06-30T13:24:41Z</time><pdop>4.0</pdop><geoidheight>54.00</geoidheight><course>63.9</course><type>1</type></trkpt>
      <trkpt lat="40.63964302" lon="-5.00637535"><ele>2545</ele><speed>10.28</speed><time>2016-06-30T13:24:42Z</time><pdop>4.0</pdop><geoidheight>54.00</geoidheight><course>53.7</course><type>1</type></trkpt>
      <trkpt lat="40.63968457" lon="-5.0062754"><ele>2545</ele><speed>9.84</speed><time>2016-06-30T13:24:43Z</time><pdop>5.0</pdop><geoidheight>54.00</geoidheight><course>54.6</course><type>1</type></trkpt>
      <trkpt lat="40.6397432" lon="-5.00618472"><ele>2545</ele><speed>9.95</speed><time>2016-06-30T13:24:44Z</time><pdop>5.0</pdop><geoidheight>54.00</geoidheight><course>48.7</course><type>1</type></trkpt>
      <trkpt lat="40.639819" lon="-5.00610231"><ele>2545</ele><speed>10.26</speed><time>2016-06-30T13:24:45Z</time><pdop>5.0</pdop><geoidheight>54.00</geoidheight><course>42.3</course><type>1</type></trkpt>
      <trkpt lat="40.63997109" lon="-5.00597886"><ele>2546</ele><speed>9.66</speed><time>2016-06-30T13:24:47Z</time><pdop>5.0</pdop><geoidheight>54.00</geoidheight><course>29.4</course><type>1</type></trkpt>
      <trkpt lat="40.64013786" lon="-5.00591286"><ele>2546</ele><speed>9.19</speed><time>2016-06-30T13:24:49Z</time><pdop>5.0</pdop><geoidheight>54.00</geoidheight><course>17.5</course><type>1</type></trkpt>
      <trkpt lat="40.6402993" lon="-5.00583932"><ele>2546</ele><speed>9.09</speed><time>2016-06-30T13:24:51Z</time><pdop>5.0</pdop><geoidheight>54.00</geoidheight><course>20.7</course><type>1</type></trkpt>
      <trkpt lat="40.64044179" lon="-5.00575392"><ele>2546</ele><speed>8.39</speed><time>2016-06-30T13:24:53Z</time><pdop>5.0</pdop><geoidheight>54.00</geoidheight><course>29.9</course><type>1</type></trkpt>
      <trkpt lat="40.64056341" lon="-5.00560785"><ele>2543</ele><speed>9.02</speed><time>2016-06-30T13:24:55Z</time><pdop>5.0</pdop><geoidheight>54.00</geoidheight><course>42.4</course><type>1</type></trkpt>
      <trkpt lat="40.64069461" lon="-5.00545184"><ele>2541</ele><speed>10.45</speed><time>2016-06-30T13:24:57Z</time><pdop>5.0</pdop><geoidheight>54.00</geoidheight><course>39.7</course><type>1</type></trkpt>
      <trkpt lat="40.64077425" lon="-5.00535969"><ele>2540</ele><speed>11.29</speed><time>2016-06-30T13:24:58Z</time><pdop>6.0</pdop><geoidheight>54.00</geoidheight><course>39.4</course><type>1</type></trkpt>
      <trkpt lat="40.64091888" lon="-5.00517047"><ele>2540</ele><speed>11.49</speed><time>2016-06-30T13:25:00Z</time><pdop>6.0</pdop><geoidheight>54.00</geoidheight><course>41.9</course><type>1</type></trkpt>
      <trkpt lat="40.64098805" lon="-5.00507181"><ele>2541</ele><speed>11.20</speed><time>2016-06-30T13:25:01Z</time><pdop>5.0</pdop><geoidheight>54.00</geoidheight><course>46.1</course><type>1</type></trkpt>
      <trkpt lat="40.64105212" lon="-5.00496955"><ele>2541</ele><speed>11.09</speed><time>2016-06-30T13:25:02Z</time><pdop>5.0</pdop><geoidheight>54.00</geoidheight><course>50.0</course><type>1</type></trkpt>
      <trkpt lat="40.64111258" lon="-5.0048705"><ele>2543</ele><speed>10.85</speed><time>2016-06-30T13:25:03Z</time><pdop>5.0</pdop><geoidheight>54.00</geoidheight><course>53.8</course><type>1</type></trkpt>
      <trkpt lat="40.64117075" lon="-5.00476459"><ele>2543</ele><speed>10.83</speed><time>2016-06-30T13:25:04Z</time><pdop>6.0</pdop><geoidheight>54.00</geoidheight><course>55.0</course><type>1</type></trkpt>
      <trkpt lat="40.64128747" lon="-5.00458415"><ele>2546</ele><speed>9.80</speed><time>2016-06-30T13:25:06Z</time><pdop>6.0</pdop><geoidheight>54.00</geoidheight><course>51.0</course><type>1</type></trkpt>
      <trkpt lat="40.6414226" lon="-5.00444454"><ele>2547</ele><speed>9.43</speed><time>2016-06-30T13:25:08Z</time><pdop>7.0</pdop><geoidheight>54.00</geoidheight><course>37.4</course><type>1</type></trkpt>
      <trkpt lat="40.64159377" lon="-5.00443687"><ele>2545</ele><speed>9.45</speed><time>2016-06-30T13:25:10Z</time><pdop>5.0</pdop><geoidheight>54.00</geoidheight><course>0.2</course><type>1</type></trkpt>
      <trkpt lat="40.64174853" lon="-5.00444328"><ele>2545</ele><speed>9.41</speed><time>2016-06-30T13:25:12Z</time><pdop>6.0</pdop><geoidheight>54.00</geoidheight><course>357.8</course><type>1</type></trkpt>
      <trkpt lat="40.64184904" lon="-5.00441795"><ele>2547</ele><speed>9.74</speed><time>2016-06-30T13:25:13Z</time><pdop>5.0</pdop><geoidheight>54.00</geoidheight><course>8.1</course><type>1</type></trkpt>
      <trkpt lat="40.64193225" lon="-5.00438411"><ele>2549</ele><speed>9.64</speed><time>2016-06-30T13:25:14Z</time><pdop>4.0</pdop><geoidheight>54.00</geoidheight><course>17.6</course><type>1</type></trkpt>
      <trkpt lat="40.64200319" lon="-5.00433757"><ele>2549</ele><speed>9.20</speed><time>2016-06-30T13:25:15Z</time><pdop>4.0</pdop><geoidheight>54.00</geoidheight><course>25.8</course><type>1</type></trkpt>
      <trkpt lat="40.64208246" lon="-5.00428687"><ele>2548</ele><speed>8.83</speed><time>2016-06-30T13:25:16Z</time><pdop>4.0</pdop><geoidheight>54.00</geoidheight><course>31.3</course><type>1</type></trkpt>
      <trkpt lat="40.6421453" lon="-5.004224"><ele>2548</ele><speed>8.71</speed><time>2016-06-30T13:25:17Z</time><pdop>4.0</pdop><geoidheight>54.00</geoidheight><course>35.6</course><type>1</type></trkpt>
      <trkpt lat="40.64220736" lon="-5.00415133"><ele>2546</ele><speed>8.88</speed><time>2016-06-30T13:25:18Z</time><pdop>4.0</pdop><geoidheight>54.00</geoidheight><course>40.8</course><type>1</type></trkpt>
      <trkpt lat="40.64226753" lon="-5.0040707"><ele>2545</ele><speed>9.39</speed><time>2016-06-30T13:25:19Z</time><pdop>4.0</pdop><geoidheight>54.00</geoidheight><course>43.9</course><type>1</type></trkpt>
      <trkpt lat="40.64233925" lon="-5.00398141"><ele>2544</ele><speed>10.14</speed><time>2016-06-30T13:25:20Z</time><pdop>4.0</pdop><geoidheight>54.00</geoidheight><course>44.4</course><type>1</type></trkpt>
      <trkpt lat="40.64240783" lon="-5.00389176"><ele>2543</ele><speed>10.51</speed><time>2016-06-30T13:25:21Z</time><pdop>4.0</pdop><geoidheight>54.00</geoidheight><course>44.3</course><type>1</type></trkpt>
      <trkpt lat="40.64247687" lon="-5.00380441"><ele>2542</ele><speed>10.37</speed><time>2016-06-30T13:25:22Z</time><pdop>4.0</pdop><geoidheight>54.00</geoidheight><course>46.0</course><type>1</type></trkpt>
      <trkpt lat="40.64253992" lon="-5.00371786"><ele>2542</ele><speed>10.33</speed><time>2016-06-30T13:25:23Z</time><pdop>4.0</pdop><geoidheight>54.00</geoidheight><course>47.8</course><type>1</type></trkpt>
      <trkpt lat="40.6425893" lon="-5.00362572"><ele>2541</ele><speed>10.09</speed><time>2016-06-30T13:25:24Z</time><pdop>4.0</pdop><geoidheight>54.00</geoidheight><course>52.2</course><type>1</type></trkpt>
      <trkpt lat="40.64263595" lon="-5.00352679"><ele>2539</ele><speed>9.99</speed><time>2016-06-30T13:25:25Z</time><pdop>4.0</pdop><geoidheight>54.00</geoidheight><course>57.6</course><type>1</type></trkpt>
      <trkpt lat="40.64268584" lon="-5.00342262"><ele>2539</ele><speed>10.49</speed><time>2016-06-30T13:25:26Z</time><pdop>4.0</pdop><geoidheight>54.00</geoidheight><course>58.3</course><type>1</type></trkpt>
      <trkpt lat="40.64274604" lon="-5.00331677"><ele>2539</ele><speed>10.86</speed><time>2016-06-30T13:25:27Z</time><pdop>4.0</pdop><geoidheight>54.00</geoidheight><course>58.0</course><type>1</type></trkpt>
      <trkpt lat="40.64278261" lon="-5.00320571"><ele>2539</ele><speed>10.66</speed><time>2016-06-30T13:25:28Z</time><pdop>4.0</pdop><geoidheight>54.00</geoidheight><course>60.8</course><type>1</type></trkpt>
      <trkpt lat="40.64283268" lon="-5.00309767"><ele>2538</ele><speed>10.79</speed><time>2016-06-30T13:25:29Z</time><pdop>4.0</pdop><geoidheight>54.00</geoidheight><course>58.6</course><type>1</type></trkpt>
      <trkpt lat="40.64287515" lon="-5.00298553"><ele>2537</ele><speed>10.95</speed><time>2016-06-30T13:25:30Z</time><pdop>4.0</pdop><geoidheight>54.00</geoidheight><course>58.0</course><type>1</type></trkpt>
      <trkpt lat="40.64294414" lon="-5.00287394"><ele>2536</ele><speed>11.65</speed><time>2016-06-30T13:25:31Z</time><pdop>4.0</pdop><geoidheight>54.00</geoidheight><course>53.0</course><type>1</type></trkpt>
      <trkpt lat="40.64302323" lon="-5.00276088"><ele>2536</ele><speed>12.82</speed><time>2016-06-30T13:25:32Z</time><pdop>5.0</pdop><geoidheight>54.00</geoidheight><course>50.5</course><type>1</type></trkpt>
      <trkpt lat="40.64309441" lon="-5.00263721"><ele>2536</ele><speed>13.11</speed><time>2016-06-30T13:25:33Z</time><pdop>6.0</pdop><geoidheight>54.00</geoidheight><course>49.7</course><type>1</type></trkpt>
      <trkpt lat="40.64315951" lon="-5.00251859"><ele>2534</ele><speed>13.29</speed><time>2016-06-30T13:25:34Z</time><pdop>5.0</pdop><geoidheight>54.00</geoidheight><course>49.6</course><type>1</type></trkpt>
      <trkpt lat="40.64321804" lon="-5.00239609"><ele>2533</ele><speed>12.69</speed><time>2016-06-30T13:25:35Z</time><pdop>5.0</pdop><geoidheight>54.00</geoidheight><course>53.8</course><type>1</type></trkpt>
      <trkpt lat="40.64326025" lon="-5.0022712"><ele>2532</ele><speed>12.07</speed><time>2016-06-30T13:25:36Z</time><pdop>5.0</pdop><geoidheight>54.00</geoidheight><course>56.2</course><type>1</type></trkpt>
      <trkpt lat="40.64333258" lon="-5.00216134"><ele>2532</ele><speed>11.91</speed><time>2016-06-30T13:25:37Z</time><pdop>6.0</pdop><geoidheight>54.00</geoidheight><course>53.4</course><type>1</type></trkpt>
      <trkpt lat="40.64346269" lon="-5.00193157"><ele>2530</ele><speed>11.76</speed><time>2016-06-30T13:25:39Z</time><pdop>6.0</pdop><geoidheight>54.00</geoidheight><course>53.8</course><type>1</type></trkpt>
      <trkpt lat="40.6435644" lon="-5.00169302"><ele>2525</ele><speed>12.53</speed><time>2016-06-30T13:25:41Z</time><pdop>6.0</pdop><geoidheight>54.00</geoidheight><course>56.0</course><type>1</type></trkpt>
      <trkpt lat="40.64369663" lon="-5.00145246"><ele>2523</ele><speed>12.96</speed><time>2016-06-30T13:25:43Z</time><pdop>6.0</pdop><geoidheight>54.00</geoidheight><course>53.4</course><type>1</type></trkpt>
      <trkpt lat="40.64382363" lon="-5.00126109"><ele>2523</ele><speed>10.77</speed><time>2016-06-30T13:25:45Z</time><pdop>6.0</pdop><geoidheight>54.00</geoidheight><course>43.7</course><type>1</type></trkpt>
      <trkpt lat="40.6439328" lon="-5.00111019"><ele>2520</ele><speed>8.76</speed><time>2016-06-30T13:25:47Z</time><pdop>6.0</pdop><geoidheight>54.00</geoidheight><course>40.5</course><type>1</type></trkpt>
      <trkpt lat="40.64406839" lon="-5.00096446"><ele>2512</ele><speed>11.29</speed><time>2016-06-30T13:25:49Z</time><pdop>6.0</pdop><geoidheight>54.00</geoidheight><course>39.0</course><type>1</type></trkpt>
      <trkpt lat="40.64422982" lon="-5.00079116"><ele>2503</ele><speed>13.29</speed><time>2016-06-30T13:25:51Z</time><pdop>5.0</pdop><geoidheight>54.00</geoidheight><course>38.9</course><type>1</type></trkpt>
      <trkpt lat="40.64433483" lon="-5.00070311"><ele>2499</ele><speed>14.08</speed><time>2016-06-30T13:25:52Z</time><pdop>5.0</pdop><geoidheight>54.00</geoidheight><course>35.5</course><type>1</type></trkpt>
      <trkpt lat="40.64443006" lon="-5.00061343"><ele>2495</ele><speed>14.24</speed><time>2016-06-30T13:25:53Z</time><pdop>4.0</pdop><geoidheight>54.00</geoidheight><course>33.4</course><type>1</type></trkpt>
      <trkpt lat="40.64453053" lon="-5.00052792"><ele>2491</ele><speed>14.13</speed><time>2016-06-30T13:25:54Z</time><pdop>5.0</pdop><geoidheight>54.00</geoidheight><course>31.8</course><type>1</type></trkpt>
      <trkpt lat="40.6446369" lon="-5.00044825"><ele>2488</ele><speed>14.19</speed><time>2016-06-30T13:25:55Z</time><pdop>4.0</pdop><geoidheight>54.00</geoidheight><course>29.8</course><type>1</type></trkpt>
      <trkpt lat="40.64473531" lon="-5.00037798"><ele>2486</ele><speed>13.68</speed><time>2016-06-30T13:25:56Z</time><pdop>4.0</pdop><geoidheight>54.00</geoidheight><course>28.0</course><type>1</type></trkpt>
      <trkpt lat="40.64483698" lon="-5.00030863"><ele>2484</ele><speed>13.39</speed><time>2016-06-30T13:25:57Z</time><pdop>4.0</pdop><geoidheight>54.00</geoidheight><course>27.5</course><type>1</type></trkpt>
      <trkpt lat="40.64493894" lon="-5.00023183"><ele>2482</ele><speed>12.96</speed><time>2016-06-30T13:25:58Z</time><pdop>4.0</pdop><geoidheight>54.00</geoidheight><course>29.3</course><type>1</type></trkpt>
      <trkpt lat="40.64503514" lon="-5.00015743"><ele>2478</ele><speed>13.15</speed><time>2016-06-30T13:25:59Z</time><pdop>4.0</pdop><geoidheight>54.00</geoidheight><course>31.2</course><type>1</type></trkpt>
      <trkpt lat="40.64513456" lon="-5.00007447"><ele>2474</ele><speed>13.53</speed><time>2016-06-30T13:26:00Z</time><pdop>4.0</pdop><geoidheight>54.00</geoidheight><course>34.5</course><type>1</type></trkpt>
      <trkpt lat="40.6452296" lon="-4.99997584"><ele>2470</ele><speed>14.60</speed><time>2016-06-30T13:26:01Z</time><pdop>4.0</pdop><geoidheight>54.00</geoidheight><course>39.5</course><type>1</type></trkpt>
      <trkpt lat="40.64533793" lon="-4.99985417"><ele>2466</ele><speed>15.98</speed><time>2016-06-30T13:26:02Z</time><pdop>4.0</pdop><geoidheight>54.00</geoidheight><course>41.1</course><type>1</type></trkpt>
      <trkpt lat="40.64544724" lon="-4.99972239"><ele>2463</ele><speed>16.33</speed><time>2016-06-30T13:26:03Z</time><pdop>5.0</pdop><geoidheight>54.00</geoidheight><course>41.4</course><type>1</type></trkpt>
      <trkpt lat="40.64555653" lon="-4.99959203"><ele>2463</ele><speed>16.35</speed><time>2016-06-30T13:26:04Z</time><pdop>5.0</pdop><geoidheight>54.00</geoidheight><course>42.4</course><type>1</type></trkpt>
      <trkpt lat="40.645649" lon="-4.99946549"><ele>2462</ele><speed>15.72</speed><time>2016-06-30T13:26:05Z</time><pdop>5.0</pdop><geoidheight>54.00</geoidheight><course>43.5</course><type>1</type></trkpt>
      <trkpt lat="40.64575436" lon="-4.9993448"><ele>2462</ele><speed>15.05</speed><time>2016-06-30T13:26:06Z</time><pdop>5.0</pdop><geoidheight>54.00</geoidheight><course>43.3</course><type>1</type></trkpt>
      <trkpt lat="40.64583886" lon="-4.99922675"><ele>2460</ele><speed>14.02</speed><time>2016-06-30T13:26:07Z</time><pdop>4.0</pdop><geoidheight>54.00</geoidheight><course>43.4</course><type>1</type></trkpt>
      <trkpt lat="40.64593953" lon="-4.99910739"><ele>2457</ele><speed>14.32</speed><time>2016-06-30T13:26:08Z</time><pdop>4.0</pdop><geoidheight>54.00</geoidheight><course>42.5</course><type>1</type></trkpt>
      <trkpt lat="40.64602073" lon="-4.99897962"><ele>2454</ele><speed>14.59</speed><time>2016-06-30T13:26:09Z</time><pdop>4.0</pdop><geoidheight>54.00</geoidheight><course>45.4</course><type>1</type></trkpt>
      <trkpt lat="40.64611304" lon="-4.99884224"><ele>2453</ele><speed>14.76</speed><time>2016-06-30T13:26:10Z</time><pdop>4.0</pdop><geoidheight>54.00</geoidheight><course>50.8</course><type>1</type></trkpt>
      <trkpt lat="40.64618662" lon="-4.99870129"><ele>2452</ele><speed>14.44</speed><time>2016-06-30T13:26:11Z</time><pdop>4.0</pdop><geoidheight>54.00</geoidheight><course>54.2</course><type>1</type></trkpt>
      <trkpt lat="40.6462572" lon="-4.99856668"><ele>2452</ele><speed>13.90</speed><time>2016-06-30T13:26:12Z</time><pdop>4.0</pdop><geoidheight>54.00</geoidheight><course>55.2</course><type>1</type></trkpt>
      <trkpt lat="40.64631935" lon="-4.99842649"><ele>2451</ele><speed>13.82</speed><time>2016-06-30T13:26:13Z</time><pdop>4.0</pdop><geoidheight>54.00</geoidheight><course>57.6</course><type>1</type></trkpt>
      <trkpt lat="40.64639182" lon="-4.99827685"><ele>2449</ele><speed>14.29</speed><time>2016-06-30T13:26:14Z</time><pdop>4.0</pdop><geoidheight>54.00</geoidheight><course>60.2</course><type>1</type></trkpt>
      <trkpt lat="40.64645647" lon="-4.99812466"><ele>2448</ele><speed>14.50</speed><time>2016-06-30T13:26:15Z</time><pdop>4.0</pdop><geoidheight>54.00</geoidheight><course>61.6</course><type>1</type></trkpt>
      <trkpt lat="40.64652252" lon="-4.99796777"><ele>2447</ele><speed>14.77</speed><time>2016-06-30T13:26:16Z</time><pdop>4.0</pdop><geoidheight>54.00</geoidheight><course>61.7</course><type>1</type></trkpt>
      <trkpt lat="40.64659898" lon="-4.99781095"><ele>2445</ele><speed>15.17</speed><time>2016-06-30T13:26:17Z</time><pdop>4.0</pdop><geoidheight>54.00</geoidheight><course>59.9</course><type>1</type></trkpt>
      <trkpt lat="40.64666002" lon="-4.99765631"><ele>2445</ele><speed>15.17</speed><time>2016-06-30T13:26:18Z</time><pdop>5.0</pdop><geoidheight>54.00</geoidheight><course>59.9</course><type>1</type></trkpt>
      <trkpt lat="40.64674893" lon="-4.99750452"><ele>2444</ele><speed>15.15</speed><time>2016-06-30T13:26:19Z</time><pdop>6.0</pdop><geoidheight>54.00</geoidheight><course>57.3</course><type>1</type></trkpt>
      <trkpt lat="40.64680118" lon="-4.99736356"><ele>2442</ele><speed>14.40</speed><time>2016-06-30T13:26:20Z</time><pdop>5.0</pdop><geoidheight>54.00</geoidheight><course>60.4</course><type>1</type></trkpt>
      <trkpt lat="40.64685658" lon="-4.99721222"><ele>2442</ele><speed>14.25</speed><time>2016-06-30T13:26:21Z</time><pdop>5.0</pdop><geoidheight>54.00</geoidheight><course>60.5</course><type>1</type></trkpt>
      <trkpt lat="40.64692547" lon="-4.99707027"><ele>2441</ele><speed>14.50</speed><time>2016-06-30T13:26:22Z</time><pdop>6.0</pdop><geoidheight>54.00</geoidheight><course>59.3</course><type>1</type></trkpt>
      <trkpt lat="40.64698104" lon="-4.99692206"><ele>2440</ele><speed>14.67</speed><time>2016-06-30T13:26:23Z</time><pdop>7.0</pdop><geoidheight>54.00</geoidheight><course>61.0</course><type>1</type></trkpt>
      <trkpt lat="40.64707743" lon="-4.99676251"><ele>2439</ele><speed>15.41</speed><time>2016-06-30T13:26:24Z</time><pdop>5.0</pdop><geoidheight>54.00</geoidheight><course>59.5</course><type>1</type></trkpt>
      <trkpt lat="40.64715345" lon="-4.99661093"><ele>2441</ele><speed>15.14</speed><time>2016-06-30T13:26:25Z</time><pdop>5.0</pdop><geoidheight>54.00</geoidheight><course>57.4</course><type>1</type></trkpt>
      <trkpt lat="40.64729072" lon="-4.99633747"><ele>2440</ele><speed>14.25</speed><time>2016-06-30T13:26:27Z</time><pdop>10.0</pdop><geoidheight>54.00</geoidheight><course>56.7</course><type>1</type></trkpt>
      <trkpt lat="40.64740885" lon="-4.99603815"><ele>2441</ele><speed>14.18</speed><time>2016-06-30T13:26:29Z</time><pdop>9.0</pdop><geoidheight>54.00</geoidheight><course>63.9</course><type>1</type></trkpt>
      <trkpt lat="40.64750502" lon="-4.99576104"><ele>2441</ele><speed>13.13</speed><time>2016-06-30T13:26:31Z</time><pdop>10.0</pdop><geoidheight>54.00</geoidheight><course>64.8</course><type>1</type></trkpt>
      <trkpt lat="40.64759929" lon="-4.99547748"><ele>2442</ele><speed>13.14</speed><time>2016-06-30T13:26:33Z</time><pdop>5.0</pdop><geoidheight>54.00</geoidheight><course>67.7</course><type>1</type></trkpt>
      <trkpt lat="40.64763268" lon="-4.99532532"><ele>2442</ele><speed>13.35</speed><time>2016-06-30T13:26:34Z</time><pdop>4.0</pdop><geoidheight>54.00</geoidheight><course>70.2</course><type>1</type></trkpt>
      <trkpt lat="40.64766782" lon="-4.99517026"><ele>2443</ele><speed>13.86</speed><time>2016-06-30T13:26:35Z</time><pdop>4.0</pdop><geoidheight>54.00</geoidheight><course>75.3</course><type>1</type></trkpt>
      <trkpt lat="40.64769014" lon="-4.99499788"><ele>2444</ele><speed>14.33</speed><time>2016-06-30T13:26:36Z</time><pdop>4.0</pdop><geoidheight>54.00</geoidheight><course>79.8</course><type>1</type></trkpt>
      <trkpt lat="40.64769875" lon="-4.99482383"><ele>2445</ele><speed>14.66</speed><time>2016-06-30T13:26:37Z</time><pdop>4.0</pdop><geoidheight>54.00</geoidheight><course>83.5</course><type>1</type></trkpt>
      <trkpt lat="40.64770089" lon="-4.99464679"><ele>2445</ele><speed>14.62</speed><time>2016-06-30T13:26:38Z</time><pdop>4.0</pdop><geoidheight>54.00</geoidheight><course>86.2</course><type>1</type></trkpt>
      <trkpt lat="40.64772015" lon="-4.99446683"><ele>2445</ele><speed>14.53</speed><time>2016-06-30T13:26:39Z</time><pdop>4.0</pdop><geoidheight>54.00</geoidheight><course>85.4</course><type>1</type></trkpt>
      <trkpt lat="40.64773648" lon="-4.99430587"><ele>2446</ele><speed>14.17</speed><time>2016-06-30T13:26:40Z</time><pdop>4.0</pdop><geoidheight>54.00</geoidheight><course>80.6</course><type>1</type></trkpt>
      <trkpt lat="40.64777522" lon="-4.99415367"><ele>2446</ele><speed>13.59</speed><time>2016-06-30T13:26:41Z</time><pdop>4.0</pdop><geoidheight>54.00</geoidheight><course>73.4</course><type>1</type></trkpt>
      <trkpt lat="40.64782268" lon="-4.99401349"><ele>2445</ele><speed>12.77</speed><time>2016-06-30T13:26:42Z</time><pdop>4.0</pdop><geoidheight>54.00</geoidheight><course>66.9</course><type>1</type></trkpt>
      <trkpt lat="40.64787805" lon="-4.99388967"><ele>2444</ele><speed>12.24</speed><time>2016-06-30T13:26:43Z</time><pdop>5.0</pdop><geoidheight>54.00</geoidheight><course>63.3</course><type>1</type></trkpt>
      <trkpt lat="40.6479456" lon="-4.99377927"><ele>2444</ele><speed>11.80</speed><time>2016-06-30T13:26:44Z</time><pdop>5.0</pdop><geoidheight>54.00</geoidheight><course>55.6</course><type>1</type></trkpt>
      <trkpt lat="40.64803728" lon="-4.99369235"><ele>2446</ele><speed>11.90</speed><time>2016-06-30T13:26:45Z</time><pdop>4.0</pdop><geoidheight>54.00</geoidheight><course>43.2</course><type>1</type></trkpt>
      <trkpt lat="40.64809437" lon="-4.99359316"><ele>2447</ele><speed>11.45</speed><time>2016-06-30T13:26:46Z</time><pdop>5.0</pdop><geoidheight>54.00</geoidheight><course>44.5</course><type>1</type></trkpt>
      <trkpt lat="40.64816793" lon="-4.99350537"><ele>2447</ele><speed>11.06</speed><time>2016-06-30T13:26:47Z</time><pdop>6.0</pdop><geoidheight>54.00</geoidheight><course>43.7</course><type>1</type></trkpt>
      <trkpt lat="40.64831702" lon="-4.99338547"><ele>2447</ele><speed>8.56</speed><time>2016-06-30T13:26:49Z</time><pdop>5.0</pdop><geoidheight>54.00</geoidheight><course>27.7</course><type>1</type></trkpt>
      <trkpt lat="40.64844702" lon="-4.99338428"><ele>2445</ele><speed>7.08</speed><time>2016-06-30T13:26:51Z</time><pdop>5.0</pdop><geoidheight>54.00</geoidheight><course>2.1</course><type>1</type></trkpt>
      <trkpt lat="40.64850525" lon="-4.99354187"><ele>2442</ele><speed>5.74</speed><time>2016-06-30T13:26:53Z</time><pdop>5.0</pdop><geoidheight>54.00</geoidheight><course>287.1</course><type>1</type></trkpt>
      <trkpt lat="40.64845227" lon="-4.99370059"><ele>2442</ele><speed>4.58</speed><time>2016-06-30T13:26:56Z</time><pdop>7.0</pdop><geoidheight>54.00</geoidheight><course>240.2</course><type>1</type></trkpt>
      <trkpt lat="40.64823585" lon="-4.99367071"><ele>2442</ele><speed>9.00</speed><time>2016-06-30T13:26:58Z</time><pdop>7.0</pdop><geoidheight>54.00</geoidheight><course>171.3</course><type>1</type></trkpt>
      <trkpt lat="40.64808079" lon="-4.99360651"><ele>2441</ele><speed>11.01</speed><time>2016-06-30T13:26:59Z</time><pdop>7.0</pdop><geoidheight>54.00</geoidheight><course>163.2</course><type>1</type></trkpt>
      <trkpt lat="40.64793842" lon="-4.99346889"><ele>2440</ele><speed>13.74</speed><time>2016-06-30T13:27:00Z</time><pdop>6.0</pdop><geoidheight>54.00</geoidheight><course>148.2</course><type>1</type></trkpt>
      <trkpt lat="40.64786695" lon="-4.99328286"><ele>2440</ele><speed>14.32</speed><time>2016-06-30T13:27:01Z</time><pdop>5.0</pdop><geoidheight>54.00</geoidheight><course>124.9</course><type>1</type></trkpt>
      <trkpt lat="40.64779406" lon="-4.99314961"><ele>2439</ele><speed>14.58</speed><time>2016-06-30T13:27:02Z</time><pdop>5.0</pdop><geoidheight>54.00</geoidheight><course>122.3</course><type>1</type></trkpt>
      <trkpt lat="40.64777448" lon="-4.99295689"><ele>2438</ele><speed>15.12</speed><time>2016-06-30T13:27:03Z</time><pdop>4.0</pdop><geoidheight>54.00</geoidheight><course>105.7</course><type>1</type></trkpt>
      <trkpt lat="40.64775234" lon="-4.99274856"><ele>2435</ele><speed>16.72</speed><time>2016-06-30T13:27:04Z</time><pdop>4.0</pdop><geoidheight>54.00</geoidheight><course>98.1</course><type>1</type></trkpt>
      <trkpt lat="40.64772876" lon="-4.9925361"><ele>2434</ele><speed>17.92</speed><time>2016-06-30T13:27:05Z</time><pdop>4.0</pdop><geoidheight>54.00</geoidheight><course>93.8</course><type>1</type></trkpt>
      <trkpt lat="40.64771805" lon="-4.99232184"><ele>2435</ele><speed>17.99</speed><time>2016-06-30T13:27:06Z</time><pdop>4.0</pdop><geoidheight>54.00</geoidheight><course>92.5</course><type>1</type></trkpt>
      <trkpt lat="40.64771315" lon="-4.99211473"><ele>2436</ele><speed>17.22</speed><time>2016-06-30T13:27:07Z</time><pdop>4.0</pdop><geoidheight>54.00</geoidheight><course>91.1</course><type>1</type></trkpt>
      <trkpt lat="40.64771817" lon="-4.99191151"><ele>2437</ele><speed>16.67</speed><time>2016-06-30T13:27:08Z</time><pdop>4.0</pdop><geoidheight>54.00</geoidheight><course>90.1</course><type>1</type></trkpt>
      <trkpt lat="40.6477022" lon="-4.99173264"><ele>2439</ele><speed>15.60</speed><time>2016-06-30T13:27:09Z</time><pdop>5.0</pdop><geoidheight>54.00</geoidheight><course>90.8</course><type>1</type></trkpt>
      <trkpt lat="40.64771783" lon="-4.99156095"><ele>2438</ele><speed>14.62</speed><time>2016-06-30T13:27:10Z</time><pdop>5.0</pdop><geoidheight>54.00</geoidheight><course>87.3</course><type>1</type></trkpt>
      <trkpt lat="40.64772798" lon="-4.99139045"><ele>2438</ele><speed>14.20</speed><time>2016-06-30T13:27:11Z</time><pdop>4.0</pdop><geoidheight>54.00</geoidheight><course>83.8</course><type>1</type></trkpt>
      <trkpt lat="40.64774377" lon="-4.99121889"><ele>2438</ele><speed>14.76</speed><time>2016-06-30T13:27:12Z</time><pdop>4.0</pdop><geoidheight>54.00</geoidheight><course>80.9</course><type>1</type></trkpt>
      <trkpt lat="40.64778695" lon="-4.99104086"><ele>2437</ele><speed>15.11</speed><time>2016-06-30T13:27:13Z</time><pdop>4.0</pdop><geoidheight>54.00</geoidheight><course>77.2</course><type>1</type></trkpt>
      <trkpt lat="40.64782963" lon="-4.99085713"><ele>2437</ele><speed>15.51</speed><time>2016-06-30T13:27:14Z</time><pdop>4.0</pdop><geoidheight>54.00</geoidheight><course>73.8</course><type>1</type></trkpt>
      <trkpt lat="40.64786969" lon="-4.99068818"><ele>2435</ele><speed>15.61</speed><time>2016-06-30T13:27:15Z</time><pdop>4.0</pdop><geoidheight>54.00</geoidheight><course>73.2</course><type>1</type></trkpt>
      <trkpt lat="40.64790677" lon="-4.99051749"><ele>2435</ele><speed>15.07</speed><time>2016-06-30T13:27:16Z</time><pdop>4.0</pdop><geoidheight>54.00</geoidheight><course>74.2</course><type>1</type></trkpt>
      <trkpt lat="40.6479488" lon="-4.99035209"><ele>2434</ele><speed>15.39</speed><time>2016-06-30T13:27:17Z</time><pdop>4.0</pdop><geoidheight>54.00</geoidheight><course>72.3</course><type>1</type></trkpt>
      <trkpt lat="40.64799909" lon="-4.99017679"><ele>2433</ele><speed>16.26</speed><time>2016-06-30T13:27:18Z</time><pdop>4.0</pdop><geoidheight>54.00</geoidheight><course>69.3</course><type>1</type></trkpt>
      <trkpt lat="40.64805336" lon="-4.98998985"><ele>2433</ele><speed>16.81</speed><time>2016-06-30T13:27:19Z</time><pdop>4.0</pdop><geoidheight>54.00</geoidheight><course>68.0</course><type>1</type></trkpt>
      <trkpt lat="40.64810837" lon="-4.98981322"><ele>2434</ele><speed>16.19</speed><time>2016-06-30T13:27:20Z</time><pdop>4.0</pdop><geoidheight>54.00</geoidheight><course>67.9</course><type>1</type></trkpt>
      <trkpt lat="40.64816722" lon="-4.98964326"><ele>2435</ele><speed>15.76</speed><time>2016-06-30T13:27:21Z</time><pdop>4.0</pdop><geoidheight>54.00</geoidheight><course>66.5</course><type>1</type></trkpt>
      <trkpt lat="40.64822329" lon="-4.98947324"><ele>2435</ele><speed>14.99</speed><time>2016-06-30T13:27:22Z</time><pdop>3.0</pdop><geoidheight>54.00</geoidheight><course>67.4</course><type>1</type></trkpt>
      <trkpt lat="40.6482684" lon="-4.98931492"><ele>2434</ele><speed>14.66</speed><time>2016-06-30T13:27:23Z</time><pdop>4.0</pdop><geoidheight>54.00</geoidheight><course>68.9</course><type>1</type></trkpt>
      <trkpt lat="40.64831741" lon="-4.98915298"><ele>2433</ele><speed>14.66</speed><time>2016-06-30T13:27:24Z</time><pdop>4.0</pdop><geoidheight>54.00</geoidheight><course>68.5</course><type>1</type></trkpt>
      <trkpt lat="40.64836748" lon="-4.98899274"><ele>2431</ele><speed>14.59</speed><time>2016-06-30T13:27:25Z</time><pdop>4.0</pdop><geoidheight>54.00</geoidheight><course>66.9</course><type>1</type></trkpt>
      <trkpt lat="40.64842976" lon="-4.98883682"><ele>2431</ele><speed>15.04</speed><time>2016-06-30T13:27:26Z</time><pdop>4.0</pdop><geoidheight>54.00</geoidheight><course>64.2</course><type>1</type></trkpt>
      <trkpt lat="40.64848949" lon="-4.98867701"><ele>2431</ele><speed>15.03</speed><time>2016-06-30T13:27:27Z</time><pdop>5.0</pdop><geoidheight>54.00</geoidheight><course>64.0</course><type>1</type></trkpt>
      <trkpt lat="40.64856707" lon="-4.98851368"><ele>2430</ele><speed>15.42</speed><time>2016-06-30T13:27:28Z</time><pdop>4.0</pdop><geoidheight>54.00</geoidheight><course>59.8</course><type>1</type></trkpt>
      <trkpt lat="40.64863443" lon="-4.98836644"><ele>2431</ele><speed>14.71</speed><time>2016-06-30T13:27:29Z</time><pdop>4.0</pdop><geoidheight>54.00</geoidheight><course>60.7</course><type>1</type></trkpt>
      <trkpt lat="40.64869788" lon="-4.98821006"><ele>2430</ele><speed>14.22</speed><time>2016-06-30T13:27:30Z</time><pdop>4.0</pdop><geoidheight>54.00</geoidheight><course>60.9</course><type>1</type></trkpt>
      <trkpt lat="40.64875828" lon="-4.98806956"><ele>2429</ele><speed>13.93</speed><time>2016-06-30T13:27:31Z</time><pdop>4.0</pdop><geoidheight>54.00</geoidheight><course>61.8</course><type>1</type></trkpt>
      <trkpt lat="40.64882154" lon="-4.98792788"><ele>2429</ele><speed>13.59</speed><time>2016-06-30T13:27:32Z</time><pdop>5.0</pdop><geoidheight>54.00</geoidheight><course>60.9</course><type>1</type></trkpt>
      <trkpt lat="40.6488794" lon="-4.98779236"><ele>2428</ele><speed>13.56</speed><time>2016-06-30T13:27:33Z</time><pdop>6.0</pdop><geoidheight>54.00</geoidheight><course>60.6</course><type>1</type></trkpt>
      <trkpt lat="40.64902217" lon="-4.98765705"><ele>2424</ele><speed>16.39</speed><time>2016-06-30T13:27:34Z</time><pdop>5.0</pdop><geoidheight>54.00</geoidheight><course>44.2</course><type>1</type></trkpt>
      <trkpt lat="40.64914329" lon="-4.98752293"><ele>2421</ele><speed>17.54</speed><time>2016-06-30T13:27:35Z</time><pdop>5.0</pdop><geoidheight>54.00</geoidheight><course>41.4</course><type>1</type></trkpt>
      <trkpt lat="40.64926155" lon="-4.98739917"><ele>2417</ele><speed>17.40</speed><time>2016-06-30T13:27:36Z</time><pdop>5.0</pdop><geoidheight>54.00</geoidheight><course>39.6</course><type>1</type></trkpt>
      <trkpt lat="40.64938889" lon="-4.98729703"><ele>2414</ele><speed>16.53</speed><time>2016-06-30T13:27:37Z</time><pdop>5.0</pdop><geoidheight>54.00</geoidheight><course>34.7</course><type>1</type></trkpt>
      <trkpt lat="40.64950064" lon="-4.98721127"><ele>2412</ele><speed>15.34</speed><time>2016-06-30T13:27:38Z</time><pdop>5.0</pdop><geoidheight>54.00</geoidheight><course>29.9</course><type>1</type></trkpt>
      <trkpt lat="40.64961138" lon="-4.98712131"><ele>2410</ele><speed>15.32</speed><time>2016-06-30T13:27:39Z</time><pdop>5.0</pdop><geoidheight>54.00</geoidheight><course>30.0</course><type>1</type></trkpt>
      <trkpt lat="40.64972432" lon="-4.98701751"><ele>2407</ele><speed>15.67</speed><time>2016-06-30T13:27:40Z</time><pdop>5.0</pdop><geoidheight>54.00</geoidheight><course>34.5</course><type>1</type></trkpt>
      <trkpt lat="40.64983166" lon="-4.98690334"><ele>2405</ele><speed>15.38</speed><time>2016-06-30T13:27:41Z</time><pdop>5.0</pdop><geoidheight>54.00</geoidheight><course>38.0</course><type>1</type></trkpt>
      <trkpt lat="40.64993851" lon="-4.98678567"><ele>2402</ele><speed>15.55</speed><time>2016-06-30T13:27:42Z</time><pdop>5.0</pdop><geoidheight>54.00</geoidheight><course>37.8</course><type>1</type></trkpt>
      <trkpt lat="40.65004731" lon="-4.98667151"><ele>2401</ele><speed>15.33</speed><time>2016-06-30T13:27:43Z</time><pdop>5.0</pdop><geoidheight>54.00</geoidheight><course>38.7</course><type>1</type></trkpt>
      <trkpt lat="40.65014766" lon="-4.98655349"><ele>2400</ele><speed>15.77</speed><time>2016-06-30T13:27:44Z</time><pdop>5.0</pdop><geoidheight>54.00</geoidheight><course>39.6</course><type>1</type></trkpt>
      <trkpt lat="40.65025822" lon="-4.98643034"><ele>2397</ele><speed>16.38</speed><time>2016-06-30T13:27:45Z</time><pdop>5.0</pdop><geoidheight>54.00</geoidheight><course>40.5</course><type>1</type></trkpt>
      <trkpt lat="40.65037754" lon="-4.98630281"><ele>2395</ele><speed>16.74</speed><time>2016-06-30T13:27:46Z</time><pdop>6.0</pdop><geoidheight>54.00</geoidheight><course>40.0</course><type>1</type></trkpt>
      <trkpt lat="40.6504927" lon="-4.98617067"><ele>2394</ele><speed>17.21</speed><time>2016-06-30T13:27:47Z</time><pdop>7.0</pdop><geoidheight>54.00</geoidheight><course>40.3</course><type>1</type></trkpt>
      <trkpt lat="40.65063259" lon="-4.98601527"><ele>2391</ele><speed>19.05</speed><time>2016-06-30T13:27:48Z</time><pdop>6.0</pdop><geoidheight>54.00</geoidheight><course>40.0</course><type>1</type></trkpt>
      <trkpt lat="40.65072684" lon="-4.98587523"><ele>2389</ele><speed>17.29</speed><time>2016-06-30T13:27:49Z</time><pdop>6.0</pdop><geoidheight>54.00</geoidheight><course>42.8</course><type>1</type></trkpt>
      <trkpt lat="40.65082947" lon="-4.98575029"><ele>2388</ele><speed>16.19</speed><time>2016-06-30T13:27:50Z</time><pdop>6.0</pdop><geoidheight>54.00</geoidheight><course>41.9</course><type>1</type></trkpt>
      <trkpt lat="40.65093246" lon="-4.98564655"><ele>2385</ele><speed>14.78</speed><time>2016-06-30T13:27:51Z</time><pdop>6.0</pdop><geoidheight>54.00</geoidheight><course>38.1</course><type>1</type></trkpt>
      <trkpt lat="40.65103907" lon="-4.985554"><ele>2382</ele><speed>14.52</speed><time>2016-06-30T13:27:52Z</time><pdop>5.0</pdop><geoidheight>54.00</geoidheight><course>35.6</course><type>1</type></trkpt>
      <trkpt lat="40.65113922" lon="-4.98545374"><ele>2378</ele><speed>14.75</speed><time>2016-06-30T13:27:53Z</time><pdop>6.0</pdop><geoidheight>54.00</geoidheight><course>36.6</course><type>1</type></trkpt>
      <trkpt lat="40.65124248" lon="-4.98534509"><ele>2373</ele><speed>15.31</speed><time>2016-06-30T13:27:54Z</time><pdop>6.0</pdop><geoidheight>54.00</geoidheight><course>38.8</course><type>1</type></trkpt>
      <trkpt lat="40.65134577" lon="-4.98523446"><ele>2368</ele><speed>15.75</speed><time>2016-06-30T13:27:55Z</time><pdop>6.0</pdop><geoidheight>54.00</geoidheight><course>40.0</course><type>1</type></trkpt>
      <trkpt lat="40.65144821" lon="-4.98511513"><ele>2362</ele><speed>16.86</speed><time>2016-06-30T13:27:56Z</time><pdop>6.0</pdop><geoidheight>54.00</geoidheight><course>40.9</course><type>1</type></trkpt>
      <trkpt lat="40.65155384" lon="-4.98498313"><ele>2356</ele><speed>16.97</speed><time>2016-06-30T13:27:57Z</time><pdop>6.0</pdop><geoidheight>54.00</geoidheight><course>39.6</course><type>1</type></trkpt>
      <trkpt lat="40.65166197" lon="-4.98486154"><ele>2354</ele><speed>16.06</speed><time>2016-06-30T13:27:58Z</time><pdop>6.0</pdop><geoidheight>54.00</geoidheight><course>40.3</course><type>1</type></trkpt>
      <trkpt lat="40.65176673" lon="-4.98474281"><ele>2353</ele><speed>15.27</speed><time>2016-06-30T13:27:59Z</time><pdop>7.0</pdop><geoidheight>54.00</geoidheight><course>42.0</course><type>1</type></trkpt>
      <trkpt lat="40.65192581" lon="-4.98448699"><ele>2345</ele><speed>15.44</speed><time>2016-06-30T13:28:01Z</time><pdop>7.0</pdop><geoidheight>54.00</geoidheight><course>46.8</course><type>1</type></trkpt>
      <trkpt lat="40.65212458" lon="-4.98420008"><ele>2339</ele><speed>15.87</speed><time>2016-06-30T13:28:03Z</time><pdop>9.0</pdop><geoidheight>54.00</geoidheight><course>47.2</course><type>1</type></trkpt>
      <trkpt lat="40.65230065" lon="-4.98390768"><ele>2337</ele><speed>16.08</speed><time>2016-06-30T13:28:05Z</time><pdop>9.0</pdop><geoidheight>54.00</geoidheight><course>49.0</course><type>1</type></trkpt>
      <trkpt lat="40.65237984" lon="-4.98372847"><ele>2332</ele><speed>16.88</speed><time>2016-06-30T13:28:06Z</time><pdop>8.0</pdop><geoidheight>54.00</geoidheight><course>53.1</course><type>1</type></trkpt>
      <trkpt lat="40.65244953" lon="-4.98356318"><ele>2331</ele><speed>16.58</speed><time>2016-06-30T13:28:07Z</time><pdop>7.0</pdop><geoidheight>54.00</geoidheight><course>55.6</course><type>1</type></trkpt>
      <trkpt lat="40.65252674" lon="-4.98342763"><ele>2333</ele><speed>15.86</speed><time>2016-06-30T13:28:08Z</time><pdop>7.0</pdop><geoidheight>54.00</geoidheight><course>54.9</course><type>1</type></trkpt>
      <trkpt lat="40.65265337" lon="-4.98315641"><ele>2333</ele><speed>14.18</speed><time>2016-06-30T13:28:10Z</time><pdop>7.0</pdop><geoidheight>54.00</geoidheight><course>62.0</course><type>1</type></trkpt>
      <trkpt lat="40.65275491" lon="-4.9828236"><ele>2333</ele><speed>15.37</speed><time>2016-06-30T13:28:12Z</time><pdop>12.0</pdop><geoidheight>54.00</geoidheight><course>66.4</course><type>1</type></trkpt>
      <trkpt lat="40.65286788" lon="-4.98247203"><ele>2329</ele><speed>16.57</speed><time>2016-06-30T13:28:14Z</time><pdop>10.0</pdop><geoidheight>54.00</geoidheight><course>65.7</course><type>1</type></trkpt>
      <trkpt lat="40.6529917" lon="-4.98212626"><ele>2324</ele><speed>16.02</speed><time>2016-06-30T13:28:16Z</time><pdop>10.0</pdop><geoidheight>54.00</geoidheight><course>63.1</course><type>1</type></trkpt>
      <trkpt lat="40.65311399" lon="-4.98180001"><ele>2320</ele><speed>15.66</speed><time>2016-06-30T13:28:18Z</time><pdop>10.0</pdop><geoidheight>54.00</geoidheight><course>59.8</course><type>1</type></trkpt>
      <trkpt lat="40.6532336" lon="-4.98147795"><ele>2318</ele><speed>15.59</speed><time>2016-06-30T13:28:20Z</time><pdop>11.0</pdop><geoidheight>54.00</geoidheight><course>60.2</course><type>1</type></trkpt>
      <trkpt lat="40.65341715" lon="-4.9811584"><ele>2314</ele><speed>16.44</speed><time>2016-06-30T13:28:22Z</time><pdop>11.0</pdop><geoidheight>54.00</geoidheight><course>55.6</course><type>1</type></trkpt>
      <trkpt lat="40.65355587" lon="-4.98081419"><ele>2309</ele><speed>16.81</speed><time>2016-06-30T13:28:24Z</time><pdop>10.0</pdop><geoidheight>54.00</geoidheight><course>55.3</course><type>1</type></trkpt>
      <trkpt lat="40.65369551" lon="-4.98049241"><ele>2305</ele><speed>15.76</speed><time>2016-06-30T13:28:26Z</time><pdop>10.0</pdop><geoidheight>54.00</geoidheight><course>56.7</course><type>1</type></trkpt>
      <trkpt lat="40.65383184" lon="-4.98020923"><ele>2300</ele><speed>15.11</speed><time>2016-06-30T13:28:28Z</time><pdop>10.0</pdop><geoidheight>54.00</geoidheight><course>55.1</course><type>1</type></trkpt>
      <trkpt lat="40.6539956" lon="-4.97992776"><ele>2294</ele><speed>15.09</speed><time>2016-06-30T13:28:30Z</time><pdop>10.0</pdop><geoidheight>54.00</geoidheight><course>53.0</course><type>1</type></trkpt>
      <trkpt lat="40.65418488" lon="-4.97964069"><ele>2286</ele><speed>17.03</speed><time>2016-06-30T13:28:32Z</time><pdop>10.0</pdop><geoidheight>54.00</geoidheight><course>47.3</course><type>1</type></trkpt>
      <trkpt lat="40.65439056" lon="-4.9793234"><ele>2280</ele><speed>17.84</speed><time>2016-06-30T13:28:34Z</time><pdop>11.0</pdop><geoidheight>54.00</geoidheight><course>50.9</course><type>1</type></trkpt>
      <trkpt lat="40.65455865" lon="-4.97897394"><ele>2276</ele><speed>16.90</speed><time>2016-06-30T13:28:36Z</time><pdop>11.0</pdop><geoidheight>54.00</geoidheight><course>55.7</course><type>1</type></trkpt>
      <trkpt lat="40.65469106" lon="-4.97865459"><ele>2273</ele><speed>15.04</speed><time>2016-06-30T13:28:38Z</time><pdop>11.0</pdop><geoidheight>54.00</geoidheight><course>62.1</course><type>1</type></trkpt>
      <trkpt lat="40.65480864" lon="-4.9783514"><ele>2272</ele><speed>14.72</speed><time>2016-06-30T13:28:40Z</time><pdop>11.0</pdop><geoidheight>54.00</geoidheight><course>63.9</course><type>1</type></trkpt>
      <trkpt lat="40.65494441" lon="-4.97800254"><ele>2263</ele><speed>16.69</speed><time>2016-06-30T13:28:42Z</time><pdop>11.0</pdop><geoidheight>54.00</geoidheight><course>61.3</course><type>1</type></trkpt>
      <trkpt lat="40.65513924" lon="-4.97761569"><ele>2261</ele><speed>19.54</speed><time>2016-06-30T13:28:44Z</time><pdop>12.0</pdop><geoidheight>54.00</geoidheight><course>57.4</course><type>1</type></trkpt>
      <trkpt lat="40.65522658" lon="-4.97722132"><ele>2258</ele><speed>17.63</speed><time>2016-06-30T13:28:46Z</time><pdop>11.0</pdop><geoidheight>54.00</geoidheight><course>66.6</course><type>1</type></trkpt>
      <trkpt lat="40.6553372" lon="-4.97692156"><ele>2257</ele><speed>14.00</speed><time>2016-06-30T13:28:48Z</time><pdop>10.0</pdop><geoidheight>54.00</geoidheight><course>57.5</course><type>1</type></trkpt>
      <trkpt lat="40.65549503" lon="-4.97669391"><ele>2255</ele><speed>12.25</speed><time>2016-06-30T13:28:50Z</time><pdop>10.0</pdop><geoidheight>53.00</geoidheight><course>48.9</course><type>1</type></trkpt>
      <trkpt lat="40.65565633" lon="-4.97646809"><ele>2250</ele><speed>12.55</speed><time>2016-06-30T13:28:52Z</time><pdop>10.0</pdop><geoidheight>53.00</geoidheight><course>50.0</course><type>1</type></trkpt>
      <trkpt lat="40.65580842" lon="-4.97622369"><ele>2247</ele><speed>12.97</speed><time>2016-06-30T13:28:54Z</time><pdop>10.0</pdop><geoidheight>53.00</geoidheight><course>51.8</course><type>1</type></trkpt>
      <trkpt lat="40.6559404" lon="-4.97597708"><ele>2248</ele><speed>12.65</speed><time>2016-06-30T13:28:56Z</time><pdop>11.0</pdop><geoidheight>53.00</geoidheight><course>55.3</course><type>1</type></trkpt>
      <trkpt lat="40.65602277" lon="-4.97575015"><ele>2252</ele><speed>10.37</speed><time>2016-06-30T13:28:58Z</time><pdop>10.0</pdop><geoidheight>53.00</geoidheight><course>66.4</course><type>1</type></trkpt>
      <trkpt lat="40.65607874" lon="-4.97543165"><ele>2251</ele><speed>9.63</speed><time>2016-06-30T13:29:01Z</time><pdop>11.0</pdop><geoidheight>53.00</geoidheight><course>74.3</course><type>1</type></trkpt>
      <trkpt lat="40.65617036" lon="-4.97518737"><ele>2248</ele><speed>11.54</speed><time>2016-06-30T13:29:03Z</time><pdop>10.0</pdop><geoidheight>53.00</geoidheight><course>64.8</course><type>1</type></trkpt>
      <trkpt lat="40.65626169" lon="-4.97491848"><ele>2248</ele><speed>12.80</speed><time>2016-06-30T13:29:05Z</time><pdop>10.0</pdop><geoidheight>53.00</geoidheight><course>68.3</course><type>1</type></trkpt>
      <trkpt lat="40.65632472" lon="-4.97462768"><ele>2252</ele><speed>12.51</speed><time>2016-06-30T13:29:07Z</time><pdop>10.0</pdop><geoidheight>53.00</geoidheight><course>78.6</course><type>1</type></trkpt>
      <trkpt lat="40.65633415" lon="-4.97434056"><ele>2256</ele><speed>11.93</speed><time>2016-06-30T13:29:09Z</time><pdop>5.0</pdop><geoidheight>53.00</geoidheight><course>91.1</course><type>1</type></trkpt>
      <trkpt lat="40.65631035" lon="-4.97421583"><ele>2258</ele><speed>11.01</speed><time>2016-06-30T13:29:10Z</time><pdop>5.0</pdop><geoidheight>53.00</geoidheight><course>101.3</course><type>1</type></trkpt>
      <trkpt lat="40.65628153" lon="-4.97409039"><ele>2260</ele><speed>10.81</speed><time>2016-06-30T13:29:11Z</time><pdop>5.0</pdop><geoidheight>53.00</geoidheight><course>107.2</course><type>1</type></trkpt>
      <trkpt lat="40.65622088" lon="-4.97386983"><ele>2258</ele><speed>10.20</speed><time>2016-06-30T13:29:13Z</time><pdop>5.0</pdop><geoidheight>53.00</geoidheight><course>105.6</course><type>1</type></trkpt>
      <trkpt lat="40.65621636" lon="-4.97373766"><ele>2257</ele><speed>10.80</speed><time>2016-06-30T13:29:14Z</time><pdop>5.0</pdop><geoidheight>53.00</geoidheight><course>97.2</course><type>1</type></trkpt>
      <trkpt lat="40.65625985" lon="-4.97347816"><ele>2254</ele><speed>12.92</speed><time>2016-06-30T13:29:16Z</time><pdop>5.0</pdop><geoidheight>53.00</geoidheight><course>81.0</course><type>1</type></trkpt>
      <trkpt lat="40.65626947" lon="-4.97332915"><ele>2257</ele><speed>12.64</speed><time>2016-06-30T13:29:17Z</time><pdop>5.0</pdop><geoidheight>53.00</geoidheight><course>85.1</course><type>1</type></trkpt>
      <trkpt lat="40.65626225" lon="-4.97319772"><ele>2261</ele><speed>12.05</speed><time>2016-06-30T13:29:18Z</time><pdop>5.0</pdop><geoidheight>53.00</geoidheight><course>92.0</course><type>1</type></trkpt>
      <trkpt lat="40.65625658" lon="-4.97307387"><ele>2264</ele><speed>10.69</speed><time>2016-06-30T13:29:19Z</time><pdop>5.0</pdop><geoidheight>53.00</geoidheight><course>95.1</course><type>1</type></trkpt>
      <trkpt lat="40.65624805" lon="-4.9729515"><ele>2264</ele><speed>10.19</speed><time>2016-06-30T13:29:20Z</time><pdop>5.0</pdop><geoidheight>53.00</geoidheight><course>96.8</course><type>1</type></trkpt>
      <trkpt lat="40.65624608" lon="-4.97283074"><ele>2263</ele><speed>10.75</speed><time>2016-06-30T13:29:21Z</time><pdop>4.0</pdop><geoidheight>53.00</geoidheight><course>95.2</course><type>1</type></trkpt>
      <trkpt lat="40.65624368" lon="-4.97270218"><ele>2262</ele><speed>11.47</speed><time>2016-06-30T13:29:22Z</time><pdop>4.0</pdop><geoidheight>53.00</geoidheight><course>89.9</course><type>1</type></trkpt>
      <trkpt lat="40.65626372" lon="-4.97256452"><ele>2262</ele><speed>11.54</speed><time>2016-06-30T13:29:23Z</time><pdop>4.0</pdop><geoidheight>53.00</geoidheight><course>81.4</course><type>1</type></trkpt>
      <trkpt lat="40.6562904" lon="-4.97244148"><ele>2263</ele><speed>10.85</speed><time>2016-06-30T13:29:24Z</time><pdop>4.0</pdop><geoidheight>53.00</geoidheight><course>71.7</course><type>1</type></trkpt>
      <trkpt lat="40.65632481" lon="-4.97234704"><ele>2264</ele><speed>9.15</speed><time>2016-06-30T13:29:25Z</time><pdop>4.0</pdop><geoidheight>53.00</geoidheight><course>63.2</course><type>1</type></trkpt>
      <trkpt lat="40.65640903" lon="-4.97221113"><ele>2264</ele><speed>6.36</speed><time>2016-06-30T13:29:27Z</time><pdop>5.0</pdop><geoidheight>53.00</geoidheight><course>48.0</course><type>1</type></trkpt>
      <trkpt lat="40.65647919" lon="-4.97210084"><ele>2261</ele><speed>6.68</speed><time>2016-06-30T13:29:29Z</time><pdop>4.0</pdop><geoidheight>53.00</geoidheight><course>47.3</course><type>1</type></trkpt>
      <trkpt lat="40.65653177" lon="-4.97202602"><ele>2257</ele><speed>8.61</speed><time>2016-06-30T13:29:30Z</time><pdop>4.0</pdop><geoidheight>53.00</geoidheight><course>46.6</course><type>1</type></trkpt>
      <trkpt lat="40.6565985" lon="-4.97193437"><ele>2254</ele><speed>10.97</speed><time>2016-06-30T13:29:31Z</time><pdop>4.0</pdop><geoidheight>53.00</geoidheight><course>47.3</course><type>1</type></trkpt>
      <trkpt lat="40.65666901" lon="-4.97182231"><ele>2251</ele><speed>12.21</speed><time>2016-06-30T13:29:32Z</time><pdop>4.0</pdop><geoidheight>53.00</geoidheight><course>49.2</course><type>1</type></trkpt>
      <trkpt lat="40.65674187" lon="-4.97170626"><ele>2250</ele><speed>12.73</speed><time>2016-06-30T13:29:33Z</time><pdop>4.0</pdop><geoidheight>53.00</geoidheight><course>49.9</course><type>1</type></trkpt>
      <trkpt lat="40.65680074" lon="-4.97159216"><ele>2250</ele><speed>11.70</speed><time>2016-06-30T13:29:34Z</time><pdop>5.0</pdop><geoidheight>53.00</geoidheight><course>55.4</course><type>1</type></trkpt>
      <trkpt lat="40.65690218" lon="-4.97137403"><ele>2250</ele><speed>10.81</speed><time>2016-06-30T13:29:36Z</time><pdop>5.0</pdop><geoidheight>53.00</geoidheight><course>60.3</course><type>1</type></trkpt>
      <trkpt lat="40.65695377" lon="-4.97125822"><ele>2248</ele><speed>10.99</speed><time>2016-06-30T13:29:37Z</time><pdop>5.0</pdop><geoidheight>53.00</geoidheight><course>61.2</course><type>1</type></trkpt>
      <trkpt lat="40.65699948" lon="-4.97114808"><ele>2247</ele><speed>10.96</speed><time>2016-06-30T13:29:38Z</time><pdop>5.0</pdop><geoidheight>53.00</geoidheight><course>63.1</course><type>1</type></trkpt>
      <trkpt lat="40.65704355" lon="-4.971025"><ele>2246</ele><speed>11.20</speed><time>2016-06-30T13:29:39Z</time><pdop>5.0</pdop><geoidheight>53.00</geoidheight><course>62.7</course><type>1</type></trkpt>
      <trkpt lat="40.65714861" lon="-4.97081261"><ele>2246</ele><speed>10.11</speed><time>2016-06-30T13:29:41Z</time><pdop>7.0</pdop><geoidheight>53.00</geoidheight><course>60.1</course><type>1</type></trkpt>
      <trkpt lat="40.65726249" lon="-4.97060584"><ele>2246</ele><speed>10.67</speed><time>2016-06-30T13:29:43Z</time><pdop>11.0</pdop><geoidheight>53.00</geoidheight><course>56.1</course><type>1</type></trkpt>
      <trkpt lat="40.65733791" lon="-4.97029989"><ele>2245</ele><speed>12.82</speed><time>2016-06-30T13:29:45Z</time><pdop>12.0</pdop><geoidheight>53.00</geoidheight><course>65.8</course><type>1</type></trkpt>
      <trkpt lat="40.65739054" lon="-4.97002684"><ele>2246</ele><speed>12.24</speed><time>2016-06-30T13:29:47Z</time><pdop>8.0</pdop><geoidheight>53.00</geoidheight><course>71.7</course><type>1</type></trkpt>
      <trkpt lat="40.65747929" lon="-4.96977818"><ele>2243</ele><speed>11.30</speed><time>2016-06-30T13:29:49Z</time><pdop>6.0</pdop><geoidheight>53.00</geoidheight><course>72.5</course><type>1</type></trkpt>
      <trkpt lat="40.6575147" lon="-4.96964202"><ele>2241</ele><speed>11.77</speed><time>2016-06-30T13:29:50Z</time><pdop>6.0</pdop><geoidheight>53.00</geoidheight><course>74.4</course><type>1</type></trkpt>
      <trkpt lat="40.65754273" lon="-4.9694938"><ele>2240</ele><speed>12.73</speed><time>2016-06-30T13:29:51Z</time><pdop>5.0</pdop><geoidheight>53.00</geoidheight><course>75.3</course><type>1</type></trkpt>
      <trkpt lat="40.65757878" lon="-4.9693418"><ele>2237</ele><speed>13.53</speed><time>2016-06-30T13:29:52Z</time><pdop>5.0</pdop><geoidheight>53.00</geoidheight><course>73.1</course><type>1</type></trkpt>
      <trkpt lat="40.65761111" lon="-4.96918527"><ele>2235</ele><speed>14.16</speed><time>2016-06-30T13:29:53Z</time><pdop>5.0</pdop><geoidheight>53.00</geoidheight><course>71.4</course><type>1</type></trkpt>
      <trkpt lat="40.65765362" lon="-4.96903382"><ele>2235</ele><speed>13.83</speed><time>2016-06-30T13:29:54Z</time><pdop>5.0</pdop><geoidheight>53.00</geoidheight><course>70.1</course><type>1</type></trkpt>
      <trkpt lat="40.65770003" lon="-4.96888107"><ele>2235</ele><speed>13.50</speed><time>2016-06-30T13:29:55Z</time><pdop>6.0</pdop><geoidheight>53.00</geoidheight><course>69.6</course><type>1</type></trkpt>
      <trkpt lat="40.657736" lon="-4.96874637"><ele>2234</ele><speed>12.33</speed><time>2016-06-30T13:29:56Z</time><pdop>5.0</pdop><geoidheight>53.00</geoidheight><course>71.4</course><type>1</type></trkpt>
      <trkpt lat="40.65777478" lon="-4.96860941"><ele>2231</ele><speed>12.68</speed><time>2016-06-30T13:29:57Z</time><pdop>5.0</pdop><geoidheight>53.00</geoidheight><course>72.1</course><type>1</type></trkpt>
      <trkpt lat="40.65780772" lon="-4.96845072"><ele>2227</ele><speed>13.60</speed><time>2016-06-30T13:29:58Z</time><pdop>5.0</pdop><geoidheight>53.00</geoidheight><course>71.1</course><type>1</type></trkpt>
      <trkpt lat="40.65784984" lon="-4.96828794"><ele>2224</ele><speed>14.40</speed><time>2016-06-30T13:29:59Z</time><pdop>4.0</pdop><geoidheight>53.00</geoidheight><course>68.4</course><type>1</type></trkpt>
      <trkpt lat="40.65789919" lon="-4.96812174"><ele>2223</ele><speed>14.98</speed><time>2016-06-30T13:30:00Z</time><pdop>4.0</pdop><geoidheight>53.00</geoidheight><course>69.5</course><type>1</type></trkpt>
      <trkpt lat="40.65793718" lon="-4.96795508"><ele>2222</ele><speed>14.98</speed><time>2016-06-30T13:30:01Z</time><pdop>4.0</pdop><geoidheight>53.00</geoidheight><course>71.7</course><type>1</type></trkpt>
      <trkpt lat="40.65797187" lon="-4.96778406"><ele>2223</ele><speed>14.39</speed><time>2016-06-30T13:30:02Z</time><pdop>4.0</pdop><geoidheight>53.00</geoidheight><course>74.1</course><type>1</type></trkpt>
      <trkpt lat="40.65800506" lon="-4.96762783"><ele>2223</ele><speed>14.05</speed><time>2016-06-30T13:30:03Z</time><pdop>4.0</pdop><geoidheight>53.00</geoidheight><course>74.0</course><type>1</type></trkpt>
      <trkpt lat="40.6580182" lon="-4.96748263"><ele>2224</ele><speed>12.35</speed><time>2016-06-30T13:30:04Z</time><pdop>4.0</pdop><geoidheight>53.00</geoidheight><course>79.1</course><type>1</type></trkpt>
      <trkpt lat="40.658044" lon="-4.96735673"><ele>2224</ele><speed>11.62</speed><time>2016-06-30T13:30:05Z</time><pdop>3.0</pdop><geoidheight>53.00</geoidheight><course>78.8</course><type>1</type></trkpt>
      <trkpt lat="40.65807056" lon="-4.96721933"><ele>2224</ele><speed>12.08</speed><time>2016-06-30T13:30:06Z</time><pdop>4.0</pdop><geoidheight>53.00</geoidheight><course>77.8</course><type>1</type></trkpt>
      <trkpt lat="40.65808476" lon="-4.96707726"><ele>2225</ele><speed>12.60</speed><time>2016-06-30T13:30:07Z</time><pdop>4.0</pdop><geoidheight>53.00</geoidheight><course>80.7</course><type>1</type></trkpt>
      <trkpt lat="40.65808245" lon="-4.96692865"><ele>2226</ele><speed>12.54</speed><time>2016-06-30T13:30:08Z</time><pdop>4.0</pdop><geoidheight>53.00</geoidheight><course>88.9</course><type>1</type></trkpt>
      <trkpt lat="40.65806268" lon="-4.96680419"><ele>2230</ele><speed>12.20</speed><time>2016-06-30T13:30:09Z</time><pdop>4.0</pdop><geoidheight>53.00</geoidheight><course>100.1</course><type>1</type></trkpt>
      <trkpt lat="40.65802596" lon="-4.9666771"><ele>2232</ele><speed>11.85</speed><time>2016-06-30T13:30:10Z</time><pdop>3.0</pdop><geoidheight>53.00</geoidheight><course>110.0</course><type>1</type></trkpt>
      <trkpt lat="40.65797697" lon="-4.96656381"><ele>2233</ele><speed>11.47</speed><time>2016-06-30T13:30:11Z</time><pdop>4.0</pdop><geoidheight>53.00</geoidheight><course>118.0</course><type>1</type></trkpt>
      <trkpt lat="40.6579136" lon="-4.96646115"><ele>2233</ele><speed>11.00</speed><time>2016-06-30T13:30:12Z</time><pdop>4.0</pdop><geoidheight>53.00</geoidheight><course>127.3</course><type>1</type></trkpt>
      <trkpt lat="40.6578436" lon="-4.96637603"><ele>2233</ele><speed>10.73</speed><time>2016-06-30T13:30:13Z</time><pdop>4.0</pdop><geoidheight>53.00</geoidheight><course>140.0</course><type>1</type></trkpt>
      <trkpt lat="40.65775935" lon="-4.96633573"><ele>2234</ele><speed>9.74</speed><time>2016-06-30T13:30:14Z</time><pdop>4.0</pdop><geoidheight>53.00</geoidheight><course>156.2</course><type>1</type></trkpt>
      <trkpt lat="40.65762036" lon="-4.96637011"><ele>2235</ele><speed>7.70</speed><time>2016-06-30T13:30:16Z</time><pdop>3.0</pdop><geoidheight>53.00</geoidheight><course>193.1</course><type>1</type></trkpt>
      <trkpt lat="40.65756133" lon="-4.96641063"><ele>2235</ele><speed>7.24</speed><time>2016-06-30T13:30:17Z</time><pdop>4.0</pdop><geoidheight>53.00</geoidheight><course>204.7</course><type>1</type></trkpt>
      <trkpt lat="40.65749761" lon="-4.96651289"><ele>2235</ele><speed>5.74</speed><time>2016-06-30T13:30:19Z</time><pdop>4.0</pdop><geoidheight>53.00</geoidheight><course>236.0</course><type>1</type></trkpt>
      <trkpt lat="40.6575224" lon="-4.9666637"><ele>2232</ele><speed>7.76</speed><time>2016-06-30T13:30:21Z</time><pdop>4.0</pdop><geoidheight>53.00</geoidheight><course>291.1</course><type>1</type></trkpt>
      <trkpt lat="40.65757596" lon="-4.96674934"><ele>2231</ele><speed>9.37</speed><time>2016-06-30T13:30:22Z</time><pdop>4.0</pdop><geoidheight>53.00</geoidheight><course>309.9</course><type>1</type></trkpt>
      <trkpt lat="40.65763536" lon="-4.9668366"><ele>2230</ele><speed>9.57</speed><time>2016-06-30T13:30:23Z</time><pdop>5.0</pdop><geoidheight>53.00</geoidheight><course>313.0</course><type>1</type></trkpt>
      <trkpt lat="40.65781634" lon="-4.96684106"><ele>2231</ele><speed>9.41</speed><time>2016-06-30T13:30:25Z</time><pdop>7.0</pdop><geoidheight>53.00</geoidheight><course>353.0</course><type>1</type></trkpt>
      <trkpt lat="40.65790476" lon="-4.96673981"><ele>2232</ele><speed>10.53</speed><time>2016-06-30T13:30:26Z</time><pdop>5.0</pdop><geoidheight>53.00</geoidheight><course>26.4</course><type>1</type></trkpt>
      <trkpt lat="40.65796754" lon="-4.96665148"><ele>2232</ele><speed>10.74</speed><time>2016-06-30T13:30:27Z</time><pdop>5.0</pdop><geoidheight>53.00</geoidheight><course>38.0</course><type>1</type></trkpt>
      <trkpt lat="40.65803947" lon="-4.96655979"><ele>2234</ele><speed>11.12</speed><time>2016-06-30T13:30:28Z</time><pdop>5.0</pdop><geoidheight>53.00</geoidheight><course>44.9</course><type>1</type></trkpt>
      <trkpt lat="40.65810451" lon="-4.96646064"><ele>2235</ele><speed>11.56</speed><time>2016-06-30T13:30:29Z</time><pdop>5.0</pdop><geoidheight>53.00</geoidheight><course>50.9</course><type>1</type></trkpt>
      <trkpt lat="40.6581505" lon="-4.96633499"><ele>2237</ele><speed>11.70</speed><time>2016-06-30T13:30:30Z</time><pdop>4.0</pdop><geoidheight>53.00</geoidheight><course>61.7</course><type>1</type></trkpt>
      <trkpt lat="40.65817914" lon="-4.96621439"><ele>2240</ele><speed>11.30</speed><time>2016-06-30T13:30:31Z</time><pdop>4.0</pdop><geoidheight>53.00</geoidheight><course>75.6</course><type>1</type></trkpt>
      <trkpt lat="40.65817203" lon="-4.96608475"><ele>2241</ele><speed>10.86</speed><time>2016-06-30T13:30:32Z</time><pdop>4.0</pdop><geoidheight>53.00</geoidheight><course>94.4</course><type>1</type></trkpt>
      <trkpt lat="40.65813457" lon="-4.96596187"><ele>2241</ele><speed>10.96</speed><time>2016-06-30T13:30:33Z</time><pdop>4.0</pdop><geoidheight>53.00</geoidheight><course>114.3</course><type>1</type></trkpt>
      <trkpt lat="40.65806138" lon="-4.96586078"><ele>2241</ele><speed>11.73</speed><time>2016-06-30T13:30:34Z</time><pdop>4.0</pdop><geoidheight>53.00</geoidheight><course>133.1</course><type>1</type></trkpt>
      <trkpt lat="40.65797665" lon="-4.96580302"><ele>2241</ele><speed>11.08</speed><time>2016-06-30T13:30:35Z</time><pdop>4.0</pdop><geoidheight>53.00</geoidheight><course>150.0</course><type>1</type></trkpt>
      <trkpt lat="40.65788716" lon="-4.9657798"><ele>2243</ele><speed>9.68</speed><time>2016-06-30T13:30:36Z</time><pdop>4.0</pdop><geoidheight>53.00</geoidheight><course>165.4</course><type>1</type></trkpt>
      <trkpt lat="40.65776266" lon="-4.96586304"><ele>2244</ele><speed>8.18</speed><time>2016-06-30T13:30:38Z</time><pdop>4.0</pdop><geoidheight>53.00</geoidheight><course>214.9</course><type>1</type></trkpt>
      <trkpt lat="40.65771113" lon="-4.96595438"><ele>2243</ele><speed>9.14</speed><time>2016-06-30T13:30:39Z</time><pdop>5.0</pdop><geoidheight>53.00</geoidheight><course>229.6</course><type>1</type></trkpt>
      <trkpt lat="40.65767178" lon="-4.96612904"><ele>2243</ele><speed>7.89</speed><time>2016-06-30T13:30:41Z</time><pdop>9.0</pdop><geoidheight>53.00</geoidheight><course>247.1</course><type>1</type></trkpt>
      <trkpt lat="40.65788775" lon="-4.96623584"><ele>2247</ele><speed>9.96</speed><time>2016-06-30T13:30:43Z</time><pdop>6.0</pdop><geoidheight>53.00</geoidheight><course>336.6</course><type>1</type></trkpt>
      <trkpt lat="40.65807375" lon="-4.96623904"><ele>2251</ele><speed>10.31</speed><time>2016-06-30T13:30:45Z</time><pdop>6.0</pdop><geoidheight>53.00</geoidheight><course>9.1</course><type>1</type></trkpt>
      <trkpt lat="40.65822732" lon="-4.96609096"><ele>2252</ele><speed>10.94</speed><time>2016-06-30T13:30:47Z</time><pdop>8.0</pdop><geoidheight>53.00</geoidheight><course>32.4</course><type>1</type></trkpt>
      <trkpt lat="40.65817823" lon="-4.96593648"><ele>2252</ele><speed>10.33</speed><time>2016-06-30T13:30:48Z</time><pdop>5.0</pdop><geoidheight>53.00</geoidheight><course>84.7</course><type>1</type></trkpt>
      <trkpt lat="40.65816289" lon="-4.96580713"><ele>2253</ele><speed>10.66</speed><time>2016-06-30T13:30:49Z</time><pdop>4.0</pdop><geoidheight>53.00</geoidheight><course>102.4</course><type>1</type></trkpt>
      <trkpt lat="40.65810637" lon="-4.96570102"><ele>2253</ele><speed>11.01</speed><time>2016-06-30T13:30:50Z</time><pdop>4.0</pdop><geoidheight>53.00</geoidheight><course>120.1</course><type>1</type></trkpt>
      <trkpt lat="40.65803862" lon="-4.96561306"><ele>2254</ele><speed>11.18</speed><time>2016-06-30T13:30:51Z</time><pdop>4.0</pdop><geoidheight>53.00</geoidheight><course>138.0</course><type>1</type></trkpt>
      <trkpt lat="40.65795519" lon="-4.96555966"><ele>2254</ele><speed>11.27</speed><time>2016-06-30T13:30:52Z</time><pdop>4.0</pdop><geoidheight>53.00</geoidheight><course>153.4</course><type>1</type></trkpt>
      <trkpt lat="40.65786027" lon="-4.96553485"><ele>2256</ele><speed>10.58</speed><time>2016-06-30T13:30:53Z</time><pdop>4.0</pdop><geoidheight>53.00</geoidheight><course>168.4</course><type>1</type></trkpt>
      <trkpt lat="40.65777414" lon="-4.96555021"><ele>2257</ele><speed>9.10</speed><time>2016-06-30T13:30:54Z</time><pdop>4.0</pdop><geoidheight>53.00</geoidheight><course>181.1</course><type>1</type></trkpt>
      <trkpt lat="40.65764093" lon="-4.96560944"><ele>2258</ele><speed>8.27</speed><time>2016-06-30T13:30:56Z</time><pdop>4.0</pdop><geoidheight>53.00</geoidheight><course>199.5</course><type>1</type></trkpt>
      <trkpt lat="40.65751785" lon="-4.96569668"><ele>2261</ele><speed>8.03</speed><time>2016-06-30T13:30:58Z</time><pdop>7.0</pdop><geoidheight>53.00</geoidheight><course>208.7</course><type>1</type></trkpt>
      <trkpt lat="40.65740987" lon="-4.96589675"><ele>2259</ele><speed>8.19</speed><time>2016-06-30T13:31:01Z</time><pdop>7.0</pdop><geoidheight>53.00</geoidheight><course>255.3</course><type>1</type></trkpt>
      <trkpt lat="40.65745565" lon="-4.96612257"><ele>2256</ele><speed>10.22</speed><time>2016-06-30T13:31:03Z</time><pdop>8.0</pdop><geoidheight>53.00</geoidheight><course>290.2</course><type>1</type></trkpt>
      <trkpt lat="40.65760166" lon="-4.96616259"><ele>2256</ele><speed>12.89</speed><time>2016-06-30T13:31:04Z</time><pdop>7.0</pdop><geoidheight>53.00</geoidheight><course>333.8</course><type>1</type></trkpt>
      <trkpt lat="40.6578256" lon="-4.96619377"><ele>2257</ele><speed>12.68</speed><time>2016-06-30T13:31:06Z</time><pdop>8.0</pdop><geoidheight>53.00</geoidheight><course>354.4</course><type>1</type></trkpt>
      <trkpt lat="40.65794631" lon="-4.96603766"><ele>2260</ele><speed>9.26</speed><time>2016-06-30T13:31:08Z</time><pdop>7.0</pdop><geoidheight>53.00</geoidheight><course>33.4</course><type>1</type></trkpt>
      <trkpt lat="40.65803186" lon="-4.96585046"><ele>2264</ele><speed>9.86</speed><time>2016-06-30T13:31:10Z</time><pdop>7.0</pdop><geoidheight>53.00</geoidheight><course>51.8</course><type>1</type></trkpt>
      <trkpt lat="40.65811818" lon="-4.96561193"><ele>2268</ele><speed>10.99</speed><time>2016-06-30T13:31:12Z</time><pdop>6.0</pdop><geoidheight>53.00</geoidheight><course>64.0</course><type>1</type></trkpt>
      <trkpt lat="40.65820265" lon="-4.96538135"><ele>2273</ele><speed>10.88</speed><time>2016-06-30T13:31:14Z</time><pdop>5.0</pdop><geoidheight>53.00</geoidheight><course>64.5</course><type>1</type></trkpt>
      <trkpt lat="40.6582502" lon="-4.96526493"><ele>2274</ele><speed>11.20</speed><time>2016-06-30T13:31:15Z</time><pdop>5.0</pdop><geoidheight>53.00</geoidheight><course>63.2</course><type>1</type></trkpt>
      <trkpt lat="40.65829098" lon="-4.96513784"><ele>2276</ele><speed>11.50</speed><time>2016-06-30T13:31:16Z</time><pdop>5.0</pdop><geoidheight>53.00</geoidheight><course>65.0</course><type>1</type></trkpt>
      <trkpt lat="40.65833679" lon="-4.96500386"><ele>2278</ele><speed>12.37</speed><time>2016-06-30T13:31:17Z</time><pdop>4.0</pdop><geoidheight>53.00</geoidheight><course>67.3</course><type>1</type></trkpt>
      <trkpt lat="40.65838414" lon="-4.96485996"><ele>2280</ele><speed>13.11</speed><time>2016-06-30T13:31:18Z</time><pdop>4.0</pdop><geoidheight>53.00</geoidheight><course>66.1</course><type>1</type></trkpt>
      <trkpt lat="40.65845242" lon="-4.96473784"><ele>2283</ele><speed>12.62</speed><time>2016-06-30T13:31:19Z</time><pdop>4.0</pdop><geoidheight>53.00</geoidheight><course>55.0</course><type>1</type></trkpt>
      <trkpt lat="40.65851015" lon="-4.96463465"><ele>2285</ele><speed>10.95</speed><time>2016-06-30T13:31:20Z</time><pdop>4.0</pdop><geoidheight>53.00</geoidheight><course>55.1</course><type>1</type></trkpt>
      <trkpt lat="40.65863864" lon="-4.96450482"><ele>2286</ele><speed>9.22</speed><time>2016-06-30T13:31:22Z</time><pdop>10.0</pdop><geoidheight>53.00</geoidheight><course>41.7</course><type>1</type></trkpt>
      <trkpt lat="40.65885031" lon="-4.96462703"><ele>2285</ele><speed>9.41</speed><time>2016-06-30T13:31:24Z</time><pdop>9.0</pdop><geoidheight>53.00</geoidheight><course>344.5</course><type>1</type></trkpt>
      <trkpt lat="40.65903011" lon="-4.96477288"><ele>2286</ele><speed>10.04</speed><time>2016-06-30T13:31:26Z</time><pdop>10.0</pdop><geoidheight>53.00</geoidheight><course>334.3</course><type>1</type></trkpt>
      <trkpt lat="40.65907044" lon="-4.96498834"><ele>2288</ele><speed>7.92</speed><time>2016-06-30T13:31:28Z</time><pdop>8.0</pdop><geoidheight>53.00</geoidheight><course>302.0</course><type>1</type></trkpt>
      <trkpt lat="40.65912383" lon="-4.96521705"><ele>2289</ele><speed>9.27</speed><time>2016-06-30T13:31:30Z</time><pdop>7.0</pdop><geoidheight>53.00</geoidheight><course>285.7</course><type>1</type></trkpt>
      <trkpt lat="40.65911872" lon="-4.96543484"><ele>2291</ele><speed>7.39</speed><time>2016-06-30T13:31:32Z</time><pdop>9.0</pdop><geoidheight>53.00</geoidheight><course>271.8</course><type>1</type></trkpt>
      <trkpt lat="40.65897285" lon="-4.96546843"><ele>2288</ele><speed>8.42</speed><time>2016-06-30T13:31:33Z</time><pdop>6.0</pdop><geoidheight>53.00</geoidheight><course>206.0</course><type>1</type></trkpt>
      <trkpt lat="40.65881273" lon="-4.96549517"><ele>2286</ele><speed>9.10</speed><time>2016-06-30T13:31:35Z</time><pdop>6.0</pdop><geoidheight>53.00</geoidheight><course>187.5</course><type>1</type></trkpt>
      <trkpt lat="40.65870946" lon="-4.96535453"><ele>2285</ele><speed>8.07</speed><time>2016-06-30T13:31:37Z</time><pdop>8.0</pdop><geoidheight>53.00</geoidheight><course>145.3</course><type>1</type></trkpt>
      <trkpt lat="40.65860759" lon="-4.96507262"><ele>2289</ele><speed>11.58</speed><time>2016-06-30T13:31:39Z</time><pdop>7.0</pdop><geoidheight>53.00</geoidheight><course>123.1</course><type>1</type></trkpt>
      <trkpt lat="40.65848034" lon="-4.96486401"><ele>2292</ele><speed>10.48</speed><time>2016-06-30T13:31:41Z</time><pdop>5.0</pdop><geoidheight>53.00</geoidheight><course>132.1</course><type>1</type></trkpt>
      <trkpt lat="40.65842954" lon="-4.96476238"><ele>2293</ele><speed>10.22</speed><time>2016-06-30T13:31:42Z</time><pdop>5.0</pdop><geoidheight>53.00</geoidheight><course>129.8</course><type>1</type></trkpt>
      <trkpt lat="40.6583816" lon="-4.96464556"><ele>2293</ele><speed>10.47</speed><time>2016-06-30T13:31:43Z</time><pdop>5.0</pdop><geoidheight>53.00</geoidheight><course>120.6</course><type>1</type></trkpt>
      <trkpt lat="40.65835157" lon="-4.96452549"><ele>2293</ele><speed>10.60</speed><time>2016-06-30T13:31:44Z</time><pdop>5.0</pdop><geoidheight>53.00</geoidheight><course>112.6</course><type>1</type></trkpt>
      <trkpt lat="40.65833906" lon="-4.96438115"><ele>2295</ele><speed>11.55</speed><time>2016-06-30T13:31:45Z</time><pdop>5.0</pdop><geoidheight>53.00</geoidheight><course>98.8</course><type>1</type></trkpt>
      <trkpt lat="40.65833968" lon="-4.96423826"><ele>2295</ele><speed>11.69</speed><time>2016-06-30T13:31:46Z</time><pdop>4.0</pdop><geoidheight>53.00</geoidheight><course>87.6</course><type>1</type></trkpt>
      <trkpt lat="40.65835808" lon="-4.96410179"><ele>2295</ele><speed>11.64</speed><time>2016-06-30T13:31:47Z</time><pdop>4.0</pdop><geoidheight>53.00</geoidheight><course>77.1</course><type>1</type></trkpt>
      <trkpt lat="40.65839604" lon="-4.9639467"><ele>2296</ele><speed>12.13</speed><time>2016-06-30T13:31:48Z</time><pdop>4.0</pdop><geoidheight>53.00</geoidheight><course>71.3</course><type>1</type></trkpt>
      <trkpt lat="40.65844405" lon="-4.96382023"><ele>2297</ele><speed>11.80</speed><time>2016-06-30T13:31:49Z</time><pdop>5.0</pdop><geoidheight>53.00</geoidheight><course>67.0</course><type>1</type></trkpt>
      <trkpt lat="40.6585539" lon="-4.96365588"><ele>2299</ele><speed>8.18</speed><time>2016-06-30T13:31:51Z</time><pdop>8.0</pdop><geoidheight>53.00</geoidheight><course>55.5</course><type>1</type></trkpt>
      <trkpt lat="40.65881381" lon="-4.96367886"><ele>2298</ele><speed>10.47</speed><time>2016-06-30T13:31:53Z</time><pdop>10.0</pdop><geoidheight>53.00</geoidheight><course>8.7</course><type>1</type></trkpt>
      <trkpt lat="40.65892993" lon="-4.96400404"><ele>2298</ele><speed>9.54</speed><time>2016-06-30T13:31:55Z</time><pdop>10.0</pdop><geoidheight>53.00</geoidheight><course>309.0</course><type>1</type></trkpt>
      <trkpt lat="40.65892864" lon="-4.96435147"><ele>2299</ele><speed>10.11</speed><time>2016-06-30T13:31:57Z</time><pdop>9.0</pdop><geoidheight>53.00</geoidheight><course>278.5</course><type>1</type></trkpt>
      <trkpt lat="40.65880644" lon="-4.96453233"><ele>2300</ele><speed>9.16</speed><time>2016-06-30T13:31:59Z</time><pdop>7.0</pdop><geoidheight>53.00</geoidheight><course>221.3</course><type>1</type></trkpt>
      <trkpt lat="40.65861392" lon="-4.96459643"><ele>2297</ele><speed>10.11</speed><time>2016-06-30T13:32:01Z</time><pdop>7.0</pdop><geoidheight>53.00</geoidheight><course>184.2</course><type>1</type></trkpt>
      <trkpt lat="40.65844241" lon="-4.96451322"><ele>2298</ele><speed>9.49</speed><time>2016-06-30T13:32:03Z</time><pdop>5.0</pdop><geoidheight>53.00</geoidheight><course>152.2</course><type>1</type></trkpt>
      <trkpt lat="40.65837837" lon="-4.96444437"><ele>2299</ele><speed>9.44</speed><time>2016-06-30T13:32:04Z</time><pdop>4.0</pdop><geoidheight>53.00</geoidheight><course>138.6</course><type>1</type></trkpt>
      <trkpt lat="40.65834232" lon="-4.96435256"><ele>2301</ele><speed>8.91</speed><time>2016-06-30T13:32:05Z</time><pdop>4.0</pdop><geoidheight>53.00</geoidheight><course>125.1</course><type>1</type></trkpt>
      <trkpt lat="40.65831363" lon="-4.96424041"><ele>2301</ele><speed>9.46</speed><time>2016-06-30T13:32:06Z</time><pdop>5.0</pdop><geoidheight>53.00</geoidheight><course>111.2</course><type>1</type></trkpt>
      <trkpt lat="40.65829641" lon="-4.96410203"><ele>2301</ele><speed>10.57</speed><time>2016-06-30T13:32:07Z</time><pdop>5.0</pdop><geoidheight>53.00</geoidheight><course>98.5</course><type>1</type></trkpt>
      <trkpt lat="40.65829504" lon="-4.9639725"><ele>2301</ele><speed>11.17</speed><time>2016-06-30T13:32:08Z</time><pdop>5.0</pdop><geoidheight>53.00</geoidheight><course>91.2</course><type>1</type></trkpt>
      <trkpt lat="40.65829763" lon="-4.96382934"><ele>2303</ele><speed>11.93</speed><time>2016-06-30T13:32:09Z</time><pdop>5.0</pdop><geoidheight>53.00</geoidheight><course>86.1</course><type>1</type></trkpt>
      <trkpt lat="40.65830511" lon="-4.96369976"><ele>2303</ele><speed>11.44</speed><time>2016-06-30T13:32:10Z</time><pdop>5.0</pdop><geoidheight>53.00</geoidheight><course>85.1</course><type>1</type></trkpt>
      <trkpt lat="40.65831175" lon="-4.96343181"><ele>2305</ele><speed>10.94</speed><time>2016-06-30T13:32:12Z</time><pdop>5.0</pdop><geoidheight>53.00</geoidheight><course>89.0</course><type>1</type></trkpt>
      <trkpt lat="40.65830681" lon="-4.96328666"><ele>2306</ele><speed>11.28</speed><time>2016-06-30T13:32:13Z</time><pdop>5.0</pdop><geoidheight>53.00</geoidheight><course>90.2</course><type>1</type></trkpt>
      <trkpt lat="40.65830204" lon="-4.96313911"><ele>2308</ele><speed>11.74</speed><time>2016-06-30T13:32:14Z</time><pdop>5.0</pdop><geoidheight>53.00</geoidheight><course>88.8</course><type>1</type></trkpt>
      <trkpt lat="40.65831528" lon="-4.96299305"><ele>2310</ele><speed>12.02</speed><time>2016-06-30T13:32:15Z</time><pdop>5.0</pdop><geoidheight>53.00</geoidheight><course>83.7</course><type>1</type></trkpt>
      <trkpt lat="40.65834433" lon="-4.96285468"><ele>2309</ele><speed>12.23</speed><time>2016-06-30T13:32:16Z</time><pdop>4.0</pdop><geoidheight>53.00</geoidheight><course>77.0</course><type>1</type></trkpt>
      <trkpt lat="40.65840418" lon="-4.96271498"><ele>2309</ele><speed>12.50</speed><time>2016-06-30T13:32:17Z</time><pdop>4.0</pdop><geoidheight>53.00</geoidheight><course>64.5</course><type>1</type></trkpt>
      <trkpt lat="40.65846751" lon="-4.96259019"><ele>2308</ele><speed>12.42</speed><time>2016-06-30T13:32:18Z</time><pdop>5.0</pdop><geoidheight>53.00</geoidheight><course>58.1</course><type>1</type></trkpt>
      <trkpt lat="40.65853255" lon="-4.9624807"><ele>2307</ele><speed>12.78</speed><time>2016-06-30T13:32:19Z</time><pdop>6.0</pdop><geoidheight>53.00</geoidheight><course>53.2</course><type>1</type></trkpt>
      <trkpt lat="40.65869448" lon="-4.96231972"><ele>2308</ele><speed>11.69</speed><time>2016-06-30T13:32:21Z</time><pdop>8.0</pdop><geoidheight>53.00</geoidheight><course>43.4</course><type>1</type></trkpt>
      <trkpt lat="40.65880998" lon="-4.96210535"><ele>2311</ele><speed>10.87</speed><time>2016-06-30T13:32:23Z</time><pdop>5.0</pdop><geoidheight>53.00</geoidheight><course>56.5</course><type>1</type></trkpt>
      <trkpt lat="40.6588713" lon="-4.96199447"><ele>2311</ele><speed>11.48</speed><time>2016-06-30T13:32:24Z</time><pdop>5.0</pdop><geoidheight>53.00</geoidheight><course>58.1</course><type>1</type></trkpt>
      <trkpt lat="40.65891864" lon="-4.96186481"><ele>2310</ele><speed>12.13</speed><time>2016-06-30T13:32:25Z</time><pdop>5.0</pdop><geoidheight>53.00</geoidheight><course>58.7</course><type>1</type></trkpt>
      <trkpt lat="40.65901398" lon="-4.9617295"><ele>2310</ele><speed>12.82</speed><time>2016-06-30T13:32:26Z</time><pdop>5.0</pdop><geoidheight>53.00</geoidheight><course>53.4</course><type>1</type></trkpt>
      <trkpt lat="40.65909608" lon="-4.9616216"><ele>2310</ele><speed>13.34</speed><time>2016-06-30T13:32:27Z</time><pdop>5.0</pdop><geoidheight>53.00</geoidheight><course>42.6</course><type>1</type></trkpt>
      <trkpt lat="40.65920038" lon="-4.9615321"><ele>2311</ele><speed>13.66</speed><time>2016-06-30T13:32:28Z</time><pdop>6.0</pdop><geoidheight>53.00</geoidheight><course>35.4</course><type>1</type></trkpt>
      <trkpt lat="40.65931386" lon="-4.96143571"><ele>2312</ele><speed>14.25</speed><time>2016-06-30T13:32:29Z</time><pdop>6.0</pdop><geoidheight>53.00</geoidheight><course>32.8</course><type>1</type></trkpt>
      <trkpt lat="40.65942117" lon="-4.96134238"><ele>2313</ele><speed>14.50</speed><time>2016-06-30T13:32:30Z</time><pdop>7.0</pdop><geoidheight>53.00</geoidheight><course>33.8</course><type>1</type></trkpt>
      <trkpt lat="40.65950034" lon="-4.96121285"><ele>2314</ele><speed>13.73</speed><time>2016-06-30T13:32:31Z</time><pdop>6.0</pdop><geoidheight>53.00</geoidheight><course>43.7</course><type>1</type></trkpt>
      <trkpt lat="40.65957417" lon="-4.96109275"><ele>2315</ele><speed>13.50</speed><time>2016-06-30T13:32:32Z</time><pdop>7.0</pdop><geoidheight>53.00</geoidheight><course>45.4</course><type>1</type></trkpt>
      <trkpt lat="40.65975084" lon="-4.96091426"><ele>2317</ele><speed>11.66</speed><time>2016-06-30T13:32:34Z</time><pdop>7.0</pdop><geoidheight>53.00</geoidheight><course>40.4</course><type>1</type></trkpt>
      <trkpt lat="40.65992603" lon="-4.96080434"><ele>2314</ele><speed>11.54</speed><time>2016-06-30T13:32:36Z</time><pdop>6.0</pdop><geoidheight>53.00</geoidheight><course>18.5</course><type>1</type></trkpt>
      <trkpt lat="40.66016017" lon="-4.96077653"><ele>2315</ele><speed>12.08</speed><time>2016-06-30T13:32:38Z</time><pdop>9.0</pdop><geoidheight>53.00</geoidheight><course>7.1</course><type>1</type></trkpt>
      <trkpt lat="40.66021774" lon="-4.96103417"><ele>2318</ele><speed>7.46</speed><time>2016-06-30T13:32:40Z</time><pdop>7.0</pdop><geoidheight>53.00</geoidheight><course>293.1</course><type>1</type></trkpt>
      <trkpt lat="40.66022596" lon="-4.96125013"><ele>2320</ele><speed>4.58</speed><time>2016-06-30T13:32:43Z</time><pdop>9.0</pdop><geoidheight>53.00</geoidheight><course>260.7</course><type>1</type></trkpt>
      <trkpt lat="40.66007213" lon="-4.96125819"><ele>2321</ele><speed>9.09</speed><time>2016-06-30T13:32:44Z</time><pdop>6.0</pdop><geoidheight>53.00</geoidheight><course>187.6</course><type>1</type></trkpt>
      <trkpt lat="40.65991678" lon="-4.9612345"><ele>2321</ele><speed>10.54</speed><time>2016-06-30T13:32:46Z</time><pdop>6.0</pdop><geoidheight>53.00</geoidheight><course>167.1</course><type>1</type></trkpt>
      <trkpt lat="40.65973626" lon="-4.96113702"><ele>2323</ele><speed>10.54</speed><time>2016-06-30T13:32:48Z</time><pdop>5.0</pdop><geoidheight>53.00</geoidheight><course>152.9</course><type>1</type></trkpt>
      <trkpt lat="40.65964236" lon="-4.96106177"><ele>2325</ele><speed>10.81</speed><time>2016-06-30T13:32:49Z</time><pdop>5.0</pdop><geoidheight>53.00</geoidheight><course>145.1</course><type>1</type></trkpt>
      <trkpt lat="40.65950096" lon="-4.96086384"><ele>2327</ele><speed>11.54</speed><time>2016-06-30T13:32:51Z</time><pdop>5.0</pdop><geoidheight>53.00</geoidheight><course>130.3</course><type>1</type></trkpt>
      <trkpt lat="40.65944173" lon="-4.96074654"><ele>2328</ele><speed>11.66</speed><time>2016-06-30T13:32:52Z</time><pdop>5.0</pdop><geoidheight>53.00</geoidheight><course>121.6</course><type>1</type></trkpt>
      <trkpt lat="40.65939307" lon="-4.96061429"><ele>2329</ele><speed>11.90</speed><time>2016-06-30T13:32:53Z</time><pdop>5.0</pdop><geoidheight>53.00</geoidheight><course>112.0</course><type>1</type></trkpt>
      <trkpt lat="40.65937506" lon="-4.96047604"><ele>2329</ele><speed>11.79</speed><time>2016-06-30T13:32:54Z</time><pdop>5.0</pdop><geoidheight>53.00</geoidheight><course>99.9</course><type>1</type></trkpt>
      <trkpt lat="40.65939015" lon="-4.96033338"><ele>2328</ele><speed>12.09</speed><time>2016-06-30T13:32:55Z</time><pdop>4.0</pdop><geoidheight>53.00</geoidheight><course>85.3</course><type>1</type></trkpt>
      <trkpt lat="40.65943054" lon="-4.96020512"><ele>2328</ele><speed>12.08</speed><time>2016-06-30T13:32:56Z</time><pdop>4.0</pdop><geoidheight>53.00</geoidheight><course>72.1</course><type>1</type></trkpt>
      <trkpt lat="40.65949696" lon="-4.96007383"><ele>2327</ele><speed>12.69</speed><time>2016-06-30T13:32:57Z</time><pdop>4.0</pdop><geoidheight>53.00</geoidheight><course>58.4</course><type>1</type></trkpt>
      <trkpt lat="40.65956036" lon="-4.959941"><ele>2327</ele><speed>12.73</speed><time>2016-06-30T13:32:58Z</time><pdop>4.0</pdop><geoidheight>53.00</geoidheight><course>55.9</course><type>1</type></trkpt>
      <trkpt lat="40.65965133" lon="-4.95984004"><ele>2327</ele><speed>13.11</speed><time>2016-06-30T13:32:59Z</time><pdop>6.0</pdop><geoidheight>53.00</geoidheight><course>47.0</course><type>1</type></trkpt>
      <trkpt lat="40.65973827" lon="-4.95973408"><ele>2327</ele><speed>12.59</speed><time>2016-06-30T13:33:00Z</time><pdop>6.0</pdop><geoidheight>53.00</geoidheight><course>44.5</course><type>1</type></trkpt>
      <trkpt lat="40.6598437" lon="-4.95966344"><ele>2327</ele><speed>11.58</speed><time>2016-06-30T13:33:01Z</time><pdop>6.0</pdop><geoidheight>53.00</geoidheight><course>33.9</course><type>1</type></trkpt>
      <trkpt lat="40.65997927" lon="-4.95966099"><ele>2325</ele><speed>12.21</speed><time>2016-06-30T13:33:02Z</time><pdop>5.0</pdop><geoidheight>53.00</geoidheight><course>12.4</course><type>1</type></trkpt>
      <trkpt lat="40.66009084" lon="-4.95968021"><ele>2324</ele><speed>11.61</speed><time>2016-06-30T13:33:03Z</time><pdop>5.0</pdop><geoidheight>53.00</geoidheight><course>358.8</course><type>1</type></trkpt>
      <trkpt lat="40.66026482" lon="-4.95971136"><ele>2324</ele><speed>10.25</speed><time>2016-06-30T13:33:05Z</time><pdop>7.0</pdop><geoidheight>53.00</geoidheight><course>351.0</course><type>1</type></trkpt>
      <trkpt lat="40.66039036" lon="-4.9598733"><ele>2325</ele><speed>9.43</speed><time>2016-06-30T13:33:07Z</time><pdop>8.0</pdop><geoidheight>53.00</geoidheight><course>325.3</course><type>1</type></trkpt>
      <trkpt lat="40.66042349" lon="-4.96006739"><ele>2324</ele><speed>7.58</speed><time>2016-06-30T13:33:09Z</time><pdop>8.0</pdop><geoidheight>53.00</geoidheight><course>295.7</course><type>1</type></trkpt>
      <trkpt lat="40.66030991" lon="-4.96023867"><ele>2323</ele><speed>6.58</speed><time>2016-06-30T13:33:12Z</time><pdop>6.0</pdop><geoidheight>53.00</geoidheight><course>205.1</course><type>1</type></trkpt>
      <trkpt lat="40.66012373" lon="-4.96026652"><ele>2320</ele><speed>10.88</speed><time>2016-06-30T13:33:14Z</time><pdop>5.0</pdop><geoidheight>53.00</geoidheight><course>182.5</course><type>1</type></trkpt>
      <trkpt lat="40.66001418" lon="-4.96025855"><ele>2320</ele><speed>11.46</speed><time>2016-06-30T13:33:15Z</time><pdop>4.0</pdop><geoidheight>53.00</geoidheight><course>177.4</course><type>1</type></trkpt>
      <trkpt lat="40.6599159" lon="-4.96022309"><ele>2322</ele><speed>11.43</speed><time>2016-06-30T13:33:16Z</time><pdop>4.0</pdop><geoidheight>53.00</geoidheight><course>165.9</course><type>1</type></trkpt>
      <trkpt lat="40.65982011" lon="-4.96016384"><ele>2324</ele><speed>11.07</speed><time>2016-06-30T13:33:17Z</time><pdop>4.0</pdop><geoidheight>53.00</geoidheight><course>154.1</course><type>1</type></trkpt>
      <trkpt lat="40.65974382" lon="-4.96007994"><ele>2325</ele><speed>11.04</speed><time>2016-06-30T13:33:18Z</time><pdop>4.0</pdop><geoidheight>53.00</geoidheight><course>141.7</course><type>1</type></trkpt>
      <trkpt lat="40.65967459" lon="-4.95998685"><ele>2324</ele><speed>11.05</speed><time>2016-06-30T13:33:19Z</time><pdop>4.0</pdop><geoidheight>53.00</geoidheight><course>132.6</course><type>1</type></trkpt>
      <trkpt lat="40.65961279" lon="-4.9598825"><ele>2324</ele><speed>10.86</speed><time>2016-06-30T13:33:20Z</time><pdop>4.0</pdop><geoidheight>53.00</geoidheight><course>125.8</course><type>1</type></trkpt>
      <trkpt lat="40.65956019" lon="-4.95976938"><ele>2325</ele><speed>10.89</speed><time>2016-06-30T13:33:21Z</time><pdop>4.0</pdop><geoidheight>53.00</geoidheight><course>122.5</course><type>1</type></trkpt>
      <trkpt lat="40.65950564" lon="-4.9596613"><ele>2324</ele><speed>10.70</speed><time>2016-06-30T13:33:22Z</time><pdop>4.0</pdop><geoidheight>53.00</geoidheight><course>124.4</course><type>1</type></trkpt>
      <trkpt lat="40.65943793" lon="-4.95957065"><ele>2324</ele><speed>10.56</speed><time>2016-06-30T13:33:23Z</time><pdop>5.0</pdop><geoidheight>53.00</geoidheight><course>132.0</course><type>1</type></trkpt>
      <trkpt lat="40.65929275" lon="-4.95942127"><ele>2325</ele><speed>10.38</speed><time>2016-06-30T13:33:25Z</time><pdop>5.0</pdop><geoidheight>53.00</geoidheight><course>142.5</course><type>1</type></trkpt>
      <trkpt lat="40.65922439" lon="-4.9593319"><ele>2326</ele><speed>10.41</speed><time>2016-06-30T13:33:26Z</time><pdop>5.0</pdop><geoidheight>53.00</geoidheight><course>138.1</course><type>1</type></trkpt>
      <trkpt lat="40.65916297" lon="-4.95924238"><ele>2328</ele><speed>10.19</speed><time>2016-06-30T13:33:27Z</time><pdop>5.0</pdop><geoidheight>53.00</geoidheight><course>131.8</course><type>1</type></trkpt>
      <trkpt lat="40.65911312" lon="-4.95914917"><ele>2329</ele><speed>9.64</speed><time>2016-06-30T13:33:28Z</time><pdop>4.0</pdop><geoidheight>53.00</geoidheight><course>128.5</course><type>1</type></trkpt>
      <trkpt lat="40.65907074" lon="-4.95905672"><ele>2329</ele><speed>9.60</speed><time>2016-06-30T13:33:29Z</time><pdop>4.0</pdop><geoidheight>53.00</geoidheight><course>123.7</course><type>1</type></trkpt>
      <trkpt lat="40.65902686" lon="-4.95896081"><ele>2329</ele><speed>9.87</speed><time>2016-06-30T13:33:30Z</time><pdop>4.0</pdop><geoidheight>53.00</geoidheight><course>120.0</course><type>1</type></trkpt>
      <trkpt lat="40.65898656" lon="-4.95886514"><ele>2330</ele><speed>9.56</speed><time>2016-06-30T13:33:31Z</time><pdop>4.0</pdop><geoidheight>53.00</geoidheight><course>119.2</course><type>1</type></trkpt>
      <trkpt lat="40.65895303" lon="-4.95877333"><ele>2329</ele><speed>9.32</speed><time>2016-06-30T13:33:32Z</time><pdop>4.0</pdop><geoidheight>53.00</geoidheight><course>119.7</course><type>1</type></trkpt>
      <trkpt lat="40.65887724" lon="-4.95868284"><ele>2325</ele><speed>9.00</speed><time>2016-06-30T13:33:33Z</time><pdop>4.0</pdop><geoidheight>53.00</geoidheight><course>122.1</course><type>1</type></trkpt>
      <trkpt lat="40.65883397" lon="-4.95858318"><ele>2322</ele><speed>9.63</speed><time>2016-06-30T13:33:34Z</time><pdop>4.0</pdop><geoidheight>53.00</geoidheight><course>119.0</course><type>1</type></trkpt>
      <trkpt lat="40.65879845" lon="-4.95847444"><ele>2321</ele><speed>9.90</speed><time>2016-06-30T13:33:35Z</time><pdop>5.0</pdop><geoidheight>53.00</geoidheight><course>113.6</course><type>1</type></trkpt>
      <trkpt lat="40.65877823" lon="-4.95833048"><ele>2319</ele><speed>11.65</speed><time>2016-06-30T13:33:36Z</time><pdop>5.0</pdop><geoidheight>53.00</geoidheight><course>104.2</course><type>1</type></trkpt>
      <trkpt lat="40.65876036" lon="-4.95819081"><ele>2319</ele><speed>11.87</speed><time>2016-06-30T13:33:37Z</time><pdop>5.0</pdop><geoidheight>53.00</geoidheight><course>99.9</course><type>1</type></trkpt>
      <trkpt lat="40.65874159" lon="-4.95803904"><ele>2318</ele><speed>12.58</speed><time>2016-06-30T13:33:38Z</time><pdop>5.0</pdop><geoidheight>53.00</geoidheight><course>96.3</course><type>1</type></trkpt>
      <trkpt lat="40.65873428" lon="-4.95787735"><ele>2316</ele><speed>12.78</speed><time>2016-06-30T13:33:39Z</time><pdop>5.0</pdop><geoidheight>53.00</geoidheight><course>91.8</course><type>1</type></trkpt>
      <trkpt lat="40.65874351" lon="-4.95771992"><ele>2316</ele><speed>13.28</speed><time>2016-06-30T13:33:40Z</time><pdop>5.0</pdop><geoidheight>53.00</geoidheight><course>87.0</course><type>1</type></trkpt>
      <trkpt lat="40.65874967" lon="-4.95756663"><ele>2316</ele><speed>13.45</speed><time>2016-06-30T13:33:41Z</time><pdop>5.0</pdop><geoidheight>53.00</geoidheight><course>87.1</course><type>1</type></trkpt>
      <trkpt lat="40.65875675" lon="-4.95739618"><ele>2316</ele><speed>14.14</speed><time>2016-06-30T13:33:42Z</time><pdop>5.0</pdop><geoidheight>53.00</geoidheight><course>88.6</course><type>1</type></trkpt>
      <trkpt lat="40.65877403" lon="-4.95723168"><ele>2315</ele><speed>14.23</speed><time>2016-06-30T13:33:43Z</time><pdop>5.0</pdop><geoidheight>53.00</geoidheight><course>85.8</course><type>1</type></trkpt>
      <trkpt lat="40.65879335" lon="-4.95707053"><ele>2314</ele><speed>14.06</speed><time>2016-06-30T13:33:44Z</time><pdop>5.0</pdop><geoidheight>53.00</geoidheight><course>78.6</course><type>1</type></trkpt>
      <trkpt lat="40.65882065" lon="-4.95690351"><ele>2314</ele><speed>14.42</speed><time>2016-06-30T13:33:45Z</time><pdop>6.0</pdop><geoidheight>53.00</geoidheight><course>77.5</course><type>1</type></trkpt>
      <trkpt lat="40.6588593" lon="-4.95672722"><ele>2314</ele><speed>14.83</speed><time>2016-06-30T13:33:46Z</time><pdop>7.0</pdop><geoidheight>53.00</geoidheight><course>75.2</course><type>1</type></trkpt>
      <trkpt lat="40.65893356" lon="-4.95654726"><ele>2312</ele><speed>15.70</speed><time>2016-06-30T13:33:47Z</time><pdop>6.0</pdop><geoidheight>53.00</geoidheight><course>67.4</course><type>1</type></trkpt>
      <trkpt lat="40.65898714" lon="-4.95636657"><ele>2309</ele><speed>16.39</speed><time>2016-06-30T13:33:48Z</time><pdop>5.0</pdop><geoidheight>53.00</geoidheight><course>68.9</course><type>1</type></trkpt>
      <trkpt lat="40.6590453" lon="-4.9561691"><ele>2308</ele><speed>17.85</speed><time>2016-06-30T13:33:49Z</time><pdop>5.0</pdop><geoidheight>53.00</geoidheight><course>70.4</course><type>1</type></trkpt>
      <trkpt lat="40.65908312" lon="-4.95595808"><ele>2308</ele><speed>18.00</speed><time>2016-06-30T13:33:50Z</time><pdop>5.0</pdop><geoidheight>53.00</geoidheight><course>75.2</course><type>1</type></trkpt>
      <trkpt lat="40.6591065" lon="-4.95576555"><ele>2309</ele><speed>16.83</speed><time>2016-06-30T13:33:51Z</time><pdop>4.0</pdop><geoidheight>53.00</geoidheight><course>79.1</course><type>1</type></trkpt>
      <trkpt lat="40.65913256" lon="-4.95558322"><ele>2311</ele><speed>15.67</speed><time>2016-06-30T13:33:52Z</time><pdop>4.0</pdop><geoidheight>53.00</geoidheight><course>79.8</course><type>1</type></trkpt>
      <trkpt lat="40.65915347" lon="-4.95540643"><ele>2309</ele><speed>15.28</speed><time>2016-06-30T13:33:53Z</time><pdop>4.0</pdop><geoidheight>53.00</geoidheight><course>78.5</course><type>1</type></trkpt>
      <trkpt lat="40.65918381" lon="-4.95522398"><ele>2308</ele><speed>15.30</speed><time>2016-06-30T13:33:54Z</time><pdop>4.0</pdop><geoidheight>53.00</geoidheight><course>79.7</course><type>1</type></trkpt>
      <trkpt lat="40.6591939" lon="-4.95505516"><ele>2307</ele><speed>15.49</speed><time>2016-06-30T13:33:55Z</time><pdop>4.0</pdop><geoidheight>53.00</geoidheight><course>83.1</course><type>1</type></trkpt>
      <trkpt lat="40.65920592" lon="-4.95487134"><ele>2308</ele><speed>15.15</speed><time>2016-06-30T13:33:56Z</time><pdop>4.0</pdop><geoidheight>53.00</geoidheight><course>85.6</course><type>1</type></trkpt>
      <trkpt lat="40.65921269" lon="-4.95469768"><ele>2306</ele><speed>14.95</speed><time>2016-06-30T13:33:57Z</time><pdop>4.0</pdop><geoidheight>53.00</geoidheight><course>85.8</course><type>1</type></trkpt>
      <trkpt lat="40.65922306" lon="-4.95451618"><ele>2303</ele><speed>15.53</speed><time>2016-06-30T13:33:58Z</time><pdop>4.0</pdop><geoidheight>53.00</geoidheight><course>84.1</course><type>1</type></trkpt>
      <trkpt lat="40.65940779" lon="-4.9501443"><ele>2238</ele><speed>17.99</speed><time>2016-06-30T13:34:21Z</time><pdop>9.0</pdop><geoidheight>53.00</geoidheight><course>81.0</course><type>1</type></trkpt>
      <trkpt lat="40.65948389" lon="-4.94970584"><ele>2244</ele><speed>15.99</speed><time>2016-06-30T13:34:23Z</time><pdop>10.0</pdop><geoidheight>53.00</geoidheight><course>80.7</course><type>1</type></trkpt>
      <trkpt lat="40.65959149" lon="-4.94936507"><ele>2234</ele><speed>15.75</speed><time>2016-06-30T13:34:25Z</time><pdop>7.0</pdop><geoidheight>53.00</geoidheight><course>74.0</course><type>1</type></trkpt>
      <trkpt lat="40.65963614" lon="-4.94918701"><ele>2230</ele><speed>16.10</speed><time>2016-06-30T13:34:26Z</time><pdop>6.0</pdop><geoidheight>53.00</geoidheight><course>72.5</course><type>1</type></trkpt>
      <trkpt lat="40.65968924" lon="-4.9490095"><ele>2229</ele><speed>16.32</speed><time>2016-06-30T13:34:27Z</time><pdop>5.0</pdop><geoidheight>53.00</geoidheight><course>72.9</course><type>1</type></trkpt>
      <trkpt lat="40.6597368" lon="-4.94881718"><ele>2227</ele><speed>16.04</speed><time>2016-06-30T13:34:28Z</time><pdop>5.0</pdop><geoidheight>53.00</geoidheight><course>73.8</course><type>1</type></trkpt>
      <trkpt lat="40.65977827" lon="-4.94863045"><ele>2225</ele><speed>15.99</speed><time>2016-06-30T13:34:29Z</time><pdop>5.0</pdop><geoidheight>53.00</geoidheight><course>73.3</course><type>1</type></trkpt>
      <trkpt lat="40.6598154" lon="-4.94845227"><ele>2219</ele><speed>16.50</speed><time>2016-06-30T13:34:30Z</time><pdop>5.0</pdop><geoidheight>53.00</geoidheight><course>74.4</course><type>1</type></trkpt>
      <trkpt lat="40.65985415" lon="-4.94825412"><ele>2215</ele><speed>17.46</speed><time>2016-06-30T13:34:31Z</time><pdop>5.0</pdop><geoidheight>53.00</geoidheight><course>78.1</course><type>1</type></trkpt>
      <trkpt lat="40.65986731" lon="-4.94803753"><ele>2212</ele><speed>18.00</speed><time>2016-06-30T13:34:32Z</time><pdop>5.0</pdop><geoidheight>53.00</geoidheight><course>83.0</course><type>1</type></trkpt>
      <trkpt lat="40.65987879" lon="-4.947822"><ele>2211</ele><speed>18.49</speed><time>2016-06-30T13:34:33Z</time><pdop>5.0</pdop><geoidheight>53.00</geoidheight><course>85.5</course><type>1</type></trkpt>
      <trkpt lat="40.65989119" lon="-4.94760465"><ele>2209</ele><speed>18.22</speed><time>2016-06-30T13:34:34Z</time><pdop>5.0</pdop><geoidheight>53.00</geoidheight><course>86.2</course><type>1</type></trkpt>
      <trkpt lat="40.65989212" lon="-4.94740922"><ele>2208</ele><speed>16.75</speed><time>2016-06-30T13:34:35Z</time><pdop>5.0</pdop><geoidheight>53.00</geoidheight><course>89.1</course><type>1</type></trkpt>
      <trkpt lat="40.65988716" lon="-4.94721832"><ele>2207</ele><speed>15.95</speed><time>2016-06-30T13:34:36Z</time><pdop>4.0</pdop><geoidheight>53.00</geoidheight><course>92.7</course><type>1</type></trkpt>
      <trkpt lat="40.65987166" lon="-4.94702655"><ele>2205</ele><speed>16.08</speed><time>2016-06-30T13:34:37Z</time><pdop>4.0</pdop><geoidheight>53.00</geoidheight><course>93.9</course><type>1</type></trkpt>
      <trkpt lat="40.65985964" lon="-4.94681625"><ele>2203</ele><speed>17.44</speed><time>2016-06-30T13:34:38Z</time><pdop>4.0</pdop><geoidheight>53.00</geoidheight><course>94.1</course><type>1</type></trkpt>
      <trkpt lat="40.65984497" lon="-4.94661431"><ele>2201</ele><speed>17.80</speed><time>2016-06-30T13:34:39Z</time><pdop>4.0</pdop><geoidheight>53.00</geoidheight><course>95.5</course><type>1</type></trkpt>
      <trkpt lat="40.65981326" lon="-4.94641497"><ele>2200</ele><speed>17.25</speed><time>2016-06-30T13:34:40Z</time><pdop>4.0</pdop><geoidheight>53.00</geoidheight><course>96.2</course><type>1</type></trkpt>
      <trkpt lat="40.65980238" lon="-4.94622344"><ele>2199</ele><speed>16.30</speed><time>2016-06-30T13:34:41Z</time><pdop>4.0</pdop><geoidheight>53.00</geoidheight><course>95.5</course><type>1</type></trkpt>
      <trkpt lat="40.65980161" lon="-4.9460363"><ele>2198</ele><speed>15.95</speed><time>2016-06-30T13:34:42Z</time><pdop>4.0</pdop><geoidheight>53.00</geoidheight><course>91.5</course><type>1</type></trkpt>
      <trkpt lat="40.65981516" lon="-4.94584306"><ele>2196</ele><speed>16.52</speed><time>2016-06-30T13:34:43Z</time><pdop>4.0</pdop><geoidheight>53.00</geoidheight><course>86.9</course><type>1</type></trkpt>
      <trkpt lat="40.65983539" lon="-4.94564489"><ele>2193</ele><speed>17.22</speed><time>2016-06-30T13:34:44Z</time><pdop>4.0</pdop><geoidheight>53.00</geoidheight><course>84.6</course><type>1</type></trkpt>
      <trkpt lat="40.65984466" lon="-4.94543966"><ele>2190</ele><speed>17.66</speed><time>2016-06-30T13:34:45Z</time><pdop>4.0</pdop><geoidheight>53.00</geoidheight><course>85.1</course><type>1</type></trkpt>
      <trkpt lat="40.6598599" lon="-4.94522606"><ele>2188</ele><speed>17.51</speed><time>2016-06-30T13:34:46Z</time><pdop>4.0</pdop><geoidheight>53.00</geoidheight><course>85.2</course><type>1</type></trkpt>
      <trkpt lat="40.65987503" lon="-4.94502855"><ele>2187</ele><speed>17.01</speed><time>2016-06-30T13:34:47Z</time><pdop>4.0</pdop><geoidheight>53.00</geoidheight><course>84.5</course><type>1</type></trkpt>
      <trkpt lat="40.65988908" lon="-4.94483038"><ele>2185</ele><speed>16.63</speed><time>2016-06-30T13:34:48Z</time><pdop>4.0</pdop><geoidheight>53.00</geoidheight><course>84.3</course><type>1</type></trkpt>
      <trkpt lat="40.65990229" lon="-4.94463557"><ele>2182</ele><speed>16.56</speed><time>2016-06-30T13:34:49Z</time><pdop>4.0</pdop><geoidheight>53.00</geoidheight><course>85.0</course><type>1</type></trkpt>
      <trkpt lat="40.65991407" lon="-4.94444121"><ele>2191</ele><speed>16.64</speed><time>2016-06-30T13:34:50Z</time><pdop>4.0</pdop><geoidheight>53.00</geoidheight><course>86.0</course><type>1</type></trkpt>
      <trkpt lat="40.65992802" lon="-4.94424985"><ele>2189</ele><speed>16.23</speed><time>2016-06-30T13:34:51Z</time><pdop>5.0</pdop><geoidheight>53.00</geoidheight><course>86.4</course><type>1</type></trkpt>
      <trkpt lat="40.65993871" lon="-4.94405602"><ele>2186</ele><speed>15.91</speed><time>2016-06-30T13:34:52Z</time><pdop>5.0</pdop><geoidheight>53.00</geoidheight><course>86.9</course><type>1</type></trkpt>
      <trkpt lat="40.65994504" lon="-4.94387194"><ele>2183</ele><speed>15.83</speed><time>2016-06-30T13:34:53Z</time><pdop>4.0</pdop><geoidheight>53.00</geoidheight><course>87.3</course><type>1</type></trkpt>
      <trkpt lat="40.65995356" lon="-4.94367101"><ele>2178</ele><speed>17.01</speed><time>2016-06-30T13:34:54Z</time><pdop>4.0</pdop><geoidheight>53.00</geoidheight><course>88.6</course><type>1</type></trkpt>
      <trkpt lat="40.65995192" lon="-4.94348736"><ele>2170</ele><speed>17.82</speed><time>2016-06-30T13:34:55Z</time><pdop>4.0</pdop><geoidheight>53.00</geoidheight><course>89.8</course><type>1</type></trkpt>
      <trkpt lat="40.65996127" lon="-4.94328747"><ele>2164</ele><speed>18.11</speed><time>2016-06-30T13:34:56Z</time><pdop>4.0</pdop><geoidheight>53.00</geoidheight><course>87.1</course><type>1</type></trkpt>
      <trkpt lat="40.65998962" lon="-4.94307734"><ele>2159</ele><speed>18.61</speed><time>2016-06-30T13:34:57Z</time><pdop>4.0</pdop><geoidheight>53.00</geoidheight><course>82.9</course><type>1</type></trkpt>
      <trkpt lat="40.66001334" lon="-4.94286314"><ele>2158</ele><speed>18.06</speed><time>2016-06-30T13:34:58Z</time><pdop>4.0</pdop><geoidheight>53.00</geoidheight><course>81.4</course><type>1</type></trkpt>
      <trkpt lat="40.66003462" lon="-4.94266664"><ele>2155</ele><speed>16.77</speed><time>2016-06-30T13:34:59Z</time><pdop>4.0</pdop><geoidheight>53.00</geoidheight><course>80.8</course><type>1</type></trkpt>
      <trkpt lat="40.66005771" lon="-4.94247758"><ele>2153</ele><speed>16.33</speed><time>2016-06-30T13:35:00Z</time><pdop>4.0</pdop><geoidheight>53.00</geoidheight><course>80.7</course><type>1</type></trkpt>
      <trkpt lat="40.6600783" lon="-4.9422875"><ele>2148</ele><speed>16.31</speed><time>2016-06-30T13:35:01Z</time><pdop>4.0</pdop><geoidheight>53.00</geoidheight><course>79.9</course><type>1</type></trkpt>
      <trkpt lat="40.66010789" lon="-4.94209091"><ele>2144</ele><speed>16.56</speed><time>2016-06-30T13:35:02Z</time><pdop>4.0</pdop><geoidheight>53.00</geoidheight><course>79.3</course><type>1</type></trkpt>
      <trkpt lat="40.66014039" lon="-4.94189724"><ele>2141</ele><speed>17.02</speed><time>2016-06-30T13:35:03Z</time><pdop>4.0</pdop><geoidheight>53.00</geoidheight><course>77.9</course><type>1</type></trkpt>
      <trkpt lat="40.66017698" lon="-4.94171167"><ele>2137</ele><speed>17.25</speed><time>2016-06-30T13:35:04Z</time><pdop>4.0</pdop><geoidheight>53.00</geoidheight><course>75.6</course><type>1</type></trkpt>
      <trkpt lat="40.66021817" lon="-4.94152548"><ele>2134</ele><speed>16.87</speed><time>2016-06-30T13:35:05Z</time><pdop>4.0</pdop><geoidheight>53.00</geoidheight><course>72.8</course><type>1</type></trkpt>
      <trkpt lat="40.66026586" lon="-4.94136524"><ele>2130</ele><speed>15.60</speed><time>2016-06-30T13:35:06Z</time><pdop>3.0</pdop><geoidheight>53.00</geoidheight><course>69.8</course><type>1</type></trkpt>
      <trkpt lat="40.66032367" lon="-4.94120656"><ele>2127</ele><speed>15.14</speed><time>2016-06-30T13:35:07Z</time><pdop>4.0</pdop><geoidheight>53.00</geoidheight><course>68.7</course><type>1</type></trkpt>
      <trkpt lat="40.66037122" lon="-4.94104768"><ele>2126</ele><speed>14.95</speed><time>2016-06-30T13:35:08Z</time><pdop>4.0</pdop><geoidheight>53.00</geoidheight><course>69.5</course><type>1</type></trkpt>
      <trkpt lat="40.6604162" lon="-4.94088065"><ele>2124</ele><speed>15.32</speed><time>2016-06-30T13:35:09Z</time><pdop>5.0</pdop><geoidheight>53.00</geoidheight><course>69.6</course><type>1</type></trkpt>
      <trkpt lat="40.66048192" lon="-4.94072487"><ele>2123</ele><speed>15.34</speed><time>2016-06-30T13:35:10Z</time><pdop>7.0</pdop><geoidheight>53.00</geoidheight><course>66.0</course><type>1</type></trkpt>
      <trkpt lat="40.66062178" lon="-4.94043006"><ele>2121</ele><speed>16.06</speed><time>2016-06-30T13:35:12Z</time><pdop>8.0</pdop><geoidheight>53.00</geoidheight><course>60.1</course><type>1</type></trkpt>
      <trkpt lat="40.66074713" lon="-4.94015604"><ele>2117</ele><speed>13.79</speed><time>2016-06-30T13:35:14Z</time><pdop>8.0</pdop><geoidheight>53.00</geoidheight><course>55.4</course><type>1</type></trkpt>
      <trkpt lat="40.66085677" lon="-4.93992245"><ele>2121</ele><speed>11.60</speed><time>2016-06-30T13:35:16Z</time><pdop>10.0</pdop><geoidheight>53.00</geoidheight><course>57.2</course><type>1</type></trkpt>
      <trkpt lat="40.6609816" lon="-4.93972358"><ele>2119</ele><speed>11.50</speed><time>2016-06-30T13:35:18Z</time><pdop>9.0</pdop><geoidheight>53.00</geoidheight><course>54.2</course><type>1</type></trkpt>
      <trkpt lat="40.66117713" lon="-4.93954123"><ele>2116</ele><speed>12.74</speed><time>2016-06-30T13:35:20Z</time><pdop>12.0</pdop><geoidheight>53.00</geoidheight><course>45.6</course><type>1</type></trkpt>
      <trkpt lat="40.66139448" lon="-4.93931662"><ele>2112</ele><speed>15.33</speed><time>2016-06-30T13:35:22Z</time><pdop>11.0</pdop><geoidheight>53.00</geoidheight><course>43.8</course><type>1</type></trkpt>
      <trkpt lat="40.66157116" lon="-4.93910418"><ele>2110</ele><speed>13.99</speed><time>2016-06-30T13:35:24Z</time><pdop>14.0</pdop><geoidheight>53.00</geoidheight><course>45.9</course><type>1</type></trkpt>
      <trkpt lat="40.66176902" lon="-4.93880949"><ele>2115</ele><speed>12.95</speed><time>2016-06-30T13:35:27Z</time><pdop>19.0</pdop><geoidheight>53.00</geoidheight><course>43.4</course><type>1</type></trkpt>
      <trkpt lat="40.66211502" lon="-4.93847742"><ele>2111</ele><speed>17.54</speed><time>2016-06-30T13:35:29Z</time><pdop>16.0</pdop><geoidheight>53.00</geoidheight><course>41.9</course><type>1</type></trkpt>
      <trkpt lat="40.6624394" lon="-4.93810593"><ele>2116</ele><speed>20.00</speed><time>2016-06-30T13:35:31Z</time><pdop>19.0</pdop><geoidheight>53.00</geoidheight><course>44.2</course><type>1</type></trkpt>
      <trkpt lat="40.66271863" lon="-4.93769148"><ele>2107</ele><speed>15.27</speed><time>2016-06-30T13:35:35Z</time><pdop>16.0</pdop><geoidheight>53.00</geoidheight><course>46.5</course><type>1</type></trkpt>
      <trkpt lat="40.66306569" lon="-4.93727778"><ele>2099</ele><speed>16.10</speed><time>2016-06-30T13:35:38Z</time><pdop>20.0</pdop><geoidheight>53.00</geoidheight><course>43.3</course><type>1</type></trkpt>
      <trkpt lat="40.66334919" lon="-4.93690734"><ele>2086</ele><speed>12.36</speed><time>2016-06-30T13:35:42Z</time><pdop>13.0</pdop><geoidheight>53.00</geoidheight><course>46.4</course><type>1</type></trkpt>
      <trkpt lat="40.66356339" lon="-4.93661363"><ele>2079</ele><speed>12.28</speed><time>2016-06-30T13:35:45Z</time><pdop>11.0</pdop><geoidheight>53.00</geoidheight><course>49.8</course><type>1</type></trkpt>
      <trkpt lat="40.66369456" lon="-4.93637922"><ele>2073</ele><speed>12.09</speed><time>2016-06-30T13:35:47Z</time><pdop>12.0</pdop><geoidheight>53.00</geoidheight><course>57.4</course><type>1</type></trkpt>
      <trkpt lat="40.66376251" lon="-4.93609335"><ele>2069</ele><speed>12.19</speed><time>2016-06-30T13:35:49Z</time><pdop>13.0</pdop><geoidheight>53.00</geoidheight><course>72.0</course><type>1</type></trkpt>
      <trkpt lat="40.6638168" lon="-4.93579443"><ele>2067</ele><speed>13.51</speed><time>2016-06-30T13:35:51Z</time><pdop>11.0</pdop><geoidheight>53.00</geoidheight><course>81.4</course><type>1</type></trkpt>
      <trkpt lat="40.66382625" lon="-4.93545931"><ele>2068</ele><speed>13.96</speed><time>2016-06-30T13:35:53Z</time><pdop>7.0</pdop><geoidheight>53.00</geoidheight><course>93.0</course><type>1</type></trkpt>
      <trkpt lat="40.66381486" lon="-4.93529269"><ele>2070</ele><speed>13.90</speed><time>2016-06-30T13:35:54Z</time><pdop>7.0</pdop><geoidheight>53.00</geoidheight><course>95.4</course><type>1</type></trkpt>
      <trkpt lat="40.66381696" lon="-4.93513329"><ele>2072</ele><speed>13.51</speed><time>2016-06-30T13:35:55Z</time><pdop>6.0</pdop><geoidheight>53.00</geoidheight><course>91.6</course><type>1</type></trkpt>
      <trkpt lat="40.66385065" lon="-4.93497071"><ele>2075</ele><speed>13.51</speed><time>2016-06-30T13:35:56Z</time><pdop>5.0</pdop><geoidheight>53.00</geoidheight><course>81.7</course><type>1</type></trkpt>
      <trkpt lat="40.66386688" lon="-4.93483367"><ele>2075</ele><speed>12.73</speed><time>2016-06-30T13:35:57Z</time><pdop>5.0</pdop><geoidheight>53.00</geoidheight><course>73.0</course><type>1</type></trkpt>
      <trkpt lat="40.66390216" lon="-4.93470684"><ele>2077</ele><speed>11.72</speed><time>2016-06-30T13:35:58Z</time><pdop>6.0</pdop><geoidheight>53.00</geoidheight><course>71.1</course><type>1</type></trkpt>
      <trkpt lat="40.664145" lon="-4.93460018"><ele>2076</ele><speed>9.21</speed><time>2016-06-30T13:36:01Z</time><pdop>12.0</pdop><geoidheight>53.00</geoidheight><course>19.1</course><type>1</type></trkpt>
      <trkpt lat="40.66426341" lon="-4.93488337"><ele>2074</ele><speed>6.29</speed><time>2016-06-30T13:36:04Z</time><pdop>12.0</pdop><geoidheight>53.00</geoidheight><course>324.8</course><type>1</type></trkpt>
      <trkpt lat="40.66397495" lon="-4.93505763"><ele>2074</ele><speed>6.85</speed><time>2016-06-30T13:36:07Z</time><pdop>17.0</pdop><geoidheight>53.00</geoidheight><course>200.1</course><type>1</type></trkpt>
      <trkpt lat="40.66363603" lon="-4.93506961"><ele>2075</ele><speed>11.90</speed><time>2016-06-30T13:36:09Z</time><pdop>14.0</pdop><geoidheight>53.00</geoidheight><course>182.4</course><type>1</type></trkpt>
      <trkpt lat="40.66334584" lon="-4.93464958"><ele>2083</ele><speed>16.99</speed><time>2016-06-30T13:36:11Z</time><pdop>9.0</pdop><geoidheight>53.00</geoidheight><course>135.5</course><type>1</type></trkpt>
      <trkpt lat="40.66323751" lon="-4.93445293"><ele>2085</ele><speed>16.56</speed><time>2016-06-30T13:36:12Z</time><pdop>8.0</pdop><geoidheight>53.00</geoidheight><course>126.2</course><type>1</type></trkpt>
      <trkpt lat="40.6631587" lon="-4.93427178"><ele>2085</ele><speed>16.47</speed><time>2016-06-30T13:36:13Z</time><pdop>8.0</pdop><geoidheight>53.00</geoidheight><course>114.0</course><type>1</type></trkpt>
      <trkpt lat="40.66310838" lon="-4.93406135"><ele>2085</ele><speed>17.32</speed><time>2016-06-30T13:36:14Z</time><pdop>7.0</pdop><geoidheight>53.00</geoidheight><course>104.5</course><type>1</type></trkpt>
      <trkpt lat="40.66308434" lon="-4.9338582"><ele>2087</ele><speed>16.74</speed><time>2016-06-30T13:36:15Z</time><pdop>6.0</pdop><geoidheight>53.00</geoidheight><course>96.3</course><type>1</type></trkpt>
      <trkpt lat="40.66309634" lon="-4.93367713"><ele>2089</ele><speed>15.13</speed><time>2016-06-30T13:36:16Z</time><pdop>6.0</pdop><geoidheight>53.00</geoidheight><course>86.2</course><type>1</type></trkpt>
      <trkpt lat="40.66310598" lon="-4.93349485"><ele>2091</ele><speed>14.47</speed><time>2016-06-30T13:36:17Z</time><pdop>6.0</pdop><geoidheight>53.00</geoidheight><course>85.7</course><type>1</type></trkpt>
      <trkpt lat="40.66309809" lon="-4.93321979"><ele>2094</ele><speed>11.06</speed><time>2016-06-30T13:36:19Z</time><pdop>9.0</pdop><geoidheight>53.00</geoidheight><course>91.6</course><type>1</type></trkpt>
      <trkpt lat="40.66327111" lon="-4.93318398"><ele>2097</ele><speed>7.15</speed><time>2016-06-30T13:36:21Z</time><pdop>8.0</pdop><geoidheight>53.00</geoidheight><course>45.8</course><type>1</type></trkpt>
      <trkpt lat="40.66340682" lon="-4.9333719"><ele>2101</ele><speed>5.38</speed><time>2016-06-30T13:36:24Z</time><pdop>9.0</pdop><geoidheight>53.00</geoidheight><course>308.1</course><type>1</type></trkpt>
      <trkpt lat="40.6634065" lon="-4.93364738"><ele>2105</ele><speed>8.31</speed><time>2016-06-30T13:36:26Z</time><pdop>8.0</pdop><geoidheight>53.00</geoidheight><course>268.5</course><type>1</type></trkpt>
      <trkpt lat="40.66321496" lon="-4.93377388"><ele>2109</ele><speed>9.12</speed><time>2016-06-30T13:36:28Z</time><pdop>7.0</pdop><geoidheight>53.00</geoidheight><course>210.0</course><type>1</type></trkpt>
      <trkpt lat="40.66300847" lon="-4.93366524"><ele>2113</ele><speed>14.18</speed><time>2016-06-30T13:36:29Z</time><pdop>7.0</pdop><geoidheight>53.00</geoidheight><course>162.8</course><type>1</type></trkpt>
      <trkpt lat="40.66286819" lon="-4.93356694"><ele>2115</ele><speed>15.54</speed><time>2016-06-30T13:36:30Z</time><pdop>5.0</pdop><geoidheight>53.00</geoidheight><course>151.3</course><type>1</type></trkpt>
      <trkpt lat="40.66274496" lon="-4.93345191"><ele>2118</ele><speed>16.36</speed><time>2016-06-30T13:36:31Z</time><pdop>5.0</pdop><geoidheight>53.00</geoidheight><course>142.7</course><type>1</type></trkpt>
      <trkpt lat="40.66262712" lon="-4.93333151"><ele>2119</ele><speed>16.41</speed><time>2016-06-30T13:36:32Z</time><pdop>6.0</pdop><geoidheight>53.00</geoidheight><course>139.6</course><type>1</type></trkpt>
      <trkpt lat="40.66254018" lon="-4.93317654"><ele>2120</ele><speed>15.64</speed><time>2016-06-30T13:36:33Z</time><pdop>6.0</pdop><geoidheight>53.00</geoidheight><course>130.2</course><type>1</type></trkpt>
      <trkpt lat="40.66244652" lon="-4.93303125"><ele>2122</ele><speed>15.38</speed><time>2016-06-30T13:36:34Z</time><pdop>7.0</pdop><geoidheight>53.00</geoidheight><course>127.2</course><type>1</type></trkpt>
      <trkpt lat="40.66237635" lon="-4.93287895"><ele>2123</ele><speed>14.82</speed><time>2016-06-30T13:36:35Z</time><pdop>7.0</pdop><geoidheight>53.00</geoidheight><course>121.1</course><type>1</type></trkpt>
      <trkpt lat="40.66233081" lon="-4.93267707"><ele>2125</ele><speed>15.68</speed><time>2016-06-30T13:36:36Z</time><pdop>7.0</pdop><geoidheight>53.00</geoidheight><course>111.3</course><type>1</type></trkpt>
      <trkpt lat="40.66229113" lon="-4.93249424"><ele>2127</ele><speed>15.36</speed><time>2016-06-30T13:36:37Z</time><pdop>6.0</pdop><geoidheight>53.00</geoidheight><course>103.8</course><type>1</type></trkpt>
      <trkpt lat="40.66227747" lon="-4.93231892"><ele>2130</ele><speed>14.81</speed><time>2016-06-30T13:36:38Z</time><pdop>6.0</pdop><geoidheight>53.00</geoidheight><course>96.3</course><type>1</type></trkpt>
      <trkpt lat="40.66227627" lon="-4.93215105"><ele>2132</ele><speed>14.12</speed><time>2016-06-30T13:36:39Z</time><pdop>6.0</pdop><geoidheight>53.00</geoidheight><course>91.0</course><type>1</type></trkpt>
      <trkpt lat="40.66227273" lon="-4.93198914"><ele>2134</ele><speed>13.29</speed><time>2016-06-30T13:36:40Z</time><pdop>5.0</pdop><geoidheight>53.00</geoidheight><course>91.1</course><type>1</type></trkpt>
      <trkpt lat="40.66227408" lon="-4.9318252"><ele>2136</ele><speed>12.58</speed><time>2016-06-30T13:36:41Z</time><pdop>5.0</pdop><geoidheight>53.00</geoidheight><course>89.3</course><type>1</type></trkpt>
      <trkpt lat="40.66228899" lon="-4.93168269"><ele>2137</ele><speed>12.09</speed><time>2016-06-30T13:36:42Z</time><pdop>5.0</pdop><geoidheight>53.00</geoidheight><course>84.9</course><type>1</type></trkpt>
      <trkpt lat="40.6623252" lon="-4.93155342"><ele>2138</ele><speed>11.68</speed><time>2016-06-30T13:36:43Z</time><pdop>5.0</pdop><geoidheight>53.00</geoidheight><course>76.1</course><type>1</type></trkpt>
      <trkpt lat="40.66235324" lon="-4.93141842"><ele>2140</ele><speed>11.23</speed><time>2016-06-30T13:36:44Z</time><pdop>6.0</pdop><geoidheight>53.00</geoidheight><course>75.4</course><type>1</type></trkpt>
      <trkpt lat="40.66246362" lon="-4.93127645"><ele>2139</ele><speed>8.96</speed><time>2016-06-30T13:36:46Z</time><pdop>7.0</pdop><geoidheight>53.00</geoidheight><course>48.7</course><type>1</type></trkpt>
      <trkpt lat="40.66262537" lon="-4.93133268"><ele>2139</ele><speed>6.31</speed><time>2016-06-30T13:36:48Z</time><pdop>5.0</pdop><geoidheight>53.00</geoidheight><course>354.3</course><type>1</type></trkpt>
      <trkpt lat="40.66271448" lon="-4.93150221"><ele>2142</ele><speed>5.97</speed><time>2016-06-30T13:36:51Z</time><pdop>7.0</pdop><geoidheight>53.00</geoidheight><course>297.8</course><type>1</type></trkpt>
      <trkpt lat="40.66256892" lon="-4.93166952"><ele>2145</ele><speed>6.15</speed><time>2016-06-30T13:36:53Z</time><pdop>9.0</pdop><geoidheight>53.00</geoidheight><course>230.8</course><type>1</type></trkpt>
      <trkpt lat="40.66229301" lon="-4.93167694"><ele>2147</ele><speed>9.38</speed><time>2016-06-30T13:36:55Z</time><pdop>8.0</pdop><geoidheight>53.00</geoidheight><course>188.3</course><type>1</type></trkpt>
      <trkpt lat="40.66209858" lon="-4.93168092"><ele>2153</ele><speed>8.82</speed><time>2016-06-30T13:36:57Z</time><pdop>6.0</pdop><geoidheight>53.00</geoidheight><course>189.6</course><type>1</type></trkpt>
      <trkpt lat="40.66194348" lon="-4.93177141"><ele>2157</ele><speed>8.30</speed><time>2016-06-30T13:36:59Z</time><pdop>6.0</pdop><geoidheight>53.00</geoidheight><course>215.4</course><type>1</type></trkpt>
      <trkpt lat="40.66193562" lon="-4.93195044"><ele>2158</ele><speed>5.04</speed><time>2016-06-30T13:37:02Z</time><pdop>6.0</pdop><geoidheight>53.00</geoidheight><course>270.4</course><type>1</type></trkpt>
      <trkpt lat="40.66203854" lon="-4.93172772"><ele>2158</ele><speed>5.34</speed><time>2016-06-30T13:37:05Z</time><pdop>10.0</pdop><geoidheight>53.00</geoidheight><course>58.1</course><type>1</type></trkpt>
      <trkpt lat="40.6620755" lon="-4.93135442"><ele>2160</ele><speed>11.65</speed><time>2016-06-30T13:37:07Z</time><pdop>10.0</pdop><geoidheight>53.00</geoidheight><course>79.3</course><type>1</type></trkpt>
      <trkpt lat="40.66207903" lon="-4.93100936"><ele>2164</ele><speed>13.16</speed><time>2016-06-30T13:37:09Z</time><pdop>6.0</pdop><geoidheight>53.00</geoidheight><course>96.9</course><type>1</type></trkpt>
      <trkpt lat="40.66206094" lon="-4.9308403"><ele>2168</ele><speed>13.57</speed><time>2016-06-30T13:37:10Z</time><pdop>6.0</pdop><geoidheight>53.00</geoidheight><course>107.1</course><type>1</type></trkpt>
      <trkpt lat="40.66204833" lon="-4.93066853"><ele>2169</ele><speed>13.74</speed><time>2016-06-30T13:37:11Z</time><pdop>7.0</pdop><geoidheight>53.00</geoidheight><course>107.9</course><type>1</type></trkpt>
      <trkpt lat="40.66194958" lon="-4.9304092"><ele>2172</ele><speed>12.26</speed><time>2016-06-30T13:37:13Z</time><pdop>8.0</pdop><geoidheight>53.00</geoidheight><course>118.3</course><type>1</type></trkpt>
      <trkpt lat="40.66181282" lon="-4.93029584"><ele>2174</ele><speed>8.70</speed><time>2016-06-30T13:37:15Z</time><pdop>8.0</pdop><geoidheight>53.00</geoidheight><course>140.0</course><type>1</type></trkpt>
      <trkpt lat="40.66157007" lon="-4.93031939"><ele>2178</ele><speed>10.35</speed><time>2016-06-30T13:37:17Z</time><pdop>8.0</pdop><geoidheight>53.00</geoidheight><course>175.4</course><type>1</type></trkpt>
      <trkpt lat="40.66136321" lon="-4.93037366"><ele>2183</ele><speed>9.92</speed><time>2016-06-30T13:37:19Z</time><pdop>6.0</pdop><geoidheight>53.00</geoidheight><course>190.1</course><type>1</type></trkpt>
      <trkpt lat="40.6613165" lon="-4.93052775"><ele>2187</ele><speed>2.95</speed><time>2016-06-30T13:37:23Z</time><pdop>8.0</pdop><geoidheight>53.00</geoidheight><course>278.8</course><type>1</type></trkpt>
      <trkpt lat="40.66152853" lon="-4.93040485"><ele>2191</ele><speed>7.86</speed><time>2016-06-30T13:37:26Z</time><pdop>8.0</pdop><geoidheight>53.00</geoidheight><course>36.3</course><type>1</type></trkpt>
      <trkpt lat="40.66152791" lon="-4.93008089"><ele>2193</ele><speed>10.99</speed><time>2016-06-30T13:37:28Z</time><pdop>6.0</pdop><geoidheight>53.00</geoidheight><course>94.6</course><type>1</type></trkpt>
      <trkpt lat="40.66150723" lon="-4.92987013"><ele>2199</ele><speed>14.23</speed><time>2016-06-30T13:37:29Z</time><pdop>5.0</pdop><geoidheight>53.00</geoidheight><course>104.0</course><type>1</type></trkpt>
      <trkpt lat="40.66146782" lon="-4.92971457"><ele>2200</ele><speed>15.19</speed><time>2016-06-30T13:37:30Z</time><pdop>5.0</pdop><geoidheight>53.00</geoidheight><course>113.0</course><type>1</type></trkpt>
      <trkpt lat="40.6613927" lon="-4.92955358"><ele>2201</ele><speed>15.49</speed><time>2016-06-30T13:37:31Z</time><pdop>5.0</pdop><geoidheight>53.00</geoidheight><course>123.9</course><type>1</type></trkpt>
      <trkpt lat="40.66129423" lon="-4.92942535"><ele>2203</ele><speed>15.96</speed><time>2016-06-30T13:37:32Z</time><pdop>5.0</pdop><geoidheight>53.00</geoidheight><course>134.9</course><type>1</type></trkpt>
      <trkpt lat="40.66118606" lon="-4.92929976"><ele>2205</ele><speed>15.72</speed><time>2016-06-30T13:37:33Z</time><pdop>5.0</pdop><geoidheight>53.00</geoidheight><course>139.6</course><type>1</type></trkpt>
      <trkpt lat="40.66108009" lon="-4.92922679"><ele>2208</ele><speed>13.71</speed><time>2016-06-30T13:37:34Z</time><pdop>5.0</pdop><geoidheight>53.00</geoidheight><course>149.2</course><type>1</type></trkpt>
      <trkpt lat="40.66099746" lon="-4.92918131"><ele>2210</ele><speed>11.67</speed><time>2016-06-30T13:37:35Z</time><pdop>4.0</pdop><geoidheight>53.00</geoidheight><course>161.6</course><type>1</type></trkpt>
      <trkpt lat="40.66090273" lon="-4.92915954"><ele>2211</ele><speed>10.93</speed><time>2016-06-30T13:37:36Z</time><pdop>4.0</pdop><geoidheight>53.00</geoidheight><course>170.7</course><type>1</type></trkpt>
      <trkpt lat="40.66081911" lon="-4.92918577"><ele>2213</ele><speed>10.02</speed><time>2016-06-30T13:37:37Z</time><pdop>5.0</pdop><geoidheight>53.00</geoidheight><course>188.0</course><type>1</type></trkpt>
      <trkpt lat="40.66076255" lon="-4.92929413"><ele>2215</ele><speed>5.79</speed><time>2016-06-30T13:37:39Z</time><pdop>4.0</pdop><geoidheight>53.00</geoidheight><course>241.0</course><type>1</type></trkpt>
      <trkpt lat="40.66077256" lon="-4.92942198"><ele>2219</ele><speed>5.20</speed><time>2016-06-30T13:37:41Z</time><pdop>4.0</pdop><geoidheight>53.00</geoidheight><course>278.5</course><type>1</type></trkpt>
      <trkpt lat="40.66088704" lon="-4.92930989"><ele>2221</ele><speed>6.32</speed><time>2016-06-30T13:37:45Z</time><pdop>9.0</pdop><geoidheight>53.00</geoidheight><course>52.6</course><type>1</type></trkpt>
      <trkpt lat="40.66101944" lon="-4.92902565"><ele>2227</ele><speed>13.42</speed><time>2016-06-30T13:37:47Z</time><pdop>6.0</pdop><geoidheight>53.00</geoidheight><course>69.9</course><type>1</type></trkpt>
      <trkpt lat="40.66103843" lon="-4.92887292"><ele>2229</ele><speed>13.68</speed><time>2016-06-30T13:37:48Z</time><pdop>5.0</pdop><geoidheight>53.00</geoidheight><course>82.5</course><type>1</type></trkpt>
      <trkpt lat="40.66104388" lon="-4.92869044"><ele>2231</ele><speed>14.45</speed><time>2016-06-30T13:37:49Z</time><pdop>4.0</pdop><geoidheight>53.00</geoidheight><course>94.2</course><type>1</type></trkpt>
      <trkpt lat="40.66102713" lon="-4.92851462"><ele>2234</ele><speed>15.22</speed><time>2016-06-30T13:37:50Z</time><pdop>4.0</pdop><geoidheight>53.00</geoidheight><course>104.4</course><type>1</type></trkpt>
      <trkpt lat="40.66097455" lon="-4.92835305"><ele>2235</ele><speed>14.80</speed><time>2016-06-30T13:37:51Z</time><pdop>4.0</pdop><geoidheight>53.00</geoidheight><course>115.7</course><type>1</type></trkpt>
      <trkpt lat="40.66089177" lon="-4.92821929"><ele>2237</ele><speed>14.35</speed><time>2016-06-30T13:37:52Z</time><pdop>4.0</pdop><geoidheight>53.00</geoidheight><course>131.3</course><type>1</type></trkpt>
      <trkpt lat="40.66078642" lon="-4.92812856"><ele>2236</ele><speed>14.12</speed><time>2016-06-30T13:37:53Z</time><pdop>4.0</pdop><geoidheight>53.00</geoidheight><course>146.5</course><type>1</type></trkpt>
      <trkpt lat="40.66067815" lon="-4.9280577"><ele>2237</ele><speed>13.67</speed><time>2016-06-30T13:37:54Z</time><pdop>4.0</pdop><geoidheight>53.00</geoidheight><course>154.8</course><type>1</type></trkpt>
      <trkpt lat="40.66058908" lon="-4.92807614"><ele>2237</ele><speed>11.05</speed><time>2016-06-30T13:37:55Z</time><pdop>3.0</pdop><geoidheight>53.00</geoidheight><course>177.8</course><type>1</type></trkpt>
      <trkpt lat="40.66049899" lon="-4.92809339"><ele>2236</ele><speed>10.50</speed><time>2016-06-30T13:37:56Z</time><pdop>4.0</pdop><geoidheight>53.00</geoidheight><course>184.4</course><type>1</type></trkpt>
      <trkpt lat="40.66041706" lon="-4.92811183"><ele>2234</ele><speed>9.88</speed><time>2016-06-30T13:37:57Z</time><pdop>5.0</pdop><geoidheight>53.00</geoidheight><course>185.1</course><type>1</type></trkpt>
      <trkpt lat="40.66048616" lon="-4.92838356"><ele>2235</ele><speed>7.42</speed><time>2016-06-30T13:38:00Z</time><pdop>5.0</pdop><geoidheight>53.00</geoidheight><course>291.9</course><type>1</type></trkpt>
      <trkpt lat="40.6605926" lon="-4.92851271"><ele>2240</ele><speed>6.79</speed><time>2016-06-30T13:38:02Z</time><pdop>5.0</pdop><geoidheight>53.00</geoidheight><course>320.1</course><type>1</type></trkpt>
      <trkpt lat="40.66067769" lon="-4.9285816"><ele>2242</ele><speed>5.35</speed><time>2016-06-30T13:38:04Z</time><pdop>5.0</pdop><geoidheight>53.00</geoidheight><course>321.2</course><type>1</type></trkpt>
      <trkpt lat="40.66078828" lon="-4.9286198"><ele>2243</ele><speed>4.61</speed><time>2016-06-30T13:38:07Z</time><pdop>7.0</pdop><geoidheight>53.00</geoidheight><course>347.8</course><type>1</type></trkpt>
      <trkpt lat="40.66099916" lon="-4.92852088"><ele>2243</ele><speed>7.95</speed><time>2016-06-30T13:38:10Z</time><pdop>12.0</pdop><geoidheight>53.00</geoidheight><course>23.4</course><type>1</type></trkpt>
      <trkpt lat="40.66100337" lon="-4.92815675"><ele>2243</ele><speed>10.61</speed><time>2016-06-30T13:38:12Z</time><pdop>9.0</pdop><geoidheight>53.00</geoidheight><course>79.8</course><type>1</type></trkpt>
      <trkpt lat="40.66092219" lon="-4.92794888"><ele>2246</ele><speed>14.19</speed><time>2016-06-30T13:38:13Z</time><pdop>8.0</pdop><geoidheight>53.00</geoidheight><course>109.3</course><type>1</type></trkpt>
      <trkpt lat="40.660871" lon="-4.92777408"><ele>2250</ele><speed>14.05</speed><time>2016-06-30T13:38:14Z</time><pdop>7.0</pdop><geoidheight>53.00</geoidheight><course>114.3</course><type>1</type></trkpt>
      <trkpt lat="40.66081491" lon="-4.92762842"><ele>2252</ele><speed>13.28</speed><time>2016-06-30T13:38:15Z</time><pdop>6.0</pdop><geoidheight>53.00</geoidheight><course>118.8</course><type>1</type></trkpt>
      <trkpt lat="40.66072183" lon="-4.92740409"><ele>2249</ele><speed>12.31</speed><time>2016-06-30T13:38:17Z</time><pdop>7.0</pdop><geoidheight>53.00</geoidheight><course>120.4</course><type>1</type></trkpt>
      <trkpt lat="40.66056356" lon="-4.92739061"><ele>2250</ele><speed>12.73</speed><time>2016-06-30T13:38:18Z</time><pdop>6.0</pdop><geoidheight>53.00</geoidheight><course>155.9</course><type>1</type></trkpt>
      <trkpt lat="40.66045186" lon="-4.9273779"><ele>2252</ele><speed>12.50</speed><time>2016-06-30T13:38:19Z</time><pdop>5.0</pdop><geoidheight>53.00</geoidheight><course>172.6</course><type>1</type></trkpt>
      <trkpt lat="40.6603586" lon="-4.92737497"><ele>2254</ele><speed>11.31</speed><time>2016-06-30T13:38:20Z</time><pdop>4.0</pdop><geoidheight>53.00</geoidheight><course>187.3</course><type>1</type></trkpt>
      <trkpt lat="40.66028814" lon="-4.92743073"><ele>2256</ele><speed>9.40</speed><time>2016-06-30T13:38:21Z</time><pdop>4.0</pdop><geoidheight>53.00</geoidheight><course>207.8</course><type>1</type></trkpt>
      <trkpt lat="40.66021226" lon="-4.92749051"><ele>2256</ele><speed>9.62</speed><time>2016-06-30T13:38:22Z</time><pdop>4.0</pdop><geoidheight>53.00</geoidheight><course>211.9</course><type>1</type></trkpt>
      <trkpt lat="40.66021507" lon="-4.92763177"><ele>2256</ele><speed>4.54</speed><time>2016-06-30T13:38:25Z</time><pdop>7.0</pdop><geoidheight>53.00</geoidheight><course>262.6</course><type>1</type></trkpt>
      <trkpt lat="40.66039091" lon="-4.92737083"><ele>2259</ele><speed>11.71</speed><time>2016-06-30T13:38:27Z</time><pdop>5.0</pdop><geoidheight>53.00</geoidheight><course>58.4</course><type>1</type></trkpt>
      <trkpt lat="40.66043452" lon="-4.92722962"><ele>2260</ele><speed>13.17</speed><time>2016-06-30T13:38:28Z</time><pdop>5.0</pdop><geoidheight>53.00</geoidheight><course>77.9</course><type>1</type></trkpt>
      <trkpt lat="40.66045256" lon="-4.92706071"><ele>2261</ele><speed>14.22</speed><time>2016-06-30T13:38:29Z</time><pdop>4.0</pdop><geoidheight>53.00</geoidheight><course>91.7</course><type>1</type></trkpt>
      <trkpt lat="40.66041187" lon="-4.92688043"><ele>2262</ele><speed>15.06</speed><time>2016-06-30T13:38:30Z</time><pdop>4.0</pdop><geoidheight>53.00</geoidheight><course>105.9</course><type>1</type></trkpt>
      <trkpt lat="40.6603457" lon="-4.92672967"><ele>2263</ele><speed>15.48</speed><time>2016-06-30T13:38:31Z</time><pdop>4.0</pdop><geoidheight>53.00</geoidheight><course>118.4</course><type>1</type></trkpt>
      <trkpt lat="40.66025926" lon="-4.92659412"><ele>2264</ele><speed>15.20</speed><time>2016-06-30T13:38:32Z</time><pdop>4.0</pdop><geoidheight>53.00</geoidheight><course>130.9</course><type>1</type></trkpt>
      <trkpt lat="40.66018815" lon="-4.92646995"><ele>2265</ele><speed>14.23</speed><time>2016-06-30T13:38:33Z</time><pdop>4.0</pdop><geoidheight>53.00</geoidheight><course>131.6</course><type>1</type></trkpt>
      <trkpt lat="40.66010419" lon="-4.92639109"><ele>2266</ele><speed>12.43</speed><time>2016-06-30T13:38:34Z</time><pdop>5.0</pdop><geoidheight>53.00</geoidheight><course>138.6</course><type>1</type></trkpt>
      <trkpt lat="40.65993319" lon="-4.92644232"><ele>2265</ele><speed>9.39</speed><time>2016-06-30T13:38:36Z</time><pdop>7.0</pdop><geoidheight>53.00</geoidheight><course>172.1</course><type>1</type></trkpt>
      <trkpt lat="40.65986483" lon="-4.92658352"><ele>2264</ele><speed>9.61</speed><time>2016-06-30T13:38:37Z</time><pdop>4.0</pdop><geoidheight>53.00</geoidheight><course>218.1</course><type>1</type></trkpt>
      <trkpt lat="40.65983684" lon="-4.92675133"><ele>2266</ele><speed>7.55</speed><time>2016-06-30T13:38:39Z</time><pdop>4.0</pdop><geoidheight>53.00</geoidheight><course>267.1</course><type>1</type></trkpt>
      <trkpt lat="40.65984814" lon="-4.92691749"><ele>2265</ele><speed>7.20</speed><time>2016-06-30T13:38:41Z</time><pdop>5.0</pdop><geoidheight>53.00</geoidheight><course>278.5</course><type>1</type></trkpt>
      <trkpt lat="40.66001144" lon="-4.92684828"><ele>2266</ele><speed>4.89</speed><time>2016-06-30T13:38:44Z</time><pdop>11.0</pdop><geoidheight>53.00</geoidheight><course>16.8</course><type>1</type></trkpt>
      <trkpt lat="40.66017622" lon="-4.92656455"><ele>2266</ele><speed>9.67</speed><time>2016-06-30T13:38:46Z</time><pdop>9.0</pdop><geoidheight>53.00</geoidheight><course>52.4</course><type>1</type></trkpt>
      <trkpt lat="40.66021905" lon="-4.9263148"><ele>2269</ele><speed>11.82</speed><time>2016-06-30T13:38:48Z</time><pdop>5.0</pdop><geoidheight>53.00</geoidheight><course>81.6</course><type>1</type></trkpt>
      <trkpt lat="40.6602261" lon="-4.92616771"><ele>2268</ele><speed>13.52</speed><time>2016-06-30T13:38:49Z</time><pdop>4.0</pdop><geoidheight>53.00</geoidheight><course>93.8</course><type>1</type></trkpt>
      <trkpt lat="40.66018247" lon="-4.92600241"><ele>2270</ele><speed>14.55</speed><time>2016-06-30T13:38:50Z</time><pdop>4.0</pdop><geoidheight>53.00</geoidheight><course>108.1</course><type>1</type></trkpt>
      <trkpt lat="40.66011152" lon="-4.92584966"><ele>2270</ele><speed>14.85</speed><time>2016-06-30T13:38:51Z</time><pdop>4.0</pdop><geoidheight>53.00</geoidheight><course>119.3</course><type>1</type></trkpt>
      <trkpt lat="40.6600288" lon="-4.92571738"><ele>2271</ele><speed>15.09</speed><time>2016-06-30T13:38:52Z</time><pdop>3.0</pdop><geoidheight>53.00</geoidheight><course>130.4</course><type>1</type></trkpt>
      <trkpt lat="40.65992427" lon="-4.92559248"><ele>2272</ele><speed>15.35</speed><time>2016-06-30T13:38:53Z</time><pdop>3.0</pdop><geoidheight>53.00</geoidheight><course>136.4</course><type>1</type></trkpt>
      <trkpt lat="40.65983087" lon="-4.92548207"><ele>2273</ele><speed>14.83</speed><time>2016-06-30T13:38:54Z</time><pdop>3.0</pdop><geoidheight>53.00</geoidheight><course>140.8</course><type>1</type></trkpt>
      <trkpt lat="40.65971983" lon="-4.9253976"><ele>2275</ele><speed>13.72</speed><time>2016-06-30T13:38:55Z</time><pdop>3.0</pdop><geoidheight>53.00</geoidheight><course>148.4</course><type>1</type></trkpt>
      <trkpt lat="40.65961949" lon="-4.92535285"><ele>2277</ele><speed>11.63</speed><time>2016-06-30T13:38:56Z</time><pdop>3.0</pdop><geoidheight>53.00</geoidheight><course>162.6</course><type>1</type></trkpt>
      <trkpt lat="40.65952241" lon="-4.92531955"><ele>2278</ele><speed>11.14</speed><time>2016-06-30T13:38:57Z</time><pdop>4.0</pdop><geoidheight>53.00</geoidheight><course>165.1</course><type>1</type></trkpt>
      <trkpt lat="40.65938099" lon="-4.92545998"><ele>2278</ele><speed>9.77</speed><time>2016-06-30T13:38:59Z</time><pdop>4.0</pdop><geoidheight>53.00</geoidheight><course>216.8</course><type>1</type></trkpt>
      <trkpt lat="40.65935247" lon="-4.92555121"><ele>2267</ele><speed>8.40</speed><time>2016-06-30T13:39:00Z</time><pdop>4.0</pdop><geoidheight>53.00</geoidheight><course>238.5</course><type>1</type></trkpt>
      <trkpt lat="40.65934853" lon="-4.9256449"><ele>2270</ele><speed>7.43</speed><time>2016-06-30T13:39:01Z</time><pdop>3.0</pdop><geoidheight>53.00</geoidheight><course>263.1</course><type>1</type></trkpt>
      <trkpt lat="40.65935066" lon="-4.92573346"><ele>2271</ele><speed>7.49</speed><time>2016-06-30T13:39:02Z</time><pdop>4.0</pdop><geoidheight>53.00</geoidheight><course>270.3</course><type>1</type></trkpt>
      <trkpt lat="40.65943943" lon="-4.92578335"><ele>2274</ele><speed>4.25</speed><time>2016-06-30T13:39:04Z</time><pdop>4.0</pdop><geoidheight>53.00</geoidheight><course>329.9</course><type>1</type></trkpt>
      <trkpt lat="40.65958112" lon="-4.92568899"><ele>2273</ele><speed>6.16</speed><time>2016-06-30T13:39:06Z</time><pdop>6.0</pdop><geoidheight>53.00</geoidheight><course>19.8</course><type>1</type></trkpt>
      <trkpt lat="40.65969373" lon="-4.92539422"><ele>2274</ele><speed>11.90</speed><time>2016-06-30T13:39:08Z</time><pdop>8.0</pdop><geoidheight>53.00</geoidheight><course>57.7</course><type>1</type></trkpt>
      <trkpt lat="40.65966621" lon="-4.92516458"><ele>2276</ele><speed>13.76</speed><time>2016-06-30T13:39:09Z</time><pdop>6.0</pdop><geoidheight>53.00</geoidheight><course>83.8</course><type>1</type></trkpt>
      <trkpt lat="40.6596774" lon="-4.92498239"><ele>2277</ele><speed>13.81</speed><time>2016-06-30T13:39:10Z</time><pdop>5.0</pdop><geoidheight>53.00</geoidheight><course>87.2</course><type>1</type></trkpt>
      <trkpt lat="40.65966961" lon="-4.92482049"><ele>2278</ele><speed>13.59</speed><time>2016-06-30T13:39:11Z</time><pdop>5.0</pdop><geoidheight>53.00</geoidheight><course>97.8</course><type>1</type></trkpt>
      <trkpt lat="40.65966095" lon="-4.9246488"><ele>2279</ele><speed>14.03</speed><time>2016-06-30T13:39:12Z</time><pdop>5.0</pdop><geoidheight>53.00</geoidheight><course>103.4</course><type>1</type></trkpt>
      <trkpt lat="40.65962621" lon="-4.92447272"><ele>2280</ele><speed>14.27</speed><time>2016-06-30T13:39:13Z</time><pdop>5.0</pdop><geoidheight>53.00</geoidheight><course>107.7</course><type>1</type></trkpt>
      <trkpt lat="40.65957953" lon="-4.924317"><ele>2281</ele><speed>14.49</speed><time>2016-06-30T13:39:14Z</time><pdop>5.0</pdop><geoidheight>53.00</geoidheight><course>110.6</course><type>1</type></trkpt>
      <trkpt lat="40.65952365" lon="-4.92416011"><ele>2282</ele><speed>14.84</speed><time>2016-06-30T13:39:15Z</time><pdop>5.0</pdop><geoidheight>53.00</geoidheight><course>115.6</course><type>1</type></trkpt>
      <trkpt lat="40.65944457" lon="-4.92401444"><ele>2284</ele><speed>15.02</speed><time>2016-06-30T13:39:16Z</time><pdop>5.0</pdop><geoidheight>53.00</geoidheight><course>124.3</course><type>1</type></trkpt>
      <trkpt lat="40.65932922" lon="-4.92391345"><ele>2283</ele><speed>14.61</speed><time>2016-06-30T13:39:17Z</time><pdop>4.0</pdop><geoidheight>53.00</geoidheight><course>139.7</course><type>1</type></trkpt>
      <trkpt lat="40.65923793" lon="-4.92381095"><ele>2283</ele><speed>13.70</speed><time>2016-06-30T13:39:18Z</time><pdop>4.0</pdop><geoidheight>53.00</geoidheight><course>141.3</course><type>1</type></trkpt>
      <trkpt lat="40.65911225" lon="-4.923807"><ele>2285</ele><speed>13.40</speed><time>2016-06-30T13:39:19Z</time><pdop>4.0</pdop><geoidheight>53.00</geoidheight><course>166.7</course><type>1</type></trkpt>
      <trkpt lat="40.6590056" lon="-4.92378047"><ele>2286</ele><speed>12.30</speed><time>2016-06-30T13:39:20Z</time><pdop>4.0</pdop><geoidheight>53.00</geoidheight><course>172.9</course><type>1</type></trkpt>
      <trkpt lat="40.65890084" lon="-4.92381399"><ele>2287</ele><speed>11.96</speed><time>2016-06-30T13:39:21Z</time><pdop>4.0</pdop><geoidheight>53.00</geoidheight><course>188.0</course><type>1</type></trkpt>
      <trkpt lat="40.65882982" lon="-4.92387987"><ele>2289</ele><speed>10.32</speed><time>2016-06-30T13:39:22Z</time><pdop>3.0</pdop><geoidheight>53.00</geoidheight><course>206.9</course><type>1</type></trkpt>
      <trkpt lat="40.65877611" lon="-4.92396782"><ele>2289</ele><speed>9.26</speed><time>2016-06-30T13:39:23Z</time><pdop>3.0</pdop><geoidheight>53.00</geoidheight><course>228.8</course><type>1</type></trkpt>
      <trkpt lat="40.65876009" lon="-4.92405227"><ele>2290</ele><speed>7.69</speed><time>2016-06-30T13:39:24Z</time><pdop>3.0</pdop><geoidheight>53.00</geoidheight><course>252.0</course><type>1</type></trkpt>
      <trkpt lat="40.65877247" lon="-4.92414003"><ele>2290</ele><speed>6.66</speed><time>2016-06-30T13:39:25Z</time><pdop>3.0</pdop><geoidheight>53.00</geoidheight><course>279.2</course><type>1</type></trkpt>
      <trkpt lat="40.65881481" lon="-4.92419591"><ele>2290</ele><speed>6.49</speed><time>2016-06-30T13:39:26Z</time><pdop>3.0</pdop><geoidheight>53.00</geoidheight><course>308.4</course><type>1</type></trkpt>
      <trkpt lat="40.65888512" lon="-4.92428419"><ele>2291</ele><speed>5.06</speed><time>2016-06-30T13:39:28Z</time><pdop>6.0</pdop><geoidheight>53.00</geoidheight><course>314.7</course><type>1</type></trkpt>
      <trkpt lat="40.65900365" lon="-4.92396307"><ele>2292</ele><speed>8.04</speed><time>2016-06-30T13:39:31Z</time><pdop>8.0</pdop><geoidheight>53.00</geoidheight><course>66.4</course><type>1</type></trkpt>
      <trkpt lat="40.6590669" lon="-4.92365261"><ele>2294</ele><speed>11.62</speed><time>2016-06-30T13:39:33Z</time><pdop>7.0</pdop><geoidheight>53.00</geoidheight><course>77.1</course><type>1</type></trkpt>
      <trkpt lat="40.65906634" lon="-4.92329679"><ele>2295</ele><speed>13.44</speed><time>2016-06-30T13:39:35Z</time><pdop>6.0</pdop><geoidheight>53.00</geoidheight><course>96.5</course><type>1</type></trkpt>
      <trkpt lat="40.65904129" lon="-4.92312995"><ele>2295</ele><speed>14.04</speed><time>2016-06-30T13:39:36Z</time><pdop>5.0</pdop><geoidheight>53.00</geoidheight><course>105.0</course><type>1</type></trkpt>
      <trkpt lat="40.65898702" lon="-4.92297458"><ele>2295</ele><speed>14.17</speed><time>2016-06-30T13:39:37Z</time><pdop>5.0</pdop><geoidheight>53.00</geoidheight><course>112.3</course><type>1</type></trkpt>
      <trkpt lat="40.65891838" lon="-4.92282996"><ele>2296</ele><speed>14.38</speed><time>2016-06-30T13:39:38Z</time><pdop>4.0</pdop><geoidheight>53.00</geoidheight><course>119.8</course><type>1</type></trkpt>
      <trkpt lat="40.65885846" lon="-4.92267857"><ele>2295</ele><speed>14.36</speed><time>2016-06-30T13:39:39Z</time><pdop>4.0</pdop><geoidheight>53.00</geoidheight><course>122.0</course><type>1</type></trkpt>
      <trkpt lat="40.65877184" lon="-4.9225552"><ele>2297</ele><speed>14.17</speed><time>2016-06-30T13:39:40Z</time><pdop>4.0</pdop><geoidheight>53.00</geoidheight><course>134.3</course><type>1</type></trkpt>
      <trkpt lat="40.6586791" lon="-4.92245206"><ele>2297</ele><speed>14.02</speed><time>2016-06-30T13:39:41Z</time><pdop>4.0</pdop><geoidheight>53.00</geoidheight><course>140.5</course><type>1</type></trkpt>
      <trkpt lat="40.65859422" lon="-4.92237123"><ele>2298</ele><speed>12.70</speed><time>2016-06-30T13:39:42Z</time><pdop>5.0</pdop><geoidheight>53.00</geoidheight><course>142.2</course><type>1</type></trkpt>
      <trkpt lat="40.65849019" lon="-4.92237025"><ele>2300</ele><speed>12.23</speed><time>2016-06-30T13:39:43Z</time><pdop>5.0</pdop><geoidheight>53.00</geoidheight><course>160.3</course><type>1</type></trkpt>
      <trkpt lat="40.6583995" lon="-4.92235394"><ele>2300</ele><speed>11.20</speed><time>2016-06-30T13:39:44Z</time><pdop>4.0</pdop><geoidheight>53.00</geoidheight><course>170.5</course><type>1</type></trkpt>
      <trkpt lat="40.65830968" lon="-4.9223458"><ele>2300</ele><speed>10.79</speed><time>2016-06-30T13:39:45Z</time><pdop>4.0</pdop><geoidheight>53.00</geoidheight><course>175.3</course><type>1</type></trkpt>
      <trkpt lat="40.65821265" lon="-4.92235283"><ele>2298</ele><speed>10.59</speed><time>2016-06-30T13:39:46Z</time><pdop>4.0</pdop><geoidheight>53.00</geoidheight><course>181.2</course><type>1</type></trkpt>
      <trkpt lat="40.65813196" lon="-4.92236318"><ele>2298</ele><speed>9.89</speed><time>2016-06-30T13:39:47Z</time><pdop>5.0</pdop><geoidheight>53.00</geoidheight><course>189.2</course><type>1</type></trkpt>
      <trkpt lat="40.65804881" lon="-4.92252979"><ele>2297</ele><speed>8.87</speed><time>2016-06-30T13:39:49Z</time><pdop>4.0</pdop><geoidheight>53.00</geoidheight><course>238.5</course><type>1</type></trkpt>
      <trkpt lat="40.65801375" lon="-4.92261491"><ele>2297</ele><speed>8.54</speed><time>2016-06-30T13:39:50Z</time><pdop>4.0</pdop><geoidheight>53.00</geoidheight><course>245.3</course><type>1</type></trkpt>
      <trkpt lat="40.6580499" lon="-4.92278335"><ele>2296</ele><speed>7.61</speed><time>2016-06-30T13:39:52Z</time><pdop>3.0</pdop><geoidheight>53.00</geoidheight><course>293.1</course><type>1</type></trkpt>
      <trkpt lat="40.6580931" lon="-4.9228552"><ele>2296</ele><speed>7.61</speed><time>2016-06-30T13:39:53Z</time><pdop>4.0</pdop><geoidheight>53.00</geoidheight><course>303.5</course><type>1</type></trkpt>
      <trkpt lat="40.65820587" lon="-4.92294595"><ele>2295</ele><speed>6.95</speed><time>2016-06-30T13:39:55Z</time><pdop>7.0</pdop><geoidheight>53.00</geoidheight><course>322.6</course><type>1</type></trkpt>
      <trkpt lat="40.6583815" lon="-4.9228817"><ele>2294</ele><speed>6.33</speed><time>2016-06-30T13:39:58Z</time><pdop>7.0</pdop><geoidheight>53.00</geoidheight><course>8.5</course><type>1</type></trkpt>
      <trkpt lat="40.65848517" lon="-4.92281211"><ele>2293</ele><speed>7.12</speed><time>2016-06-30T13:39:59Z</time><pdop>5.0</pdop><geoidheight>53.00</geoidheight><course>12.4</course><type>1</type></trkpt>
      <trkpt lat="40.65860248" lon="-4.92268025"><ele>2294</ele><speed>8.85</speed><time>2016-06-30T13:40:01Z</time><pdop>4.0</pdop><geoidheight>53.00</geoidheight><course>46.5</course><type>1</type></trkpt>
      <trkpt lat="40.65866567" lon="-4.92257772"><ele>2295</ele><speed>10.55</speed><time>2016-06-30T13:40:02Z</time><pdop>4.0</pdop><geoidheight>53.00</geoidheight><course>58.4</course><type>1</type></trkpt>
      <trkpt lat="40.6587033" lon="-4.92246942"><ele>2295</ele><speed>10.88</speed><time>2016-06-30T13:40:03Z</time><pdop>5.0</pdop><geoidheight>53.00</geoidheight><course>68.1</course><type>1</type></trkpt>
      <trkpt lat="40.65873316" lon="-4.92231424"><ele>2294</ele><speed>12.65</speed><time>2016-06-30T13:40:04Z</time><pdop>4.0</pdop><geoidheight>53.00</geoidheight><course>75.3</course><type>1</type></trkpt>
      <trkpt lat="40.65875182" lon="-4.92215722"><ele>2296</ele><speed>13.08</speed><time>2016-06-30T13:40:05Z</time><pdop>4.0</pdop><geoidheight>53.00</geoidheight><course>80.3</course><type>1</type></trkpt>
      <trkpt lat="40.65875877" lon="-4.92201725"><ele>2298</ele><speed>12.54</speed><time>2016-06-30T13:40:06Z</time><pdop>4.0</pdop><geoidheight>53.00</geoidheight><course>83.8</course><type>1</type></trkpt>
      <trkpt lat="40.65877612" lon="-4.92188643"><ele>2298</ele><speed>11.84</speed><time>2016-06-30T13:40:07Z</time><pdop>4.0</pdop><geoidheight>53.00</geoidheight><course>87.0</course><type>1</type></trkpt>
      <trkpt lat="40.6587757" lon="-4.92174408"><ele>2299</ele><speed>11.49</speed><time>2016-06-30T13:40:08Z</time><pdop>4.0</pdop><geoidheight>53.00</geoidheight><course>90.8</course><type>1</type></trkpt>
      <trkpt lat="40.65876363" lon="-4.92160178"><ele>2299</ele><speed>11.45</speed><time>2016-06-30T13:40:09Z</time><pdop>4.0</pdop><geoidheight>53.00</geoidheight><course>95.9</course><type>1</type></trkpt>
      <trkpt lat="40.65874769" lon="-4.92146418"><ele>2299</ele><speed>11.94</speed><time>2016-06-30T13:40:10Z</time><pdop>3.0</pdop><geoidheight>53.00</geoidheight><course>99.9</course><type>1</type></trkpt>
      <trkpt lat="40.65871881" lon="-4.9213091"><ele>2299</ele><speed>13.06</speed><time>2016-06-30T13:40:11Z</time><pdop>4.0</pdop><geoidheight>53.00</geoidheight><course>101.6</course><type>1</type></trkpt>
      <trkpt lat="40.6586869" lon="-4.9211414"><ele>2298</ele><speed>14.18</speed><time>2016-06-30T13:40:12Z</time><pdop>4.0</pdop><geoidheight>53.00</geoidheight><course>102.3</course><type>1</type></trkpt>
      <trkpt lat="40.65865986" lon="-4.92096569"><ele>2298</ele><speed>14.99</speed><time>2016-06-30T13:40:13Z</time><pdop>4.0</pdop><geoidheight>53.00</geoidheight><course>101.9</course><type>1</type></trkpt>
      <trkpt lat="40.65864103" lon="-4.92079615"><ele>2298</ele><speed>15.16</speed><time>2016-06-30T13:40:14Z</time><pdop>4.0</pdop><geoidheight>53.00</geoidheight><course>99.0</course><type>1</type></trkpt>
      <trkpt lat="40.6586333" lon="-4.92061706"><ele>2297</ele><speed>15.10</speed><time>2016-06-30T13:40:15Z</time><pdop>4.0</pdop><geoidheight>53.00</geoidheight><course>93.4</course><type>1</type></trkpt>
      <trkpt lat="40.65864075" lon="-4.92043903"><ele>2299</ele><speed>14.74</speed><time>2016-06-30T13:40:16Z</time><pdop>5.0</pdop><geoidheight>53.00</geoidheight><course>88.8</course><type>1</type></trkpt>
      <trkpt lat="40.65864703" lon="-4.92027693"><ele>2300</ele><speed>13.88</speed><time>2016-06-30T13:40:17Z</time><pdop>5.0</pdop><geoidheight>53.00</geoidheight><course>87.8</course><type>1</type></trkpt>
      <trkpt lat="40.65865465" lon="-4.92011918"><ele>2301</ele><speed>13.19</speed><time>2016-06-30T13:40:18Z</time><pdop>4.0</pdop><geoidheight>53.00</geoidheight><course>87.4</course><type>1</type></trkpt>
      <trkpt lat="40.65865388" lon="-4.91996178"><ele>2303</ele><speed>13.04</speed><time>2016-06-30T13:40:19Z</time><pdop>5.0</pdop><geoidheight>53.00</geoidheight><course>87.8</course><type>1</type></trkpt>
      <trkpt lat="40.65865282" lon="-4.91980824"><ele>2303</ele><speed>13.52</speed><time>2016-06-30T13:40:20Z</time><pdop>5.0</pdop><geoidheight>53.00</geoidheight><course>87.2</course><type>1</type></trkpt>
      <trkpt lat="40.65865652" lon="-4.91963753"><ele>2302</ele><speed>14.47</speed><time>2016-06-30T13:40:21Z</time><pdop>5.0</pdop><geoidheight>53.00</geoidheight><course>85.5</course><type>1</type></trkpt>
      <trkpt lat="40.658673" lon="-4.91946282"><ele>2302</ele><speed>14.91</speed><time>2016-06-30T13:40:22Z</time><pdop>4.0</pdop><geoidheight>53.00</geoidheight><course>83.0</course><type>1</type></trkpt>
      <trkpt lat="40.65868747" lon="-4.91929253"><ele>2303</ele><speed>14.66</speed><time>2016-06-30T13:40:23Z</time><pdop>4.0</pdop><geoidheight>53.00</geoidheight><course>83.4</course><type>1</type></trkpt>
      <trkpt lat="40.65869972" lon="-4.91911909"><ele>2303</ele><speed>14.39</speed><time>2016-06-30T13:40:24Z</time><pdop>4.0</pdop><geoidheight>53.00</geoidheight><course>84.6</course><type>1</type></trkpt>
      <trkpt lat="40.65870321" lon="-4.91895942"><ele>2303</ele><speed>14.14</speed><time>2016-06-30T13:40:25Z</time><pdop>4.0</pdop><geoidheight>53.00</geoidheight><course>86.7</course><type>1</type></trkpt>
      <trkpt lat="40.65871071" lon="-4.91879139"><ele>2303</ele><speed>13.93</speed><time>2016-06-30T13:40:26Z</time><pdop>6.0</pdop><geoidheight>53.00</geoidheight><course>87.0</course><type>1</type></trkpt>
      <trkpt lat="40.65870969" lon="-4.91862006"><ele>2304</ele><speed>13.83</speed><time>2016-06-30T13:40:27Z</time><pdop>5.0</pdop><geoidheight>53.00</geoidheight><course>88.7</course><type>1</type></trkpt>
      <trkpt lat="40.65871753" lon="-4.91847213"><ele>2304</ele><speed>13.44</speed><time>2016-06-30T13:40:28Z</time><pdop>5.0</pdop><geoidheight>53.00</geoidheight><course>89.6</course><type>1</type></trkpt>
      <trkpt lat="40.65872624" lon="-4.91832063"><ele>2305</ele><speed>13.25</speed><time>2016-06-30T13:40:29Z</time><pdop>6.0</pdop><geoidheight>53.00</geoidheight><course>89.1</course><type>1</type></trkpt>
      <trkpt lat="40.65872816" lon="-4.91814495"><ele>2305</ele><speed>13.82</speed><time>2016-06-30T13:40:30Z</time><pdop>6.0</pdop><geoidheight>53.00</geoidheight><course>87.3</course><type>1</type></trkpt>
      <trkpt lat="40.65874192" lon="-4.91797369"><ele>2304</ele><speed>14.00</speed><time>2016-06-30T13:40:31Z</time><pdop>6.0</pdop><geoidheight>53.00</geoidheight><course>84.9</course><type>1</type></trkpt>
      <trkpt lat="40.65874816" lon="-4.91781106"><ele>2302</ele><speed>13.98</speed><time>2016-06-30T13:40:32Z</time><pdop>5.0</pdop><geoidheight>53.00</geoidheight><course>84.6</course><type>1</type></trkpt>
      <trkpt lat="40.65876303" lon="-4.9176504"><ele>2301</ele><speed>13.30</speed><time>2016-06-30T13:40:33Z</time><pdop>5.0</pdop><geoidheight>53.00</geoidheight><course>83.5</course><type>1</type></trkpt>
      <trkpt lat="40.65878719" lon="-4.91750695"><ele>2301</ele><speed>12.62</speed><time>2016-06-30T13:40:34Z</time><pdop>5.0</pdop><geoidheight>53.00</geoidheight><course>78.2</course><type>1</type></trkpt>
      <trkpt lat="40.65882033" lon="-4.91736888"><ele>2298</ele><speed>12.63</speed><time>2016-06-30T13:40:35Z</time><pdop>5.0</pdop><geoidheight>53.00</geoidheight><course>74.0</course><type>1</type></trkpt>
      <trkpt lat="40.65886431" lon="-4.91722589"><ele>2295</ele><speed>13.79</speed><time>2016-06-30T13:40:36Z</time><pdop>4.0</pdop><geoidheight>53.00</geoidheight><course>69.5</course><type>1</type></trkpt>
      <trkpt lat="40.65892176" lon="-4.91705998"><ele>2292</ele><speed>15.19</speed><time>2016-06-30T13:40:37Z</time><pdop>4.0</pdop><geoidheight>53.00</geoidheight><course>67.2</course><type>1</type></trkpt>
      <trkpt lat="40.65897941" lon="-4.91689072"><ele>2288</ele><speed>16.34</speed><time>2016-06-30T13:40:38Z</time><pdop>4.0</pdop><geoidheight>53.00</geoidheight><course>63.3</course><type>1</type></trkpt>
      <trkpt lat="40.65906257" lon="-4.91671356"><ele>2288</ele><speed>17.20</speed><time>2016-06-30T13:40:39Z</time><pdop>4.0</pdop><geoidheight>53.00</geoidheight><course>58.6</course><type>1</type></trkpt>
      <trkpt lat="40.6591445" lon="-4.91653507"><ele>2286</ele><speed>17.65</speed><time>2016-06-30T13:40:40Z</time><pdop>4.0</pdop><geoidheight>53.00</geoidheight><course>59.0</course><type>1</type></trkpt>
      <trkpt lat="40.65922116" lon="-4.91636099"><ele>2286</ele><speed>16.90</speed><time>2016-06-30T13:40:41Z</time><pdop>4.0</pdop><geoidheight>53.00</geoidheight><course>60.9</course><type>1</type></trkpt>
      <trkpt lat="40.65928489" lon="-4.91619616"><ele>2287</ele><speed>15.49</speed><time>2016-06-30T13:40:42Z</time><pdop>4.0</pdop><geoidheight>53.00</geoidheight><course>63.4</course><type>1</type></trkpt>
      <trkpt lat="40.6593391" lon="-4.91604943"><ele>2286</ele><speed>14.44</speed><time>2016-06-30T13:40:43Z</time><pdop>4.0</pdop><geoidheight>53.00</geoidheight><course>65.0</course><type>1</type></trkpt>
      <trkpt lat="40.65939743" lon="-4.91589462"><ele>2287</ele><speed>14.20</speed><time>2016-06-30T13:40:44Z</time><pdop>4.0</pdop><geoidheight>53.00</geoidheight><course>66.1</course><type>1</type></trkpt>
      <trkpt lat="40.65945749" lon="-4.91573262"><ele>2287</ele><speed>14.99</speed><time>2016-06-30T13:40:45Z</time><pdop>4.0</pdop><geoidheight>53.00</geoidheight><course>64.2</course><type>1</type></trkpt>
      <trkpt lat="40.65952154" lon="-4.9155583"><ele>2285</ele><speed>15.84</speed><time>2016-06-30T13:40:46Z</time><pdop>4.0</pdop><geoidheight>53.00</geoidheight><course>64.5</course><type>1</type></trkpt>
      <trkpt lat="40.6595851" lon="-4.91537577"><ele>2284</ele><speed>16.68</speed><time>2016-06-30T13:40:47Z</time><pdop>4.0</pdop><geoidheight>53.00</geoidheight><course>67.3</course><type>1</type></trkpt>
      <trkpt lat="40.65963477" lon="-4.91518867"><ele>2284</ele><speed>16.40</speed><time>2016-06-30T13:40:48Z</time><pdop>4.0</pdop><geoidheight>53.00</geoidheight><course>70.9</course><type>1</type></trkpt>
      <trkpt lat="40.65967381" lon="-4.91501928"><ele>2283</ele><speed>15.41</speed><time>2016-06-30T13:40:49Z</time><pdop>4.0</pdop><geoidheight>53.00</geoidheight><course>72.1</course><type>1</type></trkpt>
      <trkpt lat="40.65971519" lon="-4.9148588"><ele>2282</ele><speed>14.48</speed><time>2016-06-30T13:40:50Z</time><pdop>4.0</pdop><geoidheight>53.00</geoidheight><course>68.9</course><type>1</type></trkpt>
      <trkpt lat="40.65976499" lon="-4.91471113"><ele>2280</ele><speed>14.18</speed><time>2016-06-30T13:40:51Z</time><pdop>4.0</pdop><geoidheight>53.00</geoidheight><course>66.1</course><type>1</type></trkpt>
      <trkpt lat="40.6598145" lon="-4.91455337"><ele>2278</ele><speed>14.62</speed><time>2016-06-30T13:40:52Z</time><pdop>3.0</pdop><geoidheight>53.00</geoidheight><course>66.2</course><type>1</type></trkpt>
      <trkpt lat="40.65986842" lon="-4.91438348"><ele>2275</ele><speed>15.71</speed><time>2016-06-30T13:40:53Z</time><pdop>3.0</pdop><geoidheight>53.00</geoidheight><course>67.2</course><type>1</type></trkpt>
      <trkpt lat="40.65992458" lon="-4.91421112"><ele>2275</ele><speed>16.40</speed><time>2016-06-30T13:40:54Z</time><pdop>3.0</pdop><geoidheight>53.00</geoidheight><course>67.4</course><type>1</type></trkpt>
      <trkpt lat="40.65998321" lon="-4.91402309"><ele>2274</ele><speed>16.37</speed><time>2016-06-30T13:40:55Z</time><pdop>3.0</pdop><geoidheight>53.00</geoidheight><course>67.4</course><type>1</type></trkpt>
      <trkpt lat="40.66003042" lon="-4.91385456"><ele>2274</ele><speed>15.33</speed><time>2016-06-30T13:40:56Z</time><pdop>3.0</pdop><geoidheight>53.00</geoidheight><course>69.3</course><type>1</type></trkpt>
      <trkpt lat="40.6600702" lon="-4.91370235"><ele>2273</ele><speed>14.23</speed><time>2016-06-30T13:40:57Z</time><pdop>3.0</pdop><geoidheight>53.00</geoidheight><course>71.6</course><type>1</type></trkpt>
      <trkpt lat="40.66010636" lon="-4.91354499"><ele>2272</ele><speed>13.76</speed><time>2016-06-30T13:40:58Z</time><pdop>3.0</pdop><geoidheight>53.00</geoidheight><course>73.2</course><type>1</type></trkpt>
      <trkpt lat="40.66014086" lon="-4.91338817"><ele>2270</ele><speed>14.21</speed><time>2016-06-30T13:40:59Z</time><pdop>3.0</pdop><geoidheight>53.00</geoidheight><course>73.7</course><type>1</type></trkpt>
      <trkpt lat="40.66017493" lon="-4.91321204"><ele>2267</ele><speed>15.05</speed><time>2016-06-30T13:41:00Z</time><pdop>3.0</pdop><geoidheight>53.00</geoidheight><course>74.0</course><type>1</type></trkpt>
      <trkpt lat="40.66021233" lon="-4.91303321"><ele>2263</ele><speed>15.84</speed><time>2016-06-30T13:41:01Z</time><pdop>3.0</pdop><geoidheight>53.00</geoidheight><course>75.2</course><type>1</type></trkpt>
      <trkpt lat="40.66024594" lon="-4.9128395"><ele>2261</ele><speed>16.26</speed><time>2016-06-30T13:41:02Z</time><pdop>3.0</pdop><geoidheight>53.00</geoidheight><course>75.7</course><type>1</type></trkpt>
      <trkpt lat="40.66028051" lon="-4.91265368"><ele>2260</ele><speed>16.09</speed><time>2016-06-30T13:41:03Z</time><pdop>3.0</pdop><geoidheight>53.00</geoidheight><course>76.0</course><type>1</type></trkpt>
      <trkpt lat="40.66031741" lon="-4.91247964"><ele>2260</ele><speed>15.92</speed><time>2016-06-30T13:41:04Z</time><pdop>4.0</pdop><geoidheight>53.00</geoidheight><course>75.9</course><type>1</type></trkpt>
      <trkpt lat="40.66035041" lon="-4.91230189"><ele>2258</ele><speed>15.61</speed><time>2016-06-30T13:41:05Z</time><pdop>4.0</pdop><geoidheight>53.00</geoidheight><course>77.1</course><type>1</type></trkpt>
      <trkpt lat="40.66036938" lon="-4.91212827"><ele>2257</ele><speed>15.14</speed><time>2016-06-30T13:41:06Z</time><pdop>4.0</pdop><geoidheight>53.00</geoidheight><course>78.8</course><type>1</type></trkpt>
      <trkpt lat="40.66039816" lon="-4.91195283"><ele>2255</ele><speed>15.20</speed><time>2016-06-30T13:41:07Z</time><pdop>4.0</pdop><geoidheight>53.00</geoidheight><course>78.4</course><type>1</type></trkpt>
      <trkpt lat="40.66042288" lon="-4.91177357"><ele>2252</ele><speed>15.61</speed><time>2016-06-30T13:41:08Z</time><pdop>4.0</pdop><geoidheight>53.00</geoidheight><course>77.0</course><type>1</type></trkpt>
      <trkpt lat="40.66046181" lon="-4.91159358"><ele>2250</ele><speed>15.80</speed><time>2016-06-30T13:41:09Z</time><pdop>4.0</pdop><geoidheight>53.00</geoidheight><course>75.3</course><type>1</type></trkpt>
      <trkpt lat="40.66050294" lon="-4.91140903"><ele>2249</ele><speed>15.94</speed><time>2016-06-30T13:41:10Z</time><pdop>4.0</pdop><geoidheight>53.00</geoidheight><course>74.2</course><type>1</type></trkpt>
      <trkpt lat="40.66054783" lon="-4.91122362"><ele>2247</ele><speed>16.21</speed><time>2016-06-30T13:41:11Z</time><pdop>4.0</pdop><geoidheight>53.00</geoidheight><course>73.5</course><type>1</type></trkpt>
      <trkpt lat="40.66059324" lon="-4.91105086"><ele>2247</ele><speed>15.54</speed><time>2016-06-30T13:41:12Z</time><pdop>4.0</pdop><geoidheight>53.00</geoidheight><course>71.7</course><type>1</type></trkpt>
      <trkpt lat="40.66063599" lon="-4.91088569"><ele>2245</ele><speed>14.77</speed><time>2016-06-30T13:41:13Z</time><pdop>4.0</pdop><geoidheight>53.00</geoidheight><course>70.6</course><type>1</type></trkpt>
      <trkpt lat="40.66068028" lon="-4.91072617"><ele>2244</ele><speed>14.46</speed><time>2016-06-30T13:41:14Z</time><pdop>4.0</pdop><geoidheight>53.00</geoidheight><course>69.9</course><type>1</type></trkpt>
      <trkpt lat="40.66072785" lon="-4.9105684"><ele>2241</ele><speed>14.70</speed><time>2016-06-30T13:41:15Z</time><pdop>3.0</pdop><geoidheight>53.00</geoidheight><course>68.4</course><type>1</type></trkpt>
      <trkpt lat="40.66078112" lon="-4.91040211"><ele>2237</ele><speed>15.39</speed><time>2016-06-30T13:41:16Z</time><pdop>4.0</pdop><geoidheight>53.00</geoidheight><course>66.0</course><type>1</type></trkpt>
      <trkpt lat="40.66083597" lon="-4.91023054"><ele>2234</ele><speed>15.90</speed><time>2016-06-30T13:41:17Z</time><pdop>3.0</pdop><geoidheight>53.00</geoidheight><course>64.8</course><type>1</type></trkpt>
      <trkpt lat="40.66090115" lon="-4.9100582"><ele>2232</ele><speed>16.10</speed><time>2016-06-30T13:41:18Z</time><pdop>4.0</pdop><geoidheight>53.00</geoidheight><course>64.9</course><type>1</type></trkpt>
      <trkpt lat="40.6609543" lon="-4.90989186"><ele>2230</ele><speed>15.82</speed><time>2016-06-30T13:41:19Z</time><pdop>3.0</pdop><geoidheight>53.00</geoidheight><course>66.3</course><type>1</type></trkpt>
      <trkpt lat="40.66100545" lon="-4.90972754"><ele>2227</ele><speed>15.25</speed><time>2016-06-30T13:41:20Z</time><pdop>3.0</pdop><geoidheight>53.00</geoidheight><course>68.2</course><type>1</type></trkpt>
      <trkpt lat="40.66105245" lon="-4.90956075"><ele>2226</ele><speed>15.00</speed><time>2016-06-30T13:41:21Z</time><pdop>4.0</pdop><geoidheight>53.00</geoidheight><course>69.5</course><type>1</type></trkpt>
      <trkpt lat="40.66110996" lon="-4.90938569"><ele>2224</ele><speed>15.69</speed><time>2016-06-30T13:41:22Z</time><pdop>4.0</pdop><geoidheight>53.00</geoidheight><course>66.4</course><type>1</type></trkpt>
      <trkpt lat="40.66116086" lon="-4.90921373"><ele>2224</ele><speed>15.73</speed><time>2016-06-30T13:41:23Z</time><pdop>5.0</pdop><geoidheight>53.00</geoidheight><course>67.3</course><type>1</type></trkpt>
      <trkpt lat="40.66123552" lon="-4.90905628"><ele>2221</ele><speed>16.47</speed><time>2016-06-30T13:41:24Z</time><pdop>4.0</pdop><geoidheight>53.00</geoidheight><course>62.6</course><type>1</type></trkpt>
      <trkpt lat="40.66131471" lon="-4.90888125"><ele>2220</ele><speed>16.98</speed><time>2016-06-30T13:41:25Z</time><pdop>4.0</pdop><geoidheight>53.00</geoidheight><course>60.5</course><type>1</type></trkpt>
      <trkpt lat="40.66137864" lon="-4.90871141"><ele>2218</ele><speed>16.40</speed><time>2016-06-30T13:41:26Z</time><pdop>4.0</pdop><geoidheight>53.00</geoidheight><course>61.5</course><type>1</type></trkpt>
      <trkpt lat="40.6614448" lon="-4.90855605"><ele>2217</ele><speed>15.56</speed><time>2016-06-30T13:41:27Z</time><pdop>4.0</pdop><geoidheight>53.00</geoidheight><course>61.1</course><type>1</type></trkpt>
      <trkpt lat="40.66150219" lon="-4.90839433"><ele>2215</ele><speed>14.99</speed><time>2016-06-30T13:41:28Z</time><pdop>4.0</pdop><geoidheight>53.00</geoidheight><course>62.0</course><type>1</type></trkpt>
      <trkpt lat="40.66156462" lon="-4.90824356"><ele>2214</ele><speed>14.85</speed><time>2016-06-30T13:41:29Z</time><pdop>4.0</pdop><geoidheight>53.00</geoidheight><course>61.7</course><type>1</type></trkpt>
      <trkpt lat="40.66163039" lon="-4.90808021"><ele>2213</ele><speed>14.93</speed><time>2016-06-30T13:41:30Z</time><pdop>5.0</pdop><geoidheight>53.00</geoidheight><course>62.5</course><type>1</type></trkpt>
      <trkpt lat="40.66169766" lon="-4.90792054"><ele>2213</ele><speed>15.25</speed><time>2016-06-30T13:41:31Z</time><pdop>6.0</pdop><geoidheight>53.00</geoidheight><course>61.6</course><type>1</type></trkpt>
      <trkpt lat="40.66177121" lon="-4.90776348"><ele>2213</ele><speed>15.71</speed><time>2016-06-30T13:41:32Z</time><pdop>6.0</pdop><geoidheight>53.00</geoidheight><course>60.1</course><type>1</type></trkpt>
      <trkpt lat="40.661854" lon="-4.90761299"><ele>2212</ele><speed>16.23</speed><time>2016-06-30T13:41:33Z</time><pdop>6.0</pdop><geoidheight>53.00</geoidheight><course>58.7</course><type>1</type></trkpt>
      <trkpt lat="40.66190836" lon="-4.90744487"><ele>2209</ele><speed>16.29</speed><time>2016-06-30T13:41:34Z</time><pdop>5.0</pdop><geoidheight>53.00</geoidheight><course>59.7</course><type>1</type></trkpt>
      <trkpt lat="40.66199863" lon="-4.90729032"><ele>2205</ele><speed>16.12</speed><time>2016-06-30T13:41:35Z</time><pdop>5.0</pdop><geoidheight>53.00</geoidheight><course>54.9</course><type>1</type></trkpt>
      <trkpt lat="40.66207134" lon="-4.90712859"><ele>2202</ele><speed>15.43</speed><time>2016-06-30T13:41:36Z</time><pdop>6.0</pdop><geoidheight>53.00</geoidheight><course>53.1</course><type>1</type></trkpt>
      <trkpt lat="40.66215887" lon="-4.90697657"><ele>2199</ele><speed>16.32</speed><time>2016-06-30T13:41:37Z</time><pdop>6.0</pdop><geoidheight>53.00</geoidheight><course>49.2</course><type>1</type></trkpt>
      <trkpt lat="40.66226396" lon="-4.90682275"><ele>2198</ele><speed>16.84</speed><time>2016-06-30T13:41:38Z</time><pdop>7.0</pdop><geoidheight>53.00</geoidheight><course>47.9</course><type>1</type></trkpt>
      <trkpt lat="40.66236525" lon="-4.90666072"><ele>2198</ele><speed>16.73</speed><time>2016-06-30T13:41:39Z</time><pdop>7.0</pdop><geoidheight>53.00</geoidheight><course>49.8</course><type>1</type></trkpt>
      <trkpt lat="40.6624584" lon="-4.90652067"><ele>2195</ele><speed>15.62</speed><time>2016-06-30T13:41:40Z</time><pdop>8.0</pdop><geoidheight>53.00</geoidheight><course>49.5</course><type>1</type></trkpt>
      <trkpt lat="40.66257612" lon="-4.90624927"><ele>2192</ele><speed>14.48</speed><time>2016-06-30T13:41:42Z</time><pdop>10.0</pdop><geoidheight>53.00</geoidheight><course>54.7</course><type>1</type></trkpt>
      <trkpt lat="40.66276288" lon="-4.90599977"><ele>2188</ele><speed>14.97</speed><time>2016-06-30T13:41:44Z</time><pdop>11.0</pdop><geoidheight>53.00</geoidheight><course>49.4</course><type>1</type></trkpt>
      <trkpt lat="40.66290214" lon="-4.90575141"><ele>2185</ele><speed>14.26</speed><time>2016-06-30T13:41:46Z</time><pdop>13.0</pdop><geoidheight>53.00</geoidheight><course>48.6</course><type>1</type></trkpt>
      <trkpt lat="40.66307723" lon="-4.90542281"><ele>2180</ele><speed>15.90</speed><time>2016-06-30T13:41:48Z</time><pdop>10.0</pdop><geoidheight>53.00</geoidheight><course>49.6</course><type>1</type></trkpt>
      <trkpt lat="40.66325926" lon="-4.90514224"><ele>2175</ele><speed>13.42</speed><time>2016-06-30T13:41:50Z</time><pdop>10.0</pdop><geoidheight>53.00</geoidheight><course>52.6</course><type>1</type></trkpt>
      <trkpt lat="40.66342048" lon="-4.90487772"><ele>2169</ele><speed>8.08</speed><time>2016-06-30T13:41:54Z</time><pdop>14.0</pdop><geoidheight>53.00</geoidheight><course>49.3</course><type>1</type></trkpt>
      <trkpt lat="40.66359656" lon="-4.90444497"><ele>2164</ele><speed>14.09</speed><time>2016-06-30T13:41:57Z</time><pdop>14.0</pdop><geoidheight>53.00</geoidheight><course>64.9</course><type>1</type></trkpt>
      <trkpt lat="40.66372877" lon="-4.90400238"><ele>2159</ele><speed>12.51</speed><time>2016-06-30T13:42:00Z</time><pdop>12.0</pdop><geoidheight>53.00</geoidheight><course>72.2</course><type>1</type></trkpt>
      <trkpt lat="40.66374034" lon="-4.90362202"><ele>2152</ele><speed>12.68</speed><time>2016-06-30T13:42:03Z</time><pdop>11.0</pdop><geoidheight>53.00</geoidheight><course>80.7</course><type>1</type></trkpt>
      <trkpt lat="40.66381583" lon="-4.903271"><ele>2148</ele><speed>15.46</speed><time>2016-06-30T13:42:05Z</time><pdop>15.0</pdop><geoidheight>53.00</geoidheight><course>74.1</course><type>1</type></trkpt>
      <trkpt lat="40.66400661" lon="-4.90281529"><ele>2145</ele><speed>14.39</speed><time>2016-06-30T13:42:08Z</time><pdop>14.0</pdop><geoidheight>53.00</geoidheight><course>62.1</course><type>1</type></trkpt>
      <trkpt lat="40.66419709" lon="-4.90256782"><ele>2144</ele><speed>14.12</speed><time>2016-06-30T13:42:10Z</time><pdop>13.0</pdop><geoidheight>53.00</geoidheight><course>51.1</course><type>1</type></trkpt>
      <trkpt lat="40.66441051" lon="-4.90230099"><ele>2136</ele><speed>14.86</speed><time>2016-06-30T13:42:12Z</time><pdop>12.0</pdop><geoidheight>53.00</geoidheight><course>49.0</course><type>1</type></trkpt>
      <trkpt lat="40.66462728" lon="-4.90204226"><ele>2131</ele><speed>14.56</speed><time>2016-06-30T13:42:14Z</time><pdop>12.0</pdop><geoidheight>53.00</geoidheight><course>47.9</course><type>1</type></trkpt>
      <trkpt lat="40.6647959" lon="-4.90179492"><ele>2130</ele><speed>14.02</speed><time>2016-06-30T13:42:16Z</time><pdop>11.0</pdop><geoidheight>53.00</geoidheight><course>49.1</course><type>1</type></trkpt>
      <trkpt lat="40.66494971" lon="-4.90155681"><ele>2130</ele><speed>14.03</speed><time>2016-06-30T13:42:18Z</time><pdop>8.0</pdop><geoidheight>53.00</geoidheight><course>49.8</course><type>1</type></trkpt>
      <trkpt lat="40.66512485" lon="-4.90130873"><ele>2125</ele><speed>13.70</speed><time>2016-06-30T13:42:20Z</time><pdop>8.0</pdop><geoidheight>53.00</geoidheight><course>53.1</course><type>1</type></trkpt>
      <trkpt lat="40.66526231" lon="-4.90101277"><ele>2124</ele><speed>15.14</speed><time>2016-06-30T13:42:22Z</time><pdop>7.0</pdop><geoidheight>53.00</geoidheight><course>61.9</course><type>1</type></trkpt>
      <trkpt lat="40.66530796" lon="-4.90084272"><ele>2124</ele><speed>15.40</speed><time>2016-06-30T13:42:23Z</time><pdop>6.0</pdop><geoidheight>53.00</geoidheight><course>70.0</course><type>1</type></trkpt>
      <trkpt lat="40.66535052" lon="-4.9006733"><ele>2125</ele><speed>15.12</speed><time>2016-06-30T13:42:24Z</time><pdop>6.0</pdop><geoidheight>53.00</geoidheight><course>72.5</course><type>1</type></trkpt>
      <trkpt lat="40.66538287" lon="-4.9005274"><ele>2125</ele><speed>13.67</speed><time>2016-06-30T13:42:25Z</time><pdop>6.0</pdop><geoidheight>53.00</geoidheight><course>72.0</course><type>1</type></trkpt>
      <trkpt lat="40.66541956" lon="-4.90037996"><ele>2127</ele><speed>13.35</speed><time>2016-06-30T13:42:26Z</time><pdop>5.0</pdop><geoidheight>53.00</geoidheight><course>69.3</course><type>1</type></trkpt>
      <trkpt lat="40.66545307" lon="-4.9002331"><ele>2130</ele><speed>13.05</speed><time>2016-06-30T13:42:27Z</time><pdop>5.0</pdop><geoidheight>53.00</geoidheight><course>73.2</course><type>1</type></trkpt>
      <trkpt lat="40.66548049" lon="-4.90008533"><ele>2133</ele><speed>13.09</speed><time>2016-06-30T13:42:28Z</time><pdop>5.0</pdop><geoidheight>53.00</geoidheight><course>78.7</course><type>1</type></trkpt>
      <trkpt lat="40.66548711" lon="-4.89993581"><ele>2133</ele><speed>12.80</speed><time>2016-06-30T13:42:29Z</time><pdop>4.0</pdop><geoidheight>53.00</geoidheight><course>85.4</course><type>1</type></trkpt>
      <trkpt lat="40.66550095" lon="-4.89978275"><ele>2133</ele><speed>13.10</speed><time>2016-06-30T13:42:30Z</time><pdop>4.0</pdop><geoidheight>53.00</geoidheight><course>84.9</course><type>1</type></trkpt>
      <trkpt lat="40.6655242" lon="-4.8996365"><ele>2133</ele><speed>13.16</speed><time>2016-06-30T13:42:31Z</time><pdop>5.0</pdop><geoidheight>53.00</geoidheight><course>78.6</course><type>1</type></trkpt>
      <trkpt lat="40.6655566" lon="-4.89949062"><ele>2133</ele><speed>12.96</speed><time>2016-06-30T13:42:32Z</time><pdop>6.0</pdop><geoidheight>53.00</geoidheight><course>74.9</course><type>1</type></trkpt>
      <trkpt lat="40.66567223" lon="-4.8993005"><ele>2131</ele><speed>10.04</speed><time>2016-06-30T13:42:34Z</time><pdop>9.0</pdop><geoidheight>53.00</geoidheight><course>56.1</course><type>1</type></trkpt>
      <trkpt lat="40.6658423" lon="-4.89932724"><ele>2130</ele><speed>7.59</speed><time>2016-06-30T13:42:36Z</time><pdop>7.0</pdop><geoidheight>53.00</geoidheight><course>16.3</course><type>1</type></trkpt>
      <trkpt lat="40.66601198" lon="-4.8994167"><ele>2129</ele><speed>5.49</speed><time>2016-06-30T13:42:39Z</time><pdop>9.0</pdop><geoidheight>53.00</geoidheight><course>335.3</course><type>1</type></trkpt>
      <trkpt lat="40.66606335" lon="-4.89964777"><ele>2131</ele><speed>6.55</speed><time>2016-06-30T13:42:41Z</time><pdop>10.0</pdop><geoidheight>53.00</geoidheight><course>297.9</course><type>1</type></trkpt>
      <trkpt lat="40.6659312" lon="-4.89988115"><ele>2133</ele><speed>6.72</speed><time>2016-06-30T13:42:43Z</time><pdop>10.0</pdop><geoidheight>53.00</geoidheight><course>249.3</course><type>1</type></trkpt>
      <trkpt lat="40.66573787" lon="-4.90000608"><ele>2134</ele><speed>8.37</speed><time>2016-06-30T13:42:45Z</time><pdop>9.0</pdop><geoidheight>53.00</geoidheight><course>217.9</course><type>1</type></trkpt>
      <trkpt lat="40.66549025" lon="-4.90003105"><ele>2136</ele><speed>10.82</speed><time>2016-06-30T13:42:47Z</time><pdop>11.0</pdop><geoidheight>53.00</geoidheight><course>192.4</course><type>1</type></trkpt>
      <trkpt lat="40.66524417" lon="-4.89987547"><ele>2137</ele><speed>11.42</speed><time>2016-06-30T13:42:49Z</time><pdop>14.0</pdop><geoidheight>53.00</geoidheight><course>166.4</course><type>1</type></trkpt>
      <trkpt lat="40.66512303" lon="-4.89939078"><ele>2146</ele><speed>12.37</speed><time>2016-06-30T13:42:51Z</time><pdop>12.0</pdop><geoidheight>53.00</geoidheight><course>114.3</course><type>1</type></trkpt>
      <trkpt lat="40.66508457" lon="-4.89911111"><ele>2147</ele><speed>14.39</speed><time>2016-06-30T13:42:52Z</time><pdop>12.0</pdop><geoidheight>53.00</geoidheight><course>108.0</course><type>1</type></trkpt>
      <trkpt lat="40.66504822" lon="-4.89868777"><ele>2150</ele><speed>13.58</speed><time>2016-06-30T13:42:54Z</time><pdop>14.0</pdop><geoidheight>53.00</geoidheight><course>100.5</course><type>1</type></trkpt>
      <trkpt lat="40.66533137" lon="-4.89845364"><ele>2153</ele><speed>6.33</speed><time>2016-06-30T13:42:58Z</time><pdop>21.0</pdop><geoidheight>53.00</geoidheight><course>45.8</course><type>1</type></trkpt>
      <trkpt lat="40.66540011" lon="-4.89885827"><ele>2164</ele><speed>3.92</speed><time>2016-06-30T13:43:02Z</time><pdop>12.0</pdop><geoidheight>53.00</geoidheight><course>250.1</course><type>1</type></trkpt>
      <trkpt lat="40.66508179" lon="-4.89901716"><ele>2172</ele><speed>10.98</speed><time>2016-06-30T13:43:04Z</time><pdop>8.0</pdop><geoidheight>53.00</geoidheight><course>188.6</course><type>1</type></trkpt>
      <trkpt lat="40.66486719" lon="-4.89904387"><ele>2179</ele><speed>12.42</speed><time>2016-06-30T13:43:06Z</time><pdop>6.0</pdop><geoidheight>53.00</geoidheight><course>169.4</course><type>1</type></trkpt>
      <trkpt lat="40.6647677" lon="-4.89896965"><ele>2181</ele><speed>13.50</speed><time>2016-06-30T13:43:07Z</time><pdop>6.0</pdop><geoidheight>53.00</geoidheight><course>151.8</course><type>1</type></trkpt>
      <trkpt lat="40.66465256" lon="-4.89889451"><ele>2183</ele><speed>13.91</speed><time>2016-06-30T13:43:08Z</time><pdop>6.0</pdop><geoidheight>53.00</geoidheight><course>150.5</course><type>1</type></trkpt>
      <trkpt lat="40.66462488" lon="-4.89872049"><ele>2186</ele><speed>13.08</speed><time>2016-06-30T13:43:09Z</time><pdop>5.0</pdop><geoidheight>53.00</geoidheight><course>116.8</course><type>1</type></trkpt>
      <trkpt lat="40.66457664" lon="-4.89857732"><ele>2187</ele><speed>12.46</speed><time>2016-06-30T13:43:10Z</time><pdop>6.0</pdop><geoidheight>53.00</geoidheight><course>110.8</course><type>1</type></trkpt>
      <trkpt lat="40.66458807" lon="-4.89842476"><ele>2187</ele><speed>12.18</speed><time>2016-06-30T13:43:11Z</time><pdop>6.0</pdop><geoidheight>53.00</geoidheight><course>90.7</course><type>1</type></trkpt>
      <trkpt lat="40.66460223" lon="-4.89825696"><ele>2188</ele><speed>13.12</speed><time>2016-06-30T13:43:12Z</time><pdop>5.0</pdop><geoidheight>53.00</geoidheight><course>80.9</course><type>1</type></trkpt>
      <trkpt lat="40.66466616" lon="-4.89810471"><ele>2190</ele><speed>13.19</speed><time>2016-06-30T13:43:13Z</time><pdop>5.0</pdop><geoidheight>53.00</geoidheight><course>64.3</course><type>1</type></trkpt>
      <trkpt lat="40.66471661" lon="-4.89794403"><ele>2191</ele><speed>12.89</speed><time>2016-06-30T13:43:14Z</time><pdop>6.0</pdop><geoidheight>53.00</geoidheight><course>62.4</course><type>1</type></trkpt>
      <trkpt lat="40.66484856" lon="-4.89774067"><ele>2193</ele><speed>11.18</speed><time>2016-06-30T13:43:16Z</time><pdop>8.0</pdop><geoidheight>53.00</geoidheight><course>53.1</course><type>1</type></trkpt>
      <trkpt lat="40.66494104" lon="-4.89750728"><ele>2198</ele><speed>10.90</speed><time>2016-06-30T13:43:18Z</time><pdop>6.0</pdop><geoidheight>53.00</geoidheight><course>62.2</course><type>1</type></trkpt>
      <trkpt lat="40.66498823" lon="-4.89739105"><ele>2200</ele><speed>10.98</speed><time>2016-06-30T13:43:19Z</time><pdop>5.0</pdop><geoidheight>53.00</geoidheight><course>57.9</course><type>1</type></trkpt>
      <trkpt lat="40.66505891" lon="-4.89728408"><ele>2200</ele><speed>11.24</speed><time>2016-06-30T13:43:20Z</time><pdop>5.0</pdop><geoidheight>53.00</geoidheight><course>49.1</course><type>1</type></trkpt>
      <trkpt lat="40.66514089" lon="-4.89720505"><ele>2201</ele><speed>10.50</speed><time>2016-06-30T13:43:21Z</time><pdop>6.0</pdop><geoidheight>53.00</geoidheight><course>41.0</course><type>1</type></trkpt>
      <trkpt lat="40.66531318" lon="-4.89725787"><ele>2205</ele><speed>8.02</speed><time>2016-06-30T13:43:23Z</time><pdop>6.0</pdop><geoidheight>53.00</geoidheight><course>345.6</course><type>1</type></trkpt>
      <trkpt lat="40.66546466" lon="-4.89737777"><ele>2208</ele><speed>8.55</speed><time>2016-06-30T13:43:25Z</time><pdop>8.0</pdop><geoidheight>53.00</geoidheight><course>334.7</course><type>1</type></trkpt>
      <trkpt lat="40.6654495" lon="-4.89759961"><ele>2209</ele><speed>6.86</speed><time>2016-06-30T13:43:27Z</time><pdop>10.0</pdop><geoidheight>53.00</geoidheight><course>286.4</course><type>1</type></trkpt>
      <trkpt lat="40.66515504" lon="-4.89789528"><ele>2211</ele><speed>8.91</speed><time>2016-06-30T13:43:30Z</time><pdop>12.0</pdop><geoidheight>53.00</geoidheight><course>226.6</course><type>1</type></trkpt>
      <trkpt lat="40.66493629" lon="-4.89797071"><ele>2212</ele><speed>12.54</speed><time>2016-06-30T13:43:31Z</time><pdop>8.0</pdop><geoidheight>53.00</geoidheight><course>204.3</course><type>1</type></trkpt>
      <trkpt lat="40.66468611" lon="-4.89796007"><ele>2213</ele><speed>12.38</speed><time>2016-06-30T13:43:33Z</time><pdop>11.0</pdop><geoidheight>53.00</geoidheight><course>180.2</course><type>1</type></trkpt>
      <trkpt lat="40.66442305" lon="-4.89771571"><ele>2222</ele><speed>13.71</speed><time>2016-06-30T13:43:35Z</time><pdop>10.0</pdop><geoidheight>53.00</geoidheight><course>145.1</course><type>1</type></trkpt>
      <trkpt lat="40.66426182" lon="-4.8974479"><ele>2226</ele><speed>13.07</speed><time>2016-06-30T13:43:37Z</time><pdop>10.0</pdop><geoidheight>53.00</geoidheight><course>123.4</course><type>1</type></trkpt>
      <trkpt lat="40.66419103" lon="-4.89714213"><ele>2227</ele><speed>13.20</speed><time>2016-06-30T13:43:39Z</time><pdop>9.0</pdop><geoidheight>53.00</geoidheight><course>103.2</course><type>1</type></trkpt>
      <trkpt lat="40.66416748" lon="-4.89681763"><ele>2228</ele><speed>13.27</speed><time>2016-06-30T13:43:41Z</time><pdop>9.0</pdop><geoidheight>53.00</geoidheight><course>96.2</course><type>1</type></trkpt>
      <trkpt lat="40.66420105" lon="-4.8965221"><ele>2233</ele><speed>12.20</speed><time>2016-06-30T13:43:43Z</time><pdop>9.0</pdop><geoidheight>53.00</geoidheight><course>75.5</course><type>1</type></trkpt>
      <trkpt lat="40.66426419" lon="-4.89625208"><ele>2235</ele><speed>12.39</speed><time>2016-06-30T13:43:45Z</time><pdop>10.0</pdop><geoidheight>53.00</geoidheight><course>69.9</course><type>1</type></trkpt>
      <trkpt lat="40.66436429" lon="-4.89601026"><ele>2239</ele><speed>7.77</speed><time>2016-06-30T13:43:48Z</time><pdop>12.0</pdop><geoidheight>53.00</geoidheight><course>61.4</course><type>1</type></trkpt>
      <trkpt lat="40.66458848" lon="-4.89598958"><ele>2242</ele><speed>6.32</speed><time>2016-06-30T13:43:51Z</time><pdop>12.0</pdop><geoidheight>53.00</geoidheight><course>13.5</course><type>1</type></trkpt>
      <trkpt lat="40.66480385" lon="-4.8960751"><ele>2243</ele><speed>7.00</speed><time>2016-06-30T13:43:54Z</time><pdop>12.0</pdop><geoidheight>53.00</geoidheight><course>350.1</course><type>1</type></trkpt>
      <trkpt lat="40.66491375" lon="-4.89630747"><ele>2246</ele><speed>6.90</speed><time>2016-06-30T13:43:57Z</time><pdop>11.0</pdop><geoidheight>53.00</geoidheight><course>305.9</course><type>1</type></trkpt>
      <trkpt lat="40.6646596" lon="-4.896673"><ele>2249</ele><speed>9.37</speed><time>2016-06-30T13:44:00Z</time><pdop>11.0</pdop><geoidheight>53.00</geoidheight><course>226.8</course><type>1</type></trkpt>
      <trkpt lat="40.66437571" lon="-4.89682891"><ele>2252</ele><speed>13.32</speed><time>2016-06-30T13:44:02Z</time><pdop>12.0</pdop><geoidheight>53.00</geoidheight><course>205.8</course><type>1</type></trkpt>
      <trkpt lat="40.66414331" lon="-4.89669997"><ele>2256</ele><speed>10.68</speed><time>2016-06-30T13:44:04Z</time><pdop>11.0</pdop><geoidheight>53.00</geoidheight><course>172.8</course><type>1</type></trkpt>
      <trkpt lat="40.66399873" lon="-4.89644316"><ele>2260</ele><speed>9.82</speed><time>2016-06-30T13:44:06Z</time><pdop>12.0</pdop><geoidheight>53.00</geoidheight><course>137.2</course><type>1</type></trkpt>
      <trkpt lat="40.66399714" lon="-4.89615081"><ele>2260</ele><speed>12.87</speed><time>2016-06-30T13:44:07Z</time><pdop>11.0</pdop><geoidheight>53.00</geoidheight><course>101.5</course><type>1</type></trkpt>
      <trkpt lat="40.66400427" lon="-4.89578433"><ele>2262</ele><speed>12.46</speed><time>2016-06-30T13:44:09Z</time><pdop>11.0</pdop><geoidheight>53.00</geoidheight><course>87.0</course><type>1</type></trkpt>
      <trkpt lat="40.66405064" lon="-4.89544236"><ele>2270</ele><speed>12.91</speed><time>2016-06-30T13:44:11Z</time><pdop>5.0</pdop><geoidheight>53.00</geoidheight><course>75.1</course><type>1</type></trkpt>
      <trkpt lat="40.66408417" lon="-4.89529322"><ele>2276</ele><speed>12.45</speed><time>2016-06-30T13:44:12Z</time><pdop>5.0</pdop><geoidheight>53.00</geoidheight><course>72.6</course><type>1</type></trkpt>
      <trkpt lat="40.66411707" lon="-4.89515743"><ele>2279</ele><speed>11.56</speed><time>2016-06-30T13:44:13Z</time><pdop>6.0</pdop><geoidheight>53.00</geoidheight><course>72.3</course><type>1</type></trkpt>
      <trkpt lat="40.66422825" lon="-4.89495981"><ele>2285</ele><speed>9.63</speed><time>2016-06-30T13:44:15Z</time><pdop>5.0</pdop><geoidheight>53.00</geoidheight><course>55.5</course><type>1</type></trkpt>
      <trkpt lat="40.66432983" lon="-4.89484982"><ele>2286</ele><speed>6.45</speed><time>2016-06-30T13:44:17Z</time><pdop>7.0</pdop><geoidheight>53.00</geoidheight><course>41.1</course><type>1</type></trkpt>
      <trkpt lat="40.66448479" lon="-4.89484091"><ele>2289</ele><speed>5.99</speed><time>2016-06-30T13:44:20Z</time><pdop>5.0</pdop><geoidheight>53.00</geoidheight><course>344.6</course><type>1</type></trkpt>
      <trkpt lat="40.66457537" lon="-4.89494948"><ele>2292</ele><speed>6.33</speed><time>2016-06-30T13:44:22Z</time><pdop>5.0</pdop><geoidheight>53.00</geoidheight><course>314.1</course><type>1</type></trkpt>
      <trkpt lat="40.66463598" lon="-4.89506109"><ele>2295</ele><speed>6.46</speed><time>2016-06-30T13:44:24Z</time><pdop>5.0</pdop><geoidheight>53.00</geoidheight><course>303.1</course><type>1</type></trkpt>
      <trkpt lat="40.66468974" lon="-4.8951961"><ele>2296</ele><speed>5.69</speed><time>2016-06-30T13:44:26Z</time><pdop>5.0</pdop><geoidheight>53.00</geoidheight><course>304.6</course><type>1</type></trkpt>
      <trkpt lat="40.66473868" lon="-4.89536662"><ele>2302</ele><speed>4.02</speed><time>2016-06-30T13:44:30Z</time><pdop>5.0</pdop><geoidheight>53.00</geoidheight><course>281.6</course><type>1</type></trkpt>
      <trkpt lat="40.66469521" lon="-4.8954823"><ele>2312</ele><speed>5.27</speed><time>2016-06-30T13:44:32Z</time><pdop>4.0</pdop><geoidheight>53.00</geoidheight><course>243.8</course><type>1</type></trkpt>
      <trkpt lat="40.66464612" lon="-4.89559067"><ele>2316</ele><speed>4.72</speed><time>2016-06-30T13:44:34Z</time><pdop>6.0</pdop><geoidheight>53.00</geoidheight><course>239.8</course><type>1</type></trkpt>
      <trkpt lat="40.66455758" lon="-4.89570987"><ele>2319</ele><speed>5.72</speed><time>2016-06-30T13:44:36Z</time><pdop>6.0</pdop><geoidheight>53.00</geoidheight><course>235.7</course><type>1</type></trkpt>
      <trkpt lat="40.66460974" lon="-4.89583222"><ele>2324</ele><speed>4.92</speed><time>2016-06-30T13:44:39Z</time><pdop>4.0</pdop><geoidheight>53.00</geoidheight><course>318.9</course><type>1</type></trkpt>
      <trkpt lat="40.66474718" lon="-4.89579185"><ele>2326</ele><speed>6.22</speed><time>2016-06-30T13:44:42Z</time><pdop>7.0</pdop><geoidheight>53.00</geoidheight><course>25.5</course><type>1</type></trkpt>
      <trkpt lat="40.66489826" lon="-4.89552283"><ele>2285</ele><speed>13.59</speed><time>2016-06-30T13:44:44Z</time><pdop>6.0</pdop><geoidheight>53.00</geoidheight><course>56.2</course><type>1</type></trkpt>
      <trkpt lat="40.66496482" lon="-4.89534965"><ele>2302</ele><speed>15.10</speed><time>2016-06-30T13:44:45Z</time><pdop>5.0</pdop><geoidheight>53.00</geoidheight><course>64.2</course><type>1</type></trkpt>
      <trkpt lat="40.66500891" lon="-4.89518793"><ele>2316</ele><speed>13.65</speed><time>2016-06-30T13:44:46Z</time><pdop>4.0</pdop><geoidheight>53.00</geoidheight><course>71.8</course><type>1</type></trkpt>
      <trkpt lat="40.66501538" lon="-4.89507981"><ele>2327</ele><speed>10.91</speed><time>2016-06-30T13:44:47Z</time><pdop>4.0</pdop><geoidheight>53.00</geoidheight><course>78.6</course><type>1</type></trkpt>
      <trkpt lat="40.66501901" lon="-4.89496478"><ele>2334</ele><speed>9.04</speed><time>2016-06-30T13:44:48Z</time><pdop>3.0</pdop><geoidheight>53.00</geoidheight><course>87.8</course><type>1</type></trkpt>
      <trkpt lat="40.66501676" lon="-4.89485961"><ele>2338</ele><speed>9.49</speed><time>2016-06-30T13:44:49Z</time><pdop>3.0</pdop><geoidheight>53.00</geoidheight><course>95.4</course><type>1</type></trkpt>
      <trkpt lat="40.66500245" lon="-4.89472891"><ele>2339</ele><speed>11.40</speed><time>2016-06-30T13:44:50Z</time><pdop>3.0</pdop><geoidheight>53.00</geoidheight><course>99.2</course><type>1</type></trkpt>
      <trkpt lat="40.66497765" lon="-4.89456956"><ele>2340</ele><speed>13.48</speed><time>2016-06-30T13:44:51Z</time><pdop>3.0</pdop><geoidheight>53.00</geoidheight><course>104.5</course><type>1</type></trkpt>
      <trkpt lat="40.66492268" lon="-4.89440719"><ele>2342</ele><speed>14.33</speed><time>2016-06-30T13:44:52Z</time><pdop>3.0</pdop><geoidheight>53.00</geoidheight><course>114.1</course><type>1</type></trkpt>
      <trkpt lat="40.66485104" lon="-4.89426954"><ele>2345</ele><speed>14.26</speed><time>2016-06-30T13:44:53Z</time><pdop>3.0</pdop><geoidheight>53.00</geoidheight><course>124.7</course><type>1</type></trkpt>
      <trkpt lat="40.66476219" lon="-4.89416386"><ele>2346</ele><speed>13.53</speed><time>2016-06-30T13:44:54Z</time><pdop>3.0</pdop><geoidheight>53.00</geoidheight><course>135.0</course><type>1</type></trkpt>
      <trkpt lat="40.66467771" lon="-4.89406897"><ele>2348</ele><speed>12.83</speed><time>2016-06-30T13:44:55Z</time><pdop>3.0</pdop><geoidheight>53.00</geoidheight><course>141.0</course><type>1</type></trkpt>
      <trkpt lat="40.66458662" lon="-4.89397923"><ele>2349</ele><speed>12.95</speed><time>2016-06-30T13:44:56Z</time><pdop>4.0</pdop><geoidheight>53.00</geoidheight><course>143.8</course><type>1</type></trkpt>
      <trkpt lat="40.6644845" lon="-4.89388587"><ele>2351</ele><speed>13.99</speed><time>2016-06-30T13:44:57Z</time><pdop>3.0</pdop><geoidheight>53.00</geoidheight><course>145.7</course><type>1</type></trkpt>
      <trkpt lat="40.66438755" lon="-4.89382779"><ele>2355</ele><speed>13.30</speed><time>2016-06-30T13:44:58Z</time><pdop>3.0</pdop><geoidheight>53.00</geoidheight><course>152.0</course><type>1</type></trkpt>
      <trkpt lat="40.6642994" lon="-4.89380311"><ele>2358</ele><speed>10.79</speed><time>2016-06-30T13:44:59Z</time><pdop>3.0</pdop><geoidheight>53.00</geoidheight><course>164.7</course><type>1</type></trkpt>
      <trkpt lat="40.66421236" lon="-4.8937823"><ele>2360</ele><speed>10.02</speed><time>2016-06-30T13:45:00Z</time><pdop>3.0</pdop><geoidheight>53.00</geoidheight><course>169.9</course><type>1</type></trkpt>
      <trkpt lat="40.66413615" lon="-4.89379308"><ele>2360</ele><speed>9.34</speed><time>2016-06-30T13:45:01Z</time><pdop>5.0</pdop><geoidheight>53.00</geoidheight><course>178.1</course><type>1</type></trkpt>
      <trkpt lat="40.66421759" lon="-4.89399672"><ele>2363</ele><speed>7.47</speed><time>2016-06-30T13:45:03Z</time><pdop>5.0</pdop><geoidheight>53.00</geoidheight><course>284.9</course><type>1</type></trkpt>
      <trkpt lat="40.66424696" lon="-4.89417482"><ele>2364</ele><speed>6.97</speed><time>2016-06-30T13:45:05Z</time><pdop>6.0</pdop><geoidheight>53.00</geoidheight><course>282.9</course><type>1</type></trkpt>
      <trkpt lat="40.66441599" lon="-4.89400032"><ele>2364</ele><speed>6.50</speed><time>2016-06-30T13:45:08Z</time><pdop>8.0</pdop><geoidheight>53.00</geoidheight><course>36.3</course><type>1</type></trkpt>
      <trkpt lat="40.66446508" lon="-4.89357142"><ele>2369</ele><speed>13.48</speed><time>2016-06-30T13:45:10Z</time><pdop>6.0</pdop><geoidheight>53.00</geoidheight><course>87.3</course><type>1</type></trkpt>
      <trkpt lat="40.66446413" lon="-4.89340298"><ele>2372</ele><speed>13.66</speed><time>2016-06-30T13:45:11Z</time><pdop>5.0</pdop><geoidheight>53.00</geoidheight><course>102.7</course><type>1</type></trkpt>
      <trkpt lat="40.66441315" lon="-4.89325964"><ele>2373</ele><speed>13.60</speed><time>2016-06-30T13:45:12Z</time><pdop>4.0</pdop><geoidheight>53.00</geoidheight><course>116.8</course><type>1</type></trkpt>
      <trkpt lat="40.66435546" lon="-4.89313347"><ele>2373</ele><speed>13.75</speed><time>2016-06-30T13:45:13Z</time><pdop>4.0</pdop><geoidheight>53.00</geoidheight><course>123.6</course><type>1</type></trkpt>
      <trkpt lat="40.66429042" lon="-4.89301151"><ele>2373</ele><speed>12.98</speed><time>2016-06-30T13:45:14Z</time><pdop>5.0</pdop><geoidheight>53.00</geoidheight><course>126.3</course><type>1</type></trkpt>
      <trkpt lat="40.66414435" lon="-4.89287128"><ele>2373</ele><speed>9.69</speed><time>2016-06-30T13:45:16Z</time><pdop>6.0</pdop><geoidheight>53.00</geoidheight><course>139.6</course><type>1</type></trkpt>
      <trkpt lat="40.66390221" lon="-4.89303008"><ele>2377</ele><speed>10.43</speed><time>2016-06-30T13:45:18Z</time><pdop>4.0</pdop><geoidheight>53.00</geoidheight><course>196.9</course><type>1</type></trkpt>
      <trkpt lat="40.66381403" lon="-4.89306741"><ele>2378</ele><speed>9.54</speed><time>2016-06-30T13:45:19Z</time><pdop>4.0</pdop><geoidheight>53.00</geoidheight><course>195.3</course><type>1</type></trkpt>
      <trkpt lat="40.66373213" lon="-4.89306417"><ele>2382</ele><speed>9.19</speed><time>2016-06-30T13:45:20Z</time><pdop>4.0</pdop><geoidheight>53.00</geoidheight><course>187.6</course><type>1</type></trkpt>
      <trkpt lat="40.66365535" lon="-4.89306517"><ele>2383</ele><speed>8.80</speed><time>2016-06-30T13:45:21Z</time><pdop>4.0</pdop><geoidheight>53.00</geoidheight><course>184.2</course><type>1</type></trkpt>
      <trkpt lat="40.66357829" lon="-4.89307118"><ele>2385</ele><speed>8.77</speed><time>2016-06-30T13:45:22Z</time><pdop>4.0</pdop><geoidheight>53.00</geoidheight><course>184.1</course><type>1</type></trkpt>
      <trkpt lat="40.66348519" lon="-4.89307545"><ele>2385</ele><speed>9.38</speed><time>2016-06-30T13:45:23Z</time><pdop>4.0</pdop><geoidheight>53.00</geoidheight><course>182.4</course><type>1</type></trkpt>
      <trkpt lat="40.66339607" lon="-4.89308898"><ele>2386</ele><speed>9.82</speed><time>2016-06-30T13:45:24Z</time><pdop>4.0</pdop><geoidheight>53.00</geoidheight><course>185.6</course><type>1</type></trkpt>
      <trkpt lat="40.66331474" lon="-4.89310576"><ele>2387</ele><speed>9.39</speed><time>2016-06-30T13:45:25Z</time><pdop>4.0</pdop><geoidheight>53.00</geoidheight><course>189.9</course><type>1</type></trkpt>
      <trkpt lat="40.663248" lon="-4.89317458"><ele>2388</ele><speed>9.14</speed><time>2016-06-30T13:45:26Z</time><pdop>4.0</pdop><geoidheight>53.00</geoidheight><course>210.0</course><type>1</type></trkpt>
      <trkpt lat="40.66325438" lon="-4.89331491"><ele>2389</ele><speed>3.71</speed><time>2016-06-30T13:45:29Z</time><pdop>6.0</pdop><geoidheight>53.00</geoidheight><course>277.2</course><type>1</type></trkpt>
      <trkpt lat="40.66349838" lon="-4.89314197"><ele>2389</ele><speed>8.68</speed><time>2016-06-30T13:45:33Z</time><pdop>7.0</pdop><geoidheight>53.00</geoidheight><course>45.4</course><type>1</type></trkpt>
      <trkpt lat="40.6635036" lon="-4.89296016"><ele>2391</ele><speed>11.79</speed><time>2016-06-30T13:45:34Z</time><pdop>5.0</pdop><geoidheight>53.00</geoidheight><course>77.9</course><type>1</type></trkpt>
      <trkpt lat="40.66353226" lon="-4.89280023"><ele>2393</ele><speed>12.91</speed><time>2016-06-30T13:45:35Z</time><pdop>5.0</pdop><geoidheight>53.00</geoidheight><course>87.9</course><type>1</type></trkpt>
      <trkpt lat="40.66352144" lon="-4.89263529"><ele>2396</ele><speed>13.69</speed><time>2016-06-30T13:45:36Z</time><pdop>4.0</pdop><geoidheight>53.00</geoidheight><course>99.3</course><type>1</type></trkpt>
      <trkpt lat="40.66348027" lon="-4.89247779"><ele>2399</ele><speed>13.68</speed><time>2016-06-30T13:45:37Z</time><pdop>4.0</pdop><geoidheight>53.00</geoidheight><course>110.7</course><type>1</type></trkpt>
      <trkpt lat="40.66342406" lon="-4.89233008"><ele>2401</ele><speed>13.69</speed><time>2016-06-30T13:45:38Z</time><pdop>4.0</pdop><geoidheight>53.00</geoidheight><course>120.4</course><type>1</type></trkpt>
      <trkpt lat="40.66335204" lon="-4.89224341"><ele>2402</ele><speed>12.67</speed><time>2016-06-30T13:45:39Z</time><pdop>4.0</pdop><geoidheight>53.00</geoidheight><course>133.6</course><type>1</type></trkpt>
      <trkpt lat="40.66326575" lon="-4.89218882"><ele>2404</ele><speed>11.91</speed><time>2016-06-30T13:45:40Z</time><pdop>3.0</pdop><geoidheight>53.00</geoidheight><course>149.7</course><type>1</type></trkpt>
      <trkpt lat="40.66316294" lon="-4.89215375"><ele>2407</ele><speed>11.75</speed><time>2016-06-30T13:45:41Z</time><pdop>3.0</pdop><geoidheight>53.00</geoidheight><course>163.7</course><type>1</type></trkpt>
      <trkpt lat="40.66306565" lon="-4.89213977"><ele>2407</ele><speed>11.51</speed><time>2016-06-30T13:45:42Z</time><pdop>4.0</pdop><geoidheight>53.00</geoidheight><course>172.1</course><type>1</type></trkpt>
      <trkpt lat="40.66296506" lon="-4.89214904"><ele>2406</ele><speed>11.57</speed><time>2016-06-30T13:45:43Z</time><pdop>4.0</pdop><geoidheight>53.00</geoidheight><course>181.5</course><type>1</type></trkpt>
      <trkpt lat="40.66286773" lon="-4.89216849"><ele>2407</ele><speed>10.78</speed><time>2016-06-30T13:45:44Z</time><pdop>3.0</pdop><geoidheight>53.00</geoidheight><course>187.8</course><type>1</type></trkpt>
      <trkpt lat="40.66279795" lon="-4.89220396"><ele>2408</ele><speed>9.48</speed><time>2016-06-30T13:45:45Z</time><pdop>3.0</pdop><geoidheight>53.00</geoidheight><course>196.5</course><type>1</type></trkpt>
      <trkpt lat="40.66272182" lon="-4.89225553"><ele>2409</ele><speed>9.71</speed><time>2016-06-30T13:45:46Z</time><pdop>4.0</pdop><geoidheight>53.00</geoidheight><course>202.0</course><type>1</type></trkpt>
      <trkpt lat="40.6626482" lon="-4.89235181"><ele>2412</ele><speed>7.57</speed><time>2016-06-30T13:45:48Z</time><pdop>6.0</pdop><geoidheight>53.00</geoidheight><course>216.8</course><type>1</type></trkpt>
      <trkpt lat="40.66251333" lon="-4.89246498"><ele>2412</ele><speed>8.05</speed><time>2016-06-30T13:45:50Z</time><pdop>7.0</pdop><geoidheight>53.00</geoidheight><course>216.3</course><type>1</type></trkpt>
      <trkpt lat="40.66239666" lon="-4.89259576"><ele>2412</ele><speed>8.54</speed><time>2016-06-30T13:45:52Z</time><pdop>7.0</pdop><geoidheight>53.00</geoidheight><course>220.0</course><type>1</type></trkpt>
      <trkpt lat="40.66234517" lon="-4.89276562"><ele>2413</ele><speed>8.37</speed><time>2016-06-30T13:45:54Z</time><pdop>6.0</pdop><geoidheight>53.00</geoidheight><course>240.5</course><type>1</type></trkpt>
      <trkpt lat="40.66238782" lon="-4.89291097"><ele>2418</ele><speed>7.19</speed><time>2016-06-30T13:45:56Z</time><pdop>4.0</pdop><geoidheight>53.00</geoidheight><course>300.7</course><type>1</type></trkpt>
      <trkpt lat="40.66250267" lon="-4.89294362"><ele>2423</ele><speed>7.95</speed><time>2016-06-30T13:45:58Z</time><pdop>4.0</pdop><geoidheight>53.00</geoidheight><course>354.6</course><type>1</type></trkpt>
      <trkpt lat="40.66264947" lon="-4.89289698"><ele>2425</ele><speed>9.34</speed><time>2016-06-30T13:46:00Z</time><pdop>6.0</pdop><geoidheight>53.00</geoidheight><course>19.7</course><type>1</type></trkpt>
      <trkpt lat="40.66270556" lon="-4.89257129"><ele>2429</ele><speed>13.26</speed><time>2016-06-30T13:46:02Z</time><pdop>5.0</pdop><geoidheight>53.00</geoidheight><course>66.8</course><type>1</type></trkpt>
      <trkpt lat="40.66274583" lon="-4.89241372"><ele>2429</ele><speed>14.27</speed><time>2016-06-30T13:46:03Z</time><pdop>4.0</pdop><geoidheight>53.00</geoidheight><course>78.7</course><type>1</type></trkpt>
      <trkpt lat="40.66274051" lon="-4.89224097"><ele>2430</ele><speed>14.54</speed><time>2016-06-30T13:46:04Z</time><pdop>3.0</pdop><geoidheight>53.00</geoidheight><course>91.5</course><type>1</type></trkpt>
      <trkpt lat="40.6627051" lon="-4.89208115"><ele>2431</ele><speed>14.52</speed><time>2016-06-30T13:46:05Z</time><pdop>3.0</pdop><geoidheight>53.00</geoidheight><course>104.6</course><type>1</type></trkpt>
      <trkpt lat="40.66264138" lon="-4.89194468"><ele>2432</ele><speed>14.28</speed><time>2016-06-30T13:46:06Z</time><pdop>3.0</pdop><geoidheight>53.00</geoidheight><course>119.5</course><type>1</type></trkpt>
      <trkpt lat="40.66255801" lon="-4.89182117"><ele>2434</ele><speed>13.71</speed><time>2016-06-30T13:46:07Z</time><pdop>3.0</pdop><geoidheight>53.00</geoidheight><course>132.3</course><type>1</type></trkpt>
      <trkpt lat="40.66246361" lon="-4.89171883"><ele>2435</ele><speed>13.92</speed><time>2016-06-30T13:46:08Z</time><pdop>3.0</pdop><geoidheight>53.00</geoidheight><course>141.1</course><type>1</type></trkpt>
      <trkpt lat="40.66235566" lon="-4.89163768"><ele>2436</ele><speed>13.65</speed><time>2016-06-30T13:46:09Z</time><pdop>3.0</pdop><geoidheight>53.00</geoidheight><course>148.5</course><type>1</type></trkpt>
      <trkpt lat="40.66225394" lon="-4.89157296"><ele>2436</ele><speed>13.28</speed><time>2016-06-30T13:46:10Z</time><pdop>3.0</pdop><geoidheight>53.00</geoidheight><course>156.9</course><type>1</type></trkpt>
      <trkpt lat="40.66213813" lon="-4.89154541"><ele>2437</ele><speed>13.10</speed><time>2016-06-30T13:46:11Z</time><pdop>3.0</pdop><geoidheight>53.00</geoidheight><course>168.4</course><type>1</type></trkpt>
      <trkpt lat="40.66202162" lon="-4.89154168"><ele>2439</ele><speed>13.18</speed><time>2016-06-30T13:46:12Z</time><pdop>3.0</pdop><geoidheight>53.00</geoidheight><course>177.9</course><type>1</type></trkpt>
      <trkpt lat="40.6619138" lon="-4.89155794"><ele>2440</ele><speed>12.69</speed><time>2016-06-30T13:46:13Z</time><pdop>3.0</pdop><geoidheight>53.00</geoidheight><course>185.4</course><type>1</type></trkpt>
      <trkpt lat="40.66180602" lon="-4.89158315"><ele>2441</ele><speed>12.21</speed><time>2016-06-30T13:46:14Z</time><pdop>3.0</pdop><geoidheight>53.00</geoidheight><course>190.8</course><type>1</type></trkpt>
      <trkpt lat="40.66169713" lon="-4.89160573"><ele>2444</ele><speed>11.94</speed><time>2016-06-30T13:46:15Z</time><pdop>3.0</pdop><geoidheight>53.00</geoidheight><course>194.2</course><type>1</type></trkpt>
      <trkpt lat="40.66160105" lon="-4.89164759"><ele>2445</ele><speed>11.25</speed><time>2016-06-30T13:46:16Z</time><pdop>3.0</pdop><geoidheight>53.00</geoidheight><course>198.0</course><type>1</type></trkpt>
      <trkpt lat="40.66152006" lon="-4.891699"><ele>2447</ele><speed>10.40</speed><time>2016-06-30T13:46:17Z</time><pdop>3.0</pdop><geoidheight>53.00</geoidheight><course>204.1</course><type>1</type></trkpt>
      <trkpt lat="40.66143428" lon="-4.89175597"><ele>2448</ele><speed>10.49</speed><time>2016-06-30T13:46:18Z</time><pdop>4.0</pdop><geoidheight>53.00</geoidheight><course>207.2</course><type>1</type></trkpt>
      <trkpt lat="40.6613709" lon="-4.89183639"><ele>2447</ele><speed>10.44</speed><time>2016-06-30T13:46:19Z</time><pdop>5.0</pdop><geoidheight>53.00</geoidheight><course>218.3</course><type>1</type></trkpt>
      <trkpt lat="40.66140958" lon="-4.8920022"><ele>2449</ele><speed>7.60</speed><time>2016-06-30T13:46:21Z</time><pdop>3.0</pdop><geoidheight>53.00</geoidheight><course>277.0</course><type>1</type></trkpt>
      <trkpt lat="40.66151349" lon="-4.89211172"><ele>2451</ele><speed>8.90</speed><time>2016-06-30T13:46:23Z</time><pdop>3.0</pdop><geoidheight>53.00</geoidheight><course>331.4</course><type>1</type></trkpt>
      <trkpt lat="40.66159416" lon="-4.89214256"><ele>2451</ele><speed>8.87</speed><time>2016-06-30T13:46:24Z</time><pdop>3.0</pdop><geoidheight>53.00</geoidheight><course>345.0</course><type>1</type></trkpt>
      <trkpt lat="40.66166691" lon="-4.89213652"><ele>2450</ele><speed>8.33</speed><time>2016-06-30T13:46:25Z</time><pdop>5.0</pdop><geoidheight>53.00</geoidheight><course>354.8</course><type>1</type></trkpt>
      <trkpt lat="40.66183826" lon="-4.89200518"><ele>2451</ele><speed>9.75</speed><time>2016-06-30T13:46:27Z</time><pdop>7.0</pdop><geoidheight>53.00</geoidheight><course>20.8</course><type>1</type></trkpt>
      <trkpt lat="40.66184381" lon="-4.8917674"><ele>2451</ele><speed>12.40</speed><time>2016-06-30T13:46:28Z</time><pdop>5.0</pdop><geoidheight>53.00</geoidheight><course>62.9</course><type>1</type></trkpt>
      <trkpt lat="40.66188163" lon="-4.89161671"><ele>2453</ele><speed>13.04</speed><time>2016-06-30T13:46:29Z</time><pdop>5.0</pdop><geoidheight>53.00</geoidheight><course>71.6</course><type>1</type></trkpt>
      <trkpt lat="40.66188806" lon="-4.89145742"><ele>2454</ele><speed>13.31</speed><time>2016-06-30T13:46:30Z</time><pdop>4.0</pdop><geoidheight>53.00</geoidheight><course>79.0</course><type>1</type></trkpt>
      <trkpt lat="40.66190798" lon="-4.89129805"><ele>2454</ele><speed>13.38</speed><time>2016-06-30T13:46:31Z</time><pdop>4.0</pdop><geoidheight>53.00</geoidheight><course>81.1</course><type>1</type></trkpt>
      <trkpt lat="40.66192319" lon="-4.89115042"><ele>2457</ele><speed>13.06</speed><time>2016-06-30T13:46:32Z</time><pdop>3.0</pdop><geoidheight>53.00</geoidheight><course>86.3</course><type>1</type></trkpt>
      <trkpt lat="40.66192097" lon="-4.89099287"><ele>2458</ele><speed>13.16</speed><time>2016-06-30T13:46:33Z</time><pdop>3.0</pdop><geoidheight>53.00</geoidheight><course>94.4</course><type>1</type></trkpt>
      <trkpt lat="40.66190123" lon="-4.89084548"><ele>2459</ele><speed>13.01</speed><time>2016-06-30T13:46:34Z</time><pdop>3.0</pdop><geoidheight>53.00</geoidheight><course>99.5</course><type>1</type></trkpt>
      <trkpt lat="40.66187641" lon="-4.89069962"><ele>2461</ele><speed>12.57</speed><time>2016-06-30T13:46:35Z</time><pdop>3.0</pdop><geoidheight>53.00</geoidheight><course>101.3</course><type>1</type></trkpt>
      <trkpt lat="40.6618527" lon="-4.89055987"><ele>2463</ele><speed>11.85</speed><time>2016-06-30T13:46:36Z</time><pdop>3.0</pdop><geoidheight>53.00</geoidheight><course>102.6</course><type>1</type></trkpt>
      <trkpt lat="40.66182023" lon="-4.89042367"><ele>2464</ele><speed>11.76</speed><time>2016-06-30T13:46:37Z</time><pdop>3.0</pdop><geoidheight>53.00</geoidheight><course>107.9</course><type>1</type></trkpt>
      <trkpt lat="40.66176923" lon="-4.8902988"><ele>2466</ele><speed>11.69</speed><time>2016-06-30T13:46:38Z</time><pdop>3.0</pdop><geoidheight>53.00</geoidheight><course>118.2</course><type>1</type></trkpt>
      <trkpt lat="40.66169703" lon="-4.89017372"><ele>2467</ele><speed>12.49</speed><time>2016-06-30T13:46:39Z</time><pdop>3.0</pdop><geoidheight>53.00</geoidheight><course>129.3</course><type>1</type></trkpt>
      <trkpt lat="40.66160823" lon="-4.89007907"><ele>2467</ele><speed>12.67</speed><time>2016-06-30T13:46:40Z</time><pdop>3.0</pdop><geoidheight>53.00</geoidheight><course>139.8</course><type>1</type></trkpt>
      <trkpt lat="40.66150424" lon="-4.89000748"><ele>2467</ele><speed>13.33</speed><time>2016-06-30T13:46:41Z</time><pdop>3.0</pdop><geoidheight>53.00</geoidheight><course>148.4</course><type>1</type></trkpt>
      <trkpt lat="40.66140348" lon="-4.88994226"><ele>2467</ele><speed>13.32</speed><time>2016-06-30T13:46:42Z</time><pdop>3.0</pdop><geoidheight>53.00</geoidheight><course>155.4</course><type>1</type></trkpt>
      <trkpt lat="40.66128167" lon="-4.88993484"><ele>2471</ele><speed>12.97</speed><time>2016-06-30T13:46:43Z</time><pdop>3.0</pdop><geoidheight>53.00</geoidheight><course>171.0</course><type>1</type></trkpt>
      <trkpt lat="40.66118374" lon="-4.88995122"><ele>2471</ele><speed>11.31</speed><time>2016-06-30T13:46:44Z</time><pdop>3.0</pdop><geoidheight>53.00</geoidheight><course>182.7</course><type>1</type></trkpt>
      <trkpt lat="40.66110127" lon="-4.88999581"><ele>2472</ele><speed>9.66</speed><time>2016-06-30T13:46:45Z</time><pdop>3.0</pdop><geoidheight>53.00</geoidheight><course>198.4</course><type>1</type></trkpt>
      <trkpt lat="40.66102574" lon="-4.89004624"><ele>2473</ele><speed>9.49</speed><time>2016-06-30T13:46:46Z</time><pdop>3.0</pdop><geoidheight>53.00</geoidheight><course>207.8</course><type>1</type></trkpt>
      <trkpt lat="40.66097669" lon="-4.89012093"><ele>2473</ele><speed>8.90</speed><time>2016-06-30T13:46:47Z</time><pdop>3.0</pdop><geoidheight>53.00</geoidheight><course>226.5</course><type>1</type></trkpt>
      <trkpt lat="40.66094245" lon="-4.89020149"><ele>2476</ele><speed>8.23</speed><time>2016-06-30T13:46:48Z</time><pdop>3.0</pdop><geoidheight>53.00</geoidheight><course>237.5</course><type>1</type></trkpt>
      <trkpt lat="40.66092864" lon="-4.89028814"><ele>2473</ele><speed>7.39</speed><time>2016-06-30T13:46:49Z</time><pdop>3.0</pdop><geoidheight>53.00</geoidheight><course>252.9</course><type>1</type></trkpt>
      <trkpt lat="40.6609748" lon="-4.8904076"><ele>2477</ele><speed>6.55</speed><time>2016-06-30T13:46:51Z</time><pdop>3.0</pdop><geoidheight>53.00</geoidheight><course>308.7</course><type>1</type></trkpt>
      <trkpt lat="40.66103964" lon="-4.89042653"><ele>2479</ele><speed>7.17</speed><time>2016-06-30T13:46:52Z</time><pdop>3.0</pdop><geoidheight>53.00</geoidheight><course>338.4</course><type>1</type></trkpt>
      <trkpt lat="40.66109794" lon="-4.89044396"><ele>2480</ele><speed>6.99</speed><time>2016-06-30T13:46:53Z</time><pdop>3.0</pdop><geoidheight>53.00</geoidheight><course>344.3</course><type>1</type></trkpt>
      <trkpt lat="40.66116712" lon="-4.89038813"><ele>2479</ele><speed>7.29</speed><time>2016-06-30T13:46:54Z</time><pdop>4.0</pdop><geoidheight>53.00</geoidheight><course>16.5</course><type>1</type></trkpt>
      <trkpt lat="40.66128839" lon="-4.890264"><ele>2479</ele><speed>8.15</speed><time>2016-06-30T13:46:56Z</time><pdop>6.0</pdop><geoidheight>53.00</geoidheight><course>31.7</course><type>1</type></trkpt>
      <trkpt lat="40.66126326" lon="-4.88994581"><ele>2478</ele><speed>11.83</speed><time>2016-06-30T13:46:58Z</time><pdop>5.0</pdop><geoidheight>53.00</geoidheight><course>93.2</course><type>1</type></trkpt>
      <trkpt lat="40.66123285" lon="-4.88978911"><ele>2478</ele><speed>12.70</speed><time>2016-06-30T13:46:59Z</time><pdop>4.0</pdop><geoidheight>53.00</geoidheight><course>103.4</course><type>1</type></trkpt>
      <trkpt lat="40.66119893" lon="-4.88963953"><ele>2478</ele><speed>13.20</speed><time>2016-06-30T13:47:00Z</time><pdop>4.0</pdop><geoidheight>53.00</geoidheight><course>110.0</course><type>1</type></trkpt>
      <trkpt lat="40.66115107" lon="-4.88949032"><ele>2480</ele><speed>13.41</speed><time>2016-06-30T13:47:01Z</time><pdop>3.0</pdop><geoidheight>53.00</geoidheight><course>115.7</course><type>1</type></trkpt>
      <trkpt lat="40.66109227" lon="-4.88936178"><ele>2482</ele><speed>13.41</speed><time>2016-06-30T13:47:02Z</time><pdop>3.0</pdop><geoidheight>53.00</geoidheight><course>120.5</course><type>1</type></trkpt>
      <trkpt lat="40.66103313" lon="-4.88923183"><ele>2482</ele><speed>13.17</speed><time>2016-06-30T13:47:03Z</time><pdop>3.0</pdop><geoidheight>53.00</geoidheight><course>122.9</course><type>1</type></trkpt>
      <trkpt lat="40.66096714" lon="-4.88910624"><ele>2483</ele><speed>13.00</speed><time>2016-06-30T13:47:04Z</time><pdop>3.0</pdop><geoidheight>53.00</geoidheight><course>125.9</course><type>1</type></trkpt>
      <trkpt lat="40.66090023" lon="-4.88898846"><ele>2483</ele><speed>13.09</speed><time>2016-06-30T13:47:05Z</time><pdop>3.0</pdop><geoidheight>53.00</geoidheight><course>127.8</course><type>1</type></trkpt>
      <trkpt lat="40.66082094" lon="-4.88886524"><ele>2483</ele><speed>13.56</speed><time>2016-06-30T13:47:06Z</time><pdop>3.0</pdop><geoidheight>53.00</geoidheight><course>129.6</course><type>1</type></trkpt>
      <trkpt lat="40.66072905" lon="-4.88874484"><ele>2483</ele><speed>14.27</speed><time>2016-06-30T13:47:07Z</time><pdop>3.0</pdop><geoidheight>53.00</geoidheight><course>134.4</course><type>1</type></trkpt>
      <trkpt lat="40.66062716" lon="-4.88864404"><ele>2485</ele><speed>14.62</speed><time>2016-06-30T13:47:08Z</time><pdop>3.0</pdop><geoidheight>53.00</geoidheight><course>142.6</course><type>1</type></trkpt>
      <trkpt lat="40.66051362" lon="-4.88857928"><ele>2486</ele><speed>14.05</speed><time>2016-06-30T13:47:09Z</time><pdop>3.0</pdop><geoidheight>53.00</geoidheight><course>152.9</course><type>1</type></trkpt>
      <trkpt lat="40.66040642" lon="-4.88852853"><ele>2487</ele><speed>12.80</speed><time>2016-06-30T13:47:10Z</time><pdop>3.0</pdop><geoidheight>53.00</geoidheight><course>162.4</course><type>1</type></trkpt>
      <trkpt lat="40.66030574" lon="-4.88850076"><ele>2487</ele><speed>11.30</speed><time>2016-06-30T13:47:11Z</time><pdop>3.0</pdop><geoidheight>53.00</geoidheight><course>168.9</course><type>1</type></trkpt>
      <trkpt lat="40.66021755" lon="-4.88850268"><ele>2488</ele><speed>10.17</speed><time>2016-06-30T13:47:12Z</time><pdop>3.0</pdop><geoidheight>53.00</geoidheight><course>181.9</course><type>1</type></trkpt>
      <trkpt lat="40.66012509" lon="-4.88853594"><ele>2488</ele><speed>10.35</speed><time>2016-06-30T13:47:13Z</time><pdop>3.0</pdop><geoidheight>53.00</geoidheight><course>195.0</course><type>1</type></trkpt>
      <trkpt lat="40.66005257" lon="-4.88857675"><ele>2490</ele><speed>9.75</speed><time>2016-06-30T13:47:14Z</time><pdop>4.0</pdop><geoidheight>53.00</geoidheight><course>203.2</course><type>1</type></trkpt>
      <trkpt lat="40.659986" lon="-4.88869145"><ele>2491</ele><speed>10.82</speed><time>2016-06-30T13:47:15Z</time><pdop>6.0</pdop><geoidheight>53.00</geoidheight><course>221.3</course><type>1</type></trkpt>
      <trkpt lat="40.65996304" lon="-4.888937"><ele>2490</ele><speed>9.89</speed><time>2016-06-30T13:47:17Z</time><pdop>6.0</pdop><geoidheight>53.00</geoidheight><course>250.3</course><type>1</type></trkpt>
      <trkpt lat="40.65996275" lon="-4.88912613"><ele>2492</ele><speed>7.63</speed><time>2016-06-30T13:47:19Z</time><pdop>7.0</pdop><geoidheight>53.00</geoidheight><course>258.9</course><type>1</type></trkpt>
      <trkpt lat="40.6601388" lon="-4.88918638"><ele>2494</ele><speed>5.98</speed><time>2016-06-30T13:47:21Z</time><pdop>6.0</pdop><geoidheight>53.00</geoidheight><course>312.2</course><type>1</type></trkpt>
      <trkpt lat="40.66025216" lon="-4.88928808"><ele>2495</ele><speed>6.90</speed><time>2016-06-30T13:47:23Z</time><pdop>5.0</pdop><geoidheight>53.00</geoidheight><course>307.9</course><type>1</type></trkpt>
      <trkpt lat="40.66036504" lon="-4.88939298"><ele>2496</ele><speed>7.23</speed><time>2016-06-30T13:47:25Z</time><pdop>4.0</pdop><geoidheight>53.00</geoidheight><course>319.7</course><type>1</type></trkpt>
      <trkpt lat="40.66042401" lon="-4.88942978"><ele>2497</ele><speed>7.10</speed><time>2016-06-30T13:47:26Z</time><pdop>3.0</pdop><geoidheight>53.00</geoidheight><course>327.8</course><type>1</type></trkpt>
      <trkpt lat="40.6604823" lon="-4.88946582"><ele>2498</ele><speed>6.87</speed><time>2016-06-30T13:47:27Z</time><pdop>4.0</pdop><geoidheight>53.00</geoidheight><course>333.6</course><type>1</type></trkpt>
      <trkpt lat="40.66060475" lon="-4.88953848"><ele>2499</ele><speed>7.13</speed><time>2016-06-30T13:47:29Z</time><pdop>3.0</pdop><geoidheight>53.00</geoidheight><course>337.2</course><type>1</type></trkpt>
      <trkpt lat="40.66068314" lon="-4.8895725"><ele>2500</ele><speed>8.02</speed><time>2016-06-30T13:47:30Z</time><pdop>4.0</pdop><geoidheight>53.00</geoidheight><course>341.6</course><type>1</type></trkpt>
      <trkpt lat="40.66076009" lon="-4.88960304"><ele>2501</ele><speed>8.32</speed><time>2016-06-30T13:47:31Z</time><pdop>3.0</pdop><geoidheight>53.00</geoidheight><course>344.3</course><type>1</type></trkpt>
      <trkpt lat="40.66083437" lon="-4.88962462"><ele>2502</ele><speed>8.44</speed><time>2016-06-30T13:47:32Z</time><pdop>3.0</pdop><geoidheight>53.00</geoidheight><course>346.3</course><type>1</type></trkpt>
      <trkpt lat="40.66090164" lon="-4.88965263"><ele>2501</ele><speed>7.97</speed><time>2016-06-30T13:47:33Z</time><pdop>3.0</pdop><geoidheight>53.00</geoidheight><course>343.3</course><type>1</type></trkpt>
      <trkpt lat="40.6609693" lon="-4.88967431"><ele>2500</ele><speed>7.43</speed><time>2016-06-30T13:47:34Z</time><pdop>4.0</pdop><geoidheight>53.00</geoidheight><course>341.9</course><type>1</type></trkpt>
      <trkpt lat="40.66108756" lon="-4.88970765"><ele>2500</ele><speed>6.80</speed><time>2016-06-30T13:47:36Z</time><pdop>4.0</pdop><geoidheight>53.00</geoidheight><course>348.9</course><type>1</type></trkpt>
      <trkpt lat="40.66123621" lon="-4.88971049"><ele>2498</ele><speed>8.90</speed><time>2016-06-30T13:47:38Z</time><pdop>4.0</pdop><geoidheight>53.00</geoidheight><course>355.4</course><type>1</type></trkpt>
      <trkpt lat="40.66131659" lon="-4.88969284"><ele>2498</ele><speed>9.52</speed><time>2016-06-30T13:47:39Z</time><pdop>4.0</pdop><geoidheight>53.00</geoidheight><course>2.3</course><type>1</type></trkpt>
      <trkpt lat="40.6614071" lon="-4.88969863"><ele>2498</ele><speed>9.95</speed><time>2016-06-30T13:47:40Z</time><pdop>4.0</pdop><geoidheight>53.00</geoidheight><course>2.5</course><type>1</type></trkpt>
      <trkpt lat="40.66149533" lon="-4.88968926"><ele>2498</ele><speed>9.34</speed><time>2016-06-30T13:47:41Z</time><pdop>4.0</pdop><geoidheight>53.00</geoidheight><course>4.4</course><type>1</type></trkpt>
      <trkpt lat="40.66156741" lon="-4.88969434"><ele>2501</ele><speed>8.08</speed><time>2016-06-30T13:47:42Z</time><pdop>4.0</pdop><geoidheight>53.00</geoidheight><course>4.9</course><type>1</type></trkpt>
      <trkpt lat="40.66168227" lon="-4.88967916"><ele>2501</ele><speed>6.85</speed><time>2016-06-30T13:47:44Z</time><pdop>6.0</pdop><geoidheight>53.00</geoidheight><course>0.4</course><type>1</type></trkpt>
      <trkpt lat="40.66181273" lon="-4.88974682"><ele>2504</ele><speed>5.54</speed><time>2016-06-30T13:47:47Z</time><pdop>5.0</pdop><geoidheight>53.00</geoidheight><course>342.0</course><type>1</type></trkpt>
      <trkpt lat="40.66190183" lon="-4.88981856"><ele>2507</ele><speed>5.62</speed><time>2016-06-30T13:47:49Z</time><pdop>4.0</pdop><geoidheight>53.00</geoidheight><course>333.2</course><type>1</type></trkpt>
      <trkpt lat="40.66199425" lon="-4.88987371"><ele>2509</ele><speed>5.64</speed><time>2016-06-30T13:47:51Z</time><pdop>3.0</pdop><geoidheight>53.00</geoidheight><course>342.3</course><type>1</type></trkpt>
      <trkpt lat="40.66209347" lon="-4.88987877"><ele>2509</ele><speed>6.32</speed><time>2016-06-30T13:47:53Z</time><pdop>4.0</pdop><geoidheight>53.00</geoidheight><course>0.3</course><type>1</type></trkpt>
      <trkpt lat="40.66220609" lon="-4.88985853"><ele>2510</ele><speed>6.60</speed><time>2016-06-30T13:47:55Z</time><pdop>4.0</pdop><geoidheight>53.00</geoidheight><course>9.2</course><type>1</type></trkpt>
      <trkpt lat="40.66232975" lon="-4.88981746"><ele>2510</ele><speed>7.21</speed><time>2016-06-30T13:47:57Z</time><pdop>4.0</pdop><geoidheight>53.00</geoidheight><course>14.8</course><type>1</type></trkpt>
      <trkpt lat="40.66239715" lon="-4.88978076"><ele>2508</ele><speed>7.21</speed><time>2016-06-30T13:47:58Z</time><pdop>4.0</pdop><geoidheight>53.00</geoidheight><course>14.2</course><type>1</type></trkpt>
      <trkpt lat="40.66252871" lon="-4.88974606"><ele>2511</ele><speed>8.10</speed><time>2016-06-30T13:48:00Z</time><pdop>4.0</pdop><geoidheight>53.00</geoidheight><course>16.1</course><type>1</type></trkpt>
      <trkpt lat="40.66260946" lon="-4.88969839"><ele>2511</ele><speed>8.92</speed><time>2016-06-30T13:48:01Z</time><pdop>4.0</pdop><geoidheight>53.00</geoidheight><course>22.3</course><type>1</type></trkpt>
      <trkpt lat="40.66267864" lon="-4.88966817"><ele>2515</ele><speed>9.20</speed><time>2016-06-30T13:48:02Z</time><pdop>4.0</pdop><geoidheight>53.00</geoidheight><course>23.7</course><type>1</type></trkpt>
      <trkpt lat="40.66275709" lon="-4.88962604"><ele>2518</ele><speed>9.28</speed><time>2016-06-30T13:48:03Z</time><pdop>4.0</pdop><geoidheight>53.00</geoidheight><course>25.9</course><type>1</type></trkpt>
      <trkpt lat="40.66288021" lon="-4.88953235"><ele>2523</ele><speed>8.61</speed><time>2016-06-30T13:48:05Z</time><pdop>5.0</pdop><geoidheight>53.00</geoidheight><course>28.2</course><type>1</type></trkpt>
      <trkpt lat="40.66300208" lon="-4.889448"><ele>2528</ele><speed>8.12</speed><time>2016-06-30T13:48:07Z</time><pdop>4.0</pdop><geoidheight>53.00</geoidheight><course>35.1</course><type>1</type></trkpt>
      <trkpt lat="40.66312496" lon="-4.8892923"><ele>2529</ele><speed>10.26</speed><time>2016-06-30T13:48:09Z</time><pdop>6.0</pdop><geoidheight>53.00</geoidheight><course>48.7</course><type>1</type></trkpt>
      <trkpt lat="40.66317899" lon="-4.88900612"><ele>2530</ele><speed>13.37</speed><time>2016-06-30T13:48:11Z</time><pdop>6.0</pdop><geoidheight>53.00</geoidheight><course>72.2</course><type>1</type></trkpt>
      <trkpt lat="40.6631781" lon="-4.88884555"><ele>2532</ele><speed>13.41</speed><time>2016-06-30T13:48:12Z</time><pdop>7.0</pdop><geoidheight>53.00</geoidheight><course>79.5</course><type>1</type></trkpt>
      <trkpt lat="40.66312706" lon="-4.88866819"><ele>2533</ele><speed>14.08</speed><time>2016-06-30T13:48:13Z</time><pdop>7.0</pdop><geoidheight>53.00</geoidheight><course>92.3</course><type>1</type></trkpt>
      <trkpt lat="40.66308394" lon="-4.88849187"><ele>2534</ele><speed>13.84</speed><time>2016-06-30T13:48:14Z</time><pdop>7.0</pdop><geoidheight>53.00</geoidheight><course>99.0</course><type>1</type></trkpt>
      <trkpt lat="40.66296163" lon="-4.88839406"><ele>2535</ele><speed>12.39</speed><time>2016-06-30T13:48:15Z</time><pdop>6.0</pdop><geoidheight>53.00</geoidheight><course>119.7</course><type>1</type></trkpt>
      <trkpt lat="40.66285137" lon="-4.88832933"><ele>2538</ele><speed>12.16</speed><time>2016-06-30T13:48:16Z</time><pdop>7.0</pdop><geoidheight>53.00</geoidheight><course>133.5</course><type>1</type></trkpt>
      <trkpt lat="40.66269943" lon="-4.88831098"><ele>2539</ele><speed>12.50</speed><time>2016-06-30T13:48:17Z</time><pdop>7.0</pdop><geoidheight>53.00</geoidheight><course>153.0</course><type>1</type></trkpt>
      <trkpt lat="40.6625122" lon="-4.88851777"><ele>2546</ele><speed>10.40</speed><time>2016-06-30T13:48:19Z</time><pdop>10.0</pdop><geoidheight>53.00</geoidheight><course>214.5</course><type>1</type></trkpt>
      <trkpt lat="40.66248728" lon="-4.88872194"><ele>2555</ele><speed>6.15</speed><time>2016-06-30T13:48:22Z</time><pdop>3.0</pdop><geoidheight>53.00</geoidheight><course>306.5</course><type>1</type></trkpt>
      <trkpt lat="40.66254303" lon="-4.88875936"><ele>2556</ele><speed>7.25</speed><time>2016-06-30T13:48:23Z</time><pdop>3.0</pdop><geoidheight>53.00</geoidheight><course>334.3</course><type>1</type></trkpt>
      <trkpt lat="40.66265833" lon="-4.88879962"><ele>2556</ele><speed>6.62</speed><time>2016-06-30T13:48:25Z</time><pdop>6.0</pdop><geoidheight>53.00</geoidheight><course>345.0</course><type>1</type></trkpt>
      <trkpt lat="40.66280231" lon="-4.88863581"><ele>2556</ele><speed>8.83</speed><time>2016-06-30T13:48:27Z</time><pdop>6.0</pdop><geoidheight>53.00</geoidheight><course>28.0</course><type>1</type></trkpt>
      <trkpt lat="40.66286696" lon="-4.88853205"><ele>2558</ele><speed>10.59</speed><time>2016-06-30T13:48:28Z</time><pdop>5.0</pdop><geoidheight>53.00</geoidheight><course>44.4</course><type>1</type></trkpt>
      <trkpt lat="40.66292832" lon="-4.88839267"><ele>2564</ele><speed>12.20</speed><time>2016-06-30T13:48:29Z</time><pdop>4.0</pdop><geoidheight>53.00</geoidheight><course>56.3</course><type>1</type></trkpt>
      <trkpt lat="40.6629757" lon="-4.88826887"><ele>2565</ele><speed>12.88</speed><time>2016-06-30T13:48:30Z</time><pdop>4.0</pdop><geoidheight>53.00</geoidheight><course>63.3</course><type>1</type></trkpt>
      <trkpt lat="40.66300203" lon="-4.88812857"><ele>2565</ele><speed>12.97</speed><time>2016-06-30T13:48:31Z</time><pdop>5.0</pdop><geoidheight>53.00</geoidheight><course>73.7</course><type>1</type></trkpt>
      <trkpt lat="40.6630048" lon="-4.88792886"><ele>2567</ele><speed>15.68</speed><time>2016-06-30T13:48:32Z</time><pdop>4.0</pdop><geoidheight>53.00</geoidheight><course>88.8</course><type>1</type></trkpt>
      <trkpt lat="40.66298131" lon="-4.88775128"><ele>2571</ele><speed>16.44</speed><time>2016-06-30T13:48:33Z</time><pdop>4.0</pdop><geoidheight>53.00</geoidheight><course>100.2</course><type>1</type></trkpt>
      <trkpt lat="40.66293196" lon="-4.88755817"><ele>2573</ele><speed>17.09</speed><time>2016-06-30T13:48:34Z</time><pdop>3.0</pdop><geoidheight>53.00</geoidheight><course>109.9</course><type>1</type></trkpt>
      <trkpt lat="40.66285681" lon="-4.88737543"><ele>2575</ele><speed>17.62</speed><time>2016-06-30T13:48:35Z</time><pdop>4.0</pdop><geoidheight>53.00</geoidheight><course>117.1</course><type>1</type></trkpt>
      <trkpt lat="40.6627741" lon="-4.88720532"><ele>2578</ele><speed>17.70</speed><time>2016-06-30T13:48:36Z</time><pdop>3.0</pdop><geoidheight>53.00</geoidheight><course>124.0</course><type>1</type></trkpt>
      <trkpt lat="40.66267241" lon="-4.88706171"><ele>2579</ele><speed>16.98</speed><time>2016-06-30T13:48:37Z</time><pdop>3.0</pdop><geoidheight>53.00</geoidheight><course>132.9</course><type>1</type></trkpt>
      <trkpt lat="40.66255998" lon="-4.88694995"><ele>2581</ele><speed>16.12</speed><time>2016-06-30T13:48:38Z</time><pdop>3.0</pdop><geoidheight>53.00</geoidheight><course>143.7</course><type>1</type></trkpt>
      <trkpt lat="40.66244067" lon="-4.88688361"><ele>2584</ele><speed>14.29</speed><time>2016-06-30T13:48:39Z</time><pdop>3.0</pdop><geoidheight>53.00</geoidheight><course>156.5</course><type>1</type></trkpt>
      <trkpt lat="40.66232065" lon="-4.88686604"><ele>2585</ele><speed>12.68</speed><time>2016-06-30T13:48:40Z</time><pdop>3.0</pdop><geoidheight>53.00</geoidheight><course>170.8</course><type>1</type></trkpt>
      <trkpt lat="40.66221836" lon="-4.88686863"><ele>2589</ele><speed>11.20</speed><time>2016-06-30T13:48:41Z</time><pdop>3.0</pdop><geoidheight>53.00</geoidheight><course>183.1</course><type>1</type></trkpt>
      <trkpt lat="40.66212137" lon="-4.88687939"><ele>2591</ele><speed>10.98</speed><time>2016-06-30T13:48:42Z</time><pdop>3.0</pdop><geoidheight>53.00</geoidheight><course>184.5</course><type>1</type></trkpt>
      <trkpt lat="40.66205996" lon="-4.88696696"><ele>2592</ele><speed>10.08</speed><time>2016-06-30T13:48:43Z</time><pdop>3.0</pdop><geoidheight>53.00</geoidheight><course>210.6</course><type>1</type></trkpt>
      <trkpt lat="40.66203629" lon="-4.88703886"><ele>2594</ele><speed>7.69</speed><time>2016-06-30T13:48:44Z</time><pdop>3.0</pdop><geoidheight>53.00</geoidheight><course>229.5</course><type>1</type></trkpt>
      <trkpt lat="40.66201948" lon="-4.88711241"><ele>2596</ele><speed>6.44</speed><time>2016-06-30T13:48:45Z</time><pdop>3.0</pdop><geoidheight>53.00</geoidheight><course>250.9</course><type>1</type></trkpt>
      <trkpt lat="40.66207038" lon="-4.88721293"><ele>2601</ele><speed>5.50</speed><time>2016-06-30T13:48:47Z</time><pdop>3.0</pdop><geoidheight>53.00</geoidheight><course>315.1</course><type>1</type></trkpt>
      <trkpt lat="40.66219351" lon="-4.88718686"><ele>2606</ele><speed>8.30</speed><time>2016-06-30T13:48:49Z</time><pdop>3.0</pdop><geoidheight>53.00</geoidheight><course>8.6</course><type>1</type></trkpt>
      <trkpt lat="40.66227409" lon="-4.88716425"><ele>2608</ele><speed>8.64</speed><time>2016-06-30T13:48:50Z</time><pdop>4.0</pdop><geoidheight>53.00</geoidheight><course>12.1</course><type>1</type></trkpt>
      <trkpt lat="40.66234096" lon="-4.88703734"><ele>2609</ele><speed>10.99</speed><time>2016-06-30T13:48:51Z</time><pdop>3.0</pdop><geoidheight>53.00</geoidheight><course>42.8</course><type>1</type></trkpt>
      <trkpt lat="40.66242241" lon="-4.88692721"><ele>2610</ele><speed>12.96</speed><time>2016-06-30T13:48:52Z</time><pdop>4.0</pdop><geoidheight>53.00</geoidheight><course>47.4</course><type>1</type></trkpt>
      <trkpt lat="40.66250039" lon="-4.8868121"><ele>2611</ele><speed>13.00</speed><time>2016-06-30T13:48:53Z</time><pdop>5.0</pdop><geoidheight>53.00</geoidheight><course>47.6</course><type>1</type></trkpt>
      <trkpt lat="40.662485" lon="-4.88660053"><ele>2611</ele><speed>14.84</speed><time>2016-06-30T13:48:54Z</time><pdop>6.0</pdop><geoidheight>53.00</geoidheight><course>71.3</course><type>1</type></trkpt>
      <trkpt lat="40.662376" lon="-4.88638248"><ele>2614</ele><speed>16.47</speed><time>2016-06-30T13:48:55Z</time><pdop>4.0</pdop><geoidheight>53.00</geoidheight><course>103.6</course><type>1</type></trkpt>
      <trkpt lat="40.66233673" lon="-4.886195"><ele>2615</ele><speed>17.04</speed><time>2016-06-30T13:48:56Z</time><pdop>4.0</pdop><geoidheight>53.00</geoidheight><course>106.6</course><type>1</type></trkpt>
      <trkpt lat="40.66227619" lon="-4.88602186"><ele>2616</ele><speed>16.43</speed><time>2016-06-30T13:48:57Z</time><pdop>6.0</pdop><geoidheight>53.00</geoidheight><course>109.9</course><type>1</type></trkpt>
      <trkpt lat="40.66204904" lon="-4.88595743"><ele>2619</ele><speed>11.92</speed><time>2016-06-30T13:48:59Z</time><pdop>5.0</pdop><geoidheight>53.00</geoidheight><course>160.6</course><type>1</type></trkpt>
      <trkpt lat="40.66194738" lon="-4.88594115"><ele>2620</ele><speed>10.61</speed><time>2016-06-30T13:49:00Z</time><pdop>4.0</pdop><geoidheight>53.00</geoidheight><course>173.3</course><type>1</type></trkpt>
      <trkpt lat="40.66185261" lon="-4.88593758"><ele>2620</ele><speed>10.26</speed><time>2016-06-30T13:49:01Z</time><pdop>4.0</pdop><geoidheight>53.00</geoidheight><course>177.3</course><type>1</type></trkpt>
      <trkpt lat="40.66177484" lon="-4.88596968"><ele>2624</ele><speed>9.33</speed><time>2016-06-30T13:49:02Z</time><pdop>5.0</pdop><geoidheight>53.00</geoidheight><course>194.3</course><type>1</type></trkpt>
      <trkpt lat="40.66165333" lon="-4.88608282"><ele>2626</ele><speed>8.22</speed><time>2016-06-30T13:49:04Z</time><pdop>4.0</pdop><geoidheight>53.00</geoidheight><course>221.8</course><type>1</type></trkpt>
      <trkpt lat="40.66160022" lon="-4.88621875"><ele>2629</ele><speed>6.61</speed><time>2016-06-30T13:49:06Z</time><pdop>4.0</pdop><geoidheight>53.00</geoidheight><course>244.6</course><type>1</type></trkpt>
      <trkpt lat="40.66162507" lon="-4.88631953"><ele>2633</ele><speed>4.72</speed><time>2016-06-30T13:49:08Z</time><pdop>3.0</pdop><geoidheight>53.00</geoidheight><course>296.1</course><type>1</type></trkpt>
      <trkpt lat="40.66170678" lon="-4.88637436"><ele>2635</ele><speed>5.34</speed><time>2016-06-30T13:49:10Z</time><pdop>4.0</pdop><geoidheight>53.00</geoidheight><course>334.0</course><type>1</type></trkpt>
      <trkpt lat="40.66179744" lon="-4.88637276"><ele>2635</ele><speed>4.73</speed><time>2016-06-30T13:49:12Z</time><pdop>6.0</pdop><geoidheight>53.00</geoidheight><course>356.7</course><type>1</type></trkpt>
      <trkpt lat="40.66189618" lon="-4.88619658"><ele>2634</ele><speed>8.69</speed><time>2016-06-30T13:49:13Z</time><pdop>6.0</pdop><geoidheight>53.00</geoidheight><course>36.2</course><type>1</type></trkpt>
      <trkpt lat="40.66197323" lon="-4.88605414"><ele>2635</ele><speed>11.45</speed><time>2016-06-30T13:49:14Z</time><pdop>7.0</pdop><geoidheight>53.00</geoidheight><course>48.0</course><type>1</type></trkpt>
      <trkpt lat="40.66193401" lon="-4.88581222"><ele>2637</ele><speed>14.77</speed><time>2016-06-30T13:49:15Z</time><pdop>5.0</pdop><geoidheight>53.00</geoidheight><course>80.6</course><type>1</type></trkpt>
      <trkpt lat="40.6619353" lon="-4.88561068"><ele>2638</ele><speed>16.43</speed><time>2016-06-30T13:49:16Z</time><pdop>5.0</pdop><geoidheight>53.00</geoidheight><course>88.9</course><type>1</type></trkpt>
      <trkpt lat="40.66192212" lon="-4.88539539"><ele>2639</ele><speed>17.02</speed><time>2016-06-30T13:49:17Z</time><pdop>4.0</pdop><geoidheight>53.00</geoidheight><course>96.2</course><type>1</type></trkpt>
      <trkpt lat="40.66189169" lon="-4.88520929"><ele>2639</ele><speed>16.80</speed><time>2016-06-30T13:49:18Z</time><pdop>4.0</pdop><geoidheight>53.00</geoidheight><course>102.7</course><type>1</type></trkpt>
      <trkpt lat="40.66184238" lon="-4.88501986"><ele>2641</ele><speed>16.98</speed><time>2016-06-30T13:49:19Z</time><pdop>4.0</pdop><geoidheight>53.00</geoidheight><course>111.5</course><type>1</type></trkpt>
      <trkpt lat="40.66176029" lon="-4.88484013"><ele>2642</ele><speed>17.12</speed><time>2016-06-30T13:49:20Z</time><pdop>4.0</pdop><geoidheight>53.00</geoidheight><course>121.3</course><type>1</type></trkpt>
      <trkpt lat="40.66166636" lon="-4.8846959"><ele>2634</ele><speed>16.34</speed><time>2016-06-30T13:49:21Z</time><pdop>4.0</pdop><geoidheight>53.00</geoidheight><course>132.4</course><type>1</type></trkpt>
      <trkpt lat="40.66156182" lon="-4.88457784"><ele>2636</ele><speed>15.87</speed><time>2016-06-30T13:49:22Z</time><pdop>4.0</pdop><geoidheight>53.00</geoidheight><course>137.8</course><type>1</type></trkpt>
      <trkpt lat="40.66145072" lon="-4.88449302"><ele>2638</ele><speed>14.89</speed><time>2016-06-30T13:49:23Z</time><pdop>5.0</pdop><geoidheight>53.00</geoidheight><course>145.8</course><type>1</type></trkpt>
      <trkpt lat="40.66133699" lon="-4.88442096"><ele>2639</ele><speed>14.00</speed><time>2016-06-30T13:49:24Z</time><pdop>5.0</pdop><geoidheight>53.00</geoidheight><course>150.5</course><type>1</type></trkpt>
      <trkpt lat="40.66121396" lon="-4.88444682"><ele>2642</ele><speed>13.48</speed><time>2016-06-30T13:49:25Z</time><pdop>4.0</pdop><geoidheight>53.00</geoidheight><course>169.8</course><type>1</type></trkpt>
      <trkpt lat="40.66108955" lon="-4.88442777"><ele>2643</ele><speed>13.73</speed><time>2016-06-30T13:49:26Z</time><pdop>4.0</pdop><geoidheight>53.00</geoidheight><course>177.0</course><type>1</type></trkpt>
      <trkpt lat="40.66096344" lon="-4.88443659"><ele>2646</ele><speed>13.50</speed><time>2016-06-30T13:49:27Z</time><pdop>3.0</pdop><geoidheight>53.00</geoidheight><course>182.6</course><type>1</type></trkpt>
      <trkpt lat="40.66085274" lon="-4.88445324"><ele>2649</ele><speed>13.00</speed><time>2016-06-30T13:49:28Z</time><pdop>3.0</pdop><geoidheight>53.00</geoidheight><course>186.3</course><type>1</type></trkpt>
      <trkpt lat="40.66074904" lon="-4.88448038"><ele>2651</ele><speed>12.34</speed><time>2016-06-30T13:49:29Z</time><pdop>3.0</pdop><geoidheight>53.00</geoidheight><course>191.1</course><type>1</type></trkpt>
      <trkpt lat="40.66065452" lon="-4.88451731"><ele>2654</ele><speed>11.35</speed><time>2016-06-30T13:49:30Z</time><pdop>3.0</pdop><geoidheight>53.00</geoidheight><course>196.2</course><type>1</type></trkpt>
      <trkpt lat="40.6605684" lon="-4.88455595"><ele>2654</ele><speed>10.89</speed><time>2016-06-30T13:49:31Z</time><pdop>4.0</pdop><geoidheight>53.00</geoidheight><course>199.3</course><type>1</type></trkpt>
      <trkpt lat="40.66050436" lon="-4.88461121"><ele>2656</ele><speed>9.84</speed><time>2016-06-30T13:49:32Z</time><pdop>4.0</pdop><geoidheight>53.00</geoidheight><course>208.0</course><type>1</type></trkpt>
      <trkpt lat="40.66044124" lon="-4.88468302"><ele>2657</ele><speed>9.36</speed><time>2016-06-30T13:49:33Z</time><pdop>4.0</pdop><geoidheight>53.00</geoidheight><course>215.5</course><type>1</type></trkpt>
      <trkpt lat="40.66042255" lon="-4.88477277"><ele>2662</ele><speed>4.35</speed><time>2016-06-30T13:49:35Z</time><pdop>3.0</pdop><geoidheight>53.00</geoidheight><course>269.2</course><type>1</type></trkpt>
      <trkpt lat="40.66048508" lon="-4.88483323"><ele>2664</ele><speed>4.36</speed><time>2016-06-30T13:49:37Z</time><pdop>3.0</pdop><geoidheight>53.00</geoidheight><course>320.9</course><type>1</type></trkpt>
      <trkpt lat="40.66058531" lon="-4.884785"><ele>2665</ele><speed>5.36</speed><time>2016-06-30T13:49:39Z</time><pdop>5.0</pdop><geoidheight>53.00</geoidheight><course>14.8</course><type>1</type></trkpt>
      <trkpt lat="40.66064629" lon="-4.88466476"><ele>2665</ele><speed>6.99</speed><time>2016-06-30T13:49:40Z</time><pdop>6.0</pdop><geoidheight>53.00</geoidheight><course>43.8</course><type>1</type></trkpt>
      <trkpt lat="40.66070443" lon="-4.88451716"><ele>2664</ele><speed>9.81</speed><time>2016-06-30T13:49:41Z</time><pdop>6.0</pdop><geoidheight>53.00</geoidheight><course>55.0</course><type>1</type></trkpt>
      <trkpt lat="40.66066677" lon="-4.88432228"><ele>2664</ele><speed>12.04</speed><time>2016-06-30T13:49:42Z</time><pdop>5.0</pdop><geoidheight>53.00</geoidheight><course>84.5</course><type>1</type></trkpt>
      <trkpt lat="40.6606393" lon="-4.88412208"><ele>2665</ele><speed>14.77</speed><time>2016-06-30T13:49:43Z</time><pdop>4.0</pdop><geoidheight>53.00</geoidheight><course>99.7</course><type>1</type></trkpt>
      <trkpt lat="40.66058821" lon="-4.88394642"><ele>2665</ele><speed>15.48</speed><time>2016-06-30T13:49:44Z</time><pdop>4.0</pdop><geoidheight>53.00</geoidheight><course>112.1</course><type>1</type></trkpt>
      <trkpt lat="40.66050011" lon="-4.88377875"><ele>2667</ele><speed>16.47</speed><time>2016-06-30T13:49:45Z</time><pdop>3.0</pdop><geoidheight>53.00</geoidheight><course>122.8</course><type>1</type></trkpt>
      <trkpt lat="40.66041841" lon="-4.88361734"><ele>2667</ele><speed>16.66</speed><time>2016-06-30T13:49:46Z</time><pdop>3.0</pdop><geoidheight>53.00</geoidheight><course>125.0</course><type>1</type></trkpt>
      <trkpt lat="40.66029472" lon="-4.88348302"><ele>2670</ele><speed>17.86</speed><time>2016-06-30T13:49:47Z</time><pdop>3.0</pdop><geoidheight>53.00</geoidheight><course>137.1</course><type>1</type></trkpt>
      <trkpt lat="40.66017138" lon="-4.88336007"><ele>2673</ele><speed>17.42</speed><time>2016-06-30T13:49:48Z</time><pdop>3.0</pdop><geoidheight>53.00</geoidheight><course>141.6</course><type>1</type></trkpt>
      <trkpt lat="40.66005312" lon="-4.88323658"><ele>2674</ele><speed>16.98</speed><time>2016-06-30T13:49:49Z</time><pdop>3.0</pdop><geoidheight>53.00</geoidheight><course>143.7</course><type>1</type></trkpt>
      <trkpt lat="40.65994582" lon="-4.88317747"><ele>2675</ele><speed>14.81</speed><time>2016-06-30T13:49:50Z</time><pdop>3.0</pdop><geoidheight>53.00</geoidheight><course>150.7</course><type>1</type></trkpt>
      <trkpt lat="40.65983558" lon="-4.88309895"><ele>2669</ele><speed>13.95</speed><time>2016-06-30T13:49:51Z</time><pdop>3.0</pdop><geoidheight>53.00</geoidheight><course>152.6</course><type>1</type></trkpt>
      <trkpt lat="40.65971686" lon="-4.88302875"><ele>2672</ele><speed>13.85</speed><time>2016-06-30T13:49:52Z</time><pdop>3.0</pdop><geoidheight>53.00</geoidheight><course>156.8</course><type>1</type></trkpt>
      <trkpt lat="40.65959762" lon="-4.88297212"><ele>2673</ele><speed>13.86</speed><time>2016-06-30T13:49:53Z</time><pdop>3.0</pdop><geoidheight>53.00</geoidheight><course>161.5</course><type>1</type></trkpt>
      <trkpt lat="40.65947658" lon="-4.8829365"><ele>2675</ele><speed>13.61</speed><time>2016-06-30T13:49:54Z</time><pdop>3.0</pdop><geoidheight>53.00</geoidheight><course>167.2</course><type>1</type></trkpt>
      <trkpt lat="40.65923607" lon="-4.88290884"><ele>2678</ele><speed>12.38</speed><time>2016-06-30T13:49:56Z</time><pdop>3.0</pdop><geoidheight>53.00</geoidheight><course>179.8</course><type>1</type></trkpt>
      <trkpt lat="40.65915981" lon="-4.88293396"><ele>2678</ele><speed>10.25</speed><time>2016-06-30T13:49:57Z</time><pdop>4.0</pdop><geoidheight>53.00</geoidheight><course>189.7</course><type>1</type></trkpt>
      <trkpt lat="40.65910239" lon="-4.88304557"><ele>2679</ele><speed>6.01</speed><time>2016-06-30T13:49:59Z</time><pdop>4.0</pdop><geoidheight>53.00</geoidheight><course>223.3</course><type>1</type></trkpt>
      <trkpt lat="40.65916985" lon="-4.88317952"><ele>2680</ele><speed>4.92</speed><time>2016-06-30T13:50:01Z</time><pdop>5.0</pdop><geoidheight>53.00</geoidheight><course>284.6</course><type>1</type></trkpt>
      <trkpt lat="40.65926726" lon="-4.88317125"><ele>2683</ele><speed>4.24</speed><time>2016-06-30T13:50:03Z</time><pdop>4.0</pdop><geoidheight>53.00</geoidheight><course>347.1</course><type>1</type></trkpt>
      <trkpt lat="40.65936434" lon="-4.88318628"><ele>2684</ele><speed>4.60</speed><time>2016-06-30T13:50:05Z</time><pdop>3.0</pdop><geoidheight>53.00</geoidheight><course>356.6</course><type>1</type></trkpt>
      <trkpt lat="40.65947006" lon="-4.88317376"><ele>2686</ele><speed>5.96</speed><time>2016-06-30T13:50:07Z</time><pdop>4.0</pdop><geoidheight>53.00</geoidheight><course>4.3</course><type>1</type></trkpt>
      <trkpt lat="40.65960523" lon="-4.88313636"><ele>2687</ele><speed>7.22</speed><time>2016-06-30T13:50:09Z</time><pdop>4.0</pdop><geoidheight>53.00</geoidheight><course>21.3</course><type>1</type></trkpt>
      <trkpt lat="40.65966354" lon="-4.88310234"><ele>2689</ele><speed>7.36</speed><time>2016-06-30T13:50:10Z</time><pdop>3.0</pdop><geoidheight>53.00</geoidheight><course>30.1</course><type>1</type></trkpt>
      <trkpt lat="40.65971136" lon="-4.88305977"><ele>2690</ele><speed>7.07</speed><time>2016-06-30T13:50:11Z</time><pdop>3.0</pdop><geoidheight>53.00</geoidheight><course>35.5</course><type>1</type></trkpt>
      <trkpt lat="40.65976105" lon="-4.88299979"><ele>2690</ele><speed>7.05</speed><time>2016-06-30T13:50:12Z</time><pdop>3.0</pdop><geoidheight>53.00</geoidheight><course>35.8</course><type>1</type></trkpt>
      <trkpt lat="40.65981763" lon="-4.88295585"><ele>2690</ele><speed>7.13</speed><time>2016-06-30T13:50:13Z</time><pdop>4.0</pdop><geoidheight>53.00</geoidheight><course>31.3</course><type>1</type></trkpt>
      <trkpt lat="40.65988534" lon="-4.88289208"><ele>2689</ele><speed>8.24</speed><time>2016-06-30T13:50:14Z</time><pdop>3.0</pdop><geoidheight>53.00</geoidheight><course>28.7</course><type>1</type></trkpt>
      <trkpt lat="40.65995307" lon="-4.88285972"><ele>2691</ele><speed>8.95</speed><time>2016-06-30T13:50:15Z</time><pdop>3.0</pdop><geoidheight>53.00</geoidheight><course>27.4</course><type>1</type></trkpt>
      <trkpt lat="40.66002395" lon="-4.88280169"><ele>2690</ele><speed>9.24</speed><time>2016-06-30T13:50:16Z</time><pdop>3.0</pdop><geoidheight>53.00</geoidheight><course>31.5</course><type>1</type></trkpt>
      <trkpt lat="40.66009002" lon="-4.88273621"><ele>2691</ele><speed>9.52</speed><time>2016-06-30T13:50:17Z</time><pdop>3.0</pdop><geoidheight>53.00</geoidheight><course>36.8</course><type>1</type></trkpt>
      <trkpt lat="40.66016125" lon="-4.88266043"><ele>2691</ele><speed>10.57</speed><time>2016-06-30T13:50:18Z</time><pdop>3.0</pdop><geoidheight>53.00</geoidheight><course>41.4</course><type>1</type></trkpt>
      <trkpt lat="40.66023299" lon="-4.8825808"><ele>2692</ele><speed>11.06</speed><time>2016-06-30T13:50:19Z</time><pdop>3.0</pdop><geoidheight>53.00</geoidheight><course>40.7</course><type>1</type></trkpt>
      <trkpt lat="40.66031363" lon="-4.88249333"><ele>2693</ele><speed>11.15</speed><time>2016-06-30T13:50:20Z</time><pdop>3.0</pdop><geoidheight>53.00</geoidheight><course>38.0</course><type>1</type></trkpt>
      <trkpt lat="40.66038706" lon="-4.8824151"><ele>2693</ele><speed>10.43</speed><time>2016-06-30T13:50:21Z</time><pdop>3.0</pdop><geoidheight>53.00</geoidheight><course>37.8</course><type>1</type></trkpt>
      <trkpt lat="40.66045107" lon="-4.88233787"><ele>2691</ele><speed>10.03</speed><time>2016-06-30T13:50:22Z</time><pdop>3.0</pdop><geoidheight>53.00</geoidheight><course>36.8</course><type>1</type></trkpt>
      <trkpt lat="40.6605192" lon="-4.88226065"><ele>2690</ele><speed>9.74</speed><time>2016-06-30T13:50:23Z</time><pdop>3.0</pdop><geoidheight>53.00</geoidheight><course>37.5</course><type>1</type></trkpt>
      <trkpt lat="40.66057977" lon="-4.88218609"><ele>2691</ele><speed>9.79</speed><time>2016-06-30T13:50:24Z</time><pdop>3.0</pdop><geoidheight>53.00</geoidheight><course>41.0</course><type>1</type></trkpt>
      <trkpt lat="40.66063897" lon="-4.88210295"><ele>2691</ele><speed>9.25</speed><time>2016-06-30T13:50:25Z</time><pdop>3.0</pdop><geoidheight>53.00</geoidheight><course>44.9</course><type>1</type></trkpt>
      <trkpt lat="40.6607029" lon="-4.88202118"><ele>2690</ele><speed>9.30</speed><time>2016-06-30T13:50:26Z</time><pdop>3.0</pdop><geoidheight>53.00</geoidheight><course>45.2</course><type>1</type></trkpt>
      <trkpt lat="40.66077122" lon="-4.88194692"><ele>2689</ele><speed>9.92</speed><time>2016-06-30T13:50:27Z</time><pdop>3.0</pdop><geoidheight>53.00</geoidheight><course>42.4</course><type>1</type></trkpt>
      <trkpt lat="40.66081781" lon="-4.88186956"><ele>2688</ele><speed>9.69</speed><time>2016-06-30T13:50:28Z</time><pdop>3.0</pdop><geoidheight>53.00</geoidheight><course>41.3</course><type>1</type></trkpt>
      <trkpt lat="40.66089917" lon="-4.88178019"><ele>2688</ele><speed>10.36</speed><time>2016-06-30T13:50:29Z</time><pdop>4.0</pdop><geoidheight>53.00</geoidheight><course>42.0</course><type>1</type></trkpt>
      <trkpt lat="40.66097356" lon="-4.88166869"><ele>2688</ele><speed>11.78</speed><time>2016-06-30T13:50:30Z</time><pdop>4.0</pdop><geoidheight>53.00</geoidheight><course>48.4</course><type>1</type></trkpt>
      <trkpt lat="40.66104362" lon="-4.88154881"><ele>2687</ele><speed>12.96</speed><time>2016-06-30T13:50:31Z</time><pdop>4.0</pdop><geoidheight>53.00</geoidheight><course>53.1</course><type>1</type></trkpt>
      <trkpt lat="40.6611241" lon="-4.8814302"><ele>2687</ele><speed>13.35</speed><time>2016-06-30T13:50:32Z</time><pdop>4.0</pdop><geoidheight>53.00</geoidheight><course>52.9</course><type>1</type></trkpt>
      <trkpt lat="40.66121355" lon="-4.8813094"><ele>2688</ele><speed>13.43</speed><time>2016-06-30T13:50:33Z</time><pdop>4.0</pdop><geoidheight>53.00</geoidheight><course>50.1</course><type>1</type></trkpt>
      <trkpt lat="40.66129825" lon="-4.8811784"><ele>2686</ele><speed>13.35</speed><time>2016-06-30T13:50:34Z</time><pdop>4.0</pdop><geoidheight>53.00</geoidheight><course>50.3</course><type>1</type></trkpt>
      <trkpt lat="40.66137847" lon="-4.88106331"><ele>2685</ele><speed>13.03</speed><time>2016-06-30T13:50:35Z</time><pdop>4.0</pdop><geoidheight>53.00</geoidheight><course>49.9</course><type>1</type></trkpt>
      <trkpt lat="40.66144114" lon="-4.88094462"><ele>2684</ele><speed>13.28</speed><time>2016-06-30T13:50:36Z</time><pdop>3.0</pdop><geoidheight>53.00</geoidheight><course>52.2</course><type>1</type></trkpt>
      <trkpt lat="40.66151736" lon="-4.880816"><ele>2682</ele><speed>13.52</speed><time>2016-06-30T13:50:37Z</time><pdop>4.0</pdop><geoidheight>53.00</geoidheight><course>53.6</course><type>1</type></trkpt>
      <trkpt lat="40.66157855" lon="-4.88069669"><ele>2683</ele><speed>13.27</speed><time>2016-06-30T13:50:38Z</time><pdop>4.0</pdop><geoidheight>53.00</geoidheight><course>52.7</course><type>1</type></trkpt>
      <trkpt lat="40.66163777" lon="-4.88057294"><ele>2682</ele><speed>12.73</speed><time>2016-06-30T13:50:39Z</time><pdop>5.0</pdop><geoidheight>53.00</geoidheight><course>52.9</course><type>1</type></trkpt>
      <trkpt lat="40.66170113" lon="-4.8804556"><ele>2681</ele><speed>12.28</speed><time>2016-06-30T13:50:40Z</time><pdop>4.0</pdop><geoidheight>53.00</geoidheight><course>53.7</course><type>1</type></trkpt>
      <trkpt lat="40.66176507" lon="-4.88033585"><ele>2681</ele><speed>12.55</speed><time>2016-06-30T13:50:41Z</time><pdop>5.0</pdop><geoidheight>53.00</geoidheight><course>54.1</course><type>1</type></trkpt>
      <trkpt lat="40.66183519" lon="-4.8802155"><ele>2680</ele><speed>12.73</speed><time>2016-06-30T13:50:42Z</time><pdop>6.0</pdop><geoidheight>53.00</geoidheight><course>55.0</course><type>1</type></trkpt>
      <trkpt lat="40.66198867" lon="-4.87996467"><ele>2681</ele><speed>13.67</speed><time>2016-06-30T13:50:44Z</time><pdop>10.0</pdop><geoidheight>53.00</geoidheight><course>52.9</course><type>1</type></trkpt>
      <trkpt lat="40.66218171" lon="-4.87961593"><ele>2679</ele><speed>16.17</speed><time>2016-06-30T13:50:46Z</time><pdop>10.0</pdop><geoidheight>53.00</geoidheight><course>52.6</course><type>1</type></trkpt>
      <trkpt lat="40.66235295" lon="-4.8793742"><ele>2676</ele><speed>15.12</speed><time>2016-06-30T13:50:48Z</time><pdop>7.0</pdop><geoidheight>53.00</geoidheight><course>46.3</course><type>1</type></trkpt>
      <trkpt lat="40.66244288" lon="-4.87923685"><ele>2675</ele><speed>15.21</speed><time>2016-06-30T13:50:49Z</time><pdop>6.0</pdop><geoidheight>53.00</geoidheight><course>48.6</course><type>1</type></trkpt>
      <trkpt lat="40.66254287" lon="-4.87908208"><ele>2674</ele><speed>15.72</speed><time>2016-06-30T13:50:50Z</time><pdop>6.0</pdop><geoidheight>53.00</geoidheight><course>50.8</course><type>1</type></trkpt>
      <trkpt lat="40.66260886" lon="-4.87892425"><ele>2674</ele><speed>15.65</speed><time>2016-06-30T13:50:51Z</time><pdop>7.0</pdop><geoidheight>53.00</geoidheight><course>53.6</course><type>1</type></trkpt>
      <trkpt lat="40.66269662" lon="-4.87876757"><ele>2672</ele><speed>15.84</speed><time>2016-06-30T13:50:52Z</time><pdop>9.0</pdop><geoidheight>53.00</geoidheight><course>53.7</course><type>1</type></trkpt>
      <trkpt lat="40.6628089" lon="-4.87858949"><ele>2671</ele><speed>17.17</speed><time>2016-06-30T13:50:53Z</time><pdop>9.0</pdop><geoidheight>53.00</geoidheight><course>53.3</course><type>1</type></trkpt>
      <trkpt lat="40.66302959" lon="-4.87826229"><ele>2669</ele><speed>17.72</speed><time>2016-06-30T13:50:55Z</time><pdop>10.0</pdop><geoidheight>53.00</geoidheight><course>51.6</course><type>1</type></trkpt>
      <trkpt lat="40.66313705" lon="-4.87784007"><ele>2667</ele><speed>18.37</speed><time>2016-06-30T13:50:57Z</time><pdop>10.0</pdop><geoidheight>53.00</geoidheight><course>60.6</course><type>1</type></trkpt>
      <trkpt lat="40.66322296" lon="-4.87747992"><ele>2668</ele><speed>16.79</speed><time>2016-06-30T13:50:59Z</time><pdop>10.0</pdop><geoidheight>53.00</geoidheight><course>63.9</course><type>1</type></trkpt>
      <trkpt lat="40.66328749" lon="-4.87720319"><ele>2670</ele><speed>13.04</speed><time>2016-06-30T13:51:01Z</time><pdop>6.0</pdop><geoidheight>53.00</geoidheight><course>73.2</course><type>1</type></trkpt>
      <trkpt lat="40.66329947" lon="-4.87695408"><ele>2674</ele><speed>10.59</speed><time>2016-06-30T13:51:03Z</time><pdop>5.0</pdop><geoidheight>53.00</geoidheight><course>93.4</course><type>1</type></trkpt>
      <trkpt lat="40.66329647" lon="-4.87673953"><ele>2672</ele><speed>9.67</speed><time>2016-06-30T13:51:05Z</time><pdop>4.0</pdop><geoidheight>53.00</geoidheight><course>91.8</course><type>1</type></trkpt>
      <trkpt lat="40.66331834" lon="-4.87660802"><ele>2672</ele><speed>10.41</speed><time>2016-06-30T13:51:06Z</time><pdop>4.0</pdop><geoidheight>53.00</geoidheight><course>79.5</course><type>1</type></trkpt>
      <trkpt lat="40.66333374" lon="-4.87648606"><ele>2670</ele><speed>11.15</speed><time>2016-06-30T13:51:07Z</time><pdop>5.0</pdop><geoidheight>53.00</geoidheight><course>75.2</course><type>1</type></trkpt>
      <trkpt lat="40.66339601" lon="-4.87634402"><ele>2668</ele><speed>11.95</speed><time>2016-06-30T13:51:08Z</time><pdop>6.0</pdop><geoidheight>53.00</geoidheight><course>69.6</course><type>1</type></trkpt>
      <trkpt lat="40.66346444" lon="-4.87623001"><ele>2668</ele><speed>11.69</speed><time>2016-06-30T13:51:09Z</time><pdop>6.0</pdop><geoidheight>53.00</geoidheight><course>60.4</course><type>1</type></trkpt>
      <trkpt lat="40.66352535" lon="-4.87609631"><ele>2668</ele><speed>12.03</speed><time>2016-06-30T13:51:10Z</time><pdop>5.0</pdop><geoidheight>53.00</geoidheight><course>56.0</course><type>1</type></trkpt>
      <trkpt lat="40.66363193" lon="-4.87594359"><ele>2668</ele><speed>8.84</speed><time>2016-06-30T13:51:12Z</time><pdop>4.0</pdop><geoidheight>53.00</geoidheight><course>53.1</course><type>1</type></trkpt>
      <trkpt lat="40.66369372" lon="-4.87586354"><ele>2665</ele><speed>8.46</speed><time>2016-06-30T13:51:13Z</time><pdop>4.0</pdop><geoidheight>53.00</geoidheight><course>52.6</course><type>1</type></trkpt>
      <trkpt lat="40.66375326" lon="-4.87579116"><ele>2662</ele><speed>8.32</speed><time>2016-06-30T13:51:14Z</time><pdop>4.0</pdop><geoidheight>53.00</geoidheight><course>46.5</course><type>1</type></trkpt>
      <trkpt lat="40.66380437" lon="-4.87572427"><ele>2660</ele><speed>8.71</speed><time>2016-06-30T13:51:15Z</time><pdop>4.0</pdop><geoidheight>53.00</geoidheight><course>41.4</course><type>1</type></trkpt>
      <trkpt lat="40.66393198" lon="-4.87557373"><ele>2658</ele><speed>10.21</speed><time>2016-06-30T13:51:17Z</time><pdop>6.0</pdop><geoidheight>53.00</geoidheight><course>48.1</course><type>1</type></trkpt>
      <trkpt lat="40.66402033" lon="-4.87546767"><ele>2657</ele><speed>11.12</speed><time>2016-06-30T13:51:18Z</time><pdop>6.0</pdop><geoidheight>53.00</geoidheight><course>45.3</course><type>1</type></trkpt>
      <trkpt lat="40.66412605" lon="-4.87533717"><ele>2651</ele><speed>13.89</speed><time>2016-06-30T13:51:19Z</time><pdop>5.0</pdop><geoidheight>53.00</geoidheight><course>47.1</course><type>1</type></trkpt>
      <trkpt lat="40.66422602" lon="-4.87520031"><ele>2647</ele><speed>15.12</speed><time>2016-06-30T13:51:20Z</time><pdop>5.0</pdop><geoidheight>53.00</geoidheight><course>48.3</course><type>1</type></trkpt>
      <trkpt lat="40.66432257" lon="-4.87504526"><ele>2644</ele><speed>15.99</speed><time>2016-06-30T13:51:21Z</time><pdop>4.0</pdop><geoidheight>53.00</geoidheight><course>50.5</course><type>1</type></trkpt>
      <trkpt lat="40.66442603" lon="-4.87489374"><ele>2644</ele><speed>15.96</speed><time>2016-06-30T13:51:22Z</time><pdop>4.0</pdop><geoidheight>53.00</geoidheight><course>52.9</course><type>1</type></trkpt>
      <trkpt lat="40.66449811" lon="-4.87474303"><ele>2644</ele><speed>15.86</speed><time>2016-06-30T13:51:23Z</time><pdop>4.0</pdop><geoidheight>53.00</geoidheight><course>54.9</course><type>1</type></trkpt>
      <trkpt lat="40.6645875" lon="-4.87458059"><ele>2643</ele><speed>16.24</speed><time>2016-06-30T13:51:24Z</time><pdop>5.0</pdop><geoidheight>53.00</geoidheight><course>54.8</course><type>1</type></trkpt>
      <trkpt lat="40.6646797" lon="-4.87440628"><ele>2642</ele><speed>16.71</speed><time>2016-06-30T13:51:25Z</time><pdop>7.0</pdop><geoidheight>53.00</geoidheight><course>55.1</course><type>1</type></trkpt>
      <trkpt lat="40.66470684" lon="-4.87425134"><ele>2642</ele><speed>14.86</speed><time>2016-06-30T13:51:26Z</time><pdop>5.0</pdop><geoidheight>53.00</geoidheight><course>62.6</course><type>1</type></trkpt>
      <trkpt lat="40.66473964" lon="-4.8740994"><ele>2642</ele><speed>14.25</speed><time>2016-06-30T13:51:27Z</time><pdop>5.0</pdop><geoidheight>53.00</geoidheight><course>66.2</course><type>1</type></trkpt>
      <trkpt lat="40.66478783" lon="-4.87395737"><ele>2640</ele><speed>14.32</speed><time>2016-06-30T13:51:28Z</time><pdop>4.0</pdop><geoidheight>53.00</geoidheight><course>67.6</course><type>1</type></trkpt>
      <trkpt lat="40.66483388" lon="-4.87380796"><ele>2640</ele><speed>14.33</speed><time>2016-06-30T13:51:29Z</time><pdop>4.0</pdop><geoidheight>53.00</geoidheight><course>68.5</course><type>1</type></trkpt>
      <trkpt lat="40.66488918" lon="-4.87364789"><ele>2639</ele><speed>14.25</speed><time>2016-06-30T13:51:30Z</time><pdop>4.0</pdop><geoidheight>53.00</geoidheight><course>69.6</course><type>1</type></trkpt>
      <trkpt lat="40.66492006" lon="-4.87350158"><ele>2638</ele><speed>13.68</speed><time>2016-06-30T13:51:31Z</time><pdop>4.0</pdop><geoidheight>53.00</geoidheight><course>71.3</course><type>1</type></trkpt>
      <trkpt lat="40.66496689" lon="-4.87335308"><ele>2638</ele><speed>12.81</speed><time>2016-06-30T13:51:32Z</time><pdop>5.0</pdop><geoidheight>53.00</geoidheight><course>70.3</course><type>1</type></trkpt>
      <trkpt lat="40.66501103" lon="-4.8732233"><ele>2639</ele><speed>12.27</speed><time>2016-06-30T13:51:33Z</time><pdop>4.0</pdop><geoidheight>53.00</geoidheight><course>67.7</course><type>1</type></trkpt>
      <trkpt lat="40.6650474" lon="-4.87309885"><ele>2638</ele><speed>11.60</speed><time>2016-06-30T13:51:34Z</time><pdop>4.0</pdop><geoidheight>53.00</geoidheight><course>69.0</course><type>1</type></trkpt>
      <trkpt lat="40.66508959" lon="-4.87297577"><ele>2638</ele><speed>11.33</speed><time>2016-06-30T13:51:35Z</time><pdop>4.0</pdop><geoidheight>53.00</geoidheight><course>68.6</course><type>1</type></trkpt>
      <trkpt lat="40.66512796" lon="-4.87285207"><ele>2636</ele><speed>11.39</speed><time>2016-06-30T13:51:36Z</time><pdop>4.0</pdop><geoidheight>53.00</geoidheight><course>67.1</course><type>1</type></trkpt>
      <trkpt lat="40.66515827" lon="-4.87273859"><ele>2636</ele><speed>11.08</speed><time>2016-06-30T13:51:37Z</time><pdop>4.0</pdop><geoidheight>53.00</geoidheight><course>67.2</course><type>1</type></trkpt>
      <trkpt lat="40.66519991" lon="-4.87262693"><ele>2634</ele><speed>11.14</speed><time>2016-06-30T13:51:38Z</time><pdop>4.0</pdop><geoidheight>53.00</geoidheight><course>66.0</course><type>1</type></trkpt>
      <trkpt lat="40.66522325" lon="-4.87249987"><ele>2633</ele><speed>11.27</speed><time>2016-06-30T13:51:39Z</time><pdop>4.0</pdop><geoidheight>53.00</geoidheight><course>66.7</course><type>1</type></trkpt>
      <trkpt lat="40.66527473" lon="-4.87236611"><ele>2632</ele><speed>11.92</speed><time>2016-06-30T13:51:40Z</time><pdop>5.0</pdop><geoidheight>53.00</geoidheight><course>65.3</course><type>1</type></trkpt>
      <trkpt lat="40.66533417" lon="-4.87221677"><ele>2632</ele><speed>13.26</speed><time>2016-06-30T13:51:41Z</time><pdop>4.0</pdop><geoidheight>53.00</geoidheight><course>65.1</course><type>1</type></trkpt>
      <trkpt lat="40.66538381" lon="-4.87206418"><ele>2631</ele><speed>14.18</speed><time>2016-06-30T13:51:42Z</time><pdop>4.0</pdop><geoidheight>53.00</geoidheight><course>65.6</course><type>1</type></trkpt>
      <trkpt lat="40.66542243" lon="-4.87192777"><ele>2630</ele><speed>13.58</speed><time>2016-06-30T13:51:43Z</time><pdop>4.0</pdop><geoidheight>53.00</geoidheight><course>65.9</course><type>1</type></trkpt>
      <trkpt lat="40.66546226" lon="-4.87176574"><ele>2630</ele><speed>13.90</speed><time>2016-06-30T13:51:44Z</time><pdop>5.0</pdop><geoidheight>53.00</geoidheight><course>68.3</course><type>1</type></trkpt>
      <trkpt lat="40.66552424" lon="-4.87161252"><ele>2631</ele><speed>13.97</speed><time>2016-06-30T13:51:45Z</time><pdop>6.0</pdop><geoidheight>53.00</geoidheight><course>66.1</course><type>1</type></trkpt>
      <trkpt lat="40.66563916" lon="-4.87149415"><ele>2631</ele><speed>13.91</speed><time>2016-06-30T13:51:46Z</time><pdop>6.0</pdop><geoidheight>53.00</geoidheight><course>58.1</course><type>1</type></trkpt>
      <trkpt lat="40.66573161" lon="-4.87135608"><ele>2631</ele><speed>14.14</speed><time>2016-06-30T13:51:47Z</time><pdop>6.0</pdop><geoidheight>53.00</geoidheight><course>56.4</course><type>1</type></trkpt>
      <trkpt lat="40.66575031" lon="-4.87120773"><ele>2632</ele><speed>13.09</speed><time>2016-06-30T13:51:48Z</time><pdop>6.0</pdop><geoidheight>53.00</geoidheight><course>61.2</course><type>1</type></trkpt>
      <trkpt lat="40.66581547" lon="-4.87100147"><ele>2630</ele><speed>10.84</speed><time>2016-06-30T13:51:50Z</time><pdop>5.0</pdop><geoidheight>53.00</geoidheight><course>60.6</course><type>1</type></trkpt>
      <trkpt lat="40.66585949" lon="-4.87089057"><ele>2629</ele><speed>11.16</speed><time>2016-06-30T13:51:51Z</time><pdop>5.0</pdop><geoidheight>53.00</geoidheight><course>61.3</course><type>1</type></trkpt>
      <trkpt lat="40.66591528" lon="-4.87076003"><ele>2628</ele><speed>11.84</speed><time>2016-06-30T13:51:52Z</time><pdop>4.0</pdop><geoidheight>53.00</geoidheight><course>61.9</course><type>1</type></trkpt>
      <trkpt lat="40.66598994" lon="-4.8706199"><ele>2632</ele><speed>12.80</speed><time>2016-06-30T13:51:53Z</time><pdop>5.0</pdop><geoidheight>53.00</geoidheight><course>60.4</course><type>1</type></trkpt>
      <trkpt lat="40.66605195" lon="-4.87050165"><ele>2631</ele><speed>12.95</speed><time>2016-06-30T13:51:54Z</time><pdop>6.0</pdop><geoidheight>53.00</geoidheight><course>58.8</course><type>1</type></trkpt>
      <trkpt lat="40.6661316" lon="-4.8703576"><ele>2630</ele><speed>13.79</speed><time>2016-06-30T13:51:55Z</time><pdop>4.0</pdop><geoidheight>53.00</geoidheight><course>55.5</course><type>1</type></trkpt>
      <trkpt lat="40.66620532" lon="-4.87022398"><ele>2629</ele><speed>13.74</speed><time>2016-06-30T13:51:56Z</time><pdop>4.0</pdop><geoidheight>53.00</geoidheight><course>56.6</course><type>1</type></trkpt>
      <trkpt lat="40.66625376" lon="-4.87007353"><ele>2628</ele><speed>13.79</speed><time>2016-06-30T13:51:57Z</time><pdop>4.0</pdop><geoidheight>53.00</geoidheight><course>60.6</course><type>1</type></trkpt>
      <trkpt lat="40.66630474" lon="-4.8699321"><ele>2627</ele><speed>13.42</speed><time>2016-06-30T13:51:58Z</time><pdop>4.0</pdop><geoidheight>53.00</geoidheight><course>60.5</course><type>1</type></trkpt>
      <trkpt lat="40.66638318" lon="-4.8698007"><ele>2626</ele><speed>12.98</speed><time>2016-06-30T13:51:59Z</time><pdop>4.0</pdop><geoidheight>53.00</geoidheight><course>54.9</course><type>1</type></trkpt>
      <trkpt lat="40.66644398" lon="-4.86968958"><ele>2624</ele><speed>12.70</speed><time>2016-06-30T13:52:00Z</time><pdop>4.0</pdop><geoidheight>53.00</geoidheight><course>53.0</course><type>1</type></trkpt>
      <trkpt lat="40.66650995" lon="-4.8695667"><ele>2624</ele><speed>12.50</speed><time>2016-06-30T13:52:01Z</time><pdop>4.0</pdop><geoidheight>53.00</geoidheight><course>53.9</course><type>1</type></trkpt>
      <trkpt lat="40.66656451" lon="-4.86944098"><ele>2625</ele><speed>12.42</speed><time>2016-06-30T13:52:02Z</time><pdop>4.0</pdop><geoidheight>53.00</geoidheight><course>57.6</course><type>1</type></trkpt>
      <trkpt lat="40.66661008" lon="-4.86931911"><ele>2625</ele><speed>12.10</speed><time>2016-06-30T13:52:03Z</time><pdop>4.0</pdop><geoidheight>53.00</geoidheight><course>60.4</course><type>1</type></trkpt>
      <trkpt lat="40.66666635" lon="-4.86920179"><ele>2625</ele><speed>11.75</speed><time>2016-06-30T13:52:04Z</time><pdop>4.0</pdop><geoidheight>53.00</geoidheight><course>59.6</course><type>1</type></trkpt>
      <trkpt lat="40.66671883" lon="-4.86908546"><ele>2626</ele><speed>11.42</speed><time>2016-06-30T13:52:05Z</time><pdop>4.0</pdop><geoidheight>53.00</geoidheight><course>61.0</course><type>1</type></trkpt>
      <trkpt lat="40.66676053" lon="-4.86896999"><ele>2628</ele><speed>11.39</speed><time>2016-06-30T13:52:06Z</time><pdop>6.0</pdop><geoidheight>53.00</geoidheight><course>65.1</course><type>1</type></trkpt>
      <trkpt lat="40.66672668" lon="-4.86884117"><ele>2630</ele><speed>10.95</speed><time>2016-06-30T13:52:07Z</time><pdop>4.0</pdop><geoidheight>53.00</geoidheight><course>82.0</course><type>1</type></trkpt>
      <trkpt lat="40.66673683" lon="-4.86871518"><ele>2632</ele><speed>10.80</speed><time>2016-06-30T13:52:08Z</time><pdop>3.0</pdop><geoidheight>53.00</geoidheight><course>84.1</course><type>1</type></trkpt>
      <trkpt lat="40.66675204" lon="-4.86858731"><ele>2634</ele><speed>10.94</speed><time>2016-06-30T13:52:09Z</time><pdop>3.0</pdop><geoidheight>53.00</geoidheight><course>82.7</course><type>1</type></trkpt>
      <trkpt lat="40.66677352" lon="-4.86845825"><ele>2636</ele><speed>11.16</speed><time>2016-06-30T13:52:10Z</time><pdop>3.0</pdop><geoidheight>53.00</geoidheight><course>76.9</course><type>1</type></trkpt>
      <trkpt lat="40.66680991" lon="-4.86833436"><ele>2637</ele><speed>10.98</speed><time>2016-06-30T13:52:11Z</time><pdop>3.0</pdop><geoidheight>53.00</geoidheight><course>74.2</course><type>1</type></trkpt>
      <trkpt lat="40.66683807" lon="-4.86822746"><ele>2637</ele><speed>9.81</speed><time>2016-06-30T13:52:12Z</time><pdop>4.0</pdop><geoidheight>53.00</geoidheight><course>71.6</course><type>1</type></trkpt>
      <trkpt lat="40.66691737" lon="-4.86804117"><ele>2636</ele><speed>8.87</speed><time>2016-06-30T13:52:14Z</time><pdop>7.0</pdop><geoidheight>53.00</geoidheight><course>63.8</course><type>1</type></trkpt>
      <trkpt lat="40.6670468" lon="-4.86789775"><ele>2637</ele><speed>8.59</speed><time>2016-06-30T13:52:16Z</time><pdop>9.0</pdop><geoidheight>53.00</geoidheight><course>50.2</course><type>1</type></trkpt>
      <trkpt lat="40.66725746" lon="-4.86785875"><ele>2647</ele><speed>7.92</speed><time>2016-06-30T13:52:18Z</time><pdop>5.0</pdop><geoidheight>53.00</geoidheight><course>31.2</course><type>1</type></trkpt>
      <trkpt lat="40.66736597" lon="-4.86781945"><ele>2645</ele><speed>6.51</speed><time>2016-06-30T13:52:20Z</time><pdop>6.0</pdop><geoidheight>53.00</geoidheight><course>19.9</course><type>1</type></trkpt>
      <trkpt lat="40.66746503" lon="-4.86792076"><ele>2644</ele><speed>7.20</speed><time>2016-06-30T13:52:22Z</time><pdop>6.0</pdop><geoidheight>53.00</geoidheight><course>330.5</course><type>1</type></trkpt>
      <trkpt lat="40.66745053" lon="-4.86815543"><ele>2646</ele><speed>7.77</speed><time>2016-06-30T13:52:24Z</time><pdop>6.0</pdop><geoidheight>53.00</geoidheight><course>279.7</course><type>1</type></trkpt>
      <trkpt lat="40.66739022" lon="-4.86827886"><ele>2648</ele><speed>7.50</speed><time>2016-06-30T13:52:25Z</time><pdop>5.0</pdop><geoidheight>53.00</geoidheight><course>263.2</course><type>1</type></trkpt>
      <trkpt lat="40.66728347" lon="-4.86835583"><ele>2648</ele><speed>9.35</speed><time>2016-06-30T13:52:26Z</time><pdop>4.0</pdop><geoidheight>53.00</geoidheight><course>225.6</course><type>1</type></trkpt>
      <trkpt lat="40.66720759" lon="-4.86841016"><ele>2649</ele><speed>9.68</speed><time>2016-06-30T13:52:27Z</time><pdop>4.0</pdop><geoidheight>53.00</geoidheight><course>213.9</course><type>1</type></trkpt>
      <trkpt lat="40.66712345" lon="-4.86847608"><ele>2651</ele><speed>10.43</speed><time>2016-06-30T13:52:28Z</time><pdop>4.0</pdop><geoidheight>53.00</geoidheight><course>206.8</course><type>1</type></trkpt>
      <trkpt lat="40.66701074" lon="-4.86850357"><ele>2651</ele><speed>11.78</speed><time>2016-06-30T13:52:29Z</time><pdop>4.0</pdop><geoidheight>53.00</geoidheight><course>191.0</course><type>1</type></trkpt>
      <trkpt lat="40.6669005" lon="-4.86851666"><ele>2651</ele><speed>12.30</speed><time>2016-06-30T13:52:30Z</time><pdop>3.0</pdop><geoidheight>53.00</geoidheight><course>183.5</course><type>1</type></trkpt>
      <trkpt lat="40.66678488" lon="-4.8685068"><ele>2651</ele><speed>12.65</speed><time>2016-06-30T13:52:31Z</time><pdop>3.0</pdop><geoidheight>53.00</geoidheight><course>173.5</course><type>1</type></trkpt>
      <trkpt lat="40.66667544" lon="-4.86843808"><ele>2649</ele><speed>13.89</speed><time>2016-06-30T13:52:32Z</time><pdop>3.0</pdop><geoidheight>53.00</geoidheight><course>157.5</course><type>1</type></trkpt>
      <trkpt lat="40.66655227" lon="-4.86835431"><ele>2649</ele><speed>15.10</speed><time>2016-06-30T13:52:33Z</time><pdop>3.0</pdop><geoidheight>53.00</geoidheight><course>151.9</course><type>1</type></trkpt>
      <trkpt lat="40.66642385" lon="-4.86825013"><ele>2650</ele><speed>15.95</speed><time>2016-06-30T13:52:34Z</time><pdop>5.0</pdop><geoidheight>53.00</geoidheight><course>149.7</course><type>1</type></trkpt>
      <trkpt lat="40.66632814" lon="-4.86810813"><ele>2650</ele><speed>15.74</speed><time>2016-06-30T13:52:35Z</time><pdop>6.0</pdop><geoidheight>53.00</geoidheight><course>142.4</course><type>1</type></trkpt>
      <trkpt lat="40.66634993" lon="-4.86787949"><ele>2652</ele><speed>14.84</speed><time>2016-06-30T13:52:36Z</time><pdop>4.0</pdop><geoidheight>53.00</geoidheight><course>110.8</course><type>1</type></trkpt>
      <trkpt lat="40.66632892" lon="-4.86770507"><ele>2653</ele><speed>13.77</speed><time>2016-06-30T13:52:37Z</time><pdop>4.0</pdop><geoidheight>53.00</geoidheight><course>105.0</course><type>1</type></trkpt>
      <trkpt lat="40.66629546" lon="-4.86754641"><ele>2654</ele><speed>13.17</speed><time>2016-06-30T13:52:38Z</time><pdop>4.0</pdop><geoidheight>53.00</geoidheight><course>103.9</course><type>1</type></trkpt>
      <trkpt lat="40.66627282" lon="-4.86738411"><ele>2654</ele><speed>13.29</speed><time>2016-06-30T13:52:39Z</time><pdop>3.0</pdop><geoidheight>53.00</geoidheight><course>102.6</course><type>1</type></trkpt>
      <trkpt lat="40.66625223" lon="-4.86721776"><ele>2652</ele><speed>13.18</speed><time>2016-06-30T13:52:40Z</time><pdop>3.0</pdop><geoidheight>53.00</geoidheight><course>98.6</course><type>1</type></trkpt>
      <trkpt lat="40.66625414" lon="-4.86704516"><ele>2652</ele><speed>13.55</speed><time>2016-06-30T13:52:41Z</time><pdop>4.0</pdop><geoidheight>53.00</geoidheight><course>91.7</course><type>1</type></trkpt>
      <trkpt lat="40.66626776" lon="-4.86688268"><ele>2651</ele><speed>13.47</speed><time>2016-06-30T13:52:42Z</time><pdop>4.0</pdop><geoidheight>53.00</geoidheight><course>88.4</course><type>1</type></trkpt>
      <trkpt lat="40.66626634" lon="-4.86675113"><ele>2651</ele><speed>12.25</speed><time>2016-06-30T13:52:43Z</time><pdop>5.0</pdop><geoidheight>53.00</geoidheight><course>88.6</course><type>1</type></trkpt>
      <trkpt lat="40.66637936" lon="-4.86651632"><ele>2652</ele><speed>11.28</speed><time>2016-06-30T13:52:45Z</time><pdop>7.0</pdop><geoidheight>53.00</geoidheight><course>70.3</course><type>1</type></trkpt>
      <trkpt lat="40.66643909" lon="-4.86629957"><ele>2655</ele><speed>9.90</speed><time>2016-06-30T13:52:47Z</time><pdop>7.0</pdop><geoidheight>53.00</geoidheight><course>71.3</course><type>1</type></trkpt>
      <trkpt lat="40.66654109" lon="-4.86607794"><ele>2655</ele><speed>9.56</speed><time>2016-06-30T13:52:49Z</time><pdop>6.0</pdop><geoidheight>53.00</geoidheight><course>70.4</course><type>1</type></trkpt>
      <trkpt lat="40.66658986" lon="-4.86595491"><ele>2656</ele><speed>10.06</speed><time>2016-06-30T13:52:50Z</time><pdop>5.0</pdop><geoidheight>53.00</geoidheight><course>72.5</course><type>1</type></trkpt>
      <trkpt lat="40.66660273" lon="-4.86582012"><ele>2656</ele><speed>10.78</speed><time>2016-06-30T13:52:51Z</time><pdop>5.0</pdop><geoidheight>53.00</geoidheight><course>77.5</course><type>1</type></trkpt>
      <trkpt lat="40.66662771" lon="-4.86569186"><ele>2657</ele><speed>10.74</speed><time>2016-06-30T13:52:52Z</time><pdop>4.0</pdop><geoidheight>53.00</geoidheight><course>78.0</course><type>1</type></trkpt>
      <trkpt lat="40.66666257" lon="-4.86557665"><ele>2660</ele><speed>10.07</speed><time>2016-06-30T13:52:53Z</time><pdop>4.0</pdop><geoidheight>53.00</geoidheight><course>77.7</course><type>1</type></trkpt>
      <trkpt lat="40.66668377" lon="-4.86547331"><ele>2662</ele><speed>9.32</speed><time>2016-06-30T13:52:54Z</time><pdop>3.0</pdop><geoidheight>53.00</geoidheight><course>78.7</course><type>1</type></trkpt>
      <trkpt lat="40.66669584" lon="-4.86537031"><ele>2663</ele><speed>9.00</speed><time>2016-06-30T13:52:55Z</time><pdop>4.0</pdop><geoidheight>53.00</geoidheight><course>80.7</course><type>1</type></trkpt>
      <trkpt lat="40.66671449" lon="-4.86526161"><ele>2664</ele><speed>9.05</speed><time>2016-06-30T13:52:56Z</time><pdop>4.0</pdop><geoidheight>53.00</geoidheight><course>76.0</course><type>1</type></trkpt>
      <trkpt lat="40.66676038" lon="-4.86515705"><ele>2664</ele><speed>9.52</speed><time>2016-06-30T13:52:57Z</time><pdop>5.0</pdop><geoidheight>53.00</geoidheight><course>68.2</course><type>1</type></trkpt>
      <trkpt lat="40.66681282" lon="-4.86504425"><ele>2665</ele><speed>10.32</speed><time>2016-06-30T13:52:58Z</time><pdop>4.0</pdop><geoidheight>53.00</geoidheight><course>61.8</course><type>1</type></trkpt>
      <trkpt lat="40.66687557" lon="-4.86492565"><ele>2666</ele><speed>11.57</speed><time>2016-06-30T13:52:59Z</time><pdop>4.0</pdop><geoidheight>53.00</geoidheight><course>58.4</course><type>1</type></trkpt>
      <trkpt lat="40.66693579" lon="-4.86480371"><ele>2668</ele><speed>12.13</speed><time>2016-06-30T13:53:00Z</time><pdop>5.0</pdop><geoidheight>53.00</geoidheight><course>60.5</course><type>1</type></trkpt>
      <trkpt lat="40.66698286" lon="-4.86469031"><ele>2668</ele><speed>11.55</speed><time>2016-06-30T13:53:01Z</time><pdop>5.0</pdop><geoidheight>53.00</geoidheight><course>62.4</course><type>1</type></trkpt>
      <trkpt lat="40.66701341" lon="-4.86456481"><ele>2669</ele><speed>11.67</speed><time>2016-06-30T13:53:02Z</time><pdop>4.0</pdop><geoidheight>53.00</geoidheight><course>70.1</course><type>1</type></trkpt>
      <trkpt lat="40.66705055" lon="-4.86443152"><ele>2670</ele><speed>11.77</speed><time>2016-06-30T13:53:03Z</time><pdop>4.0</pdop><geoidheight>53.00</geoidheight><course>70.7</course><type>1</type></trkpt>
      <trkpt lat="40.66708476" lon="-4.86429509"><ele>2672</ele><speed>11.71</speed><time>2016-06-30T13:53:04Z</time><pdop>4.0</pdop><geoidheight>53.00</geoidheight><course>72.3</course><type>1</type></trkpt>
      <trkpt lat="40.66710398" lon="-4.86415321"><ele>2673</ele><speed>11.56</speed><time>2016-06-30T13:53:05Z</time><pdop>4.0</pdop><geoidheight>53.00</geoidheight><course>71.1</course><type>1</type></trkpt>
      <trkpt lat="40.66714727" lon="-4.8640239"><ele>2674</ele><speed>11.26</speed><time>2016-06-30T13:53:06Z</time><pdop>4.0</pdop><geoidheight>53.00</geoidheight><course>67.7</course><type>1</type></trkpt>
      <trkpt lat="40.66718683" lon="-4.86389766"><ele>2674</ele><speed>11.45</speed><time>2016-06-30T13:53:07Z</time><pdop>4.0</pdop><geoidheight>53.00</geoidheight><course>67.5</course><type>1</type></trkpt>
      <trkpt lat="40.66722837" lon="-4.86376246"><ele>2673</ele><speed>11.76</speed><time>2016-06-30T13:53:08Z</time><pdop>6.0</pdop><geoidheight>53.00</geoidheight><course>67.9</course><type>1</type></trkpt>
      <trkpt lat="40.66736293" lon="-4.86352895"><ele>2673</ele><speed>12.31</speed><time>2016-06-30T13:53:10Z</time><pdop>4.0</pdop><geoidheight>53.00</geoidheight><course>59.0</course><type>1</type></trkpt>
      <trkpt lat="40.66743579" lon="-4.86339161"><ele>2673</ele><speed>13.10</speed><time>2016-06-30T13:53:11Z</time><pdop>4.0</pdop><geoidheight>53.00</geoidheight><course>58.7</course><type>1</type></trkpt>
      <trkpt lat="40.66748921" lon="-4.86326051"><ele>2673</ele><speed>12.99</speed><time>2016-06-30T13:53:12Z</time><pdop>5.0</pdop><geoidheight>53.00</geoidheight><course>58.6</course><type>1</type></trkpt>
      <trkpt lat="40.66753034" lon="-4.86314586"><ele>2675</ele><speed>10.94</speed><time>2016-06-30T13:53:13Z</time><pdop>4.0</pdop><geoidheight>53.00</geoidheight><course>58.3</course><type>1</type></trkpt>
      <trkpt lat="40.66758055" lon="-4.86304962"><ele>2676</ele><speed>10.00</speed><time>2016-06-30T13:53:14Z</time><pdop>4.0</pdop><geoidheight>53.00</geoidheight><course>59.0</course><type>1</type></trkpt>
      <trkpt lat="40.66760793" lon="-4.86294336"><ele>2678</ele><speed>10.09</speed><time>2016-06-30T13:53:15Z</time><pdop>4.0</pdop><geoidheight>53.00</geoidheight><course>67.8</course><type>1</type></trkpt>
      <trkpt lat="40.66763938" lon="-4.86280956"><ele>2677</ele><speed>11.08</speed><time>2016-06-30T13:53:16Z</time><pdop>4.0</pdop><geoidheight>53.00</geoidheight><course>71.0</course><type>1</type></trkpt>
      <trkpt lat="40.66769869" lon="-4.86263901"><ele>2676</ele><speed>14.26</speed><time>2016-06-30T13:53:17Z</time><pdop>4.0</pdop><geoidheight>53.00</geoidheight><course>67.3</course><type>1</type></trkpt>
      <trkpt lat="40.66775324" lon="-4.86245938"><ele>2676</ele><speed>16.14</speed><time>2016-06-30T13:53:18Z</time><pdop>4.0</pdop><geoidheight>53.00</geoidheight><course>68.3</course><type>1</type></trkpt>
      <trkpt lat="40.6678047" lon="-4.86226441"><ele>2676</ele><speed>17.05</speed><time>2016-06-30T13:53:19Z</time><pdop>4.0</pdop><geoidheight>53.00</geoidheight><course>71.1</course><type>1</type></trkpt>
      <trkpt lat="40.66786371" lon="-4.86207335"><ele>2676</ele><speed>16.95</speed><time>2016-06-30T13:53:20Z</time><pdop>4.0</pdop><geoidheight>53.00</geoidheight><course>70.7</course><type>1</type></trkpt>
      <trkpt lat="40.66786023" lon="-4.86193223"><ele>2677</ele><speed>13.73</speed><time>2016-06-30T13:53:21Z</time><pdop>4.0</pdop><geoidheight>53.00</geoidheight><course>78.6</course><type>1</type></trkpt>
      <trkpt lat="40.66790091" lon="-4.86178496"><ele>2678</ele><speed>12.72</speed><time>2016-06-30T13:53:22Z</time><pdop>5.0</pdop><geoidheight>53.00</geoidheight><course>76.1</course><type>1</type></trkpt>
      <trkpt lat="40.66788437" lon="-4.86156853"><ele>2680</ele><speed>9.37</speed><time>2016-06-30T13:53:24Z</time><pdop>4.0</pdop><geoidheight>53.00</geoidheight><course>85.0</course><type>1</type></trkpt>
      <trkpt lat="40.6679009" lon="-4.8614612"><ele>2682</ele><speed>9.14</speed><time>2016-06-30T13:53:25Z</time><pdop>3.0</pdop><geoidheight>53.00</geoidheight><course>84.2</course><type>1</type></trkpt>
      <trkpt lat="40.6679131" lon="-4.86134536"><ele>2682</ele><speed>9.24</speed><time>2016-06-30T13:53:26Z</time><pdop>4.0</pdop><geoidheight>53.00</geoidheight><course>84.5</course><type>1</type></trkpt>
      <trkpt lat="40.66791694" lon="-4.86109863"><ele>2683</ele><speed>10.92</speed><time>2016-06-30T13:53:28Z</time><pdop>3.0</pdop><geoidheight>53.00</geoidheight><course>89.1</course><type>1</type></trkpt>
      <trkpt lat="40.66792431" lon="-4.86096628"><ele>2683</ele><speed>11.44</speed><time>2016-06-30T13:53:29Z</time><pdop>3.0</pdop><geoidheight>53.00</geoidheight><course>89.1</course><type>1</type></trkpt>
      <trkpt lat="40.66792452" lon="-4.86083288"><ele>2683</ele><speed>11.53</speed><time>2016-06-30T13:53:30Z</time><pdop>3.0</pdop><geoidheight>53.00</geoidheight><course>90.7</course><type>1</type></trkpt>
      <trkpt lat="40.66791927" lon="-4.86069494"><ele>2683</ele><speed>11.75</speed><time>2016-06-30T13:53:31Z</time><pdop>3.0</pdop><geoidheight>53.00</geoidheight><course>91.5</course><type>1</type></trkpt>
      <trkpt lat="40.66791166" lon="-4.86054897"><ele>2684</ele><speed>12.04</speed><time>2016-06-30T13:53:32Z</time><pdop>4.0</pdop><geoidheight>53.00</geoidheight><course>93.2</course><type>1</type></trkpt>
      <trkpt lat="40.66792984" lon="-4.86039703"><ele>2678</ele><speed>13.62</speed><time>2016-06-30T13:53:33Z</time><pdop>4.0</pdop><geoidheight>53.00</geoidheight><course>88.0</course><type>1</type></trkpt>
      <trkpt lat="40.66794734" lon="-4.86023298"><ele>2671</ele><speed>15.13</speed><time>2016-06-30T13:53:34Z</time><pdop>3.0</pdop><geoidheight>53.00</geoidheight><course>81.8</course><type>1</type></trkpt>
      <trkpt lat="40.66797156" lon="-4.86007462"><ele>2664</ele><speed>15.57</speed><time>2016-06-30T13:53:35Z</time><pdop>4.0</pdop><geoidheight>53.00</geoidheight><course>78.9</course><type>1</type></trkpt>
      <trkpt lat="40.66801309" lon="-4.85991981"><ele>2658</ele><speed>14.91</speed><time>2016-06-30T13:53:36Z</time><pdop>4.0</pdop><geoidheight>53.00</geoidheight><course>74.3</course><type>1</type></trkpt>
      <trkpt lat="40.6680449" lon="-4.85976848"><ele>2651</ele><speed>14.20</speed><time>2016-06-30T13:53:37Z</time><pdop>4.0</pdop><geoidheight>53.00</geoidheight><course>72.4</course><type>1</type></trkpt>
      <trkpt lat="40.66807965" lon="-4.85961737"><ele>2647</ele><speed>13.87</speed><time>2016-06-30T13:53:38Z</time><pdop>5.0</pdop><geoidheight>53.00</geoidheight><course>72.3</course><type>1</type></trkpt>
      <trkpt lat="40.66816194" lon="-4.85937189"><ele>2639</ele><speed>12.22</speed><time>2016-06-30T13:53:40Z</time><pdop>4.0</pdop><geoidheight>53.00</geoidheight><course>65.9</course><type>1</type></trkpt>
      <trkpt lat="40.66822161" lon="-4.85926357"><ele>2633</ele><speed>11.62</speed><time>2016-06-30T13:53:41Z</time><pdop>4.0</pdop><geoidheight>53.00</geoidheight><course>59.5</course><type>1</type></trkpt>
      <trkpt lat="40.66826705" lon="-4.85917015"><ele>2631</ele><speed>10.70</speed><time>2016-06-30T13:53:42Z</time><pdop>5.0</pdop><geoidheight>53.00</geoidheight><course>56.8</course><type>1</type></trkpt>
      <trkpt lat="40.6683516" lon="-4.85907869"><ele>2632</ele><speed>11.36</speed><time>2016-06-30T13:53:43Z</time><pdop>4.0</pdop><geoidheight>53.00</geoidheight><course>45.8</course><type>1</type></trkpt>
      <trkpt lat="40.66842882" lon="-4.85898477"><ele>2632</ele><speed>11.35</speed><time>2016-06-30T13:53:44Z</time><pdop>5.0</pdop><geoidheight>53.00</geoidheight><course>43.5</course><type>1</type></trkpt>
      <trkpt lat="40.66848854" lon="-4.85889498"><ele>2632</ele><speed>10.68</speed><time>2016-06-30T13:53:45Z</time><pdop>4.0</pdop><geoidheight>53.00</geoidheight><course>47.0</course><type>1</type></trkpt>
      <trkpt lat="40.66853188" lon="-4.85880531"><ele>2632</ele><speed>9.77</speed><time>2016-06-30T13:53:46Z</time><pdop>4.0</pdop><geoidheight>53.00</geoidheight><course>49.6</course><type>1</type></trkpt>
      <trkpt lat="40.66865309" lon="-4.85862186"><ele>2633</ele><speed>5.92</speed><time>2016-06-30T13:53:49Z</time><pdop>4.0</pdop><geoidheight>53.00</geoidheight><course>58.2</course><type>1</type></trkpt>
      <trkpt lat="40.66868135" lon="-4.85851349"><ele>2644</ele><speed>4.49</speed><time>2016-06-30T13:53:51Z</time><pdop>4.0</pdop><geoidheight>53.00</geoidheight><course>83.8</course><type>1</type></trkpt>
      <trkpt lat="40.66874873" lon="-4.8584387"><ele>2640</ele><speed>4.97</speed><time>2016-06-30T13:53:53Z</time><pdop>4.0</pdop><geoidheight>53.00</geoidheight><course>45.9</course><type>1</type></trkpt>
      <trkpt lat="40.66888934" lon="-4.85830436"><ele>2645</ele><speed>8.99</speed><time>2016-06-30T13:53:55Z</time><pdop>6.0</pdop><geoidheight>53.00</geoidheight><course>42.3</course><type>1</type></trkpt>
      <trkpt lat="40.66899558" lon="-4.85822275"><ele>2642</ele><speed>10.96</speed><time>2016-06-30T13:53:56Z</time><pdop>7.0</pdop><geoidheight>53.00</geoidheight><course>38.8</course><type>1</type></trkpt>
      <trkpt lat="40.66913606" lon="-4.85813534"><ele>2638</ele><speed>13.63</speed><time>2016-06-30T13:53:57Z</time><pdop>6.0</pdop><geoidheight>53.00</geoidheight><course>36.0</course><type>1</type></trkpt>
      <trkpt lat="40.66923952" lon="-4.85803421"><ele>2634</ele><speed>13.62</speed><time>2016-06-30T13:53:58Z</time><pdop>6.0</pdop><geoidheight>53.00</geoidheight><course>39.6</course><type>1</type></trkpt>
      <trkpt lat="40.66933873" lon="-4.85794032"><ele>2631</ele><speed>13.42</speed><time>2016-06-30T13:53:59Z</time><pdop>6.0</pdop><geoidheight>53.00</geoidheight><course>41.2</course><type>1</type></trkpt>
      <trkpt lat="40.66941945" lon="-4.85784238"><ele>2629</ele><speed>13.33</speed><time>2016-06-30T13:54:00Z</time><pdop>6.0</pdop><geoidheight>53.00</geoidheight><course>42.8</course><type>1</type></trkpt>
      <trkpt lat="40.66951829" lon="-4.85774145"><ele>2626</ele><speed>13.91</speed><time>2016-06-30T13:54:01Z</time><pdop>6.0</pdop><geoidheight>53.00</geoidheight><course>43.0</course><type>1</type></trkpt>
      <trkpt lat="40.66960881" lon="-4.85761633"><ele>2623</ele><speed>14.45</speed><time>2016-06-30T13:54:02Z</time><pdop>7.0</pdop><geoidheight>53.00</geoidheight><course>46.0</course><type>1</type></trkpt>
      <trkpt lat="40.66968074" lon="-4.85747227"><ele>2621</ele><speed>14.81</speed><time>2016-06-30T13:54:03Z</time><pdop>7.0</pdop><geoidheight>53.00</geoidheight><course>47.9</course><type>1</type></trkpt>
      <trkpt lat="40.66979054" lon="-4.85734661"><ele>2618</ele><speed>15.61</speed><time>2016-06-30T13:54:04Z</time><pdop>7.0</pdop><geoidheight>53.00</geoidheight><course>44.3</course><type>1</type></trkpt>
      <trkpt lat="40.66990208" lon="-4.85721256"><ele>2616</ele><speed>15.91</speed><time>2016-06-30T13:54:05Z</time><pdop>8.0</pdop><geoidheight>53.00</geoidheight><course>43.4</course><type>1</type></trkpt>
      <trkpt lat="40.67000893" lon="-4.85707163"><ele>2615</ele><speed>16.08</speed><time>2016-06-30T13:54:06Z</time><pdop>8.0</pdop><geoidheight>53.00</geoidheight><course>44.2</course><type>1</type></trkpt>
      <trkpt lat="40.67017082" lon="-4.85679661"><ele>2612</ele><speed>16.12</speed><time>2016-06-30T13:54:08Z</time><pdop>11.0</pdop><geoidheight>53.00</geoidheight><course>51.2</course><type>1</type></trkpt>
      <trkpt lat="40.67033366" lon="-4.85651211"><ele>2608</ele><speed>15.51</speed><time>2016-06-30T13:54:10Z</time><pdop>9.0</pdop><geoidheight>53.00</geoidheight><course>47.9</course><type>1</type></trkpt>
      <trkpt lat="40.67050863" lon="-4.85623211"><ele>2604</ele><speed>15.48</speed><time>2016-06-30T13:54:12Z</time><pdop>9.0</pdop><geoidheight>53.00</geoidheight><course>50.2</course><type>1</type></trkpt>
      <trkpt lat="40.6706924" lon="-4.8559262"><ele>2600</ele><speed>16.32</speed><time>2016-06-30T13:54:14Z</time><pdop>8.0</pdop><geoidheight>53.00</geoidheight><course>52.0</course><type>1</type></trkpt>
      <trkpt lat="40.6709114" lon="-4.85560329"><ele>2597</ele><speed>17.68</speed><time>2016-06-30T13:54:16Z</time><pdop>10.0</pdop><geoidheight>53.00</geoidheight><course>51.3</course><type>1</type></trkpt>
      <trkpt lat="40.67115075" lon="-4.85528057"><ele>2593</ele><speed>18.39</speed><time>2016-06-30T13:54:18Z</time><pdop>11.0</pdop><geoidheight>53.00</geoidheight><course>47.3</course><type>1</type></trkpt>
      <trkpt lat="40.67134539" lon="-4.85493219"><ele>2592</ele><speed>17.93</speed><time>2016-06-30T13:54:20Z</time><pdop>12.0</pdop><geoidheight>53.00</geoidheight><course>51.0</course><type>1</type></trkpt>
      <trkpt lat="40.67150736" lon="-4.85464389"><ele>2588</ele><speed>16.85</speed><time>2016-06-30T13:54:22Z</time><pdop>13.0</pdop><geoidheight>53.00</geoidheight><course>52.2</course><type>1</type></trkpt>
      <trkpt lat="40.67158156" lon="-4.85438894"><ele>2583</ele><speed>14.62</speed><time>2016-06-30T13:54:24Z</time><pdop>10.0</pdop><geoidheight>53.00</geoidheight><course>57.3</course><type>1</type></trkpt>
      <trkpt lat="40.67173025" lon="-4.85410254"><ele>2579</ele><speed>14.90</speed><time>2016-06-30T13:54:26Z</time><pdop>8.0</pdop><geoidheight>53.00</geoidheight><course>50.9</course><type>1</type></trkpt>
      <trkpt lat="40.671899" lon="-4.85381839"><ele>2574</ele><speed>15.08</speed><time>2016-06-30T13:54:28Z</time><pdop>9.0</pdop><geoidheight>53.00</geoidheight><course>52.9</course><type>1</type></trkpt>
      <trkpt lat="40.67203287" lon="-4.85354821"><ele>2570</ele><speed>14.08</speed><time>2016-06-30T13:54:30Z</time><pdop>7.0</pdop><geoidheight>53.00</geoidheight><course>51.5</course><type>1</type></trkpt>
      <trkpt lat="40.67222323" lon="-4.85331025"><ele>2565</ele><speed>14.64</speed><time>2016-06-30T13:54:32Z</time><pdop>7.0</pdop><geoidheight>53.00</geoidheight><course>41.7</course><type>1</type></trkpt>
      <trkpt lat="40.67233408" lon="-4.85319901"><ele>2564</ele><speed>14.63</speed><time>2016-06-30T13:54:33Z</time><pdop>8.0</pdop><geoidheight>53.00</geoidheight><course>41.0</course><type>1</type></trkpt>
      <trkpt lat="40.6725435" lon="-4.85294321"><ele>2558</ele><speed>15.25</speed><time>2016-06-30T13:54:35Z</time><pdop>7.0</pdop><geoidheight>53.00</geoidheight><course>42.4</course><type>1</type></trkpt>
      <trkpt lat="40.6726506" lon="-4.85283782"><ele>2556</ele><speed>14.99</speed><time>2016-06-30T13:54:36Z</time><pdop>6.0</pdop><geoidheight>53.00</geoidheight><course>38.8</course><type>1</type></trkpt>
      <trkpt lat="40.67276227" lon="-4.85273445"><ele>2555</ele><speed>14.45</speed><time>2016-06-30T13:54:37Z</time><pdop>7.0</pdop><geoidheight>53.00</geoidheight><course>36.6</course><type>1</type></trkpt>
      <trkpt lat="40.67286375" lon="-4.85262814"><ele>2554</ele><speed>14.48</speed><time>2016-06-30T13:54:38Z</time><pdop>7.0</pdop><geoidheight>53.00</geoidheight><course>38.0</course><type>1</type></trkpt>
      <trkpt lat="40.67306357" lon="-4.8523888"><ele>2552</ele><speed>15.09</speed><time>2016-06-30T13:54:40Z</time><pdop>12.0</pdop><geoidheight>53.00</geoidheight><course>42.7</course><type>1</type></trkpt>
      <trkpt lat="40.67320746" lon="-4.8521156"><ele>2547</ele><speed>15.34</speed><time>2016-06-30T13:54:42Z</time><pdop>14.0</pdop><geoidheight>53.00</geoidheight><course>50.6</course><type>1</type></trkpt>
      <trkpt lat="40.67337929" lon="-4.85188821"><ele>2541</ele><speed>13.78</speed><time>2016-06-30T13:54:44Z</time><pdop>8.0</pdop><geoidheight>53.00</geoidheight><course>41.9</course><type>1</type></trkpt>
      <trkpt lat="40.67358769" lon="-4.85167982"><ele>2536</ele><speed>13.27</speed><time>2016-06-30T13:54:46Z</time><pdop>8.0</pdop><geoidheight>53.00</geoidheight><course>39.9</course><type>1</type></trkpt>
      <trkpt lat="40.67375314" lon="-4.85149934"><ele>2531</ele><speed>12.35</speed><time>2016-06-30T13:54:48Z</time><pdop>8.0</pdop><geoidheight>53.00</geoidheight><course>40.0</course><type>1</type></trkpt>
      <trkpt lat="40.67387812" lon="-4.85142301"><ele>2528</ele><speed>14.31</speed><time>2016-06-30T13:54:49Z</time><pdop>7.0</pdop><geoidheight>53.00</geoidheight><course>33.6</course><type>1</type></trkpt>
      <trkpt lat="40.67407413" lon="-4.85118483"><ele>2525</ele><speed>15.34</speed><time>2016-06-30T13:54:51Z</time><pdop>8.0</pdop><geoidheight>53.00</geoidheight><course>39.9</course><type>1</type></trkpt>
      <trkpt lat="40.6742623" lon="-4.85088119"><ele>2523</ele><speed>16.46</speed><time>2016-06-30T13:54:53Z</time><pdop>8.0</pdop><geoidheight>53.00</geoidheight><course>50.5</course><type>1</type></trkpt>
      <trkpt lat="40.67446861" lon="-4.85063622"><ele>2519</ele><speed>14.81</speed><time>2016-06-30T13:54:55Z</time><pdop>8.0</pdop><geoidheight>53.00</geoidheight><course>44.5</course><type>1</type></trkpt>
      <trkpt lat="40.67458329" lon="-4.8504643"><ele>2515</ele><speed>10.89</speed><time>2016-06-30T13:54:57Z</time><pdop>8.0</pdop><geoidheight>53.00</geoidheight><course>45.7</course><type>1</type></trkpt>
      <trkpt lat="40.67468814" lon="-4.85029167"><ele>2511</ele><speed>9.64</speed><time>2016-06-30T13:54:59Z</time><pdop>10.0</pdop><geoidheight>53.00</geoidheight><course>55.3</course><type>1</type></trkpt>
      <trkpt lat="40.67482031" lon="-4.85001594"><ele>2501</ele><speed>9.83</speed><time>2016-06-30T13:55:02Z</time><pdop>10.0</pdop><geoidheight>53.00</geoidheight><course>56.4</course><type>1</type></trkpt>
      <trkpt lat="40.6749677" lon="-4.84980743"><ele>2499</ele><speed>10.95</speed><time>2016-06-30T13:55:04Z</time><pdop>10.0</pdop><geoidheight>53.00</geoidheight><course>50.2</course><type>1</type></trkpt>
      <trkpt lat="40.67511921" lon="-4.84962639"><ele>2498</ele><speed>11.92</speed><time>2016-06-30T13:55:06Z</time><pdop>10.0</pdop><geoidheight>53.00</geoidheight><course>45.4</course><type>1</type></trkpt>
      <trkpt lat="40.67526611" lon="-4.84941877"><ele>2495</ele><speed>11.88</speed><time>2016-06-30T13:55:08Z</time><pdop>10.0</pdop><geoidheight>53.00</geoidheight><course>46.8</course><type>1</type></trkpt>
      <trkpt lat="40.67539268" lon="-4.84921554"><ele>2491</ele><speed>11.54</speed><time>2016-06-30T13:55:10Z</time><pdop>10.0</pdop><geoidheight>53.00</geoidheight><course>50.3</course><type>1</type></trkpt>
      <trkpt lat="40.67552474" lon="-4.84898977"><ele>2491</ele><speed>11.87</speed><time>2016-06-30T13:55:12Z</time><pdop>12.0</pdop><geoidheight>53.00</geoidheight><course>50.7</course><type>1</type></trkpt>
      <trkpt lat="40.67574883" lon="-4.84876261"><ele>2484</ele><speed>14.17</speed><time>2016-06-30T13:55:14Z</time><pdop>11.0</pdop><geoidheight>53.00</geoidheight><course>42.3</course><type>1</type></trkpt>
      <trkpt lat="40.6759387" lon="-4.84855431"><ele>2482</ele><speed>13.90</speed><time>2016-06-30T13:55:16Z</time><pdop>11.0</pdop><geoidheight>53.00</geoidheight><course>43.4</course><type>1</type></trkpt>
      <trkpt lat="40.67608484" lon="-4.84831686"><ele>2480</ele><speed>12.28</speed><time>2016-06-30T13:55:18Z</time><pdop>10.0</pdop><geoidheight>53.00</geoidheight><course>50.0</course><type>1</type></trkpt>
      <trkpt lat="40.67621618" lon="-4.84814846"><ele>2475</ele><speed>11.60</speed><time>2016-06-30T13:55:20Z</time><pdop>10.0</pdop><geoidheight>53.00</geoidheight><course>44.9</course><type>1</type></trkpt>
      <trkpt lat="40.67638092" lon="-4.84795749"><ele>2472</ele><speed>12.64</speed><time>2016-06-30T13:55:22Z</time><pdop>10.0</pdop><geoidheight>53.00</geoidheight><course>36.9</course><type>1</type></trkpt>
      <trkpt lat="40.67659063" lon="-4.84779153"><ele>2468</ele><speed>13.35</speed><time>2016-06-30T13:55:24Z</time><pdop>9.0</pdop><geoidheight>53.00</geoidheight><course>34.1</course><type>1</type></trkpt>
      <trkpt lat="40.67682114" lon="-4.84761196"><ele>2469</ele><speed>14.37</speed><time>2016-06-30T13:55:26Z</time><pdop>9.0</pdop><geoidheight>53.00</geoidheight><course>31.1</course><type>1</type></trkpt>
      <trkpt lat="40.6770163" lon="-4.84746466"><ele>2469</ele><speed>12.77</speed><time>2016-06-30T13:55:28Z</time><pdop>10.0</pdop><geoidheight>53.00</geoidheight><course>29.6</course><type>1</type></trkpt>
      <trkpt lat="40.67709954" lon="-4.84728827"><ele>2468</ele><speed>10.34</speed><time>2016-06-30T13:55:30Z</time><pdop>4.0</pdop><geoidheight>53.00</geoidheight><course>45.9</course><type>1</type></trkpt>
      <trkpt lat="40.67716802" lon="-4.84721392"><ele>2466</ele><speed>10.23</speed><time>2016-06-30T13:55:31Z</time><pdop>5.0</pdop><geoidheight>53.00</geoidheight><course>44.8</course><type>1</type></trkpt>
      <trkpt lat="40.67725956" lon="-4.84715051"><ele>2464</ele><speed>10.77</speed><time>2016-06-30T13:55:32Z</time><pdop>4.0</pdop><geoidheight>53.00</geoidheight><course>37.0</course><type>1</type></trkpt>
      <trkpt lat="40.67730832" lon="-4.84705497"><ele>2463</ele><speed>10.74</speed><time>2016-06-30T13:55:33Z</time><pdop>5.0</pdop><geoidheight>53.00</geoidheight><course>40.3</course><type>1</type></trkpt>
      <trkpt lat="40.67754701" lon="-4.84686828"><ele>2462</ele><speed>14.67</speed><time>2016-06-30T13:55:35Z</time><pdop>5.0</pdop><geoidheight>53.00</geoidheight><course>32.0</course><type>1</type></trkpt>
      <trkpt lat="40.67766411" lon="-4.84677165"><ele>2460</ele><speed>14.87</speed><time>2016-06-30T13:55:36Z</time><pdop>6.0</pdop><geoidheight>53.00</geoidheight><course>31.2</course><type>1</type></trkpt>
      <trkpt lat="40.67777279" lon="-4.84667727"><ele>2460</ele><speed>14.66</speed><time>2016-06-30T13:55:37Z</time><pdop>6.0</pdop><geoidheight>53.00</geoidheight><course>32.3</course><type>1</type></trkpt>
      <trkpt lat="40.67788521" lon="-4.84658544"><ele>2459</ele><speed>13.33</speed><time>2016-06-30T13:55:38Z</time><pdop>6.0</pdop><geoidheight>53.00</geoidheight><course>32.9</course><type>1</type></trkpt>
      <trkpt lat="40.67798192" lon="-4.84651064"><ele>2459</ele><speed>12.44</speed><time>2016-06-30T13:55:39Z</time><pdop>5.0</pdop><geoidheight>53.00</geoidheight><course>33.2</course><type>1</type></trkpt>
      <trkpt lat="40.67808926" lon="-4.84643899"><ele>2458</ele><speed>12.45</speed><time>2016-06-30T13:55:40Z</time><pdop>5.0</pdop><geoidheight>53.00</geoidheight><course>30.1</course><type>1</type></trkpt>
      <trkpt lat="40.67821073" lon="-4.84635363"><ele>2457</ele><speed>13.62</speed><time>2016-06-30T13:55:41Z</time><pdop>4.0</pdop><geoidheight>53.00</geoidheight><course>28.7</course><type>1</type></trkpt>
      <trkpt lat="40.67831926" lon="-4.8462735"><ele>2457</ele><speed>14.30</speed><time>2016-06-30T13:55:42Z</time><pdop>4.0</pdop><geoidheight>53.00</geoidheight><course>29.4</course><type>1</type></trkpt>
      <trkpt lat="40.67841706" lon="-4.84617267"><ele>2456</ele><speed>14.00</speed><time>2016-06-30T13:55:43Z</time><pdop>4.0</pdop><geoidheight>53.00</geoidheight><course>36.6</course><type>1</type></trkpt>
      <trkpt lat="40.6785119" lon="-4.84608"><ele>2455</ele><speed>13.63</speed><time>2016-06-30T13:55:44Z</time><pdop>4.0</pdop><geoidheight>53.00</geoidheight><course>41.1</course><type>1</type></trkpt>
      <trkpt lat="40.6786018" lon="-4.84598173"><ele>2454</ele><speed>13.27</speed><time>2016-06-30T13:55:45Z</time><pdop>4.0</pdop><geoidheight>53.00</geoidheight><course>43.3</course><type>1</type></trkpt>
      <trkpt lat="40.67868357" lon="-4.84587087"><ele>2453</ele><speed>12.99</speed><time>2016-06-30T13:55:46Z</time><pdop>4.0</pdop><geoidheight>53.00</geoidheight><course>42.8</course><type>1</type></trkpt>
      <trkpt lat="40.67877334" lon="-4.84577863"><ele>2452</ele><speed>12.21</speed><time>2016-06-30T13:55:47Z</time><pdop>4.0</pdop><geoidheight>53.00</geoidheight><course>42.3</course><type>1</type></trkpt>
      <trkpt lat="40.67884314" lon="-4.84568288"><ele>2453</ele><speed>11.51</speed><time>2016-06-30T13:55:48Z</time><pdop>4.0</pdop><geoidheight>53.00</geoidheight><course>46.3</course><type>1</type></trkpt>
      <trkpt lat="40.67890125" lon="-4.84557634"><ele>2453</ele><speed>11.59</speed><time>2016-06-30T13:55:49Z</time><pdop>4.0</pdop><geoidheight>53.00</geoidheight><course>50.3</course><type>1</type></trkpt>
      <trkpt lat="40.67896626" lon="-4.84546198"><ele>2453</ele><speed>11.68</speed><time>2016-06-30T13:55:50Z</time><pdop>4.0</pdop><geoidheight>53.00</geoidheight><course>53.9</course><type>1</type></trkpt>
      <trkpt lat="40.67900696" lon="-4.84534838"><ele>2453</ele><speed>10.89</speed><time>2016-06-30T13:55:51Z</time><pdop>4.0</pdop><geoidheight>53.00</geoidheight><course>57.5</course><type>1</type></trkpt>
      <trkpt lat="40.6790521" lon="-4.84523194"><ele>2453</ele><speed>11.31</speed><time>2016-06-30T13:55:52Z</time><pdop>4.0</pdop><geoidheight>53.00</geoidheight><course>61.9</course><type>1</type></trkpt>
      <trkpt lat="40.67910067" lon="-4.84510301"><ele>2453</ele><speed>11.54</speed><time>2016-06-30T13:55:53Z</time><pdop>4.0</pdop><geoidheight>53.00</geoidheight><course>62.8</course><type>1</type></trkpt>
      <trkpt lat="40.67916485" lon="-4.8449816"><ele>2454</ele><speed>11.56</speed><time>2016-06-30T13:55:54Z</time><pdop>4.0</pdop><geoidheight>53.00</geoidheight><course>59.5</course><type>1</type></trkpt>
      <trkpt lat="40.67923746" lon="-4.8448846"><ele>2453</ele><speed>11.20</speed><time>2016-06-30T13:55:55Z</time><pdop>4.0</pdop><geoidheight>53.00</geoidheight><course>53.7</course><type>1</type></trkpt>
      <trkpt lat="40.67929427" lon="-4.84479246"><ele>2453</ele><speed>10.74</speed><time>2016-06-30T13:55:56Z</time><pdop>4.0</pdop><geoidheight>53.00</geoidheight><course>49.2</course><type>1</type></trkpt>
      <trkpt lat="40.67937921" lon="-4.8447067"><ele>2451</ele><speed>11.42</speed><time>2016-06-30T13:55:57Z</time><pdop>3.0</pdop><geoidheight>53.00</geoidheight><course>41.3</course><type>1</type></trkpt>
      <trkpt lat="40.67947776" lon="-4.84462581"><ele>2451</ele><speed>11.62</speed><time>2016-06-30T13:55:58Z</time><pdop>4.0</pdop><geoidheight>53.00</geoidheight><course>38.4</course><type>1</type></trkpt>
      <trkpt lat="40.67957554" lon="-4.84454111"><ele>2451</ele><speed>12.79</speed><time>2016-06-30T13:55:59Z</time><pdop>4.0</pdop><geoidheight>53.00</geoidheight><course>33.0</course><type>1</type></trkpt>
      <trkpt lat="40.6796763" lon="-4.84445939"><ele>2450</ele><speed>13.17</speed><time>2016-06-30T13:56:00Z</time><pdop>3.0</pdop><geoidheight>53.00</geoidheight><course>31.9</course><type>1</type></trkpt>
      <trkpt lat="40.67977123" lon="-4.84438078"><ele>2451</ele><speed>12.68</speed><time>2016-06-30T13:56:01Z</time><pdop>3.0</pdop><geoidheight>53.00</geoidheight><course>33.2</course><type>1</type></trkpt>
      <trkpt lat="40.67986172" lon="-4.84430467"><ele>2451</ele><speed>11.84</speed><time>2016-06-30T13:56:02Z</time><pdop>3.0</pdop><geoidheight>53.00</geoidheight><course>35.4</course><type>1</type></trkpt>
      <trkpt lat="40.67994124" lon="-4.84422979"><ele>2451</ele><speed>11.32</speed><time>2016-06-30T13:56:03Z</time><pdop>3.0</pdop><geoidheight>53.00</geoidheight><course>37.0</course><type>1</type></trkpt>
      <trkpt lat="40.68001477" lon="-4.84414429"><ele>2452</ele><speed>11.30</speed><time>2016-06-30T13:56:04Z</time><pdop>4.0</pdop><geoidheight>53.00</geoidheight><course>38.6</course><type>1</type></trkpt>
      <trkpt lat="40.6800898" lon="-4.84406518"><ele>2452</ele><speed>10.79</speed><time>2016-06-30T13:56:05Z</time><pdop>4.0</pdop><geoidheight>53.00</geoidheight><course>37.7</course><type>1</type></trkpt>
      <trkpt lat="40.68015945" lon="-4.84398209"><ele>2452</ele><speed>10.03</speed><time>2016-06-30T13:56:06Z</time><pdop>4.0</pdop><geoidheight>53.00</geoidheight><course>37.3</course><type>1</type></trkpt>
      <trkpt lat="40.68022648" lon="-4.84392327"><ele>2452</ele><speed>9.45</speed><time>2016-06-30T13:56:07Z</time><pdop>4.0</pdop><geoidheight>53.00</geoidheight><course>36.0</course><type>1</type></trkpt>
      <trkpt lat="40.68029475" lon="-4.8438671"><ele>2453</ele><speed>9.30</speed><time>2016-06-30T13:56:08Z</time><pdop>4.0</pdop><geoidheight>53.00</geoidheight><course>30.7</course><type>1</type></trkpt>
      <trkpt lat="40.68036364" lon="-4.84381526"><ele>2453</ele><speed>9.26</speed><time>2016-06-30T13:56:09Z</time><pdop>4.0</pdop><geoidheight>53.00</geoidheight><course>30.4</course><type>1</type></trkpt>
      <trkpt lat="40.68042467" lon="-4.84374682"><ele>2455</ele><speed>9.05</speed><time>2016-06-30T13:56:10Z</time><pdop>4.0</pdop><geoidheight>53.00</geoidheight><course>36.8</course><type>1</type></trkpt>
      <trkpt lat="40.68047902" lon="-4.84367957"><ele>2455</ele><speed>8.84</speed><time>2016-06-30T13:56:11Z</time><pdop>4.0</pdop><geoidheight>53.00</geoidheight><course>42.9</course><type>1</type></trkpt>
      <trkpt lat="40.68052889" lon="-4.8435946"><ele>2455</ele><speed>8.74</speed><time>2016-06-30T13:56:12Z</time><pdop>4.0</pdop><geoidheight>53.00</geoidheight><course>49.4</course><type>1</type></trkpt>
      <trkpt lat="40.68057873" lon="-4.84351133"><ele>2454</ele><speed>9.08</speed><time>2016-06-30T13:56:13Z</time><pdop>4.0</pdop><geoidheight>53.00</geoidheight><course>55.2</course><type>1</type></trkpt>
      <trkpt lat="40.68062973" lon="-4.84340948"><ele>2452</ele><speed>9.91</speed><time>2016-06-30T13:56:14Z</time><pdop>4.0</pdop><geoidheight>53.00</geoidheight><course>56.5</course><type>1</type></trkpt>
      <trkpt lat="40.68067701" lon="-4.84331927"><ele>2452</ele><speed>9.67</speed><time>2016-06-30T13:56:15Z</time><pdop>5.0</pdop><geoidheight>53.00</geoidheight><course>58.0</course><type>1</type></trkpt>
      <trkpt lat="40.68081125" lon="-4.84313758"><ele>2450</ele><speed>10.42</speed><time>2016-06-30T13:56:17Z</time><pdop>6.0</pdop><geoidheight>53.00</geoidheight><course>50.2</course><type>1</type></trkpt>
      <trkpt lat="40.68099166" lon="-4.84290189"><ele>2444</ele><speed>13.29</speed><time>2016-06-30T13:56:19Z</time><pdop>5.0</pdop><geoidheight>53.00</geoidheight><course>45.4</course><type>1</type></trkpt>
      <trkpt lat="40.68106852" lon="-4.84277909"><ele>2445</ele><speed>13.66</speed><time>2016-06-30T13:56:20Z</time><pdop>5.0</pdop><geoidheight>53.00</geoidheight><course>47.2</course><type>1</type></trkpt>
      <trkpt lat="40.68116186" lon="-4.84265055"><ele>2444</ele><speed>14.93</speed><time>2016-06-30T13:56:21Z</time><pdop>5.0</pdop><geoidheight>53.00</geoidheight><course>49.6</course><type>1</type></trkpt>
      <trkpt lat="40.68126193" lon="-4.84250976"><ele>2443</ele><speed>15.21</speed><time>2016-06-30T13:56:22Z</time><pdop>5.0</pdop><geoidheight>53.00</geoidheight><course>49.1</course><type>1</type></trkpt>
      <trkpt lat="40.6813468" lon="-4.8423803"><ele>2443</ele><speed>14.18</speed><time>2016-06-30T13:56:23Z</time><pdop>5.0</pdop><geoidheight>53.00</geoidheight><course>52.0</course><type>1</type></trkpt>
      <trkpt lat="40.68140279" lon="-4.84225301"><ele>2444</ele><speed>13.43</speed><time>2016-06-30T13:56:24Z</time><pdop>6.0</pdop><geoidheight>53.00</geoidheight><course>56.8</course><type>1</type></trkpt>
      <trkpt lat="40.68137801" lon="-4.84201831"><ele>2443</ele><speed>10.48</speed><time>2016-06-30T13:56:26Z</time><pdop>4.0</pdop><geoidheight>53.00</geoidheight><course>93.7</course><type>1</type></trkpt>
      <trkpt lat="40.68136307" lon="-4.84190571"><ele>2443</ele><speed>9.71</speed><time>2016-06-30T13:56:27Z</time><pdop>4.0</pdop><geoidheight>53.00</geoidheight><course>100.7</course><type>1</type></trkpt>
      <trkpt lat="40.6813359" lon="-4.84178432"><ele>2442</ele><speed>9.63</speed><time>2016-06-30T13:56:28Z</time><pdop>4.0</pdop><geoidheight>53.00</geoidheight><course>99.2</course><type>1</type></trkpt>
      <trkpt lat="40.68132602" lon="-4.84164633"><ele>2442</ele><speed>11.13</speed><time>2016-06-30T13:56:29Z</time><pdop>4.0</pdop><geoidheight>53.00</geoidheight><course>95.4</course><type>1</type></trkpt>
      <trkpt lat="40.68133092" lon="-4.84148578"><ele>2442</ele><speed>12.97</speed><time>2016-06-30T13:56:30Z</time><pdop>4.0</pdop><geoidheight>53.00</geoidheight><course>89.3</course><type>1</type></trkpt>
      <trkpt lat="40.68141164" lon="-4.84132592"><ele>2438</ele><speed>14.82</speed><time>2016-06-30T13:56:31Z</time><pdop>3.0</pdop><geoidheight>53.00</geoidheight><course>70.0</course><type>1</type></trkpt>
      <trkpt lat="40.6814591" lon="-4.84115749"><ele>2436</ele><speed>15.09</speed><time>2016-06-30T13:56:32Z</time><pdop>4.0</pdop><geoidheight>53.00</geoidheight><course>71.2</course><type>1</type></trkpt>
      <trkpt lat="40.68149704" lon="-4.84099456"><ele>2435</ele><speed>14.38</speed><time>2016-06-30T13:56:33Z</time><pdop>4.0</pdop><geoidheight>53.00</geoidheight><course>70.5</course><type>1</type></trkpt>
      <trkpt lat="40.68153544" lon="-4.84085156"><ele>2435</ele><speed>13.15</speed><time>2016-06-30T13:56:34Z</time><pdop>5.0</pdop><geoidheight>53.00</geoidheight><course>69.6</course><type>1</type></trkpt>
      <trkpt lat="40.6816554" lon="-4.84061149"><ele>2433</ele><speed>11.55</speed><time>2016-06-30T13:56:36Z</time><pdop>7.0</pdop><geoidheight>53.00</geoidheight><course>63.4</course><type>1</type></trkpt>
      <trkpt lat="40.68184805" lon="-4.84038276"><ele>2430</ele><speed>13.83</speed><time>2016-06-30T13:56:38Z</time><pdop>7.0</pdop><geoidheight>53.00</geoidheight><course>51.2</course><type>1</type></trkpt>
      <trkpt lat="40.68196775" lon="-4.84008915"><ele>2427</ele><speed>14.81</speed><time>2016-06-30T13:56:40Z</time><pdop>10.0</pdop><geoidheight>53.00</geoidheight><course>56.3</course><type>1</type></trkpt>
      <trkpt lat="40.68201601" lon="-4.83983043"><ele>2424</ele><speed>12.10</speed><time>2016-06-30T13:56:42Z</time><pdop>8.0</pdop><geoidheight>53.00</geoidheight><course>68.7</course><type>1</type></trkpt>
      <trkpt lat="40.68207919" lon="-4.83957855"><ele>2419</ele><speed>11.93</speed><time>2016-06-30T13:56:44Z</time><pdop>7.0</pdop><geoidheight>53.00</geoidheight><course>75.9</course><type>1</type></trkpt>
      <trkpt lat="40.6821379" lon="-4.83927866"><ele>2415</ele><speed>13.39</speed><time>2016-06-30T13:56:46Z</time><pdop>9.0</pdop><geoidheight>53.00</geoidheight><course>74.2</course><type>1</type></trkpt>
      <trkpt lat="40.68225459" lon="-4.838956"><ele>2413</ele><speed>14.74</speed><time>2016-06-30T13:56:48Z</time><pdop>14.0</pdop><geoidheight>53.00</geoidheight><course>70.2</course><type>1</type></trkpt>
      <trkpt lat="40.68240148" lon="-4.83859664"><ele>2411</ele><speed>15.71</speed><time>2016-06-30T13:56:50Z</time><pdop>12.0</pdop><geoidheight>53.00</geoidheight><course>67.0</course><type>1</type></trkpt>
      <trkpt lat="40.68255829" lon="-4.83831268"><ele>2397</ele><speed>14.92</speed><time>2016-06-30T13:56:52Z</time><pdop>10.0</pdop><geoidheight>53.00</geoidheight><course>63.4</course><type>1</type></trkpt>
      <trkpt lat="40.68269378" lon="-4.83797847"><ele>2381</ele><speed>17.46</speed><time>2016-06-30T13:56:54Z</time><pdop>8.0</pdop><geoidheight>53.00</geoidheight><course>66.7</course><type>1</type></trkpt>
      <trkpt lat="40.68276247" lon="-4.83778923"><ele>2373</ele><speed>18.27</speed><time>2016-06-30T13:56:55Z</time><pdop>8.0</pdop><geoidheight>53.00</geoidheight><course>67.0</course><type>1</type></trkpt>
      <trkpt lat="40.68290812" lon="-4.83744219"><ele>2359</ele><speed>17.67</speed><time>2016-06-30T13:56:57Z</time><pdop>12.0</pdop><geoidheight>53.00</geoidheight><course>63.4</course><type>1</type></trkpt>
      <trkpt lat="40.68307479" lon="-4.83718733"><ele>2349</ele><speed>14.19</speed><time>2016-06-30T13:56:59Z</time><pdop>8.0</pdop><geoidheight>53.00</geoidheight><course>53.1</course><type>1</type></trkpt>
      <trkpt lat="40.68326689" lon="-4.83696627"><ele>2332</ele><speed>15.37</speed><time>2016-06-30T13:57:01Z</time><pdop>7.0</pdop><geoidheight>53.00</geoidheight><course>45.2</course><type>1</type></trkpt>
      <trkpt lat="40.68336415" lon="-4.83685306"><ele>2324</ele><speed>16.03</speed><time>2016-06-30T13:57:02Z</time><pdop>7.0</pdop><geoidheight>53.00</geoidheight><course>41.6</course><type>1</type></trkpt>
      <trkpt lat="40.68357069" lon="-4.83662668"><ele>2313</ele><speed>15.57</speed><time>2016-06-30T13:57:04Z</time><pdop>9.0</pdop><geoidheight>53.00</geoidheight><course>40.5</course><type>1</type></trkpt>
      <trkpt lat="40.68368432" lon="-4.83637733"><ele>2310</ele><speed>13.62</speed><time>2016-06-30T13:57:06Z</time><pdop>11.0</pdop><geoidheight>53.00</geoidheight><course>52.9</course><type>1</type></trkpt>
      <trkpt lat="40.68380235" lon="-4.83613089"><ele>2304</ele><speed>12.05</speed><time>2016-06-30T13:57:08Z</time><pdop>11.0</pdop><geoidheight>53.00</geoidheight><course>54.2</course><type>1</type></trkpt>
      <trkpt lat="40.68398976" lon="-4.83587848"><ele>2302</ele><speed>11.65</speed><time>2016-06-30T13:57:11Z</time><pdop>8.0</pdop><geoidheight>53.00</geoidheight><course>38.1</course><type>1</type></trkpt>
      <trkpt lat="40.68418639" lon="-4.83578225"><ele>2300</ele><speed>11.26</speed><time>2016-06-30T13:57:13Z</time><pdop>11.0</pdop><geoidheight>53.00</geoidheight><course>23.5</course><type>1</type></trkpt>
      <trkpt lat="40.68436981" lon="-4.83561968"><ele>2295</ele><speed>11.20</speed><time>2016-06-30T13:57:15Z</time><pdop>13.0</pdop><geoidheight>53.00</geoidheight><course>28.2</course><type>1</type></trkpt>
      <trkpt lat="40.68466059" lon="-4.83573423"><ele>2288</ele><speed>10.44</speed><time>2016-06-30T13:57:18Z</time><pdop>14.0</pdop><geoidheight>53.00</geoidheight><course>357.8</course><type>1</type></trkpt>
      <trkpt lat="40.6849438" lon="-4.8358532"><ele>2286</ele><speed>12.72</speed><time>2016-06-30T13:57:20Z</time><pdop>16.0</pdop><geoidheight>53.00</geoidheight><course>351.5</course><type>1</type></trkpt>
      <trkpt lat="40.68523686" lon="-4.83569951"><ele>2277</ele><speed>10.84</speed><time>2016-06-30T13:57:23Z</time><pdop>13.0</pdop><geoidheight>53.00</geoidheight><course>11.8</course><type>1</type></trkpt>
      <trkpt lat="40.68545563" lon="-4.83560621"><ele>2272</ele><speed>11.42</speed><time>2016-06-30T13:57:25Z</time><pdop>12.0</pdop><geoidheight>53.00</geoidheight><course>14.9</course><type>1</type></trkpt>
      <trkpt lat="40.68563911" lon="-4.83554432"><ele>2266</ele><speed>10.63</speed><time>2016-06-30T13:57:27Z</time><pdop>9.0</pdop><geoidheight>53.00</geoidheight><course>7.8</course><type>1</type></trkpt>
      <trkpt lat="40.68593298" lon="-4.83551586"><ele>2259</ele><speed>10.81</speed><time>2016-06-30T13:57:30Z</time><pdop>10.0</pdop><geoidheight>53.00</geoidheight><course>357.1</course><type>1</type></trkpt>
      <trkpt lat="40.68617324" lon="-4.83559092"><ele>2254</ele><speed>11.29</speed><time>2016-06-30T13:57:32Z</time><pdop>10.0</pdop><geoidheight>53.00</geoidheight><course>344.8</course><type>1</type></trkpt>
      <trkpt lat="40.68640002" lon="-4.83563797"><ele>2247</ele><speed>10.03</speed><time>2016-06-30T13:57:35Z</time><pdop>9.0</pdop><geoidheight>53.00</geoidheight><course>343.8</course><type>1</type></trkpt>
      <trkpt lat="40.68658977" lon="-4.8356621"><ele>2242</ele><speed>10.73</speed><time>2016-06-30T13:57:37Z</time><pdop>10.0</pdop><geoidheight>53.00</geoidheight><course>348.1</course><type>1</type></trkpt>
      <trkpt lat="40.68681242" lon="-4.83570712"><ele>2236</ele><speed>11.79</speed><time>2016-06-30T13:57:39Z</time><pdop>9.0</pdop><geoidheight>53.00</geoidheight><course>348.0</course><type>1</type></trkpt>
      <trkpt lat="40.68709663" lon="-4.83571435"><ele>2224</ele><speed>14.15</speed><time>2016-06-30T13:57:41Z</time><pdop>9.0</pdop><geoidheight>53.00</geoidheight><course>350.0</course><type>1</type></trkpt>
      <trkpt lat="40.68735343" lon="-4.83578341"><ele>2215</ele><speed>14.17</speed><time>2016-06-30T13:57:43Z</time><pdop>13.0</pdop><geoidheight>53.00</geoidheight><course>348.8</course><type>1</type></trkpt>
      <trkpt lat="40.68757939" lon="-4.83579607"><ele>2210</ele><speed>12.02</speed><time>2016-06-30T13:57:45Z</time><pdop>12.0</pdop><geoidheight>53.00</geoidheight><course>353.5</course><type>1</type></trkpt>
      <trkpt lat="40.68780267" lon="-4.83584059"><ele>2208</ele><speed>11.39</speed><time>2016-06-30T13:57:47Z</time><pdop>12.0</pdop><geoidheight>53.00</geoidheight><course>355.0</course><type>1</type></trkpt>
      <trkpt lat="40.68801115" lon="-4.83588783"><ele>2208</ele><speed>10.94</speed><time>2016-06-30T13:57:49Z</time><pdop>11.0</pdop><geoidheight>53.00</geoidheight><course>352.9</course><type>1</type></trkpt>
      <trkpt lat="40.68829508" lon="-4.83590371"><ele>2205</ele><speed>10.55</speed><time>2016-06-30T13:57:52Z</time><pdop>13.0</pdop><geoidheight>53.00</geoidheight><course>357.4</course><type>1</type></trkpt>
      <trkpt lat="40.68854752" lon="-4.83576521"><ele>2213</ele><speed>7.88</speed><time>2016-06-30T13:57:56Z</time><pdop>13.0</pdop><geoidheight>53.00</geoidheight><course>25.4</course><type>1</type></trkpt>
      <trkpt lat="40.68874698" lon="-4.83566949"><ele>2219</ele><speed>9.19</speed><time>2016-06-30T13:57:59Z</time><pdop>10.0</pdop><geoidheight>53.00</geoidheight><course>36.9</course><type>1</type></trkpt>
      <trkpt lat="40.68898786" lon="-4.83552241"><ele>2222</ele><speed>10.17</speed><time>2016-06-30T13:58:02Z</time><pdop>11.0</pdop><geoidheight>53.00</geoidheight><course>30.5</course><type>1</type></trkpt>
      <trkpt lat="40.68918723" lon="-4.83539816"><ele>2228</ele><speed>8.70</speed><time>2016-06-30T13:58:05Z</time><pdop>11.0</pdop><geoidheight>53.00</geoidheight><course>20.5</course><type>1</type></trkpt>
      <trkpt lat="40.68943298" lon="-4.83516906"><ele>2239</ele><speed>10.29</speed><time>2016-06-30T13:58:09Z</time><pdop>12.0</pdop><geoidheight>53.00</geoidheight><course>36.3</course><type>1</type></trkpt>
      <trkpt lat="40.68958494" lon="-4.83498617"><ele>2244</ele><speed>11.58</speed><time>2016-06-30T13:58:11Z</time><pdop>9.0</pdop><geoidheight>53.00</geoidheight><course>37.8</course><type>1</type></trkpt>
      <trkpt lat="40.68972613" lon="-4.83485073"><ele>2249</ele><speed>9.16</speed><time>2016-06-30T13:58:13Z</time><pdop>9.0</pdop><geoidheight>53.00</geoidheight><course>34.2</course><type>1</type></trkpt>
      <trkpt lat="40.68991837" lon="-4.83475881"><ele>2253</ele><speed>7.11</speed><time>2016-06-30T13:58:16Z</time><pdop>13.0</pdop><geoidheight>53.00</geoidheight><course>13.6</course><type>1</type></trkpt>
      <trkpt lat="40.69002317" lon="-4.83515731"><ele>2261</ele><speed>7.40</speed><time>2016-06-30T13:58:21Z</time><pdop>12.0</pdop><geoidheight>53.00</geoidheight><course>283.6</course><type>1</type></trkpt>
      <trkpt lat="40.68983771" lon="-4.8354933"><ele>2271</ele><speed>8.42</speed><time>2016-06-30T13:58:24Z</time><pdop>12.0</pdop><geoidheight>53.00</geoidheight><course>236.8</course><type>1</type></trkpt>
      <trkpt lat="40.68963311" lon="-4.83565194"><ele>2274</ele><speed>14.34</speed><time>2016-06-30T13:58:25Z</time><pdop>8.0</pdop><geoidheight>53.00</geoidheight><course>221.4</course><type>1</type></trkpt>
      <trkpt lat="40.68944319" lon="-4.83589351"><ele>2281</ele><speed>13.97</speed><time>2016-06-30T13:58:27Z</time><pdop>8.0</pdop><geoidheight>53.00</geoidheight><course>223.2</course><type>1</type></trkpt>
      <trkpt lat="40.68924659" lon="-4.83612603"><ele>2283</ele><speed>14.36</speed><time>2016-06-30T13:58:29Z</time><pdop>10.0</pdop><geoidheight>53.00</geoidheight><course>221.8</course><type>1</type></trkpt>
      <trkpt lat="40.6889785" lon="-4.83615783"><ele>2291</ele><speed>13.04</speed><time>2016-06-30T13:58:31Z</time><pdop>7.0</pdop><geoidheight>53.00</geoidheight><course>197.3</course><type>1</type></trkpt>
      <trkpt lat="40.68887726" lon="-4.83599171"><ele>2297</ele><speed>12.67</speed><time>2016-06-30T13:58:32Z</time><pdop>7.0</pdop><geoidheight>53.00</geoidheight><course>152.3</course><type>1</type></trkpt>
      <trkpt lat="40.68867813" lon="-4.83579487"><ele>2301</ele><speed>13.25</speed><time>2016-06-30T13:58:34Z</time><pdop>9.0</pdop><geoidheight>53.00</geoidheight><course>147.2</course><type>1</type></trkpt>
      <trkpt lat="40.68854161" lon="-4.835488"><ele>2302</ele><speed>12.96</speed><time>2016-06-30T13:58:36Z</time><pdop>11.0</pdop><geoidheight>53.00</geoidheight><course>131.2</course><type>1</type></trkpt>
      <trkpt lat="40.68852348" lon="-4.83512158"><ele>2309</ele><speed>8.55</speed><time>2016-06-30T13:58:39Z</time><pdop>17.0</pdop><geoidheight>53.00</geoidheight><course>110.3</course><type>1</type></trkpt>
      <trkpt lat="40.68887005" lon="-4.83515571"><ele>2386</ele><speed>6.18</speed><time>2016-06-30T13:58:42Z</time><pdop>20.0</pdop><geoidheight>53.00</geoidheight><course>5.4</course><type>1</type></trkpt>
      <trkpt lat="40.68896612" lon="-4.83567132"><ele>2377</ele><speed>6.59</speed><time>2016-06-30T13:58:47Z</time><pdop>21.0</pdop><geoidheight>53.00</geoidheight><course>260.8</course><type>1</type></trkpt>
      <trkpt lat="40.68863417" lon="-4.83593688"><ele>2379</ele><speed>9.69</speed><time>2016-06-30T13:58:50Z</time><pdop>20.0</pdop><geoidheight>53.00</geoidheight><course>222.0</course><type>1</type></trkpt>
      <trkpt lat="40.68848463" lon="-4.83555805"><ele>2396</ele><speed>12.01</speed><time>2016-06-30T13:59:03Z</time><pdop>9.0</pdop><geoidheight>53.00</geoidheight><course>147.7</course><type>1</type></trkpt>
      <trkpt lat="40.68830569" lon="-4.83543411"><ele>2429</ele><speed>10.63</speed><time>2016-06-30T13:59:05Z</time><pdop>10.0</pdop><geoidheight>53.00</geoidheight><course>163.2</course><type>1</type></trkpt>
      <trkpt lat="40.68809079" lon="-4.83551144"><ele>2429</ele><speed>11.54</speed><time>2016-06-30T13:59:07Z</time><pdop>9.0</pdop><geoidheight>53.00</geoidheight><course>203.6</course><type>1</type></trkpt>
      <trkpt lat="40.68793018" lon="-4.83564967"><ele>2430</ele><speed>11.86</speed><time>2016-06-30T13:59:09Z</time><pdop>12.0</pdop><geoidheight>53.00</geoidheight><course>217.5</course><type>1</type></trkpt>
      <trkpt lat="40.68827277" lon="-4.83556047"><ele>2439</ele><speed>7.99</speed><time>2016-06-30T13:59:16Z</time><pdop>13.0</pdop><geoidheight>53.00</geoidheight><course>38.0</course><type>1</type></trkpt>
      <trkpt lat="40.68823921" lon="-4.83525356"><ele>2444</ele><speed>7.25</speed><time>2016-06-30T13:59:19Z</time><pdop>11.0</pdop><geoidheight>53.00</geoidheight><course>107.0</course><type>1</type></trkpt>
      <trkpt lat="40.68819175" lon="-4.83497034"><ele>2450</ele><speed>9.84</speed><time>2016-06-30T13:59:21Z</time><pdop>10.0</pdop><geoidheight>53.00</geoidheight><course>106.4</course><type>1</type></trkpt>
      <trkpt lat="40.68807449" lon="-4.83462003"><ele>2459</ele><speed>12.57</speed><time>2016-06-30T13:59:23Z</time><pdop>9.0</pdop><geoidheight>53.00</geoidheight><course>121.5</course><type>1</type></trkpt>
      <trkpt lat="40.68794799" lon="-4.83434129"><ele>2468</ele><speed>10.87</speed><time>2016-06-30T13:59:25Z</time><pdop>11.0</pdop><geoidheight>53.00</geoidheight><course>120.8</course><type>1</type></trkpt>
      <trkpt lat="40.68777901" lon="-4.83442276"><ele>2475</ele><speed>11.40</speed><time>2016-06-30T13:59:26Z</time><pdop>8.0</pdop><geoidheight>53.00</geoidheight><course>189.1</course><type>1</type></trkpt>
      <trkpt lat="40.68760674" lon="-4.83453096"><ele>2484</ele><speed>11.78</speed><time>2016-06-30T13:59:28Z</time><pdop>7.0</pdop><geoidheight>53.00</geoidheight><course>222.7</course><type>1</type></trkpt>
      <trkpt lat="40.68747712" lon="-4.83474403"><ele>2488</ele><speed>12.29</speed><time>2016-06-30T13:59:30Z</time><pdop>7.0</pdop><geoidheight>53.00</geoidheight><course>238.5</course><type>1</type></trkpt>
      <trkpt lat="40.68745021" lon="-4.8349323"><ele>2494</ele><speed>9.94</speed><time>2016-06-30T13:59:32Z</time><pdop>9.0</pdop><geoidheight>53.00</geoidheight><course>255.0</course><type>1</type></trkpt>
      <trkpt lat="40.68769983" lon="-4.83470379"><ele>2500</ele><speed>6.87</speed><time>2016-06-30T13:59:37Z</time><pdop>16.0</pdop><geoidheight>53.00</geoidheight><course>54.1</course><type>1</type></trkpt>
      <trkpt lat="40.68788588" lon="-4.83443844"><ele>2505</ele><speed>9.45</speed><time>2016-06-30T13:59:40Z</time><pdop>14.0</pdop><geoidheight>53.00</geoidheight><course>58.7</course><type>1</type></trkpt>
      <trkpt lat="40.68800926" lon="-4.83411705"><ele>2513</ele><speed>8.37</speed><time>2016-06-30T13:59:43Z</time><pdop>10.0</pdop><geoidheight>53.00</geoidheight><course>78.3</course><type>1</type></trkpt>
      <trkpt lat="40.68798919" lon="-4.83387067"><ele>2519</ele><speed>10.30</speed><time>2016-06-30T13:59:45Z</time><pdop>10.0</pdop><geoidheight>53.00</geoidheight><course>109.0</course><type>1</type></trkpt>
      <trkpt lat="40.68785197" lon="-4.8336452"><ele>2528</ele><speed>13.26</speed><time>2016-06-30T13:59:47Z</time><pdop>9.0</pdop><geoidheight>53.00</geoidheight><course>144.1</course><type>1</type></trkpt>
      <trkpt lat="40.68766021" lon="-4.8335215"><ele>2531</ele><speed>13.92</speed><time>2016-06-30T13:59:49Z</time><pdop>10.0</pdop><geoidheight>53.00</geoidheight><course>160.9</course><type>1</type></trkpt>
      <trkpt lat="40.6874589" lon="-4.83347672"><ele>2540</ele><speed>12.67</speed><time>2016-06-30T13:59:51Z</time><pdop>8.0</pdop><geoidheight>53.00</geoidheight><course>173.8</course><type>1</type></trkpt>
      <trkpt lat="40.68726231" lon="-4.83357016"><ele>2487</ele><speed>11.63</speed><time>2016-06-30T13:59:53Z</time><pdop>6.0</pdop><geoidheight>53.00</geoidheight><course>199.7</course><type>1</type></trkpt>
      <trkpt lat="40.68716401" lon="-4.83362954"><ele>2499</ele><speed>11.60</speed><time>2016-06-30T13:59:54Z</time><pdop>5.0</pdop><geoidheight>53.00</geoidheight><course>209.9</course><type>1</type></trkpt>
      <trkpt lat="40.68708383" lon="-4.83370322"><ele>2509</ele><speed>11.19</speed><time>2016-06-30T13:59:55Z</time><pdop>5.0</pdop><geoidheight>53.00</geoidheight><course>219.0</course><type>1</type></trkpt>
      <trkpt lat="40.68695619" lon="-4.83386698"><ele>2528</ele><speed>10.35</speed><time>2016-06-30T13:59:57Z</time><pdop>5.0</pdop><geoidheight>53.00</geoidheight><course>228.4</course><type>1</type></trkpt>
      <trkpt lat="40.68688412" lon="-4.83395638"><ele>2537</ele><speed>10.52</speed><time>2016-06-30T13:59:58Z</time><pdop>5.0</pdop><geoidheight>53.00</geoidheight><course>227.1</course><type>1</type></trkpt>
      <trkpt lat="40.68675628" lon="-4.8341282"><ele>2550</ele><speed>10.65</speed><time>2016-06-30T14:00:00Z</time><pdop>5.0</pdop><geoidheight>53.00</geoidheight><course>227.6</course><type>1</type></trkpt>
      <trkpt lat="40.68669691" lon="-4.83429524"><ele>2560</ele><speed>8.31</speed><time>2016-06-30T14:00:02Z</time><pdop>5.0</pdop><geoidheight>53.00</geoidheight><course>242.7</course><type>1</type></trkpt>
      <trkpt lat="40.68664708" lon="-4.83447836"><ele>2567</ele><speed>8.54</speed><time>2016-06-30T14:00:04Z</time><pdop>4.0</pdop><geoidheight>53.00</geoidheight><course>248.6</course><type>1</type></trkpt>
      <trkpt lat="40.6866216" lon="-4.83457439"><ele>2573</ele><speed>8.93</speed><time>2016-06-30T14:00:05Z</time><pdop>4.0</pdop><geoidheight>53.00</geoidheight><course>253.9</course><type>1</type></trkpt>
      <trkpt lat="40.68659877" lon="-4.83467894"><ele>2574</ele><speed>9.33</speed><time>2016-06-30T14:00:06Z</time><pdop>4.0</pdop><geoidheight>53.00</geoidheight><course>258.6</course><type>1</type></trkpt>
      <trkpt lat="40.68663058" lon="-4.83478662"><ele>2579</ele><speed>9.67</speed><time>2016-06-30T14:00:07Z</time><pdop>4.0</pdop><geoidheight>53.00</geoidheight><course>282.7</course><type>1</type></trkpt>
      <trkpt lat="40.68668731" lon="-4.83487865"><ele>2581</ele><speed>10.48</speed><time>2016-06-30T14:00:08Z</time><pdop>4.0</pdop><geoidheight>53.00</geoidheight><course>304.3</course><type>1</type></trkpt>
      <trkpt lat="40.68677317" lon="-4.8349569"><ele>2583</ele><speed>11.27</speed><time>2016-06-30T14:00:09Z</time><pdop>3.0</pdop><geoidheight>53.00</geoidheight><course>325.1</course><type>1</type></trkpt>
      <trkpt lat="40.68687533" lon="-4.83499378"><ele>2585</ele><speed>11.81</speed><time>2016-06-30T14:00:10Z</time><pdop>4.0</pdop><geoidheight>53.00</geoidheight><course>344.4</course><type>1</type></trkpt>
      <trkpt lat="40.68697412" lon="-4.83501174"><ele>2588</ele><speed>11.56</speed><time>2016-06-30T14:00:11Z</time><pdop>4.0</pdop><geoidheight>53.00</geoidheight><course>349.2</course><type>1</type></trkpt>
      <trkpt lat="40.68704827" lon="-4.83493261"><ele>2591</ele><speed>10.49</speed><time>2016-06-30T14:00:12Z</time><pdop>4.0</pdop><geoidheight>53.00</geoidheight><course>19.4</course><type>1</type></trkpt>
      <trkpt lat="40.68711326" lon="-4.83484576"><ele>2594</ele><speed>10.67</speed><time>2016-06-30T14:00:13Z</time><pdop>4.0</pdop><geoidheight>53.00</geoidheight><course>42.8</course><type>1</type></trkpt>
      <trkpt lat="40.68714891" lon="-4.8347234"><ele>2595</ele><speed>11.35</speed><time>2016-06-30T14:00:14Z</time><pdop>4.0</pdop><geoidheight>53.00</geoidheight><course>64.4</course><type>1</type></trkpt>
      <trkpt lat="40.68717164" lon="-4.83458924"><ele>2596</ele><speed>11.92</speed><time>2016-06-30T14:00:15Z</time><pdop>3.0</pdop><geoidheight>53.00</geoidheight><course>78.8</course><type>1</type></trkpt>
      <trkpt lat="40.6871679" lon="-4.83444784"><ele>2599</ele><speed>12.30</speed><time>2016-06-30T14:00:16Z</time><pdop>3.0</pdop><geoidheight>53.00</geoidheight><course>89.9</course><type>1</type></trkpt>
      <trkpt lat="40.68715465" lon="-4.83430044"><ele>2601</ele><speed>12.76</speed><time>2016-06-30T14:00:17Z</time><pdop>3.0</pdop><geoidheight>53.00</geoidheight><course>99.6</course><type>1</type></trkpt>
      <trkpt lat="40.68712046" lon="-4.8341547"><ele>2603</ele><speed>12.73</speed><time>2016-06-30T14:00:18Z</time><pdop>3.0</pdop><geoidheight>53.00</geoidheight><course>109.7</course><type>1</type></trkpt>
      <trkpt lat="40.687059" lon="-4.83402832"><ele>2605</ele><speed>12.96</speed><time>2016-06-30T14:00:19Z</time><pdop>3.0</pdop><geoidheight>53.00</geoidheight><course>122.9</course><type>1</type></trkpt>
      <trkpt lat="40.6869732" lon="-4.83392049"><ele>2608</ele><speed>13.03</speed><time>2016-06-30T14:00:20Z</time><pdop>3.0</pdop><geoidheight>53.00</geoidheight><course>136.9</course><type>1</type></trkpt>
      <trkpt lat="40.6868756" lon="-4.83383537"><ele>2609</ele><speed>12.77</speed><time>2016-06-30T14:00:21Z</time><pdop>3.0</pdop><geoidheight>53.00</geoidheight><course>144.2</course><type>1</type></trkpt>
      <trkpt lat="40.6867695" lon="-4.83379247"><ele>2609</ele><speed>12.20</speed><time>2016-06-30T14:00:22Z</time><pdop>4.0</pdop><geoidheight>53.00</geoidheight><course>156.9</course><type>1</type></trkpt>
      <trkpt lat="40.68665807" lon="-4.83378207"><ele>2610</ele><speed>12.02</speed><time>2016-06-30T14:00:23Z</time><pdop>5.0</pdop><geoidheight>53.00</geoidheight><course>168.3</course><type>1</type></trkpt>
      <trkpt lat="40.68658414" lon="-4.83383814"><ele>2611</ele><speed>10.50</speed><time>2016-06-30T14:00:24Z</time><pdop>4.0</pdop><geoidheight>53.00</geoidheight><course>188.6</course><type>1</type></trkpt>
      <trkpt lat="40.68650034" lon="-4.83387283"><ele>2613</ele><speed>10.08</speed><time>2016-06-30T14:00:25Z</time><pdop>3.0</pdop><geoidheight>53.00</geoidheight><course>201.2</course><type>1</type></trkpt>
      <trkpt lat="40.68642348" lon="-4.83394215"><ele>2614</ele><speed>10.29</speed><time>2016-06-30T14:00:26Z</time><pdop>3.0</pdop><geoidheight>53.00</geoidheight><course>213.9</course><type>1</type></trkpt>
      <trkpt lat="40.68638065" lon="-4.83403161"><ele>2615</ele><speed>9.78</speed><time>2016-06-30T14:00:27Z</time><pdop>3.0</pdop><geoidheight>53.00</geoidheight><course>229.7</course><type>1</type></trkpt>
      <trkpt lat="40.68632843" lon="-4.8341323"><ele>2616</ele><speed>10.38</speed><time>2016-06-30T14:00:28Z</time><pdop>4.0</pdop><geoidheight>53.00</geoidheight><course>236.6</course><type>1</type></trkpt>
      <trkpt lat="40.68629359" lon="-4.83426567"><ele>2617</ele><speed>11.48</speed><time>2016-06-30T14:00:29Z</time><pdop>4.0</pdop><geoidheight>53.00</geoidheight><course>246.8</course><type>1</type></trkpt>
      <trkpt lat="40.68640087" lon="-4.83436558"><ele>2619</ele><speed>10.74</speed><time>2016-06-30T14:00:30Z</time><pdop>3.0</pdop><geoidheight>53.00</geoidheight><course>287.7</course><type>1</type></trkpt>
      <trkpt lat="40.68642837" lon="-4.83447799"><ele>2618</ele><speed>10.24</speed><time>2016-06-30T14:00:31Z</time><pdop>4.0</pdop><geoidheight>53.00</geoidheight><course>286.7</course><type>1</type></trkpt>
      <trkpt lat="40.68645202" lon="-4.83458342"><ele>2618</ele><speed>9.70</speed><time>2016-06-30T14:00:32Z</time><pdop>4.0</pdop><geoidheight>53.00</geoidheight><course>286.1</course><type>1</type></trkpt>
      <trkpt lat="40.68656651" lon="-4.83463616"><ele>2620</ele><speed>10.42</speed><time>2016-06-30T14:00:33Z</time><pdop>4.0</pdop><geoidheight>53.00</geoidheight><course>317.9</course><type>1</type></trkpt>
      <trkpt lat="40.68664522" lon="-4.83469889"><ele>2621</ele><speed>10.74</speed><time>2016-06-30T14:00:34Z</time><pdop>3.0</pdop><geoidheight>53.00</geoidheight><course>325.8</course><type>1</type></trkpt>
      <trkpt lat="40.68672593" lon="-4.83477111"><ele>2622</ele><speed>10.61</speed><time>2016-06-30T14:00:35Z</time><pdop>4.0</pdop><geoidheight>53.00</geoidheight><course>328.5</course><type>1</type></trkpt>
      <trkpt lat="40.68682354" lon="-4.83480363"><ele>2623</ele><speed>10.72</speed><time>2016-06-30T14:00:36Z</time><pdop>4.0</pdop><geoidheight>53.00</geoidheight><course>338.2</course><type>1</type></trkpt>
      <trkpt lat="40.68699741" lon="-4.83479357"><ele>2624</ele><speed>10.42</speed><time>2016-06-30T14:00:38Z</time><pdop>6.0</pdop><geoidheight>53.00</geoidheight><course>359.0</course><type>1</type></trkpt>
      <trkpt lat="40.68708744" lon="-4.83468801"><ele>2624</ele><speed>10.71</speed><time>2016-06-30T14:00:39Z</time><pdop>4.0</pdop><geoidheight>53.00</geoidheight><course>23.7</course><type>1</type></trkpt>
      <trkpt lat="40.68715966" lon="-4.83463706"><ele>2625</ele><speed>9.99</speed><time>2016-06-30T14:00:40Z</time><pdop>4.0</pdop><geoidheight>53.00</geoidheight><course>23.0</course><type>1</type></trkpt>
      <trkpt lat="40.68724618" lon="-4.83458646"><ele>2626</ele><speed>9.84</speed><time>2016-06-30T14:00:41Z</time><pdop>4.0</pdop><geoidheight>53.00</geoidheight><course>23.3</course><type>1</type></trkpt>
      <trkpt lat="40.68731545" lon="-4.83452579"><ele>2627</ele><speed>9.67</speed><time>2016-06-30T14:00:42Z</time><pdop>4.0</pdop><geoidheight>53.00</geoidheight><course>24.4</course><type>1</type></trkpt>
      <trkpt lat="40.68741119" lon="-4.83445828"><ele>2626</ele><speed>9.93</speed><time>2016-06-30T14:00:43Z</time><pdop>4.0</pdop><geoidheight>53.00</geoidheight><course>30.4</course><type>1</type></trkpt>
      <trkpt lat="40.68748225" lon="-4.83438662"><ele>2627</ele><speed>10.30</speed><time>2016-06-30T14:00:44Z</time><pdop>4.0</pdop><geoidheight>53.00</geoidheight><course>36.9</course><type>1</type></trkpt>
      <trkpt lat="40.68755794" lon="-4.83431162"><ele>2627</ele><speed>10.38</speed><time>2016-06-30T14:00:45Z</time><pdop>4.0</pdop><geoidheight>53.00</geoidheight><course>39.4</course><type>1</type></trkpt>
      <trkpt lat="40.68763815" lon="-4.83421366"><ele>2628</ele><speed>11.43</speed><time>2016-06-30T14:00:46Z</time><pdop>4.0</pdop><geoidheight>53.00</geoidheight><course>45.8</course><type>1</type></trkpt>
      <trkpt lat="40.68769512" lon="-4.83409966"><ele>2628</ele><speed>12.34</speed><time>2016-06-30T14:00:47Z</time><pdop>4.0</pdop><geoidheight>53.00</geoidheight><course>51.9</course><type>1</type></trkpt>
      <trkpt lat="40.68775961" lon="-4.83396199"><ele>2628</ele><speed>12.85</speed><time>2016-06-30T14:00:48Z</time><pdop>3.0</pdop><geoidheight>53.00</geoidheight><course>58.7</course><type>1</type></trkpt>
      <trkpt lat="40.68780798" lon="-4.83383104"><ele>2633</ele><speed>12.37</speed><time>2016-06-30T14:00:49Z</time><pdop>3.0</pdop><geoidheight>53.00</geoidheight><course>63.1</course><type>1</type></trkpt>
      <trkpt lat="40.68785358" lon="-4.83371972"><ele>2637</ele><speed>10.99</speed><time>2016-06-30T14:00:50Z</time><pdop>3.0</pdop><geoidheight>53.00</geoidheight><course>64.7</course><type>1</type></trkpt>
      <trkpt lat="40.68788919" lon="-4.8336228"><ele>2640</ele><speed>9.57</speed><time>2016-06-30T14:00:51Z</time><pdop>4.0</pdop><geoidheight>53.00</geoidheight><course>65.1</course><type>1</type></trkpt>
      <trkpt lat="40.68791861" lon="-4.83352854"><ele>2641</ele><speed>8.90</speed><time>2016-06-30T14:00:52Z</time><pdop>4.0</pdop><geoidheight>53.00</geoidheight><course>65.9</course><type>1</type></trkpt>
      <trkpt lat="40.68794973" lon="-4.83342196"><ele>2643</ele><speed>9.14</speed><time>2016-06-30T14:00:53Z</time><pdop>4.0</pdop><geoidheight>53.00</geoidheight><course>69.3</course><type>1</type></trkpt>
      <trkpt lat="40.68797392" lon="-4.83330883"><ele>2643</ele><speed>10.07</speed><time>2016-06-30T14:00:54Z</time><pdop>4.0</pdop><geoidheight>53.00</geoidheight><course>72.0</course><type>1</type></trkpt>
      <trkpt lat="40.68800831" lon="-4.83318333"><ele>2643</ele><speed>10.77</speed><time>2016-06-30T14:00:55Z</time><pdop>4.0</pdop><geoidheight>53.00</geoidheight><course>72.4</course><type>1</type></trkpt>
      <trkpt lat="40.68805236" lon="-4.8330402"><ele>2645</ele><speed>11.95</speed><time>2016-06-30T14:00:56Z</time><pdop>4.0</pdop><geoidheight>53.00</geoidheight><course>69.2</course><type>1</type></trkpt>
      <trkpt lat="40.68809986" lon="-4.8328967"><ele>2648</ele><speed>12.22</speed><time>2016-06-30T14:00:57Z</time><pdop>4.0</pdop><geoidheight>53.00</geoidheight><course>69.2</course><type>1</type></trkpt>
      <trkpt lat="40.68813096" lon="-4.83275841"><ele>2650</ele><speed>11.91</speed><time>2016-06-30T14:00:58Z</time><pdop>5.0</pdop><geoidheight>53.00</geoidheight><course>71.0</course><type>1</type></trkpt>
      <trkpt lat="40.68816578" lon="-4.83263137"><ele>2649</ele><speed>11.74</speed><time>2016-06-30T14:00:59Z</time><pdop>5.0</pdop><geoidheight>53.00</geoidheight><course>69.9</course><type>1</type></trkpt>
      <trkpt lat="40.68819385" lon="-4.83251088"><ele>2650</ele><speed>10.68</speed><time>2016-06-30T14:01:00Z</time><pdop>4.0</pdop><geoidheight>53.00</geoidheight><course>72.9</course><type>1</type></trkpt>
      <trkpt lat="40.68823265" lon="-4.83239402"><ele>2650</ele><speed>10.66</speed><time>2016-06-30T14:01:01Z</time><pdop>4.0</pdop><geoidheight>53.00</geoidheight><course>71.4</course><type>1</type></trkpt>
      <trkpt lat="40.68824314" lon="-4.83228718"><ele>2648</ele><speed>10.18</speed><time>2016-06-30T14:01:02Z</time><pdop>4.0</pdop><geoidheight>53.00</geoidheight><course>74.9</course><type>1</type></trkpt>
      <trkpt lat="40.68827015" lon="-4.83217336"><ele>2647</ele><speed>10.17</speed><time>2016-06-30T14:01:03Z</time><pdop>4.0</pdop><geoidheight>53.00</geoidheight><course>73.4</course><type>1</type></trkpt>
      <trkpt lat="40.68829934" lon="-4.83205054"><ele>2647</ele><speed>10.71</speed><time>2016-06-30T14:01:04Z</time><pdop>5.0</pdop><geoidheight>53.00</geoidheight><course>74.0</course><type>1</type></trkpt>
      <trkpt lat="40.68833095" lon="-4.83191869"><ele>2646</ele><speed>11.54</speed><time>2016-06-30T14:01:05Z</time><pdop>6.0</pdop><geoidheight>53.00</geoidheight><course>73.8</course><type>1</type></trkpt>
      <trkpt lat="40.68839323" lon="-4.83176392"><ele>2644</ele><speed>14.16</speed><time>2016-06-30T14:01:06Z</time><pdop>5.0</pdop><geoidheight>53.00</geoidheight><course>67.4</course><type>1</type></trkpt>
      <trkpt lat="40.68844675" lon="-4.83160105"><ele>2644</ele><speed>14.16</speed><time>2016-06-30T14:01:07Z</time><pdop>6.0</pdop><geoidheight>53.00</geoidheight><course>66.0</course><type>1</type></trkpt>
      <trkpt lat="40.68850817" lon="-4.83146299"><ele>2644</ele><speed>13.09</speed><time>2016-06-30T14:01:08Z</time><pdop>6.0</pdop><geoidheight>53.00</geoidheight><course>61.1</course><type>1</type></trkpt>
      <trkpt lat="40.68857479" lon="-4.83134999"><ele>2644</ele><speed>12.41</speed><time>2016-06-30T14:01:09Z</time><pdop>6.0</pdop><geoidheight>53.00</geoidheight><course>55.2</course><type>1</type></trkpt>
      <trkpt lat="40.68864229" lon="-4.83124998"><ele>2644</ele><speed>11.38</speed><time>2016-06-30T14:01:10Z</time><pdop>5.0</pdop><geoidheight>53.00</geoidheight><course>51.6</course><type>1</type></trkpt>
      <trkpt lat="40.68870674" lon="-4.83115356"><ele>2644</ele><speed>11.03</speed><time>2016-06-30T14:01:11Z</time><pdop>5.0</pdop><geoidheight>53.00</geoidheight><course>48.8</course><type>1</type></trkpt>
      <trkpt lat="40.68878706" lon="-4.83105461"><ele>2644</ele><speed>11.36</speed><time>2016-06-30T14:01:12Z</time><pdop>6.0</pdop><geoidheight>53.00</geoidheight><course>45.1</course><type>1</type></trkpt>
      <trkpt lat="40.68886034" lon="-4.83096644"><ele>2642</ele><speed>11.56</speed><time>2016-06-30T14:01:13Z</time><pdop>5.0</pdop><geoidheight>53.00</geoidheight><course>44.5</course><type>1</type></trkpt>
      <trkpt lat="40.68894858" lon="-4.83086223"><ele>2641</ele><speed>12.33</speed><time>2016-06-30T14:01:14Z</time><pdop>5.0</pdop><geoidheight>53.00</geoidheight><course>45.5</course><type>1</type></trkpt>
      <trkpt lat="40.68903957" lon="-4.8307485"><ele>2640</ele><speed>13.43</speed><time>2016-06-30T14:01:15Z</time><pdop>5.0</pdop><geoidheight>53.00</geoidheight><course>46.8</course><type>1</type></trkpt>
      <trkpt lat="40.68911381" lon="-4.83061607"><ele>2639</ele><speed>13.76</speed><time>2016-06-30T14:01:16Z</time><pdop>5.0</pdop><geoidheight>53.00</geoidheight><course>50.3</course><type>1</type></trkpt>
      <trkpt lat="40.68917051" lon="-4.83049729"><ele>2639</ele><speed>13.24</speed><time>2016-06-30T14:01:17Z</time><pdop>5.0</pdop><geoidheight>53.00</geoidheight><course>52.8</course><type>1</type></trkpt>
      <trkpt lat="40.68925916" lon="-4.83036515"><ele>2640</ele><speed>13.11</speed><time>2016-06-30T14:01:18Z</time><pdop>4.0</pdop><geoidheight>53.00</geoidheight><course>54.4</course><type>1</type></trkpt>
      <trkpt lat="40.68932197" lon="-4.8302349"><ele>2642</ele><speed>12.08</speed><time>2016-06-30T14:01:19Z</time><pdop>3.0</pdop><geoidheight>53.00</geoidheight><course>60.1</course><type>1</type></trkpt>
      <trkpt lat="40.68936826" lon="-4.83012283"><ele>2642</ele><speed>11.26</speed><time>2016-06-30T14:01:20Z</time><pdop>3.0</pdop><geoidheight>53.00</geoidheight><course>64.3</course><type>1</type></trkpt>
      <trkpt lat="40.68941493" lon="-4.83000665"><ele>2641</ele><speed>11.04</speed><time>2016-06-30T14:01:21Z</time><pdop>3.0</pdop><geoidheight>53.00</geoidheight><course>62.3</course><type>1</type></trkpt>
      <trkpt lat="40.68945918" lon="-4.82990307"><ele>2639</ele><speed>10.65</speed><time>2016-06-30T14:01:22Z</time><pdop>3.0</pdop><geoidheight>53.00</geoidheight><course>58.7</course><type>1</type></trkpt>
      <trkpt lat="40.6895133" lon="-4.82978886"><ele>2638</ele><speed>10.65</speed><time>2016-06-30T14:01:23Z</time><pdop>3.0</pdop><geoidheight>53.00</geoidheight><course>56.3</course><type>1</type></trkpt>
      <trkpt lat="40.68956476" lon="-4.82967964"><ele>2636</ele><speed>11.31</speed><time>2016-06-30T14:01:24Z</time><pdop>3.0</pdop><geoidheight>53.00</geoidheight><course>53.1</course><type>1</type></trkpt>
      <trkpt lat="40.68963875" lon="-4.82956565"><ele>2636</ele><speed>12.64</speed><time>2016-06-30T14:01:25Z</time><pdop>3.0</pdop><geoidheight>53.00</geoidheight><course>51.5</course><type>1</type></trkpt>
      <trkpt lat="40.68971251" lon="-4.82945353"><ele>2636</ele><speed>12.67</speed><time>2016-06-30T14:01:26Z</time><pdop>3.0</pdop><geoidheight>53.00</geoidheight><course>51.9</course><type>1</type></trkpt>
      <trkpt lat="40.68977014" lon="-4.82934263"><ele>2636</ele><speed>11.98</speed><time>2016-06-30T14:01:27Z</time><pdop>3.0</pdop><geoidheight>53.00</geoidheight><course>53.8</course><type>1</type></trkpt>
      <trkpt lat="40.6898269" lon="-4.8292259"><ele>2637</ele><speed>11.72</speed><time>2016-06-30T14:01:28Z</time><pdop>3.0</pdop><geoidheight>53.00</geoidheight><course>56.4</course><type>1</type></trkpt>
      <trkpt lat="40.68988477" lon="-4.829113"><ele>2637</ele><speed>11.86</speed><time>2016-06-30T14:01:29Z</time><pdop>3.0</pdop><geoidheight>53.00</geoidheight><course>58.0</course><type>1</type></trkpt>
      <trkpt lat="40.68993579" lon="-4.82899596"><ele>2637</ele><speed>11.44</speed><time>2016-06-30T14:01:30Z</time><pdop>3.0</pdop><geoidheight>53.00</geoidheight><course>59.8</course><type>1</type></trkpt>
      <trkpt lat="40.68998415" lon="-4.82889111"><ele>2636</ele><speed>10.39</speed><time>2016-06-30T14:01:31Z</time><pdop>3.0</pdop><geoidheight>53.00</geoidheight><course>60.8</course><type>1</type></trkpt>
      <trkpt lat="40.69003184" lon="-4.82879592"><ele>2636</ele><speed>9.82</speed><time>2016-06-30T14:01:32Z</time><pdop>3.0</pdop><geoidheight>53.00</geoidheight><course>58.6</course><type>1</type></trkpt>
      <trkpt lat="40.69008608" lon="-4.82869234"><ele>2636</ele><speed>10.29</speed><time>2016-06-30T14:01:33Z</time><pdop>3.0</pdop><geoidheight>53.00</geoidheight><course>57.7</course><type>1</type></trkpt>
      <trkpt lat="40.69014468" lon="-4.82858212"><ele>2635</ele><speed>11.33</speed><time>2016-06-30T14:01:34Z</time><pdop>3.0</pdop><geoidheight>53.00</geoidheight><course>55.6</course><type>1</type></trkpt>
      <trkpt lat="40.69020269" lon="-4.82845019"><ele>2634</ele><speed>12.71</speed><time>2016-06-30T14:01:35Z</time><pdop>3.0</pdop><geoidheight>53.00</geoidheight><course>58.7</course><type>1</type></trkpt>
      <trkpt lat="40.69025881" lon="-4.82831189"><ele>2633</ele><speed>13.21</speed><time>2016-06-30T14:01:36Z</time><pdop>3.0</pdop><geoidheight>53.00</geoidheight><course>61.1</course><type>1</type></trkpt>
      <trkpt lat="40.6903399" lon="-4.8281432"><ele>2632</ele><speed>15.54</speed><time>2016-06-30T14:01:37Z</time><pdop>3.0</pdop><geoidheight>53.00</geoidheight><course>60.2</course><type>1</type></trkpt>
      <trkpt lat="40.69041828" lon="-4.82798373"><ele>2631</ele><speed>15.78</speed><time>2016-06-30T14:01:38Z</time><pdop>3.0</pdop><geoidheight>53.00</geoidheight><course>59.4</course><type>1</type></trkpt>
      <trkpt lat="40.69048325" lon="-4.82782735"><ele>2631</ele><speed>15.27</speed><time>2016-06-30T14:01:39Z</time><pdop>3.0</pdop><geoidheight>53.00</geoidheight><course>59.9</course><type>1</type></trkpt>
      <trkpt lat="40.69054745" lon="-4.82766646"><ele>2632</ele><speed>14.88</speed><time>2016-06-30T14:01:40Z</time><pdop>3.0</pdop><geoidheight>53.00</geoidheight><course>60.2</course><type>1</type></trkpt>
      <trkpt lat="40.6906138" lon="-4.82751533"><ele>2631</ele><speed>15.08</speed><time>2016-06-30T14:01:41Z</time><pdop>3.0</pdop><geoidheight>53.00</geoidheight><course>60.2</course><type>1</type></trkpt>
      <trkpt lat="40.69067601" lon="-4.82735864"><ele>2632</ele><speed>15.27</speed><time>2016-06-30T14:01:42Z</time><pdop>3.0</pdop><geoidheight>53.00</geoidheight><course>61.9</course><type>1</type></trkpt>
      <trkpt lat="40.69073479" lon="-4.82720991"><ele>2631</ele><speed>14.33</speed><time>2016-06-30T14:01:43Z</time><pdop>3.0</pdop><geoidheight>53.00</geoidheight><course>62.4</course><type>1</type></trkpt>
      <trkpt lat="40.69078981" lon="-4.82707528"><ele>2632</ele><speed>12.99</speed><time>2016-06-30T14:01:44Z</time><pdop>3.0</pdop><geoidheight>53.00</geoidheight><course>61.8</course><type>1</type></trkpt>
      <trkpt lat="40.69084802" lon="-4.82695501"><ele>2631</ele><speed>12.15</speed><time>2016-06-30T14:01:45Z</time><pdop>3.0</pdop><geoidheight>53.00</geoidheight><course>60.1</course><type>1</type></trkpt>
      <trkpt lat="40.69090236" lon="-4.8268258"><ele>2629</ele><speed>12.66</speed><time>2016-06-30T14:01:46Z</time><pdop>3.0</pdop><geoidheight>53.00</geoidheight><course>61.2</course><type>1</type></trkpt>
      <trkpt lat="40.69095125" lon="-4.8266882"><ele>2628</ele><speed>12.94</speed><time>2016-06-30T14:01:47Z</time><pdop>4.0</pdop><geoidheight>53.00</geoidheight><course>64.3</course><type>1</type></trkpt>
      <trkpt lat="40.69102604" lon="-4.8265141"><ele>2626</ele><speed>15.55</speed><time>2016-06-30T14:01:48Z</time><pdop>4.0</pdop><geoidheight>53.00</geoidheight><course>63.5</course><type>1</type></trkpt>
      <trkpt lat="40.69108322" lon="-4.82632774"><ele>2625</ele><speed>16.87</speed><time>2016-06-30T14:01:49Z</time><pdop>3.0</pdop><geoidheight>53.00</geoidheight><course>65.1</course><type>1</type></trkpt>
      <trkpt lat="40.69114919" lon="-4.82614553"><ele>2626</ele><speed>16.76</speed><time>2016-06-30T14:01:50Z</time><pdop>3.0</pdop><geoidheight>53.00</geoidheight><course>65.5</course><type>1</type></trkpt>
      <trkpt lat="40.69118629" lon="-4.82597692"><ele>2627</ele><speed>15.24</speed><time>2016-06-30T14:01:51Z</time><pdop>3.0</pdop><geoidheight>53.00</geoidheight><course>70.8</course><type>1</type></trkpt>
      <trkpt lat="40.69118441" lon="-4.82581764"><ele>2632</ele><speed>13.59</speed><time>2016-06-30T14:01:52Z</time><pdop>3.0</pdop><geoidheight>53.00</geoidheight><course>86.2</course><type>1</type></trkpt>
      <trkpt lat="40.69117911" lon="-4.82569164"><ele>2635</ele><speed>12.10</speed><time>2016-06-30T14:01:53Z</time><pdop>3.0</pdop><geoidheight>53.00</geoidheight><course>92.5</course><type>1</type></trkpt>
      <trkpt lat="40.6911637" lon="-4.82557573"><ele>2635</ele><speed>10.50</speed><time>2016-06-30T14:01:54Z</time><pdop>4.0</pdop><geoidheight>53.00</geoidheight><course>93.7</course><type>1</type></trkpt>
      <trkpt lat="40.69114203" lon="-4.8254497"><ele>2636</ele><speed>11.24</speed><time>2016-06-30T14:01:55Z</time><pdop>4.0</pdop><geoidheight>53.00</geoidheight><course>100.4</course><type>1</type></trkpt>
      <trkpt lat="40.69113105" lon="-4.82532128"><ele>2636</ele><speed>11.14</speed><time>2016-06-30T14:01:56Z</time><pdop>4.0</pdop><geoidheight>53.00</geoidheight><course>98.4</course><type>1</type></trkpt>
      <trkpt lat="40.69113082" lon="-4.82516722"><ele>2635</ele><speed>13.32</speed><time>2016-06-30T14:01:57Z</time><pdop>4.0</pdop><geoidheight>53.00</geoidheight><course>91.4</course><type>1</type></trkpt>
      <trkpt lat="40.69113082" lon="-4.82499883"><ele>2635</ele><speed>13.58</speed><time>2016-06-30T14:01:58Z</time><pdop>5.0</pdop><geoidheight>53.00</geoidheight><course>90.9</course><type>1</type></trkpt>
      <trkpt lat="40.69112121" lon="-4.82485022"><ele>2635</ele><speed>12.97</speed><time>2016-06-30T14:01:59Z</time><pdop>6.0</pdop><geoidheight>53.00</geoidheight><course>90.6</course><type>1</type></trkpt>
      <trkpt lat="40.69113048" lon="-4.82465689"><ele>2635</ele><speed>14.26</speed><time>2016-06-30T14:02:00Z</time><pdop>5.0</pdop><geoidheight>53.00</geoidheight><course>93.2</course><type>1</type></trkpt>
      <trkpt lat="40.69114319" lon="-4.82449317"><ele>2633</ele><speed>13.25</speed><time>2016-06-30T14:02:01Z</time><pdop>4.0</pdop><geoidheight>53.00</geoidheight><course>90.0</course><type>1</type></trkpt>
      <trkpt lat="40.6911153" lon="-4.82440209"><ele>2633</ele><speed>10.63</speed><time>2016-06-30T14:02:02Z</time><pdop>4.0</pdop><geoidheight>53.00</geoidheight><course>98.9</course><type>1</type></trkpt>
      <trkpt lat="40.69109754" lon="-4.82427924"><ele>2633</ele><speed>10.40</speed><time>2016-06-30T14:02:03Z</time><pdop>3.0</pdop><geoidheight>53.00</geoidheight><course>103.4</course><type>1</type></trkpt>
      <trkpt lat="40.69108935" lon="-4.82414958"><ele>2633</ele><speed>11.13</speed><time>2016-06-30T14:02:04Z</time><pdop>3.0</pdop><geoidheight>53.00</geoidheight><course>101.8</course><type>1</type></trkpt>
      <trkpt lat="40.69106021" lon="-4.82400603"><ele>2632</ele><speed>12.38</speed><time>2016-06-30T14:02:05Z</time><pdop>3.0</pdop><geoidheight>53.00</geoidheight><course>103.9</course><type>1</type></trkpt>
      <trkpt lat="40.69104538" lon="-4.82385223"><ele>2635</ele><speed>12.76</speed><time>2016-06-30T14:02:06Z</time><pdop>3.0</pdop><geoidheight>53.00</geoidheight><course>102.4</course><type>1</type></trkpt>
      <trkpt lat="40.69102159" lon="-4.823708"><ele>2641</ele><speed>13.12</speed><time>2016-06-30T14:02:07Z</time><pdop>3.0</pdop><geoidheight>53.00</geoidheight><course>106.8</course><type>1</type></trkpt>
      <trkpt lat="40.69098959" lon="-4.82357278"><ele>2646</ele><speed>13.05</speed><time>2016-06-30T14:02:08Z</time><pdop>3.0</pdop><geoidheight>53.00</geoidheight><course>108.1</course><type>1</type></trkpt>
      <trkpt lat="40.69094127" lon="-4.82347927"><ele>2649</ele><speed>11.10</speed><time>2016-06-30T14:02:09Z</time><pdop>3.0</pdop><geoidheight>53.00</geoidheight><course>119.7</course><type>1</type></trkpt>
      <trkpt lat="40.69088996" lon="-4.82338804"><ele>2568</ele><speed>10.50</speed><time>2016-06-30T14:02:10Z</time><pdop>3.0</pdop><geoidheight>53.00</geoidheight><course>128.4</course><type>1</type></trkpt>
      <trkpt lat="40.69082398" lon="-4.82327444"><ele>2591</ele><speed>12.01</speed><time>2016-06-30T14:02:11Z</time><pdop>3.0</pdop><geoidheight>53.00</geoidheight><course>129.1</course><type>1</type></trkpt>
      <trkpt lat="40.69075011" lon="-4.8231636"><ele>2612</ele><speed>13.17</speed><time>2016-06-30T14:02:12Z</time><pdop>3.0</pdop><geoidheight>53.00</geoidheight><course>130.0</course><type>1</type></trkpt>
      <trkpt lat="40.69066034" lon="-4.82305815"><ele>2627</ele><speed>13.52</speed><time>2016-06-30T14:02:13Z</time><pdop>3.0</pdop><geoidheight>53.00</geoidheight><course>139.6</course><type>1</type></trkpt>
      <trkpt lat="40.69056464" lon="-4.82296425"><ele>2615</ele><speed>13.14</speed><time>2016-06-30T14:02:14Z</time><pdop>3.0</pdop><geoidheight>53.00</geoidheight><course>142.1</course><type>1</type></trkpt>
      <trkpt lat="40.69046713" lon="-4.82295833"><ele>2627</ele><speed>11.48</speed><time>2016-06-30T14:02:15Z</time><pdop>4.0</pdop><geoidheight>53.00</geoidheight><course>161.6</course><type>1</type></trkpt>
      <trkpt lat="40.69031044" lon="-4.8230346"><ele>2639</ele><speed>14.58</speed><time>2016-06-30T14:02:16Z</time><pdop>3.0</pdop><geoidheight>53.00</geoidheight><course>188.7</course><type>1</type></trkpt>
      <trkpt lat="40.69018656" lon="-4.82311406"><ele>2647</ele><speed>14.53</speed><time>2016-06-30T14:02:17Z</time><pdop>3.0</pdop><geoidheight>53.00</geoidheight><course>203.2</course><type>1</type></trkpt>
      <trkpt lat="40.69008064" lon="-4.82318104"><ele>2651</ele><speed>13.19</speed><time>2016-06-30T14:02:18Z</time><pdop>4.0</pdop><geoidheight>53.00</geoidheight><course>207.1</course><type>1</type></trkpt>
      <trkpt lat="40.69007586" lon="-4.82329545"><ele>2656</ele><speed>10.15</speed><time>2016-06-30T14:02:19Z</time><pdop>3.0</pdop><geoidheight>53.00</geoidheight><course>247.1</course><type>1</type></trkpt>
      <trkpt lat="40.69009289" lon="-4.82339389"><ele>2660</ele><speed>9.03</speed><time>2016-06-30T14:02:20Z</time><pdop>3.0</pdop><geoidheight>53.00</geoidheight><course>284.4</course><type>1</type></trkpt>
      <trkpt lat="40.69012597" lon="-4.8234857"><ele>2662</ele><speed>9.06</speed><time>2016-06-30T14:02:21Z</time><pdop>3.0</pdop><geoidheight>53.00</geoidheight><course>295.2</course><type>1</type></trkpt>
      <trkpt lat="40.69019013" lon="-4.82353466"><ele>2661</ele><speed>8.75</speed><time>2016-06-30T14:02:22Z</time><pdop>4.0</pdop><geoidheight>53.00</geoidheight><course>310.4</course><type>1</type></trkpt>
      <trkpt lat="40.690323" lon="-4.82346629"><ele>2661</ele><speed>6.12</speed><time>2016-06-30T14:02:24Z</time><pdop>6.0</pdop><geoidheight>53.00</geoidheight><course>0.1</course><type>1</type></trkpt>
      <trkpt lat="40.69045245" lon="-4.82321638"><ele>2665</ele><speed>9.93</speed><time>2016-06-30T14:02:26Z</time><pdop>6.0</pdop><geoidheight>53.00</geoidheight><course>52.6</course><type>1</type></trkpt>
      <trkpt lat="40.69041454" lon="-4.82296334"><ele>2666</ele><speed>8.76</speed><time>2016-06-30T14:02:28Z</time><pdop>6.0</pdop><geoidheight>53.00</geoidheight><course>96.2</course><type>1</type></trkpt>
      <trkpt lat="40.6903532" lon="-4.82279881"><ele>2667</ele><speed>11.05</speed><time>2016-06-30T14:02:29Z</time><pdop>6.0</pdop><geoidheight>53.00</geoidheight><course>112.2</course><type>1</type></trkpt>
      <trkpt lat="40.69024167" lon="-4.82269125"><ele>2670</ele><speed>12.24</speed><time>2016-06-30T14:02:30Z</time><pdop>5.0</pdop><geoidheight>53.00</geoidheight><course>137.2</course><type>1</type></trkpt>
      <trkpt lat="40.69015399" lon="-4.82261672"><ele>2675</ele><speed>11.05</speed><time>2016-06-30T14:02:31Z</time><pdop>5.0</pdop><geoidheight>53.00</geoidheight><course>147.4</course><type>1</type></trkpt>
      <trkpt lat="40.6900465" lon="-4.82253694"><ele>2677</ele><speed>12.02</speed><time>2016-06-30T14:02:32Z</time><pdop>5.0</pdop><geoidheight>53.00</geoidheight><course>149.8</course><type>1</type></trkpt>
      <trkpt lat="40.68989723" lon="-4.82264807"><ele>2680</ele><speed>13.51</speed><time>2016-06-30T14:02:33Z</time><pdop>3.0</pdop><geoidheight>53.00</geoidheight><course>199.6</course><type>1</type></trkpt>
      <trkpt lat="40.68978084" lon="-4.82273179"><ele>2682</ele><speed>14.49</speed><time>2016-06-30T14:02:34Z</time><pdop>3.0</pdop><geoidheight>53.00</geoidheight><course>212.7</course><type>1</type></trkpt>
      <trkpt lat="40.68970034" lon="-4.82283861"><ele>2683</ele><speed>13.58</speed><time>2016-06-30T14:02:35Z</time><pdop>4.0</pdop><geoidheight>53.00</geoidheight><course>222.5</course><type>1</type></trkpt>
      <trkpt lat="40.68969702" lon="-4.82301587"><ele>2693</ele><speed>8.29</speed><time>2016-06-30T14:02:37Z</time><pdop>9.0</pdop><geoidheight>53.00</geoidheight><course>272.2</course><type>1</type></trkpt>
      <trkpt lat="40.68985202" lon="-4.8231349"><ele>2696</ele><speed>5.99</speed><time>2016-06-30T14:02:41Z</time><pdop>9.0</pdop><geoidheight>53.00</geoidheight><course>4.4</course><type>1</type></trkpt>
      <trkpt lat="40.69002394" lon="-4.82295022"><ele>2699</ele><speed>9.17</speed><time>2016-06-30T14:02:44Z</time><pdop>3.0</pdop><geoidheight>53.00</geoidheight><course>44.5</course><type>1</type></trkpt>
      <trkpt lat="40.69006601" lon="-4.82285075"><ele>2700</ele><speed>9.67</speed><time>2016-06-30T14:02:45Z</time><pdop>3.0</pdop><geoidheight>53.00</geoidheight><course>57.1</course><type>1</type></trkpt>
      <trkpt lat="40.69008873" lon="-4.82272316"><ele>2702</ele><speed>10.76</speed><time>2016-06-30T14:02:46Z</time><pdop>3.0</pdop><geoidheight>53.00</geoidheight><course>70.1</course><type>1</type></trkpt>
      <trkpt lat="40.69010264" lon="-4.82258527"><ele>2703</ele><speed>11.36</speed><time>2016-06-30T14:02:47Z</time><pdop>3.0</pdop><geoidheight>53.00</geoidheight><course>81.5</course><type>1</type></trkpt>
      <trkpt lat="40.69010827" lon="-4.82245118"><ele>2705</ele><speed>11.50</speed><time>2016-06-30T14:02:48Z</time><pdop>3.0</pdop><geoidheight>53.00</geoidheight><course>85.2</course><type>1</type></trkpt>
      <trkpt lat="40.69009592" lon="-4.82230272"><ele>2705</ele><speed>12.50</speed><time>2016-06-30T14:02:49Z</time><pdop>3.0</pdop><geoidheight>53.00</geoidheight><course>93.8</course><type>1</type></trkpt>
      <trkpt lat="40.69008006" lon="-4.82214972"><ele>2706</ele><speed>12.86</speed><time>2016-06-30T14:02:50Z</time><pdop>3.0</pdop><geoidheight>53.00</geoidheight><course>96.9</course><type>1</type></trkpt>
      <trkpt lat="40.69005086" lon="-4.82200519"><ele>2707</ele><speed>12.78</speed><time>2016-06-30T14:02:51Z</time><pdop>3.0</pdop><geoidheight>53.00</geoidheight><course>105.6</course><type>1</type></trkpt>
      <trkpt lat="40.69000659" lon="-4.82187513"><ele>2708</ele><speed>12.51</speed><time>2016-06-30T14:02:52Z</time><pdop>4.0</pdop><geoidheight>53.00</geoidheight><course>112.4</course><type>1</type></trkpt>
      <trkpt lat="40.68990601" lon="-4.82181166"><ele>2708</ele><speed>11.76</speed><time>2016-06-30T14:02:53Z</time><pdop>3.0</pdop><geoidheight>53.00</geoidheight><course>140.2</course><type>1</type></trkpt>
      <trkpt lat="40.68982769" lon="-4.8217392"><ele>2709</ele><speed>11.08</speed><time>2016-06-30T14:02:54Z</time><pdop>4.0</pdop><geoidheight>53.00</geoidheight><course>146.2</course><type>1</type></trkpt>
      <trkpt lat="40.68970674" lon="-4.82177542"><ele>2706</ele><speed>12.38</speed><time>2016-06-30T14:02:55Z</time><pdop>3.0</pdop><geoidheight>53.00</geoidheight><course>178.3</course><type>1</type></trkpt>
      <trkpt lat="40.68958815" lon="-4.82180807"><ele>2706</ele><speed>13.10</speed><time>2016-06-30T14:02:56Z</time><pdop>3.0</pdop><geoidheight>53.00</geoidheight><course>191.7</course><type>1</type></trkpt>
      <trkpt lat="40.68947987" lon="-4.82186466"><ele>2705</ele><speed>12.95</speed><time>2016-06-30T14:02:57Z</time><pdop>3.0</pdop><geoidheight>53.00</geoidheight><course>201.4</course><type>1</type></trkpt>
      <trkpt lat="40.68938368" lon="-4.82193175"><ele>2705</ele><speed>11.97</speed><time>2016-06-30T14:02:58Z</time><pdop>3.0</pdop><geoidheight>53.00</geoidheight><course>208.6</course><type>1</type></trkpt>
      <trkpt lat="40.68932701" lon="-4.82199981"><ele>2706</ele><speed>9.85</speed><time>2016-06-30T14:02:59Z</time><pdop>3.0</pdop><geoidheight>53.00</geoidheight><course>221.3</course><type>1</type></trkpt>
      <trkpt lat="40.68928773" lon="-4.82208939"><ele>2705</ele><speed>8.89</speed><time>2016-06-30T14:03:00Z</time><pdop>3.0</pdop><geoidheight>53.00</geoidheight><course>236.8</course><type>1</type></trkpt>
      <trkpt lat="40.68925434" lon="-4.82218688"><ele>2705</ele><speed>8.87</speed><time>2016-06-30T14:03:01Z</time><pdop>3.0</pdop><geoidheight>53.00</geoidheight><course>243.3</course><type>1</type></trkpt>
      <trkpt lat="40.6892229" lon="-4.8222809"><ele>2705</ele><speed>9.00</speed><time>2016-06-30T14:03:02Z</time><pdop>5.0</pdop><geoidheight>53.00</geoidheight><course>243.2</course><type>1</type></trkpt>
      <trkpt lat="40.68928079" lon="-4.82240003"><ele>2707</ele><speed>9.23</speed><time>2016-06-30T14:03:03Z</time><pdop>3.0</pdop><geoidheight>53.00</geoidheight><course>281.4</course><type>1</type></trkpt>
      <trkpt lat="40.68932037" lon="-4.82249164"><ele>2709</ele><speed>8.63</speed><time>2016-06-30T14:03:04Z</time><pdop>3.0</pdop><geoidheight>53.00</geoidheight><course>296.4</course><type>1</type></trkpt>
      <trkpt lat="40.6893737" lon="-4.8225485"><ele>2709</ele><speed>7.84</speed><time>2016-06-30T14:03:05Z</time><pdop>3.0</pdop><geoidheight>53.00</geoidheight><course>313.3</course><type>1</type></trkpt>
      <trkpt lat="40.68943187" lon="-4.82259023"><ele>2710</ele><speed>7.32</speed><time>2016-06-30T14:03:06Z</time><pdop>3.0</pdop><geoidheight>53.00</geoidheight><course>330.0</course><type>1</type></trkpt>
      <trkpt lat="40.68950058" lon="-4.82259696"><ele>2710</ele><speed>7.28</speed><time>2016-06-30T14:03:07Z</time><pdop>3.0</pdop><geoidheight>53.00</geoidheight><course>353.3</course><type>1</type></trkpt>
      <trkpt lat="40.68957994" lon="-4.82258168"><ele>2710</ele><speed>8.05</speed><time>2016-06-30T14:03:08Z</time><pdop>3.0</pdop><geoidheight>53.00</geoidheight><course>5.2</course><type>1</type></trkpt>
      <trkpt lat="40.68965516" lon="-4.82252114"><ele>2708</ele><speed>9.07</speed><time>2016-06-30T14:03:09Z</time><pdop>3.0</pdop><geoidheight>53.00</geoidheight><course>26.4</course><type>1</type></trkpt>
      <trkpt lat="40.68972614" lon="-4.82244339"><ele>2708</ele><speed>10.02</speed><time>2016-06-30T14:03:10Z</time><pdop>3.0</pdop><geoidheight>53.00</geoidheight><course>38.2</course><type>1</type></trkpt>
      <trkpt lat="40.68980691" lon="-4.82234134"><ele>2709</ele><speed>10.98</speed><time>2016-06-30T14:03:11Z</time><pdop>4.0</pdop><geoidheight>53.00</geoidheight><course>41.9</course><type>1</type></trkpt>
      <trkpt lat="40.68988689" lon="-4.8222412"><ele>2708</ele><speed>12.34</speed><time>2016-06-30T14:03:12Z</time><pdop>3.0</pdop><geoidheight>53.00</geoidheight><course>43.4</course><type>1</type></trkpt>
      <trkpt lat="40.68998668" lon="-4.82212144"><ele>2707</ele><speed>13.81</speed><time>2016-06-30T14:03:13Z</time><pdop>3.0</pdop><geoidheight>53.00</geoidheight><course>43.9</course><type>1</type></trkpt>
      <trkpt lat="40.69007882" lon="-4.8219888"><ele>2706</ele><speed>15.22</speed><time>2016-06-30T14:03:14Z</time><pdop>4.0</pdop><geoidheight>53.00</geoidheight><course>47.5</course><type>1</type></trkpt>
      <trkpt lat="40.69017072" lon="-4.82184148"><ele>2705</ele><speed>15.43</speed><time>2016-06-30T14:03:15Z</time><pdop>4.0</pdop><geoidheight>53.00</geoidheight><course>50.2</course><type>1</type></trkpt>
      <trkpt lat="40.69025282" lon="-4.82171533"><ele>2705</ele><speed>14.77</speed><time>2016-06-30T14:03:16Z</time><pdop>4.0</pdop><geoidheight>53.00</geoidheight><course>49.8</course><type>1</type></trkpt>
      <trkpt lat="40.69029812" lon="-4.82159744"><ele>2705</ele><speed>12.93</speed><time>2016-06-30T14:03:17Z</time><pdop>4.0</pdop><geoidheight>53.00</geoidheight><course>51.4</course><type>1</type></trkpt>
      <trkpt lat="40.6903633" lon="-4.821484"><ele>2705</ele><speed>11.98</speed><time>2016-06-30T14:03:18Z</time><pdop>5.0</pdop><geoidheight>53.00</geoidheight><course>49.7</course><type>1</type></trkpt>
      <trkpt lat="40.69035884" lon="-4.82136383"><ele>2709</ele><speed>9.38</speed><time>2016-06-30T14:03:19Z</time><pdop>4.0</pdop><geoidheight>53.00</geoidheight><course>66.8</course><type>1</type></trkpt>
      <trkpt lat="40.69035967" lon="-4.82124875"><ele>2711</ele><speed>9.27</speed><time>2016-06-30T14:03:20Z</time><pdop>4.0</pdop><geoidheight>53.00</geoidheight><course>83.0</course><type>1</type></trkpt>
      <trkpt lat="40.69037286" lon="-4.82111508"><ele>2710</ele><speed>11.34</speed><time>2016-06-30T14:03:21Z</time><pdop>3.0</pdop><geoidheight>53.00</geoidheight><course>88.2</course><type>1</type></trkpt>
      <trkpt lat="40.69036653" lon="-4.82095272"><ele>2710</ele><speed>13.32</speed><time>2016-06-30T14:03:22Z</time><pdop>3.0</pdop><geoidheight>53.00</geoidheight><course>90.0</course><type>1</type></trkpt>
      <trkpt lat="40.69038563" lon="-4.82076274"><ele>2710</ele><speed>15.19</speed><time>2016-06-30T14:03:23Z</time><pdop>4.0</pdop><geoidheight>53.00</geoidheight><course>87.1</course><type>1</type></trkpt>
      <trkpt lat="40.69035255" lon="-4.82055022"><ele>2709</ele><speed>17.20</speed><time>2016-06-30T14:03:24Z</time><pdop>4.0</pdop><geoidheight>53.00</geoidheight><course>94.6</course><type>1</type></trkpt>
      <trkpt lat="40.69033209" lon="-4.82035302"><ele>2710</ele><speed>16.56</speed><time>2016-06-30T14:03:25Z</time><pdop>4.0</pdop><geoidheight>53.00</geoidheight><course>95.3</course><type>1</type></trkpt>
      <trkpt lat="40.69029842" lon="-4.8201692"><ele>2709</ele><speed>15.40</speed><time>2016-06-30T14:03:26Z</time><pdop>4.0</pdop><geoidheight>53.00</geoidheight><course>97.5</course><type>1</type></trkpt>
      <trkpt lat="40.69028427" lon="-4.82000479"><ele>2710</ele><speed>14.07</speed><time>2016-06-30T14:03:27Z</time><pdop>4.0</pdop><geoidheight>53.00</geoidheight><course>98.1</course><type>1</type></trkpt>
      <trkpt lat="40.69026647" lon="-4.81983643"><ele>2712</ele><speed>13.67</speed><time>2016-06-30T14:03:28Z</time><pdop>4.0</pdop><geoidheight>53.00</geoidheight><course>97.5</course><type>1</type></trkpt>
      <trkpt lat="40.6902475" lon="-4.81967067"><ele>2714</ele><speed>13.91</speed><time>2016-06-30T14:03:29Z</time><pdop>4.0</pdop><geoidheight>53.00</geoidheight><course>99.1</course><type>1</type></trkpt>
      <trkpt lat="40.69020957" lon="-4.81951368"><ele>2714</ele><speed>13.82</speed><time>2016-06-30T14:03:30Z</time><pdop>5.0</pdop><geoidheight>53.00</geoidheight><course>101.7</course><type>1</type></trkpt>
      <trkpt lat="40.69020444" lon="-4.81933422"><ele>2716</ele><speed>14.40</speed><time>2016-06-30T14:03:31Z</time><pdop>4.0</pdop><geoidheight>53.00</geoidheight><course>97.8</course><type>1</type></trkpt>
      <trkpt lat="40.69019654" lon="-4.81913928"><ele>2718</ele><speed>15.25</speed><time>2016-06-30T14:03:32Z</time><pdop>4.0</pdop><geoidheight>53.00</geoidheight><course>94.7</course><type>1</type></trkpt>
      <trkpt lat="40.69018122" lon="-4.81895051"><ele>2722</ele><speed>14.81</speed><time>2016-06-30T14:03:33Z</time><pdop>4.0</pdop><geoidheight>53.00</geoidheight><course>97.9</course><type>1</type></trkpt>
      <trkpt lat="40.6901484" lon="-4.81877791"><ele>2728</ele><speed>13.72</speed><time>2016-06-30T14:03:34Z</time><pdop>4.0</pdop><geoidheight>53.00</geoidheight><course>109.6</course><type>1</type></trkpt>
      <trkpt lat="40.69009763" lon="-4.81864534"><ele>2729</ele><speed>12.87</speed><time>2016-06-30T14:03:35Z</time><pdop>4.0</pdop><geoidheight>53.00</geoidheight><course>114.8</course><type>1</type></trkpt>
      <trkpt lat="40.68998713" lon="-4.81855754"><ele>2729</ele><speed>13.32</speed><time>2016-06-30T14:03:36Z</time><pdop>3.0</pdop><geoidheight>53.00</geoidheight><course>140.5</course><type>1</type></trkpt>
      <trkpt lat="40.68987112" lon="-4.81850598"><ele>2727</ele><speed>13.96</speed><time>2016-06-30T14:03:37Z</time><pdop>3.0</pdop><geoidheight>53.00</geoidheight><course>156.0</course><type>1</type></trkpt>
      <trkpt lat="40.68974625" lon="-4.81846994"><ele>2728</ele><speed>14.12</speed><time>2016-06-30T14:03:38Z</time><pdop>3.0</pdop><geoidheight>53.00</geoidheight><course>169.9</course><type>1</type></trkpt>
      <trkpt lat="40.68963111" lon="-4.8184795"><ele>2729</ele><speed>12.45</speed><time>2016-06-30T14:03:39Z</time><pdop>3.0</pdop><geoidheight>53.00</geoidheight><course>184.9</course><type>1</type></trkpt>
      <trkpt lat="40.68955148" lon="-4.81853906"><ele>2728</ele><speed>9.80</speed><time>2016-06-30T14:03:40Z</time><pdop>3.0</pdop><geoidheight>53.00</geoidheight><course>204.6</course><type>1</type></trkpt>
      <trkpt lat="40.68947655" lon="-4.81858293"><ele>2729</ele><speed>9.45</speed><time>2016-06-30T14:03:41Z</time><pdop>3.0</pdop><geoidheight>53.00</geoidheight><course>205.6</course><type>1</type></trkpt>
      <trkpt lat="40.68941705" lon="-4.81862578"><ele>2730</ele><speed>8.24</speed><time>2016-06-30T14:03:42Z</time><pdop>4.0</pdop><geoidheight>53.00</geoidheight><course>207.0</course><type>1</type></trkpt>
      <trkpt lat="40.68947488" lon="-4.81877706"><ele>2730</ele><speed>3.30</speed><time>2016-06-30T14:03:45Z</time><pdop>8.0</pdop><geoidheight>53.00</geoidheight><course>289.7</course><type>1</type></trkpt>
      <trkpt lat="40.68961385" lon="-4.81886785"><ele>2730</ele><speed>6.87</speed><time>2016-06-30T14:03:46Z</time><pdop>9.0</pdop><geoidheight>53.00</geoidheight><course>323.5</course><type>1</type></trkpt>
      <trkpt lat="40.68979302" lon="-4.81880384"><ele>2729</ele><speed>8.37</speed><time>2016-06-30T14:03:48Z</time><pdop>5.0</pdop><geoidheight>53.00</geoidheight><course>6.4</course><type>1</type></trkpt>
      <trkpt lat="40.6899574" lon="-4.81872783"><ele>2730</ele><speed>9.87</speed><time>2016-06-30T14:03:50Z</time><pdop>5.0</pdop><geoidheight>53.00</geoidheight><course>22.9</course><type>1</type></trkpt>
      <trkpt lat="40.69010647" lon="-4.81861703"><ele>2731</ele><speed>9.56</speed><time>2016-06-30T14:03:52Z</time><pdop>6.0</pdop><geoidheight>53.00</geoidheight><course>30.4</course><type>1</type></trkpt>
      <trkpt lat="40.69026687" lon="-4.81847808"><ele>2731</ele><speed>10.56</speed><time>2016-06-30T14:03:54Z</time><pdop>5.0</pdop><geoidheight>53.00</geoidheight><course>34.7</course><type>1</type></trkpt>
      <trkpt lat="40.6903451" lon="-4.81839623"><ele>2732</ele><speed>11.03</speed><time>2016-06-30T14:03:55Z</time><pdop>5.0</pdop><geoidheight>53.00</geoidheight><course>38.7</course><type>1</type></trkpt>
      <trkpt lat="40.69038258" lon="-4.81825521"><ele>2733</ele><speed>12.37</speed><time>2016-06-30T14:03:56Z</time><pdop>4.0</pdop><geoidheight>53.00</geoidheight><course>58.5</course><type>1</type></trkpt>
      <trkpt lat="40.69040827" lon="-4.81811199"><ele>2734</ele><speed>13.23</speed><time>2016-06-30T14:03:57Z</time><pdop>4.0</pdop><geoidheight>53.00</geoidheight><course>77.8</course><type>1</type></trkpt>
      <trkpt lat="40.69041361" lon="-4.81794603"><ele>2736</ele><speed>14.71</speed><time>2016-06-30T14:03:58Z</time><pdop>4.0</pdop><geoidheight>53.00</geoidheight><course>87.2</course><type>1</type></trkpt>
      <trkpt lat="40.69038255" lon="-4.81777772"><ele>2736</ele><speed>14.69</speed><time>2016-06-30T14:03:59Z</time><pdop>4.0</pdop><geoidheight>53.00</geoidheight><course>98.7</course><type>1</type></trkpt>
      <trkpt lat="40.69035572" lon="-4.81762231"><ele>2736</ele><speed>14.12</speed><time>2016-06-30T14:04:00Z</time><pdop>5.0</pdop><geoidheight>53.00</geoidheight><course>100.4</course><type>1</type></trkpt>
      <trkpt lat="40.69004291" lon="-4.81762366"><ele>2736</ele><speed>9.99</speed><time>2016-06-30T14:04:03Z</time><pdop>4.0</pdop><geoidheight>53.00</geoidheight><course>177.7</course><type>1</type></trkpt>
      <trkpt lat="40.68994048" lon="-4.81762553"><ele>2735</ele><speed>10.45</speed><time>2016-06-30T14:04:04Z</time><pdop>4.0</pdop><geoidheight>53.00</geoidheight><course>178.1</course><type>1</type></trkpt>
      <trkpt lat="40.68984375" lon="-4.8176274"><ele>2736</ele><speed>10.51</speed><time>2016-06-30T14:04:05Z</time><pdop>4.0</pdop><geoidheight>53.00</geoidheight><course>181.2</course><type>1</type></trkpt>
      <trkpt lat="40.68966275" lon="-4.81771529"><ele>2735</ele><speed>9.77</speed><time>2016-06-30T14:04:07Z</time><pdop>9.0</pdop><geoidheight>53.00</geoidheight><course>203.9</course><type>1</type></trkpt>
      <trkpt lat="40.68961434" lon="-4.81785707"><ele>2734</ele><speed>6.84</speed><time>2016-06-30T14:04:09Z</time><pdop>4.0</pdop><geoidheight>53.00</geoidheight><course>244.1</course><type>1</type></trkpt>
      <trkpt lat="40.68965194" lon="-4.81799029"><ele>2735</ele><speed>5.35</speed><time>2016-06-30T14:04:11Z</time><pdop>5.0</pdop><geoidheight>53.00</geoidheight><course>272.5</course><type>1</type></trkpt>
      <trkpt lat="40.68983955" lon="-4.81783706"><ele>2731</ele><speed>7.65</speed><time>2016-06-30T14:04:14Z</time><pdop>6.0</pdop><geoidheight>53.00</geoidheight><course>42.5</course><type>1</type></trkpt>
      <trkpt lat="40.6899555" lon="-4.81772835"><ele>2731</ele><speed>11.70</speed><time>2016-06-30T14:04:15Z</time><pdop>5.0</pdop><geoidheight>53.00</geoidheight><course>43.0</course><type>1</type></trkpt>
      <trkpt lat="40.69005572" lon="-4.81762409"><ele>2732</ele><speed>12.94</speed><time>2016-06-30T14:04:16Z</time><pdop>5.0</pdop><geoidheight>53.00</geoidheight><course>44.0</course><type>1</type></trkpt>
      <trkpt lat="40.69015066" lon="-4.81748645"><ele>2732</ele><speed>14.00</speed><time>2016-06-30T14:04:17Z</time><pdop>5.0</pdop><geoidheight>53.00</geoidheight><course>47.2</course><type>1</type></trkpt>
      <trkpt lat="40.69023493" lon="-4.81734674"><ele>2734</ele><speed>14.13</speed><time>2016-06-30T14:04:18Z</time><pdop>5.0</pdop><geoidheight>53.00</geoidheight><course>51.9</course><type>1</type></trkpt>
      <trkpt lat="40.69031266" lon="-4.81720879"><ele>2734</ele><speed>14.32</speed><time>2016-06-30T14:04:19Z</time><pdop>6.0</pdop><geoidheight>53.00</geoidheight><course>56.3</course><type>1</type></trkpt>
      <trkpt lat="40.69037612" lon="-4.81705791"><ele>2734</ele><speed>14.07</speed><time>2016-06-30T14:04:20Z</time><pdop>6.0</pdop><geoidheight>53.00</geoidheight><course>60.5</course><type>1</type></trkpt>
      <trkpt lat="40.69045514" lon="-4.81692238"><ele>2733</ele><speed>14.39</speed><time>2016-06-30T14:04:21Z</time><pdop>6.0</pdop><geoidheight>53.00</geoidheight><course>55.9</course><type>1</type></trkpt>
      <trkpt lat="40.69051489" lon="-4.81679742"><ele>2732</ele><speed>13.19</speed><time>2016-06-30T14:04:22Z</time><pdop>5.0</pdop><geoidheight>53.00</geoidheight><course>58.5</course><type>1</type></trkpt>
      <trkpt lat="40.69057597" lon="-4.81665904"><ele>2731</ele><speed>13.09</speed><time>2016-06-30T14:04:23Z</time><pdop>4.0</pdop><geoidheight>53.00</geoidheight><course>62.9</course><type>1</type></trkpt>
      <trkpt lat="40.69061658" lon="-4.81653142"><ele>2729</ele><speed>12.28</speed><time>2016-06-30T14:04:24Z</time><pdop>4.0</pdop><geoidheight>53.00</geoidheight><course>69.4</course><type>1</type></trkpt>
      <trkpt lat="40.69065851" lon="-4.81640066"><ele>2727</ele><speed>12.49</speed><time>2016-06-30T14:04:25Z</time><pdop>4.0</pdop><geoidheight>53.00</geoidheight><course>69.4</course><type>1</type></trkpt>
      <trkpt lat="40.69069927" lon="-4.81626943"><ele>2725</ele><speed>12.81</speed><time>2016-06-30T14:04:26Z</time><pdop>4.0</pdop><geoidheight>53.00</geoidheight><course>67.0</course><type>1</type></trkpt>
      <trkpt lat="40.69074052" lon="-4.81613621"><ele>2723</ele><speed>12.45</speed><time>2016-06-30T14:04:27Z</time><pdop>4.0</pdop><geoidheight>53.00</geoidheight><course>65.9</course><type>1</type></trkpt>
      <trkpt lat="40.69079553" lon="-4.81601343"><ele>2721</ele><speed>12.30</speed><time>2016-06-30T14:04:28Z</time><pdop>4.0</pdop><geoidheight>53.00</geoidheight><course>63.2</course><type>1</type></trkpt>
      <trkpt lat="40.69084647" lon="-4.81587532"><ele>2720</ele><speed>13.29</speed><time>2016-06-30T14:04:29Z</time><pdop>4.0</pdop><geoidheight>53.00</geoidheight><course>60.8</course><type>1</type></trkpt>
      <trkpt lat="40.69091504" lon="-4.81573376"><ele>2719</ele><speed>14.15</speed><time>2016-06-30T14:04:30Z</time><pdop>4.0</pdop><geoidheight>53.00</geoidheight><course>60.6</course><type>1</type></trkpt>
      <trkpt lat="40.69097806" lon="-4.81557321"><ele>2718</ele><speed>14.93</speed><time>2016-06-30T14:04:31Z</time><pdop>4.0</pdop><geoidheight>53.00</geoidheight><course>61.8</course><type>1</type></trkpt>
      <trkpt lat="40.69103426" lon="-4.81540835"><ele>2717</ele><speed>15.25</speed><time>2016-06-30T14:04:32Z</time><pdop>4.0</pdop><geoidheight>53.00</geoidheight><course>64.7</course><type>1</type></trkpt>
      <trkpt lat="40.69109844" lon="-4.81525334"><ele>2715</ele><speed>15.21</speed><time>2016-06-30T14:04:33Z</time><pdop>4.0</pdop><geoidheight>53.00</geoidheight><course>64.3</course><type>1</type></trkpt>
      <trkpt lat="40.69115607" lon="-4.81508975"><ele>2716</ele><speed>15.28</speed><time>2016-06-30T14:04:34Z</time><pdop>4.0</pdop><geoidheight>53.00</geoidheight><course>63.7</course><type>1</type></trkpt>
      <trkpt lat="40.69121703" lon="-4.8149335"><ele>2716</ele><speed>14.86</speed><time>2016-06-30T14:04:35Z</time><pdop>3.0</pdop><geoidheight>53.00</geoidheight><course>62.6</course><type>1</type></trkpt>
      <trkpt lat="40.69127306" lon="-4.81477907"><ele>2717</ele><speed>14.38</speed><time>2016-06-30T14:04:36Z</time><pdop>3.0</pdop><geoidheight>53.00</geoidheight><course>63.1</course><type>1</type></trkpt>
      <trkpt lat="40.69133001" lon="-4.81462941"><ele>2719</ele><speed>13.93</speed><time>2016-06-30T14:04:37Z</time><pdop>3.0</pdop><geoidheight>53.00</geoidheight><course>64.0</course><type>1</type></trkpt>
      <trkpt lat="40.69136753" lon="-4.81448167"><ele>2721</ele><speed>13.27</speed><time>2016-06-30T14:04:38Z</time><pdop>3.0</pdop><geoidheight>53.00</geoidheight><course>68.1</course><type>1</type></trkpt>
      <trkpt lat="40.69140073" lon="-4.8143455"><ele>2722</ele><speed>12.20</speed><time>2016-06-30T14:04:39Z</time><pdop>3.0</pdop><geoidheight>53.00</geoidheight><course>70.2</course><type>1</type></trkpt>
      <trkpt lat="40.69143825" lon="-4.81421536"><ele>2722</ele><speed>11.64</speed><time>2016-06-30T14:04:40Z</time><pdop>3.0</pdop><geoidheight>53.00</geoidheight><course>68.8</course><type>1</type></trkpt>
      <trkpt lat="40.69147017" lon="-4.81408614"><ele>2724</ele><speed>11.63</speed><time>2016-06-30T14:04:41Z</time><pdop>3.0</pdop><geoidheight>53.00</geoidheight><course>68.3</course><type>1</type></trkpt>
      <trkpt lat="40.69150842" lon="-4.81395229"><ele>2724</ele><speed>11.75</speed><time>2016-06-30T14:04:42Z</time><pdop>3.0</pdop><geoidheight>53.00</geoidheight><course>70.4</course><type>1</type></trkpt>
      <trkpt lat="40.6915393" lon="-4.81382193"><ele>2724</ele><speed>12.05</speed><time>2016-06-30T14:04:43Z</time><pdop>3.0</pdop><geoidheight>53.00</geoidheight><course>72.1</course><type>1</type></trkpt>
      <trkpt lat="40.691573" lon="-4.81367931"><ele>2724</ele><speed>12.75</speed><time>2016-06-30T14:04:44Z</time><pdop>3.0</pdop><geoidheight>53.00</geoidheight><course>72.2</course><type>1</type></trkpt>
      <trkpt lat="40.6916033" lon="-4.81352668"><ele>2723</ele><speed>13.48</speed><time>2016-06-30T14:04:45Z</time><pdop>3.0</pdop><geoidheight>53.00</geoidheight><course>74.4</course><type>1</type></trkpt>
      <trkpt lat="40.69163152" lon="-4.81336472"><ele>2721</ele><speed>14.20</speed><time>2016-06-30T14:04:46Z</time><pdop>3.0</pdop><geoidheight>53.00</geoidheight><course>76.5</course><type>1</type></trkpt>
      <trkpt lat="40.69166355" lon="-4.81319114"><ele>2720</ele><speed>14.98</speed><time>2016-06-30T14:04:47Z</time><pdop>3.0</pdop><geoidheight>53.00</geoidheight><course>77.7</course><type>1</type></trkpt>
      <trkpt lat="40.69169258" lon="-4.81301502"><ele>2721</ele><speed>15.52</speed><time>2016-06-30T14:04:48Z</time><pdop>3.0</pdop><geoidheight>53.00</geoidheight><course>78.3</course><type>1</type></trkpt>
      <trkpt lat="40.69173055" lon="-4.81283601"><ele>2720</ele><speed>15.55</speed><time>2016-06-30T14:04:49Z</time><pdop>3.0</pdop><geoidheight>53.00</geoidheight><course>75.8</course><type>1</type></trkpt>
      <trkpt lat="40.69175858" lon="-4.81266109"><ele>2720</ele><speed>14.83</speed><time>2016-06-30T14:04:50Z</time><pdop>3.0</pdop><geoidheight>53.00</geoidheight><course>76.2</course><type>1</type></trkpt>
      <trkpt lat="40.69179545" lon="-4.81250367"><ele>2720</ele><speed>14.18</speed><time>2016-06-30T14:04:51Z</time><pdop>4.0</pdop><geoidheight>53.00</geoidheight><course>75.2</course><type>1</type></trkpt>
      <trkpt lat="40.69183931" lon="-4.8123485"><ele>2720</ele><speed>14.01</speed><time>2016-06-30T14:04:52Z</time><pdop>4.0</pdop><geoidheight>53.00</geoidheight><course>72.5</course><type>1</type></trkpt>
      <trkpt lat="40.69188944" lon="-4.81219053"><ele>2720</ele><speed>13.84</speed><time>2016-06-30T14:04:53Z</time><pdop>4.0</pdop><geoidheight>53.00</geoidheight><course>71.1</course><type>1</type></trkpt>
      <trkpt lat="40.6919372" lon="-4.8120324"><ele>2720</ele><speed>13.60</speed><time>2016-06-30T14:04:54Z</time><pdop>3.0</pdop><geoidheight>53.00</geoidheight><course>72.4</course><type>1</type></trkpt>
      <trkpt lat="40.69195795" lon="-4.81188194"><ele>2721</ele><speed>13.24</speed><time>2016-06-30T14:04:55Z</time><pdop>3.0</pdop><geoidheight>53.00</geoidheight><course>74.7</course><type>1</type></trkpt>
      <trkpt lat="40.69197551" lon="-4.81173689"><ele>2721</ele><speed>12.77</speed><time>2016-06-30T14:04:56Z</time><pdop>4.0</pdop><geoidheight>53.00</geoidheight><course>76.2</course><type>1</type></trkpt>
      <trkpt lat="40.6920123" lon="-4.81158055"><ele>2723</ele><speed>13.28</speed><time>2016-06-30T14:04:57Z</time><pdop>3.0</pdop><geoidheight>53.00</geoidheight><course>74.8</course><type>1</type></trkpt>
      <trkpt lat="40.69203317" lon="-4.8114381"><ele>2723</ele><speed>13.26</speed><time>2016-06-30T14:04:58Z</time><pdop>3.0</pdop><geoidheight>53.00</geoidheight><course>74.2</course><type>1</type></trkpt>
      <trkpt lat="40.69206439" lon="-4.81128381"><ele>2725</ele><speed>13.06</speed><time>2016-06-30T14:04:59Z</time><pdop>3.0</pdop><geoidheight>53.00</geoidheight><course>75.2</course><type>1</type></trkpt>
      <trkpt lat="40.69209682" lon="-4.81114321"><ele>2726</ele><speed>12.41</speed><time>2016-06-30T14:05:00Z</time><pdop>4.0</pdop><geoidheight>53.00</geoidheight><course>74.8</course><type>1</type></trkpt>
      <trkpt lat="40.69214436" lon="-4.81101862"><ele>2725</ele><speed>12.00</speed><time>2016-06-30T14:05:01Z</time><pdop>4.0</pdop><geoidheight>53.00</geoidheight><course>69.9</course><type>1</type></trkpt>
      <trkpt lat="40.69218718" lon="-4.81089647"><ele>2725</ele><speed>11.34</speed><time>2016-06-30T14:05:02Z</time><pdop>6.0</pdop><geoidheight>53.00</geoidheight><course>68.2</course><type>1</type></trkpt>
      <trkpt lat="40.69233403" lon="-4.81074368"><ele>2725</ele><speed>9.89</speed><time>2016-06-30T14:05:04Z</time><pdop>8.0</pdop><geoidheight>53.00</geoidheight><course>48.2</course><type>1</type></trkpt>
      <trkpt lat="40.69246618" lon="-4.81082852"><ele>2726</ele><speed>4.04</speed><time>2016-06-30T14:05:07Z</time><pdop>8.0</pdop><geoidheight>53.00</geoidheight><course>347.6</course><type>1</type></trkpt>
      <trkpt lat="40.69239651" lon="-4.81100934"><ele>2728</ele><speed>2.83</speed><time>2016-06-30T14:05:09Z</time><pdop>9.0</pdop><geoidheight>53.00</geoidheight><course>262.1</course><type>1</type></trkpt>
      <trkpt lat="40.69220739" lon="-4.81117721"><ele>2729</ele><speed>5.89</speed><time>2016-06-30T14:05:11Z</time><pdop>9.0</pdop><geoidheight>53.00</geoidheight><course>217.0</course><type>1</type></trkpt>
      <trkpt lat="40.69199901" lon="-4.8111166"><ele>2728</ele><speed>7.53</speed><time>2016-06-30T14:05:13Z</time><pdop>12.0</pdop><geoidheight>53.00</geoidheight><course>175.7</course><type>1</type></trkpt>
      <trkpt lat="40.69176996" lon="-4.81078537"><ele>2729</ele><speed>11.63</speed><time>2016-06-30T14:05:15Z</time><pdop>14.0</pdop><geoidheight>53.00</geoidheight><course>142.7</course><type>1</type></trkpt>
      <trkpt lat="40.69173785" lon="-4.81040265"><ele>2731</ele><speed>12.76</speed><time>2016-06-30T14:05:17Z</time><pdop>16.0</pdop><geoidheight>53.00</geoidheight><course>111.3</course><type>1</type></trkpt>
      <trkpt lat="40.69167487" lon="-4.80976811"><ele>2734</ele><speed>17.51</speed><time>2016-06-30T14:05:19Z</time><pdop>15.0</pdop><geoidheight>53.00</geoidheight><course>101.1</course><type>1</type></trkpt>
      <trkpt lat="40.691791" lon="-4.8093777"><ele>2740</ele><speed>14.43</speed><time>2016-06-30T14:05:21Z</time><pdop>12.0</pdop><geoidheight>53.00</geoidheight><course>81.4</course><type>1</type></trkpt>
      <trkpt lat="40.69205608" lon="-4.80929914"><ele>2742</ele><speed>9.20</speed><time>2016-06-30T14:05:23Z</time><pdop>11.0</pdop><geoidheight>53.00</geoidheight><course>36.7</course><type>1</type></trkpt>
      <trkpt lat="40.69227021" lon="-4.80930548"><ele>2743</ele><speed>9.57</speed><time>2016-06-30T14:05:25Z</time><pdop>11.0</pdop><geoidheight>53.00</geoidheight><course>12.1</course><type>1</type></trkpt>
      <trkpt lat="40.69224946" lon="-4.80955848"><ele>2738</ele><speed>4.40</speed><time>2016-06-30T14:05:28Z</time><pdop>10.0</pdop><geoidheight>53.00</geoidheight><course>283.1</course><type>1</type></trkpt>
      <trkpt lat="40.69196871" lon="-4.80988071"><ele>2745</ele><speed>9.46</speed><time>2016-06-30T14:05:31Z</time><pdop>10.0</pdop><geoidheight>53.00</geoidheight><course>217.5</course><type>1</type></trkpt>
      <trkpt lat="40.69175814" lon="-4.81002598"><ele>2748</ele><speed>10.16</speed><time>2016-06-30T14:05:33Z</time><pdop>7.0</pdop><geoidheight>53.00</geoidheight><course>205.9</course><type>1</type></trkpt>
      <trkpt lat="40.69156491" lon="-4.81001419"><ele>2751</ele><speed>9.95</speed><time>2016-06-30T14:05:35Z</time><pdop>6.0</pdop><geoidheight>53.00</geoidheight><course>185.3</course><type>1</type></trkpt>
      <trkpt lat="40.69142434" lon="-4.80995272"><ele>2751</ele><speed>11.90</speed><time>2016-06-30T14:05:36Z</time><pdop>5.0</pdop><geoidheight>53.00</geoidheight><course>168.4</course><type>1</type></trkpt>
      <trkpt lat="40.69131416" lon="-4.809897"><ele>2750</ele><speed>13.28</speed><time>2016-06-30T14:05:37Z</time><pdop>5.0</pdop><geoidheight>53.00</geoidheight><course>160.8</course><type>1</type></trkpt>
      <trkpt lat="40.69117896" lon="-4.80979219"><ele>2749</ele><speed>14.74</speed><time>2016-06-30T14:05:38Z</time><pdop>4.0</pdop><geoidheight>53.00</geoidheight><course>153.9</course><type>1</type></trkpt>
      <trkpt lat="40.69105702" lon="-4.80969894"><ele>2750</ele><speed>14.78</speed><time>2016-06-30T14:05:39Z</time><pdop>5.0</pdop><geoidheight>53.00</geoidheight><course>149.2</course><type>1</type></trkpt>
      <trkpt lat="40.6909586" lon="-4.80954904"><ele>2752</ele><speed>16.28</speed><time>2016-06-30T14:05:40Z</time><pdop>4.0</pdop><geoidheight>53.00</geoidheight><course>133.3</course><type>1</type></trkpt>
      <trkpt lat="40.69088487" lon="-4.80938345"><ele>2754</ele><speed>15.85</speed><time>2016-06-30T14:05:41Z</time><pdop>4.0</pdop><geoidheight>53.00</geoidheight><course>120.3</course><type>1</type></trkpt>
      <trkpt lat="40.69082173" lon="-4.80921024"><ele>2755</ele><speed>15.83</speed><time>2016-06-30T14:05:42Z</time><pdop>4.0</pdop><geoidheight>53.00</geoidheight><course>116.4</course><type>1</type></trkpt>
      <trkpt lat="40.69081143" lon="-4.80904235"><ele>2756</ele><speed>14.81</speed><time>2016-06-30T14:05:43Z</time><pdop>4.0</pdop><geoidheight>53.00</geoidheight><course>102.3</course><type>1</type></trkpt>
      <trkpt lat="40.69080529" lon="-4.80886208"><ele>2757</ele><speed>14.92</speed><time>2016-06-30T14:05:44Z</time><pdop>4.0</pdop><geoidheight>53.00</geoidheight><course>94.0</course><type>1</type></trkpt>
      <trkpt lat="40.69082784" lon="-4.80866284"><ele>2756</ele><speed>15.85</speed><time>2016-06-30T14:05:45Z</time><pdop>3.0</pdop><geoidheight>53.00</geoidheight><course>81.8</course><type>1</type></trkpt>
      <trkpt lat="40.69085915" lon="-4.80847519"><ele>2755</ele><speed>16.61</speed><time>2016-06-30T14:05:46Z</time><pdop>4.0</pdop><geoidheight>53.00</geoidheight><course>78.8</course><type>1</type></trkpt>
      <trkpt lat="40.69092147" lon="-4.80826893"><ele>2756</ele><speed>17.41</speed><time>2016-06-30T14:05:47Z</time><pdop>4.0</pdop><geoidheight>53.00</geoidheight><course>71.1</course><type>1</type></trkpt>
      <trkpt lat="40.69096763" lon="-4.80806931"><ele>2758</ele><speed>16.98</speed><time>2016-06-30T14:05:48Z</time><pdop>4.0</pdop><geoidheight>53.00</geoidheight><course>71.5</course><type>1</type></trkpt>
      <trkpt lat="40.6910099" lon="-4.80788193"><ele>2758</ele><speed>16.26</speed><time>2016-06-30T14:05:49Z</time><pdop>5.0</pdop><geoidheight>53.00</geoidheight><course>71.3</course><type>1</type></trkpt>
      <trkpt lat="40.69103029" lon="-4.80770872"><ele>2759</ele><speed>15.40</speed><time>2016-06-30T14:05:50Z</time><pdop>6.0</pdop><geoidheight>53.00</geoidheight><course>73.6</course><type>1</type></trkpt>
      <trkpt lat="40.69106464" lon="-4.8075685"><ele>2762</ele><speed>12.52</speed><time>2016-06-30T14:05:51Z</time><pdop>5.0</pdop><geoidheight>53.00</geoidheight><course>72.1</course><type>1</type></trkpt>
      <trkpt lat="40.69110235" lon="-4.8074223"><ele>2764</ele><speed>12.09</speed><time>2016-06-30T14:05:52Z</time><pdop>4.0</pdop><geoidheight>53.00</geoidheight><course>69.0</course><type>1</type></trkpt>
      <trkpt lat="40.69116156" lon="-4.80729124"><ele>2762</ele><speed>12.62</speed><time>2016-06-30T14:05:53Z</time><pdop>4.0</pdop><geoidheight>53.00</geoidheight><course>65.0</course><type>1</type></trkpt>
      <trkpt lat="40.69122464" lon="-4.80715077"><ele>2761</ele><speed>13.34</speed><time>2016-06-30T14:05:54Z</time><pdop>4.0</pdop><geoidheight>53.00</geoidheight><course>61.1</course><type>1</type></trkpt>
      <trkpt lat="40.69129059" lon="-4.80700925"><ele>2761</ele><speed>13.68</speed><time>2016-06-30T14:05:55Z</time><pdop>4.0</pdop><geoidheight>53.00</geoidheight><course>59.2</course><type>1</type></trkpt>
      <trkpt lat="40.69136268" lon="-4.80686926"><ele>2761</ele><speed>14.36</speed><time>2016-06-30T14:05:56Z</time><pdop>4.0</pdop><geoidheight>53.00</geoidheight><course>57.5</course><type>1</type></trkpt>
      <trkpt lat="40.69143792" lon="-4.80671582"><ele>2760</ele><speed>15.23</speed><time>2016-06-30T14:05:57Z</time><pdop>4.0</pdop><geoidheight>53.00</geoidheight><course>58.0</course><type>1</type></trkpt>
      <trkpt lat="40.69151808" lon="-4.80657197"><ele>2760</ele><speed>15.24</speed><time>2016-06-30T14:05:58Z</time><pdop>5.0</pdop><geoidheight>53.00</geoidheight><course>55.6</course><type>1</type></trkpt>
      <trkpt lat="40.69161251" lon="-4.8064215"><ele>2761</ele><speed>15.42</speed><time>2016-06-30T14:05:59Z</time><pdop>4.0</pdop><geoidheight>53.00</geoidheight><course>50.7</course><type>1</type></trkpt>
      <trkpt lat="40.69169707" lon="-4.80628862"><ele>2764</ele><speed>14.49</speed><time>2016-06-30T14:06:00Z</time><pdop>4.0</pdop><geoidheight>53.00</geoidheight><course>48.8</course><type>1</type></trkpt>
      <trkpt lat="40.69177755" lon="-4.80617035"><ele>2764</ele><speed>13.32</speed><time>2016-06-30T14:06:01Z</time><pdop>4.0</pdop><geoidheight>53.00</geoidheight><course>49.2</course><type>1</type></trkpt>
      <trkpt lat="40.69184669" lon="-4.80605546"><ele>2764</ele><speed>12.59</speed><time>2016-06-30T14:06:02Z</time><pdop>4.0</pdop><geoidheight>53.00</geoidheight><course>49.3</course><type>1</type></trkpt>
      <trkpt lat="40.69193689" lon="-4.80594234"><ele>2764</ele><speed>12.92</speed><time>2016-06-30T14:06:03Z</time><pdop>4.0</pdop><geoidheight>53.00</geoidheight><course>47.0</course><type>1</type></trkpt>
      <trkpt lat="40.69201603" lon="-4.80581986"><ele>2764</ele><speed>13.42</speed><time>2016-06-30T14:06:04Z</time><pdop>4.0</pdop><geoidheight>53.00</geoidheight><course>47.2</course><type>1</type></trkpt>
      <trkpt lat="40.69210258" lon="-4.80568482"><ele>2763</ele><speed>14.40</speed><time>2016-06-30T14:06:05Z</time><pdop>4.0</pdop><geoidheight>53.00</geoidheight><course>50.4</course><type>1</type></trkpt>
      <trkpt lat="40.69218955" lon="-4.80553413"><ele>2762</ele><speed>15.28</speed><time>2016-06-30T14:06:06Z</time><pdop>4.0</pdop><geoidheight>53.00</geoidheight><course>53.5</course><type>1</type></trkpt>
      <trkpt lat="40.69229365" lon="-4.80538284"><ele>2760</ele><speed>16.51</speed><time>2016-06-30T14:06:07Z</time><pdop>4.0</pdop><geoidheight>53.00</geoidheight><course>50.9</course><type>1</type></trkpt>
      <trkpt lat="40.69238365" lon="-4.805244"><ele>2760</ele><speed>16.17</speed><time>2016-06-30T14:06:08Z</time><pdop>4.0</pdop><geoidheight>53.00</geoidheight><course>48.5</course><type>1</type></trkpt>
      <trkpt lat="40.69249005" lon="-4.80511931"><ele>2761</ele><speed>15.20</speed><time>2016-06-30T14:06:09Z</time><pdop>4.0</pdop><geoidheight>53.00</geoidheight><course>44.7</course><type>1</type></trkpt>
      <trkpt lat="40.69258998" lon="-4.80502453"><ele>2762</ele><speed>13.70</speed><time>2016-06-30T14:06:10Z</time><pdop>5.0</pdop><geoidheight>53.00</geoidheight><course>40.3</course><type>1</type></trkpt>
      <trkpt lat="40.69265936" lon="-4.80493869"><ele>2761</ele><speed>11.71</speed><time>2016-06-30T14:06:11Z</time><pdop>5.0</pdop><geoidheight>53.00</geoidheight><course>40.9</course><type>1</type></trkpt>
      <trkpt lat="40.69271225" lon="-4.80483176"><ele>2761</ele><speed>11.26</speed><time>2016-06-30T14:06:12Z</time><pdop>4.0</pdop><geoidheight>53.00</geoidheight><course>49.5</course><type>1</type></trkpt>
      <trkpt lat="40.69279474" lon="-4.80471419"><ele>2760</ele><speed>13.20</speed><time>2016-06-30T14:06:13Z</time><pdop>4.0</pdop><geoidheight>53.00</geoidheight><course>49.2</course><type>1</type></trkpt>
      <trkpt lat="40.69286587" lon="-4.80458205"><ele>2761</ele><speed>14.09</speed><time>2016-06-30T14:06:14Z</time><pdop>5.0</pdop><geoidheight>53.00</geoidheight><course>49.5</course><type>1</type></trkpt>
      <trkpt lat="40.69297852" lon="-4.80449092"><ele>2763</ele><speed>13.70</speed><time>2016-06-30T14:06:15Z</time><pdop>4.0</pdop><geoidheight>53.00</geoidheight><course>39.2</course><type>1</type></trkpt>
      <trkpt lat="40.69306294" lon="-4.80439441"><ele>2763</ele><speed>12.95</speed><time>2016-06-30T14:06:16Z</time><pdop>5.0</pdop><geoidheight>53.00</geoidheight><course>38.0</course><type>1</type></trkpt>
      <trkpt lat="40.69315545" lon="-4.80429936"><ele>2766</ele><speed>12.55</speed><time>2016-06-30T14:06:17Z</time><pdop>5.0</pdop><geoidheight>53.00</geoidheight><course>37.8</course><type>1</type></trkpt>
      <trkpt lat="40.69322145" lon="-4.80418862"><ele>2767</ele><speed>12.23</speed><time>2016-06-30T14:06:18Z</time><pdop>4.0</pdop><geoidheight>53.00</geoidheight><course>46.8</course><type>1</type></trkpt>
      <trkpt lat="40.69329647" lon="-4.8040721"><ele>2767</ele><speed>12.84</speed><time>2016-06-30T14:06:19Z</time><pdop>5.0</pdop><geoidheight>53.00</geoidheight><course>49.6</course><type>1</type></trkpt>
      <trkpt lat="40.69334796" lon="-4.80393374"><ele>2769</ele><speed>13.31</speed><time>2016-06-30T14:06:20Z</time><pdop>4.0</pdop><geoidheight>53.00</geoidheight><course>56.0</course><type>1</type></trkpt>
      <trkpt lat="40.69342617" lon="-4.80380763"><ele>2768</ele><speed>13.50</speed><time>2016-06-30T14:06:21Z</time><pdop>4.0</pdop><geoidheight>53.00</geoidheight><course>56.0</course><type>1</type></trkpt>
      <trkpt lat="40.69350685" lon="-4.80367343"><ele>2768</ele><speed>13.77</speed><time>2016-06-30T14:06:22Z</time><pdop>4.0</pdop><geoidheight>53.00</geoidheight><course>53.8</course><type>1</type></trkpt>
      <trkpt lat="40.69359065" lon="-4.80353726"><ele>2766</ele><speed>14.32</speed><time>2016-06-30T14:06:23Z</time><pdop>4.0</pdop><geoidheight>53.00</geoidheight><course>53.7</course><type>1</type></trkpt>
      <trkpt lat="40.69367817" lon="-4.80338699"><ele>2765</ele><speed>15.76</speed><time>2016-06-30T14:06:24Z</time><pdop>4.0</pdop><geoidheight>53.00</geoidheight><course>53.3</course><type>1</type></trkpt>
      <trkpt lat="40.6937775" lon="-4.80323634"><ele>2763</ele><speed>16.55</speed><time>2016-06-30T14:06:25Z</time><pdop>4.0</pdop><geoidheight>53.00</geoidheight><course>52.3</course><type>1</type></trkpt>
      <trkpt lat="40.69386024" lon="-4.80308305"><ele>2762</ele><speed>16.29</speed><time>2016-06-30T14:06:26Z</time><pdop>5.0</pdop><geoidheight>53.00</geoidheight><course>53.3</course><type>1</type></trkpt>
      <trkpt lat="40.69393543" lon="-4.80293851"><ele>2761</ele><speed>15.67</speed><time>2016-06-30T14:06:27Z</time><pdop>5.0</pdop><geoidheight>53.00</geoidheight><course>54.7</course><type>1</type></trkpt>
      <trkpt lat="40.69399595" lon="-4.80278655"><ele>2760</ele><speed>15.91</speed><time>2016-06-30T14:06:28Z</time><pdop>4.0</pdop><geoidheight>53.00</geoidheight><course>55.6</course><type>1</type></trkpt>
      <trkpt lat="40.69409545" lon="-4.80263155"><ele>2759</ele><speed>16.19</speed><time>2016-06-30T14:06:29Z</time><pdop>4.0</pdop><geoidheight>53.00</geoidheight><course>52.8</course><type>1</type></trkpt>
      <trkpt lat="40.69418235" lon="-4.80249202"><ele>2759</ele><speed>15.60</speed><time>2016-06-30T14:06:30Z</time><pdop>4.0</pdop><geoidheight>53.00</geoidheight><course>51.8</course><type>1</type></trkpt>
      <trkpt lat="40.6942456" lon="-4.80238628"><ele>2753</ele><speed>14.98</speed><time>2016-06-30T14:06:31Z</time><pdop>4.0</pdop><geoidheight>53.00</geoidheight><course>47.4</course><type>1</type></trkpt>
      <trkpt lat="40.69433673" lon="-4.8022464"><ele>2750</ele><speed>15.32</speed><time>2016-06-30T14:06:32Z</time><pdop>4.0</pdop><geoidheight>53.00</geoidheight><course>49.5</course><type>1</type></trkpt>
      <trkpt lat="40.69443378" lon="-4.80208874"><ele>2749</ele><speed>16.42</speed><time>2016-06-30T14:06:33Z</time><pdop>4.0</pdop><geoidheight>53.00</geoidheight><course>53.1</course><type>1</type></trkpt>
      <trkpt lat="40.69451897" lon="-4.80191897"><ele>2747</ele><speed>17.22</speed><time>2016-06-30T14:06:34Z</time><pdop>4.0</pdop><geoidheight>53.00</geoidheight><course>54.9</course><type>1</type></trkpt>
      <trkpt lat="40.69460812" lon="-4.80174146"><ele>2746</ele><speed>17.63</speed><time>2016-06-30T14:06:35Z</time><pdop>4.0</pdop><geoidheight>53.00</geoidheight><course>56.6</course><type>1</type></trkpt>
      <trkpt lat="40.69466994" lon="-4.80156057"><ele>2752</ele><speed>18.06</speed><time>2016-06-30T14:06:36Z</time><pdop>5.0</pdop><geoidheight>53.00</geoidheight><course>59.7</course><type>1</type></trkpt>
      <trkpt lat="40.69474797" lon="-4.80136911"><ele>2751</ele><speed>18.38</speed><time>2016-06-30T14:06:37Z</time><pdop>6.0</pdop><geoidheight>53.00</geoidheight><course>59.7</course><type>1</type></trkpt>
      <trkpt lat="40.69483963" lon="-4.80119468"><ele>2749</ele><speed>18.06</speed><time>2016-06-30T14:06:38Z</time><pdop>8.0</pdop><geoidheight>53.00</geoidheight><course>57.2</course><type>1</type></trkpt>
      <trkpt lat="40.69496437" lon="-4.801031"><ele>2747</ele><speed>18.32</speed><time>2016-06-30T14:06:39Z</time><pdop>6.0</pdop><geoidheight>53.00</geoidheight><course>50.3</course><type>1</type></trkpt>
      <trkpt lat="40.69507959" lon="-4.80087017"><ele>2746</ele><speed>18.15</speed><time>2016-06-30T14:06:40Z</time><pdop>5.0</pdop><geoidheight>53.00</geoidheight><course>50.9</course><type>1</type></trkpt>
      <trkpt lat="40.6951837" lon="-4.80070138"><ele>2744</ele><speed>18.29</speed><time>2016-06-30T14:06:41Z</time><pdop>5.0</pdop><geoidheight>53.00</geoidheight><course>52.9</course><type>1</type></trkpt>
      <trkpt lat="40.69529092" lon="-4.80052611"><ele>2742</ele><speed>18.71</speed><time>2016-06-30T14:06:42Z</time><pdop>5.0</pdop><geoidheight>53.00</geoidheight><course>53.1</course><type>1</type></trkpt>
      <trkpt lat="40.69540009" lon="-4.80036093"><ele>2741</ele><speed>18.60</speed><time>2016-06-30T14:06:43Z</time><pdop>5.0</pdop><geoidheight>53.00</geoidheight><course>51.0</course><type>1</type></trkpt>
      <trkpt lat="40.69550683" lon="-4.80020562"><ele>2740</ele><speed>17.54</speed><time>2016-06-30T14:06:44Z</time><pdop>5.0</pdop><geoidheight>53.00</geoidheight><course>50.4</course><type>1</type></trkpt>
      <trkpt lat="40.69559337" lon="-4.8000459"><ele>2741</ele><speed>16.03</speed><time>2016-06-30T14:06:45Z</time><pdop>5.0</pdop><geoidheight>53.00</geoidheight><course>53.8</course><type>1</type></trkpt>
      <trkpt lat="40.69566594" lon="-4.79990809"><ele>2742</ele><speed>14.29</speed><time>2016-06-30T14:06:46Z</time><pdop>5.0</pdop><geoidheight>53.00</geoidheight><course>55.9</course><type>1</type></trkpt>
      <trkpt lat="40.69574814" lon="-4.79977402"><ele>2743</ele><speed>13.34</speed><time>2016-06-30T14:06:47Z</time><pdop>4.0</pdop><geoidheight>53.00</geoidheight><course>56.0</course><type>1</type></trkpt>
      <trkpt lat="40.69581761" lon="-4.79963662"><ele>2743</ele><speed>13.61</speed><time>2016-06-30T14:06:48Z</time><pdop>4.0</pdop><geoidheight>53.00</geoidheight><course>55.2</course><type>1</type></trkpt>
      <trkpt lat="40.69596395" lon="-4.79937948"><ele>2744</ele><speed>13.76</speed><time>2016-06-30T14:06:50Z</time><pdop>3.0</pdop><geoidheight>53.00</geoidheight><course>52.9</course><type>1</type></trkpt>
      <trkpt lat="40.69604446" lon="-4.79924866"><ele>2744</ele><speed>14.01</speed><time>2016-06-30T14:06:51Z</time><pdop>3.0</pdop><geoidheight>53.00</geoidheight><course>52.1</course><type>1</type></trkpt>
      <trkpt lat="40.69612101" lon="-4.79909782"><ele>2745</ele><speed>14.88</speed><time>2016-06-30T14:06:52Z</time><pdop>3.0</pdop><geoidheight>53.00</geoidheight><course>54.9</course><type>1</type></trkpt>
      <trkpt lat="40.6961823" lon="-4.7989424"><ele>2745</ele><speed>15.09</speed><time>2016-06-30T14:06:53Z</time><pdop>3.0</pdop><geoidheight>53.00</geoidheight><course>59.7</course><type>1</type></trkpt>
      <trkpt lat="40.69624974" lon="-4.79878412"><ele>2745</ele><speed>15.20</speed><time>2016-06-30T14:06:54Z</time><pdop>3.0</pdop><geoidheight>53.00</geoidheight><course>62.3</course><type>1</type></trkpt>
      <trkpt lat="40.69630887" lon="-4.79861425"><ele>2744</ele><speed>15.52</speed><time>2016-06-30T14:06:55Z</time><pdop>3.0</pdop><geoidheight>53.00</geoidheight><course>63.2</course><type>1</type></trkpt>
      <trkpt lat="40.69637869" lon="-4.79844976"><ele>2743</ele><speed>15.79</speed><time>2016-06-30T14:06:56Z</time><pdop>3.0</pdop><geoidheight>53.00</geoidheight><course>61.6</course><type>1</type></trkpt>
      <trkpt lat="40.6964548" lon="-4.79828633"><ele>2742</ele><speed>15.99</speed><time>2016-06-30T14:06:57Z</time><pdop>3.0</pdop><geoidheight>53.00</geoidheight><course>60.3</course><type>1</type></trkpt>
      <trkpt lat="40.69653711" lon="-4.79811879"><ele>2740</ele><speed>16.55</speed><time>2016-06-30T14:06:58Z</time><pdop>3.0</pdop><geoidheight>53.00</geoidheight><course>58.2</course><type>1</type></trkpt>
      <trkpt lat="40.69662618" lon="-4.79795052"><ele>2738</ele><speed>16.96</speed><time>2016-06-30T14:06:59Z</time><pdop>3.0</pdop><geoidheight>53.00</geoidheight><course>55.5</course><type>1</type></trkpt>
      <trkpt lat="40.69670916" lon="-4.79778554"><ele>2738</ele><speed>16.81</speed><time>2016-06-30T14:07:00Z</time><pdop>3.0</pdop><geoidheight>53.00</geoidheight><course>54.4</course><type>1</type></trkpt>
      <trkpt lat="40.69679835" lon="-4.79763279"><ele>2736</ele><speed>16.24</speed><time>2016-06-30T14:07:01Z</time><pdop>3.0</pdop><geoidheight>53.00</geoidheight><course>54.5</course><type>1</type></trkpt>
      <trkpt lat="40.69687006" lon="-4.7974734"><ele>2737</ele><speed>15.72</speed><time>2016-06-30T14:07:02Z</time><pdop>3.0</pdop><geoidheight>53.00</geoidheight><course>56.4</course><type>1</type></trkpt>
      <trkpt lat="40.69693643" lon="-4.79731827"><ele>2737</ele><speed>15.55</speed><time>2016-06-30T14:07:03Z</time><pdop>3.0</pdop><geoidheight>53.00</geoidheight><course>59.4</course><type>1</type></trkpt>
      <trkpt lat="40.69701102" lon="-4.79715692"><ele>2736</ele><speed>15.74</speed><time>2016-06-30T14:07:04Z</time><pdop>3.0</pdop><geoidheight>53.00</geoidheight><course>61.6</course><type>1</type></trkpt>
      <trkpt lat="40.69708516" lon="-4.79699019"><ele>2734</ele><speed>16.19</speed><time>2016-06-30T14:07:05Z</time><pdop>3.0</pdop><geoidheight>53.00</geoidheight><course>61.1</course><type>1</type></trkpt>
      <trkpt lat="40.69716729" lon="-4.79683075"><ele>2731</ele><speed>16.76</speed><time>2016-06-30T14:07:06Z</time><pdop>3.0</pdop><geoidheight>53.00</geoidheight><course>57.7</course><type>1</type></trkpt>
      <trkpt lat="40.697249" lon="-4.7966624"><ele>2729</ele><speed>17.30</speed><time>2016-06-30T14:07:07Z</time><pdop>3.0</pdop><geoidheight>53.00</geoidheight><course>55.8</course><type>1</type></trkpt>
      <trkpt lat="40.6973481" lon="-4.79648209"><ele>2728</ele><speed>18.24</speed><time>2016-06-30T14:07:08Z</time><pdop>3.0</pdop><geoidheight>53.00</geoidheight><course>54.4</course><type>1</type></trkpt>
      <trkpt lat="40.69743903" lon="-4.79630324"><ele>2728</ele><speed>18.22</speed><time>2016-06-30T14:07:09Z</time><pdop>3.0</pdop><geoidheight>53.00</geoidheight><course>55.6</course><type>1</type></trkpt>
      <trkpt lat="40.6975306" lon="-4.79612671"><ele>2727</ele><speed>17.98</speed><time>2016-06-30T14:07:10Z</time><pdop>4.0</pdop><geoidheight>53.00</geoidheight><course>56.9</course><type>1</type></trkpt>
      <trkpt lat="40.69760788" lon="-4.79595808"><ele>2726</ele><speed>17.35</speed><time>2016-06-30T14:07:11Z</time><pdop>4.0</pdop><geoidheight>53.00</geoidheight><course>57.9</course><type>1</type></trkpt>
      <trkpt lat="40.69770562" lon="-4.79578199"><ele>2726</ele><speed>17.40</speed><time>2016-06-30T14:07:12Z</time><pdop>4.0</pdop><geoidheight>53.00</geoidheight><course>57.7</course><type>1</type></trkpt>
      <trkpt lat="40.69778769" lon="-4.79559784"><ele>2727</ele><speed>17.68</speed><time>2016-06-30T14:07:13Z</time><pdop>5.0</pdop><geoidheight>53.00</geoidheight><course>58.0</course><type>1</type></trkpt>
      <trkpt lat="40.69786278" lon="-4.79540171"><ele>2727</ele><speed>18.51</speed><time>2016-06-30T14:07:14Z</time><pdop>5.0</pdop><geoidheight>53.00</geoidheight><course>59.1</course><type>1</type></trkpt>
      <trkpt lat="40.69795224" lon="-4.7952073"><ele>2727</ele><speed>19.44</speed><time>2016-06-30T14:07:15Z</time><pdop>5.0</pdop><geoidheight>53.00</geoidheight><course>60.8</course><type>1</type></trkpt>
      <trkpt lat="40.69802619" lon="-4.79498032"><ele>2725</ele><speed>20.97</speed><time>2016-06-30T14:07:16Z</time><pdop>5.0</pdop><geoidheight>53.00</geoidheight><course>62.8</course><type>1</type></trkpt>
      <trkpt lat="40.69814176" lon="-4.79476725"><ele>2722</ele><speed>21.84</speed><time>2016-06-30T14:07:17Z</time><pdop>4.0</pdop><geoidheight>53.00</geoidheight><course>59.6</course><type>1</type></trkpt>
      <trkpt lat="40.69824019" lon="-4.79455337"><ele>2722</ele><speed>20.88</speed><time>2016-06-30T14:07:18Z</time><pdop>4.0</pdop><geoidheight>53.00</geoidheight><course>58.9</course><type>1</type></trkpt>
      <trkpt lat="40.69832397" lon="-4.79436213"><ele>2721</ele><speed>19.37</speed><time>2016-06-30T14:07:19Z</time><pdop>4.0</pdop><geoidheight>53.00</geoidheight><course>58.6</course><type>1</type></trkpt>
      <trkpt lat="40.69839816" lon="-4.7941765"><ele>2718</ele><speed>18.37</speed><time>2016-06-30T14:07:20Z</time><pdop>4.0</pdop><geoidheight>53.00</geoidheight><course>59.8</course><type>1</type></trkpt>
      <trkpt lat="40.69845819" lon="-4.7939975"><ele>2716</ele><speed>17.58</speed><time>2016-06-30T14:07:21Z</time><pdop>5.0</pdop><geoidheight>53.00</geoidheight><course>61.6</course><type>1</type></trkpt>
      <trkpt lat="40.69854497" lon="-4.79381761"><ele>2716</ele><speed>17.81</speed><time>2016-06-30T14:07:22Z</time><pdop>7.0</pdop><geoidheight>53.00</geoidheight><course>61.3</course><type>1</type></trkpt>
      <trkpt lat="40.69863913" lon="-4.7936358"><ele>2715</ele><speed>17.92</speed><time>2016-06-30T14:07:23Z</time><pdop>9.0</pdop><geoidheight>53.00</geoidheight><course>59.5</course><type>1</type></trkpt>
      <trkpt lat="40.6987893" lon="-4.79328929"><ele>2712</ele><speed>17.85</speed><time>2016-06-30T14:07:25Z</time><pdop>13.0</pdop><geoidheight>53.00</geoidheight><course>59.5</course><type>1</type></trkpt>
      <trkpt lat="40.69897144" lon="-4.79294753"><ele>2709</ele><speed>18.59</speed><time>2016-06-30T14:07:27Z</time><pdop>14.0</pdop><geoidheight>53.00</geoidheight><course>57.8</course><type>1</type></trkpt>
      <trkpt lat="40.69924442" lon="-4.79258683"><ele>2706</ele><speed>19.08</speed><time>2016-06-30T14:07:29Z</time><pdop>11.0</pdop><geoidheight>53.00</geoidheight><course>52.2</course><type>1</type></trkpt>
      <trkpt lat="40.69939876" lon="-4.79229452"><ele>2699</ele><speed>17.08</speed><time>2016-06-30T14:07:31Z</time><pdop>9.0</pdop><geoidheight>53.00</geoidheight><course>50.9</course><type>1</type></trkpt>
      <trkpt lat="40.69964461" lon="-4.79199777"><ele>2695</ele><speed>17.82</speed><time>2016-06-30T14:07:33Z</time><pdop>9.0</pdop><geoidheight>53.00</geoidheight><course>48.4</course><type>1</type></trkpt>
      <trkpt lat="40.69976191" lon="-4.79181818"><ele>2695</ele><speed>18.92</speed><time>2016-06-30T14:07:34Z</time><pdop>11.0</pdop><geoidheight>53.00</geoidheight><course>50.9</course><type>1</type></trkpt>
      <trkpt lat="40.70002523" lon="-4.79140837"><ele>2692</ele><speed>21.54</speed><time>2016-06-30T14:07:36Z</time><pdop>12.0</pdop><geoidheight>53.00</geoidheight><course>51.6</course><type>1</type></trkpt>
      <trkpt lat="40.70025015" lon="-4.7910574"><ele>2686</ele><speed>18.86</speed><time>2016-06-30T14:07:38Z</time><pdop>8.0</pdop><geoidheight>53.00</geoidheight><course>46.9</course><type>1</type></trkpt>
      <trkpt lat="40.70036959" lon="-4.7909052"><ele>2685</ele><speed>18.10</speed><time>2016-06-30T14:07:39Z</time><pdop>8.0</pdop><geoidheight>53.00</geoidheight><course>43.7</course><type>1</type></trkpt>
      <trkpt lat="40.70057197" lon="-4.79068988"><ele>2678</ele><speed>16.75</speed><time>2016-06-30T14:07:41Z</time><pdop>8.0</pdop><geoidheight>53.00</geoidheight><course>38.0</course><type>1</type></trkpt>
      <trkpt lat="40.70073482" lon="-4.79050354"><ele>2672</ele><speed>14.65</speed><time>2016-06-30T14:07:43Z</time><pdop>9.0</pdop><geoidheight>53.00</geoidheight><course>38.3</course><type>1</type></trkpt>
      <trkpt lat="40.70094162" lon="-4.7902793"><ele>2670</ele><speed>13.45</speed><time>2016-06-30T14:07:45Z</time><pdop>8.0</pdop><geoidheight>53.00</geoidheight><course>35.8</course><type>1</type></trkpt>
      <trkpt lat="40.70110308" lon="-4.7901321"><ele>2667</ele><speed>11.06</speed><time>2016-06-30T14:07:47Z</time><pdop>7.0</pdop><geoidheight>53.00</geoidheight><course>37.7</course><type>1</type></trkpt>
      <trkpt lat="40.7012854" lon="-4.78995359"><ele>2664</ele><speed>12.35</speed><time>2016-06-30T14:07:49Z</time><pdop>7.0</pdop><geoidheight>53.00</geoidheight><course>39.2</course><type>1</type></trkpt>
      <trkpt lat="40.70147481" lon="-4.78977291"><ele>2660</ele><speed>13.32</speed><time>2016-06-30T14:07:51Z</time><pdop>13.0</pdop><geoidheight>53.00</geoidheight><course>41.3</course><type>1</type></trkpt>
      <trkpt lat="40.70173238" lon="-4.78954754"><ele>2658</ele><speed>15.72</speed><time>2016-06-30T14:07:53Z</time><pdop>17.0</pdop><geoidheight>53.00</geoidheight><course>39.6</course><type>1</type></trkpt>
      <trkpt lat="40.70203019" lon="-4.78926703"><ele>2647</ele><speed>18.14</speed><time>2016-06-30T14:07:55Z</time><pdop>11.0</pdop><geoidheight>53.00</geoidheight><course>37.2</course><type>1</type></trkpt>
      <trkpt lat="40.70226023" lon="-4.78906254"><ele>2643</ele><speed>15.56</speed><time>2016-06-30T14:07:57Z</time><pdop>10.0</pdop><geoidheight>53.00</geoidheight><course>30.6</course><type>1</type></trkpt>
      <trkpt lat="40.70251845" lon="-4.7889106"><ele>2638</ele><speed>14.88</speed><time>2016-06-30T14:07:59Z</time><pdop>9.0</pdop><geoidheight>53.00</geoidheight><course>27.3</course><type>1</type></trkpt>
      <trkpt lat="40.7027724" lon="-4.78865826"><ele>2633</ele><speed>17.61</speed><time>2016-06-30T14:08:01Z</time><pdop>11.0</pdop><geoidheight>53.00</geoidheight><course>38.1</course><type>1</type></trkpt>
      <trkpt lat="40.70294987" lon="-4.78837885"><ele>2631</ele><speed>15.56</speed><time>2016-06-30T14:08:03Z</time><pdop>11.0</pdop><geoidheight>53.00</geoidheight><course>46.7</course><type>1</type></trkpt>
      <trkpt lat="40.70312296" lon="-4.78815951"><ele>2622</ele><speed>13.06</speed><time>2016-06-30T14:08:05Z</time><pdop>7.0</pdop><geoidheight>53.00</geoidheight><course>46.3</course><type>1</type></trkpt>
      <trkpt lat="40.70331206" lon="-4.78790748"><ele>2613</ele><speed>15.83</speed><time>2016-06-30T14:08:07Z</time><pdop>7.0</pdop><geoidheight>53.00</geoidheight><course>43.4</course><type>1</type></trkpt>
      <trkpt lat="40.70342237" lon="-4.78776494"><ele>2610</ele><speed>16.69</speed><time>2016-06-30T14:08:08Z</time><pdop>7.0</pdop><geoidheight>53.00</geoidheight><course>45.7</course><type>1</type></trkpt>
      <trkpt lat="40.70353925" lon="-4.78761056"><ele>2607</ele><speed>17.45</speed><time>2016-06-30T14:08:09Z</time><pdop>9.0</pdop><geoidheight>53.00</geoidheight><course>47.1</course><type>1</type></trkpt>
      <trkpt lat="40.70376318" lon="-4.78729196"><ele>2603</ele><speed>18.80</speed><time>2016-06-30T14:08:11Z</time><pdop>10.0</pdop><geoidheight>53.00</geoidheight><course>45.4</course><type>1</type></trkpt>
      <trkpt lat="40.70400052" lon="-4.78699437"><ele>2599</ele><speed>18.72</speed><time>2016-06-30T14:08:13Z</time><pdop>10.0</pdop><geoidheight>53.00</geoidheight><course>45.1</course><type>1</type></trkpt>
      <trkpt lat="40.70425956" lon="-4.78669221"><ele>2595</ele><speed>18.53</speed><time>2016-06-30T14:08:15Z</time><pdop>11.0</pdop><geoidheight>53.00</geoidheight><course>43.4</course><type>1</type></trkpt>
      <trkpt lat="40.70448334" lon="-4.78644373"><ele>2588</ele><speed>16.51</speed><time>2016-06-30T14:08:17Z</time><pdop>10.0</pdop><geoidheight>53.00</geoidheight><course>44.5</course><type>1</type></trkpt>
      <trkpt lat="40.70459619" lon="-4.78617291"><ele>2585</ele><speed>14.38</speed><time>2016-06-30T14:08:19Z</time><pdop>8.0</pdop><geoidheight>53.00</geoidheight><course>59.2</course><type>1</type></trkpt>
      <trkpt lat="40.70473668" lon="-4.78587052"><ele>2577</ele><speed>16.40</speed><time>2016-06-30T14:08:21Z</time><pdop>7.0</pdop><geoidheight>53.00</geoidheight><course>58.9</course><type>1</type></trkpt>
      <trkpt lat="40.70480948" lon="-4.78570896"><ele>2574</ele><speed>16.12</speed><time>2016-06-30T14:08:22Z</time><pdop>8.0</pdop><geoidheight>53.00</geoidheight><course>58.8</course><type>1</type></trkpt>
      <trkpt lat="40.70488782" lon="-4.7855325"><ele>2572</ele><speed>17.18</speed><time>2016-06-30T14:08:23Z</time><pdop>9.0</pdop><geoidheight>53.00</geoidheight><course>59.4</course><type>1</type></trkpt>
      <trkpt lat="40.70499791" lon="-4.78531945"><ele>2571</ele><speed>18.91</speed><time>2016-06-30T14:08:24Z</time><pdop>11.0</pdop><geoidheight>53.00</geoidheight><course>58.3</course><type>1</type></trkpt>
      <trkpt lat="40.70513297" lon="-4.78516206"><ele>2569</ele><speed>19.57</speed><time>2016-06-30T14:08:25Z</time><pdop>9.0</pdop><geoidheight>53.00</geoidheight><course>49.9</course><type>1</type></trkpt>
      <trkpt lat="40.70530726" lon="-4.78495153"><ele>2567</ele><speed>12.00</speed><time>2016-06-30T14:08:27Z</time><pdop>8.0</pdop><geoidheight>53.00</geoidheight><course>42.0</course><type>1</type></trkpt>
      <trkpt lat="40.70544575" lon="-4.78480937"><ele>2564</ele><speed>9.18</speed><time>2016-06-30T14:08:29Z</time><pdop>9.0</pdop><geoidheight>53.00</geoidheight><course>40.4</course><type>1</type></trkpt>
      <trkpt lat="40.7056546" lon="-4.78460355"><ele>2561</ele><speed>10.28</speed><time>2016-06-30T14:08:32Z</time><pdop>19.0</pdop><geoidheight>53.00</geoidheight><course>42.7</course><type>1</type></trkpt>
      <trkpt lat="40.70592853" lon="-4.78425355"><ele>2554</ele><speed>12.47</speed><time>2016-06-30T14:08:35Z</time><pdop>11.0</pdop><geoidheight>53.00</geoidheight><course>41.2</course><type>1</type></trkpt>
      <trkpt lat="40.70611157" lon="-4.78409361"><ele>2547</ele><speed>8.10</speed><time>2016-06-30T14:08:38Z</time><pdop>10.0</pdop><geoidheight>53.00</geoidheight><course>31.1</course><type>1</type></trkpt>
      <trkpt lat="40.70629954" lon="-4.78400524"><ele>2537</ele><speed>11.01</speed><time>2016-06-30T14:08:40Z</time><pdop>10.0</pdop><geoidheight>53.00</geoidheight><course>23.2</course><type>1</type></trkpt>
      <trkpt lat="40.70648297" lon="-4.78382666"><ele>2532</ele><speed>12.55</speed><time>2016-06-30T14:08:42Z</time><pdop>14.0</pdop><geoidheight>53.00</geoidheight><course>37.1</course><type>1</type></trkpt>
      <trkpt lat="40.70676252" lon="-4.7834593"><ele>2527</ele><speed>14.45</speed><time>2016-06-30T14:08:45Z</time><pdop>15.0</pdop><geoidheight>53.00</geoidheight><course>44.5</course><type>1</type></trkpt>
      <trkpt lat="40.70702454" lon="-4.78311809"><ele>2516</ele><speed>14.30</speed><time>2016-06-30T14:08:48Z</time><pdop>12.0</pdop><geoidheight>53.00</geoidheight><course>47.9</course><type>1</type></trkpt>
      <trkpt lat="40.70717596" lon="-4.78285131"><ele>2512</ele><speed>13.46</speed><time>2016-06-30T14:08:50Z</time><pdop>10.0</pdop><geoidheight>53.00</geoidheight><course>50.6</course><type>1</type></trkpt>
      <trkpt lat="40.70730623" lon="-4.78267487"><ele>2509</ele><speed>9.81</speed><time>2016-06-30T14:08:52Z</time><pdop>10.0</pdop><geoidheight>53.00</geoidheight><course>49.1</course><type>1</type></trkpt>
      <trkpt lat="40.70745427" lon="-4.78245151"><ele>2500</ele><speed>8.68</speed><time>2016-06-30T14:08:55Z</time><pdop>9.0</pdop><geoidheight>53.00</geoidheight><course>57.0</course><type>1</type></trkpt>
      <trkpt lat="40.70753651" lon="-4.78223298"><ele>2495</ele><speed>11.29</speed><time>2016-06-30T14:08:57Z</time><pdop>8.0</pdop><geoidheight>53.00</geoidheight><course>66.5</course><type>1</type></trkpt>
      <trkpt lat="40.70762555" lon="-4.78192941"><ele>2490</ele><speed>14.24</speed><time>2016-06-30T14:08:59Z</time><pdop>8.0</pdop><geoidheight>53.00</geoidheight><course>72.2</course><type>1</type></trkpt>
      <trkpt lat="40.70770043" lon="-4.78163083"><ele>2486</ele><speed>13.75</speed><time>2016-06-30T14:09:01Z</time><pdop>7.0</pdop><geoidheight>53.00</geoidheight><course>71.2</course><type>1</type></trkpt>
      <trkpt lat="40.70779371" lon="-4.78134469"><ele>2485</ele><speed>13.09</speed><time>2016-06-30T14:09:03Z</time><pdop>6.0</pdop><geoidheight>53.00</geoidheight><course>71.0</course><type>1</type></trkpt>
      <trkpt lat="40.70786859" lon="-4.78108056"><ele>2485</ele><speed>12.08</speed><time>2016-06-30T14:09:05Z</time><pdop>6.0</pdop><geoidheight>53.00</geoidheight><course>70.2</course><type>1</type></trkpt>
      <trkpt lat="40.70791096" lon="-4.78094513"><ele>2484</ele><speed>12.08</speed><time>2016-06-30T14:09:06Z</time><pdop>6.0</pdop><geoidheight>53.00</geoidheight><course>72.9</course><type>1</type></trkpt>
      <trkpt lat="40.70794385" lon="-4.78081056"><ele>2483</ele><speed>12.12</speed><time>2016-06-30T14:09:07Z</time><pdop>5.0</pdop><geoidheight>53.00</geoidheight><course>72.4</course><type>1</type></trkpt>
      <trkpt lat="40.70796739" lon="-4.78067657"><ele>2482</ele><speed>11.85</speed><time>2016-06-30T14:09:08Z</time><pdop>5.0</pdop><geoidheight>53.00</geoidheight><course>74.6</course><type>1</type></trkpt>
      <trkpt lat="40.70799914" lon="-4.78054227"><ele>2482</ele><speed>11.63</speed><time>2016-06-30T14:09:09Z</time><pdop>5.0</pdop><geoidheight>53.00</geoidheight><course>75.8</course><type>1</type></trkpt>
      <trkpt lat="40.70802851" lon="-4.78041516"><ele>2480</ele><speed>11.54</speed><time>2016-06-30T14:09:10Z</time><pdop>4.0</pdop><geoidheight>53.00</geoidheight><course>75.3</course><type>1</type></trkpt>
      <trkpt lat="40.70805664" lon="-4.78028303"><ele>2479</ele><speed>11.90</speed><time>2016-06-30T14:09:11Z</time><pdop>4.0</pdop><geoidheight>53.00</geoidheight><course>75.0</course><type>1</type></trkpt>
      <trkpt lat="40.70808514" lon="-4.7801515"><ele>2477</ele><speed>11.77</speed><time>2016-06-30T14:09:12Z</time><pdop>4.0</pdop><geoidheight>53.00</geoidheight><course>75.2</course><type>1</type></trkpt>
      <trkpt lat="40.70811994" lon="-4.78001628"><ele>2476</ele><speed>11.90</speed><time>2016-06-30T14:09:13Z</time><pdop>4.0</pdop><geoidheight>53.00</geoidheight><course>72.8</course><type>1</type></trkpt>
      <trkpt lat="40.70815753" lon="-4.77989143"><ele>2474</ele><speed>11.99</speed><time>2016-06-30T14:09:14Z</time><pdop>4.0</pdop><geoidheight>53.00</geoidheight><course>68.2</course><type>1</type></trkpt>
      <trkpt lat="40.70822119" lon="-4.77976668"><ele>2472</ele><speed>12.57</speed><time>2016-06-30T14:09:15Z</time><pdop>4.0</pdop><geoidheight>53.00</geoidheight><course>59.8</course><type>1</type></trkpt>
      <trkpt lat="40.70827952" lon="-4.77963528"><ele>2471</ele><speed>12.85</speed><time>2016-06-30T14:09:16Z</time><pdop>4.0</pdop><geoidheight>53.00</geoidheight><course>60.6</course><type>1</type></trkpt>
      <trkpt lat="40.7083269" lon="-4.77948947"><ele>2471</ele><speed>13.31</speed><time>2016-06-30T14:09:17Z</time><pdop>5.0</pdop><geoidheight>53.00</geoidheight><course>64.7</course><type>1</type></trkpt>
      <trkpt lat="40.70835059" lon="-4.7793624"><ele>2468</ele><speed>12.37</speed><time>2016-06-30T14:09:18Z</time><pdop>5.0</pdop><geoidheight>53.00</geoidheight><course>69.9</course><type>1</type></trkpt>
      <trkpt lat="40.70840205" lon="-4.77923555"><ele>2468</ele><speed>11.82</speed><time>2016-06-30T14:09:19Z</time><pdop>6.0</pdop><geoidheight>53.00</geoidheight><course>67.0</course><type>1</type></trkpt>
      <trkpt lat="40.70847077" lon="-4.77911051"><ele>2467</ele><speed>12.12</speed><time>2016-06-30T14:09:20Z</time><pdop>7.0</pdop><geoidheight>53.00</geoidheight><course>60.5</course><type>1</type></trkpt>
      <trkpt lat="40.70861391" lon="-4.77886807"><ele>2462</ele><speed>13.54</speed><time>2016-06-30T14:09:22Z</time><pdop>7.0</pdop><geoidheight>53.00</geoidheight><course>57.3</course><type>1</type></trkpt>
      <trkpt lat="40.70871697" lon="-4.77871931"><ele>2461</ele><speed>14.72</speed><time>2016-06-30T14:09:23Z</time><pdop>8.0</pdop><geoidheight>53.00</geoidheight><course>55.6</course><type>1</type></trkpt>
      <trkpt lat="40.70887099" lon="-4.77842396"><ele>2458</ele><speed>15.57</speed><time>2016-06-30T14:09:25Z</time><pdop>7.0</pdop><geoidheight>53.00</geoidheight><course>54.5</course><type>1</type></trkpt>
      <trkpt lat="40.70895982" lon="-4.77828417"><ele>2456</ele><speed>14.47</speed><time>2016-06-30T14:09:26Z</time><pdop>7.0</pdop><geoidheight>53.00</geoidheight><course>53.3</course><type>1</type></trkpt>
      <trkpt lat="40.70904853" lon="-4.77816495"><ele>2454</ele><speed>13.71</speed><time>2016-06-30T14:09:27Z</time><pdop>7.0</pdop><geoidheight>53.00</geoidheight><course>50.8</course><type>1</type></trkpt>
      <trkpt lat="40.70915411" lon="-4.77794195"><ele>2448</ele><speed>12.20</speed><time>2016-06-30T14:09:29Z</time><pdop>8.0</pdop><geoidheight>53.00</geoidheight><course>53.6</course><type>1</type></trkpt>
      <trkpt lat="40.70927436" lon="-4.77776068"><ele>2443</ele><speed>11.38</speed><time>2016-06-30T14:09:31Z</time><pdop>8.0</pdop><geoidheight>53.00</geoidheight><course>44.7</course><type>1</type></trkpt>
      <trkpt lat="40.70945028" lon="-4.77760256"><ele>2439</ele><speed>11.69</speed><time>2016-06-30T14:09:33Z</time><pdop>11.0</pdop><geoidheight>53.00</geoidheight><course>40.7</course><type>1</type></trkpt>
      <trkpt lat="40.70960529" lon="-4.77740115"><ele>2435</ele><speed>12.13</speed><time>2016-06-30T14:09:35Z</time><pdop>11.0</pdop><geoidheight>53.00</geoidheight><course>44.9</course><type>1</type></trkpt>
      <trkpt lat="40.70980666" lon="-4.77717033"><ele>2430</ele><speed>12.74</speed><time>2016-06-30T14:09:37Z</time><pdop>14.0</pdop><geoidheight>53.00</geoidheight><course>46.3</course><type>1</type></trkpt>
      <trkpt lat="40.71004262" lon="-4.7767636"><ele>2422</ele><speed>13.83</speed><time>2016-06-30T14:09:40Z</time><pdop>14.0</pdop><geoidheight>53.00</geoidheight><course>54.1</course><type>1</type></trkpt>
      <trkpt lat="40.71023855" lon="-4.77639502"><ele>2417</ele><speed>13.04</speed><time>2016-06-30T14:09:43Z</time><pdop>15.0</pdop><geoidheight>53.00</geoidheight><course>53.2</course><type>1</type></trkpt>
      <trkpt lat="40.71053396" lon="-4.77615562"><ele>2412</ele><speed>11.33</speed><time>2016-06-30T14:09:46Z</time><pdop>15.0</pdop><geoidheight>53.00</geoidheight><course>39.0</course><type>1</type></trkpt>
      <trkpt lat="40.71081619" lon="-4.77590456"><ele>2401</ele><speed>9.92</speed><time>2016-06-30T14:09:50Z</time><pdop>19.0</pdop><geoidheight>53.00</geoidheight><course>30.6</course><type>1</type></trkpt>
      <trkpt lat="40.71117602" lon="-4.7757647"><ele>2385</ele><speed>9.22</speed><time>2016-06-30T14:09:55Z</time><pdop>16.0</pdop><geoidheight>53.00</geoidheight><course>23.0</course><type>1</type></trkpt>
      <trkpt lat="40.71151601" lon="-4.7753899"><ele>2374</ele><speed>14.08</speed><time>2016-06-30T14:09:58Z</time><pdop>15.0</pdop><geoidheight>53.00</geoidheight><course>38.8</course><type>1</type></trkpt>
      <trkpt lat="40.71179124" lon="-4.77510309"><ele>2365</ele><speed>11.47</speed><time>2016-06-30T14:10:01Z</time><pdop>15.0</pdop><geoidheight>53.00</geoidheight><course>36.6</course><type>1</type></trkpt>
      <trkpt lat="40.71200578" lon="-4.77489618"><ele>2357</ele><speed>9.86</speed><time>2016-06-30T14:10:04Z</time><pdop>13.0</pdop><geoidheight>53.00</geoidheight><course>42.9</course><type>1</type></trkpt>
      <trkpt lat="40.7122632" lon="-4.77468082"><ele>2351</ele><speed>10.89</speed><time>2016-06-30T14:10:07Z</time><pdop>16.0</pdop><geoidheight>53.00</geoidheight><course>37.0</course><type>1</type></trkpt>
      <trkpt lat="40.71252156" lon="-4.77442022"><ele>2344</ele><speed>11.22</speed><time>2016-06-30T14:10:10Z</time><pdop>16.0</pdop><geoidheight>53.00</geoidheight><course>40.7</course><type>1</type></trkpt>
      <trkpt lat="40.71282084" lon="-4.77417039"><ele>2337</ele><speed>11.62</speed><time>2016-06-30T14:10:13Z</time><pdop>15.0</pdop><geoidheight>53.00</geoidheight><course>37.0</course><type>1</type></trkpt>
      <trkpt lat="40.71317713" lon="-4.77398798"><ele>2329</ele><speed>12.80</speed><time>2016-06-30T14:10:16Z</time><pdop>13.0</pdop><geoidheight>53.00</geoidheight><course>28.7</course><type>1</type></trkpt>
      <trkpt lat="40.71336394" lon="-4.77377968"><ele>2321</ele><speed>12.14</speed><time>2016-06-30T14:10:18Z</time><pdop>13.0</pdop><geoidheight>53.00</geoidheight><course>31.4</course><type>1</type></trkpt>
      <trkpt lat="40.71357073" lon="-4.77360527"><ele>2315</ele><speed>12.27</speed><time>2016-06-30T14:10:20Z</time><pdop>14.0</pdop><geoidheight>53.00</geoidheight><course>30.2</course><type>1</type></trkpt>
      <trkpt lat="40.7138402" lon="-4.7735311"><ele>2307</ele><speed>11.07</speed><time>2016-06-30T14:10:23Z</time><pdop>14.0</pdop><geoidheight>53.00</geoidheight><course>20.9</course><type>1</type></trkpt>
      <trkpt lat="40.71415146" lon="-4.77326546"><ele>2295</ele><speed>13.00</speed><time>2016-06-30T14:10:26Z</time><pdop>13.0</pdop><geoidheight>53.00</geoidheight><course>22.3</course><type>1</type></trkpt>
      <trkpt lat="40.71439299" lon="-4.7731224"><ele>2290</ele><speed>12.83</speed><time>2016-06-30T14:10:28Z</time><pdop>15.0</pdop><geoidheight>53.00</geoidheight><course>23.6</course><type>1</type></trkpt>
      <trkpt lat="40.71470333" lon="-4.77289087"><ele>2283</ele><speed>12.67</speed><time>2016-06-30T14:10:31Z</time><pdop>13.0</pdop><geoidheight>53.00</geoidheight><course>28.0</course><type>1</type></trkpt>
      <trkpt lat="40.71505709" lon="-4.77272912"><ele>2274</ele><speed>11.85</speed><time>2016-06-30T14:10:34Z</time><pdop>14.0</pdop><geoidheight>53.00</geoidheight><course>25.2</course><type>1</type></trkpt>
      <trkpt lat="40.71539557" lon="-4.7724431"><ele>2264</ele><speed>13.66</speed><time>2016-06-30T14:10:37Z</time><pdop>18.0</pdop><geoidheight>53.00</geoidheight><course>34.2</course><type>1</type></trkpt>
      <trkpt lat="40.71573158" lon="-4.77223216"><ele>2260</ele><speed>13.22</speed><time>2016-06-30T14:10:40Z</time><pdop>18.0</pdop><geoidheight>53.00</geoidheight><course>25.0</course><type>1</type></trkpt>
      <trkpt lat="40.71608349" lon="-4.77202658"><ele>2253</ele><speed>13.58</speed><time>2016-06-30T14:10:43Z</time><pdop>22.0</pdop><geoidheight>53.00</geoidheight><course>23.2</course><type>1</type></trkpt>
      <trkpt lat="40.71649184" lon="-4.77166214"><ele>2245</ele><speed>12.41</speed><time>2016-06-30T14:10:47Z</time><pdop>26.0</pdop><geoidheight>53.00</geoidheight><course>31.7</course><type>1</type></trkpt>
      <trkpt lat="40.71706903" lon="-4.77140984"><ele>2234</ele><speed>14.89</speed><time>2016-06-30T14:10:52Z</time><pdop>24.0</pdop><geoidheight>53.00</geoidheight><course>19.8</course><type>1</type></trkpt>
      <trkpt lat="40.71741875" lon="-4.77115573"><ele>2227</ele><speed>13.40</speed><time>2016-06-30T14:10:55Z</time><pdop>20.0</pdop><geoidheight>53.00</geoidheight><course>32.3</course><type>1</type></trkpt>
      <trkpt lat="40.71777225" lon="-4.77094617"><ele>2220</ele><speed>12.93</speed><time>2016-06-30T14:10:58Z</time><pdop>16.0</pdop><geoidheight>53.00</geoidheight><course>28.9</course><type>1</type></trkpt>
      <trkpt lat="40.71806501" lon="-4.7706832"><ele>2211</ele><speed>12.20</speed><time>2016-06-30T14:11:01Z</time><pdop>19.0</pdop><geoidheight>53.00</geoidheight><course>39.2</course><type>1</type></trkpt>
      <trkpt lat="40.71832146" lon="-4.77035428"><ele>2203</ele><speed>13.21</speed><time>2016-06-30T14:11:04Z</time><pdop>19.0</pdop><geoidheight>53.00</geoidheight><course>46.1</course><type>1</type></trkpt>
      <trkpt lat="40.71867362" lon="-4.7699591"><ele>2192</ele><speed>13.54</speed><time>2016-06-30T14:11:08Z</time><pdop>26.0</pdop><geoidheight>53.00</geoidheight><course>44.8</course><type>1</type></trkpt>
      <trkpt lat="40.71897309" lon="-4.76950835"><ele>2180</ele><speed>14.06</speed><time>2016-06-30T14:11:11Z</time><pdop>15.0</pdop><geoidheight>53.00</geoidheight><course>44.2</course><type>1</type></trkpt>
      <trkpt lat="40.71931312" lon="-4.76926851"><ele>2173</ele><speed>12.72</speed><time>2016-06-30T14:11:14Z</time><pdop>18.0</pdop><geoidheight>53.00</geoidheight><course>32.3</course><type>1</type></trkpt>
      <trkpt lat="40.71964314" lon="-4.76913058"><ele>2165</ele><speed>13.00</speed><time>2016-06-30T14:11:17Z</time><pdop>18.0</pdop><geoidheight>53.00</geoidheight><course>25.1</course><type>1</type></trkpt>
      <trkpt lat="40.72001944" lon="-4.76891527"><ele>2154</ele><speed>12.60</speed><time>2016-06-30T14:11:20Z</time><pdop>14.0</pdop><geoidheight>53.00</geoidheight><course>23.0</course><type>1</type></trkpt>
      <trkpt lat="40.72030443" lon="-4.76871739"><ele>2144</ele><speed>11.87</speed><time>2016-06-30T14:11:23Z</time><pdop>17.0</pdop><geoidheight>53.00</geoidheight><course>27.2</course><type>1</type></trkpt>
      <trkpt lat="40.72068341" lon="-4.76860714"><ele>2138</ele><speed>13.01</speed><time>2016-06-30T14:11:26Z</time><pdop>20.0</pdop><geoidheight>53.00</geoidheight><course>18.9</course><type>1</type></trkpt>
      <trkpt lat="40.72111343" lon="-4.76834697"><ele>2127</ele><speed>12.11</speed><time>2016-06-30T14:11:30Z</time><pdop>23.0</pdop><geoidheight>53.00</geoidheight><course>26.6</course><type>1</type></trkpt>
      <trkpt lat="40.72141235" lon="-4.76799531"><ele>2114</ele><speed>9.64</speed><time>2016-06-30T14:11:35Z</time><pdop>15.0</pdop><geoidheight>53.00</geoidheight><course>41.2</course><type>1</type></trkpt>
      <trkpt lat="40.7216951" lon="-4.7674916"><ele>2103</ele><speed>13.59</speed><time>2016-06-30T14:11:39Z</time><pdop>25.0</pdop><geoidheight>53.00</geoidheight><course>54.4</course><type>1</type></trkpt>
      <trkpt lat="40.72200184" lon="-4.76714831"><ele>2090</ele><speed>13.37</speed><time>2016-06-30T14:11:42Z</time><pdop>16.0</pdop><geoidheight>53.00</geoidheight><course>51.1</course><type>1</type></trkpt>
      <trkpt lat="40.72220033" lon="-4.76681383"><ele>2079</ele><speed>13.38</speed><time>2016-06-30T14:11:45Z</time><pdop>15.0</pdop><geoidheight>53.00</geoidheight><course>55.3</course><type>1</type></trkpt>
      <trkpt lat="40.72237087" lon="-4.76653629"><ele>2073</ele><speed>14.56</speed><time>2016-06-30T14:11:47Z</time><pdop>14.0</pdop><geoidheight>53.00</geoidheight><course>55.0</course><type>1</type></trkpt>
      <trkpt lat="40.72252299" lon="-4.76623894"><ele>2067</ele><speed>15.39</speed><time>2016-06-30T14:11:49Z</time><pdop>14.0</pdop><geoidheight>53.00</geoidheight><course>63.4</course><type>1</type></trkpt>
      <trkpt lat="40.72266304" lon="-4.76593915"><ele>2062</ele><speed>14.78</speed><time>2016-06-30T14:11:51Z</time><pdop>15.0</pdop><geoidheight>53.00</geoidheight><course>59.2</course><type>1</type></trkpt>
      <trkpt lat="40.72281018" lon="-4.76550579"><ele>2055</ele><speed>14.14</speed><time>2016-06-30T14:11:54Z</time><pdop>13.0</pdop><geoidheight>53.00</geoidheight><course>69.7</course><type>1</type></trkpt>
      <trkpt lat="40.72289882" lon="-4.76517059"><ele>2046</ele><speed>15.98</speed><time>2016-06-30T14:11:56Z</time><pdop>13.0</pdop><geoidheight>53.00</geoidheight><course>71.6</course><type>1</type></trkpt>
      <trkpt lat="40.72308918" lon="-4.76482795"><ele>2037</ele><speed>17.34</speed><time>2016-06-30T14:11:58Z</time><pdop>12.0</pdop><geoidheight>53.00</geoidheight><course>58.6</course><type>1</type></trkpt>
      <trkpt lat="40.72322909" lon="-4.76447728"><ele>2033</ele><speed>16.85</speed><time>2016-06-30T14:12:00Z</time><pdop>15.0</pdop><geoidheight>53.00</geoidheight><course>63.1</course><type>1</type></trkpt>
      <trkpt lat="40.72319293" lon="-4.76399832"><ele>2024</ele><speed>13.99</speed><time>2016-06-30T14:12:03Z</time><pdop>15.0</pdop><geoidheight>53.00</geoidheight><course>84.8</course><type>1</type></trkpt>
      <trkpt lat="40.7232584" lon="-4.76366153"><ele>2020</ele><speed>14.56</speed><time>2016-06-30T14:12:05Z</time><pdop>13.0</pdop><geoidheight>53.00</geoidheight><course>82.8</course><type>1</type></trkpt>
      <trkpt lat="40.72330061" lon="-4.76331217"><ele>2017</ele><speed>14.66</speed><time>2016-06-30T14:12:07Z</time><pdop>12.0</pdop><geoidheight>53.00</geoidheight><course>83.9</course><type>1</type></trkpt>
      <trkpt lat="40.72334584" lon="-4.76295269"><ele>2013</ele><speed>15.34</speed><time>2016-06-30T14:12:09Z</time><pdop>10.0</pdop><geoidheight>53.00</geoidheight><course>85.6</course><type>1</type></trkpt>
      <trkpt lat="40.72337837" lon="-4.76258678"><ele>2011</ele><speed>15.77</speed><time>2016-06-30T14:12:11Z</time><pdop>9.0</pdop><geoidheight>53.00</geoidheight><course>82.1</course><type>1</type></trkpt>
      <trkpt lat="40.72344455" lon="-4.76223008"><ele>2010</ele><speed>16.22</speed><time>2016-06-30T14:12:13Z</time><pdop>8.0</pdop><geoidheight>53.00</geoidheight><course>75.4</course><type>1</type></trkpt>
      <trkpt lat="40.72349913" lon="-4.76188089"><ele>2009</ele><speed>15.28</speed><time>2016-06-30T14:12:15Z</time><pdop>8.0</pdop><geoidheight>53.00</geoidheight><course>79.8</course><type>1</type></trkpt>
      <trkpt lat="40.72352613" lon="-4.76152942"><ele>2011</ele><speed>15.19</speed><time>2016-06-30T14:12:17Z</time><pdop>8.0</pdop><geoidheight>53.00</geoidheight><course>84.1</course><type>1</type></trkpt>
      <trkpt lat="40.72359033" lon="-4.7611873"><ele>2010</ele><speed>14.66</speed><time>2016-06-30T14:12:19Z</time><pdop>8.0</pdop><geoidheight>53.00</geoidheight><course>76.2</course><type>1</type></trkpt>
      <trkpt lat="40.72368787" lon="-4.76091361"><ele>2011</ele><speed>12.70</speed><time>2016-06-30T14:12:21Z</time><pdop>8.0</pdop><geoidheight>53.00</geoidheight><course>64.3</course><type>1</type></trkpt>
      <trkpt lat="40.72382369" lon="-4.76066936"><ele>2013</ele><speed>12.52</speed><time>2016-06-30T14:12:23Z</time><pdop>7.0</pdop><geoidheight>53.00</geoidheight><course>53.4</course><type>1</type></trkpt>
      <trkpt lat="40.72397398" lon="-4.76045081"><ele>2012</ele><speed>12.33</speed><time>2016-06-30T14:12:25Z</time><pdop>7.0</pdop><geoidheight>53.00</geoidheight><course>47.5</course><type>1</type></trkpt>
      <trkpt lat="40.72416386" lon="-4.76027045"><ele>2013</ele><speed>12.86</speed><time>2016-06-30T14:12:27Z</time><pdop>7.0</pdop><geoidheight>53.00</geoidheight><course>38.3</course><type>1</type></trkpt>
      <trkpt lat="40.7243538" lon="-4.76015052"><ele>2012</ele><speed>11.55</speed><time>2016-06-30T14:12:29Z</time><pdop>13.0</pdop><geoidheight>53.00</geoidheight><course>28.0</course><type>1</type></trkpt>
      <trkpt lat="40.72449524" lon="-4.76042856"><ele>2012</ele><speed>7.32</speed><time>2016-06-30T14:12:32Z</time><pdop>9.0</pdop><geoidheight>53.00</geoidheight><course>289.5</course><type>1</type></trkpt>
      <trkpt lat="40.72445808" lon="-4.76065588"><ele>2011</ele><speed>5.93</speed><time>2016-06-30T14:12:35Z</time><pdop>10.0</pdop><geoidheight>53.00</geoidheight><course>251.6</course><type>1</type></trkpt>
      <trkpt lat="40.7241347" lon="-4.76056745"><ele>2012</ele><speed>12.03</speed><time>2016-06-30T14:12:38Z</time><pdop>8.0</pdop><geoidheight>53.00</geoidheight><course>146.9</course><type>1</type></trkpt>
      <trkpt lat="40.72398417" lon="-4.76027306"><ele>2009</ele><speed>13.25</speed><time>2016-06-30T14:12:40Z</time><pdop>6.0</pdop><geoidheight>53.00</geoidheight><course>116.7</course><type>1</type></trkpt>
      <trkpt lat="40.72394133" lon="-4.76010188"><ele>2294</ele><speed>13.97</speed><time>2016-06-30T14:12:41Z</time><pdop>5.0</pdop><geoidheight>53.00</geoidheight><course>107.3</course><type>1</type></trkpt>
      <trkpt lat="40.72391219" lon="-4.75991983"><ele>2222</ele><speed>14.44</speed><time>2016-06-30T14:12:42Z</time><pdop>5.0</pdop><geoidheight>53.00</geoidheight><course>100.1</course><type>1</type></trkpt>
      <trkpt lat="40.72389863" lon="-4.75975087"><ele>2169</ele><speed>14.25</speed><time>2016-06-30T14:12:43Z</time><pdop>5.0</pdop><geoidheight>53.00</geoidheight><course>97.5</course><type>1</type></trkpt>
      <trkpt lat="40.72389678" lon="-4.75958351"><ele>2144</ele><speed>13.95</speed><time>2016-06-30T14:12:44Z</time><pdop>6.0</pdop><geoidheight>53.00</geoidheight><course>93.4</course><type>1</type></trkpt>
      <trkpt lat="40.7239074" lon="-4.75930871"><ele>2124</ele><speed>11.81</speed><time>2016-06-30T14:12:46Z</time><pdop>9.0</pdop><geoidheight>53.00</geoidheight><course>88.6</course><type>1</type></trkpt>
      <trkpt lat="40.72391275" lon="-4.75898947"><ele>2166</ele><speed>11.37</speed><time>2016-06-30T14:12:48Z</time><pdop>7.0</pdop><geoidheight>53.00</geoidheight><course>88.3</course><type>1</type></trkpt>
      <trkpt lat="40.72390938" lon="-4.75870911"><ele>2125</ele><speed>11.98</speed><time>2016-06-30T14:12:50Z</time><pdop>7.0</pdop><geoidheight>53.00</geoidheight><course>88.9</course><type>1</type></trkpt>
      <trkpt lat="40.72392289" lon="-4.75841384"><ele>2081</ele><speed>12.69</speed><time>2016-06-30T14:12:52Z</time><pdop>6.0</pdop><geoidheight>53.00</geoidheight><course>79.8</course><type>1</type></trkpt>
      <trkpt lat="40.72396335" lon="-4.75825857"><ele>2067</ele><speed>12.42</speed><time>2016-06-30T14:12:53Z</time><pdop>5.0</pdop><geoidheight>53.00</geoidheight><course>70.3</course><type>1</type></trkpt>
      <trkpt lat="40.72401439" lon="-4.75814038"><ele>2056</ele><speed>12.18</speed><time>2016-06-30T14:12:54Z</time><pdop>4.0</pdop><geoidheight>53.00</geoidheight><course>61.6</course><type>1</type></trkpt>
      <trkpt lat="40.72406598" lon="-4.75800817"><ele>2050</ele><speed>11.87</speed><time>2016-06-30T14:12:55Z</time><pdop>4.0</pdop><geoidheight>53.00</geoidheight><course>59.9</course><type>1</type></trkpt>
      <trkpt lat="40.72412249" lon="-4.75790565"><ele>2046</ele><speed>10.83</speed><time>2016-06-30T14:12:56Z</time><pdop>5.0</pdop><geoidheight>53.00</geoidheight><course>54.9</course><type>1</type></trkpt>
      <trkpt lat="40.72419923" lon="-4.75783053"><ele>2045</ele><speed>9.83</speed><time>2016-06-30T14:12:57Z</time><pdop>5.0</pdop><geoidheight>53.00</geoidheight><course>45.5</course><type>1</type></trkpt>
      <trkpt lat="40.72438651" lon="-4.75772467"><ele>2038</ele><speed>9.92</speed><time>2016-06-30T14:12:59Z</time><pdop>7.0</pdop><geoidheight>53.00</geoidheight><course>27.1</course><type>1</type></trkpt>
      <trkpt lat="40.72456445" lon="-4.75771895"><ele>2035</ele><speed>9.98</speed><time>2016-06-30T14:13:01Z</time><pdop>7.0</pdop><geoidheight>53.00</geoidheight><course>14.0</course><type>1</type></trkpt>
      <trkpt lat="40.72466968" lon="-4.75760711"><ele>2035</ele><speed>8.53</speed><time>2016-06-30T14:13:03Z</time><pdop>6.0</pdop><geoidheight>53.00</geoidheight><course>40.2</course><type>1</type></trkpt>
      <trkpt lat="40.72476451" lon="-4.7574849"><ele>2035</ele><speed>9.13</speed><time>2016-06-30T14:13:05Z</time><pdop>6.0</pdop><geoidheight>53.00</geoidheight><course>43.4</course><type>1</type></trkpt>
      <trkpt lat="40.72492275" lon="-4.75732516"><ele>2035</ele><speed>10.73</speed><time>2016-06-30T14:13:07Z</time><pdop>8.0</pdop><geoidheight>53.00</geoidheight><course>42.1</course><type>1</type></trkpt>
      <trkpt lat="40.72508288" lon="-4.75715348"><ele>2036</ele><speed>11.66</speed><time>2016-06-30T14:13:09Z</time><pdop>8.0</pdop><geoidheight>53.00</geoidheight><course>40.1</course><type>1</type></trkpt>
      <trkpt lat="40.72520855" lon="-4.75699955"><ele>2039</ele><speed>11.10</speed><time>2016-06-30T14:13:11Z</time><pdop>9.0</pdop><geoidheight>53.00</geoidheight><course>39.4</course><type>1</type></trkpt>
      <trkpt lat="40.72520956" lon="-4.75678247"><ele>2044</ele><speed>9.88</speed><time>2016-06-30T14:13:13Z</time><pdop>7.0</pdop><geoidheight>53.00</geoidheight><course>65.9</course><type>1</type></trkpt>
      <trkpt lat="40.72529823" lon="-4.75656292"><ele>2046</ele><speed>10.21</speed><time>2016-06-30T14:13:15Z</time><pdop>6.0</pdop><geoidheight>53.00</geoidheight><course>66.6</course><type>1</type></trkpt>
      <trkpt lat="40.72537538" lon="-4.75633347"><ele>2051</ele><speed>10.37</speed><time>2016-06-30T14:13:17Z</time><pdop>6.0</pdop><geoidheight>53.00</geoidheight><course>69.1</course><type>1</type></trkpt>
      <trkpt lat="40.72544899" lon="-4.75608882"><ele>2055</ele><speed>10.70</speed><time>2016-06-30T14:13:19Z</time><pdop>7.0</pdop><geoidheight>53.00</geoidheight><course>72.0</course><type>1</type></trkpt>
      <trkpt lat="40.72554326" lon="-4.75592664"><ele>2060</ele><speed>7.45</speed><time>2016-06-30T14:13:21Z</time><pdop>8.0</pdop><geoidheight>53.00</geoidheight><course>68.1</course><type>1</type></trkpt>
      <trkpt lat="40.72561977" lon="-4.75576454"><ele>2066</ele><speed>6.15</speed><time>2016-06-30T14:13:23Z</time><pdop>7.0</pdop><geoidheight>53.00</geoidheight><course>61.2</course><type>1</type></trkpt>
      <trkpt lat="40.72578504" lon="-4.75567823"><ele>2070</ele><speed>8.77</speed><time>2016-06-30T14:13:26Z</time><pdop>6.0</pdop><geoidheight>53.00</geoidheight><course>3.4</course><type>1</type></trkpt>
      <trkpt lat="40.72591508" lon="-4.7557653"><ele>2074</ele><speed>8.35</speed><time>2016-06-30T14:13:28Z</time><pdop>6.0</pdop><geoidheight>53.00</geoidheight><course>325.2</course><type>1</type></trkpt>
      <trkpt lat="40.72602679" lon="-4.75589835"><ele>2078</ele><speed>7.93</speed><time>2016-06-30T14:13:30Z</time><pdop>8.0</pdop><geoidheight>53.00</geoidheight><course>320.2</course><type>1</type></trkpt>
      <trkpt lat="40.72584936" lon="-4.75624961"><ele>2083</ele><speed>8.75</speed><time>2016-06-30T14:13:33Z</time><pdop>15.0</pdop><geoidheight>53.00</geoidheight><course>248.4</course><type>1</type></trkpt>
      <trkpt lat="40.72554727" lon="-4.75635294"><ele>2088</ele><speed>11.10</speed><time>2016-06-30T14:13:35Z</time><pdop>12.0</pdop><geoidheight>53.00</geoidheight><course>204.7</course><type>1</type></trkpt>
      <trkpt lat="40.72536484" lon="-4.75651032"><ele>2096</ele><speed>7.85</speed><time>2016-06-30T14:13:38Z</time><pdop>12.0</pdop><geoidheight>53.00</geoidheight><course>226.7</course><type>1</type></trkpt>
      <trkpt lat="40.72544593" lon="-4.75620364"><ele>2145</ele><speed>7.50</speed><time>2016-06-30T14:13:50Z</time><pdop>11.0</pdop><geoidheight>53.00</geoidheight><course>109.0</course><type>1</type></trkpt>
      <trkpt lat="40.72526526" lon="-4.75606949"><ele>2154</ele><speed>9.42</speed><time>2016-06-30T14:13:52Z</time><pdop>11.0</pdop><geoidheight>53.00</geoidheight><course>155.7</course><type>1</type></trkpt>
      <trkpt lat="40.72506213" lon="-4.75592638"><ele>2163</ele><speed>10.78</speed><time>2016-06-30T14:13:54Z</time><pdop>9.0</pdop><geoidheight>53.00</geoidheight><course>163.5</course><type>1</type></trkpt>
      <trkpt lat="40.72486754" lon="-4.75597256"><ele>2169</ele><speed>10.92</speed><time>2016-06-30T14:13:56Z</time><pdop>8.0</pdop><geoidheight>53.00</geoidheight><course>187.1</course><type>1</type></trkpt>
      <trkpt lat="40.7247744" lon="-4.75620126"><ele>2175</ele><speed>11.30</speed><time>2016-06-30T14:13:58Z</time><pdop>8.0</pdop><geoidheight>53.00</geoidheight><course>225.9</course><type>1</type></trkpt>
      <trkpt lat="40.72470399" lon="-4.75646817"><ele>2271</ele><speed>9.38</speed><time>2016-06-30T14:14:01Z</time><pdop>9.0</pdop><geoidheight>53.00</geoidheight><course>245.0</course><type>1</type></trkpt>
      <trkpt lat="40.72498844" lon="-4.75643909"><ele>2251</ele><speed>7.44</speed><time>2016-06-30T14:14:06Z</time><pdop>12.0</pdop><geoidheight>53.00</geoidheight><course>12.6</course><type>1</type></trkpt>
      <trkpt lat="40.72512823" lon="-4.75606355"><ele>2278</ele><speed>9.01</speed><time>2016-06-30T14:14:10Z</time><pdop>17.0</pdop><geoidheight>53.00</geoidheight><course>69.7</course><type>1</type></trkpt>
      <trkpt lat="40.72475499" lon="-4.75581786"><ele>2273</ele><speed>12.16</speed><time>2016-06-30T14:14:15Z</time><pdop>15.0</pdop><geoidheight>53.00</geoidheight><course>165.0</course><type>1</type></trkpt>
      <trkpt lat="40.72446855" lon="-4.75578284"><ele>2272</ele><speed>14.25</speed><time>2016-06-30T14:14:17Z</time><pdop>11.0</pdop><geoidheight>53.00</geoidheight><course>179.0</course><type>1</type></trkpt>
      <trkpt lat="40.72419988" lon="-4.75585285"><ele>2281</ele><speed>14.94</speed><time>2016-06-30T14:14:19Z</time><pdop>9.0</pdop><geoidheight>53.00</geoidheight><course>191.4</course><type>1</type></trkpt>
      <trkpt lat="40.7240093" lon="-4.75593884"><ele>2288</ele><speed>10.09</speed><time>2016-06-30T14:14:21Z</time><pdop>7.0</pdop><geoidheight>53.00</geoidheight><course>202.0</course><type>1</type></trkpt>
      <trkpt lat="40.72390142" lon="-4.7560271"><ele>2293</ele><speed>8.02</speed><time>2016-06-30T14:14:23Z</time><pdop>6.0</pdop><geoidheight>53.00</geoidheight><course>222.8</course><type>1</type></trkpt>
      <trkpt lat="40.72393204" lon="-4.75621029"><ele>2303</ele><speed>6.92</speed><time>2016-06-30T14:14:26Z</time><pdop>6.0</pdop><geoidheight>53.00</geoidheight><course>309.2</course><type>1</type></trkpt>
      <trkpt lat="40.72405931" lon="-4.75622545"><ele>2307</ele><speed>7.36</speed><time>2016-06-30T14:14:28Z</time><pdop>5.0</pdop><geoidheight>53.00</geoidheight><course>356.2</course><type>1</type></trkpt>
      <trkpt lat="40.72420723" lon="-4.7562153"><ele>2311</ele><speed>8.34</speed><time>2016-06-30T14:14:30Z</time><pdop>9.0</pdop><geoidheight>53.00</geoidheight><course>1.1</course><type>1</type></trkpt>
      <trkpt lat="40.72436949" lon="-4.75623633"><ele>2210</ele><speed>6.37</speed><time>2016-06-30T14:14:33Z</time><pdop>8.0</pdop><geoidheight>53.00</geoidheight><course>344.5</course><type>1</type></trkpt>
      <trkpt lat="40.72452406" lon="-4.75632046"><ele>2257</ele><speed>6.27</speed><time>2016-06-30T14:14:36Z</time><pdop>7.0</pdop><geoidheight>53.00</geoidheight><course>337.4</course><type>1</type></trkpt>
      <trkpt lat="40.72472326" lon="-4.75636578"><ele>2287</ele><speed>8.23</speed><time>2016-06-30T14:14:39Z</time><pdop>7.0</pdop><geoidheight>53.00</geoidheight><course>358.0</course><type>1</type></trkpt>
      <trkpt lat="40.72486583" lon="-4.75628128"><ele>2292</ele><speed>8.64</speed><time>2016-06-30T14:14:41Z</time><pdop>9.0</pdop><geoidheight>53.00</geoidheight><course>26.5</course><type>1</type></trkpt>
      <trkpt lat="40.72443821" lon="-4.75601479"><ele>2321</ele><speed>11.42</speed><time>2016-06-30T14:14:47Z</time><pdop>13.0</pdop><geoidheight>53.00</geoidheight><course>167.2</course><type>1</type></trkpt>
      <trkpt lat="40.72416365" lon="-4.75603968"><ele>2342</ele><speed>13.14</speed><time>2016-06-30T14:14:49Z</time><pdop>11.0</pdop><geoidheight>53.00</geoidheight><course>186.1</course><type>1</type></trkpt>
      <trkpt lat="40.72400624" lon="-4.75621729"><ele>2358</ele><speed>8.02</speed><time>2016-06-30T14:14:52Z</time><pdop>10.0</pdop><geoidheight>53.00</geoidheight><course>224.0</course><type>1</type></trkpt>
      <trkpt lat="40.7239742" lon="-4.75658961"><ele>2371</ele><speed>8.77</speed><time>2016-06-30T14:14:56Z</time><pdop>12.0</pdop><geoidheight>53.00</geoidheight><course>264.7</course><type>1</type></trkpt>
      <trkpt lat="40.72419276" lon="-4.75646272"><ele>2377</ele><speed>9.81</speed><time>2016-06-30T14:14:57Z</time><pdop>8.0</pdop><geoidheight>53.00</geoidheight><course>9.5</course><type>1</type></trkpt>
      <trkpt lat="40.72437731" lon="-4.75640778"><ele>2382</ele><speed>10.91</speed><time>2016-06-30T14:14:59Z</time><pdop>9.0</pdop><geoidheight>53.00</geoidheight><course>11.9</course><type>1</type></trkpt>
      <trkpt lat="40.72441863" lon="-4.7561363"><ele>2409</ele><speed>6.17</speed><time>2016-06-30T14:15:03Z</time><pdop>11.0</pdop><geoidheight>53.00</geoidheight><course>72.0</course><type>1</type></trkpt>
      <trkpt lat="40.72428406" lon="-4.75592644"><ele>2419</ele><speed>11.73</speed><time>2016-06-30T14:15:04Z</time><pdop>7.0</pdop><geoidheight>53.00</geoidheight><course>112.1</course><type>1</type></trkpt>
      <trkpt lat="40.72417848" lon="-4.75574844"><ele>2429</ele><speed>11.18</speed><time>2016-06-30T14:15:06Z</time><pdop>7.0</pdop><geoidheight>53.00</geoidheight><course>128.8</course><type>1</type></trkpt>
      <trkpt lat="40.72402038" lon="-4.75558986"><ele>2435</ele><speed>10.93</speed><time>2016-06-30T14:15:08Z</time><pdop>6.0</pdop><geoidheight>53.00</geoidheight><course>145.7</course><type>1</type></trkpt>
      <trkpt lat="40.72392581" lon="-4.75550413"><ele>2439</ele><speed>11.87</speed><time>2016-06-30T14:15:09Z</time><pdop>6.0</pdop><geoidheight>53.00</geoidheight><course>150.8</course><type>1</type></trkpt>
      <trkpt lat="40.72379705" lon="-4.75549127"><ele>2442</ele><speed>12.16</speed><time>2016-06-30T14:15:10Z</time><pdop>5.0</pdop><geoidheight>53.00</geoidheight><course>167.8</course><type>1</type></trkpt>
      <trkpt lat="40.72369253" lon="-4.75547387"><ele>2448</ele><speed>11.27</speed><time>2016-06-30T14:15:11Z</time><pdop>5.0</pdop><geoidheight>53.00</geoidheight><course>176.5</course><type>1</type></trkpt>
      <trkpt lat="40.72358085" lon="-4.75548289"><ele>2450</ele><speed>11.55</speed><time>2016-06-30T14:15:12Z</time><pdop>5.0</pdop><geoidheight>53.00</geoidheight><course>186.9</course><type>1</type></trkpt>
      <trkpt lat="40.72347831" lon="-4.75550879"><ele>2452</ele><speed>11.34</speed><time>2016-06-30T14:15:13Z</time><pdop>5.0</pdop><geoidheight>53.00</geoidheight><course>193.6</course><type>1</type></trkpt>
      <trkpt lat="40.7233923" lon="-4.75558129"><ele>2454</ele><speed>11.40</speed><time>2016-06-30T14:15:14Z</time><pdop>5.0</pdop><geoidheight>53.00</geoidheight><course>205.9</course><type>1</type></trkpt>
      <trkpt lat="40.7233129" lon="-4.75563821"><ele>2457</ele><speed>11.00</speed><time>2016-06-30T14:15:15Z</time><pdop>4.0</pdop><geoidheight>53.00</geoidheight><course>212.3</course><type>1</type></trkpt>
      <trkpt lat="40.72323248" lon="-4.75573191"><ele>2460</ele><speed>11.46</speed><time>2016-06-30T14:15:16Z</time><pdop>5.0</pdop><geoidheight>53.00</geoidheight><course>220.2</course><type>1</type></trkpt>
      <trkpt lat="40.72314952" lon="-4.75590482"><ele>2466</ele><speed>8.93</speed><time>2016-06-30T14:15:18Z</time><pdop>6.0</pdop><geoidheight>53.00</geoidheight><course>235.7</course><type>1</type></trkpt>
      <trkpt lat="40.72319251" lon="-4.75605467"><ele>2470</ele><speed>7.09</speed><time>2016-06-30T14:15:20Z</time><pdop>4.0</pdop><geoidheight>53.00</geoidheight><course>284.3</course><type>1</type></trkpt>
      <trkpt lat="40.7232549" lon="-4.75617718"><ele>2477</ele><speed>7.08</speed><time>2016-06-30T14:15:22Z</time><pdop>4.0</pdop><geoidheight>53.00</geoidheight><course>302.3</course><type>1</type></trkpt>
      <trkpt lat="40.72330447" lon="-4.75631007"><ele>2480</ele><speed>6.48</speed><time>2016-06-30T14:15:24Z</time><pdop>3.0</pdop><geoidheight>53.00</geoidheight><course>298.6</course><type>1</type></trkpt>
      <trkpt lat="40.72334627" lon="-4.75636352"><ele>2481</ele><speed>6.20</speed><time>2016-06-30T14:15:25Z</time><pdop>3.0</pdop><geoidheight>53.00</geoidheight><course>313.2</course><type>1</type></trkpt>
      <trkpt lat="40.72340333" lon="-4.75640949"><ele>2482</ele><speed>7.70</speed><time>2016-06-30T14:15:26Z</time><pdop>3.0</pdop><geoidheight>53.00</geoidheight><course>334.9</course><type>1</type></trkpt>
      <trkpt lat="40.72348085" lon="-4.75642532"><ele>2483</ele><speed>8.79</speed><time>2016-06-30T14:15:27Z</time><pdop>3.0</pdop><geoidheight>53.00</geoidheight><course>347.7</course><type>1</type></trkpt>
      <trkpt lat="40.7235617" lon="-4.75644087"><ele>2484</ele><speed>8.97</speed><time>2016-06-30T14:15:28Z</time><pdop>4.0</pdop><geoidheight>53.00</geoidheight><course>351.3</course><type>1</type></trkpt>
      <trkpt lat="40.72365282" lon="-4.75645134"><ele>2485</ele><speed>9.46</speed><time>2016-06-30T14:15:29Z</time><pdop>6.0</pdop><geoidheight>53.00</geoidheight><course>355.5</course><type>1</type></trkpt>
      <trkpt lat="40.72383235" lon="-4.7564292"><ele>2487</ele><speed>9.49</speed><time>2016-06-30T14:15:31Z</time><pdop>8.0</pdop><geoidheight>53.00</geoidheight><course>3.8</course><type>1</type></trkpt>
      <trkpt lat="40.72398359" lon="-4.75634912"><ele>2490</ele><speed>9.03</speed><time>2016-06-30T14:15:33Z</time><pdop>8.0</pdop><geoidheight>53.00</geoidheight><course>10.4</course><type>1</type></trkpt>
      <trkpt lat="40.7241279" lon="-4.7563209"><ele>2494</ele><speed>8.43</speed><time>2016-06-30T14:15:35Z</time><pdop>7.0</pdop><geoidheight>53.00</geoidheight><course>16.4</course><type>1</type></trkpt>
      <trkpt lat="40.72430203" lon="-4.75627251"><ele>2500</ele><speed>7.75</speed><time>2016-06-30T14:15:38Z</time><pdop>7.0</pdop><geoidheight>53.00</geoidheight><course>15.1</course><type>1</type></trkpt>
      <trkpt lat="40.72444509" lon="-4.75620587"><ele>2502</ele><speed>8.18</speed><time>2016-06-30T14:15:40Z</time><pdop>7.0</pdop><geoidheight>53.00</geoidheight><course>16.6</course><type>1</type></trkpt>
      <trkpt lat="40.72463593" lon="-4.75617197"><ele>2505</ele><speed>10.01</speed><time>2016-06-30T14:15:42Z</time><pdop>7.0</pdop><geoidheight>53.00</geoidheight><course>13.9</course><type>1</type></trkpt>
      <trkpt lat="40.72481573" lon="-4.75612764"><ele>2510</ele><speed>9.84</speed><time>2016-06-30T14:15:44Z</time><pdop>5.0</pdop><geoidheight>53.00</geoidheight><course>15.2</course><type>1</type></trkpt>
      <trkpt lat="40.724906" lon="-4.75610629"><ele>2512</ele><speed>9.48</speed><time>2016-06-30T14:15:45Z</time><pdop>4.0</pdop><geoidheight>53.00</geoidheight><course>16.0</course><type>1</type></trkpt>
      <trkpt lat="40.72500957" lon="-4.75602509"><ele>2514</ele><speed>8.19</speed><time>2016-06-30T14:15:47Z</time><pdop>5.0</pdop><geoidheight>53.00</geoidheight><course>24.5</course><type>1</type></trkpt>
      <trkpt lat="40.72516378" lon="-4.75591152"><ele>2519</ele><speed>10.18</speed><time>2016-06-30T14:15:49Z</time><pdop>5.0</pdop><geoidheight>53.00</geoidheight><course>32.1</course><type>1</type></trkpt>
      <trkpt lat="40.72530458" lon="-4.755785"><ele>2524</ele><speed>9.67</speed><time>2016-06-30T14:15:51Z</time><pdop>5.0</pdop><geoidheight>53.00</geoidheight><course>36.4</course><type>1</type></trkpt>
      <trkpt lat="40.72544791" lon="-4.75567283"><ele>2527</ele><speed>8.98</speed><time>2016-06-30T14:15:53Z</time><pdop>6.0</pdop><geoidheight>53.00</geoidheight><course>31.8</course><type>1</type></trkpt>
      <trkpt lat="40.72554753" lon="-4.75554811"><ele>2528</ele><speed>8.37</speed><time>2016-06-30T14:15:55Z</time><pdop>6.0</pdop><geoidheight>53.00</geoidheight><course>33.9</course><type>1</type></trkpt>
      <trkpt lat="40.72576112" lon="-4.75548209"><ele>2530</ele><speed>8.86</speed><time>2016-06-30T14:15:58Z</time><pdop>5.0</pdop><geoidheight>53.00</geoidheight><course>1.6</course><type>1</type></trkpt>
      <trkpt lat="40.72587979" lon="-4.75551378"><ele>2531</ele><speed>6.73</speed><time>2016-06-30T14:16:00Z</time><pdop>5.0</pdop><geoidheight>53.00</geoidheight><course>344.7</course><type>1</type></trkpt>
      <trkpt lat="40.72597712" lon="-4.75558407"><ele>2532</ele><speed>5.97</speed><time>2016-06-30T14:16:02Z</time><pdop>6.0</pdop><geoidheight>53.00</geoidheight><course>336.0</course><type>1</type></trkpt>
      <trkpt lat="40.7260187" lon="-4.75581887"><ele>2532</ele><speed>9.06</speed><time>2016-06-30T14:16:04Z</time><pdop>5.0</pdop><geoidheight>53.00</geoidheight><course>288.6</course><type>1</type></trkpt>
      <trkpt lat="40.72607403" lon="-4.75602884"><ele>2532</ele><speed>9.77</speed><time>2016-06-30T14:16:06Z</time><pdop>5.0</pdop><geoidheight>53.00</geoidheight><course>280.0</course><type>1</type></trkpt>
      <trkpt lat="40.72608969" lon="-4.75615111"><ele>2533</ele><speed>9.50</speed><time>2016-06-30T14:16:07Z</time><pdop>4.0</pdop><geoidheight>53.00</geoidheight><course>286.1</course><type>1</type></trkpt>
      <trkpt lat="40.72613174" lon="-4.75624613"><ele>2534</ele><speed>9.24</speed><time>2016-06-30T14:16:08Z</time><pdop>4.0</pdop><geoidheight>53.00</geoidheight><course>305.3</course><type>1</type></trkpt>
      <trkpt lat="40.72619622" lon="-4.75632485"><ele>2535</ele><speed>9.79</speed><time>2016-06-30T14:16:09Z</time><pdop>4.0</pdop><geoidheight>53.00</geoidheight><course>319.3</course><type>1</type></trkpt>
      <trkpt lat="40.72626841" lon="-4.75638964"><ele>2535</ele><speed>9.44</speed><time>2016-06-30T14:16:10Z</time><pdop>4.0</pdop><geoidheight>53.00</geoidheight><course>323.9</course><type>1</type></trkpt>
      <trkpt lat="40.72634105" lon="-4.75645351"><ele>2536</ele><speed>9.69</speed><time>2016-06-30T14:16:11Z</time><pdop>5.0</pdop><geoidheight>53.00</geoidheight><course>326.1</course><type>1</type></trkpt>
      <trkpt lat="40.72659064" lon="-4.7563552"><ele>2533</ele><speed>11.20</speed><time>2016-06-30T14:16:13Z</time><pdop>7.0</pdop><geoidheight>53.00</geoidheight><course>5.1</course><type>1</type></trkpt>
      <trkpt lat="40.72671954" lon="-4.7562677"><ele>2533</ele><speed>13.02</speed><time>2016-06-30T14:16:14Z</time><pdop>5.0</pdop><geoidheight>53.00</geoidheight><course>17.8</course><type>1</type></trkpt>
      <trkpt lat="40.72682907" lon="-4.7561975"><ele>2533</ele><speed>12.81</speed><time>2016-06-30T14:16:15Z</time><pdop>5.0</pdop><geoidheight>53.00</geoidheight><course>19.1</course><type>1</type></trkpt>
      <trkpt lat="40.72693751" lon="-4.75613079"><ele>2533</ele><speed>12.64</speed><time>2016-06-30T14:16:16Z</time><pdop>5.0</pdop><geoidheight>53.00</geoidheight><course>24.2</course><type>1</type></trkpt>
      <trkpt lat="40.72703801" lon="-4.75605146"><ele>2535</ele><speed>12.72</speed><time>2016-06-30T14:16:17Z</time><pdop>5.0</pdop><geoidheight>53.00</geoidheight><course>31.9</course><type>1</type></trkpt>
      <trkpt lat="40.72713595" lon="-4.75595187"><ele>2537</ele><speed>13.56</speed><time>2016-06-30T14:16:18Z</time><pdop>5.0</pdop><geoidheight>53.00</geoidheight><course>37.6</course><type>1</type></trkpt>
      <trkpt lat="40.72724098" lon="-4.75572431"><ele>2539</ele><speed>12.86</speed><time>2016-06-30T14:16:20Z</time><pdop>4.0</pdop><geoidheight>53.00</geoidheight><course>50.4</course><type>1</type></trkpt>
      <trkpt lat="40.72731072" lon="-4.75558392"><ele>2543</ele><speed>13.67</speed><time>2016-06-30T14:16:21Z</time><pdop>4.0</pdop><geoidheight>53.00</geoidheight><course>53.6</course><type>1</type></trkpt>
      <trkpt lat="40.72738985" lon="-4.7554513"><ele>2547</ele><speed>13.63</speed><time>2016-06-30T14:16:22Z</time><pdop>4.0</pdop><geoidheight>53.00</geoidheight><course>53.8</course><type>1</type></trkpt>
      <trkpt lat="40.72746097" lon="-4.75532759"><ele>2550</ele><speed>13.05</speed><time>2016-06-30T14:16:23Z</time><pdop>4.0</pdop><geoidheight>53.00</geoidheight><course>54.1</course><type>1</type></trkpt>
      <trkpt lat="40.72753298" lon="-4.75520628"><ele>2551</ele><speed>13.08</speed><time>2016-06-30T14:16:24Z</time><pdop>4.0</pdop><geoidheight>53.00</geoidheight><course>55.0</course><type>1</type></trkpt>
      <trkpt lat="40.72761035" lon="-4.75507872"><ele>2552</ele><speed>12.98</speed><time>2016-06-30T14:16:25Z</time><pdop>4.0</pdop><geoidheight>53.00</geoidheight><course>54.3</course><type>1</type></trkpt>
      <trkpt lat="40.72768099" lon="-4.75496505"><ele>2554</ele><speed>12.79</speed><time>2016-06-30T14:16:26Z</time><pdop>3.0</pdop><geoidheight>53.00</geoidheight><course>51.3</course><type>1</type></trkpt>
      <trkpt lat="40.7277611" lon="-4.75486678"><ele>2555</ele><speed>11.86</speed><time>2016-06-30T14:16:27Z</time><pdop>4.0</pdop><geoidheight>53.00</geoidheight><course>45.9</course><type>1</type></trkpt>
      <trkpt lat="40.72782748" lon="-4.75478378"><ele>2555</ele><speed>11.18</speed><time>2016-06-30T14:16:28Z</time><pdop>4.0</pdop><geoidheight>53.00</geoidheight><course>42.4</course><type>1</type></trkpt>
      <trkpt lat="40.72791098" lon="-4.75472201"><ele>2555</ele><speed>11.14</speed><time>2016-06-30T14:16:29Z</time><pdop>6.0</pdop><geoidheight>53.00</geoidheight><course>35.9</course><type>1</type></trkpt>
      <trkpt lat="40.72810821" lon="-4.7546886"><ele>2555</ele><speed>10.37</speed><time>2016-06-30T14:16:31Z</time><pdop>9.0</pdop><geoidheight>53.00</geoidheight><course>20.1</course><type>1</type></trkpt>
      <trkpt lat="40.72825632" lon="-4.75484636"><ele>2557</ele><speed>8.88</speed><time>2016-06-30T14:16:33Z</time><pdop>12.0</pdop><geoidheight>53.00</geoidheight><course>350.0</course><type>1</type></trkpt>
      <trkpt lat="40.72809511" lon="-4.75516153"><ele>2545</ele><speed>5.86</speed><time>2016-06-30T14:16:35Z</time><pdop>14.0</pdop><geoidheight>53.00</geoidheight><course>264.6</course><type>1</type></trkpt>
      <trkpt lat="40.72782507" lon="-4.75529162"><ele>2552</ele><speed>6.53</speed><time>2016-06-30T14:16:37Z</time><pdop>10.0</pdop><geoidheight>53.00</geoidheight><course>189.9</course><type>1</type></trkpt>
      <trkpt lat="40.72758253" lon="-4.75526721"><ele>2561</ele><speed>8.36</speed><time>2016-06-30T14:16:40Z</time><pdop>11.0</pdop><geoidheight>53.00</geoidheight><course>170.0</course><type>1</type></trkpt>
      <trkpt lat="40.72757243" lon="-4.7548678"><ele>2565</ele><speed>8.14</speed><time>2016-06-30T14:16:43Z</time><pdop>13.0</pdop><geoidheight>53.00</geoidheight><course>98.2</course><type>1</type></trkpt>
      <trkpt lat="40.72754487" lon="-4.75448086"><ele>2571</ele><speed>11.99</speed><time>2016-06-30T14:16:45Z</time><pdop>10.0</pdop><geoidheight>53.00</geoidheight><course>92.1</course><type>1</type></trkpt>
      <trkpt lat="40.72753566" lon="-4.75419872"><ele>2579</ele><speed>10.35</speed><time>2016-06-30T14:16:47Z</time><pdop>9.0</pdop><geoidheight>53.00</geoidheight><course>93.5</course><type>1</type></trkpt>
      <trkpt lat="40.72764139" lon="-4.75391148"><ele>2586</ele><speed>9.34</speed><time>2016-06-30T14:16:49Z</time><pdop>7.0</pdop><geoidheight>53.00</geoidheight><course>65.1</course><type>1</type></trkpt>
      <trkpt lat="40.72771595" lon="-4.75369562"><ele>2589</ele><speed>9.10</speed><time>2016-06-30T14:16:51Z</time><pdop>10.0</pdop><geoidheight>53.00</geoidheight><course>63.5</course><type>1</type></trkpt>
      <trkpt lat="40.72793109" lon="-4.75359916"><ele>2592</ele><speed>9.53</speed><time>2016-06-30T14:16:53Z</time><pdop>9.0</pdop><geoidheight>53.00</geoidheight><course>19.5</course><type>1</type></trkpt>
      <trkpt lat="40.72812938" lon="-4.75371981"><ele>2596</ele><speed>10.50</speed><time>2016-06-30T14:16:55Z</time><pdop>7.0</pdop><geoidheight>53.00</geoidheight><course>331.5</course><type>1</type></trkpt>
      <trkpt lat="40.72830549" lon="-4.75382736"><ele>2601</ele><speed>10.67</speed><time>2016-06-30T14:16:57Z</time><pdop>7.0</pdop><geoidheight>53.00</geoidheight><course>329.4</course><type>1</type></trkpt>
      <trkpt lat="40.72825624" lon="-4.75408623"><ele>2603</ele><speed>9.79</speed><time>2016-06-30T14:16:59Z</time><pdop>9.0</pdop><geoidheight>53.00</geoidheight><course>287.6</course><type>1</type></trkpt>
      <trkpt lat="40.72811327" lon="-4.75423438"><ele>2605</ele><speed>10.43</speed><time>2016-06-30T14:17:00Z</time><pdop>8.0</pdop><geoidheight>53.00</geoidheight><course>253.0</course><type>1</type></trkpt>
      <trkpt lat="40.72794259" lon="-4.75429271"><ele>2605</ele><speed>7.61</speed><time>2016-06-30T14:17:02Z</time><pdop>9.0</pdop><geoidheight>53.00</geoidheight><course>220.3</course><type>1</type></trkpt>
      <trkpt lat="40.72777048" lon="-4.75411075"><ele>2608</ele><speed>5.60</speed><time>2016-06-30T14:17:04Z</time><pdop>10.0</pdop><geoidheight>53.00</geoidheight><course>159.1</course><type>1</type></trkpt>
      <trkpt lat="40.72775428" lon="-4.75383059"><ele>2611</ele><speed>7.81</speed><time>2016-06-30T14:17:06Z</time><pdop>11.0</pdop><geoidheight>53.00</geoidheight><course>89.2</course><type>1</type></trkpt>
      <trkpt lat="40.72785911" lon="-4.75348106"><ele>2614</ele><speed>11.43</speed><time>2016-06-30T14:17:08Z</time><pdop>8.0</pdop><geoidheight>53.00</geoidheight><course>54.0</course><type>1</type></trkpt>
      <trkpt lat="40.72798346" lon="-4.753206"><ele>2624</ele><speed>11.70</speed><time>2016-06-30T14:17:10Z</time><pdop>8.0</pdop><geoidheight>53.00</geoidheight><course>42.4</course><type>1</type></trkpt>
      <trkpt lat="40.72813551" lon="-4.75303613"><ele>2627</ele><speed>10.21</speed><time>2016-06-30T14:17:12Z</time><pdop>8.0</pdop><geoidheight>53.00</geoidheight><course>36.4</course><type>1</type></trkpt>
      <trkpt lat="40.72833104" lon="-4.75298546"><ele>2628</ele><speed>6.79</speed><time>2016-06-30T14:17:15Z</time><pdop>9.0</pdop><geoidheight>53.00</geoidheight><course>12.9</course><type>1</type></trkpt>
      <trkpt lat="40.72850009" lon="-4.7531141"><ele>2631</ele><speed>8.28</speed><time>2016-06-30T14:17:17Z</time><pdop>9.0</pdop><geoidheight>53.00</geoidheight><course>341.4</course><type>1</type></trkpt>
      <trkpt lat="40.72850768" lon="-4.75340481"><ele>2634</ele><speed>10.35</speed><time>2016-06-30T14:17:19Z</time><pdop>6.0</pdop><geoidheight>53.00</geoidheight><course>281.7</course><type>1</type></trkpt>
      <trkpt lat="40.72854751" lon="-4.75370284"><ele>2637</ele><speed>11.84</speed><time>2016-06-30T14:17:21Z</time><pdop>7.0</pdop><geoidheight>53.00</geoidheight><course>279.1</course><type>1</type></trkpt>
      <trkpt lat="40.7285082" lon="-4.75386394"><ele>2639</ele><speed>11.69</speed><time>2016-06-30T14:17:22Z</time><pdop>7.0</pdop><geoidheight>53.00</geoidheight><course>270.8</course><type>1</type></trkpt>
      <trkpt lat="40.72842177" lon="-4.75400178"><ele>2638</ele><speed>12.00</speed><time>2016-06-30T14:17:23Z</time><pdop>7.0</pdop><geoidheight>53.00</geoidheight><course>254.5</course><type>1</type></trkpt>
      <trkpt lat="40.72816443" lon="-4.7540457"><ele>2638</ele><speed>9.07</speed><time>2016-06-30T14:17:25Z</time><pdop>7.0</pdop><geoidheight>53.00</geoidheight><course>206.2</course><type>1</type></trkpt>
      <trkpt lat="40.72802393" lon="-4.75394107"><ele>2639</ele><speed>10.21</speed><time>2016-06-30T14:17:26Z</time><pdop>10.0</pdop><geoidheight>53.00</geoidheight><course>166.6</course><type>1</type></trkpt>
      <trkpt lat="40.72789265" lon="-4.75382633"><ele>2640</ele><speed>8.42</speed><time>2016-06-30T14:17:28Z</time><pdop>5.0</pdop><geoidheight>53.00</geoidheight><course>148.4</course><type>1</type></trkpt>
      <trkpt lat="40.72783594" lon="-4.75361631"><ele>2643</ele><speed>8.58</speed><time>2016-06-30T14:17:30Z</time><pdop>5.0</pdop><geoidheight>53.00</geoidheight><course>119.1</course><type>1</type></trkpt>
      <trkpt lat="40.72776075" lon="-4.75338443"><ele>2645</ele><speed>9.36</speed><time>2016-06-30T14:17:32Z</time><pdop>4.0</pdop><geoidheight>53.00</geoidheight><course>114.2</course><type>1</type></trkpt>
      <trkpt lat="40.72773453" lon="-4.75325217"><ele>2647</ele><speed>9.86</speed><time>2016-06-30T14:17:33Z</time><pdop>4.0</pdop><geoidheight>53.00</geoidheight><course>110.2</course><type>1</type></trkpt>
      <trkpt lat="40.72770989" lon="-4.75310801"><ele>2650</ele><speed>10.94</speed><time>2016-06-30T14:17:34Z</time><pdop>4.0</pdop><geoidheight>53.00</geoidheight><course>105.1</course><type>1</type></trkpt>
      <trkpt lat="40.72769047" lon="-4.75296628"><ele>2652</ele><speed>11.44</speed><time>2016-06-30T14:17:35Z</time><pdop>4.0</pdop><geoidheight>53.00</geoidheight><course>99.5</course><type>1</type></trkpt>
      <trkpt lat="40.72768899" lon="-4.75281006"><ele>2653</ele><speed>12.17</speed><time>2016-06-30T14:17:36Z</time><pdop>4.0</pdop><geoidheight>53.00</geoidheight><course>93.1</course><type>1</type></trkpt>
      <trkpt lat="40.72769121" lon="-4.7526583"><ele>2656</ele><speed>11.78</speed><time>2016-06-30T14:17:37Z</time><pdop>4.0</pdop><geoidheight>53.00</geoidheight><course>89.1</course><type>1</type></trkpt>
      <trkpt lat="40.72771469" lon="-4.75253184"><ele>2658</ele><speed>10.37</speed><time>2016-06-30T14:17:38Z</time><pdop>5.0</pdop><geoidheight>53.00</geoidheight><course>81.5</course><type>1</type></trkpt>
      <trkpt lat="40.72775168" lon="-4.75232024"><ele>2660</ele><speed>8.23</speed><time>2016-06-30T14:17:40Z</time><pdop>7.0</pdop><geoidheight>53.00</geoidheight><course>78.0</course><type>1</type></trkpt>
      <trkpt lat="40.72791723" lon="-4.75216779"><ele>2662</ele><speed>8.46</speed><time>2016-06-30T14:17:42Z</time><pdop>9.0</pdop><geoidheight>53.00</geoidheight><course>49.4</course><type>1</type></trkpt>
      <trkpt lat="40.72818278" lon="-4.75231616"><ele>2662</ele><speed>7.21</speed><time>2016-06-30T14:17:45Z</time><pdop>10.0</pdop><geoidheight>53.00</geoidheight><course>348.7</course><type>1</type></trkpt>
      <trkpt lat="40.72818193" lon="-4.75260326"><ele>2663</ele><speed>6.35</speed><time>2016-06-30T14:17:47Z</time><pdop>8.0</pdop><geoidheight>53.00</geoidheight><course>282.5</course><type>1</type></trkpt>
      <trkpt lat="40.72813474" lon="-4.7528511"><ele>2663</ele><speed>8.33</speed><time>2016-06-30T14:17:49Z</time><pdop>8.0</pdop><geoidheight>53.00</geoidheight><course>261.6</course><type>1</type></trkpt>
      <trkpt lat="40.72807559" lon="-4.7531549"><ele>2665</ele><speed>9.72</speed><time>2016-06-30T14:17:51Z</time><pdop>5.0</pdop><geoidheight>53.00</geoidheight><course>257.1</course><type>1</type></trkpt>
      <trkpt lat="40.72799711" lon="-4.75336897"><ele>2665</ele><speed>9.18</speed><time>2016-06-30T14:17:53Z</time><pdop>6.0</pdop><geoidheight>53.00</geoidheight><course>238.6</course><type>1</type></trkpt>
      <trkpt lat="40.72787844" lon="-4.75354691"><ele>2665</ele><speed>8.36</speed><time>2016-06-30T14:17:55Z</time><pdop>6.0</pdop><geoidheight>53.00</geoidheight><course>230.1</course><type>1</type></trkpt>
      <trkpt lat="40.72772425" lon="-4.75348284"><ele>2664</ele><speed>6.66</speed><time>2016-06-30T14:17:57Z</time><pdop>6.0</pdop><geoidheight>53.00</geoidheight><course>179.5</course><type>1</type></trkpt>
      <trkpt lat="40.72755695" lon="-4.75333451"><ele>2663</ele><speed>8.66</speed><time>2016-06-30T14:17:59Z</time><pdop>8.0</pdop><geoidheight>53.00</geoidheight><course>150.8</course><type>1</type></trkpt>
      <trkpt lat="40.72742985" lon="-4.75306609"><ele>2664</ele><speed>9.50</speed><time>2016-06-30T14:18:01Z</time><pdop>9.0</pdop><geoidheight>53.00</geoidheight><course>130.3</course><type>1</type></trkpt>
      <trkpt lat="40.72753755" lon="-4.75281227"><ele>2663</ele><speed>11.66</speed><time>2016-06-30T14:18:02Z</time><pdop>7.0</pdop><geoidheight>53.00</geoidheight><course>81.5</course><type>1</type></trkpt>
      <trkpt lat="40.72756577" lon="-4.75264523"><ele>2663</ele><speed>11.34</speed><time>2016-06-30T14:18:03Z</time><pdop>6.0</pdop><geoidheight>53.00</geoidheight><course>78.2</course><type>1</type></trkpt>
      <trkpt lat="40.72762836" lon="-4.75250754"><ele>2663</ele><speed>11.07</speed><time>2016-06-30T14:18:04Z</time><pdop>6.0</pdop><geoidheight>53.00</geoidheight><course>66.7</course><type>1</type></trkpt>
      <trkpt lat="40.72768092" lon="-4.752396"><ele>2662</ele><speed>10.63</speed><time>2016-06-30T14:18:05Z</time><pdop>5.0</pdop><geoidheight>53.00</geoidheight><course>65.4</course><type>1</type></trkpt>
      <trkpt lat="40.72771295" lon="-4.75228161"><ele>2661</ele><speed>10.03</speed><time>2016-06-30T14:18:06Z</time><pdop>5.0</pdop><geoidheight>53.00</geoidheight><course>69.5</course><type>1</type></trkpt>
      <trkpt lat="40.72774587" lon="-4.75205919"><ele>2662</ele><speed>8.93</speed><time>2016-06-30T14:18:08Z</time><pdop>4.0</pdop><geoidheight>53.00</geoidheight><course>75.1</course><type>1</type></trkpt>
      <trkpt lat="40.72777187" lon="-4.75196812"><ele>2661</ele><speed>9.19</speed><time>2016-06-30T14:18:09Z</time><pdop>4.0</pdop><geoidheight>53.00</geoidheight><course>75.6</course><type>1</type></trkpt>
      <trkpt lat="40.72779691" lon="-4.75186191"><ele>2660</ele><speed>9.75</speed><time>2016-06-30T14:18:10Z</time><pdop>4.0</pdop><geoidheight>53.00</geoidheight><course>77.1</course><type>1</type></trkpt>
      <trkpt lat="40.72781244" lon="-4.75173662"><ele>2659</ele><speed>10.51</speed><time>2016-06-30T14:18:11Z</time><pdop>4.0</pdop><geoidheight>53.00</geoidheight><course>78.2</course><type>1</type></trkpt>
      <trkpt lat="40.72784307" lon="-4.75160253"><ele>2658</ele><speed>11.37</speed><time>2016-06-30T14:18:12Z</time><pdop>5.0</pdop><geoidheight>53.00</geoidheight><course>76.7</course><type>1</type></trkpt>
      <trkpt lat="40.72786418" lon="-4.75145547"><ele>2678</ele><speed>12.39</speed><time>2016-06-30T14:18:13Z</time><pdop>5.0</pdop><geoidheight>53.00</geoidheight><course>76.8</course><type>1</type></trkpt>
      <trkpt lat="40.72789998" lon="-4.75132811"><ele>2671</ele><speed>11.77</speed><time>2016-06-30T14:18:14Z</time><pdop>6.0</pdop><geoidheight>53.00</geoidheight><course>74.0</course><type>1</type></trkpt>
      <trkpt lat="40.72794601" lon="-4.75118752"><ele>2667</ele><speed>12.58</speed><time>2016-06-30T14:18:15Z</time><pdop>6.0</pdop><geoidheight>53.00</geoidheight><course>72.1</course><type>1</type></trkpt>
      <trkpt lat="40.72797946" lon="-4.75105081"><ele>2665</ele><speed>12.31</speed><time>2016-06-30T14:18:16Z</time><pdop>5.0</pdop><geoidheight>53.00</geoidheight><course>69.3</course><type>1</type></trkpt>
      <trkpt lat="40.72803119" lon="-4.75090949"><ele>2664</ele><speed>11.96</speed><time>2016-06-30T14:18:17Z</time><pdop>5.0</pdop><geoidheight>53.00</geoidheight><course>68.1</course><type>1</type></trkpt>
      <trkpt lat="40.72805732" lon="-4.75078165"><ele>2662</ele><speed>11.30</speed><time>2016-06-30T14:18:18Z</time><pdop>4.0</pdop><geoidheight>53.00</geoidheight><course>67.0</course><type>1</type></trkpt>
      <trkpt lat="40.72810731" lon="-4.75066226"><ele>2660</ele><speed>11.03</speed><time>2016-06-30T14:18:19Z</time><pdop>4.0</pdop><geoidheight>53.00</geoidheight><course>63.4</course><type>1</type></trkpt>
      <trkpt lat="40.72814966" lon="-4.75054638"><ele>2659</ele><speed>11.21</speed><time>2016-06-30T14:18:20Z</time><pdop>4.0</pdop><geoidheight>53.00</geoidheight><course>59.2</course><type>1</type></trkpt>
      <trkpt lat="40.72821316" lon="-4.75042871"><ele>2681</ele><speed>11.85</speed><time>2016-06-30T14:18:21Z</time><pdop>4.0</pdop><geoidheight>53.00</geoidheight><course>56.0</course><type>1</type></trkpt>
      <trkpt lat="40.72826692" lon="-4.75029145"><ele>2671</ele><speed>12.97</speed><time>2016-06-30T14:18:22Z</time><pdop>4.0</pdop><geoidheight>53.00</geoidheight><course>56.8</course><type>1</type></trkpt>
      <trkpt lat="40.72834591" lon="-4.75015628"><ele>2666</ele><speed>13.61</speed><time>2016-06-30T14:18:23Z</time><pdop>4.0</pdop><geoidheight>53.00</geoidheight><course>58.2</course><type>1</type></trkpt>
      <trkpt lat="40.72839739" lon="-4.74999762"><ele>2660</ele><speed>14.30</speed><time>2016-06-30T14:18:24Z</time><pdop>3.0</pdop><geoidheight>53.00</geoidheight><course>64.6</course><type>1</type></trkpt>
      <trkpt lat="40.72845311" lon="-4.74983097"><ele>2657</ele><speed>14.43</speed><time>2016-06-30T14:18:25Z</time><pdop>3.0</pdop><geoidheight>53.00</geoidheight><course>66.6</course><type>1</type></trkpt>
      <trkpt lat="40.72850462" lon="-4.74968472"><ele>2655</ele><speed>13.68</speed><time>2016-06-30T14:18:26Z</time><pdop>3.0</pdop><geoidheight>53.00</geoidheight><course>67.4</course><type>1</type></trkpt>
      <trkpt lat="40.7285575" lon="-4.74955"><ele>2653</ele><speed>12.88</speed><time>2016-06-30T14:18:27Z</time><pdop>3.0</pdop><geoidheight>53.00</geoidheight><course>65.8</course><type>1</type></trkpt>
      <trkpt lat="40.72860463" lon="-4.74942337"><ele>2652</ele><speed>12.50</speed><time>2016-06-30T14:18:28Z</time><pdop>3.0</pdop><geoidheight>53.00</geoidheight><course>65.9</course><type>1</type></trkpt>
      <trkpt lat="40.7286511" lon="-4.74928607"><ele>2651</ele><speed>13.02</speed><time>2016-06-30T14:18:29Z</time><pdop>3.0</pdop><geoidheight>53.00</geoidheight><course>67.8</course><type>1</type></trkpt>
      <trkpt lat="40.72868952" lon="-4.74913525"><ele>2649</ele><speed>13.55</speed><time>2016-06-30T14:18:30Z</time><pdop>3.0</pdop><geoidheight>53.00</geoidheight><course>68.5</course><type>1</type></trkpt>
      <trkpt lat="40.72873339" lon="-4.74898377"><ele>2648</ele><speed>13.52</speed><time>2016-06-30T14:18:31Z</time><pdop>3.0</pdop><geoidheight>53.00</geoidheight><course>68.6</course><type>1</type></trkpt>
      <trkpt lat="40.72878171" lon="-4.74884688"><ele>2646</ele><speed>13.04</speed><time>2016-06-30T14:18:32Z</time><pdop>3.0</pdop><geoidheight>53.00</geoidheight><course>69.0</course><type>1</type></trkpt>
      <trkpt lat="40.72881542" lon="-4.74871012"><ele>2645</ele><speed>12.83</speed><time>2016-06-30T14:18:33Z</time><pdop>3.0</pdop><geoidheight>53.00</geoidheight><course>71.3</course><type>1</type></trkpt>
      <trkpt lat="40.7288551" lon="-4.74857416"><ele>2645</ele><speed>12.73</speed><time>2016-06-30T14:18:34Z</time><pdop>3.0</pdop><geoidheight>53.00</geoidheight><course>70.9</course><type>1</type></trkpt>
      <trkpt lat="40.72888868" lon="-4.7484397"><ele>2645</ele><speed>12.37</speed><time>2016-06-30T14:18:35Z</time><pdop>3.0</pdop><geoidheight>53.00</geoidheight><course>70.4</course><type>1</type></trkpt>
      <trkpt lat="40.7289219" lon="-4.74831167"><ele>2645</ele><speed>12.33</speed><time>2016-06-30T14:18:36Z</time><pdop>3.0</pdop><geoidheight>53.00</geoidheight><course>71.5</course><type>1</type></trkpt>
      <trkpt lat="40.72894974" lon="-4.74817114"><ele>2646</ele><speed>12.46</speed><time>2016-06-30T14:18:37Z</time><pdop>3.0</pdop><geoidheight>53.00</geoidheight><course>71.3</course><type>1</type></trkpt>
      <trkpt lat="40.72897365" lon="-4.74802892"><ele>2646</ele><speed>12.70</speed><time>2016-06-30T14:18:38Z</time><pdop>3.0</pdop><geoidheight>53.00</geoidheight><course>71.0</course><type>1</type></trkpt>
      <trkpt lat="40.72901329" lon="-4.74788112"><ele>2646</ele><speed>12.79</speed><time>2016-06-30T14:18:39Z</time><pdop>3.0</pdop><geoidheight>53.00</geoidheight><course>71.7</course><type>1</type></trkpt>
      <trkpt lat="40.72904323" lon="-4.74774312"><ele>2646</ele><speed>12.43</speed><time>2016-06-30T14:18:40Z</time><pdop>3.0</pdop><geoidheight>53.00</geoidheight><course>73.1</course><type>1</type></trkpt>
      <trkpt lat="40.72906681" lon="-4.7476042"><ele>2646</ele><speed>11.99</speed><time>2016-06-30T14:18:41Z</time><pdop>3.0</pdop><geoidheight>53.00</geoidheight><course>74.8</course><type>1</type></trkpt>
      <trkpt lat="40.72909408" lon="-4.74747004"><ele>2645</ele><speed>12.21</speed><time>2016-06-30T14:18:42Z</time><pdop>3.0</pdop><geoidheight>53.00</geoidheight><course>74.2</course><type>1</type></trkpt>
      <trkpt lat="40.72913121" lon="-4.74731917"><ele>2644</ele><speed>12.96</speed><time>2016-06-30T14:18:43Z</time><pdop>4.0</pdop><geoidheight>53.00</geoidheight><course>73.0</course><type>1</type></trkpt>
      <trkpt lat="40.72916901" lon="-4.74716981"><ele>2642</ele><speed>13.03</speed><time>2016-06-30T14:18:44Z</time><pdop>4.0</pdop><geoidheight>53.00</geoidheight><course>71.8</course><type>1</type></trkpt>
      <trkpt lat="40.72921227" lon="-4.74701983"><ele>2640</ele><speed>13.68</speed><time>2016-06-30T14:18:45Z</time><pdop>4.0</pdop><geoidheight>53.00</geoidheight><course>68.8</course><type>1</type></trkpt>
      <trkpt lat="40.72925439" lon="-4.74686661"><ele>2639</ele><speed>14.02</speed><time>2016-06-30T14:18:46Z</time><pdop>5.0</pdop><geoidheight>53.00</geoidheight><course>67.3</course><type>1</type></trkpt>
      <trkpt lat="40.72931212" lon="-4.74670396"><ele>2638</ele><speed>14.86</speed><time>2016-06-30T14:18:47Z</time><pdop>5.0</pdop><geoidheight>53.00</geoidheight><course>66.4</course><type>1</type></trkpt>
      <trkpt lat="40.72937848" lon="-4.74654044"><ele>2638</ele><speed>15.05</speed><time>2016-06-30T14:18:48Z</time><pdop>5.0</pdop><geoidheight>53.00</geoidheight><course>64.9</course><type>1</type></trkpt>
      <trkpt lat="40.72943325" lon="-4.74638296"><ele>2637</ele><speed>14.52</speed><time>2016-06-30T14:18:49Z</time><pdop>5.0</pdop><geoidheight>53.00</geoidheight><course>65.6</course><type>1</type></trkpt>
      <trkpt lat="40.72949843" lon="-4.74623743"><ele>2637</ele><speed>13.96</speed><time>2016-06-30T14:18:50Z</time><pdop>5.0</pdop><geoidheight>53.00</geoidheight><course>64.7</course><type>1</type></trkpt>
      <trkpt lat="40.72953975" lon="-4.74610258"><ele>2637</ele><speed>13.45</speed><time>2016-06-30T14:18:51Z</time><pdop>5.0</pdop><geoidheight>53.00</geoidheight><course>65.7</course><type>1</type></trkpt>
      <trkpt lat="40.72959194" lon="-4.7459484"><ele>2637</ele><speed>13.92</speed><time>2016-06-30T14:18:52Z</time><pdop>5.0</pdop><geoidheight>53.00</geoidheight><course>65.8</course><type>1</type></trkpt>
      <trkpt lat="40.72962941" lon="-4.7457882"><ele>2636</ele><speed>14.11</speed><time>2016-06-30T14:18:53Z</time><pdop>4.0</pdop><geoidheight>53.00</geoidheight><course>69.5</course><type>1</type></trkpt>
      <trkpt lat="40.72965953" lon="-4.7456275"><ele>2635</ele><speed>14.13</speed><time>2016-06-30T14:18:54Z</time><pdop>4.0</pdop><geoidheight>53.00</geoidheight><course>73.6</course><type>1</type></trkpt>
      <trkpt lat="40.72969394" lon="-4.74545838"><ele>2636</ele><speed>14.48</speed><time>2016-06-30T14:18:55Z</time><pdop>3.0</pdop><geoidheight>53.00</geoidheight><course>76.0</course><type>1</type></trkpt>
      <trkpt lat="40.72970757" lon="-4.74529642"><ele>2636</ele><speed>14.45</speed><time>2016-06-30T14:18:56Z</time><pdop>3.0</pdop><geoidheight>53.00</geoidheight><course>79.0</course><type>1</type></trkpt>
      <trkpt lat="40.72972733" lon="-4.74513171"><ele>2636</ele><speed>14.03</speed><time>2016-06-30T14:18:57Z</time><pdop>3.0</pdop><geoidheight>53.00</geoidheight><course>80.2</course><type>1</type></trkpt>
      <trkpt lat="40.72974168" lon="-4.7449664"><ele>2636</ele><speed>13.96</speed><time>2016-06-30T14:18:58Z</time><pdop>4.0</pdop><geoidheight>53.00</geoidheight><course>80.3</course><type>1</type></trkpt>
      <trkpt lat="40.72975824" lon="-4.74480458"><ele>2636</ele><speed>14.15</speed><time>2016-06-30T14:18:59Z</time><pdop>3.0</pdop><geoidheight>53.00</geoidheight><course>81.7</course><type>1</type></trkpt>
      <trkpt lat="40.72976616" lon="-4.74463917"><ele>2637</ele><speed>14.14</speed><time>2016-06-30T14:19:00Z</time><pdop>9.0</pdop><geoidheight>53.00</geoidheight><course>87.6</course><type>1</type></trkpt>
      <trkpt lat="40.72975615" lon="-4.74433134"><ele>2638</ele><speed>12.22</speed><time>2016-06-30T14:19:02Z</time><pdop>9.0</pdop><geoidheight>53.00</geoidheight><course>94.1</course><type>1</type></trkpt>
      <trkpt lat="40.72969825" lon="-4.7440586"><ele>2636</ele><speed>12.23</speed><time>2016-06-30T14:19:04Z</time><pdop>9.0</pdop><geoidheight>53.00</geoidheight><course>96.6</course><type>1</type></trkpt>
      <trkpt lat="40.72971233" lon="-4.74375089"><ele>2633</ele><speed>14.22</speed><time>2016-06-30T14:19:06Z</time><pdop>10.0</pdop><geoidheight>53.00</geoidheight><course>86.3</course><type>1</type></trkpt>
      <trkpt lat="40.72978433" lon="-4.74340212"><ele>2630</ele><speed>15.16</speed><time>2016-06-30T14:19:08Z</time><pdop>9.0</pdop><geoidheight>53.00</geoidheight><course>77.0</course><type>1</type></trkpt>
      <trkpt lat="40.72982706" lon="-4.743081"><ele>2632</ele><speed>13.19</speed><time>2016-06-30T14:19:10Z</time><pdop>9.0</pdop><geoidheight>53.00</geoidheight><course>84.7</course><type>1</type></trkpt>
      <trkpt lat="40.72984737" lon="-4.74277176"><ele>2630</ele><speed>12.92</speed><time>2016-06-30T14:19:12Z</time><pdop>9.0</pdop><geoidheight>53.00</geoidheight><course>83.2</course><type>1</type></trkpt>
      <trkpt lat="40.72987769" lon="-4.74244967"><ele>2627</ele><speed>13.70</speed><time>2016-06-30T14:19:14Z</time><pdop>9.0</pdop><geoidheight>53.00</geoidheight><course>82.4</course><type>1</type></trkpt>
      <trkpt lat="40.7299315" lon="-4.74213077"><ele>2623</ele><speed>14.21</speed><time>2016-06-30T14:19:16Z</time><pdop>9.0</pdop><geoidheight>53.00</geoidheight><course>81.3</course><type>1</type></trkpt>
      <trkpt lat="40.72996711" lon="-4.7417979"><ele>2621</ele><speed>14.21</speed><time>2016-06-30T14:19:18Z</time><pdop>9.0</pdop><geoidheight>53.00</geoidheight><course>80.5</course><type>1</type></trkpt>
      <trkpt lat="40.730026" lon="-4.74148521"><ele>2619</ele><speed>13.69</speed><time>2016-06-30T14:19:20Z</time><pdop>9.0</pdop><geoidheight>53.00</geoidheight><course>76.0</course><type>1</type></trkpt>
      <trkpt lat="40.7301001" lon="-4.74117039"><ele>2618</ele><speed>13.43</speed><time>2016-06-30T14:19:22Z</time><pdop>9.0</pdop><geoidheight>53.00</geoidheight><course>69.7</course><type>1</type></trkpt>
      <trkpt lat="40.7301976" lon="-4.74088598"><ele>2619</ele><speed>13.32</speed><time>2016-06-30T14:19:24Z</time><pdop>10.0</pdop><geoidheight>53.00</geoidheight><course>66.6</course><type>1</type></trkpt>
      <trkpt lat="40.73034178" lon="-4.74063164"><ele>2616</ele><speed>13.36</speed><time>2016-06-30T14:19:26Z</time><pdop>9.0</pdop><geoidheight>53.00</geoidheight><course>57.7</course><type>1</type></trkpt>
      <trkpt lat="40.73048645" lon="-4.74036834"><ele>2616</ele><speed>13.30</speed><time>2016-06-30T14:19:28Z</time><pdop>10.0</pdop><geoidheight>53.00</geoidheight><course>54.7</course><type>1</type></trkpt>
      <trkpt lat="40.73061275" lon="-4.74015215"><ele>2615</ele><speed>11.43</speed><time>2016-06-30T14:19:30Z</time><pdop>10.0</pdop><geoidheight>53.00</geoidheight><course>52.6</course><type>1</type></trkpt>
      <trkpt lat="40.73075014" lon="-4.73995184"><ele>2612</ele><speed>11.63</speed><time>2016-06-30T14:19:32Z</time><pdop>12.0</pdop><geoidheight>53.00</geoidheight><course>51.0</course><type>1</type></trkpt>
      <trkpt lat="40.73085907" lon="-4.73971808"><ele>2611</ele><speed>11.76</speed><time>2016-06-30T14:19:34Z</time><pdop>11.0</pdop><geoidheight>53.00</geoidheight><course>53.0</course><type>1</type></trkpt>
      <trkpt lat="40.73099137" lon="-4.73949828"><ele>2611</ele><speed>11.98</speed><time>2016-06-30T14:19:36Z</time><pdop>12.0</pdop><geoidheight>53.00</geoidheight><course>51.8</course><type>1</type></trkpt>
      <trkpt lat="40.73125569" lon="-4.73928229"><ele>2608</ele><speed>14.71</speed><time>2016-06-30T14:19:38Z</time><pdop>12.0</pdop><geoidheight>53.00</geoidheight><course>41.5</course><type>1</type></trkpt>
      <trkpt lat="40.73148981" lon="-4.73901624"><ele>2603</ele><speed>15.42</speed><time>2016-06-30T14:19:40Z</time><pdop>12.0</pdop><geoidheight>53.00</geoidheight><course>42.1</course><type>1</type></trkpt>
      <trkpt lat="40.73164615" lon="-4.73880952"><ele>2600</ele><speed>13.07</speed><time>2016-06-30T14:19:42Z</time><pdop>11.0</pdop><geoidheight>53.00</geoidheight><course>44.4</course><type>1</type></trkpt>
      <trkpt lat="40.7318475" lon="-4.73859832"><ele>2596</ele><speed>13.03</speed><time>2016-06-30T14:19:44Z</time><pdop>8.0</pdop><geoidheight>53.00</geoidheight><course>45.6</course><type>1</type></trkpt>
      <trkpt lat="40.73203763" lon="-4.73840378"><ele>2591</ele><speed>13.34</speed><time>2016-06-30T14:19:46Z</time><pdop>7.0</pdop><geoidheight>53.00</geoidheight><course>41.0</course><type>1</type></trkpt>
      <trkpt lat="40.73220527" lon="-4.73820327"><ele>2588</ele><speed>13.08</speed><time>2016-06-30T14:19:48Z</time><pdop>7.0</pdop><geoidheight>53.00</geoidheight><course>40.0</course><type>1</type></trkpt>
      <trkpt lat="40.73239184" lon="-4.7379921"><ele>2586</ele><speed>13.44</speed><time>2016-06-30T14:19:50Z</time><pdop>10.0</pdop><geoidheight>53.00</geoidheight><course>42.9</course><type>1</type></trkpt>
      <trkpt lat="40.73258383" lon="-4.73772339"><ele>2583</ele><speed>15.14</speed><time>2016-06-30T14:19:52Z</time><pdop>7.0</pdop><geoidheight>53.00</geoidheight><course>44.4</course><type>1</type></trkpt>
      <trkpt lat="40.73277325" lon="-4.73752148"><ele>2583</ele><speed>12.86</speed><time>2016-06-30T14:19:54Z</time><pdop>7.0</pdop><geoidheight>53.00</geoidheight><course>35.7</course><type>1</type></trkpt>
      <trkpt lat="40.73293803" lon="-4.73736876"><ele>2583</ele><speed>11.30</speed><time>2016-06-30T14:19:56Z</time><pdop>7.0</pdop><geoidheight>53.00</geoidheight><course>37.0</course><type>1</type></trkpt>
      <trkpt lat="40.73303277" lon="-4.73717858"><ele>2580</ele><speed>10.98</speed><time>2016-06-30T14:19:58Z</time><pdop>6.0</pdop><geoidheight>53.00</geoidheight><course>45.2</course><type>1</type></trkpt>
      <trkpt lat="40.73316139" lon="-4.73698263"><ele>2578</ele><speed>11.48</speed><time>2016-06-30T14:20:00Z</time><pdop>8.0</pdop><geoidheight>53.00</geoidheight><course>48.3</course><type>1</type></trkpt>
      <trkpt lat="40.73329565" lon="-4.73674661"><ele>2577</ele><speed>12.75</speed><time>2016-06-30T14:20:02Z</time><pdop>12.0</pdop><geoidheight>53.00</geoidheight><course>52.0</course><type>1</type></trkpt>
      <trkpt lat="40.73348418" lon="-4.73664513"><ele>2576</ele><speed>15.09</speed><time>2016-06-30T14:20:03Z</time><pdop>10.0</pdop><geoidheight>53.00</geoidheight><course>42.8</course><type>1</type></trkpt>
      <trkpt lat="40.73369018" lon="-4.7364156"><ele>2572</ele><speed>14.75</speed><time>2016-06-30T14:20:05Z</time><pdop>8.0</pdop><geoidheight>53.00</geoidheight><course>42.8</course><type>1</type></trkpt>
      <trkpt lat="40.73390297" lon="-4.73621131"><ele>2570</ele><speed>13.41</speed><time>2016-06-30T14:20:07Z</time><pdop>7.0</pdop><geoidheight>53.00</geoidheight><course>40.1</course><type>1</type></trkpt>
      <trkpt lat="40.73411008" lon="-4.73602713"><ele>2565</ele><speed>13.56</speed><time>2016-06-30T14:20:09Z</time><pdop>8.0</pdop><geoidheight>53.00</geoidheight><course>39.0</course><type>1</type></trkpt>
      <trkpt lat="40.73426466" lon="-4.73578015"><ele>2563</ele><speed>14.07</speed><time>2016-06-30T14:20:11Z</time><pdop>8.0</pdop><geoidheight>53.00</geoidheight><course>49.3</course><type>1</type></trkpt>
      <trkpt lat="40.73437003" lon="-4.73563577"><ele>2561</ele><speed>15.08</speed><time>2016-06-30T14:20:12Z</time><pdop>8.0</pdop><geoidheight>53.00</geoidheight><course>51.8</course><type>1</type></trkpt>
      <trkpt lat="40.73458897" lon="-4.73535393"><ele>2560</ele><speed>16.06</speed><time>2016-06-30T14:20:14Z</time><pdop>7.0</pdop><geoidheight>53.00</geoidheight><course>45.3</course><type>1</type></trkpt>
      <trkpt lat="40.7346988" lon="-4.73522482"><ele>2558</ele><speed>16.13</speed><time>2016-06-30T14:20:15Z</time><pdop>7.0</pdop><geoidheight>53.00</geoidheight><course>43.7</course><type>1</type></trkpt>
      <trkpt lat="40.73479206" lon="-4.73509337"><ele>2556</ele><speed>15.66</speed><time>2016-06-30T14:20:16Z</time><pdop>6.0</pdop><geoidheight>53.00</geoidheight><course>46.6</course><type>1</type></trkpt>
      <trkpt lat="40.73487674" lon="-4.73495596"><ele>2554</ele><speed>15.39</speed><time>2016-06-30T14:20:17Z</time><pdop>7.0</pdop><geoidheight>53.00</geoidheight><course>48.8</course><type>1</type></trkpt>
      <trkpt lat="40.7350835" lon="-4.73470327"><ele>2551</ele><speed>15.77</speed><time>2016-06-30T14:20:19Z</time><pdop>6.0</pdop><geoidheight>53.00</geoidheight><course>44.3</course><type>1</type></trkpt>
      <trkpt lat="40.73518422" lon="-4.73457794"><ele>2548</ele><speed>15.00</speed><time>2016-06-30T14:20:20Z</time><pdop>5.0</pdop><geoidheight>53.00</geoidheight><course>46.2</course><type>1</type></trkpt>
      <trkpt lat="40.73528194" lon="-4.73445112"><ele>2635</ele><speed>15.20</speed><time>2016-06-30T14:20:21Z</time><pdop>6.0</pdop><geoidheight>53.00</geoidheight><course>46.5</course><type>1</type></trkpt>
      <trkpt lat="40.73538026" lon="-4.73433117"><ele>2619</ele><speed>15.07</speed><time>2016-06-30T14:20:22Z</time><pdop>8.0</pdop><geoidheight>53.00</geoidheight><course>45.7</course><type>1</type></trkpt>
      <trkpt lat="40.73559536" lon="-4.73408159"><ele>2585</ele><speed>16.25</speed><time>2016-06-30T14:20:24Z</time><pdop>6.0</pdop><geoidheight>53.00</geoidheight><course>40.0</course><type>1</type></trkpt>
      <trkpt lat="40.73567569" lon="-4.73397061"><ele>2574</ele><speed>15.36</speed><time>2016-06-30T14:20:25Z</time><pdop>6.0</pdop><geoidheight>53.00</geoidheight><course>42.0</course><type>1</type></trkpt>
      <trkpt lat="40.73575468" lon="-4.73385518"><ele>2564</ele><speed>14.12</speed><time>2016-06-30T14:20:26Z</time><pdop>5.0</pdop><geoidheight>53.00</geoidheight><course>44.9</course><type>1</type></trkpt>
      <trkpt lat="40.73581544" lon="-4.73374233"><ele>2554</ele><speed>13.02</speed><time>2016-06-30T14:20:27Z</time><pdop>5.0</pdop><geoidheight>53.00</geoidheight><course>49.4</course><type>1</type></trkpt>
      <trkpt lat="40.73588697" lon="-4.73361346"><ele>2548</ele><speed>13.52</speed><time>2016-06-30T14:20:28Z</time><pdop>4.0</pdop><geoidheight>53.00</geoidheight><course>50.3</course><type>1</type></trkpt>
      <trkpt lat="40.73597755" lon="-4.73348377"><ele>2542</ele><speed>13.65</speed><time>2016-06-30T14:20:29Z</time><pdop>4.0</pdop><geoidheight>53.00</geoidheight><course>51.2</course><type>1</type></trkpt>
      <trkpt lat="40.73604815" lon="-4.73334927"><ele>2537</ele><speed>14.70</speed><time>2016-06-30T14:20:30Z</time><pdop>4.0</pdop><geoidheight>53.00</geoidheight><course>50.8</course><type>1</type></trkpt>
      <trkpt lat="40.73614636" lon="-4.73321521"><ele>2531</ele><speed>15.09</speed><time>2016-06-30T14:20:31Z</time><pdop>4.0</pdop><geoidheight>53.00</geoidheight><course>50.9</course><type>1</type></trkpt>
      <trkpt lat="40.73622917" lon="-4.73308467"><ele>2527</ele><speed>14.72</speed><time>2016-06-30T14:20:32Z</time><pdop>4.0</pdop><geoidheight>53.00</geoidheight><course>51.4</course><type>1</type></trkpt>
      <trkpt lat="40.73631251" lon="-4.73296003"><ele>2523</ele><speed>14.28</speed><time>2016-06-30T14:20:33Z</time><pdop>4.0</pdop><geoidheight>53.00</geoidheight><course>49.7</course><type>1</type></trkpt>
      <trkpt lat="40.73639071" lon="-4.73283731"><ele>2521</ele><speed>13.66</speed><time>2016-06-30T14:20:34Z</time><pdop>4.0</pdop><geoidheight>53.00</geoidheight><course>49.8</course><type>1</type></trkpt>
      <trkpt lat="40.73646721" lon="-4.73272821"><ele>2517</ele><speed>13.18</speed><time>2016-06-30T14:20:35Z</time><pdop>4.0</pdop><geoidheight>53.00</geoidheight><course>51.7</course><type>1</type></trkpt>
      <trkpt lat="40.73654457" lon="-4.73261244"><ele>2514</ele><speed>13.23</speed><time>2016-06-30T14:20:36Z</time><pdop>4.0</pdop><geoidheight>53.00</geoidheight><course>50.8</course><type>1</type></trkpt>
      <trkpt lat="40.73661323" lon="-4.73250498"><ele>2512</ele><speed>12.25</speed><time>2016-06-30T14:20:37Z</time><pdop>4.0</pdop><geoidheight>53.00</geoidheight><course>48.3</course><type>1</type></trkpt>
      <trkpt lat="40.73669775" lon="-4.73239258"><ele>2511</ele><speed>12.96</speed><time>2016-06-30T14:20:38Z</time><pdop>5.0</pdop><geoidheight>53.00</geoidheight><course>46.6</course><type>1</type></trkpt>
      <trkpt lat="40.73676351" lon="-4.73228772"><ele>2508</ele><speed>12.55</speed><time>2016-06-30T14:20:39Z</time><pdop>5.0</pdop><geoidheight>53.00</geoidheight><course>46.9</course><type>1</type></trkpt>
      <trkpt lat="40.73683957" lon="-4.73216992"><ele>2507</ele><speed>12.87</speed><time>2016-06-30T14:20:40Z</time><pdop>8.0</pdop><geoidheight>53.00</geoidheight><course>48.5</course><type>1</type></trkpt>
      <trkpt lat="40.73705035" lon="-4.7319184"><ele>2505</ele><speed>14.39</speed><time>2016-06-30T14:20:42Z</time><pdop>12.0</pdop><geoidheight>53.00</geoidheight><course>46.5</course><type>1</type></trkpt>
      <trkpt lat="40.73726729" lon="-4.73169263"><ele>2502</ele><speed>15.64</speed><time>2016-06-30T14:20:44Z</time><pdop>7.0</pdop><geoidheight>53.00</geoidheight><course>43.2</course><type>1</type></trkpt>
      <trkpt lat="40.73735609" lon="-4.73155216"><ele>2500</ele><speed>15.48</speed><time>2016-06-30T14:20:45Z</time><pdop>7.0</pdop><geoidheight>53.00</geoidheight><course>46.1</course><type>1</type></trkpt>
      <trkpt lat="40.73753889" lon="-4.73133564"><ele>2494</ele><speed>14.19</speed><time>2016-06-30T14:20:47Z</time><pdop>10.0</pdop><geoidheight>53.00</geoidheight><course>47.2</course><type>1</type></trkpt>
      <trkpt lat="40.73773564" lon="-4.73109225"><ele>2490</ele><speed>14.80</speed><time>2016-06-30T14:20:49Z</time><pdop>10.0</pdop><geoidheight>53.00</geoidheight><course>45.8</course><type>1</type></trkpt>
      <trkpt lat="40.73791951" lon="-4.73085873"><ele>2486</ele><speed>14.08</speed><time>2016-06-30T14:20:51Z</time><pdop>10.0</pdop><geoidheight>53.00</geoidheight><course>46.6</course><type>1</type></trkpt>
      <trkpt lat="40.73808635" lon="-4.73063995"><ele>2482</ele><speed>12.38</speed><time>2016-06-30T14:20:53Z</time><pdop>10.0</pdop><geoidheight>53.00</geoidheight><course>45.0</course><type>1</type></trkpt>
      <trkpt lat="40.73824564" lon="-4.73046537"><ele>2481</ele><speed>11.73</speed><time>2016-06-30T14:20:55Z</time><pdop>11.0</pdop><geoidheight>53.00</geoidheight><course>42.0</course><type>1</type></trkpt>
      <trkpt lat="40.7384353" lon="-4.73027348"><ele>2478</ele><speed>13.06</speed><time>2016-06-30T14:20:57Z</time><pdop>12.0</pdop><geoidheight>53.00</geoidheight><course>40.3</course><type>1</type></trkpt>
      <trkpt lat="40.73863257" lon="-4.7300325"><ele>2473</ele><speed>14.36</speed><time>2016-06-30T14:20:59Z</time><pdop>11.0</pdop><geoidheight>53.00</geoidheight><course>47.2</course><type>1</type></trkpt>
      <trkpt lat="40.73878637" lon="-4.72979754"><ele>2471</ele><speed>13.46</speed><time>2016-06-30T14:21:01Z</time><pdop>12.0</pdop><geoidheight>53.00</geoidheight><course>47.7</course><type>1</type></trkpt>
      <trkpt lat="40.73901542" lon="-4.72948162"><ele>2467</ele><speed>12.73</speed><time>2016-06-30T14:21:04Z</time><pdop>15.0</pdop><geoidheight>53.00</geoidheight><course>44.9</course><type>1</type></trkpt>
      <trkpt lat="40.73926672" lon="-4.72930371"><ele>2463</ele><speed>13.68</speed><time>2016-06-30T14:21:06Z</time><pdop>13.0</pdop><geoidheight>53.00</geoidheight><course>36.8</course><type>1</type></trkpt>
      <trkpt lat="40.73964818" lon="-4.72884882"><ele>2502</ele><speed>16.86</speed><time>2016-06-30T14:21:09Z</time><pdop>12.0</pdop><geoidheight>53.00</geoidheight><course>42.3</course><type>1</type></trkpt>
      <trkpt lat="40.73985324" lon="-4.7286284"><ele>2489</ele><speed>15.40</speed><time>2016-06-30T14:21:11Z</time><pdop>12.0</pdop><geoidheight>53.00</geoidheight><course>43.5</course><type>1</type></trkpt>
      <trkpt lat="40.74004524" lon="-4.72836652"><ele>2476</ele><speed>15.54</speed><time>2016-06-30T14:21:13Z</time><pdop>13.0</pdop><geoidheight>53.00</geoidheight><course>46.1</course><type>1</type></trkpt>
      <trkpt lat="40.74020258" lon="-4.72807256"><ele>2466</ele><speed>15.85</speed><time>2016-06-30T14:21:15Z</time><pdop>13.0</pdop><geoidheight>53.00</geoidheight><course>49.6</course><type>1</type></trkpt>
      <trkpt lat="40.74039827" lon="-4.72775189"><ele>2454</ele><speed>17.24</speed><time>2016-06-30T14:21:17Z</time><pdop>13.0</pdop><geoidheight>53.00</geoidheight><course>47.4</course><type>1</type></trkpt>
      <trkpt lat="40.74059335" lon="-4.72750868"><ele>2439</ele><speed>15.93</speed><time>2016-06-30T14:21:19Z</time><pdop>11.0</pdop><geoidheight>53.00</geoidheight><course>47.6</course><type>1</type></trkpt>
      <trkpt lat="40.74076637" lon="-4.72723369"><ele>2431</ele><speed>16.02</speed><time>2016-06-30T14:21:21Z</time><pdop>11.0</pdop><geoidheight>53.00</geoidheight><course>50.4</course><type>1</type></trkpt>
      <trkpt lat="40.7409418" lon="-4.72693076"><ele>2424</ele><speed>15.53</speed><time>2016-06-30T14:21:23Z</time><pdop>11.0</pdop><geoidheight>53.00</geoidheight><course>58.2</course><type>1</type></trkpt>
      <trkpt lat="40.74111774" lon="-4.72666994"><ele>2416</ele><speed>15.96</speed><time>2016-06-30T14:21:25Z</time><pdop>11.0</pdop><geoidheight>53.00</geoidheight><course>54.2</course><type>1</type></trkpt>
      <trkpt lat="40.7413012" lon="-4.72635868"><ele>2410</ele><speed>17.47</speed><time>2016-06-30T14:21:27Z</time><pdop>11.0</pdop><geoidheight>53.00</geoidheight><course>52.9</course><type>1</type></trkpt>
      <trkpt lat="40.74144018" lon="-4.72602267"><ele>2406</ele><speed>17.46</speed><time>2016-06-30T14:21:29Z</time><pdop>12.0</pdop><geoidheight>53.00</geoidheight><course>58.7</course><type>1</type></trkpt>
      <trkpt lat="40.74162966" lon="-4.72572534"><ele>2399</ele><speed>17.49</speed><time>2016-06-30T14:21:31Z</time><pdop>13.0</pdop><geoidheight>53.00</geoidheight><course>56.0</course><type>1</type></trkpt>
      <trkpt lat="40.74178951" lon="-4.72538629"><ele>2388</ele><speed>17.99</speed><time>2016-06-30T14:21:33Z</time><pdop>11.0</pdop><geoidheight>53.00</geoidheight><course>53.7</course><type>1</type></trkpt>
      <trkpt lat="40.74197923" lon="-4.72504481"><ele>2379</ele><speed>18.02</speed><time>2016-06-30T14:21:35Z</time><pdop>11.0</pdop><geoidheight>53.00</geoidheight><course>54.3</course><type>1</type></trkpt>
      <trkpt lat="40.74214116" lon="-4.72474986"><ele>2369</ele><speed>15.83</speed><time>2016-06-30T14:21:37Z</time><pdop>11.0</pdop><geoidheight>53.00</geoidheight><course>52.5</course><type>1</type></trkpt>
      <trkpt lat="40.74231695" lon="-4.72446745"><ele>2364</ele><speed>15.49</speed><time>2016-06-30T14:21:39Z</time><pdop>12.0</pdop><geoidheight>53.00</geoidheight><course>52.4</course><type>1</type></trkpt>
      <trkpt lat="40.74250262" lon="-4.72416838"><ele>2357</ele><speed>16.89</speed><time>2016-06-30T14:21:41Z</time><pdop>11.0</pdop><geoidheight>53.00</geoidheight><course>53.4</course><type>1</type></trkpt>
      <trkpt lat="40.74275434" lon="-4.72382981"><ele>2349</ele><speed>20.04</speed><time>2016-06-30T14:21:43Z</time><pdop>11.0</pdop><geoidheight>53.00</geoidheight><course>47.4</course><type>1</type></trkpt>
      <trkpt lat="40.74301613" lon="-4.72350546"><ele>2345</ele><speed>19.61</speed><time>2016-06-30T14:21:45Z</time><pdop>12.0</pdop><geoidheight>53.00</geoidheight><course>46.3</course><type>1</type></trkpt>
      <trkpt lat="40.74320161" lon="-4.72319466"><ele>2343</ele><speed>16.84</speed><time>2016-06-30T14:21:47Z</time><pdop>8.0</pdop><geoidheight>53.00</geoidheight><course>50.2</course><type>1</type></trkpt>
      <trkpt lat="40.74333792" lon="-4.72291754"><ele>2339</ele><speed>13.48</speed><time>2016-06-30T14:21:49Z</time><pdop>6.0</pdop><geoidheight>53.00</geoidheight><course>60.2</course><type>1</type></trkpt>
      <trkpt lat="40.74339071" lon="-4.7227704"><ele>2338</ele><speed>13.26</speed><time>2016-06-30T14:21:50Z</time><pdop>6.0</pdop><geoidheight>53.00</geoidheight><course>62.9</course><type>1</type></trkpt>
      <trkpt lat="40.74344463" lon="-4.72263375"><ele>2335</ele><speed>13.63</speed><time>2016-06-30T14:21:51Z</time><pdop>5.0</pdop><geoidheight>53.00</geoidheight><course>65.0</course><type>1</type></trkpt>
      <trkpt lat="40.7435005" lon="-4.72249097"><ele>2333</ele><speed>13.92</speed><time>2016-06-30T14:21:52Z</time><pdop>5.0</pdop><geoidheight>53.00</geoidheight><course>65.4</course><type>1</type></trkpt>
      <trkpt lat="40.74356342" lon="-4.72233815"><ele>2331</ele><speed>14.59</speed><time>2016-06-30T14:21:53Z</time><pdop>6.0</pdop><geoidheight>53.00</geoidheight><course>64.7</course><type>1</type></trkpt>
      <trkpt lat="40.74362755" lon="-4.7221782"><ele>2329</ele><speed>14.89</speed><time>2016-06-30T14:21:54Z</time><pdop>7.0</pdop><geoidheight>53.00</geoidheight><course>64.3</course><type>1</type></trkpt>
      <trkpt lat="40.7436867" lon="-4.72201243"><ele>2326</ele><speed>15.38</speed><time>2016-06-30T14:21:55Z</time><pdop>6.0</pdop><geoidheight>53.00</geoidheight><course>64.3</course><type>1</type></trkpt>
      <trkpt lat="40.74375558" lon="-4.72184352"><ele>2323</ele><speed>16.11</speed><time>2016-06-30T14:21:56Z</time><pdop>5.0</pdop><geoidheight>53.00</geoidheight><course>62.4</course><type>1</type></trkpt>
      <trkpt lat="40.74383772" lon="-4.72167295"><ele>2319</ele><speed>16.61</speed><time>2016-06-30T14:21:57Z</time><pdop>5.0</pdop><geoidheight>53.00</geoidheight><course>59.9</course><type>1</type></trkpt>
      <trkpt lat="40.74391625" lon="-4.72150243"><ele>2317</ele><speed>16.65</speed><time>2016-06-30T14:21:58Z</time><pdop>5.0</pdop><geoidheight>53.00</geoidheight><course>59.3</course><type>1</type></trkpt>
      <trkpt lat="40.7439919" lon="-4.72133598"><ele>2314</ele><speed>16.66</speed><time>2016-06-30T14:21:59Z</time><pdop>5.0</pdop><geoidheight>53.00</geoidheight><course>58.7</course><type>1</type></trkpt>
      <trkpt lat="40.74406126" lon="-4.72117959"><ele>2313</ele><speed>15.87</speed><time>2016-06-30T14:22:00Z</time><pdop>5.0</pdop><geoidheight>53.00</geoidheight><course>58.5</course><type>1</type></trkpt>
      <trkpt lat="40.74413111" lon="-4.72104157"><ele>2311</ele><speed>14.81</speed><time>2016-06-30T14:22:01Z</time><pdop>6.0</pdop><geoidheight>53.00</geoidheight><course>57.6</course><type>1</type></trkpt>
      <trkpt lat="40.744195" lon="-4.72089979"><ele>2310</ele><speed>13.93</speed><time>2016-06-30T14:22:02Z</time><pdop>6.0</pdop><geoidheight>53.00</geoidheight><course>57.3</course><type>1</type></trkpt>
      <trkpt lat="40.74426045" lon="-4.72077326"><ele>2306</ele><speed>13.88</speed><time>2016-06-30T14:22:03Z</time><pdop>5.0</pdop><geoidheight>53.00</geoidheight><course>55.2</course><type>1</type></trkpt>
      <trkpt lat="40.74434048" lon="-4.72063683"><ele>2302</ele><speed>14.59</speed><time>2016-06-30T14:22:04Z</time><pdop>5.0</pdop><geoidheight>53.00</geoidheight><course>55.4</course><type>1</type></trkpt>
      <trkpt lat="40.74441701" lon="-4.7204985"><ele>2301</ele><speed>14.56</speed><time>2016-06-30T14:22:05Z</time><pdop>6.0</pdop><geoidheight>53.00</geoidheight><course>55.3</course><type>1</type></trkpt>
      <trkpt lat="40.74451691" lon="-4.72031206"><ele>2297</ele><speed>17.28</speed><time>2016-06-30T14:22:06Z</time><pdop>6.0</pdop><geoidheight>53.00</geoidheight><course>55.2</course><type>1</type></trkpt>
      <trkpt lat="40.74458489" lon="-4.72013997"><ele>2295</ele><speed>17.71</speed><time>2016-06-30T14:22:07Z</time><pdop>6.0</pdop><geoidheight>53.00</geoidheight><course>57.5</course><type>1</type></trkpt>
      <trkpt lat="40.74468379" lon="-4.71996691"><ele>2294</ele><speed>18.08</speed><time>2016-06-30T14:22:08Z</time><pdop>7.0</pdop><geoidheight>53.00</geoidheight><course>56.6</course><type>1</type></trkpt>
      <trkpt lat="40.74476336" lon="-4.71978831"><ele>2294</ele><speed>17.70</speed><time>2016-06-30T14:22:09Z</time><pdop>6.0</pdop><geoidheight>53.00</geoidheight><course>57.4</course><type>1</type></trkpt>
      <trkpt lat="40.74483617" lon="-4.71962962"><ele>2293</ele><speed>16.47</speed><time>2016-06-30T14:22:10Z</time><pdop>6.0</pdop><geoidheight>53.00</geoidheight><course>56.1</course><type>1</type></trkpt>
      <trkpt lat="40.74492101" lon="-4.71948237"><ele>2293</ele><speed>15.25</speed><time>2016-06-30T14:22:11Z</time><pdop>7.0</pdop><geoidheight>53.00</geoidheight><course>53.6</course><type>1</type></trkpt>
      <trkpt lat="40.74510483" lon="-4.71924118"><ele>2295</ele><speed>14.57</speed><time>2016-06-30T14:22:13Z</time><pdop>7.0</pdop><geoidheight>53.00</geoidheight><course>52.2</course><type>1</type></trkpt>
      <trkpt lat="40.74515382" lon="-4.71909708"><ele>2295</ele><speed>14.14</speed><time>2016-06-30T14:22:14Z</time><pdop>6.0</pdop><geoidheight>53.00</geoidheight><course>60.1</course><type>1</type></trkpt>
      <trkpt lat="40.74521418" lon="-4.71895377"><ele>2295</ele><speed>13.98</speed><time>2016-06-30T14:22:15Z</time><pdop>5.0</pdop><geoidheight>53.00</geoidheight><course>64.5</course><type>1</type></trkpt>
      <trkpt lat="40.74523434" lon="-4.71878736"><ele>2297</ele><speed>14.06</speed><time>2016-06-30T14:22:16Z</time><pdop>4.0</pdop><geoidheight>53.00</geoidheight><course>72.4</course><type>1</type></trkpt>
      <trkpt lat="40.7452644" lon="-4.71863971"><ele>2298</ele><speed>13.95</speed><time>2016-06-30T14:22:17Z</time><pdop>4.0</pdop><geoidheight>53.00</geoidheight><course>77.5</course><type>1</type></trkpt>
      <trkpt lat="40.74528123" lon="-4.71847784"><ele>2299</ele><speed>13.58</speed><time>2016-06-30T14:22:18Z</time><pdop>4.0</pdop><geoidheight>53.00</geoidheight><course>79.4</course><type>1</type></trkpt>
      <trkpt lat="40.74529285" lon="-4.71831875"><ele>2300</ele><speed>13.65</speed><time>2016-06-30T14:22:19Z</time><pdop>4.0</pdop><geoidheight>53.00</geoidheight><course>82.6</course><type>1</type></trkpt>
      <trkpt lat="40.74530448" lon="-4.71815394"><ele>2300</ele><speed>13.81</speed><time>2016-06-30T14:22:20Z</time><pdop>4.0</pdop><geoidheight>53.00</geoidheight><course>83.5</course><type>1</type></trkpt>
      <trkpt lat="40.74531872" lon="-4.71799717"><ele>2301</ele><speed>13.29</speed><time>2016-06-30T14:22:21Z</time><pdop>4.0</pdop><geoidheight>53.00</geoidheight><course>83.9</course><type>1</type></trkpt>
      <trkpt lat="40.74534573" lon="-4.71785021"><ele>2301</ele><speed>12.61</speed><time>2016-06-30T14:22:22Z</time><pdop>4.0</pdop><geoidheight>53.00</geoidheight><course>80.2</course><type>1</type></trkpt>
      <trkpt lat="40.74540203" lon="-4.71771872"><ele>2301</ele><speed>12.14</speed><time>2016-06-30T14:22:23Z</time><pdop>4.0</pdop><geoidheight>53.00</geoidheight><course>67.1</course><type>1</type></trkpt>
      <trkpt lat="40.74546822" lon="-4.71761394"><ele>2301</ele><speed>11.43</speed><time>2016-06-30T14:22:24Z</time><pdop>4.0</pdop><geoidheight>53.00</geoidheight><course>50.2</course><type>1</type></trkpt>
      <trkpt lat="40.74554893" lon="-4.71753429"><ele>2302</ele><speed>10.70</speed><time>2016-06-30T14:22:25Z</time><pdop>4.0</pdop><geoidheight>53.00</geoidheight><course>41.1</course><type>1</type></trkpt>
      <trkpt lat="40.74563475" lon="-4.71752395"><ele>2302</ele><speed>9.08</speed><time>2016-06-30T14:22:26Z</time><pdop>4.0</pdop><geoidheight>53.00</geoidheight><course>20.2</course><type>1</type></trkpt>
      <trkpt lat="40.74571752" lon="-4.71750768"><ele>2301</ele><speed>8.38</speed><time>2016-06-30T14:22:27Z</time><pdop>4.0</pdop><geoidheight>53.00</geoidheight><course>14.6</course><type>1</type></trkpt>
      <trkpt lat="40.74569443" lon="-4.71764696"><ele>2302</ele><speed>5.40</speed><time>2016-06-30T14:22:28Z</time><pdop>3.0</pdop><geoidheight>53.00</geoidheight><course>289.3</course><type>1</type></trkpt>
      <trkpt lat="40.74568449" lon="-4.71780501"><ele>2301</ele><speed>6.18</speed><time>2016-06-30T14:22:30Z</time><pdop>5.0</pdop><geoidheight>53.00</geoidheight><course>272.2</course><type>1</type></trkpt>
      <trkpt lat="40.7455242" lon="-4.71795519"><ele>2301</ele><speed>8.68</speed><time>2016-06-30T14:22:32Z</time><pdop>6.0</pdop><geoidheight>53.00</geoidheight><course>226.4</course><type>1</type></trkpt>
      <trkpt lat="40.74534393" lon="-4.71786423"><ele>2302</ele><speed>11.24</speed><time>2016-06-30T14:22:33Z</time><pdop>4.0</pdop><geoidheight>53.00</geoidheight><course>178.5</course><type>1</type></trkpt>
      <trkpt lat="40.74521321" lon="-4.71777842"><ele>2305</ele><speed>13.23</speed><time>2016-06-30T14:22:34Z</time><pdop>3.0</pdop><geoidheight>53.00</geoidheight><course>157.0</course><type>1</type></trkpt>
      <trkpt lat="40.74510868" lon="-4.71771115"><ele>2305</ele><speed>13.76</speed><time>2016-06-30T14:22:35Z</time><pdop>3.0</pdop><geoidheight>53.00</geoidheight><course>146.0</course><type>1</type></trkpt>
      <trkpt lat="40.7450221" lon="-4.71759391"><ele>2306</ele><speed>13.78</speed><time>2016-06-30T14:22:36Z</time><pdop>3.0</pdop><geoidheight>53.00</geoidheight><course>136.5</course><type>1</type></trkpt>
      <trkpt lat="40.7449485" lon="-4.71744303"><ele>2307</ele><speed>14.77</speed><time>2016-06-30T14:22:37Z</time><pdop>3.0</pdop><geoidheight>53.00</geoidheight><course>125.4</course><type>1</type></trkpt>
      <trkpt lat="40.74487904" lon="-4.71724777"><ele>2308</ele><speed>16.68</speed><time>2016-06-30T14:22:38Z</time><pdop>3.0</pdop><geoidheight>53.00</geoidheight><course>117.0</course><type>1</type></trkpt>
      <trkpt lat="40.74481858" lon="-4.71709852"><ele>2309</ele><speed>16.05</speed><time>2016-06-30T14:22:39Z</time><pdop>3.0</pdop><geoidheight>53.00</geoidheight><course>115.5</course><type>1</type></trkpt>
      <trkpt lat="40.74478929" lon="-4.71692346"><ele>2310</ele><speed>15.11</speed><time>2016-06-30T14:22:40Z</time><pdop>3.0</pdop><geoidheight>53.00</geoidheight><course>106.8</course><type>1</type></trkpt>
      <trkpt lat="40.74477196" lon="-4.71675186"><ele>2311</ele><speed>14.66</speed><time>2016-06-30T14:22:41Z</time><pdop>3.0</pdop><geoidheight>53.00</geoidheight><course>98.3</course><type>1</type></trkpt>
      <trkpt lat="40.7447576" lon="-4.71656476"><ele>2308</ele><speed>15.14</speed><time>2016-06-30T14:22:42Z</time><pdop>3.0</pdop><geoidheight>53.00</geoidheight><course>96.9</course><type>1</type></trkpt>
      <trkpt lat="40.74475063" lon="-4.71637547"><ele>2310</ele><speed>15.27</speed><time>2016-06-30T14:22:43Z</time><pdop>4.0</pdop><geoidheight>53.00</geoidheight><course>94.5</course><type>1</type></trkpt>
      <trkpt lat="40.74479102" lon="-4.71621383"><ele>2311</ele><speed>14.07</speed><time>2016-06-30T14:22:44Z</time><pdop>4.0</pdop><geoidheight>53.00</geoidheight><course>80.5</course><type>1</type></trkpt>
      <trkpt lat="40.74482009" lon="-4.71607198"><ele>2312</ele><speed>12.71</speed><time>2016-06-30T14:22:45Z</time><pdop>4.0</pdop><geoidheight>53.00</geoidheight><course>75.2</course><type>1</type></trkpt>
      <trkpt lat="40.74487644" lon="-4.7159435"><ele>2313</ele><speed>12.50</speed><time>2016-06-30T14:22:46Z</time><pdop>3.0</pdop><geoidheight>53.00</geoidheight><course>67.5</course><type>1</type></trkpt>
      <trkpt lat="40.74492869" lon="-4.71580678"><ele>2313</ele><speed>12.42</speed><time>2016-06-30T14:22:47Z</time><pdop>3.0</pdop><geoidheight>53.00</geoidheight><course>66.4</course><type>1</type></trkpt>
      <trkpt lat="40.74497096" lon="-4.71566157"><ele>2314</ele><speed>12.43</speed><time>2016-06-30T14:22:48Z</time><pdop>4.0</pdop><geoidheight>53.00</geoidheight><course>66.1</course><type>1</type></trkpt>
      <trkpt lat="40.74502475" lon="-4.71552704"><ele>2315</ele><speed>12.54</speed><time>2016-06-30T14:22:49Z</time><pdop>3.0</pdop><geoidheight>53.00</geoidheight><course>66.6</course><type>1</type></trkpt>
      <trkpt lat="40.74505667" lon="-4.71538988"><ele>2316</ele><speed>12.32</speed><time>2016-06-30T14:22:50Z</time><pdop>3.0</pdop><geoidheight>53.00</geoidheight><course>71.7</course><type>1</type></trkpt>
      <trkpt lat="40.74507897" lon="-4.71525316"><ele>2316</ele><speed>11.99</speed><time>2016-06-30T14:22:51Z</time><pdop>3.0</pdop><geoidheight>53.00</geoidheight><course>73.8</course><type>1</type></trkpt>
      <trkpt lat="40.74511015" lon="-4.71510875"><ele>2315</ele><speed>12.26</speed><time>2016-06-30T14:22:52Z</time><pdop>3.0</pdop><geoidheight>53.00</geoidheight><course>74.0</course><type>1</type></trkpt>
      <trkpt lat="40.74516018" lon="-4.7149536"><ele>2315</ele><speed>13.30</speed><time>2016-06-30T14:22:53Z</time><pdop>3.0</pdop><geoidheight>53.00</geoidheight><course>70.7</course><type>1</type></trkpt>
      <trkpt lat="40.74521229" lon="-4.71480538"><ele>2312</ele><speed>13.83</speed><time>2016-06-30T14:22:54Z</time><pdop>3.0</pdop><geoidheight>53.00</geoidheight><course>68.0</course><type>1</type></trkpt>
      <trkpt lat="40.74526343" lon="-4.71465411"><ele>2310</ele><speed>14.33</speed><time>2016-06-30T14:22:55Z</time><pdop>3.0</pdop><geoidheight>53.00</geoidheight><course>66.5</course><type>1</type></trkpt>
      <trkpt lat="40.74532981" lon="-4.7144991"><ele>2308</ele><speed>14.81</speed><time>2016-06-30T14:22:56Z</time><pdop>3.0</pdop><geoidheight>53.00</geoidheight><course>62.6</course><type>1</type></trkpt>
      <trkpt lat="40.74540141" lon="-4.71434188"><ele>2305</ele><speed>15.09</speed><time>2016-06-30T14:22:57Z</time><pdop>3.0</pdop><geoidheight>53.00</geoidheight><course>61.6</course><type>1</type></trkpt>
      <trkpt lat="40.74545219" lon="-4.7141874"><ele>2304</ele><speed>14.85</speed><time>2016-06-30T14:22:58Z</time><pdop>4.0</pdop><geoidheight>53.00</geoidheight><course>60.6</course><type>1</type></trkpt>
      <trkpt lat="40.74553747" lon="-4.714017"><ele>2304</ele><speed>15.71</speed><time>2016-06-30T14:22:59Z</time><pdop>5.0</pdop><geoidheight>53.00</geoidheight><course>59.3</course><type>1</type></trkpt>
      <trkpt lat="40.74564241" lon="-4.71387617"><ele>2303</ele><speed>15.66</speed><time>2016-06-30T14:23:00Z</time><pdop>5.0</pdop><geoidheight>53.00</geoidheight><course>54.5</course><type>1</type></trkpt>
      <trkpt lat="40.74571899" lon="-4.71373912"><ele>2302</ele><speed>14.55</speed><time>2016-06-30T14:23:01Z</time><pdop>5.0</pdop><geoidheight>53.00</geoidheight><course>54.5</course><type>1</type></trkpt>
      <trkpt lat="40.74580304" lon="-4.7136074"><ele>2302</ele><speed>14.09</speed><time>2016-06-30T14:23:02Z</time><pdop>5.0</pdop><geoidheight>53.00</geoidheight><course>54.0</course><type>1</type></trkpt>
      <trkpt lat="40.74588367" lon="-4.71347807"><ele>2301</ele><speed>13.72</speed><time>2016-06-30T14:23:03Z</time><pdop>5.0</pdop><geoidheight>53.00</geoidheight><course>53.4</course><type>1</type></trkpt>
      <trkpt lat="40.74593574" lon="-4.71334327"><ele>2300</ele><speed>13.50</speed><time>2016-06-30T14:23:04Z</time><pdop>5.0</pdop><geoidheight>53.00</geoidheight><course>56.3</course><type>1</type></trkpt>
      <trkpt lat="40.74600338" lon="-4.71319413"><ele>2298</ele><speed>14.30</speed><time>2016-06-30T14:23:05Z</time><pdop>6.0</pdop><geoidheight>53.00</geoidheight><course>57.8</course><type>1</type></trkpt>
      <trkpt lat="40.74608378" lon="-4.71304918"><ele>2298</ele><speed>14.41</speed><time>2016-06-30T14:23:06Z</time><pdop>6.0</pdop><geoidheight>53.00</geoidheight><course>56.2</course><type>1</type></trkpt>
      <trkpt lat="40.74619644" lon="-4.71291199"><ele>2296</ele><speed>15.14</speed><time>2016-06-30T14:23:07Z</time><pdop>5.0</pdop><geoidheight>53.00</geoidheight><course>49.4</course><type>1</type></trkpt>
      <trkpt lat="40.74628169" lon="-4.71279068"><ele>2295</ele><speed>14.22</speed><time>2016-06-30T14:23:08Z</time><pdop>5.0</pdop><geoidheight>53.00</geoidheight><course>45.6</course><type>1</type></trkpt>
      <trkpt lat="40.74637361" lon="-4.71267873"><ele>2294</ele><speed>13.25</speed><time>2016-06-30T14:23:09Z</time><pdop>6.0</pdop><geoidheight>53.00</geoidheight><course>43.0</course><type>1</type></trkpt>
      <trkpt lat="40.74650367" lon="-4.7124642"><ele>2292</ele><speed>12.52</speed><time>2016-06-30T14:23:11Z</time><pdop>9.0</pdop><geoidheight>53.00</geoidheight><course>46.1</course><type>1</type></trkpt>
      <trkpt lat="40.74660586" lon="-4.71222084"><ele>2289</ele><speed>12.77</speed><time>2016-06-30T14:23:13Z</time><pdop>6.0</pdop><geoidheight>53.00</geoidheight><course>52.1</course><type>1</type></trkpt>
      <trkpt lat="40.7466923" lon="-4.71210235"><ele>2289</ele><speed>12.79</speed><time>2016-06-30T14:23:14Z</time><pdop>6.0</pdop><geoidheight>53.00</geoidheight><course>51.1</course><type>1</type></trkpt>
      <trkpt lat="40.7467964" lon="-4.7119977"><ele>2287</ele><speed>12.58</speed><time>2016-06-30T14:23:15Z</time><pdop>6.0</pdop><geoidheight>53.00</geoidheight><course>46.2</course><type>1</type></trkpt>
      <trkpt lat="40.74690635" lon="-4.71191833"><ele>2288</ele><speed>12.18</speed><time>2016-06-30T14:23:16Z</time><pdop>7.0</pdop><geoidheight>53.00</geoidheight><course>39.6</course><type>1</type></trkpt>
      <trkpt lat="40.74708381" lon="-4.71175607"><ele>2288</ele><speed>11.67</speed><time>2016-06-30T14:23:18Z</time><pdop>9.0</pdop><geoidheight>53.00</geoidheight><course>34.8</course><type>1</type></trkpt>
      <trkpt lat="40.7472605" lon="-4.71159366"><ele>2289</ele><speed>11.85</speed><time>2016-06-30T14:23:20Z</time><pdop>10.0</pdop><geoidheight>53.00</geoidheight><course>34.9</course><type>1</type></trkpt>
      <trkpt lat="40.74743988" lon="-4.71136423"><ele>2286</ele><speed>14.08</speed><time>2016-06-30T14:23:22Z</time><pdop>7.0</pdop><geoidheight>53.00</geoidheight><course>42.1</course><type>1</type></trkpt>
      <trkpt lat="40.74753689" lon="-4.71114602"><ele>2286</ele><speed>12.08</speed><time>2016-06-30T14:23:24Z</time><pdop>9.0</pdop><geoidheight>53.00</geoidheight><course>42.6</course><type>1</type></trkpt>
      <trkpt lat="40.74767694" lon="-4.71106421"><ele>2285</ele><speed>12.47</speed><time>2016-06-30T14:23:25Z</time><pdop>8.0</pdop><geoidheight>53.00</geoidheight><course>38.0</course><type>1</type></trkpt>
      <trkpt lat="40.74783606" lon="-4.71085142"><ele>2283</ele><speed>12.16</speed><time>2016-06-30T14:23:27Z</time><pdop>7.0</pdop><geoidheight>53.00</geoidheight><course>48.5</course><type>1</type></trkpt>
      <trkpt lat="40.74798969" lon="-4.71064358"><ele>2279</ele><speed>12.68</speed><time>2016-06-30T14:23:29Z</time><pdop>6.0</pdop><geoidheight>53.00</geoidheight><course>45.6</course><type>1</type></trkpt>
      <trkpt lat="40.74809337" lon="-4.71053826"><ele>2276</ele><speed>12.65</speed><time>2016-06-30T14:23:30Z</time><pdop>7.0</pdop><geoidheight>53.00</geoidheight><course>43.7</course><type>1</type></trkpt>
      <trkpt lat="40.74828165" lon="-4.71033901"><ele>2273</ele><speed>12.86</speed><time>2016-06-30T14:23:32Z</time><pdop>6.0</pdop><geoidheight>53.00</geoidheight><course>41.0</course><type>1</type></trkpt>
      <trkpt lat="40.74837276" lon="-4.71023991"><ele>2272</ele><speed>12.83</speed><time>2016-06-30T14:23:33Z</time><pdop>5.0</pdop><geoidheight>53.00</geoidheight><course>39.6</course><type>1</type></trkpt>
      <trkpt lat="40.74845707" lon="-4.71015445"><ele>2270</ele><speed>12.03</speed><time>2016-06-30T14:23:34Z</time><pdop>5.0</pdop><geoidheight>53.00</geoidheight><course>40.0</course><type>1</type></trkpt>
      <trkpt lat="40.74853912" lon="-4.71006553"><ele>2268</ele><speed>11.75</speed><time>2016-06-30T14:23:35Z</time><pdop>5.0</pdop><geoidheight>53.00</geoidheight><course>40.6</course><type>1</type></trkpt>
      <trkpt lat="40.74859366" lon="-4.70996541"><ele>2267</ele><speed>11.91</speed><time>2016-06-30T14:23:36Z</time><pdop>5.0</pdop><geoidheight>53.00</geoidheight><course>44.4</course><type>1</type></trkpt>
      <trkpt lat="40.74868487" lon="-4.70985966"><ele>2266</ele><speed>12.73</speed><time>2016-06-30T14:23:37Z</time><pdop>5.0</pdop><geoidheight>53.00</geoidheight><course>47.3</course><type>1</type></trkpt>
      <trkpt lat="40.74880188" lon="-4.70973312"><ele>2265</ele><speed>13.99</speed><time>2016-06-30T14:23:38Z</time><pdop>6.0</pdop><geoidheight>53.00</geoidheight><course>46.6</course><type>1</type></trkpt>
      <trkpt lat="40.74893175" lon="-4.70941724"><ele>2262</ele><speed>14.89</speed><time>2016-06-30T14:23:40Z</time><pdop>10.0</pdop><geoidheight>53.00</geoidheight><course>55.6</course><type>1</type></trkpt>
      <trkpt lat="40.7490661" lon="-4.70918184"><ele>2258</ele><speed>12.92</speed><time>2016-06-30T14:23:42Z</time><pdop>9.0</pdop><geoidheight>53.00</geoidheight><course>53.3</course><type>1</type></trkpt>
      <trkpt lat="40.74918816" lon="-4.7089878"><ele>2253</ele><speed>10.36</speed><time>2016-06-30T14:23:44Z</time><pdop>9.0</pdop><geoidheight>53.00</geoidheight><course>50.4</course><type>1</type></trkpt>
      <trkpt lat="40.74929368" lon="-4.70878546"><ele>2408</ele><speed>11.10</speed><time>2016-06-30T14:23:46Z</time><pdop>10.0</pdop><geoidheight>53.00</geoidheight><course>52.2</course><type>1</type></trkpt>
      <trkpt lat="40.74943651" lon="-4.70853086"><ele>2335</ele><speed>13.52</speed><time>2016-06-30T14:23:48Z</time><pdop>10.0</pdop><geoidheight>53.00</geoidheight><course>54.0</course><type>1</type></trkpt>
      <trkpt lat="40.74964744" lon="-4.70824753"><ele>2329</ele><speed>16.15</speed><time>2016-06-30T14:23:50Z</time><pdop>11.0</pdop><geoidheight>53.00</geoidheight><course>50.5</course><type>1</type></trkpt>
      <trkpt lat="40.74980993" lon="-4.70798334"><ele>2301</ele><speed>14.31</speed><time>2016-06-30T14:23:52Z</time><pdop>10.0</pdop><geoidheight>53.00</geoidheight><course>54.8</course><type>1</type></trkpt>
      <trkpt lat="40.74996637" lon="-4.70769616"><ele>2288</ele><speed>14.63</speed><time>2016-06-30T14:23:54Z</time><pdop>10.0</pdop><geoidheight>53.00</geoidheight><course>57.8</course><type>1</type></trkpt>
      <trkpt lat="40.75011568" lon="-4.70741597"><ele>2266</ele><speed>14.77</speed><time>2016-06-30T14:23:56Z</time><pdop>10.0</pdop><geoidheight>53.00</geoidheight><course>54.9</course><type>1</type></trkpt>
      <trkpt lat="40.75024829" lon="-4.70714766"><ele>2257</ele><speed>12.82</speed><time>2016-06-30T14:23:58Z</time><pdop>10.0</pdop><geoidheight>53.00</geoidheight><course>56.3</course><type>1</type></trkpt>
      <trkpt lat="40.75036152" lon="-4.70693093"><ele>2246</ele><speed>11.09</speed><time>2016-06-30T14:24:00Z</time><pdop>9.0</pdop><geoidheight>53.00</geoidheight><course>59.9</course><type>1</type></trkpt>
      <trkpt lat="40.75045917" lon="-4.70671253"><ele>2239</ele><speed>11.17</speed><time>2016-06-30T14:24:02Z</time><pdop>9.0</pdop><geoidheight>53.00</geoidheight><course>61.5</course><type>1</type></trkpt>
      <trkpt lat="40.75054096" lon="-4.70646879"><ele>2230</ele><speed>11.62</speed><time>2016-06-30T14:24:04Z</time><pdop>9.0</pdop><geoidheight>53.00</geoidheight><course>62.9</course><type>1</type></trkpt>
      <trkpt lat="40.75065152" lon="-4.70625534"><ele>2227</ele><speed>10.77</speed><time>2016-06-30T14:24:06Z</time><pdop>9.0</pdop><geoidheight>53.00</geoidheight><course>56.6</course><type>1</type></trkpt>
      <trkpt lat="40.75076116" lon="-4.70604513"><ele>2223</ele><speed>11.34</speed><time>2016-06-30T14:24:08Z</time><pdop>9.0</pdop><geoidheight>53.00</geoidheight><course>54.8</course><type>1</type></trkpt>
      <trkpt lat="40.75089958" lon="-4.70580044"><ele>2369</ele><speed>12.77</speed><time>2016-06-30T14:24:10Z</time><pdop>10.0</pdop><geoidheight>53.00</geoidheight><course>54.3</course><type>1</type></trkpt>
      <trkpt lat="40.75103987" lon="-4.70552648"><ele>2306</ele><speed>13.88</speed><time>2016-06-30T14:24:12Z</time><pdop>10.0</pdop><geoidheight>53.00</geoidheight><course>56.1</course><type>1</type></trkpt>
      <trkpt lat="40.75116954" lon="-4.70526244"><ele>2251</ele><speed>13.57</speed><time>2016-06-30T14:24:14Z</time><pdop>9.0</pdop><geoidheight>53.00</geoidheight><course>54.6</course><type>1</type></trkpt>
      <trkpt lat="40.75130744" lon="-4.70502118"><ele>2224</ele><speed>12.43</speed><time>2016-06-30T14:24:16Z</time><pdop>9.0</pdop><geoidheight>53.00</geoidheight><course>55.4</course><type>1</type></trkpt>
      <trkpt lat="40.75145667" lon="-4.70479135"><ele>2217</ele><speed>12.69</speed><time>2016-06-30T14:24:18Z</time><pdop>9.0</pdop><geoidheight>53.00</geoidheight><course>53.9</course><type>1</type></trkpt>
      <trkpt lat="40.75160756" lon="-4.70454291"><ele>2214</ele><speed>14.02</speed><time>2016-06-30T14:24:20Z</time><pdop>9.0</pdop><geoidheight>53.00</geoidheight><course>50.1</course><type>1</type></trkpt>
      <trkpt lat="40.75176306" lon="-4.70429299"><ele>2212</ele><speed>13.43</speed><time>2016-06-30T14:24:22Z</time><pdop>9.0</pdop><geoidheight>53.00</geoidheight><course>54.0</course><type>1</type></trkpt>
      <trkpt lat="40.75184219" lon="-4.7040733"><ele>2212</ele><speed>10.61</speed><time>2016-06-30T14:24:24Z</time><pdop>9.0</pdop><geoidheight>53.00</geoidheight><course>59.7</course><type>1</type></trkpt>
      <trkpt lat="40.75192181" lon="-4.70384829"><ele>2211</ele><speed>10.84</speed><time>2016-06-30T14:24:26Z</time><pdop>9.0</pdop><geoidheight>53.00</geoidheight><course>59.8</course><type>1</type></trkpt>
      <trkpt lat="40.7520501" lon="-4.70362848"><ele>2208</ele><speed>12.15</speed><time>2016-06-30T14:24:28Z</time><pdop>9.0</pdop><geoidheight>53.00</geoidheight><course>54.1</course><type>1</type></trkpt>
      <trkpt lat="40.75218479" lon="-4.70338762"><ele>2204</ele><speed>12.71</speed><time>2016-06-30T14:24:30Z</time><pdop>9.0</pdop><geoidheight>53.00</geoidheight><course>53.9</course><type>1</type></trkpt>
      <trkpt lat="40.75231903" lon="-4.70316501"><ele>2202</ele><speed>11.78</speed><time>2016-06-30T14:24:32Z</time><pdop>9.0</pdop><geoidheight>53.00</geoidheight><course>54.7</course><type>1</type></trkpt>
      <trkpt lat="40.75244099" lon="-4.7029438"><ele>2197</ele><speed>11.78</speed><time>2016-06-30T14:24:34Z</time><pdop>9.0</pdop><geoidheight>53.00</geoidheight><course>55.2</course><type>1</type></trkpt>
      <trkpt lat="40.75259005" lon="-4.70268457"><ele>2196</ele><speed>13.37</speed><time>2016-06-30T14:24:36Z</time><pdop>9.0</pdop><geoidheight>53.00</geoidheight><course>52.8</course><type>1</type></trkpt>
      <trkpt lat="40.75277483" lon="-4.70244483"><ele>2194</ele><speed>13.51</speed><time>2016-06-30T14:24:38Z</time><pdop>10.0</pdop><geoidheight>53.00</geoidheight><course>48.7</course><type>1</type></trkpt>
      <trkpt lat="40.75287308" lon="-4.7022364"><ele>2192</ele><speed>11.92</speed><time>2016-06-30T14:24:40Z</time><pdop>10.0</pdop><geoidheight>53.00</geoidheight><course>53.4</course><type>1</type></trkpt>
      <trkpt lat="40.75305228" lon="-4.7020498"><ele>2187</ele><speed>12.61</speed><time>2016-06-30T14:24:42Z</time><pdop>10.0</pdop><geoidheight>53.00</geoidheight><course>48.0</course><type>1</type></trkpt>
      <trkpt lat="40.75319811" lon="-4.70187475"><ele>2182</ele><speed>11.46</speed><time>2016-06-30T14:24:44Z</time><pdop>10.0</pdop><geoidheight>53.00</geoidheight><course>47.7</course><type>1</type></trkpt>
      <trkpt lat="40.75332929" lon="-4.70167817"><ele>2179</ele><speed>11.40</speed><time>2016-06-30T14:24:46Z</time><pdop>10.0</pdop><geoidheight>53.00</geoidheight><course>49.8</course><type>1</type></trkpt>
      <trkpt lat="40.75348292" lon="-4.70144456"><ele>2174</ele><speed>13.76</speed><time>2016-06-30T14:24:48Z</time><pdop>9.0</pdop><geoidheight>53.00</geoidheight><course>48.3</course><type>1</type></trkpt>
      <trkpt lat="40.75363123" lon="-4.70123244"><ele>2169</ele><speed>12.47</speed><time>2016-06-30T14:24:50Z</time><pdop>9.0</pdop><geoidheight>53.00</geoidheight><course>52.0</course><type>1</type></trkpt>
      <trkpt lat="40.75374244" lon="-4.70101831"><ele>2165</ele><speed>11.27</speed><time>2016-06-30T14:24:52Z</time><pdop>9.0</pdop><geoidheight>53.00</geoidheight><course>57.6</course><type>1</type></trkpt>
      <trkpt lat="40.75386228" lon="-4.70080246"><ele>2162</ele><speed>12.15</speed><time>2016-06-30T14:24:54Z</time><pdop>9.0</pdop><geoidheight>53.00</geoidheight><course>53.5</course><type>1</type></trkpt>
      <trkpt lat="40.75399766" lon="-4.70053449"><ele>2160</ele><speed>13.94</speed><time>2016-06-30T14:24:56Z</time><pdop>9.0</pdop><geoidheight>53.00</geoidheight><course>54.0</course><type>1</type></trkpt>
      <trkpt lat="40.75413621" lon="-4.70028029"><ele>2156</ele><speed>13.15</speed><time>2016-06-30T14:24:58Z</time><pdop>9.0</pdop><geoidheight>53.00</geoidheight><course>54.9</course><type>1</type></trkpt>
      <trkpt lat="40.75429012" lon="-4.70005101"><ele>2154</ele><speed>12.40</speed><time>2016-06-30T14:25:00Z</time><pdop>9.0</pdop><geoidheight>53.00</geoidheight><course>49.6</course><type>1</type></trkpt>
      <trkpt lat="40.75448023" lon="-4.69989577"><ele>2154</ele><speed>11.32</speed><time>2016-06-30T14:25:02Z</time><pdop>10.0</pdop><geoidheight>53.00</geoidheight><course>30.8</course><type>1</type></trkpt>
      <trkpt lat="40.75467156" lon="-4.69969194"><ele>2159</ele><speed>8.36</speed><time>2016-06-30T14:25:05Z</time><pdop>9.0</pdop><geoidheight>53.00</geoidheight><course>44.5</course><type>1</type></trkpt>
      <trkpt lat="40.75483078" lon="-4.6994923"><ele>2157</ele><speed>8.86</speed><time>2016-06-30T14:25:08Z</time><pdop>9.0</pdop><geoidheight>53.00</geoidheight><course>45.1</course><type>1</type></trkpt>
      <trkpt lat="40.7549308" lon="-4.69930902"><ele>2156</ele><speed>9.97</speed><time>2016-06-30T14:25:10Z</time><pdop>9.0</pdop><geoidheight>53.00</geoidheight><course>53.2</course><type>1</type></trkpt>
      <trkpt lat="40.75502139" lon="-4.69910658"><ele>2155</ele><speed>10.73</speed><time>2016-06-30T14:25:12Z</time><pdop>9.0</pdop><geoidheight>53.00</geoidheight><course>57.6</course><type>1</type></trkpt>
      <trkpt lat="40.75511471" lon="-4.69891393"><ele>2156</ele><speed>9.00</speed><time>2016-06-30T14:25:14Z</time><pdop>9.0</pdop><geoidheight>53.00</geoidheight><course>57.9</course><type>1</type></trkpt>
      <trkpt lat="40.75526003" lon="-4.69868796"><ele>2155</ele><speed>8.88</speed><time>2016-06-30T14:25:17Z</time><pdop>9.0</pdop><geoidheight>53.00</geoidheight><course>51.8</course><type>1</type></trkpt>
      <trkpt lat="40.75536227" lon="-4.6985222"><ele>2153</ele><speed>9.41</speed><time>2016-06-30T14:25:19Z</time><pdop>9.0</pdop><geoidheight>53.00</geoidheight><course>54.5</course><type>1</type></trkpt>
      <trkpt lat="40.75545518" lon="-4.69831686"><ele>2152</ele><speed>10.07</speed><time>2016-06-30T14:25:21Z</time><pdop>9.0</pdop><geoidheight>53.00</geoidheight><course>59.0</course><type>1</type></trkpt>
      <trkpt lat="40.75555514" lon="-4.69809909"><ele>2151</ele><speed>10.48</speed><time>2016-06-30T14:25:23Z</time><pdop>9.0</pdop><geoidheight>53.00</geoidheight><course>59.2</course><type>1</type></trkpt>
      <trkpt lat="40.7556618" lon="-4.69787941"><ele>2152</ele><speed>10.66</speed><time>2016-06-30T14:25:25Z</time><pdop>9.0</pdop><geoidheight>53.00</geoidheight><course>57.9</course><type>1</type></trkpt>
      <trkpt lat="40.75575844" lon="-4.69757158"><ele>2148</ele><speed>10.45</speed><time>2016-06-30T14:25:28Z</time><pdop>9.0</pdop><geoidheight>53.00</geoidheight><course>63.3</course><type>1</type></trkpt>
      <trkpt lat="40.75581557" lon="-4.69733631"><ele>2144</ele><speed>11.57</speed><time>2016-06-30T14:25:30Z</time><pdop>9.0</pdop><geoidheight>53.00</geoidheight><course>64.8</course><type>1</type></trkpt>
      <trkpt lat="40.7559276" lon="-4.69711484"><ele>2143</ele><speed>11.29</speed><time>2016-06-30T14:25:32Z</time><pdop>9.0</pdop><geoidheight>53.00</geoidheight><course>56.7</course><type>1</type></trkpt>
      <trkpt lat="40.75605066" lon="-4.69691942"><ele>2142</ele><speed>9.95</speed><time>2016-06-30T14:25:34Z</time><pdop>9.0</pdop><geoidheight>53.00</geoidheight><course>50.8</course><type>1</type></trkpt>
      <trkpt lat="40.75616477" lon="-4.69672605"><ele>2140</ele><speed>10.30</speed><time>2016-06-30T14:25:36Z</time><pdop>9.0</pdop><geoidheight>53.00</geoidheight><course>55.1</course><type>1</type></trkpt>
      <trkpt lat="40.75628097" lon="-4.69650604"><ele>2137</ele><speed>11.60</speed><time>2016-06-30T14:25:38Z</time><pdop>9.0</pdop><geoidheight>53.00</geoidheight><course>56.8</course><type>1</type></trkpt>
      <trkpt lat="40.75642087" lon="-4.69627737"><ele>2133</ele><speed>12.40</speed><time>2016-06-30T14:25:40Z</time><pdop>9.0</pdop><geoidheight>53.00</geoidheight><course>51.6</course><type>1</type></trkpt>
      <trkpt lat="40.75657648" lon="-4.69605426"><ele>2130</ele><speed>12.71</speed><time>2016-06-30T14:25:42Z</time><pdop>9.0</pdop><geoidheight>53.00</geoidheight><course>47.5</course><type>1</type></trkpt>
      <trkpt lat="40.75675827" lon="-4.69585204"><ele>2127</ele><speed>13.17</speed><time>2016-06-30T14:25:44Z</time><pdop>9.0</pdop><geoidheight>53.00</geoidheight><course>43.0</course><type>1</type></trkpt>
      <trkpt lat="40.75693244" lon="-4.69560878"><ele>2125</ele><speed>14.22</speed><time>2016-06-30T14:25:46Z</time><pdop>9.0</pdop><geoidheight>53.00</geoidheight><course>48.3</course><type>1</type></trkpt>
      <trkpt lat="40.75707574" lon="-4.69533038"><ele>2125</ele><speed>14.05</speed><time>2016-06-30T14:25:48Z</time><pdop>9.0</pdop><geoidheight>53.00</geoidheight><course>54.4</course><type>1</type></trkpt>
      <trkpt lat="40.75717286" lon="-4.69502753"><ele>2124</ele><speed>13.63</speed><time>2016-06-30T14:25:50Z</time><pdop>10.0</pdop><geoidheight>53.00</geoidheight><course>63.9</course><type>1</type></trkpt>
      <trkpt lat="40.75726437" lon="-4.69472489"><ele>2125</ele><speed>13.45</speed><time>2016-06-30T14:25:52Z</time><pdop>9.0</pdop><geoidheight>53.00</geoidheight><course>68.1</course><type>1</type></trkpt>
      <trkpt lat="40.75734305" lon="-4.69443505"><ele>2124</ele><speed>12.50</speed><time>2016-06-30T14:25:54Z</time><pdop>9.0</pdop><geoidheight>53.00</geoidheight><course>74.4</course><type>1</type></trkpt>
      <trkpt lat="40.75738026" lon="-4.69416504"><ele>2121</ele><speed>12.34</speed><time>2016-06-30T14:25:56Z</time><pdop>9.0</pdop><geoidheight>53.00</geoidheight><course>81.9</course><type>1</type></trkpt>
      <trkpt lat="40.75742921" lon="-4.69388946"><ele>2115</ele><speed>12.28</speed><time>2016-06-30T14:25:58Z</time><pdop>9.0</pdop><geoidheight>53.00</geoidheight><course>77.9</course><type>1</type></trkpt>
      <trkpt lat="40.7575864" lon="-4.69365929"><ele>2104</ele><speed>13.23</speed><time>2016-06-30T14:26:00Z</time><pdop>9.0</pdop><geoidheight>53.00</geoidheight><course>55.4</course><type>1</type></trkpt>
      <trkpt lat="40.75771723" lon="-4.69341016"><ele>2096</ele><speed>13.03</speed><time>2016-06-30T14:26:02Z</time><pdop>9.0</pdop><geoidheight>53.00</geoidheight><course>58.3</course><type>1</type></trkpt>
      <trkpt lat="40.75778656" lon="-4.69310453"><ele>2084</ele><speed>15.17</speed><time>2016-06-30T14:26:04Z</time><pdop>9.0</pdop><geoidheight>53.00</geoidheight><course>69.3</course><type>1</type></trkpt>
      <trkpt lat="40.75787072" lon="-4.69270882"><ele>2080</ele><speed>17.89</speed><time>2016-06-30T14:26:06Z</time><pdop>9.0</pdop><geoidheight>53.00</geoidheight><course>75.3</course><type>1</type></trkpt>
      <trkpt lat="40.75792335" lon="-4.69232295"><ele>2081</ele><speed>15.96</speed><time>2016-06-30T14:26:08Z</time><pdop>9.0</pdop><geoidheight>53.00</geoidheight><course>77.5</course><type>1</type></trkpt>
      <trkpt lat="40.75796677" lon="-4.69201122"><ele>2077</ele><speed>13.61</speed><time>2016-06-30T14:26:10Z</time><pdop>9.0</pdop><geoidheight>53.00</geoidheight><course>79.6</course><type>1</type></trkpt>
      <trkpt lat="40.75800209" lon="-4.69168888"><ele>2072</ele><speed>14.18</speed><time>2016-06-30T14:26:12Z</time><pdop>9.0</pdop><geoidheight>53.00</geoidheight><course>82.5</course><type>1</type></trkpt>
      <trkpt lat="40.75801446" lon="-4.69134268"><ele>2072</ele><speed>14.09</speed><time>2016-06-30T14:26:14Z</time><pdop>9.0</pdop><geoidheight>53.00</geoidheight><course>89.5</course><type>1</type></trkpt>
      <trkpt lat="40.75798657" lon="-4.69101372"><ele>2072</ele><speed>13.67</speed><time>2016-06-30T14:26:16Z</time><pdop>9.0</pdop><geoidheight>53.00</geoidheight><course>95.2</course><type>1</type></trkpt>
      <trkpt lat="40.75795169" lon="-4.69073198"><ele>2075</ele><speed>11.53</speed><time>2016-06-30T14:26:18Z</time><pdop>9.0</pdop><geoidheight>53.00</geoidheight><course>102.1</course><type>1</type></trkpt>
      <trkpt lat="40.75790982" lon="-4.69051073"><ele>2076</ele><speed>9.79</speed><time>2016-06-30T14:26:20Z</time><pdop>9.0</pdop><geoidheight>53.00</geoidheight><course>105.1</course><type>1</type></trkpt>
      <trkpt lat="40.75787231" lon="-4.69025106"><ele>2071</ele><speed>11.26</speed><time>2016-06-30T14:26:22Z</time><pdop>9.0</pdop><geoidheight>53.00</geoidheight><course>101.4</course><type>1</type></trkpt>
      <trkpt lat="40.75784728" lon="-4.68994241"><ele>2065</ele><speed>13.53</speed><time>2016-06-30T14:26:24Z</time><pdop>9.0</pdop><geoidheight>53.00</geoidheight><course>96.1</course><type>1</type></trkpt>
      <trkpt lat="40.75782213" lon="-4.68960509"><ele>2065</ele><speed>14.08</speed><time>2016-06-30T14:26:26Z</time><pdop>9.0</pdop><geoidheight>53.00</geoidheight><course>96.0</course><type>1</type></trkpt>
      <trkpt lat="40.757772" lon="-4.68929312"><ele>2067</ele><speed>12.89</speed><time>2016-06-30T14:26:28Z</time><pdop>9.0</pdop><geoidheight>53.00</geoidheight><course>103.4</course><type>1</type></trkpt>
      <trkpt lat="40.75766236" lon="-4.68904403"><ele>2068</ele><speed>12.03</speed><time>2016-06-30T14:26:30Z</time><pdop>9.0</pdop><geoidheight>53.00</geoidheight><course>121.7</course><type>1</type></trkpt>
      <trkpt lat="40.75754956" lon="-4.68877876"><ele>2110</ele><speed>12.11</speed><time>2016-06-30T14:26:32Z</time><pdop>9.0</pdop><geoidheight>53.00</geoidheight><course>119.7</course><type>1</type></trkpt>
      <trkpt lat="40.75742455" lon="-4.68854221"><ele>2098</ele><speed>12.74</speed><time>2016-06-30T14:26:34Z</time><pdop>9.0</pdop><geoidheight>53.00</geoidheight><course>128.4</course><type>1</type></trkpt>
      <trkpt lat="40.75721848" lon="-4.68833724"><ele>2094</ele><speed>14.77</speed><time>2016-06-30T14:26:36Z</time><pdop>9.0</pdop><geoidheight>53.00</geoidheight><course>148.9</course><type>1</type></trkpt>
      <trkpt lat="40.75698113" lon="-4.68829105"><ele>2096</ele><speed>13.59</speed><time>2016-06-30T14:26:38Z</time><pdop>9.0</pdop><geoidheight>53.00</geoidheight><course>174.4</course><type>1</type></trkpt>
      <trkpt lat="40.75676897" lon="-4.68838448"><ele>2118</ele><speed>12.62</speed><time>2016-06-30T14:26:40Z</time><pdop>9.0</pdop><geoidheight>53.00</geoidheight><course>204.7</course><type>1</type></trkpt>
      <trkpt lat="40.75656556" lon="-4.68855078"><ele>2111</ele><speed>13.01</speed><time>2016-06-30T14:26:42Z</time><pdop>9.0</pdop><geoidheight>53.00</geoidheight><course>213.5</course><type>1</type></trkpt>
      <trkpt lat="40.7565085" lon="-4.68880021"><ele>2108</ele><speed>10.50</speed><time>2016-06-30T14:26:44Z</time><pdop>10.0</pdop><geoidheight>53.00</geoidheight><course>240.2</course><type>1</type></trkpt>
      <trkpt lat="40.75666257" lon="-4.68896213"><ele>2101</ele><speed>4.17</speed><time>2016-06-30T14:26:48Z</time><pdop>11.0</pdop><geoidheight>53.00</geoidheight><course>313.2</course><type>1</type></trkpt>
      <trkpt lat="40.75688475" lon="-4.68886838"><ele>2102</ele><speed>6.74</speed><time>2016-06-30T14:26:52Z</time><pdop>9.0</pdop><geoidheight>53.00</geoidheight><course>57.4</course><type>1</type></trkpt>
      <trkpt lat="40.75686467" lon="-4.68864928"><ele>2104</ele><speed>10.97</speed><time>2016-06-30T14:26:54Z</time><pdop>3.0</pdop><geoidheight>53.00</geoidheight><course>100.8</course><type>1</type></trkpt>
      <trkpt lat="40.75684248" lon="-4.68850515"><ele>2105</ele><speed>12.40</speed><time>2016-06-30T14:26:55Z</time><pdop>4.0</pdop><geoidheight>53.00</geoidheight><course>105.4</course><type>1</type></trkpt>
      <trkpt lat="40.75679421" lon="-4.68835744"><ele>2106</ele><speed>13.24</speed><time>2016-06-30T14:26:56Z</time><pdop>4.0</pdop><geoidheight>53.00</geoidheight><course>111.6</course><type>1</type></trkpt>
      <trkpt lat="40.75670294" lon="-4.68822407"><ele>2105</ele><speed>14.83</speed><time>2016-06-30T14:26:57Z</time><pdop>4.0</pdop><geoidheight>53.00</geoidheight><course>121.5</course><type>1</type></trkpt>
      <trkpt lat="40.7565629" lon="-4.68812783"><ele>2104</ele><speed>15.50</speed><time>2016-06-30T14:26:58Z</time><pdop>5.0</pdop><geoidheight>53.00</geoidheight><course>134.8</course><type>1</type></trkpt>
      <trkpt lat="40.7564456" lon="-4.6880708"><ele>2105</ele><speed>14.41</speed><time>2016-06-30T14:26:59Z</time><pdop>5.0</pdop><geoidheight>53.00</geoidheight><course>145.8</course><type>1</type></trkpt>
      <trkpt lat="40.75631967" lon="-4.68804777"><ele>2106</ele><speed>13.69</speed><time>2016-06-30T14:27:00Z</time><pdop>5.0</pdop><geoidheight>53.00</geoidheight><course>153.9</course><type>1</type></trkpt>
      <trkpt lat="40.75622347" lon="-4.68811307"><ele>2108</ele><speed>11.40</speed><time>2016-06-30T14:27:01Z</time><pdop>5.0</pdop><geoidheight>53.00</geoidheight><course>174.4</course><type>1</type></trkpt>
      <trkpt lat="40.75613537" lon="-4.68820703"><ele>2107</ele><speed>10.95</speed><time>2016-06-30T14:27:02Z</time><pdop>5.0</pdop><geoidheight>53.00</geoidheight><course>188.2</course><type>1</type></trkpt>
      <trkpt lat="40.75607216" lon="-4.68832135"><ele>2108</ele><speed>8.88</speed><time>2016-06-30T14:27:03Z</time><pdop>5.0</pdop><geoidheight>53.00</geoidheight><course>205.1</course><type>1</type></trkpt>
      <trkpt lat="40.75603324" lon="-4.68844608"><ele>2108</ele><speed>8.99</speed><time>2016-06-30T14:27:04Z</time><pdop>5.0</pdop><geoidheight>53.00</geoidheight><course>223.2</course><type>1</type></trkpt>
      <trkpt lat="40.75598991" lon="-4.68857333"><ele>2110</ele><speed>5.94</speed><time>2016-06-30T14:27:06Z</time><pdop>6.0</pdop><geoidheight>53.00</geoidheight><course>231.4</course><type>1</type></trkpt>
      <trkpt lat="40.75608965" lon="-4.68860755"><ele>2114</ele><speed>3.20</speed><time>2016-06-30T14:27:08Z</time><pdop>5.0</pdop><geoidheight>53.00</geoidheight><course>18.1</course><type>1</type></trkpt>
      <trkpt lat="40.75618593" lon="-4.68853319"><ele>2116</ele><speed>3.73</speed><time>2016-06-30T14:27:11Z</time><pdop>5.0</pdop><geoidheight>53.00</geoidheight><course>49.0</course><type>1</type></trkpt>
      <trkpt lat="40.75626092" lon="-4.68847642"><ele>2118</ele><speed>4.57</speed><time>2016-06-30T14:27:13Z</time><pdop>4.0</pdop><geoidheight>53.00</geoidheight><course>43.9</course><type>1</type></trkpt>
      <trkpt lat="40.75632869" lon="-4.68840371"><ele>2123</ele><speed>5.61</speed><time>2016-06-30T14:27:15Z</time><pdop>4.0</pdop><geoidheight>53.00</geoidheight><course>42.5</course><type>1</type></trkpt>
      <trkpt lat="40.75640337" lon="-4.68828825"><ele>2132</ele><speed>6.81</speed><time>2016-06-30T14:27:17Z</time><pdop>4.0</pdop><geoidheight>53.00</geoidheight><course>46.4</course><type>1</type></trkpt>
      <trkpt lat="40.75645415" lon="-4.68815916"><ele>2136</ele><speed>6.47</speed><time>2016-06-30T14:27:19Z</time><pdop>5.0</pdop><geoidheight>53.00</geoidheight><course>60.6</course><type>1</type></trkpt>
      <trkpt lat="40.75643636" lon="-4.68797553"><ele>2140</ele><speed>9.00</speed><time>2016-06-30T14:27:21Z</time><pdop>3.0</pdop><geoidheight>53.00</geoidheight><course>103.5</course><type>1</type></trkpt>
      <trkpt lat="40.7564126" lon="-4.68785457"><ele>2141</ele><speed>10.23</speed><time>2016-06-30T14:27:22Z</time><pdop>4.0</pdop><geoidheight>53.00</geoidheight><course>102.7</course><type>1</type></trkpt>
      <trkpt lat="40.75637684" lon="-4.68772787"><ele>2142</ele><speed>10.91</speed><time>2016-06-30T14:27:23Z</time><pdop>4.0</pdop><geoidheight>53.00</geoidheight><course>109.0</course><type>1</type></trkpt>
      <trkpt lat="40.75630542" lon="-4.68761976"><ele>2144</ele><speed>10.57</speed><time>2016-06-30T14:27:24Z</time><pdop>4.0</pdop><geoidheight>53.00</geoidheight><course>122.1</course><type>1</type></trkpt>
      <trkpt lat="40.75611973" lon="-4.68751311"><ele>2145</ele><speed>15.06</speed><time>2016-06-30T14:27:25Z</time><pdop>4.0</pdop><geoidheight>53.00</geoidheight><course>146.0</course><type>1</type></trkpt>
      <trkpt lat="40.75597439" lon="-4.68750036"><ele>2145</ele><speed>14.77</speed><time>2016-06-30T14:27:26Z</time><pdop>4.0</pdop><geoidheight>53.00</geoidheight><course>162.5</course><type>1</type></trkpt>
      <trkpt lat="40.75584165" lon="-4.68745011"><ele>2146</ele><speed>14.81</speed><time>2016-06-30T14:27:27Z</time><pdop>5.0</pdop><geoidheight>53.00</geoidheight><course>162.9</course><type>1</type></trkpt>
      <trkpt lat="40.75573943" lon="-4.68763758"><ele>2148</ele><speed>13.74</speed><time>2016-06-30T14:27:28Z</time><pdop>3.0</pdop><geoidheight>53.00</geoidheight><course>205.1</course><type>1</type></trkpt>
      <trkpt lat="40.75564452" lon="-4.68771171"><ele>2151</ele><speed>12.50</speed><time>2016-06-30T14:27:29Z</time><pdop>3.0</pdop><geoidheight>53.00</geoidheight><course>216.0</course><type>1</type></trkpt>
      <trkpt lat="40.75556648" lon="-4.68780535"><ele>2152</ele><speed>11.53</speed><time>2016-06-30T14:27:30Z</time><pdop>3.0</pdop><geoidheight>53.00</geoidheight><course>226.4</course><type>1</type></trkpt>
      <trkpt lat="40.75552281" lon="-4.6879105"><ele>2153</ele><speed>10.48</speed><time>2016-06-30T14:27:31Z</time><pdop>3.0</pdop><geoidheight>53.00</geoidheight><course>241.9</course><type>1</type></trkpt>
      <trkpt lat="40.75550781" lon="-4.68800967"><ele>2154</ele><speed>9.59</speed><time>2016-06-30T14:27:32Z</time><pdop>3.0</pdop><geoidheight>53.00</geoidheight><course>260.4</course><type>1</type></trkpt>
      <trkpt lat="40.7555249" lon="-4.68810377"><ele>2156</ele><speed>8.27</speed><time>2016-06-30T14:27:33Z</time><pdop>3.0</pdop><geoidheight>53.00</geoidheight><course>281.7</course><type>1</type></trkpt>
      <trkpt lat="40.75553586" lon="-4.68818915"><ele>2157</ele><speed>7.69</speed><time>2016-06-30T14:27:34Z</time><pdop>3.0</pdop><geoidheight>53.00</geoidheight><course>287.2</course><type>1</type></trkpt>
      <trkpt lat="40.7555954" lon="-4.68827017"><ele>2158</ele><speed>5.29</speed><time>2016-06-30T14:27:36Z</time><pdop>6.0</pdop><geoidheight>53.00</geoidheight><course>304.3</course><type>1</type></trkpt>
      <trkpt lat="40.75562952" lon="-4.68806205"><ele>2159</ele><speed>4.09</speed><time>2016-06-30T14:27:39Z</time><pdop>6.0</pdop><geoidheight>53.00</geoidheight><course>71.1</course><type>1</type></trkpt>
      <trkpt lat="40.75544959" lon="-4.68778921"><ele>2161</ele><speed>8.22</speed><time>2016-06-30T14:27:41Z</time><pdop>6.0</pdop><geoidheight>53.00</geoidheight><course>128.1</course><type>1</type></trkpt>
      <trkpt lat="40.75527891" lon="-4.68769445"><ele>2160</ele><speed>12.27</speed><time>2016-06-30T14:27:42Z</time><pdop>6.0</pdop><geoidheight>53.00</geoidheight><course>148.7</course><type>1</type></trkpt>
      <trkpt lat="40.75515207" lon="-4.6876413"><ele>2162</ele><speed>12.00</speed><time>2016-06-30T14:27:43Z</time><pdop>7.0</pdop><geoidheight>53.00</geoidheight><course>158.9</course><type>1</type></trkpt>
      <trkpt lat="40.75499315" lon="-4.68766534"><ele>2164</ele><speed>12.54</speed><time>2016-06-30T14:27:44Z</time><pdop>8.0</pdop><geoidheight>53.00</geoidheight><course>176.1</course><type>1</type></trkpt>
      <trkpt lat="40.7548739" lon="-4.68778707"><ele>2166</ele><speed>12.37</speed><time>2016-06-30T14:27:45Z</time><pdop>5.0</pdop><geoidheight>53.00</geoidheight><course>211.7</course><type>1</type></trkpt>
      <trkpt lat="40.75478501" lon="-4.68788699"><ele>2167</ele><speed>12.17</speed><time>2016-06-30T14:27:46Z</time><pdop>5.0</pdop><geoidheight>53.00</geoidheight><course>223.5</course><type>1</type></trkpt>
      <trkpt lat="40.75471855" lon="-4.68798302"><ele>2169</ele><speed>12.08</speed><time>2016-06-30T14:27:47Z</time><pdop>4.0</pdop><geoidheight>53.00</geoidheight><course>235.3</course><type>1</type></trkpt>
      <trkpt lat="40.75468053" lon="-4.68811157"><ele>2170</ele><speed>12.08</speed><time>2016-06-30T14:27:48Z</time><pdop>4.0</pdop><geoidheight>53.00</geoidheight><course>246.7</course><type>1</type></trkpt>
      <trkpt lat="40.75464785" lon="-4.6882327"><ele>2172</ele><speed>11.62</speed><time>2016-06-30T14:27:49Z</time><pdop>4.0</pdop><geoidheight>53.00</geoidheight><course>256.4</course><type>1</type></trkpt>
      <trkpt lat="40.75463225" lon="-4.68835989"><ele>2174</ele><speed>10.78</speed><time>2016-06-30T14:27:50Z</time><pdop>4.0</pdop><geoidheight>53.00</geoidheight><course>265.7</course><type>1</type></trkpt>
      <trkpt lat="40.75463396" lon="-4.68846443"><ele>2177</ele><speed>9.97</speed><time>2016-06-30T14:27:51Z</time><pdop>3.0</pdop><geoidheight>53.00</geoidheight><course>275.6</course><type>1</type></trkpt>
      <trkpt lat="40.7546487" lon="-4.68856004"><ele>2180</ele><speed>9.04</speed><time>2016-06-30T14:27:52Z</time><pdop>3.0</pdop><geoidheight>53.00</geoidheight><course>285.2</course><type>1</type></trkpt>
      <trkpt lat="40.75466404" lon="-4.68864249"><ele>2181</ele><speed>8.17</speed><time>2016-06-30T14:27:53Z</time><pdop>4.0</pdop><geoidheight>53.00</geoidheight><course>286.2</course><type>1</type></trkpt>
      <trkpt lat="40.75475816" lon="-4.68862481"><ele>2184</ele><speed>4.44</speed><time>2016-06-30T14:27:56Z</time><pdop>5.0</pdop><geoidheight>53.00</geoidheight><course>26.4</course><type>1</type></trkpt>
      <trkpt lat="40.75473716" lon="-4.68845635"><ele>2190</ele><speed>6.14</speed><time>2016-06-30T14:27:58Z</time><pdop>4.0</pdop><geoidheight>53.00</geoidheight><course>94.1</course><type>1</type></trkpt>
      <trkpt lat="40.75472675" lon="-4.68837353"><ele>2194</ele><speed>7.51</speed><time>2016-06-30T14:27:59Z</time><pdop>3.0</pdop><geoidheight>53.00</geoidheight><course>112.8</course><type>1</type></trkpt>
      <trkpt lat="40.75467794" lon="-4.68827256"><ele>2196</ele><speed>9.11</speed><time>2016-06-30T14:28:00Z</time><pdop>3.0</pdop><geoidheight>53.00</geoidheight><course>118.7</course><type>1</type></trkpt>
      <trkpt lat="40.75459104" lon="-4.68818594"><ele>2196</ele><speed>10.65</speed><time>2016-06-30T14:28:01Z</time><pdop>3.0</pdop><geoidheight>53.00</geoidheight><course>134.6</course><type>1</type></trkpt>
      <trkpt lat="40.7544306" lon="-4.68810393"><ele>2198</ele><speed>15.52</speed><time>2016-06-30T14:28:02Z</time><pdop>3.0</pdop><geoidheight>53.00</geoidheight><course>155.2</course><type>1</type></trkpt>
      <trkpt lat="40.75414821" lon="-4.68801487"><ele>2201</ele><speed>15.73</speed><time>2016-06-30T14:28:04Z</time><pdop>4.0</pdop><geoidheight>53.00</geoidheight><course>169.1</course><type>1</type></trkpt>
      <trkpt lat="40.75391618" lon="-4.68809426"><ele>2203</ele><speed>13.09</speed><time>2016-06-30T14:28:06Z</time><pdop>5.0</pdop><geoidheight>53.00</geoidheight><course>190.4</course><type>1</type></trkpt>
      <trkpt lat="40.75380525" lon="-4.68819789"><ele>2204</ele><speed>13.08</speed><time>2016-06-30T14:28:07Z</time><pdop>5.0</pdop><geoidheight>53.00</geoidheight><course>200.9</course><type>1</type></trkpt>
      <trkpt lat="40.75375756" lon="-4.68841889"><ele>2205</ele><speed>13.49</speed><time>2016-06-30T14:28:08Z</time><pdop>4.0</pdop><geoidheight>53.00</geoidheight><course>235.3</course><type>1</type></trkpt>
      <trkpt lat="40.75370966" lon="-4.68856341"><ele>2206</ele><speed>13.35</speed><time>2016-06-30T14:28:09Z</time><pdop>4.0</pdop><geoidheight>53.00</geoidheight><course>244.0</course><type>1</type></trkpt>
      <trkpt lat="40.75366679" lon="-4.68869456"><ele>2207</ele><speed>12.47</speed><time>2016-06-30T14:28:10Z</time><pdop>5.0</pdop><geoidheight>53.00</geoidheight><course>246.2</course><type>1</type></trkpt>
      <trkpt lat="40.75365304" lon="-4.6888913"><ele>2208</ele><speed>8.74</speed><time>2016-06-30T14:28:12Z</time><pdop>7.0</pdop><geoidheight>53.00</geoidheight><course>255.5</course><type>1</type></trkpt>
      <trkpt lat="40.75380715" lon="-4.68892521"><ele>2207</ele><speed>4.38</speed><time>2016-06-30T14:28:14Z</time><pdop>6.0</pdop><geoidheight>53.00</geoidheight><course>323.5</course><type>1</type></trkpt>
      <trkpt lat="40.75392696" lon="-4.68880416"><ele>2210</ele><speed>6.83</speed><time>2016-06-30T14:28:16Z</time><pdop>5.0</pdop><geoidheight>53.00</geoidheight><course>45.1</course><type>1</type></trkpt>
      <trkpt lat="40.75396605" lon="-4.68866639"><ele>2213</ele><speed>7.47</speed><time>2016-06-30T14:28:18Z</time><pdop>4.0</pdop><geoidheight>53.00</geoidheight><course>73.4</course><type>1</type></trkpt>
      <trkpt lat="40.7538921" lon="-4.68848176"><ele>2216</ele><speed>7.69</speed><time>2016-06-30T14:28:20Z</time><pdop>5.0</pdop><geoidheight>53.00</geoidheight><course>110.6</course><type>1</type></trkpt>
      <trkpt lat="40.75380483" lon="-4.68841635"><ele>2218</ele><speed>7.93</speed><time>2016-06-30T14:28:21Z</time><pdop>5.0</pdop><geoidheight>53.00</geoidheight><course>134.3</course><type>1</type></trkpt>
      <trkpt lat="40.75364883" lon="-4.68836188"><ele>2219</ele><speed>11.50</speed><time>2016-06-30T14:28:22Z</time><pdop>5.0</pdop><geoidheight>53.00</geoidheight><course>152.7</course><type>1</type></trkpt>
      <trkpt lat="40.75348964" lon="-4.68835866"><ele>2219</ele><speed>12.39</speed><time>2016-06-30T14:28:23Z</time><pdop>5.0</pdop><geoidheight>53.00</geoidheight><course>168.2</course><type>1</type></trkpt>
      <trkpt lat="40.7533534" lon="-4.68840013"><ele>2220</ele><speed>13.40</speed><time>2016-06-30T14:28:24Z</time><pdop>5.0</pdop><geoidheight>53.00</geoidheight><course>182.8</course><type>1</type></trkpt>
      <trkpt lat="40.75326047" lon="-4.68849781"><ele>2222</ele><speed>12.74</speed><time>2016-06-30T14:28:25Z</time><pdop>4.0</pdop><geoidheight>53.00</geoidheight><course>199.0</course><type>1</type></trkpt>
      <trkpt lat="40.75314746" lon="-4.68855182"><ele>2224</ele><speed>12.93</speed><time>2016-06-30T14:28:26Z</time><pdop>4.0</pdop><geoidheight>53.00</geoidheight><course>208.4</course><type>1</type></trkpt>
      <trkpt lat="40.75305244" lon="-4.68865633"><ele>2225</ele><speed>12.98</speed><time>2016-06-30T14:28:27Z</time><pdop>3.0</pdop><geoidheight>53.00</geoidheight><course>220.5</course><type>1</type></trkpt>
      <trkpt lat="40.7529871" lon="-4.68878133"><ele>2226</ele><speed>12.49</speed><time>2016-06-30T14:28:28Z</time><pdop>3.0</pdop><geoidheight>53.00</geoidheight><course>234.9</course><type>1</type></trkpt>
      <trkpt lat="40.75294992" lon="-4.68890217"><ele>2228</ele><speed>11.65</speed><time>2016-06-30T14:28:29Z</time><pdop>3.0</pdop><geoidheight>53.00</geoidheight><course>245.0</course><type>1</type></trkpt>
      <trkpt lat="40.75292138" lon="-4.68903196"><ele>2229</ele><speed>11.32</speed><time>2016-06-30T14:28:30Z</time><pdop>3.0</pdop><geoidheight>53.00</geoidheight><course>251.9</course><type>1</type></trkpt>
      <trkpt lat="40.75290841" lon="-4.68915248"><ele>2231</ele><speed>11.15</speed><time>2016-06-30T14:28:31Z</time><pdop>3.0</pdop><geoidheight>53.00</geoidheight><course>260.2</course><type>1</type></trkpt>
      <trkpt lat="40.75291313" lon="-4.68927862"><ele>2233</ele><speed>10.83</speed><time>2016-06-30T14:28:32Z</time><pdop>3.0</pdop><geoidheight>53.00</geoidheight><course>269.8</course><type>1</type></trkpt>
      <trkpt lat="40.75293797" lon="-4.6893798"><ele>2234</ele><speed>9.33</speed><time>2016-06-30T14:28:33Z</time><pdop>3.0</pdop><geoidheight>53.00</geoidheight><course>286.5</course><type>1</type></trkpt>
      <trkpt lat="40.75296927" lon="-4.68947595"><ele>2235</ele><speed>8.82</speed><time>2016-06-30T14:28:34Z</time><pdop>3.0</pdop><geoidheight>53.00</geoidheight><course>292.1</course><type>1</type></trkpt>
      <trkpt lat="40.75307086" lon="-4.68955519"><ele>2237</ele><speed>7.16</speed><time>2016-06-30T14:28:36Z</time><pdop>4.0</pdop><geoidheight>53.00</geoidheight><course>321.0</course><type>1</type></trkpt>
      <trkpt lat="40.75312667" lon="-4.68947881"><ele>2236</ele><speed>6.04</speed><time>2016-06-30T14:28:37Z</time><pdop>4.0</pdop><geoidheight>53.00</geoidheight><course>5.8</course><type>1</type></trkpt>
      <trkpt lat="40.75325178" lon="-4.68939484"><ele>2240</ele><speed>7.10</speed><time>2016-06-30T14:28:39Z</time><pdop>4.0</pdop><geoidheight>53.00</geoidheight><course>23.0</course><type>1</type></trkpt>
      <trkpt lat="40.75333211" lon="-4.68928393"><ele>2244</ele><speed>7.25</speed><time>2016-06-30T14:28:41Z</time><pdop>3.0</pdop><geoidheight>53.00</geoidheight><course>47.2</course><type>1</type></trkpt>
      <trkpt lat="40.75338568" lon="-4.68920222"><ele>2244</ele><speed>8.64</speed><time>2016-06-30T14:28:42Z</time><pdop>3.0</pdop><geoidheight>53.00</geoidheight><course>54.6</course><type>1</type></trkpt>
      <trkpt lat="40.75342252" lon="-4.68908931"><ele>2246</ele><speed>9.94</speed><time>2016-06-30T14:28:43Z</time><pdop>3.0</pdop><geoidheight>53.00</geoidheight><course>64.2</course><type>1</type></trkpt>
      <trkpt lat="40.75344648" lon="-4.68883385"><ele>2248</ele><speed>10.57</speed><time>2016-06-30T14:28:45Z</time><pdop>3.0</pdop><geoidheight>53.00</geoidheight><course>85.4</course><type>1</type></trkpt>
      <trkpt lat="40.75342056" lon="-4.68870736"><ele>2251</ele><speed>10.29</speed><time>2016-06-30T14:28:46Z</time><pdop>3.0</pdop><geoidheight>53.00</geoidheight><course>99.1</course><type>1</type></trkpt>
      <trkpt lat="40.7533844" lon="-4.68859768"><ele>2252</ele><speed>10.37</speed><time>2016-06-30T14:28:47Z</time><pdop>3.0</pdop><geoidheight>53.00</geoidheight><course>114.0</course><type>1</type></trkpt>
      <trkpt lat="40.75331854" lon="-4.68849074"><ele>2252</ele><speed>11.44</speed><time>2016-06-30T14:28:48Z</time><pdop>3.0</pdop><geoidheight>53.00</geoidheight><course>127.6</course><type>1</type></trkpt>
      <trkpt lat="40.7532277" lon="-4.68838372"><ele>2251</ele><speed>13.12</speed><time>2016-06-30T14:28:49Z</time><pdop>3.0</pdop><geoidheight>53.00</geoidheight><course>139.0</course><type>1</type></trkpt>
      <trkpt lat="40.7531122" lon="-4.68830063"><ele>2251</ele><speed>14.77</speed><time>2016-06-30T14:28:50Z</time><pdop>3.0</pdop><geoidheight>53.00</geoidheight><course>151.2</course><type>1</type></trkpt>
      <trkpt lat="40.75296734" lon="-4.68825043"><ele>2251</ele><speed>15.91</speed><time>2016-06-30T14:28:51Z</time><pdop>3.0</pdop><geoidheight>53.00</geoidheight><course>163.1</course><type>1</type></trkpt>
      <trkpt lat="40.75281872" lon="-4.68822799"><ele>2253</ele><speed>16.53</speed><time>2016-06-30T14:28:52Z</time><pdop>3.0</pdop><geoidheight>53.00</geoidheight><course>172.8</course><type>1</type></trkpt>
      <trkpt lat="40.75266885" lon="-4.68823401"><ele>2255</ele><speed>16.92</speed><time>2016-06-30T14:28:53Z</time><pdop>3.0</pdop><geoidheight>53.00</geoidheight><course>180.4</course><type>1</type></trkpt>
      <trkpt lat="40.75251794" lon="-4.68825635"><ele>2256</ele><speed>17.02</speed><time>2016-06-30T14:28:54Z</time><pdop>3.0</pdop><geoidheight>53.00</geoidheight><course>185.3</course><type>1</type></trkpt>
      <trkpt lat="40.75240128" lon="-4.6883212"><ele>2258</ele><speed>15.17</speed><time>2016-06-30T14:28:55Z</time><pdop>3.0</pdop><geoidheight>53.00</geoidheight><course>195.5</course><type>1</type></trkpt>
      <trkpt lat="40.75228326" lon="-4.68834782"><ele>2259</ele><speed>13.80</speed><time>2016-06-30T14:28:56Z</time><pdop>4.0</pdop><geoidheight>53.00</geoidheight><course>193.8</course><type>1</type></trkpt>
      <trkpt lat="40.75218752" lon="-4.68840867"><ele>2259</ele><speed>12.85</speed><time>2016-06-30T14:28:57Z</time><pdop>6.0</pdop><geoidheight>53.00</geoidheight><course>197.3</course><type>1</type></trkpt>
      <trkpt lat="40.75223163" lon="-4.68865827"><ele>2259</ele><speed>12.10</speed><time>2016-06-30T14:28:58Z</time><pdop>4.0</pdop><geoidheight>53.00</geoidheight><course>246.2</course><type>1</type></trkpt>
      <trkpt lat="40.75218765" lon="-4.68878936"><ele>2259</ele><speed>12.10</speed><time>2016-06-30T14:28:59Z</time><pdop>6.0</pdop><geoidheight>53.00</geoidheight><course>246.2</course><type>1</type></trkpt>
      <trkpt lat="40.75226878" lon="-4.68890884"><ele>2258</ele><speed>10.81</speed><time>2016-06-30T14:29:00Z</time><pdop>4.0</pdop><geoidheight>53.00</geoidheight><course>279.4</course><type>1</type></trkpt>
      <trkpt lat="40.75239904" lon="-4.68910139"><ele>2261</ele><speed>7.07</speed><time>2016-06-30T14:29:03Z</time><pdop>6.0</pdop><geoidheight>53.00</geoidheight><course>317.3</course><type>1</type></trkpt>
      <trkpt lat="40.75254601" lon="-4.68900036"><ele>2258</ele><speed>7.38</speed><time>2016-06-30T14:29:05Z</time><pdop>6.0</pdop><geoidheight>53.00</geoidheight><course>22.9</course><type>1</type></trkpt>
      <trkpt lat="40.75258313" lon="-4.68873204"><ele>2260</ele><speed>10.33</speed><time>2016-06-30T14:29:07Z</time><pdop>6.0</pdop><geoidheight>53.00</geoidheight><course>62.4</course><type>1</type></trkpt>
      <trkpt lat="40.75252162" lon="-4.68847138"><ele>2261</ele><speed>10.28</speed><time>2016-06-30T14:29:09Z</time><pdop>5.0</pdop><geoidheight>53.00</geoidheight><course>98.4</course><type>1</type></trkpt>
      <trkpt lat="40.75247535" lon="-4.68833961"><ele>2261</ele><speed>10.86</speed><time>2016-06-30T14:29:10Z</time><pdop>5.0</pdop><geoidheight>53.00</geoidheight><course>111.4</course><type>1</type></trkpt>
      <trkpt lat="40.75238885" lon="-4.68822131"><ele>2260</ele><speed>11.15</speed><time>2016-06-30T14:29:11Z</time><pdop>4.0</pdop><geoidheight>53.00</geoidheight><course>122.6</course><type>1</type></trkpt>
      <trkpt lat="40.75229297" lon="-4.68810794"><ele>2262</ele><speed>11.71</speed><time>2016-06-30T14:29:12Z</time><pdop>4.0</pdop><geoidheight>53.00</geoidheight><course>134.7</course><type>1</type></trkpt>
      <trkpt lat="40.75215716" lon="-4.68806825"><ele>2264</ele><speed>13.14</speed><time>2016-06-30T14:29:13Z</time><pdop>4.0</pdop><geoidheight>53.00</geoidheight><course>154.9</course><type>1</type></trkpt>
      <trkpt lat="40.75201651" lon="-4.68806229"><ele>2268</ele><speed>14.44</speed><time>2016-06-30T14:29:14Z</time><pdop>3.0</pdop><geoidheight>53.00</geoidheight><course>170.4</course><type>1</type></trkpt>
      <trkpt lat="40.75188725" lon="-4.68806159"><ele>2271</ele><speed>14.07</speed><time>2016-06-30T14:29:15Z</time><pdop>3.0</pdop><geoidheight>53.00</geoidheight><course>180.0</course><type>1</type></trkpt>
      <trkpt lat="40.75175543" lon="-4.6880792"><ele>2273</ele><speed>13.86</speed><time>2016-06-30T14:29:16Z</time><pdop>3.0</pdop><geoidheight>53.00</geoidheight><course>186.1</course><type>1</type></trkpt>
      <trkpt lat="40.75163863" lon="-4.6881148"><ele>2275</ele><speed>12.96</speed><time>2016-06-30T14:29:17Z</time><pdop>3.0</pdop><geoidheight>53.00</geoidheight><course>191.8</course><type>1</type></trkpt>
      <trkpt lat="40.75153149" lon="-4.68816707"><ele>2275</ele><speed>12.16</speed><time>2016-06-30T14:29:18Z</time><pdop>3.0</pdop><geoidheight>53.00</geoidheight><course>201.7</course><type>1</type></trkpt>
      <trkpt lat="40.75142879" lon="-4.68821707"><ele>2275</ele><speed>11.73</speed><time>2016-06-30T14:29:19Z</time><pdop>3.0</pdop><geoidheight>53.00</geoidheight><course>204.3</course><type>1</type></trkpt>
      <trkpt lat="40.75134951" lon="-4.68831255"><ele>2276</ele><speed>11.84</speed><time>2016-06-30T14:29:20Z</time><pdop>3.0</pdop><geoidheight>53.00</geoidheight><course>219.6</course><type>1</type></trkpt>
      <trkpt lat="40.75130086" lon="-4.68843134"><ele>2276</ele><speed>11.65</speed><time>2016-06-30T14:29:21Z</time><pdop>3.0</pdop><geoidheight>53.00</geoidheight><course>232.2</course><type>1</type></trkpt>
      <trkpt lat="40.75123967" lon="-4.6886029"><ele>2276</ele><speed>13.30</speed><time>2016-06-30T14:29:22Z</time><pdop>4.0</pdop><geoidheight>53.00</geoidheight><course>239.3</course><type>1</type></trkpt>
      <trkpt lat="40.75122004" lon="-4.68873165"><ele>2276</ele><speed>11.88</speed><time>2016-06-30T14:29:23Z</time><pdop>5.0</pdop><geoidheight>53.00</geoidheight><course>245.9</course><type>1</type></trkpt>
      <trkpt lat="40.75120505" lon="-4.68887268"><ele>2275</ele><speed>12.07</speed><time>2016-06-30T14:29:24Z</time><pdop>6.0</pdop><geoidheight>53.00</geoidheight><course>250.9</course><type>1</type></trkpt>
      <trkpt lat="40.7513184" lon="-4.68900995"><ele>2275</ele><speed>7.73</speed><time>2016-06-30T14:29:26Z</time><pdop>7.0</pdop><geoidheight>53.00</geoidheight><course>275.7</course><type>1</type></trkpt>
      <trkpt lat="40.75147912" lon="-4.68889176"><ele>2277</ele><speed>5.01</speed><time>2016-06-30T14:29:28Z</time><pdop>7.0</pdop><geoidheight>53.00</geoidheight><course>23.2</course><type>1</type></trkpt>
      <trkpt lat="40.75161168" lon="-4.68875016"><ele>2280</ele><speed>7.75</speed><time>2016-06-30T14:29:30Z</time><pdop>8.0</pdop><geoidheight>53.00</geoidheight><course>47.3</course><type>1</type></trkpt>
      <trkpt lat="40.75159529" lon="-4.68854642"><ele>2283</ele><speed>8.86</speed><time>2016-06-30T14:29:32Z</time><pdop>4.0</pdop><geoidheight>53.00</geoidheight><course>95.2</course><type>1</type></trkpt>
      <trkpt lat="40.75160515" lon="-4.68844417"><ele>2283</ele><speed>8.56</speed><time>2016-06-30T14:29:33Z</time><pdop>4.0</pdop><geoidheight>53.00</geoidheight><course>94.5</course><type>1</type></trkpt>
      <trkpt lat="40.75154346" lon="-4.68837228"><ele>2284</ele><speed>7.52</speed><time>2016-06-30T14:29:34Z</time><pdop>4.0</pdop><geoidheight>53.00</geoidheight><course>119.9</course><type>1</type></trkpt>
      <trkpt lat="40.75146498" lon="-4.68827701"><ele>2286</ele><speed>9.26</speed><time>2016-06-30T14:29:35Z</time><pdop>4.0</pdop><geoidheight>53.00</geoidheight><course>129.1</course><type>1</type></trkpt>
      <trkpt lat="40.75128482" lon="-4.68831494"><ele>2287</ele><speed>12.46</speed><time>2016-06-30T14:29:36Z</time><pdop>4.0</pdop><geoidheight>53.00</geoidheight><course>173.7</course><type>1</type></trkpt>
      <trkpt lat="40.7511522" lon="-4.68831883"><ele>2290</ele><speed>13.10</speed><time>2016-06-30T14:29:37Z</time><pdop>3.0</pdop><geoidheight>53.00</geoidheight><course>183.4</course><type>1</type></trkpt>
      <trkpt lat="40.75103363" lon="-4.68835894"><ele>2292</ele><speed>12.84</speed><time>2016-06-30T14:29:38Z</time><pdop>3.0</pdop><geoidheight>53.00</geoidheight><course>195.8</course><type>1</type></trkpt>
      <trkpt lat="40.75093018" lon="-4.68842108"><ele>2293</ele><speed>12.92</speed><time>2016-06-30T14:29:39Z</time><pdop>3.0</pdop><geoidheight>53.00</geoidheight><course>207.8</course><type>1</type></trkpt>
      <trkpt lat="40.75084559" lon="-4.68852933"><ele>2293</ele><speed>12.62</speed><time>2016-06-30T14:29:40Z</time><pdop>3.0</pdop><geoidheight>53.00</geoidheight><course>223.3</course><type>1</type></trkpt>
      <trkpt lat="40.75075795" lon="-4.68863362"><ele>2293</ele><speed>12.96</speed><time>2016-06-30T14:29:41Z</time><pdop>3.0</pdop><geoidheight>53.00</geoidheight><course>224.2</course><type>1</type></trkpt>
      <trkpt lat="40.75070454" lon="-4.68873716"><ele>2293</ele><speed>12.29</speed><time>2016-06-30T14:29:42Z</time><pdop>5.0</pdop><geoidheight>53.00</geoidheight><course>229.0</course><type>1</type></trkpt>
      <trkpt lat="40.75068853" lon="-4.68895572"><ele>2294</ele><speed>9.90</speed><time>2016-06-30T14:29:44Z</time><pdop>8.0</pdop><geoidheight>53.00</geoidheight><course>248.0</course><type>1</type></trkpt>
      <trkpt lat="40.75090318" lon="-4.68914016"><ele>2295</ele><speed>8.52</speed><time>2016-06-30T14:29:46Z</time><pdop>7.0</pdop><geoidheight>53.00</geoidheight><course>303.0</course><type>1</type></trkpt>
      <trkpt lat="40.75108813" lon="-4.68914003"><ele>2296</ele><speed>7.35</speed><time>2016-06-30T14:29:48Z</time><pdop>5.0</pdop><geoidheight>53.00</geoidheight><course>342.4</course><type>1</type></trkpt>
      <trkpt lat="40.75117876" lon="-4.68912833"><ele>2416</ele><speed>7.67</speed><time>2016-06-30T14:29:49Z</time><pdop>5.0</pdop><geoidheight>53.00</geoidheight><course>356.9</course><type>1</type></trkpt>
      <trkpt lat="40.75128504" lon="-4.68906297"><ele>2357</ele><speed>7.86</speed><time>2016-06-30T14:29:51Z</time><pdop>5.0</pdop><geoidheight>53.00</geoidheight><course>20.4</course><type>1</type></trkpt>
      <trkpt lat="40.75139659" lon="-4.68896637"><ele>2337</ele><speed>8.12</speed><time>2016-06-30T14:29:53Z</time><pdop>5.0</pdop><geoidheight>53.00</geoidheight><course>32.7</course><type>1</type></trkpt>
      <trkpt lat="40.75146141" lon="-4.68876703"><ele>2317</ele><speed>10.19</speed><time>2016-06-30T14:29:55Z</time><pdop>4.0</pdop><geoidheight>53.00</geoidheight><course>70.9</course><type>1</type></trkpt>
      <trkpt lat="40.75148827" lon="-4.68863521"><ele>2312</ele><speed>11.18</speed><time>2016-06-30T14:29:56Z</time><pdop>4.0</pdop><geoidheight>53.00</geoidheight><course>73.2</course><type>1</type></trkpt>
      <trkpt lat="40.75150205" lon="-4.68851545"><ele>2312</ele><speed>10.91</speed><time>2016-06-30T14:29:57Z</time><pdop>4.0</pdop><geoidheight>53.00</geoidheight><course>78.9</course><type>1</type></trkpt>
      <trkpt lat="40.75151239" lon="-4.68839156"><ele>2312</ele><speed>10.51</speed><time>2016-06-30T14:29:58Z</time><pdop>5.0</pdop><geoidheight>53.00</geoidheight><course>83.3</course><type>1</type></trkpt>
      <trkpt lat="40.75148066" lon="-4.6882368"><ele>2312</ele><speed>11.40</speed><time>2016-06-30T14:29:59Z</time><pdop>4.0</pdop><geoidheight>53.00</geoidheight><course>93.1</course><type>1</type></trkpt>
      <trkpt lat="40.75147843" lon="-4.68810567"><ele>2312</ele><speed>11.04</speed><time>2016-06-30T14:30:00Z</time><pdop>4.0</pdop><geoidheight>53.00</geoidheight><course>94.0</course><type>1</type></trkpt>
      <trkpt lat="40.75146177" lon="-4.68796729"><ele>2313</ele><speed>11.21</speed><time>2016-06-30T14:30:01Z</time><pdop>4.0</pdop><geoidheight>53.00</geoidheight><course>97.1</course><type>1</type></trkpt>
      <trkpt lat="40.75143584" lon="-4.68782118"><ele>2312</ele><speed>12.05</speed><time>2016-06-30T14:30:02Z</time><pdop>4.0</pdop><geoidheight>53.00</geoidheight><course>101.2</course><type>1</type></trkpt>
      <trkpt lat="40.7513997" lon="-4.68768471"><ele>2312</ele><speed>12.30</speed><time>2016-06-30T14:30:03Z</time><pdop>4.0</pdop><geoidheight>53.00</geoidheight><course>107.9</course><type>1</type></trkpt>
      <trkpt lat="40.75131988" lon="-4.68742037"><ele>2313</ele><speed>11.70</speed><time>2016-06-30T14:30:05Z</time><pdop>3.0</pdop><geoidheight>53.00</geoidheight><course>111.1</course><type>1</type></trkpt>
      <trkpt lat="40.75128271" lon="-4.68729"><ele>2314</ele><speed>11.13</speed><time>2016-06-30T14:30:06Z</time><pdop>3.0</pdop><geoidheight>53.00</geoidheight><course>110.4</course><type>1</type></trkpt>
      <trkpt lat="40.75125918" lon="-4.68717799"><ele>2315</ele><speed>10.53</speed><time>2016-06-30T14:30:07Z</time><pdop>3.0</pdop><geoidheight>53.00</geoidheight><course>106.6</course><type>1</type></trkpt>
      <trkpt lat="40.75124272" lon="-4.68706717"><ele>2315</ele><speed>9.85</speed><time>2016-06-30T14:30:08Z</time><pdop>4.0</pdop><geoidheight>53.00</geoidheight><course>102.1</course><type>1</type></trkpt>
      <trkpt lat="40.75122263" lon="-4.68694326"><ele>2316</ele><speed>10.01</speed><time>2016-06-30T14:30:09Z</time><pdop>4.0</pdop><geoidheight>53.00</geoidheight><course>101.2</course><type>1</type></trkpt>
      <trkpt lat="40.75119655" lon="-4.68684089"><ele>2314</ele><speed>9.35</speed><time>2016-06-30T14:30:10Z</time><pdop>4.0</pdop><geoidheight>53.00</geoidheight><course>102.6</course><type>1</type></trkpt>
      <trkpt lat="40.75117394" lon="-4.68670856"><ele>2313</ele><speed>10.63</speed><time>2016-06-30T14:30:11Z</time><pdop>4.0</pdop><geoidheight>53.00</geoidheight><course>106.1</course><type>1</type></trkpt>
      <trkpt lat="40.75114816" lon="-4.68656968"><ele>2311</ele><speed>11.36</speed><time>2016-06-30T14:30:12Z</time><pdop>3.0</pdop><geoidheight>53.00</geoidheight><course>104.7</course><type>1</type></trkpt>
      <trkpt lat="40.75113667" lon="-4.68645702"><ele>2308</ele><speed>11.32</speed><time>2016-06-30T14:30:13Z</time><pdop>3.0</pdop><geoidheight>53.00</geoidheight><course>97.0</course><type>1</type></trkpt>
      <trkpt lat="40.75112761" lon="-4.68631143"><ele>2307</ele><speed>11.84</speed><time>2016-06-30T14:30:14Z</time><pdop>3.0</pdop><geoidheight>53.00</geoidheight><course>94.5</course><type>1</type></trkpt>
      <trkpt lat="40.75112456" lon="-4.68617108"><ele>2307</ele><speed>11.76</speed><time>2016-06-30T14:30:15Z</time><pdop>3.0</pdop><geoidheight>53.00</geoidheight><course>89.4</course><type>1</type></trkpt>
      <trkpt lat="40.7511365" lon="-4.68603019"><ele>2308</ele><speed>11.06</speed><time>2016-06-30T14:30:16Z</time><pdop>3.0</pdop><geoidheight>53.00</geoidheight><course>85.2</course><type>1</type></trkpt>
      <trkpt lat="40.75115403" lon="-4.68591359"><ele>2309</ele><speed>9.25</speed><time>2016-06-30T14:30:17Z</time><pdop>3.0</pdop><geoidheight>53.00</geoidheight><course>82.9</course><type>1</type></trkpt>
      <trkpt lat="40.75118288" lon="-4.6858206"><ele>2311</ele><speed>7.72</speed><time>2016-06-30T14:30:18Z</time><pdop>3.0</pdop><geoidheight>53.00</geoidheight><course>70.4</course><type>1</type></trkpt>
      <trkpt lat="40.75121372" lon="-4.68575398"><ele>2311</ele><speed>6.82</speed><time>2016-06-30T14:30:19Z</time><pdop>3.0</pdop><geoidheight>53.00</geoidheight><course>64.2</course><type>1</type></trkpt>
      <trkpt lat="40.75123604" lon="-4.68567429"><ele>2310</ele><speed>7.40</speed><time>2016-06-30T14:30:20Z</time><pdop>3.0</pdop><geoidheight>53.00</geoidheight><course>65.3</course><type>1</type></trkpt>
      <trkpt lat="40.75125941" lon="-4.68556768"><ele>2308</ele><speed>9.26</speed><time>2016-06-30T14:30:21Z</time><pdop>3.0</pdop><geoidheight>53.00</geoidheight><course>70.2</course><type>1</type></trkpt>
      <trkpt lat="40.75128451" lon="-4.68544814"><ele>2305</ele><speed>10.95</speed><time>2016-06-30T14:30:22Z</time><pdop>3.0</pdop><geoidheight>53.00</geoidheight><course>75.3</course><type>1</type></trkpt>
      <trkpt lat="40.75130193" lon="-4.68530455"><ele>2305</ele><speed>11.94</speed><time>2016-06-30T14:30:23Z</time><pdop>3.0</pdop><geoidheight>53.00</geoidheight><course>80.7</course><type>1</type></trkpt>
      <trkpt lat="40.75130531" lon="-4.68516213"><ele>2305</ele><speed>12.16</speed><time>2016-06-30T14:30:24Z</time><pdop>3.0</pdop><geoidheight>53.00</geoidheight><course>87.3</course><type>1</type></trkpt>
      <trkpt lat="40.75130735" lon="-4.68501851"><ele>2304</ele><speed>11.94</speed><time>2016-06-30T14:30:25Z</time><pdop>3.0</pdop><geoidheight>53.00</geoidheight><course>92.3</course><type>1</type></trkpt>
      <trkpt lat="40.75130522" lon="-4.68488291"><ele>2303</ele><speed>11.39</speed><time>2016-06-30T14:30:26Z</time><pdop>3.0</pdop><geoidheight>53.00</geoidheight><course>94.4</course><type>1</type></trkpt>
      <trkpt lat="40.75130446" lon="-4.68474535"><ele>2303</ele><speed>11.51</speed><time>2016-06-30T14:30:27Z</time><pdop>3.0</pdop><geoidheight>53.00</geoidheight><course>91.4</course><type>1</type></trkpt>
      <trkpt lat="40.75131265" lon="-4.68461491"><ele>2300</ele><speed>11.30</speed><time>2016-06-30T14:30:28Z</time><pdop>3.0</pdop><geoidheight>53.00</geoidheight><course>88.6</course><type>1</type></trkpt>
      <trkpt lat="40.75132034" lon="-4.68446678"><ele>2298</ele><speed>12.37</speed><time>2016-06-30T14:30:29Z</time><pdop>3.0</pdop><geoidheight>53.00</geoidheight><course>87.0</course><type>1</type></trkpt>
      <trkpt lat="40.75132154" lon="-4.68429823"><ele>2302</ele><speed>13.36</speed><time>2016-06-30T14:30:30Z</time><pdop>4.0</pdop><geoidheight>53.00</geoidheight><course>88.0</course><type>1</type></trkpt>
      <trkpt lat="40.75133676" lon="-4.68412351"><ele>2300</ele><speed>14.69</speed><time>2016-06-30T14:30:31Z</time><pdop>5.0</pdop><geoidheight>53.00</geoidheight><course>85.8</course><type>1</type></trkpt>
      <trkpt lat="40.75134831" lon="-4.68394729"><ele>2297</ele><speed>15.08</speed><time>2016-06-30T14:30:32Z</time><pdop>4.0</pdop><geoidheight>53.00</geoidheight><course>86.8</course><type>1</type></trkpt>
      <trkpt lat="40.75133545" lon="-4.68378783"><ele>2295</ele><speed>14.08</speed><time>2016-06-30T14:30:33Z</time><pdop>4.0</pdop><geoidheight>53.00</geoidheight><course>89.8</course><type>1</type></trkpt>
      <trkpt lat="40.75133672" lon="-4.68363472"><ele>2294</ele><speed>12.83</speed><time>2016-06-30T14:30:34Z</time><pdop>4.0</pdop><geoidheight>53.00</geoidheight><course>88.9</course><type>1</type></trkpt>
      <trkpt lat="40.75133033" lon="-4.68347978"><ele>2294</ele><speed>12.60</speed><time>2016-06-30T14:30:35Z</time><pdop>4.0</pdop><geoidheight>53.00</geoidheight><course>90.2</course><type>1</type></trkpt>
      <trkpt lat="40.75134056" lon="-4.68331429"><ele>2293</ele><speed>13.19</speed><time>2016-06-30T14:30:36Z</time><pdop>5.0</pdop><geoidheight>53.00</geoidheight><course>88.9</course><type>1</type></trkpt>
      <trkpt lat="40.75136067" lon="-4.68313055"><ele>2291</ele><speed>15.21</speed><time>2016-06-30T14:30:37Z</time><pdop>5.0</pdop><geoidheight>53.00</geoidheight><course>85.2</course><type>1</type></trkpt>
      <trkpt lat="40.75137927" lon="-4.68293871"><ele>2289</ele><speed>16.18</speed><time>2016-06-30T14:30:38Z</time><pdop>5.0</pdop><geoidheight>53.00</geoidheight><course>84.0</course><type>1</type></trkpt>
      <trkpt lat="40.75142982" lon="-4.68274831"><ele>2289</ele><speed>16.39</speed><time>2016-06-30T14:30:39Z</time><pdop>6.0</pdop><geoidheight>53.00</geoidheight><course>80.4</course><type>1</type></trkpt>
      <trkpt lat="40.75144869" lon="-4.68260679"><ele>2292</ele><speed>13.63</speed><time>2016-06-30T14:30:40Z</time><pdop>4.0</pdop><geoidheight>53.00</geoidheight><course>81.6</course><type>1</type></trkpt>
      <trkpt lat="40.75146425" lon="-4.68246946"><ele>2294</ele><speed>11.99</speed><time>2016-06-30T14:30:41Z</time><pdop>4.0</pdop><geoidheight>53.00</geoidheight><course>82.7</course><type>1</type></trkpt>
      <trkpt lat="40.75147007" lon="-4.68232745"><ele>2295</ele><speed>11.50</speed><time>2016-06-30T14:30:42Z</time><pdop>5.0</pdop><geoidheight>53.00</geoidheight><course>83.5</course><type>1</type></trkpt>
      <trkpt lat="40.7514794" lon="-4.68221549"><ele>2296</ele><speed>10.33</speed><time>2016-06-30T14:30:43Z</time><pdop>4.0</pdop><geoidheight>53.00</geoidheight><course>85.4</course><type>1</type></trkpt>
      <trkpt lat="40.75145018" lon="-4.68209093"><ele>2297</ele><speed>10.09</speed><time>2016-06-30T14:30:44Z</time><pdop>4.0</pdop><geoidheight>53.00</geoidheight><course>92.3</course><type>1</type></trkpt>
      <trkpt lat="40.75145674" lon="-4.68197264"><ele>2298</ele><speed>10.01</speed><time>2016-06-30T14:30:45Z</time><pdop>4.0</pdop><geoidheight>53.00</geoidheight><course>91.7</course><type>1</type></trkpt>
      <trkpt lat="40.75146549" lon="-4.68185891"><ele>2298</ele><speed>9.97</speed><time>2016-06-30T14:30:46Z</time><pdop>4.0</pdop><geoidheight>53.00</geoidheight><course>90.5</course><type>1</type></trkpt>
      <trkpt lat="40.75146074" lon="-4.68172249"><ele>2299</ele><speed>10.91</speed><time>2016-06-30T14:30:47Z</time><pdop>4.0</pdop><geoidheight>53.00</geoidheight><course>95.1</course><type>1</type></trkpt>
      <trkpt lat="40.75146077" lon="-4.68159817"><ele>2300</ele><speed>11.51</speed><time>2016-06-30T14:30:48Z</time><pdop>3.0</pdop><geoidheight>53.00</geoidheight><course>98.2</course><type>1</type></trkpt>
      <trkpt lat="40.75144223" lon="-4.68145396"><ele>2301</ele><speed>11.88</speed><time>2016-06-30T14:30:49Z</time><pdop>3.0</pdop><geoidheight>53.00</geoidheight><course>98.1</course><type>1</type></trkpt>
      <trkpt lat="40.75143512" lon="-4.68131311"><ele>2302</ele><speed>11.66</speed><time>2016-06-30T14:30:50Z</time><pdop>3.0</pdop><geoidheight>53.00</geoidheight><course>95.1</course><type>1</type></trkpt>
      <trkpt lat="40.75142841" lon="-4.68118651"><ele>2302</ele><speed>11.63</speed><time>2016-06-30T14:30:51Z</time><pdop>3.0</pdop><geoidheight>53.00</geoidheight><course>88.6</course><type>1</type></trkpt>
      <trkpt lat="40.75145155" lon="-4.68105193"><ele>2303</ele><speed>11.69</speed><time>2016-06-30T14:30:52Z</time><pdop>3.0</pdop><geoidheight>53.00</geoidheight><course>81.6</course><type>1</type></trkpt>
      <trkpt lat="40.75147514" lon="-4.68091686"><ele>2305</ele><speed>11.57</speed><time>2016-06-30T14:30:53Z</time><pdop>3.0</pdop><geoidheight>53.00</geoidheight><course>76.7</course><type>1</type></trkpt>
      <trkpt lat="40.75148496" lon="-4.68079085"><ele>2306</ele><speed>11.48</speed><time>2016-06-30T14:30:54Z</time><pdop>3.0</pdop><geoidheight>53.00</geoidheight><course>77.7</course><type>1</type></trkpt>
      <trkpt lat="40.7515047" lon="-4.68065615"><ele>2308</ele><speed>11.73</speed><time>2016-06-30T14:30:55Z</time><pdop>3.0</pdop><geoidheight>53.00</geoidheight><course>81.2</course><type>1</type></trkpt>
      <trkpt lat="40.75151459" lon="-4.68052356"><ele>2309</ele><speed>11.41</speed><time>2016-06-30T14:30:56Z</time><pdop>3.0</pdop><geoidheight>53.00</geoidheight><course>85.5</course><type>1</type></trkpt>
      <trkpt lat="40.75151444" lon="-4.68040247"><ele>2311</ele><speed>10.51</speed><time>2016-06-30T14:30:57Z</time><pdop>3.0</pdop><geoidheight>53.00</geoidheight><course>88.3</course><type>1</type></trkpt>
      <trkpt lat="40.75151521" lon="-4.68029276"><ele>2312</ele><speed>9.46</speed><time>2016-06-30T14:30:58Z</time><pdop>3.0</pdop><geoidheight>53.00</geoidheight><course>86.8</course><type>1</type></trkpt>
      <trkpt lat="40.75152828" lon="-4.68018799"><ele>2312</ele><speed>9.37</speed><time>2016-06-30T14:30:59Z</time><pdop>3.0</pdop><geoidheight>53.00</geoidheight><course>83.5</course><type>1</type></trkpt>
      <trkpt lat="40.75154074" lon="-4.68007602"><ele>2312</ele><speed>9.38</speed><time>2016-06-30T14:31:00Z</time><pdop>4.0</pdop><geoidheight>53.00</geoidheight><course>81.7</course><type>1</type></trkpt>
      <trkpt lat="40.75156428" lon="-4.67996603"><ele>2312</ele><speed>9.50</speed><time>2016-06-30T14:31:01Z</time><pdop>4.0</pdop><geoidheight>53.00</geoidheight><course>81.4</course><type>1</type></trkpt>
      <trkpt lat="40.75157582" lon="-4.67985311"><ele>2311</ele><speed>9.46</speed><time>2016-06-30T14:31:02Z</time><pdop>3.0</pdop><geoidheight>53.00</geoidheight><course>83.3</course><type>1</type></trkpt>
      <trkpt lat="40.75158753" lon="-4.67974373"><ele>2311</ele><speed>9.23</speed><time>2016-06-30T14:31:03Z</time><pdop>3.0</pdop><geoidheight>53.00</geoidheight><course>84.1</course><type>1</type></trkpt>
      <trkpt lat="40.75158275" lon="-4.67962491"><ele>2310</ele><speed>9.47</speed><time>2016-06-30T14:31:04Z</time><pdop>3.0</pdop><geoidheight>53.00</geoidheight><course>84.2</course><type>1</type></trkpt>
      <trkpt lat="40.75159704" lon="-4.67951079"><ele>2309</ele><speed>10.22</speed><time>2016-06-30T14:31:05Z</time><pdop>4.0</pdop><geoidheight>53.00</geoidheight><course>83.0</course><type>1</type></trkpt>
      <trkpt lat="40.75161016" lon="-4.67938686"><ele>2308</ele><speed>10.79</speed><time>2016-06-30T14:31:06Z</time><pdop>4.0</pdop><geoidheight>53.00</geoidheight><course>82.3</course><type>1</type></trkpt>
      <trkpt lat="40.75163306" lon="-4.67925761"><ele>2307</ele><speed>11.01</speed><time>2016-06-30T14:31:07Z</time><pdop>4.0</pdop><geoidheight>53.00</geoidheight><course>79.7</course><type>1</type></trkpt>
      <trkpt lat="40.75164342" lon="-4.67912483"><ele>2306</ele><speed>11.22</speed><time>2016-06-30T14:31:08Z</time><pdop>5.0</pdop><geoidheight>53.00</geoidheight><course>79.2</course><type>1</type></trkpt>
      <trkpt lat="40.75168913" lon="-4.67901105"><ele>2305</ele><speed>10.49</speed><time>2016-06-30T14:31:09Z</time><pdop>4.0</pdop><geoidheight>53.00</geoidheight><course>69.5</course><type>1</type></trkpt>
      <trkpt lat="40.75173321" lon="-4.67889417"><ele>2303</ele><speed>10.89</speed><time>2016-06-30T14:31:10Z</time><pdop>4.0</pdop><geoidheight>53.00</geoidheight><course>65.1</course><type>1</type></trkpt>
      <trkpt lat="40.75176631" lon="-4.67876523"><ele>2302</ele><speed>11.41</speed><time>2016-06-30T14:31:11Z</time><pdop>4.0</pdop><geoidheight>53.00</geoidheight><course>64.6</course><type>1</type></trkpt>
      <trkpt lat="40.75181084" lon="-4.67862785"><ele>2300</ele><speed>12.54</speed><time>2016-06-30T14:31:12Z</time><pdop>4.0</pdop><geoidheight>53.00</geoidheight><course>65.6</course><type>1</type></trkpt>
      <trkpt lat="40.75185653" lon="-4.67847399"><ele>2299</ele><speed>13.51</speed><time>2016-06-30T14:31:13Z</time><pdop>4.0</pdop><geoidheight>53.00</geoidheight><course>67.1</course><type>1</type></trkpt>
      <trkpt lat="40.75192451" lon="-4.67831933"><ele>2297</ele><speed>14.25</speed><time>2016-06-30T14:31:14Z</time><pdop>4.0</pdop><geoidheight>53.00</geoidheight><course>62.3</course><type>1</type></trkpt>
      <trkpt lat="40.75200132" lon="-4.67817615"><ele>2297</ele><speed>14.07</speed><time>2016-06-30T14:31:15Z</time><pdop>4.0</pdop><geoidheight>53.00</geoidheight><course>59.5</course><type>1</type></trkpt>
      <trkpt lat="40.75206206" lon="-4.67804338"><ele>2296</ele><speed>13.53</speed><time>2016-06-30T14:31:16Z</time><pdop>4.0</pdop><geoidheight>53.00</geoidheight><course>58.6</course><type>1</type></trkpt>
      <trkpt lat="40.75211729" lon="-4.67791589"><ele>2296</ele><speed>12.26</speed><time>2016-06-30T14:31:17Z</time><pdop>4.0</pdop><geoidheight>53.00</geoidheight><course>59.6</course><type>1</type></trkpt>
      <trkpt lat="40.75216276" lon="-4.6777933"><ele>2294</ele><speed>11.62</speed><time>2016-06-30T14:31:18Z</time><pdop>3.0</pdop><geoidheight>53.00</geoidheight><course>62.5</course><type>1</type></trkpt>
      <trkpt lat="40.75221352" lon="-4.67767428"><ele>2293</ele><speed>12.23</speed><time>2016-06-30T14:31:19Z</time><pdop>4.0</pdop><geoidheight>53.00</geoidheight><course>65.4</course><type>1</type></trkpt>
      <trkpt lat="40.75226566" lon="-4.67753905"><ele>2289</ele><speed>12.95</speed><time>2016-06-30T14:31:20Z</time><pdop>3.0</pdop><geoidheight>53.00</geoidheight><course>65.5</course><type>1</type></trkpt>
      <trkpt lat="40.75231942" lon="-4.67739095"><ele>2289</ele><speed>13.44</speed><time>2016-06-30T14:31:21Z</time><pdop>3.0</pdop><geoidheight>53.00</geoidheight><course>65.4</course><type>1</type></trkpt>
      <trkpt lat="40.75237978" lon="-4.67724532"><ele>2288</ele><speed>13.79</speed><time>2016-06-30T14:31:22Z</time><pdop>4.0</pdop><geoidheight>53.00</geoidheight><course>64.4</course><type>1</type></trkpt>
      <trkpt lat="40.7524247" lon="-4.67710133"><ele>2288</ele><speed>13.06</speed><time>2016-06-30T14:31:23Z</time><pdop>4.0</pdop><geoidheight>53.00</geoidheight><course>65.3</course><type>1</type></trkpt>
      <trkpt lat="40.75248083" lon="-4.67698871"><ele>2287</ele><speed>11.60</speed><time>2016-06-30T14:31:24Z</time><pdop>4.0</pdop><geoidheight>53.00</geoidheight><course>63.3</course><type>1</type></trkpt>
      <trkpt lat="40.75252543" lon="-4.67686221"><ele>2286</ele><speed>11.52</speed><time>2016-06-30T14:31:25Z</time><pdop>4.0</pdop><geoidheight>53.00</geoidheight><course>64.4</course><type>1</type></trkpt>
      <trkpt lat="40.75258236" lon="-4.67673495"><ele>2286</ele><speed>12.20</speed><time>2016-06-30T14:31:26Z</time><pdop>4.0</pdop><geoidheight>53.00</geoidheight><course>62.3</course><type>1</type></trkpt>
      <trkpt lat="40.75263468" lon="-4.67660842"><ele>2285</ele><speed>12.61</speed><time>2016-06-30T14:31:27Z</time><pdop>4.0</pdop><geoidheight>53.00</geoidheight><course>60.7</course><type>1</type></trkpt>
      <trkpt lat="40.75268794" lon="-4.67649394"><ele>2285</ele><speed>12.42</speed><time>2016-06-30T14:31:28Z</time><pdop>4.0</pdop><geoidheight>53.00</geoidheight><course>59.9</course><type>1</type></trkpt>
      <trkpt lat="40.75273978" lon="-4.67638093"><ele>2285</ele><speed>11.39</speed><time>2016-06-30T14:31:29Z</time><pdop>3.0</pdop><geoidheight>53.00</geoidheight><course>61.4</course><type>1</type></trkpt>
      <trkpt lat="40.75278022" lon="-4.67627598"><ele>2285</ele><speed>10.26</speed><time>2016-06-30T14:31:30Z</time><pdop>3.0</pdop><geoidheight>53.00</geoidheight><course>64.6</course><type>1</type></trkpt>
      <trkpt lat="40.75280388" lon="-4.67618516"><ele>2284</ele><speed>9.87</speed><time>2016-06-30T14:31:31Z</time><pdop>3.0</pdop><geoidheight>53.00</geoidheight><course>72.1</course><type>1</type></trkpt>
      <trkpt lat="40.75282261" lon="-4.67607515"><ele>2284</ele><speed>9.76</speed><time>2016-06-30T14:31:32Z</time><pdop>3.0</pdop><geoidheight>53.00</geoidheight><course>79.4</course><type>1</type></trkpt>
      <trkpt lat="40.7528301" lon="-4.67597376"><ele>2296</ele><speed>9.04</speed><time>2016-06-30T14:31:33Z</time><pdop>3.0</pdop><geoidheight>53.00</geoidheight><course>86.6</course><type>1</type></trkpt>
      <trkpt lat="40.75282469" lon="-4.67586408"><ele>2291</ele><speed>8.88</speed><time>2016-06-30T14:31:34Z</time><pdop>3.0</pdop><geoidheight>53.00</geoidheight><course>91.1</course><type>1</type></trkpt>
      <trkpt lat="40.75282069" lon="-4.67575871"><ele>2287</ele><speed>9.01</speed><time>2016-06-30T14:31:35Z</time><pdop>3.0</pdop><geoidheight>53.00</geoidheight><course>91.8</course><type>1</type></trkpt>
      <trkpt lat="40.75282492" lon="-4.67564004"><ele>2284</ele><speed>9.34</speed><time>2016-06-30T14:31:36Z</time><pdop>3.0</pdop><geoidheight>53.00</geoidheight><course>87.3</course><type>1</type></trkpt>
      <trkpt lat="40.75283436" lon="-4.6755368"><ele>2281</ele><speed>9.79</speed><time>2016-06-30T14:31:37Z</time><pdop>3.0</pdop><geoidheight>53.00</geoidheight><course>83.5</course><type>1</type></trkpt>
      <trkpt lat="40.75285424" lon="-4.67542332"><ele>2278</ele><speed>9.88</speed><time>2016-06-30T14:31:38Z</time><pdop>3.0</pdop><geoidheight>53.00</geoidheight><course>77.6</course><type>1</type></trkpt>
      <trkpt lat="40.75288363" lon="-4.67530483"><ele>2276</ele><speed>10.40</speed><time>2016-06-30T14:31:39Z</time><pdop>3.0</pdop><geoidheight>53.00</geoidheight><course>72.6</course><type>1</type></trkpt>
      <trkpt lat="40.75292382" lon="-4.67518127"><ele>2275</ele><speed>10.68</speed><time>2016-06-30T14:31:40Z</time><pdop>3.0</pdop><geoidheight>53.00</geoidheight><course>67.4</course><type>1</type></trkpt>
      <trkpt lat="40.75296208" lon="-4.67506869"><ele>2274</ele><speed>10.24</speed><time>2016-06-30T14:31:41Z</time><pdop>3.0</pdop><geoidheight>53.00</geoidheight><course>64.3</course><type>1</type></trkpt>
      <trkpt lat="40.75300647" lon="-4.67498081"><ele>2273</ele><speed>9.20</speed><time>2016-06-30T14:31:42Z</time><pdop>3.0</pdop><geoidheight>53.00</geoidheight><course>61.4</course><type>1</type></trkpt>
      <trkpt lat="40.75304626" lon="-4.67490079"><ele>2274</ele><speed>8.48</speed><time>2016-06-30T14:31:43Z</time><pdop>3.0</pdop><geoidheight>53.00</geoidheight><course>60.1</course><type>1</type></trkpt>
      <trkpt lat="40.75308579" lon="-4.67482073"><ele>2272</ele><speed>8.05</speed><time>2016-06-30T14:31:44Z</time><pdop>4.0</pdop><geoidheight>53.00</geoidheight><course>58.2</course><type>1</type></trkpt>
      <trkpt lat="40.75316344" lon="-4.67463648"><ele>2268</ele><speed>9.58</speed><time>2016-06-30T14:31:46Z</time><pdop>5.0</pdop><geoidheight>53.00</geoidheight><course>59.6</course><type>1</type></trkpt>
      <trkpt lat="40.75322082" lon="-4.67453549"><ele>2267</ele><speed>10.57</speed><time>2016-06-30T14:31:47Z</time><pdop>5.0</pdop><geoidheight>53.00</geoidheight><course>60.5</course><type>1</type></trkpt>
      <trkpt lat="40.75332774" lon="-4.67442443"><ele>2263</ele><speed>12.62</speed><time>2016-06-30T14:31:48Z</time><pdop>5.0</pdop><geoidheight>53.00</geoidheight><course>51.4</course><type>1</type></trkpt>
      <trkpt lat="40.75341356" lon="-4.67431059"><ele>2262</ele><speed>12.40</speed><time>2016-06-30T14:31:49Z</time><pdop>5.0</pdop><geoidheight>53.00</geoidheight><course>52.4</course><type>1</type></trkpt>
      <trkpt lat="40.75351077" lon="-4.67404786"><ele>2260</ele><speed>11.83</speed><time>2016-06-30T14:31:51Z</time><pdop>10.0</pdop><geoidheight>53.00</geoidheight><course>66.6</course><type>1</type></trkpt>
      <trkpt lat="40.75361304" lon="-4.67379809"><ele>2255</ele><speed>12.35</speed><time>2016-06-30T14:31:53Z</time><pdop>10.0</pdop><geoidheight>53.00</geoidheight><course>67.7</course><type>1</type></trkpt>
      <trkpt lat="40.75372487" lon="-4.67352333"><ele>2253</ele><speed>13.29</speed><time>2016-06-30T14:31:55Z</time><pdop>10.0</pdop><geoidheight>53.00</geoidheight><course>64.0</course><type>1</type></trkpt>
      <trkpt lat="40.75383207" lon="-4.67320544"><ele>2249</ele><speed>14.06</speed><time>2016-06-30T14:31:57Z</time><pdop>10.0</pdop><geoidheight>53.00</geoidheight><course>66.5</course><type>1</type></trkpt>
      <trkpt lat="40.75392293" lon="-4.6729112"><ele>2244</ele><speed>13.07</speed><time>2016-06-30T14:31:59Z</time><pdop>10.0</pdop><geoidheight>53.00</geoidheight><course>65.7</course><type>1</type></trkpt>
      <trkpt lat="40.75403171" lon="-4.67268712"><ele>2240</ele><speed>11.17</speed><time>2016-06-30T14:32:01Z</time><pdop>9.0</pdop><geoidheight>53.00</geoidheight><course>55.9</course><type>1</type></trkpt>
      <trkpt lat="40.75415971" lon="-4.67246086"><ele>2234</ele><speed>12.15</speed><time>2016-06-30T14:32:03Z</time><pdop>9.0</pdop><geoidheight>53.00</geoidheight><course>54.4</course><type>1</type></trkpt>
      <trkpt lat="40.75427139" lon="-4.67221114"><ele>2229</ele><speed>12.59</speed><time>2016-06-30T14:32:05Z</time><pdop>9.0</pdop><geoidheight>53.00</geoidheight><course>58.4</course><type>1</type></trkpt>
      <trkpt lat="40.75441295" lon="-4.67200757"><ele>2226</ele><speed>12.02</speed><time>2016-06-30T14:32:07Z</time><pdop>9.0</pdop><geoidheight>53.00</geoidheight><course>46.8</course><type>1</type></trkpt>
      <trkpt lat="40.75455192" lon="-4.67180833"><ele>2224</ele><speed>10.84</speed><time>2016-06-30T14:32:09Z</time><pdop>9.0</pdop><geoidheight>53.00</geoidheight><course>46.8</course><type>1</type></trkpt>
      <trkpt lat="40.75470426" lon="-4.6715714"><ele>2220</ele><speed>8.71</speed><time>2016-06-30T14:32:12Z</time><pdop>10.0</pdop><geoidheight>53.00</geoidheight><course>49.6</course><type>1</type></trkpt>
      <trkpt lat="40.75485007" lon="-4.67132297"><ele>2210</ele><speed>13.96</speed><time>2016-06-30T14:32:14Z</time><pdop>9.0</pdop><geoidheight>53.00</geoidheight><course>56.0</course><type>1</type></trkpt>
      <trkpt lat="40.75499517" lon="-4.67104617"><ele>2203</ele><speed>14.06</speed><time>2016-06-30T14:32:16Z</time><pdop>10.0</pdop><geoidheight>53.00</geoidheight><course>55.6</course><type>1</type></trkpt>
      <trkpt lat="40.75508238" lon="-4.67076323"><ele>2204</ele><speed>12.42</speed><time>2016-06-30T14:32:18Z</time><pdop>9.0</pdop><geoidheight>53.00</geoidheight><course>65.8</course><type>1</type></trkpt>
      <trkpt lat="40.75512745" lon="-4.6704901"><ele>2205</ele><speed>11.72</speed><time>2016-06-30T14:32:20Z</time><pdop>9.0</pdop><geoidheight>53.00</geoidheight><course>73.7</course><type>1</type></trkpt>
      <trkpt lat="40.75515984" lon="-4.6702099"><ele>2205</ele><speed>12.24</speed><time>2016-06-30T14:32:22Z</time><pdop>9.0</pdop><geoidheight>53.00</geoidheight><course>83.3</course><type>1</type></trkpt>
      <trkpt lat="40.75516743" lon="-4.6699116"><ele>2202</ele><speed>12.96</speed><time>2016-06-30T14:32:24Z</time><pdop>9.0</pdop><geoidheight>53.00</geoidheight><course>89.6</course><type>1</type></trkpt>
      <trkpt lat="40.75515781" lon="-4.66961496"><ele>2201</ele><speed>12.31</speed><time>2016-06-30T14:32:26Z</time><pdop>9.0</pdop><geoidheight>53.00</geoidheight><course>90.4</course><type>1</type></trkpt>
      <trkpt lat="40.75519081" lon="-4.66931593"><ele>2199</ele><speed>12.67</speed><time>2016-06-30T14:32:28Z</time><pdop>9.0</pdop><geoidheight>53.00</geoidheight><course>82.2</course><type>1</type></trkpt>
      <trkpt lat="40.75524246" lon="-4.66900234"><ele>2197</ele><speed>13.39</speed><time>2016-06-30T14:32:30Z</time><pdop>9.0</pdop><geoidheight>53.00</geoidheight><course>78.4</course><type>1</type></trkpt>
      <trkpt lat="40.75529519" lon="-4.66868967"><ele>2196</ele><speed>13.92</speed><time>2016-06-30T14:32:32Z</time><pdop>9.0</pdop><geoidheight>53.00</geoidheight><course>77.6</course><type>1</type></trkpt>
      <trkpt lat="40.75536588" lon="-4.6683787"><ele>2197</ele><speed>13.62</speed><time>2016-06-30T14:32:34Z</time><pdop>9.0</pdop><geoidheight>53.00</geoidheight><course>73.7</course><type>1</type></trkpt>
      <trkpt lat="40.75544615" lon="-4.66810393"><ele>2196</ele><speed>12.15</speed><time>2016-06-30T14:32:36Z</time><pdop>9.0</pdop><geoidheight>53.00</geoidheight><course>69.3</course><type>1</type></trkpt>
      <trkpt lat="40.75561797" lon="-4.66790528"><ele>2194</ele><speed>12.38</speed><time>2016-06-30T14:32:38Z</time><pdop>9.0</pdop><geoidheight>53.00</geoidheight><course>46.2</course><type>1</type></trkpt>
      <trkpt lat="40.75577172" lon="-4.66768408"><ele>2195</ele><speed>12.56</speed><time>2016-06-30T14:32:40Z</time><pdop>9.0</pdop><geoidheight>53.00</geoidheight><course>52.2</course><type>1</type></trkpt>
      <trkpt lat="40.75589037" lon="-4.66743637"><ele>2196</ele><speed>12.19</speed><time>2016-06-30T14:32:42Z</time><pdop>9.0</pdop><geoidheight>53.00</geoidheight><course>55.9</course><type>1</type></trkpt>
      <trkpt lat="40.75606098" lon="-4.66722192"><ele>2194</ele><speed>12.66</speed><time>2016-06-30T14:32:44Z</time><pdop>9.0</pdop><geoidheight>53.00</geoidheight><course>42.8</course><type>1</type></trkpt>
      <trkpt lat="40.75621103" lon="-4.66704906"><ele>2195</ele><speed>11.15</speed><time>2016-06-30T14:32:46Z</time><pdop>11.0</pdop><geoidheight>53.00</geoidheight><course>38.9</course><type>1</type></trkpt>
      <trkpt lat="40.75642985" lon="-4.66677599"><ele>2195</ele><speed>10.98</speed><time>2016-06-30T14:32:49Z</time><pdop>11.0</pdop><geoidheight>53.00</geoidheight><course>45.5</course><type>1</type></trkpt>
      <trkpt lat="40.75658372" lon="-4.66658385"><ele>2195</ele><speed>10.64</speed><time>2016-06-30T14:32:51Z</time><pdop>10.0</pdop><geoidheight>53.00</geoidheight><course>45.9</course><type>1</type></trkpt>
      <trkpt lat="40.75679251" lon="-4.66636937"><ele>2193</ele><speed>9.59</speed><time>2016-06-30T14:32:54Z</time><pdop>10.0</pdop><geoidheight>53.00</geoidheight><course>32.3</course><type>1</type></trkpt>
      <trkpt lat="40.75700755" lon="-4.66617924"><ele>2192</ele><speed>9.45</speed><time>2016-06-30T14:32:57Z</time><pdop>9.0</pdop><geoidheight>53.00</geoidheight><course>37.7</course><type>1</type></trkpt>
      <trkpt lat="40.75719876" lon="-4.66599828"><ele>2190</ele><speed>9.23</speed><time>2016-06-30T14:33:00Z</time><pdop>9.0</pdop><geoidheight>53.00</geoidheight><course>34.6</course><type>1</type></trkpt>
      <trkpt lat="40.75745435" lon="-4.66580769"><ele>2189</ele><speed>10.84</speed><time>2016-06-30T14:33:03Z</time><pdop>12.0</pdop><geoidheight>53.00</geoidheight><course>31.9</course><type>1</type></trkpt>
      <trkpt lat="40.75757115" lon="-4.66553586"><ele>2185</ele><speed>12.79</speed><time>2016-06-30T14:33:05Z</time><pdop>11.0</pdop><geoidheight>53.00</geoidheight><course>48.7</course><type>1</type></trkpt>
      <trkpt lat="40.75770503" lon="-4.66530243"><ele>2178</ele><speed>13.33</speed><time>2016-06-30T14:33:07Z</time><pdop>10.0</pdop><geoidheight>53.00</geoidheight><course>45.9</course><type>1</type></trkpt>
      <trkpt lat="40.75786319" lon="-4.66511004"><ele>2173</ele><speed>11.70</speed><time>2016-06-30T14:33:09Z</time><pdop>10.0</pdop><geoidheight>53.00</geoidheight><course>48.1</course><type>1</type></trkpt>
      <trkpt lat="40.75801354" lon="-4.66488496"><ele>2163</ele><speed>13.02</speed><time>2016-06-30T14:33:11Z</time><pdop>10.0</pdop><geoidheight>53.00</geoidheight><course>53.1</course><type>1</type></trkpt>
      <trkpt lat="40.75816809" lon="-4.66461613"><ele>2154</ele><speed>14.50</speed><time>2016-06-30T14:33:13Z</time><pdop>10.0</pdop><geoidheight>53.00</geoidheight><course>53.6</course><type>1</type></trkpt>
      <trkpt lat="40.75831519" lon="-4.6643695"><ele>2149</ele><speed>12.99</speed><time>2016-06-30T14:33:15Z</time><pdop>9.0</pdop><geoidheight>53.00</geoidheight><course>51.3</course><type>1</type></trkpt>
      <trkpt lat="40.7584485" lon="-4.66415622"><ele>2142</ele><speed>12.11</speed><time>2016-06-30T14:33:17Z</time><pdop>9.0</pdop><geoidheight>53.00</geoidheight><course>54.7</course><type>1</type></trkpt>
      <trkpt lat="40.75857058" lon="-4.66388413"><ele>2138</ele><speed>13.48</speed><time>2016-06-30T14:33:19Z</time><pdop>10.0</pdop><geoidheight>53.00</geoidheight><course>59.7</course><type>1</type></trkpt>
      <trkpt lat="40.75875444" lon="-4.66363004"><ele>2135</ele><speed>13.87</speed><time>2016-06-30T14:33:21Z</time><pdop>9.0</pdop><geoidheight>53.00</geoidheight><course>49.5</course><type>1</type></trkpt>
      <trkpt lat="40.75889437" lon="-4.66342491"><ele>2134</ele><speed>10.92</speed><time>2016-06-30T14:33:23Z</time><pdop>9.0</pdop><geoidheight>53.00</geoidheight><course>48.0</course><type>1</type></trkpt>
      <trkpt lat="40.75902524" lon="-4.6632533"><ele>2127</ele><speed>10.85</speed><time>2016-06-30T14:33:25Z</time><pdop>9.0</pdop><geoidheight>53.00</geoidheight><course>44.6</course><type>1</type></trkpt>
      <trkpt lat="40.75919381" lon="-4.66309747"><ele>2118</ele><speed>12.29</speed><time>2016-06-30T14:33:27Z</time><pdop>9.0</pdop><geoidheight>53.00</geoidheight><course>34.2</course><type>1</type></trkpt>
      <trkpt lat="40.7593802" lon="-4.66296216"><ele>2113</ele><speed>11.75</speed><time>2016-06-30T14:33:29Z</time><pdop>10.0</pdop><geoidheight>53.00</geoidheight><course>29.7</course><type>1</type></trkpt>
      <trkpt lat="40.75955956" lon="-4.66281806"><ele>2107</ele><speed>11.11</speed><time>2016-06-30T14:33:31Z</time><pdop>10.0</pdop><geoidheight>53.00</geoidheight><course>33.5</course><type>1</type></trkpt>
      <trkpt lat="40.75973409" lon="-4.66266089"><ele>2102</ele><speed>11.70</speed><time>2016-06-30T14:33:33Z</time><pdop>10.0</pdop><geoidheight>53.00</geoidheight><course>32.5</course><type>1</type></trkpt>
      <trkpt lat="40.75993842" lon="-4.66252364"><ele>2097</ele><speed>12.39</speed><time>2016-06-30T14:33:35Z</time><pdop>11.0</pdop><geoidheight>53.00</geoidheight><course>26.3</course><type>1</type></trkpt>
      <trkpt lat="40.76011686" lon="-4.66238896"><ele>2094</ele><speed>11.36</speed><time>2016-06-30T14:33:37Z</time><pdop>10.0</pdop><geoidheight>53.00</geoidheight><course>27.5</course><type>1</type></trkpt>
      <trkpt lat="40.76029218" lon="-4.66224435"><ele>2093</ele><speed>11.60</speed><time>2016-06-30T14:33:39Z</time><pdop>11.0</pdop><geoidheight>53.00</geoidheight><course>30.5</course><type>1</type></trkpt>
      <trkpt lat="40.76056544" lon="-4.66208535"><ele>2088</ele><speed>11.36</speed><time>2016-06-30T14:33:42Z</time><pdop>12.0</pdop><geoidheight>53.00</geoidheight><course>22.3</course><type>1</type></trkpt>
      <trkpt lat="40.76078311" lon="-4.66185073"><ele>2079</ele><speed>11.51</speed><time>2016-06-30T14:33:45Z</time><pdop>12.0</pdop><geoidheight>53.00</geoidheight><course>36.6</course><type>1</type></trkpt>
      <trkpt lat="40.7610036" lon="-4.66169407"><ele>2078</ele><speed>12.02</speed><time>2016-06-30T14:33:47Z</time><pdop>13.0</pdop><geoidheight>53.00</geoidheight><course>32.7</course><type>1</type></trkpt>
      <trkpt lat="40.7612384" lon="-4.66149811"><ele>2070</ele><speed>10.26</speed><time>2016-06-30T14:33:50Z</time><pdop>16.0</pdop><geoidheight>53.00</geoidheight><course>31.0</course><type>1</type></trkpt>
      <trkpt lat="40.76149392" lon="-4.66136502"><ele>2064</ele><speed>11.53</speed><time>2016-06-30T14:33:52Z</time><pdop>14.0</pdop><geoidheight>53.00</geoidheight><course>27.7</course><type>1</type></trkpt>
      <trkpt lat="40.76173596" lon="-4.66127861"><ele>2058</ele><speed>12.47</speed><time>2016-06-30T14:33:54Z</time><pdop>12.0</pdop><geoidheight>53.00</geoidheight><course>21.4</course><type>1</type></trkpt>
      <trkpt lat="40.76192863" lon="-4.66114183"><ele>2051</ele><speed>11.45</speed><time>2016-06-30T14:33:56Z</time><pdop>12.0</pdop><geoidheight>53.00</geoidheight><course>27.9</course><type>1</type></trkpt>
      <trkpt lat="40.76215928" lon="-4.66099461"><ele>2039</ele><speed>13.52</speed><time>2016-06-30T14:33:58Z</time><pdop>11.0</pdop><geoidheight>53.00</geoidheight><course>28.7</course><type>1</type></trkpt>
      <trkpt lat="40.76239716" lon="-4.66082006"><ele>2030</ele><speed>14.80</speed><time>2016-06-30T14:34:00Z</time><pdop>12.0</pdop><geoidheight>53.00</geoidheight><course>31.5</course><type>1</type></trkpt>
      <trkpt lat="40.76263081" lon="-4.66067478"><ele>2024</ele><speed>14.11</speed><time>2016-06-30T14:34:02Z</time><pdop>11.0</pdop><geoidheight>53.00</geoidheight><course>28.4</course><type>1</type></trkpt>
      <trkpt lat="40.76282496" lon="-4.66052594"><ele>2023</ele><speed>12.91</speed><time>2016-06-30T14:34:04Z</time><pdop>11.0</pdop><geoidheight>53.00</geoidheight><course>26.2</course><type>1</type></trkpt>
      <trkpt lat="40.7629969" lon="-4.66036947"><ele>2022</ele><speed>11.00</speed><time>2016-06-30T14:34:06Z</time><pdop>11.0</pdop><geoidheight>53.00</geoidheight><course>29.5</course><type>1</type></trkpt>
      <trkpt lat="40.76320605" lon="-4.66025645"><ele>2020</ele><speed>7.43</speed><time>2016-06-30T14:34:09Z</time><pdop>12.0</pdop><geoidheight>53.00</geoidheight><course>16.8</course><type>1</type></trkpt>
      <trkpt lat="40.7634332" lon="-4.66019967"><ele>2015</ele><speed>5.81</speed><time>2016-06-30T14:34:14Z</time><pdop>10.0</pdop><geoidheight>53.00</geoidheight><course>11.7</course><type>1</type></trkpt>
      <trkpt lat="40.76360968" lon="-4.66024541"><ele>2013</ele><speed>6.76</speed><time>2016-06-30T14:34:17Z</time><pdop>9.0</pdop><geoidheight>53.00</geoidheight><course>351.8</course><type>1</type></trkpt>
      <trkpt lat="40.76381708" lon="-4.66014696"><ele>2008</ele><speed>8.23</speed><time>2016-06-30T14:34:20Z</time><pdop>10.0</pdop><geoidheight>53.00</geoidheight><course>23.5</course><type>1</type></trkpt>
      <trkpt lat="40.76400482" lon="-4.66005791"><ele>2007</ele><speed>9.67</speed><time>2016-06-30T14:34:22Z</time><pdop>11.0</pdop><geoidheight>53.00</geoidheight><course>20.8</course><type>1</type></trkpt>
      <trkpt lat="40.76423364" lon="-4.65992697"><ele>2006</ele><speed>9.71</speed><time>2016-06-30T14:34:25Z</time><pdop>12.0</pdop><geoidheight>53.00</geoidheight><course>21.1</course><type>1</type></trkpt>
      <trkpt lat="40.76443713" lon="-4.6597175"><ele>2005</ele><speed>7.54</speed><time>2016-06-30T14:34:29Z</time><pdop>11.0</pdop><geoidheight>53.00</geoidheight><course>41.3</course><type>1</type></trkpt>
      <trkpt lat="40.7646665" lon="-4.65959208"><ele>2008</ele><speed>8.34</speed><time>2016-06-30T14:34:32Z</time><pdop>11.0</pdop><geoidheight>53.00</geoidheight><course>19.3</course><type>1</type></trkpt>
      <trkpt lat="40.76478173" lon="-4.65983057"><ele>2012</ele><speed>4.64</speed><time>2016-06-30T14:34:38Z</time><pdop>10.0</pdop><geoidheight>53.00</geoidheight><course>276.8</course><type>1</type></trkpt>
      <trkpt lat="40.76493247" lon="-4.65971651"><ele>2009</ele><speed>9.33</speed><time>2016-06-30T14:34:43Z</time><pdop>9.0</pdop><geoidheight>53.00</geoidheight><course>61.0</course><type>1</type></trkpt>
      <trkpt lat="40.76496034" lon="-4.65936414"><ele>2011</ele><speed>13.65</speed><time>2016-06-30T14:34:45Z</time><pdop>9.0</pdop><geoidheight>53.00</geoidheight><course>86.0</course><type>1</type></trkpt>
      <trkpt lat="40.76485896" lon="-4.65910521"><ele>2018</ele><speed>12.10</speed><time>2016-06-30T14:34:47Z</time><pdop>9.0</pdop><geoidheight>53.00</geoidheight><course>117.9</course><type>1</type></trkpt>
      <trkpt lat="40.76471705" lon="-4.65883105"><ele>2028</ele><speed>13.58</speed><time>2016-06-30T14:34:49Z</time><pdop>9.0</pdop><geoidheight>53.00</geoidheight><course>128.6</course><type>1</type></trkpt>
      <trkpt lat="40.76449924" lon="-4.65866065"><ele>2034</ele><speed>14.35</speed><time>2016-06-30T14:34:51Z</time><pdop>9.0</pdop><geoidheight>53.00</geoidheight><course>157.4</course><type>1</type></trkpt>
      <trkpt lat="40.76438093" lon="-4.65865113"><ele>2037</ele><speed>13.68</speed><time>2016-06-30T14:34:52Z</time><pdop>3.0</pdop><geoidheight>53.00</geoidheight><course>178.1</course><type>1</type></trkpt>
      <trkpt lat="40.76427805" lon="-4.65869779"><ele>2040</ele><speed>12.88</speed><time>2016-06-30T14:34:53Z</time><pdop>3.0</pdop><geoidheight>53.00</geoidheight><course>198.2</course><type>1</type></trkpt>
      <trkpt lat="40.76418433" lon="-4.65875643"><ele>2042</ele><speed>11.84</speed><time>2016-06-30T14:34:54Z</time><pdop>3.0</pdop><geoidheight>53.00</geoidheight><course>205.7</course><type>1</type></trkpt>
      <trkpt lat="40.76409773" lon="-4.6588347"><ele>2043</ele><speed>11.83</speed><time>2016-06-30T14:34:55Z</time><pdop>5.0</pdop><geoidheight>53.00</geoidheight><course>210.7</course><type>1</type></trkpt>
      <trkpt lat="40.76400206" lon="-4.65897433"><ele>2042</ele><speed>8.68</speed><time>2016-06-30T14:34:57Z</time><pdop>10.0</pdop><geoidheight>53.00</geoidheight><course>218.5</course><type>1</type></trkpt>
      <trkpt lat="40.76435219" lon="-4.65872615"><ele>2057</ele><speed>9.27</speed><time>2016-06-30T14:35:03Z</time><pdop>7.0</pdop><geoidheight>53.00</geoidheight><course>60.0</course><type>1</type></trkpt>
      <trkpt lat="40.76440253" lon="-4.65847841"><ele>2061</ele><speed>11.26</speed><time>2016-06-30T14:35:05Z</time><pdop>4.0</pdop><geoidheight>53.00</geoidheight><course>80.7</course><type>1</type></trkpt>
      <trkpt lat="40.76438262" lon="-4.65834766"><ele>2064</ele><speed>10.86</speed><time>2016-06-30T14:35:06Z</time><pdop>4.0</pdop><geoidheight>53.00</geoidheight><course>92.5</course><type>1</type></trkpt>
      <trkpt lat="40.76435832" lon="-4.6582231"><ele>2072</ele><speed>11.86</speed><time>2016-06-30T14:35:07Z</time><pdop>3.0</pdop><geoidheight>53.00</geoidheight><course>101.4</course><type>1</type></trkpt>
      <trkpt lat="40.76433484" lon="-4.65810403"><ele>2077</ele><speed>11.40</speed><time>2016-06-30T14:35:08Z</time><pdop>3.0</pdop><geoidheight>53.00</geoidheight><course>105.3</course><type>1</type></trkpt>
      <trkpt lat="40.76430552" lon="-4.65799681"><ele>2079</ele><speed>10.78</speed><time>2016-06-30T14:35:09Z</time><pdop>3.0</pdop><geoidheight>53.00</geoidheight><course>110.0</course><type>1</type></trkpt>
      <trkpt lat="40.76427163" lon="-4.65787568"><ele>2082</ele><speed>11.22</speed><time>2016-06-30T14:35:10Z</time><pdop>3.0</pdop><geoidheight>53.00</geoidheight><course>112.0</course><type>1</type></trkpt>
      <trkpt lat="40.76422925" lon="-4.65774989"><ele>2083</ele><speed>11.43</speed><time>2016-06-30T14:35:11Z</time><pdop>3.0</pdop><geoidheight>53.00</geoidheight><course>116.3</course><type>1</type></trkpt>
      <trkpt lat="40.76414181" lon="-4.6576578"><ele>2086</ele><speed>12.46</speed><time>2016-06-30T14:35:12Z</time><pdop>3.0</pdop><geoidheight>53.00</geoidheight><course>137.4</course><type>1</type></trkpt>
      <trkpt lat="40.76404485" lon="-4.65758216"><ele>2089</ele><speed>13.45</speed><time>2016-06-30T14:35:13Z</time><pdop>3.0</pdop><geoidheight>53.00</geoidheight><course>151.9</course><type>1</type></trkpt>
      <trkpt lat="40.76393058" lon="-4.65753773"><ele>2092</ele><speed>13.27</speed><time>2016-06-30T14:35:14Z</time><pdop>3.0</pdop><geoidheight>53.00</geoidheight><course>165.2</course><type>1</type></trkpt>
      <trkpt lat="40.76382455" lon="-4.6575433"><ele>2094</ele><speed>12.25</speed><time>2016-06-30T14:35:15Z</time><pdop>3.0</pdop><geoidheight>53.00</geoidheight><course>180.8</course><type>1</type></trkpt>
      <trkpt lat="40.76372513" lon="-4.65756535"><ele>2095</ele><speed>12.12</speed><time>2016-06-30T14:35:16Z</time><pdop>3.0</pdop><geoidheight>53.00</geoidheight><course>185.4</course><type>1</type></trkpt>
      <trkpt lat="40.76366045" lon="-4.65765875"><ele>2098</ele><speed>10.62</speed><time>2016-06-30T14:35:17Z</time><pdop>3.0</pdop><geoidheight>53.00</geoidheight><course>211.5</course><type>1</type></trkpt>
      <trkpt lat="40.76360871" lon="-4.65773789"><ele>2100</ele><speed>9.58</speed><time>2016-06-30T14:35:18Z</time><pdop>3.0</pdop><geoidheight>53.00</geoidheight><course>227.0</course><type>1</type></trkpt>
      <trkpt lat="40.76357645" lon="-4.65782307"><ele>2103</ele><speed>8.63</speed><time>2016-06-30T14:35:19Z</time><pdop>3.0</pdop><geoidheight>53.00</geoidheight><course>242.4</course><type>1</type></trkpt>
      <trkpt lat="40.76356043" lon="-4.65790491"><ele>2107</ele><speed>7.81</speed><time>2016-06-30T14:35:20Z</time><pdop>3.0</pdop><geoidheight>53.00</geoidheight><course>256.0</course><type>1</type></trkpt>
      <trkpt lat="40.76355799" lon="-4.65797602"><ele>2109</ele><speed>6.64</speed><time>2016-06-30T14:35:21Z</time><pdop>3.0</pdop><geoidheight>53.00</geoidheight><course>264.4</course><type>1</type></trkpt>
      <trkpt lat="40.76359771" lon="-4.65804492"><ele>2113</ele><speed>3.51</speed><time>2016-06-30T14:35:23Z</time><pdop>3.0</pdop><geoidheight>53.00</geoidheight><course>305.4</course><type>1</type></trkpt>
      <trkpt lat="40.76374488" lon="-4.65803583"><ele>2115</ele><speed>8.46</speed><time>2016-06-30T14:35:25Z</time><pdop>3.0</pdop><geoidheight>53.00</geoidheight><course>7.7</course><type>1</type></trkpt>
      <trkpt lat="40.76381935" lon="-4.65799633"><ele>2119</ele><speed>9.00</speed><time>2016-06-30T14:35:26Z</time><pdop>3.0</pdop><geoidheight>53.00</geoidheight><course>19.9</course><type>1</type></trkpt>
      <trkpt lat="40.7638688" lon="-4.65792481"><ele>2123</ele><speed>8.94</speed><time>2016-06-30T14:35:27Z</time><pdop>3.0</pdop><geoidheight>53.00</geoidheight><course>38.8</course><type>1</type></trkpt>
      <trkpt lat="40.76390312" lon="-4.65783198"><ele>2126</ele><speed>8.73</speed><time>2016-06-30T14:35:28Z</time><pdop>3.0</pdop><geoidheight>53.00</geoidheight><course>59.6</course><type>1</type></trkpt>
      <trkpt lat="40.7639276" lon="-4.65773098"><ele>2129</ele><speed>9.00</speed><time>2016-06-30T14:35:29Z</time><pdop>3.0</pdop><geoidheight>53.00</geoidheight><course>72.6</course><type>1</type></trkpt>
      <trkpt lat="40.76393602" lon="-4.65762182"><ele>2132</ele><speed>9.46</speed><time>2016-06-30T14:35:30Z</time><pdop>3.0</pdop><geoidheight>53.00</geoidheight><course>79.3</course><type>1</type></trkpt>
      <trkpt lat="40.76394777" lon="-4.65750695"><ele>2134</ele><speed>9.70</speed><time>2016-06-30T14:35:31Z</time><pdop>3.0</pdop><geoidheight>53.00</geoidheight><course>85.6</course><type>1</type></trkpt>
      <trkpt lat="40.76393359" lon="-4.65739928"><ele>2137</ele><speed>9.41</speed><time>2016-06-30T14:35:32Z</time><pdop>3.0</pdop><geoidheight>53.00</geoidheight><course>97.1</course><type>1</type></trkpt>
      <trkpt lat="40.7639136" lon="-4.65728631"><ele>2137</ele><speed>9.81</speed><time>2016-06-30T14:35:33Z</time><pdop>3.0</pdop><geoidheight>53.00</geoidheight><course>102.9</course><type>1</type></trkpt>
      <trkpt lat="40.7638699" lon="-4.65715004"><ele>2138</ele><speed>11.21</speed><time>2016-06-30T14:35:34Z</time><pdop>4.0</pdop><geoidheight>53.00</geoidheight><course>113.9</course><type>1</type></trkpt>
      <trkpt lat="40.76377536" lon="-4.65708291"><ele>2138</ele><speed>11.25</speed><time>2016-06-30T14:35:35Z</time><pdop>4.0</pdop><geoidheight>53.00</geoidheight><course>135.1</course><type>1</type></trkpt>
      <trkpt lat="40.76362271" lon="-4.6570963"><ele>2138</ele><speed>13.15</speed><time>2016-06-30T14:35:36Z</time><pdop>4.0</pdop><geoidheight>53.00</geoidheight><course>169.0</course><type>1</type></trkpt>
      <trkpt lat="40.76349201" lon="-4.65710078"><ele>2141</ele><speed>13.36</speed><time>2016-06-30T14:35:37Z</time><pdop>3.0</pdop><geoidheight>53.00</geoidheight><course>185.4</course><type>1</type></trkpt>
      <trkpt lat="40.76338919" lon="-4.65715806"><ele>2142</ele><speed>12.52</speed><time>2016-06-30T14:35:38Z</time><pdop>3.0</pdop><geoidheight>53.00</geoidheight><course>199.2</course><type>1</type></trkpt>
      <trkpt lat="40.76328564" lon="-4.65720134"><ele>2143</ele><speed>11.97</speed><time>2016-06-30T14:35:39Z</time><pdop>3.0</pdop><geoidheight>53.00</geoidheight><course>202.0</course><type>1</type></trkpt>
      <trkpt lat="40.76323693" lon="-4.65729869"><ele>2146</ele><speed>10.73</speed><time>2016-06-30T14:35:40Z</time><pdop>3.0</pdop><geoidheight>53.00</geoidheight><course>228.6</course><type>1</type></trkpt>
      <trkpt lat="40.76319085" lon="-4.65739329"><ele>2148</ele><speed>9.97</speed><time>2016-06-30T14:35:41Z</time><pdop>3.0</pdop><geoidheight>53.00</geoidheight><course>240.9</course><type>1</type></trkpt>
      <trkpt lat="40.76317874" lon="-4.65749643"><ele>2149</ele><speed>9.05</speed><time>2016-06-30T14:35:42Z</time><pdop>3.0</pdop><geoidheight>53.00</geoidheight><course>254.3</course><type>1</type></trkpt>
      <trkpt lat="40.76319217" lon="-4.65758541"><ele>2153</ele><speed>7.48</speed><time>2016-06-30T14:35:43Z</time><pdop>3.0</pdop><geoidheight>53.00</geoidheight><course>275.1</course><type>1</type></trkpt>
      <trkpt lat="40.76322807" lon="-4.65765359"><ele>2155</ele><speed>6.46</speed><time>2016-06-30T14:35:44Z</time><pdop>3.0</pdop><geoidheight>53.00</geoidheight><course>304.0</course><type>1</type></trkpt>
      <trkpt lat="40.76333644" lon="-4.65768503"><ele>2159</ele><speed>6.53</speed><time>2016-06-30T14:35:46Z</time><pdop>3.0</pdop><geoidheight>53.00</geoidheight><course>355.6</course><type>1</type></trkpt>
      <trkpt lat="40.76340982" lon="-4.65764462"><ele>2159</ele><speed>7.45</speed><time>2016-06-30T14:35:47Z</time><pdop>3.0</pdop><geoidheight>53.00</geoidheight><course>14.4</course><type>1</type></trkpt>
      <trkpt lat="40.76347561" lon="-4.65756038"><ele>2160</ele><speed>9.30</speed><time>2016-06-30T14:35:48Z</time><pdop>4.0</pdop><geoidheight>53.00</geoidheight><course>37.0</course><type>1</type></trkpt>
      <trkpt lat="40.76348391" lon="-4.65744399"><ele>2162</ele><speed>9.12</speed><time>2016-06-30T14:35:49Z</time><pdop>4.0</pdop><geoidheight>53.00</geoidheight><course>60.3</course><type>1</type></trkpt>
      <trkpt lat="40.76343164" lon="-4.65731647"><ele>2165</ele><speed>10.22</speed><time>2016-06-30T14:35:50Z</time><pdop>3.0</pdop><geoidheight>53.00</geoidheight><course>94.1</course><type>1</type></trkpt>
      <trkpt lat="40.76342343" lon="-4.65719557"><ele>2166</ele><speed>10.38</speed><time>2016-06-30T14:35:51Z</time><pdop>4.0</pdop><geoidheight>53.00</geoidheight><course>95.7</course><type>1</type></trkpt>
      <trkpt lat="40.76341257" lon="-4.65705413"><ele>2166</ele><speed>11.29</speed><time>2016-06-30T14:35:52Z</time><pdop>4.0</pdop><geoidheight>53.00</geoidheight><course>99.9</course><type>1</type></trkpt>
      <trkpt lat="40.76333145" lon="-4.6569527"><ele>2166</ele><speed>11.59</speed><time>2016-06-30T14:35:53Z</time><pdop>4.0</pdop><geoidheight>53.00</geoidheight><course>118.2</course><type>1</type></trkpt>
      <trkpt lat="40.76317536" lon="-4.65693903"><ele>2168</ele><speed>12.82</speed><time>2016-06-30T14:35:54Z</time><pdop>3.0</pdop><geoidheight>53.00</geoidheight><course>154.2</course><type>1</type></trkpt>
      <trkpt lat="40.76306214" lon="-4.65691146"><ele>2169</ele><speed>12.65</speed><time>2016-06-30T14:35:55Z</time><pdop>3.0</pdop><geoidheight>53.00</geoidheight><course>165.0</course><type>1</type></trkpt>
      <trkpt lat="40.76294877" lon="-4.65689324"><ele>2170</ele><speed>12.15</speed><time>2016-06-30T14:35:56Z</time><pdop>3.0</pdop><geoidheight>53.00</geoidheight><course>170.1</course><type>1</type></trkpt>
      <trkpt lat="40.76284236" lon="-4.65694286"><ele>2172</ele><speed>11.70</speed><time>2016-06-30T14:35:57Z</time><pdop>3.0</pdop><geoidheight>53.00</geoidheight><course>190.6</course><type>1</type></trkpt>
      <trkpt lat="40.76274157" lon="-4.65698165"><ele>2174</ele><speed>11.40</speed><time>2016-06-30T14:35:58Z</time><pdop>3.0</pdop><geoidheight>53.00</geoidheight><course>199.7</course><type>1</type></trkpt>
      <trkpt lat="40.76266523" lon="-4.65704848"><ele>2176</ele><speed>10.43</speed><time>2016-06-30T14:35:59Z</time><pdop>3.0</pdop><geoidheight>53.00</geoidheight><course>210.3</course><type>1</type></trkpt>
      <trkpt lat="40.7626044" lon="-4.65712839"><ele>2177</ele><speed>9.86</speed><time>2016-06-30T14:36:00Z</time><pdop>3.0</pdop><geoidheight>53.00</geoidheight><course>224.4</course><type>1</type></trkpt>
      <trkpt lat="40.76255807" lon="-4.65720891"><ele>2180</ele><speed>9.31</speed><time>2016-06-30T14:36:01Z</time><pdop>3.0</pdop><geoidheight>53.00</geoidheight><course>235.9</course><type>1</type></trkpt>
      <trkpt lat="40.76251845" lon="-4.65728701"><ele>2183</ele><speed>8.46</speed><time>2016-06-30T14:36:02Z</time><pdop>3.0</pdop><geoidheight>53.00</geoidheight><course>242.8</course><type>1</type></trkpt>
      <trkpt lat="40.76249505" lon="-4.65736889"><ele>2186</ele><speed>7.97</speed><time>2016-06-30T14:36:03Z</time><pdop>3.0</pdop><geoidheight>53.00</geoidheight><course>251.4</course><type>1</type></trkpt>
      <trkpt lat="40.76248983" lon="-4.65745587"><ele>2188</ele><speed>7.43</speed><time>2016-06-30T14:36:04Z</time><pdop>3.0</pdop><geoidheight>53.00</geoidheight><course>265.4</course><type>1</type></trkpt>
      <trkpt lat="40.76249277" lon="-4.6575307"><ele>2188</ele><speed>6.41</speed><time>2016-06-30T14:36:05Z</time><pdop>3.0</pdop><geoidheight>53.00</geoidheight><course>271.6</course><type>1</type></trkpt>
      <trkpt lat="40.76258212" lon="-4.65766564"><ele>2193</ele><speed>7.87</speed><time>2016-06-30T14:36:07Z</time><pdop>4.0</pdop><geoidheight>53.00</geoidheight><course>310.4</course><type>1</type></trkpt>
      <trkpt lat="40.76263609" lon="-4.65771796"><ele>2196</ele><speed>8.34</speed><time>2016-06-30T14:36:08Z</time><pdop>3.0</pdop><geoidheight>53.00</geoidheight><course>317.8</course><type>1</type></trkpt>
      <trkpt lat="40.76270164" lon="-4.65777315"><ele>2200</ele><speed>8.49</speed><time>2016-06-30T14:36:09Z</time><pdop>3.0</pdop><geoidheight>53.00</geoidheight><course>324.6</course><type>1</type></trkpt>
      <trkpt lat="40.762766" lon="-4.65782172"><ele>2201</ele><speed>8.87</speed><time>2016-06-30T14:36:10Z</time><pdop>3.0</pdop><geoidheight>53.00</geoidheight><course>328.0</course><type>1</type></trkpt>
      <trkpt lat="40.76284177" lon="-4.65787052"><ele>2202</ele><speed>8.89</speed><time>2016-06-30T14:36:11Z</time><pdop>4.0</pdop><geoidheight>53.00</geoidheight><course>329.8</course><type>1</type></trkpt>
      <trkpt lat="40.76293253" lon="-4.65795727"><ele>2210</ele><speed>6.65</speed><time>2016-06-30T14:36:13Z</time><pdop>4.0</pdop><geoidheight>53.00</geoidheight><course>337.3</course><type>1</type></trkpt>
      <trkpt lat="40.76300455" lon="-4.65793062"><ele>2215</ele><speed>6.63</speed><time>2016-06-30T14:36:15Z</time><pdop>4.0</pdop><geoidheight>53.00</geoidheight><course>35.1</course><type>1</type></trkpt>
      <trkpt lat="40.76307415" lon="-4.6577867"><ele>2201</ele><speed>10.00</speed><time>2016-06-30T14:36:17Z</time><pdop>4.0</pdop><geoidheight>53.00</geoidheight><course>71.3</course><type>1</type></trkpt>
      <trkpt lat="40.76309564" lon="-4.65767604"><ele>2207</ele><speed>11.60</speed><time>2016-06-30T14:36:18Z</time><pdop>4.0</pdop><geoidheight>53.00</geoidheight><course>81.0</course><type>1</type></trkpt>
      <trkpt lat="40.76311193" lon="-4.6575406"><ele>2211</ele><speed>11.59</speed><time>2016-06-30T14:36:19Z</time><pdop>5.0</pdop><geoidheight>53.00</geoidheight><course>81.0</course><type>1</type></trkpt>
      <trkpt lat="40.76305607" lon="-4.6574176"><ele>2216</ele><speed>12.33</speed><time>2016-06-30T14:36:20Z</time><pdop>4.0</pdop><geoidheight>53.00</geoidheight><course>115.6</course><type>1</type></trkpt>
      <trkpt lat="40.76296551" lon="-4.65731384"><ele>2219</ele><speed>13.66</speed><time>2016-06-30T14:36:21Z</time><pdop>4.0</pdop><geoidheight>53.00</geoidheight><course>140.1</course><type>1</type></trkpt>
      <trkpt lat="40.76286354" lon="-4.6572524"><ele>2220</ele><speed>14.21</speed><time>2016-06-30T14:36:22Z</time><pdop>4.0</pdop><geoidheight>53.00</geoidheight><course>158.6</course><type>1</type></trkpt>
      <trkpt lat="40.76272876" lon="-4.65724039"><ele>2223</ele><speed>15.60</speed><time>2016-06-30T14:36:23Z</time><pdop>4.0</pdop><geoidheight>53.00</geoidheight><course>179.3</course><type>1</type></trkpt>
      <trkpt lat="40.76259332" lon="-4.65724856"><ele>2225</ele><speed>15.68</speed><time>2016-06-30T14:36:24Z</time><pdop>4.0</pdop><geoidheight>53.00</geoidheight><course>188.0</course><type>1</type></trkpt>
      <trkpt lat="40.76247112" lon="-4.65729157"><ele>2227</ele><speed>13.86</speed><time>2016-06-30T14:36:25Z</time><pdop>4.0</pdop><geoidheight>53.00</geoidheight><course>198.6</course><type>1</type></trkpt>
      <trkpt lat="40.76235415" lon="-4.65734377"><ele>2228</ele><speed>13.76</speed><time>2016-06-30T14:36:26Z</time><pdop>5.0</pdop><geoidheight>53.00</geoidheight><course>198.7</course><type>1</type></trkpt>
      <trkpt lat="40.76226091" lon="-4.65743256"><ele>2235</ele><speed>13.01</speed><time>2016-06-30T14:36:27Z</time><pdop>3.0</pdop><geoidheight>53.00</geoidheight><course>217.4</course><type>1</type></trkpt>
      <trkpt lat="40.76216941" lon="-4.65752462"><ele>2237</ele><speed>12.87</speed><time>2016-06-30T14:36:28Z</time><pdop>4.0</pdop><geoidheight>53.00</geoidheight><course>217.4</course><type>1</type></trkpt>
      <trkpt lat="40.76214057" lon="-4.65764434"><ele>2241</ele><speed>11.49</speed><time>2016-06-30T14:36:29Z</time><pdop>3.0</pdop><geoidheight>53.00</geoidheight><course>243.5</course><type>1</type></trkpt>
      <trkpt lat="40.76209454" lon="-4.65776555"><ele>2242</ele><speed>11.45</speed><time>2016-06-30T14:36:30Z</time><pdop>4.0</pdop><geoidheight>53.00</geoidheight><course>243.5</course><type>1</type></trkpt>
      <trkpt lat="40.76211429" lon="-4.6578457"><ele>2244</ele><speed>8.77</speed><time>2016-06-30T14:36:31Z</time><pdop>3.0</pdop><geoidheight>53.00</geoidheight><course>278.4</course><type>1</type></trkpt>
      <trkpt lat="40.76213686" lon="-4.65792964"><ele>2246</ele><speed>7.85</speed><time>2016-06-30T14:36:32Z</time><pdop>3.0</pdop><geoidheight>53.00</geoidheight><course>300.8</course><type>1</type></trkpt>
      <trkpt lat="40.76219698" lon="-4.65800181"><ele>2254</ele><speed>4.54</speed><time>2016-06-30T14:36:34Z</time><pdop>3.0</pdop><geoidheight>53.00</geoidheight><course>355.7</course><type>1</type></trkpt>
      <trkpt lat="40.76227788" lon="-4.65791451"><ele>2258</ele><speed>6.98</speed><time>2016-06-30T14:36:36Z</time><pdop>4.0</pdop><geoidheight>53.00</geoidheight><course>52.3</course><type>1</type></trkpt>
      <trkpt lat="40.76230346" lon="-4.65781947"><ele>2260</ele><speed>9.67</speed><time>2016-06-30T14:36:37Z</time><pdop>4.0</pdop><geoidheight>53.00</geoidheight><course>65.2</course><type>1</type></trkpt>
      <trkpt lat="40.76232524" lon="-4.65770149"><ele>2262</ele><speed>12.07</speed><time>2016-06-30T14:36:38Z</time><pdop>4.0</pdop><geoidheight>53.00</geoidheight><course>81.4</course><type>1</type></trkpt>
      <trkpt lat="40.76234158" lon="-4.65756064"><ele>2262</ele><speed>12.04</speed><time>2016-06-30T14:36:39Z</time><pdop>4.0</pdop><geoidheight>53.00</geoidheight><course>81.3</course><type>1</type></trkpt>
      <trkpt lat="40.76228129" lon="-4.6573855"><ele>2263</ele><speed>15.11</speed><time>2016-06-30T14:36:40Z</time><pdop>4.0</pdop><geoidheight>53.00</geoidheight><course>110.2</course><type>1</type></trkpt>
      <trkpt lat="40.76218658" lon="-4.65723694"><ele>2266</ele><speed>16.39</speed><time>2016-06-30T14:36:41Z</time><pdop>3.0</pdop><geoidheight>53.00</geoidheight><course>132.5</course><type>1</type></trkpt>
      <trkpt lat="40.76208907" lon="-4.6571173"><ele>2270</ele><speed>16.01</speed><time>2016-06-30T14:36:42Z</time><pdop>3.0</pdop><geoidheight>53.00</geoidheight><course>136.7</course><type>1</type></trkpt>
      <trkpt lat="40.7619861" lon="-4.65706256"><ele>2273</ele><speed>14.12</speed><time>2016-06-30T14:36:43Z</time><pdop>4.0</pdop><geoidheight>53.00</geoidheight><course>160.6</course><type>1</type></trkpt>
      <trkpt lat="40.76187405" lon="-4.65702771"><ele>2276</ele><speed>13.44</speed><time>2016-06-30T14:36:44Z</time><pdop>4.0</pdop><geoidheight>53.00</geoidheight><course>172.6</course><type>1</type></trkpt>
      <trkpt lat="40.76175325" lon="-4.65702303"><ele>2277</ele><speed>13.38</speed><time>2016-06-30T14:36:45Z</time><pdop>4.0</pdop><geoidheight>53.00</geoidheight><course>180.9</course><type>1</type></trkpt>
      <trkpt lat="40.76162404" lon="-4.6570403"><ele>2278</ele><speed>14.07</speed><time>2016-06-30T14:36:46Z</time><pdop>4.0</pdop><geoidheight>53.00</geoidheight><course>192.1</course><type>1</type></trkpt>
      <trkpt lat="40.76150046" lon="-4.65707531"><ele>2279</ele><speed>14.04</speed><time>2016-06-30T14:36:47Z</time><pdop>5.0</pdop><geoidheight>53.00</geoidheight><course>192.1</course><type>1</type></trkpt>
      <trkpt lat="40.76138642" lon="-4.65715743"><ele>2280</ele><speed>14.00</speed><time>2016-06-30T14:36:48Z</time><pdop>4.0</pdop><geoidheight>53.00</geoidheight><course>211.0</course><type>1</type></trkpt>
      <trkpt lat="40.76127836" lon="-4.6572428"><ele>2280</ele><speed>14.00</speed><time>2016-06-30T14:36:49Z</time><pdop>5.0</pdop><geoidheight>53.00</geoidheight><course>211.0</course><type>1</type></trkpt>
      <trkpt lat="40.76120017" lon="-4.65735325"><ele>2281</ele><speed>12.73</speed><time>2016-06-30T14:36:50Z</time><pdop>4.0</pdop><geoidheight>53.00</geoidheight><course>220.6</course><type>1</type></trkpt>
      <trkpt lat="40.7611353" lon="-4.65745063"><ele>2282</ele><speed>11.26</speed><time>2016-06-30T14:36:51Z</time><pdop>4.0</pdop><geoidheight>53.00</geoidheight><course>226.0</course><type>1</type></trkpt>
      <trkpt lat="40.76107239" lon="-4.65755061"><ele>2281</ele><speed>10.68</speed><time>2016-06-30T14:36:52Z</time><pdop>3.0</pdop><geoidheight>53.00</geoidheight><course>230.3</course><type>1</type></trkpt>
      <trkpt lat="40.76102601" lon="-4.65766487"><ele>2281</ele><speed>10.37</speed><time>2016-06-30T14:36:53Z</time><pdop>3.0</pdop><geoidheight>53.00</geoidheight><course>242.4</course><type>1</type></trkpt>
      <trkpt lat="40.76098296" lon="-4.65777322"><ele>2280</ele><speed>10.33</speed><time>2016-06-30T14:36:54Z</time><pdop>4.0</pdop><geoidheight>53.00</geoidheight><course>242.4</course><type>1</type></trkpt>
      <trkpt lat="40.76101832" lon="-4.65787665"><ele>2278</ele><speed>9.26</speed><time>2016-06-30T14:36:55Z</time><pdop>4.0</pdop><geoidheight>53.00</geoidheight><course>285.1</course><type>1</type></trkpt>
      <trkpt lat="40.76115435" lon="-4.65794317"><ele>2273</ele><speed>8.51</speed><time>2016-06-30T14:36:57Z</time><pdop>4.0</pdop><geoidheight>53.00</geoidheight><course>336.3</course><type>1</type></trkpt>
      <trkpt lat="40.76130842" lon="-4.65794375"><ele>2272</ele><speed>8.20</speed><time>2016-06-30T14:36:59Z</time><pdop>10.0</pdop><geoidheight>53.00</geoidheight><course>354.9</course><type>1</type></trkpt>
      <trkpt lat="40.76143097" lon="-4.6576997"><ele>2273</ele><speed>13.15</speed><time>2016-06-30T14:37:00Z</time><pdop>10.0</pdop><geoidheight>53.00</geoidheight><course>36.3</course><type>1</type></trkpt>
      <trkpt lat="40.76144148" lon="-4.65746711"><ele>2279</ele><speed>9.00</speed><time>2016-06-30T14:37:02Z</time><pdop>9.0</pdop><geoidheight>53.00</geoidheight><course>55.8</course><type>1</type></trkpt>
      <trkpt lat="40.76134905" lon="-4.65722789"><ele>2283</ele><speed>7.69</speed><time>2016-06-30T14:37:04Z</time><pdop>6.0</pdop><geoidheight>53.00</geoidheight><course>99.1</course><type>1</type></trkpt>
      <trkpt lat="40.76132249" lon="-4.65703781"><ele>2239</ele><speed>7.88</speed><time>2016-06-30T14:37:06Z</time><pdop>7.0</pdop><geoidheight>53.00</geoidheight><course>104.0</course><type>1</type></trkpt>
      <trkpt lat="40.76120685" lon="-4.65684822"><ele>2254</ele><speed>9.53</speed><time>2016-06-30T14:37:08Z</time><pdop>8.0</pdop><geoidheight>53.00</geoidheight><course>123.2</course><type>1</type></trkpt>
      <trkpt lat="40.76113651" lon="-4.65668442"><ele>2270</ele><speed>8.08</speed><time>2016-06-30T14:37:10Z</time><pdop>7.0</pdop><geoidheight>53.00</geoidheight><course>120.5</course><type>1</type></trkpt>
      <trkpt lat="40.76109578" lon="-4.65649383"><ele>2280</ele><speed>8.50</speed><time>2016-06-30T14:37:12Z</time><pdop>6.0</pdop><geoidheight>53.00</geoidheight><course>106.4</course><type>1</type></trkpt>
      <trkpt lat="40.76106691" lon="-4.65629211"><ele>2288</ele><speed>8.95</speed><time>2016-06-30T14:37:14Z</time><pdop>6.0</pdop><geoidheight>53.00</geoidheight><course>96.3</course><type>1</type></trkpt>
      <trkpt lat="40.76108135" lon="-4.65611112"><ele>2288</ele><speed>8.74</speed><time>2016-06-30T14:37:16Z</time><pdop>8.0</pdop><geoidheight>53.00</geoidheight><course>85.9</course><type>1</type></trkpt>
      <trkpt lat="40.7611925" lon="-4.65594201"><ele>2290</ele><speed>8.60</speed><time>2016-06-30T14:37:18Z</time><pdop>7.0</pdop><geoidheight>53.00</geoidheight><course>54.3</course><type>1</type></trkpt>
      <trkpt lat="40.76135459" lon="-4.6558522"><ele>2294</ele><speed>8.66</speed><time>2016-06-30T14:37:20Z</time><pdop>7.0</pdop><geoidheight>53.00</geoidheight><course>20.5</course><type>1</type></trkpt>
      <trkpt lat="40.76152189" lon="-4.65577034"><ele>2298</ele><speed>9.45</speed><time>2016-06-30T14:37:22Z</time><pdop>8.0</pdop><geoidheight>53.00</geoidheight><course>19.3</course><type>1</type></trkpt>
      <trkpt lat="40.7616831" lon="-4.65564654"><ele>2300</ele><speed>10.10</speed><time>2016-06-30T14:37:24Z</time><pdop>11.0</pdop><geoidheight>53.00</geoidheight><course>27.9</course><type>1</type></trkpt>
      <trkpt lat="40.76190149" lon="-4.6554702"><ele>2306</ele><speed>8.76</speed><time>2016-06-30T14:37:27Z</time><pdop>13.0</pdop><geoidheight>53.00</geoidheight><course>31.3</course><type>1</type></trkpt>
      <trkpt lat="40.76209612" lon="-4.65531021"><ele>2314</ele><speed>6.73</speed><time>2016-06-30T14:37:31Z</time><pdop>6.0</pdop><geoidheight>53.00</geoidheight><course>17.3</course><type>1</type></trkpt>
      <trkpt lat="40.76220944" lon="-4.65526461"><ele>2316</ele><speed>6.94</speed><time>2016-06-30T14:37:33Z</time><pdop>7.0</pdop><geoidheight>53.00</geoidheight><course>8.5</course><type>1</type></trkpt>
      <trkpt lat="40.76228332" lon="-4.65545051"><ele>2319</ele><speed>6.94</speed><time>2016-06-30T14:37:35Z</time><pdop>8.0</pdop><geoidheight>53.00</geoidheight><course>315.2</course><type>1</type></trkpt>
      <trkpt lat="40.76217898" lon="-4.65572349"><ele>2324</ele><speed>8.18</speed><time>2016-06-30T14:37:37Z</time><pdop>8.0</pdop><geoidheight>53.00</geoidheight><course>265.4</course><type>1</type></trkpt>
      <trkpt lat="40.76203926" lon="-4.65587245"><ele>2326</ele><speed>11.06</speed><time>2016-06-30T14:37:38Z</time><pdop>8.0</pdop><geoidheight>53.00</geoidheight><course>240.8</course><type>1</type></trkpt>
      <trkpt lat="40.76175929" lon="-4.6559692"><ele>2328</ele><speed>10.13</speed><time>2016-06-30T14:37:40Z</time><pdop>10.0</pdop><geoidheight>53.00</geoidheight><course>207.5</course><type>1</type></trkpt>
      <trkpt lat="40.76146155" lon="-4.65575784"><ele>2331</ele><speed>12.30</speed><time>2016-06-30T14:37:42Z</time><pdop>12.0</pdop><geoidheight>53.00</geoidheight><course>166.7</course><type>1</type></trkpt>
      <trkpt lat="40.76128528" lon="-4.65545915"><ele>2335</ele><speed>12.65</speed><time>2016-06-30T14:37:44Z</time><pdop>14.0</pdop><geoidheight>53.00</geoidheight><course>141.2</course><type>1</type></trkpt>
      <trkpt lat="40.76124978" lon="-4.65500865"><ele>2342</ele><speed>6.26</speed><time>2016-06-30T14:37:48Z</time><pdop>20.0</pdop><geoidheight>53.00</geoidheight><course>120.2</course><type>1</type></trkpt>
      <trkpt lat="40.76166676" lon="-4.65509072"><ele>2354</ele><speed>5.84</speed><time>2016-06-30T14:37:51Z</time><pdop>12.0</pdop><geoidheight>53.00</geoidheight><course>320.7</course><type>1</type></trkpt>
      <trkpt lat="40.76172436" lon="-4.65536058"><ele>2358</ele><speed>6.35</speed><time>2016-06-30T14:37:54Z</time><pdop>10.0</pdop><geoidheight>53.00</geoidheight><course>289.5</course><type>1</type></trkpt>
      <trkpt lat="40.76146729" lon="-4.65557031"><ele>2333</ele><speed>9.21</speed><time>2016-06-30T14:37:56Z</time><pdop>8.0</pdop><geoidheight>53.00</geoidheight><course>228.1</course><type>1</type></trkpt>
      <trkpt lat="40.76132149" lon="-4.6556133"><ele>2343</ele><speed>9.81</speed><time>2016-06-30T14:37:57Z</time><pdop>8.0</pdop><geoidheight>53.00</geoidheight><course>211.5</course><type>1</type></trkpt>
      <trkpt lat="40.76117331" lon="-4.65562146"><ele>2350</ele><speed>11.08</speed><time>2016-06-30T14:37:58Z</time><pdop>8.0</pdop><geoidheight>53.00</geoidheight><course>198.1</course><type>1</type></trkpt>
      <trkpt lat="40.76096131" lon="-4.65545268"><ele>2360</ele><speed>9.81</speed><time>2016-06-30T14:38:00Z</time><pdop>9.0</pdop><geoidheight>53.00</geoidheight><course>159.1</course><type>1</type></trkpt>
      <trkpt lat="40.76081987" lon="-4.65523031"><ele>2365</ele><speed>9.42</speed><time>2016-06-30T14:38:02Z</time><pdop>9.0</pdop><geoidheight>53.00</geoidheight><course>132.1</course><type>1</type></trkpt>
      <trkpt lat="40.76072019" lon="-4.65493704"><ele>2370</ele><speed>9.63</speed><time>2016-06-30T14:38:04Z</time><pdop>11.0</pdop><geoidheight>53.00</geoidheight><course>117.5</course><type>1</type></trkpt>
      <trkpt lat="40.76068094" lon="-4.65459102"><ele>2375</ele><speed>10.49</speed><time>2016-06-30T14:38:06Z</time><pdop>16.0</pdop><geoidheight>53.00</geoidheight><course>103.6</course><type>1</type></trkpt>
      <trkpt lat="40.76084393" lon="-4.65421656"><ele>2385</ele><speed>8.00</speed><time>2016-06-30T14:38:09Z</time><pdop>14.0</pdop><geoidheight>53.00</geoidheight><course>51.3</course><type>1</type></trkpt>
      <trkpt lat="40.76117689" lon="-4.65405905"><ele>2396</ele><speed>7.62</speed><time>2016-06-30T14:38:13Z</time><pdop>14.0</pdop><geoidheight>53.00</geoidheight><course>9.4</course><type>1</type></trkpt>
      <trkpt lat="40.76112789" lon="-4.65442499"><ele>2412</ele><speed>7.88</speed><time>2016-06-30T14:38:16Z</time><pdop>10.0</pdop><geoidheight>53.00</geoidheight><course>252.2</course><type>1</type></trkpt>
      <trkpt lat="40.76091022" lon="-4.65466799"><ele>2420</ele><speed>12.01</speed><time>2016-06-30T14:38:19Z</time><pdop>9.0</pdop><geoidheight>53.00</geoidheight><course>203.9</course><type>1</type></trkpt>
      <trkpt lat="40.76067466" lon="-4.65473708"><ele>2423</ele><speed>12.72</speed><time>2016-06-30T14:38:21Z</time><pdop>10.0</pdop><geoidheight>53.00</geoidheight><course>189.3</course><type>1</type></trkpt>
      <trkpt lat="40.7604576" lon="-4.65465271"><ele>2424</ele><speed>12.16</speed><time>2016-06-30T14:38:23Z</time><pdop>10.0</pdop><geoidheight>53.00</geoidheight><course>167.7</course><type>1</type></trkpt>
      <trkpt lat="40.76030628" lon="-4.65443633"><ele>2428</ele><speed>10.91</speed><time>2016-06-30T14:38:25Z</time><pdop>11.0</pdop><geoidheight>53.00</geoidheight><course>138.1</course><type>1</type></trkpt>
      <trkpt lat="40.76019209" lon="-4.65418439"><ele>2436</ele><speed>10.56</speed><time>2016-06-30T14:38:27Z</time><pdop>10.0</pdop><geoidheight>53.00</geoidheight><course>119.1</course><type>1</type></trkpt>
      <trkpt lat="40.76014419" lon="-4.65387402"><ele>2441</ele><speed>10.88</speed><time>2016-06-30T14:38:29Z</time><pdop>10.0</pdop><geoidheight>53.00</geoidheight><course>91.6</course><type>1</type></trkpt>
      <trkpt lat="40.76017105" lon="-4.65359122"><ele>2449</ele><speed>9.48</speed><time>2016-06-30T14:38:31Z</time><pdop>10.0</pdop><geoidheight>53.00</geoidheight><course>76.5</course><type>1</type></trkpt>
      <trkpt lat="40.7602588" lon="-4.6533471"><ele>2456</ele><speed>5.87</speed><time>2016-06-30T14:38:34Z</time><pdop>11.0</pdop><geoidheight>53.00</geoidheight><course>56.8</course><type>1</type></trkpt>
      <trkpt lat="40.76045015" lon="-4.65348417"><ele>2461</ele><speed>4.50</speed><time>2016-06-30T14:38:38Z</time><pdop>10.0</pdop><geoidheight>53.00</geoidheight><course>305.6</course><type>1</type></trkpt>
      <trkpt lat="40.76024929" lon="-4.6537745"><ele>2466</ele><speed>8.69</speed><time>2016-06-30T14:38:41Z</time><pdop>10.0</pdop><geoidheight>53.00</geoidheight><course>220.0</course><type>1</type></trkpt>
      <trkpt lat="40.76001989" lon="-4.65392523"><ele>2471</ele><speed>10.58</speed><time>2016-06-30T14:38:43Z</time><pdop>9.0</pdop><geoidheight>53.00</geoidheight><course>198.7</course><type>1</type></trkpt>
      <trkpt lat="40.75979972" lon="-4.65398479"><ele>2476</ele><speed>11.34</speed><time>2016-06-30T14:38:45Z</time><pdop>10.0</pdop><geoidheight>53.00</geoidheight><course>190.3</course><type>1</type></trkpt>
      <trkpt lat="40.7595395" lon="-4.65387993"><ele>2479</ele><speed>12.59</speed><time>2016-06-30T14:38:47Z</time><pdop>11.0</pdop><geoidheight>53.00</geoidheight><course>166.9</course><type>1</type></trkpt>
      <trkpt lat="40.75932826" lon="-4.65359993"><ele>2482</ele><speed>12.94</speed><time>2016-06-30T14:38:49Z</time><pdop>10.0</pdop><geoidheight>53.00</geoidheight><course>141.6</course><type>1</type></trkpt>
      <trkpt lat="40.75923423" lon="-4.65331651"><ele>2488</ele><speed>11.57</speed><time>2016-06-30T14:38:51Z</time><pdop>10.0</pdop><geoidheight>53.00</geoidheight><course>110.9</course><type>1</type></trkpt>
      <trkpt lat="40.75917936" lon="-4.65301501"><ele>2495</ele><speed>9.89</speed><time>2016-06-30T14:38:53Z</time><pdop>10.0</pdop><geoidheight>53.00</geoidheight><course>98.0</course><type>1</type></trkpt>
      <trkpt lat="40.75926052" lon="-4.65275073"><ele>2500</ele><speed>6.68</speed><time>2016-06-30T14:38:56Z</time><pdop>10.0</pdop><geoidheight>53.00</geoidheight><course>60.6</course><type>1</type></trkpt>
      <trkpt lat="40.75944969" lon="-4.65260499"><ele>2504</ele><speed>6.75</speed><time>2016-06-30T14:38:59Z</time><pdop>11.0</pdop><geoidheight>53.00</geoidheight><course>29.7</course><type>1</type></trkpt>
      <trkpt lat="40.75967011" lon="-4.65268938"><ele>2508</ele><speed>5.76</speed><time>2016-06-30T14:39:03Z</time><pdop>11.0</pdop><geoidheight>53.00</geoidheight><course>332.8</course><type>1</type></trkpt>
      <trkpt lat="40.7595809" lon="-4.65298286"><ele>2513</ele><speed>7.26</speed><time>2016-06-30T14:39:05Z</time><pdop>10.0</pdop><geoidheight>53.00</geoidheight><course>258.5</course><type>1</type></trkpt>
      <trkpt lat="40.7594593" lon="-4.65317857"><ele>2517</ele><speed>8.02</speed><time>2016-06-30T14:39:07Z</time><pdop>11.0</pdop><geoidheight>53.00</geoidheight><course>242.3</course><type>1</type></trkpt>
      <trkpt lat="40.75920038" lon="-4.65322641"><ele>2521</ele><speed>9.91</speed><time>2016-06-30T14:39:09Z</time><pdop>11.0</pdop><geoidheight>53.00</geoidheight><course>193.4</course><type>1</type></trkpt>
      <trkpt lat="40.75893239" lon="-4.65308488"><ele>2522</ele><speed>13.14</speed><time>2016-06-30T14:39:11Z</time><pdop>10.0</pdop><geoidheight>53.00</geoidheight><course>165.1</course><type>1</type></trkpt>
      <trkpt lat="40.75869375" lon="-4.65286493"><ele>2452</ele><speed>14.52</speed><time>2016-06-30T14:39:13Z</time><pdop>9.0</pdop><geoidheight>53.00</geoidheight><course>143.8</course><type>1</type></trkpt>
      <trkpt lat="40.75854041" lon="-4.65258991"><ele>2494</ele><speed>13.74</speed><time>2016-06-30T14:39:15Z</time><pdop>9.0</pdop><geoidheight>53.00</geoidheight><course>118.3</course><type>1</type></trkpt>
      <trkpt lat="40.7585158" lon="-4.65229642"><ele>2513</ele><speed>10.94</speed><time>2016-06-30T14:39:17Z</time><pdop>9.0</pdop><geoidheight>53.00</geoidheight><course>89.6</course><type>1</type></trkpt>
      <trkpt lat="40.7585845" lon="-4.65210231"><ele>2526</ele><speed>7.90</speed><time>2016-06-30T14:39:19Z</time><pdop>9.0</pdop><geoidheight>53.00</geoidheight><course>58.2</course><type>1</type></trkpt>
      <trkpt lat="40.75873915" lon="-4.65198173"><ele>2531</ele><speed>6.31</speed><time>2016-06-30T14:39:22Z</time><pdop>10.0</pdop><geoidheight>53.00</geoidheight><course>22.7</course><type>1</type></trkpt>
      <trkpt lat="40.75879985" lon="-4.65224889"><ele>2543</ele><speed>7.17</speed><time>2016-06-30T14:39:26Z</time><pdop>9.0</pdop><geoidheight>53.00</geoidheight><course>262.8</course><type>1</type></trkpt>
      <trkpt lat="40.75864673" lon="-4.65248549"><ele>2548</ele><speed>8.97</speed><time>2016-06-30T14:39:29Z</time><pdop>9.0</pdop><geoidheight>53.00</geoidheight><course>218.3</course><type>1</type></trkpt>
      <trkpt lat="40.7584134" lon="-4.65258979"><ele>2552</ele><speed>12.18</speed><time>2016-06-30T14:39:31Z</time><pdop>9.0</pdop><geoidheight>53.00</geoidheight><course>198.6</course><type>1</type></trkpt>
      <trkpt lat="40.75811886" lon="-4.65253955"><ele>2557</ele><speed>15.18</speed><time>2016-06-30T14:39:33Z</time><pdop>9.0</pdop><geoidheight>53.00</geoidheight><course>169.4</course><type>1</type></trkpt>
      <trkpt lat="40.75788791" lon="-4.65240777"><ele>2564</ele><speed>14.44</speed><time>2016-06-30T14:39:35Z</time><pdop>3.0</pdop><geoidheight>53.00</geoidheight><course>149.6</course><type>1</type></trkpt>
      <trkpt lat="40.75779017" lon="-4.6523032"><ele>2566</ele><speed>13.41</speed><time>2016-06-30T14:39:36Z</time><pdop>3.0</pdop><geoidheight>53.00</geoidheight><course>141.1</course><type>1</type></trkpt>
      <trkpt lat="40.75771399" lon="-4.65218112"><ele>2567</ele><speed>13.19</speed><time>2016-06-30T14:39:37Z</time><pdop>3.0</pdop><geoidheight>53.00</geoidheight><course>131.8</course><type>1</type></trkpt>
      <trkpt lat="40.75765893" lon="-4.65203225"><ele>2567</ele><speed>13.36</speed><time>2016-06-30T14:39:38Z</time><pdop>3.0</pdop><geoidheight>53.00</geoidheight><course>117.8</course><type>1</type></trkpt>
      <trkpt lat="40.75761278" lon="-4.65188812"><ele>2567</ele><speed>13.19</speed><time>2016-06-30T14:39:39Z</time><pdop>4.0</pdop><geoidheight>53.00</geoidheight><course>111.5</course><type>1</type></trkpt>
      <trkpt lat="40.75762035" lon="-4.65173623"><ele>2568</ele><speed>12.44</speed><time>2016-06-30T14:39:40Z</time><pdop>4.0</pdop><geoidheight>53.00</geoidheight><course>95.1</course><type>1</type></trkpt>
      <trkpt lat="40.75768144" lon="-4.65162346"><ele>2570</ele><speed>10.41</speed><time>2016-06-30T14:39:41Z</time><pdop>4.0</pdop><geoidheight>53.00</geoidheight><course>71.4</course><type>1</type></trkpt>
      <trkpt lat="40.75772713" lon="-4.65150522"><ele>2572</ele><speed>10.30</speed><time>2016-06-30T14:39:42Z</time><pdop>4.0</pdop><geoidheight>53.00</geoidheight><course>66.1</course><type>1</type></trkpt>
      <trkpt lat="40.75783026" lon="-4.65136569"><ele>2575</ele><speed>7.77</speed><time>2016-06-30T14:39:44Z</time><pdop>5.0</pdop><geoidheight>53.00</geoidheight><course>54.0</course><type>1</type></trkpt>
      <trkpt lat="40.75794019" lon="-4.65142293"><ele>2574</ele><speed>4.62</speed><time>2016-06-30T14:39:46Z</time><pdop>7.0</pdop><geoidheight>53.00</geoidheight><course>14.6</course><type>1</type></trkpt>
      <trkpt lat="40.75800295" lon="-4.65157653"><ele>2578</ele><speed>4.28</speed><time>2016-06-30T14:39:48Z</time><pdop>5.0</pdop><geoidheight>53.00</geoidheight><course>327.0</course><type>1</type></trkpt>
      <trkpt lat="40.75809737" lon="-4.65159459"><ele>2583</ele><speed>5.32</speed><time>2016-06-30T14:39:50Z</time><pdop>4.0</pdop><geoidheight>53.00</geoidheight><course>347.8</course><type>1</type></trkpt>
      <trkpt lat="40.7582021" lon="-4.65161985"><ele>2585</ele><speed>6.09</speed><time>2016-06-30T14:39:52Z</time><pdop>3.0</pdop><geoidheight>53.00</geoidheight><course>355.5</course><type>1</type></trkpt>
      <trkpt lat="40.75830216" lon="-4.6516212"><ele>2590</ele><speed>5.69</speed><time>2016-06-30T14:39:54Z</time><pdop>3.0</pdop><geoidheight>53.00</geoidheight><course>2.3</course><type>1</type></trkpt>
      <trkpt lat="40.75835917" lon="-4.65160793"><ele>2591</ele><speed>6.05</speed><time>2016-06-30T14:39:55Z</time><pdop>3.0</pdop><geoidheight>53.00</geoidheight><course>5.7</course><type>1</type></trkpt>
      <trkpt lat="40.75845184" lon="-4.65160977"><ele>2593</ele><speed>5.38</speed><time>2016-06-30T14:39:57Z</time><pdop>3.0</pdop><geoidheight>53.00</geoidheight><course>358.7</course><type>1</type></trkpt>
      <trkpt lat="40.75851893" lon="-4.65160101"><ele>2595</ele><speed>4.60</speed><time>2016-06-30T14:39:59Z</time><pdop>3.0</pdop><geoidheight>53.00</geoidheight><course>9.4</course><type>1</type></trkpt>
      <trkpt lat="40.75861281" lon="-4.65158072"><ele>2595</ele><speed>5.65</speed><time>2016-06-30T14:40:01Z</time><pdop>4.0</pdop><geoidheight>53.00</geoidheight><course>12.0</course><type>1</type></trkpt>
      <trkpt lat="40.75870761" lon="-4.65137224"><ele>2599</ele><speed>11.43</speed><time>2016-06-30T14:40:03Z</time><pdop>3.0</pdop><geoidheight>53.00</geoidheight><course>61.5</course><type>1</type></trkpt>
      <trkpt lat="40.75874352" lon="-4.65123905"><ele>2600</ele><speed>12.27</speed><time>2016-06-30T14:40:04Z</time><pdop>3.0</pdop><geoidheight>53.00</geoidheight><course>69.5</course><type>1</type></trkpt>
      <trkpt lat="40.75875503" lon="-4.65107836"><ele>2601</ele><speed>13.31</speed><time>2016-06-30T14:40:05Z</time><pdop>4.0</pdop><geoidheight>53.00</geoidheight><course>75.9</course><type>1</type></trkpt>
      <trkpt lat="40.75870937" lon="-4.65089773"><ele>2602</ele><speed>13.97</speed><time>2016-06-30T14:40:06Z</time><pdop>4.0</pdop><geoidheight>53.00</geoidheight><course>88.0</course><type>1</type></trkpt>
      <trkpt lat="40.75854556" lon="-4.65075419"><ele>2603</ele><speed>16.24</speed><time>2016-06-30T14:40:07Z</time><pdop>3.0</pdop><geoidheight>53.00</geoidheight><course>126.4</course><type>1</type></trkpt>
      <trkpt lat="40.75843562" lon="-4.65062631"><ele>2604</ele><speed>16.67</speed><time>2016-06-30T14:40:08Z</time><pdop>3.0</pdop><geoidheight>53.00</geoidheight><course>139.1</course><type>1</type></trkpt>
      <trkpt lat="40.75829563" lon="-4.65053035"><ele>2605</ele><speed>17.03</speed><time>2016-06-30T14:40:09Z</time><pdop>3.0</pdop><geoidheight>53.00</geoidheight><course>152.0</course><type>1</type></trkpt>
      <trkpt lat="40.75814974" lon="-4.6504865"><ele>2607</ele><speed>16.54</speed><time>2016-06-30T14:40:10Z</time><pdop>3.0</pdop><geoidheight>53.00</geoidheight><course>165.7</course><type>1</type></trkpt>
      <trkpt lat="40.75801081" lon="-4.65048775"><ele>2610</ele><speed>14.97</speed><time>2016-06-30T14:40:11Z</time><pdop>3.0</pdop><geoidheight>53.00</geoidheight><course>178.7</course><type>1</type></trkpt>
      <trkpt lat="40.75790488" lon="-4.65050896"><ele>2612</ele><speed>12.41</speed><time>2016-06-30T14:40:12Z</time><pdop>3.0</pdop><geoidheight>53.00</geoidheight><course>187.3</course><type>1</type></trkpt>
      <trkpt lat="40.75782132" lon="-4.65053233"><ele>2613</ele><speed>9.93</speed><time>2016-06-30T14:40:13Z</time><pdop>3.0</pdop><geoidheight>53.00</geoidheight><course>196.4</course><type>1</type></trkpt>
      <trkpt lat="40.75776403" lon="-4.65058286"><ele>2589</ele><speed>7.99</speed><time>2016-06-30T14:40:14Z</time><pdop>3.0</pdop><geoidheight>53.00</geoidheight><course>210.9</course><type>1</type></trkpt>
      <trkpt lat="40.75772872" lon="-4.65065004"><ele>2596</ele><speed>6.88</speed><time>2016-06-30T14:40:15Z</time><pdop>3.0</pdop><geoidheight>53.00</geoidheight><course>232.0</course><type>1</type></trkpt>
      <trkpt lat="40.75772302" lon="-4.65072702"><ele>2599</ele><speed>6.21</speed><time>2016-06-30T14:40:16Z</time><pdop>3.0</pdop><geoidheight>53.00</geoidheight><course>256.2</course><type>1</type></trkpt>
      <trkpt lat="40.75776378" lon="-4.65084462"><ele>2604</ele><speed>5.23</speed><time>2016-06-30T14:40:18Z</time><pdop>3.0</pdop><geoidheight>53.00</geoidheight><course>303.5</course><type>1</type></trkpt>
      <trkpt lat="40.75784012" lon="-4.65088194"><ele>2607</ele><speed>4.85</speed><time>2016-06-30T14:40:20Z</time><pdop>3.0</pdop><geoidheight>53.00</geoidheight><course>347.6</course><type>1</type></trkpt>
      <trkpt lat="40.7579357" lon="-4.65086319"><ele>2609</ele><speed>5.61</speed><time>2016-06-30T14:40:22Z</time><pdop>3.0</pdop><geoidheight>53.00</geoidheight><course>9.1</course><type>1</type></trkpt>
      <trkpt lat="40.75804181" lon="-4.65085415"><ele>2608</ele><speed>5.96</speed><time>2016-06-30T14:40:24Z</time><pdop>3.0</pdop><geoidheight>53.00</geoidheight><course>3.0</course><type>1</type></trkpt>
      <trkpt lat="40.75816821" lon="-4.65086973"><ele>2607</ele><speed>7.56</speed><time>2016-06-30T14:40:26Z</time><pdop>3.0</pdop><geoidheight>53.00</geoidheight><course>356.4</course><type>1</type></trkpt>
      <trkpt lat="40.7582484" lon="-4.65086031"><ele>2607</ele><speed>8.40</speed><time>2016-06-30T14:40:27Z</time><pdop>3.0</pdop><geoidheight>53.00</geoidheight><course>2.6</course><type>1</type></trkpt>
      <trkpt lat="40.75833535" lon="-4.65084724"><ele>2607</ele><speed>8.91</speed><time>2016-06-30T14:40:28Z</time><pdop>3.0</pdop><geoidheight>53.00</geoidheight><course>6.7</course><type>1</type></trkpt>
      <trkpt lat="40.75851913" lon="-4.65079924"><ele>2605</ele><speed>9.31</speed><time>2016-06-30T14:40:30Z</time><pdop>4.0</pdop><geoidheight>53.00</geoidheight><course>11.8</course><type>1</type></trkpt>
      <trkpt lat="40.75859969" lon="-4.65075157"><ele>2603</ele><speed>9.30</speed><time>2016-06-30T14:40:31Z</time><pdop>4.0</pdop><geoidheight>53.00</geoidheight><course>14.9</course><type>1</type></trkpt>
      <trkpt lat="40.75869627" lon="-4.65073231"><ele>2602</ele><speed>9.68</speed><time>2016-06-30T14:40:32Z</time><pdop>3.0</pdop><geoidheight>53.00</geoidheight><course>8.5</course><type>1</type></trkpt>
      <trkpt lat="40.75877701" lon="-4.65073697"><ele>2602</ele><speed>9.70</speed><time>2016-06-30T14:40:33Z</time><pdop>3.0</pdop><geoidheight>53.00</geoidheight><course>1.0</course><type>1</type></trkpt>
      <trkpt lat="40.75886468" lon="-4.65073807"><ele>2603</ele><speed>9.82</speed><time>2016-06-30T14:40:34Z</time><pdop>3.0</pdop><geoidheight>53.00</geoidheight><course>2.1</course><type>1</type></trkpt>
      <trkpt lat="40.75895474" lon="-4.65072172"><ele>2603</ele><speed>9.82</speed><time>2016-06-30T14:40:35Z</time><pdop>3.0</pdop><geoidheight>53.00</geoidheight><course>6.5</course><type>1</type></trkpt>
      <trkpt lat="40.75904376" lon="-4.65070132"><ele>2603</ele><speed>10.04</speed><time>2016-06-30T14:40:36Z</time><pdop>3.0</pdop><geoidheight>53.00</geoidheight><course>9.2</course><type>1</type></trkpt>
      <trkpt lat="40.75923" lon="-4.65068054"><ele>2604</ele><speed>10.77</speed><time>2016-06-30T14:40:38Z</time><pdop>9.0</pdop><geoidheight>53.00</geoidheight><course>4.5</course><type>1</type></trkpt>
      <trkpt lat="40.7593947" lon="-4.65066448"><ele>2610</ele><speed>8.80</speed><time>2016-06-30T14:40:40Z</time><pdop>9.0</pdop><geoidheight>53.00</geoidheight><course>4.7</course><type>1</type></trkpt>
      <trkpt lat="40.75962329" lon="-4.65059463"><ele>2612</ele><speed>8.67</speed><time>2016-06-30T14:40:43Z</time><pdop>9.0</pdop><geoidheight>53.00</geoidheight><course>18.2</course><type>1</type></trkpt>
      <trkpt lat="40.75975182" lon="-4.65043644"><ele>2611</ele><speed>9.49</speed><time>2016-06-30T14:40:45Z</time><pdop>9.0</pdop><geoidheight>53.00</geoidheight><course>34.0</course><type>1</type></trkpt>
      <trkpt lat="40.75997422" lon="-4.65029449"><ele>2614</ele><speed>9.24</speed><time>2016-06-30T14:40:48Z</time><pdop>9.0</pdop><geoidheight>53.00</geoidheight><course>23.1</course><type>1</type></trkpt>
      <trkpt lat="40.76012367" lon="-4.65011961"><ele>2622</ele><speed>7.91</speed><time>2016-06-30T14:40:51Z</time><pdop>9.0</pdop><geoidheight>53.00</geoidheight><course>46.4</course><type>1</type></trkpt>
      <trkpt lat="40.76024068" lon="-4.64985864"><ele>2623</ele><speed>10.09</speed><time>2016-06-30T14:40:54Z</time><pdop>9.0</pdop><geoidheight>53.00</geoidheight><course>57.5</course><type>1</type></trkpt>
      <trkpt lat="40.76032188" lon="-4.64964966"><ele>2621</ele><speed>9.54</speed><time>2016-06-30T14:40:56Z</time><pdop>10.0</pdop><geoidheight>53.00</geoidheight><course>57.4</course><type>1</type></trkpt>
      <trkpt lat="40.76055056" lon="-4.64955498"><ele>2623</ele><speed>8.27</speed><time>2016-06-30T14:40:59Z</time><pdop>9.0</pdop><geoidheight>53.00</geoidheight><course>24.4</course><type>1</type></trkpt>
      <trkpt lat="40.76068667" lon="-4.64942282"><ele>2626</ele><speed>6.62</speed><time>2016-06-30T14:41:02Z</time><pdop>9.0</pdop><geoidheight>53.00</geoidheight><course>33.5</course><type>1</type></trkpt>
      <trkpt lat="40.7608612" lon="-4.64930279"><ele>2624</ele><speed>7.68</speed><time>2016-06-30T14:41:05Z</time><pdop>9.0</pdop><geoidheight>53.00</geoidheight><course>22.3</course><type>1</type></trkpt>
      <trkpt lat="40.76101912" lon="-4.64922745"><ele>2621</ele><speed>9.70</speed><time>2016-06-30T14:41:07Z</time><pdop>9.0</pdop><geoidheight>53.00</geoidheight><course>25.2</course><type>1</type></trkpt>
      <trkpt lat="40.76116846" lon="-4.64911823"><ele>2622</ele><speed>8.72</speed><time>2016-06-30T14:41:09Z</time><pdop>9.0</pdop><geoidheight>53.00</geoidheight><course>34.3</course><type>1</type></trkpt>
      <trkpt lat="40.76132611" lon="-4.64897534"><ele>2616</ele><speed>7.37</speed><time>2016-06-30T14:41:12Z</time><pdop>9.0</pdop><geoidheight>53.00</geoidheight><course>28.3</course><type>1</type></trkpt>
      <trkpt lat="40.76156067" lon="-4.64888608"><ele>2607</ele><speed>10.72</speed><time>2016-06-30T14:41:15Z</time><pdop>9.0</pdop><geoidheight>53.00</geoidheight><course>11.4</course><type>1</type></trkpt>
      <trkpt lat="40.76176135" lon="-4.64885029"><ele>2604</ele><speed>11.52</speed><time>2016-06-30T14:41:17Z</time><pdop>9.0</pdop><geoidheight>53.00</geoidheight><course>10.3</course><type>1</type></trkpt>
      <trkpt lat="40.76194444" lon="-4.64876728"><ele>2605</ele><speed>10.60</speed><time>2016-06-30T14:41:19Z</time><pdop>9.0</pdop><geoidheight>53.00</geoidheight><course>18.9</course><type>1</type></trkpt>
      <trkpt lat="40.76211403" lon="-4.64867787"><ele>2607</ele><speed>9.22</speed><time>2016-06-30T14:41:21Z</time><pdop>9.0</pdop><geoidheight>53.00</geoidheight><course>20.7</course><type>1</type></trkpt>
      <trkpt lat="40.76226841" lon="-4.64861406"><ele>2607</ele><speed>8.38</speed><time>2016-06-30T14:41:23Z</time><pdop>9.0</pdop><geoidheight>53.00</geoidheight><course>18.2</course><type>1</type></trkpt>
      <trkpt lat="40.7624363" lon="-4.648535"><ele>2607</ele><speed>7.33</speed><time>2016-06-30T14:41:26Z</time><pdop>9.0</pdop><geoidheight>53.00</geoidheight><course>19.4</course><type>1</type></trkpt>
      <trkpt lat="40.76262189" lon="-4.64842583"><ele>2604</ele><speed>8.18</speed><time>2016-06-30T14:41:29Z</time><pdop>9.0</pdop><geoidheight>53.00</geoidheight><course>22.7</course><type>1</type></trkpt>
      <trkpt lat="40.76283277" lon="-4.6483421"><ele>2602</ele><speed>8.36</speed><time>2016-06-30T14:41:32Z</time><pdop>9.0</pdop><geoidheight>53.00</geoidheight><course>16.2</course><type>1</type></trkpt>
      <trkpt lat="40.76305006" lon="-4.64830853"><ele>2603</ele><speed>8.13</speed><time>2016-06-30T14:41:35Z</time><pdop>9.0</pdop><geoidheight>53.00</geoidheight><course>1.0</course><type>1</type></trkpt>
      <trkpt lat="40.76326602" lon="-4.64826873"><ele>2602</ele><speed>8.52</speed><time>2016-06-30T14:41:38Z</time><pdop>9.0</pdop><geoidheight>53.00</geoidheight><course>7.0</course><type>1</type></trkpt>
      <trkpt lat="40.76348468" lon="-4.64823955"><ele>2602</ele><speed>6.95</speed><time>2016-06-30T14:41:41Z</time><pdop>9.0</pdop><geoidheight>53.00</geoidheight><course>4.6</course><type>1</type></trkpt>
      <trkpt lat="40.76365851" lon="-4.64829969"><ele>2602</ele><speed>7.51</speed><time>2016-06-30T14:41:44Z</time><pdop>9.0</pdop><geoidheight>53.00</geoidheight><course>343.4</course><type>1</type></trkpt>
      <trkpt lat="40.76386703" lon="-4.64831617"><ele>2599</ele><speed>11.42</speed><time>2016-06-30T14:41:46Z</time><pdop>9.0</pdop><geoidheight>53.00</geoidheight><course>357.9</course><type>1</type></trkpt>
      <trkpt lat="40.7640529" lon="-4.64832223"><ele>2601</ele><speed>10.30</speed><time>2016-06-30T14:41:48Z</time><pdop>9.0</pdop><geoidheight>53.00</geoidheight><course>0.7</course><type>1</type></trkpt>
      <trkpt lat="40.76429043" lon="-4.64827864"><ele>2603</ele><speed>9.04</speed><time>2016-06-30T14:41:51Z</time><pdop>10.0</pdop><geoidheight>53.00</geoidheight><course>12.5</course><type>1</type></trkpt>
      <trkpt lat="40.76449281" lon="-4.64819094"><ele>2605</ele><speed>9.19</speed><time>2016-06-30T14:41:54Z</time><pdop>9.0</pdop><geoidheight>53.00</geoidheight><course>16.3</course><type>1</type></trkpt>
      <trkpt lat="40.76466443" lon="-4.64812035"><ele>2607</ele><speed>9.81</speed><time>2016-06-30T14:41:56Z</time><pdop>9.0</pdop><geoidheight>53.00</geoidheight><course>16.9</course><type>1</type></trkpt>
      <trkpt lat="40.76482576" lon="-4.64805854"><ele>2611</ele><speed>9.44</speed><time>2016-06-30T14:41:58Z</time><pdop>9.0</pdop><geoidheight>53.00</geoidheight><course>18.3</course><type>1</type></trkpt>
      <trkpt lat="40.76498229" lon="-4.6479585"><ele>2623</ele><speed>8.46</speed><time>2016-06-30T14:42:01Z</time><pdop>9.0</pdop><geoidheight>53.00</geoidheight><course>45.0</course><type>1</type></trkpt>
      <trkpt lat="40.76509143" lon="-4.64780002"><ele>2627</ele><speed>9.38</speed><time>2016-06-30T14:42:03Z</time><pdop>9.0</pdop><geoidheight>53.00</geoidheight><course>47.6</course><type>1</type></trkpt>
      <trkpt lat="40.76495485" lon="-4.64754635"><ele>2623</ele><speed>10.00</speed><time>2016-06-30T14:42:05Z</time><pdop>10.0</pdop><geoidheight>53.00</geoidheight><course>114.5</course><type>1</type></trkpt>
      <trkpt lat="40.7647317" lon="-4.64735497"><ele>2626</ele><speed>13.07</speed><time>2016-06-30T14:42:07Z</time><pdop>9.0</pdop><geoidheight>53.00</geoidheight><course>142.6</course><type>1</type></trkpt>
      <trkpt lat="40.76448327" lon="-4.64733461"><ele>2630</ele><speed>11.95</speed><time>2016-06-30T14:42:09Z</time><pdop>10.0</pdop><geoidheight>53.00</geoidheight><course>171.6</course><type>1</type></trkpt>
      <trkpt lat="40.76433467" lon="-4.64752044"><ele>2639</ele><speed>10.73</speed><time>2016-06-30T14:42:11Z</time><pdop>9.0</pdop><geoidheight>53.00</geoidheight><course>231.4</course><type>1</type></trkpt>
      <trkpt lat="40.76433216" lon="-4.64770788"><ele>2646</ele><speed>8.17</speed><time>2016-06-30T14:42:13Z</time><pdop>3.0</pdop><geoidheight>53.00</geoidheight><course>277.1</course><type>1</type></trkpt>
      <trkpt lat="40.76436398" lon="-4.64777084"><ele>2650</ele><speed>7.44</speed><time>2016-06-30T14:42:14Z</time><pdop>3.0</pdop><geoidheight>53.00</geoidheight><course>304.4</course><type>1</type></trkpt>
      <trkpt lat="40.76442159" lon="-4.64780568"><ele>2654</ele><speed>7.34</speed><time>2016-06-30T14:42:15Z</time><pdop>3.0</pdop><geoidheight>53.00</geoidheight><course>330.2</course><type>1</type></trkpt>
      <trkpt lat="40.76448493" lon="-4.64781225"><ele>2657</ele><speed>7.74</speed><time>2016-06-30T14:42:16Z</time><pdop>3.0</pdop><geoidheight>53.00</geoidheight><course>354.0</course><type>1</type></trkpt>
      <trkpt lat="40.76455231" lon="-4.64779557"><ele>2660</ele><speed>8.14</speed><time>2016-06-30T14:42:17Z</time><pdop>3.0</pdop><geoidheight>53.00</geoidheight><course>9.7</course><type>1</type></trkpt>
      <trkpt lat="40.76461397" lon="-4.64771767"><ele>2663</ele><speed>10.03</speed><time>2016-06-30T14:42:18Z</time><pdop>3.0</pdop><geoidheight>53.00</geoidheight><course>37.5</course><type>1</type></trkpt>
      <trkpt lat="40.76464705" lon="-4.64760464"><ele>2667</ele><speed>11.18</speed><time>2016-06-30T14:42:19Z</time><pdop>3.0</pdop><geoidheight>53.00</geoidheight><course>60.8</course><type>1</type></trkpt>
      <trkpt lat="40.76465517" lon="-4.64746425"><ele>2671</ele><speed>12.27</speed><time>2016-06-30T14:42:20Z</time><pdop>3.0</pdop><geoidheight>53.00</geoidheight><course>81.9</course><type>1</type></trkpt>
      <trkpt lat="40.76462217" lon="-4.64731349"><ele>2674</ele><speed>13.19</speed><time>2016-06-30T14:42:21Z</time><pdop>3.0</pdop><geoidheight>53.00</geoidheight><course>101.8</course><type>1</type></trkpt>
      <trkpt lat="40.76456038" lon="-4.64718019"><ele>2678</ele><speed>13.69</speed><time>2016-06-30T14:42:22Z</time><pdop>3.0</pdop><geoidheight>53.00</geoidheight><course>118.1</course><type>1</type></trkpt>
      <trkpt lat="40.76446844" lon="-4.64706671"><ele>2681</ele><speed>13.91</speed><time>2016-06-30T14:42:23Z</time><pdop>3.0</pdop><geoidheight>53.00</geoidheight><course>133.6</course><type>1</type></trkpt>
      <trkpt lat="40.76436707" lon="-4.64698295"><ele>2683</ele><speed>14.01</speed><time>2016-06-30T14:42:24Z</time><pdop>3.0</pdop><geoidheight>53.00</geoidheight><course>148.1</course><type>1</type></trkpt>
      <trkpt lat="40.7642478" lon="-4.64694657"><ele>2686</ele><speed>13.90</speed><time>2016-06-30T14:42:25Z</time><pdop>3.0</pdop><geoidheight>53.00</geoidheight><course>162.7</course><type>1</type></trkpt>
      <trkpt lat="40.76412455" lon="-4.64694685"><ele>2688</ele><speed>13.31</speed><time>2016-06-30T14:42:26Z</time><pdop>3.0</pdop><geoidheight>53.00</geoidheight><course>178.5</course><type>1</type></trkpt>
      <trkpt lat="40.76401404" lon="-4.64698237"><ele>2691</ele><speed>12.57</speed><time>2016-06-30T14:42:27Z</time><pdop>3.0</pdop><geoidheight>53.00</geoidheight><course>192.7</course><type>1</type></trkpt>
      <trkpt lat="40.76392415" lon="-4.64704907"><ele>2694</ele><speed>11.63</speed><time>2016-06-30T14:42:28Z</time><pdop>3.0</pdop><geoidheight>53.00</geoidheight><course>207.0</course><type>1</type></trkpt>
      <trkpt lat="40.76384844" lon="-4.64712316"><ele>2697</ele><speed>11.16</speed><time>2016-06-30T14:42:29Z</time><pdop>3.0</pdop><geoidheight>53.00</geoidheight><course>215.6</course><type>1</type></trkpt>
      <trkpt lat="40.76378056" lon="-4.64720147"><ele>2700</ele><speed>10.69</speed><time>2016-06-30T14:42:30Z</time><pdop>3.0</pdop><geoidheight>53.00</geoidheight><course>222.7</course><type>1</type></trkpt>
      <trkpt lat="40.76372487" lon="-4.64728772"><ele>2705</ele><speed>10.48</speed><time>2016-06-30T14:42:31Z</time><pdop>3.0</pdop><geoidheight>53.00</geoidheight><course>230.9</course><type>1</type></trkpt>
      <trkpt lat="40.7636802" lon="-4.64738507"><ele>2708</ele><speed>10.36</speed><time>2016-06-30T14:42:32Z</time><pdop>3.0</pdop><geoidheight>53.00</geoidheight><course>239.3</course><type>1</type></trkpt>
      <trkpt lat="40.76364345" lon="-4.64748905"><ele>2711</ele><speed>9.89</speed><time>2016-06-30T14:42:33Z</time><pdop>3.0</pdop><geoidheight>53.00</geoidheight><course>243.6</course><type>1</type></trkpt>
      <trkpt lat="40.76361466" lon="-4.64757823"><ele>2715</ele><speed>8.42</speed><time>2016-06-30T14:42:34Z</time><pdop>3.0</pdop><geoidheight>53.00</geoidheight><course>244.5</course><type>1</type></trkpt>
      <trkpt lat="40.7635919" lon="-4.64770461"><ele>2716</ele><speed>5.31</speed><time>2016-06-30T14:42:36Z</time><pdop>3.0</pdop><geoidheight>53.00</geoidheight><course>259.1</course><type>1</type></trkpt>
      <trkpt lat="40.7636528" lon="-4.64784148"><ele>2713</ele><speed>7.99</speed><time>2016-06-30T14:42:38Z</time><pdop>3.0</pdop><geoidheight>53.00</geoidheight><course>308.5</course><type>1</type></trkpt>
      <trkpt lat="40.7636975" lon="-4.64791552"><ele>2713</ele><speed>7.98</speed><time>2016-06-30T14:42:39Z</time><pdop>3.0</pdop><geoidheight>53.00</geoidheight><course>308.5</course><type>1</type></trkpt>
      <trkpt lat="40.76380024" lon="-4.64790528"><ele>2715</ele><speed>9.78</speed><time>2016-06-30T14:42:40Z</time><pdop>3.0</pdop><geoidheight>53.00</geoidheight><course>351.1</course><type>1</type></trkpt>
      <trkpt lat="40.76388799" lon="-4.64790216"><ele>2718</ele><speed>10.54</speed><time>2016-06-30T14:42:41Z</time><pdop>3.0</pdop><geoidheight>53.00</geoidheight><course>10.8</course><type>1</type></trkpt>
      <trkpt lat="40.76396681" lon="-4.64786032"><ele>2721</ele><speed>10.73</speed><time>2016-06-30T14:42:42Z</time><pdop>4.0</pdop><geoidheight>53.00</geoidheight><course>21.7</course><type>1</type></trkpt>
      <trkpt lat="40.76405241" lon="-4.64776657"><ele>2723</ele><speed>11.30</speed><time>2016-06-30T14:42:43Z</time><pdop>5.0</pdop><geoidheight>53.00</geoidheight><course>34.8</course><type>1</type></trkpt>
      <trkpt lat="40.76415557" lon="-4.64762953"><ele>2727</ele><speed>8.24</speed><time>2016-06-30T14:42:45Z</time><pdop>8.0</pdop><geoidheight>53.00</geoidheight><course>39.8</course><type>1</type></trkpt>
      <trkpt lat="40.76426492" lon="-4.64748412"><ele>2730</ele><speed>9.21</speed><time>2016-06-30T14:42:47Z</time><pdop>9.0</pdop><geoidheight>53.00</geoidheight><course>44.3</course><type>1</type></trkpt>
      <trkpt lat="40.76431173" lon="-4.64717706"><ele>2740</ele><speed>10.84</speed><time>2016-06-30T14:42:50Z</time><pdop>8.0</pdop><geoidheight>53.00</geoidheight><course>58.6</course><type>1</type></trkpt>
      <trkpt lat="40.76436639" lon="-4.64694953"><ele>2747</ele><speed>11.37</speed><time>2016-06-30T14:42:52Z</time><pdop>7.0</pdop><geoidheight>53.00</geoidheight><course>88.1</course><type>1</type></trkpt>
      <trkpt lat="40.76434753" lon="-4.64674633"><ele>2750</ele><speed>8.91</speed><time>2016-06-30T14:42:54Z</time><pdop>7.0</pdop><geoidheight>53.00</geoidheight><course>101.8</course><type>1</type></trkpt>
      <trkpt lat="40.76423832" lon="-4.64666549"><ele>2750</ele><speed>10.43</speed><time>2016-06-30T14:42:55Z</time><pdop>5.0</pdop><geoidheight>53.00</geoidheight><course>126.6</course><type>1</type></trkpt>
      <trkpt lat="40.76410152" lon="-4.64658802"><ele>2751</ele><speed>11.94</speed><time>2016-06-30T14:42:56Z</time><pdop>6.0</pdop><geoidheight>53.00</geoidheight><course>142.9</course><type>1</type></trkpt>
      <trkpt lat="40.76398249" lon="-4.64656583"><ele>2754</ele><speed>11.80</speed><time>2016-06-30T14:42:57Z</time><pdop>6.0</pdop><geoidheight>53.00</geoidheight><course>155.5</course><type>1</type></trkpt>
      <trkpt lat="40.7638667" lon="-4.64662939"><ele>2755</ele><speed>10.99</speed><time>2016-06-30T14:42:58Z</time><pdop>5.0</pdop><geoidheight>53.00</geoidheight><course>177.9</course><type>1</type></trkpt>
      <trkpt lat="40.76376622" lon="-4.64664067"><ele>2757</ele><speed>9.92</speed><time>2016-06-30T14:42:59Z</time><pdop>5.0</pdop><geoidheight>53.00</geoidheight><course>179.1</course><type>1</type></trkpt>
      <trkpt lat="40.76370828" lon="-4.64682158"><ele>2761</ele><speed>7.47</speed><time>2016-06-30T14:43:01Z</time><pdop>6.0</pdop><geoidheight>53.00</geoidheight><course>225.9</course><type>1</type></trkpt>
      <trkpt lat="40.76384531" lon="-4.64690173"><ele>2765</ele><speed>8.26</speed><time>2016-06-30T14:43:02Z</time><pdop>4.0</pdop><geoidheight>53.00</geoidheight><course>313.2</course><type>1</type></trkpt>
      <trkpt lat="40.76392686" lon="-4.64703217"><ele>2771</ele><speed>6.91</speed><time>2016-06-30T14:43:04Z</time><pdop>5.0</pdop><geoidheight>53.00</geoidheight><course>318.0</course><type>1</type></trkpt>
      <trkpt lat="40.7640636" lon="-4.64699783"><ele>2776</ele><speed>7.08</speed><time>2016-06-30T14:43:06Z</time><pdop>7.0</pdop><geoidheight>53.00</geoidheight><course>8.5</course><type>1</type></trkpt>
      <trkpt lat="40.76413466" lon="-4.6468123"><ele>2789</ele><speed>9.52</speed><time>2016-06-30T14:43:08Z</time><pdop>4.0</pdop><geoidheight>53.00</geoidheight><course>60.0</course><type>1</type></trkpt>
      <trkpt lat="40.76417694" lon="-4.64671659"><ele>2790</ele><speed>9.39</speed><time>2016-06-30T14:43:09Z</time><pdop>5.0</pdop><geoidheight>53.00</geoidheight><course>59.9</course><type>1</type></trkpt>
      <trkpt lat="40.7641051" lon="-4.64650684"><ele>2795</ele><speed>12.75</speed><time>2016-06-30T14:43:10Z</time><pdop>4.0</pdop><geoidheight>53.00</geoidheight><course>105.7</course><type>1</type></trkpt>
      <trkpt lat="40.76406353" lon="-4.64639489"><ele>2798</ele><speed>11.73</speed><time>2016-06-30T14:43:11Z</time><pdop>4.0</pdop><geoidheight>53.00</geoidheight><course>115.2</course><type>1</type></trkpt>
      <trkpt lat="40.76393833" lon="-4.64632117"><ele>2801</ele><speed>14.56</speed><time>2016-06-30T14:43:12Z</time><pdop>4.0</pdop><geoidheight>53.00</geoidheight><course>147.9</course><type>1</type></trkpt>
      <trkpt lat="40.76380774" lon="-4.64626144"><ele>2804</ele><speed>15.21</speed><time>2016-06-30T14:43:13Z</time><pdop>4.0</pdop><geoidheight>53.00</geoidheight><course>163.4</course><type>1</type></trkpt>
      <trkpt lat="40.76367441" lon="-4.64623675"><ele>2809</ele><speed>15.32</speed><time>2016-06-30T14:43:14Z</time><pdop>4.0</pdop><geoidheight>53.00</geoidheight><course>168.5</course><type>1</type></trkpt>
      <trkpt lat="40.76354313" lon="-4.64620211"><ele>2812</ele><speed>15.09</speed><time>2016-06-30T14:43:15Z</time><pdop>5.0</pdop><geoidheight>53.00</geoidheight><course>168.6</course><type>1</type></trkpt>
      <trkpt lat="40.76345265" lon="-4.64628704"><ele>2817</ele><speed>12.01</speed><time>2016-06-30T14:43:16Z</time><pdop>3.0</pdop><geoidheight>53.00</geoidheight><course>207.0</course><type>1</type></trkpt>
      <trkpt lat="40.76337189" lon="-4.64635471"><ele>2822</ele><speed>11.41</speed><time>2016-06-30T14:43:17Z</time><pdop>4.0</pdop><geoidheight>53.00</geoidheight><course>215.7</course><type>1</type></trkpt>
      <trkpt lat="40.76336668" lon="-4.6465273"><ele>2830</ele><speed>7.31</speed><time>2016-06-30T14:43:19Z</time><pdop>4.0</pdop><geoidheight>53.00</geoidheight><course>282.8</course><type>1</type></trkpt>
      <trkpt lat="40.76343172" lon="-4.64665068"><ele>2835</ele><speed>7.13</speed><time>2016-06-30T14:43:21Z</time><pdop>6.0</pdop><geoidheight>53.00</geoidheight><course>307.3</course><type>1</type></trkpt>
      <trkpt lat="40.7635852" lon="-4.64666242"><ele>2840</ele><speed>9.35</speed><time>2016-06-30T14:43:23Z</time><pdop>5.0</pdop><geoidheight>53.00</geoidheight><course>0.0</course><type>1</type></trkpt>
      <trkpt lat="40.76374443" lon="-4.64660359"><ele>2848</ele><speed>10.39</speed><time>2016-06-30T14:43:25Z</time><pdop>4.0</pdop><geoidheight>53.00</geoidheight><course>31.6</course><type>1</type></trkpt>
      <trkpt lat="40.76381014" lon="-4.64652346"><ele>2851</ele><speed>10.01</speed><time>2016-06-30T14:43:26Z</time><pdop>4.0</pdop><geoidheight>53.00</geoidheight><course>43.2</course><type>1</type></trkpt>
      <trkpt lat="40.7638448" lon="-4.64642917"><ele>2855</ele><speed>9.66</speed><time>2016-06-30T14:43:27Z</time><pdop>4.0</pdop><geoidheight>53.00</geoidheight><course>55.8</course><type>1</type></trkpt>
      <trkpt lat="40.76389033" lon="-4.64634052"><ele>2857</ele><speed>9.34</speed><time>2016-06-30T14:43:28Z</time><pdop>5.0</pdop><geoidheight>53.00</geoidheight><course>55.9</course><type>1</type></trkpt>
      <trkpt lat="40.76387188" lon="-4.6462141"><ele>2860</ele><speed>11.32</speed><time>2016-06-30T14:43:29Z</time><pdop>4.0</pdop><geoidheight>53.00</geoidheight><course>95.1</course><type>1</type></trkpt>
      <trkpt lat="40.7638537" lon="-4.64608183"><ele>2861</ele><speed>11.60</speed><time>2016-06-30T14:43:30Z</time><pdop>4.0</pdop><geoidheight>53.00</geoidheight><course>98.6</course><type>1</type></trkpt>
      <trkpt lat="40.7637801" lon="-4.64594679"><ele>2862</ele><speed>13.30</speed><time>2016-06-30T14:43:31Z</time><pdop>4.0</pdop><geoidheight>53.00</geoidheight><course>120.6</course><type>1</type></trkpt>
      <trkpt lat="40.76371852" lon="-4.64581861"><ele>2863</ele><speed>13.38</speed><time>2016-06-30T14:43:32Z</time><pdop>5.0</pdop><geoidheight>53.00</geoidheight><course>126.9</course><type>1</type></trkpt>
      <trkpt lat="40.76360051" lon="-4.64573057"><ele>2864</ele><speed>15.61</speed><time>2016-06-30T14:43:33Z</time><pdop>5.0</pdop><geoidheight>53.00</geoidheight><course>147.3</course><type>1</type></trkpt>
      <trkpt lat="40.76348724" lon="-4.64565883"><ele>2866</ele><speed>14.52</speed><time>2016-06-30T14:43:34Z</time><pdop>5.0</pdop><geoidheight>53.00</geoidheight><course>158.6</course><type>1</type></trkpt>
      <trkpt lat="40.76338069" lon="-4.64563162"><ele>2869</ele><speed>13.66</speed><time>2016-06-30T14:43:35Z</time><pdop>5.0</pdop><geoidheight>53.00</geoidheight><course>173.0</course><type>1</type></trkpt>
      <trkpt lat="40.7632603" lon="-4.64561269"><ele>2871</ele><speed>13.54</speed><time>2016-06-30T14:43:36Z</time><pdop>5.0</pdop><geoidheight>53.00</geoidheight><course>173.1</course><type>1</type></trkpt>
      <trkpt lat="40.76312249" lon="-4.64564158"><ele>2872</ele><speed>14.12</speed><time>2016-06-30T14:43:37Z</time><pdop>6.0</pdop><geoidheight>53.00</geoidheight><course>185.5</course><type>1</type></trkpt>
      <trkpt lat="40.76295952" lon="-4.64574941"><ele>2880</ele><speed>10.14</speed><time>2016-06-30T14:43:39Z</time><pdop>5.0</pdop><geoidheight>53.00</geoidheight><course>226.0</course><type>1</type></trkpt>
      <trkpt lat="40.76289915" lon="-4.64591126"><ele>2888</ele><speed>7.57</speed><time>2016-06-30T14:43:41Z</time><pdop>5.0</pdop><geoidheight>53.00</geoidheight><course>266.9</course><type>1</type></trkpt>
      <trkpt lat="40.76295448" lon="-4.64605546"><ele>2656</ele><speed>6.85</speed><time>2016-06-30T14:43:43Z</time><pdop>5.0</pdop><geoidheight>53.00</geoidheight><course>310.2</course><type>1</type></trkpt>
      <trkpt lat="40.76317867" lon="-4.64613023"><ele>2799</ele><speed>10.11</speed><time>2016-06-30T14:43:46Z</time><pdop>5.0</pdop><geoidheight>53.00</geoidheight><course>3.8</course><type>1</type></trkpt>
      <trkpt lat="40.76327106" lon="-4.64609372"><ele>2833</ele><speed>10.95</speed><time>2016-06-30T14:43:47Z</time><pdop>4.0</pdop><geoidheight>53.00</geoidheight><course>19.3</course><type>1</type></trkpt>
      <trkpt lat="40.76334772" lon="-4.64602314"><ele>2836</ele><speed>11.78</speed><time>2016-06-30T14:43:48Z</time><pdop>4.0</pdop><geoidheight>53.00</geoidheight><course>39.9</course><type>1</type></trkpt>
      <trkpt lat="40.7634077" lon="-4.64591239"><ele>2849</ele><speed>11.94</speed><time>2016-06-30T14:43:49Z</time><pdop>4.0</pdop><geoidheight>53.00</geoidheight><course>57.9</course><type>1</type></trkpt>
      <trkpt lat="40.76342353" lon="-4.64578481"><ele>2863</ele><speed>12.58</speed><time>2016-06-30T14:43:50Z</time><pdop>4.0</pdop><geoidheight>53.00</geoidheight><course>85.0</course><type>1</type></trkpt>
      <trkpt lat="40.76343294" lon="-4.64564346"><ele>2867</ele><speed>12.61</speed><time>2016-06-30T14:43:51Z</time><pdop>4.0</pdop><geoidheight>53.00</geoidheight><course>85.0</course><type>1</type></trkpt>
      <trkpt lat="40.76336871" lon="-4.64547633"><ele>2889</ele><speed>14.98</speed><time>2016-06-30T14:43:52Z</time><pdop>3.0</pdop><geoidheight>53.00</geoidheight><course>113.9</course><type>1</type></trkpt>
      <trkpt lat="40.76329159" lon="-4.64533583"><ele>2892</ele><speed>14.93</speed><time>2016-06-30T14:43:53Z</time><pdop>4.0</pdop><geoidheight>53.00</geoidheight><course>125.5</course><type>1</type></trkpt>
      <trkpt lat="40.76316679" lon="-4.64522607"><ele>2898</ele><speed>16.92</speed><time>2016-06-30T14:43:54Z</time><pdop>4.0</pdop><geoidheight>53.00</geoidheight><course>144.3</course><type>1</type></trkpt>
      <trkpt lat="40.76303791" lon="-4.64512772"><ele>2902</ele><speed>16.51</speed><time>2016-06-30T14:43:55Z</time><pdop>4.0</pdop><geoidheight>53.00</geoidheight><course>157.5</course><type>1</type></trkpt>
      <trkpt lat="40.7629033" lon="-4.64505398"><ele>2901</ele><speed>16.60</speed><time>2016-06-30T14:43:56Z</time><pdop>5.0</pdop><geoidheight>53.00</geoidheight><course>157.4</course><type>1</type></trkpt>
      <trkpt lat="40.76277784" lon="-4.64512343"><ele>2912</ele><speed>14.09</speed><time>2016-06-30T14:43:57Z</time><pdop>3.0</pdop><geoidheight>53.00</geoidheight><course>190.0</course><type>1</type></trkpt>
      <trkpt lat="40.76269821" lon="-4.64522835"><ele>2916</ele><speed>12.39</speed><time>2016-06-30T14:43:58Z</time><pdop>3.0</pdop><geoidheight>53.00</geoidheight><course>228.0</course><type>1</type></trkpt>
      <trkpt lat="40.76265321" lon="-4.64535044"><ele>2919</ele><speed>11.26</speed><time>2016-06-30T14:43:59Z</time><pdop>3.0</pdop><geoidheight>53.00</geoidheight><course>251.7</course><type>1</type></trkpt>
      <trkpt lat="40.76263093" lon="-4.64546849"><ele>2920</ele><speed>11.55</speed><time>2016-06-30T14:44:00Z</time><pdop>4.0</pdop><geoidheight>53.00</geoidheight><course>260.5</course><type>1</type></trkpt>
      <trkpt lat="40.76263926" lon="-4.6456004"><ele>2919</ele><speed>11.30</speed><time>2016-06-30T14:44:01Z</time><pdop>5.0</pdop><geoidheight>53.00</geoidheight><course>273.6</course><type>1</type></trkpt>
      <trkpt lat="40.76269716" lon="-4.64583296"><ele>2916</ele><speed>11.81</speed><time>2016-06-30T14:44:03Z</time><pdop>7.0</pdop><geoidheight>53.00</geoidheight><course>289.1</course><type>1</type></trkpt>
      <trkpt lat="40.76279793" lon="-4.64610782"><ele>2917</ele><speed>13.16</speed><time>2016-06-30T14:44:05Z</time><pdop>9.0</pdop><geoidheight>53.00</geoidheight><course>298.5</course><type>1</type></trkpt>
      <trkpt lat="40.76299929" lon="-4.64627028"><ele>2928</ele><speed>12.63</speed><time>2016-06-30T14:44:07Z</time><pdop>6.0</pdop><geoidheight>53.00</geoidheight><course>321.3</course><type>1</type></trkpt>
      <trkpt lat="40.76318269" lon="-4.64639612"><ele>2934</ele><speed>12.29</speed><time>2016-06-30T14:44:09Z</time><pdop>6.0</pdop><geoidheight>53.00</geoidheight><course>333.6</course><type>1</type></trkpt>
      <trkpt lat="40.76329844" lon="-4.64644513"><ele>2935</ele><speed>12.66</speed><time>2016-06-30T14:44:10Z</time><pdop>6.0</pdop><geoidheight>53.00</geoidheight><course>338.2</course><type>1</type></trkpt>
      <trkpt lat="40.76341259" lon="-4.64650423"><ele>2937</ele><speed>12.95</speed><time>2016-06-30T14:44:11Z</time><pdop>6.0</pdop><geoidheight>53.00</geoidheight><course>339.0</course><type>1</type></trkpt>
      <trkpt lat="40.76359445" lon="-4.64663504"><ele>2941</ele><speed>11.83</speed><time>2016-06-30T14:44:13Z</time><pdop>5.0</pdop><geoidheight>53.00</geoidheight><course>335.3</course><type>1</type></trkpt>
      <trkpt lat="40.76367801" lon="-4.64670666"><ele>2945</ele><speed>11.30</speed><time>2016-06-30T14:44:14Z</time><pdop>5.0</pdop><geoidheight>53.00</geoidheight><course>334.2</course><type>1</type></trkpt>
      <trkpt lat="40.76377495" lon="-4.646755"><ele>2946</ele><speed>11.12</speed><time>2016-06-30T14:44:15Z</time><pdop>4.0</pdop><geoidheight>53.00</geoidheight><course>340.7</course><type>1</type></trkpt>
      <trkpt lat="40.76389226" lon="-4.64678281"><ele>2946</ele><speed>12.16</speed><time>2016-06-30T14:44:16Z</time><pdop>4.0</pdop><geoidheight>53.00</geoidheight><course>344.8</course><type>1</type></trkpt>
      <trkpt lat="40.76400761" lon="-4.64681896"><ele>2948</ele><speed>12.21</speed><time>2016-06-30T14:44:17Z</time><pdop>4.0</pdop><geoidheight>53.00</geoidheight><course>343.4</course><type>1</type></trkpt>
      <trkpt lat="40.76408804" lon="-4.64685918"><ele>2951</ele><speed>11.25</speed><time>2016-06-30T14:44:18Z</time><pdop>3.0</pdop><geoidheight>53.00</geoidheight><course>341.7</course><type>1</type></trkpt>
      <trkpt lat="40.76417522" lon="-4.64691273"><ele>2953</ele><speed>10.25</speed><time>2016-06-30T14:44:19Z</time><pdop>3.0</pdop><geoidheight>53.00</geoidheight><course>334.6</course><type>1</type></trkpt>
      <trkpt lat="40.76424795" lon="-4.64697786"><ele>2955</ele><speed>9.92</speed><time>2016-06-30T14:44:20Z</time><pdop>4.0</pdop><geoidheight>53.00</geoidheight><course>330.2</course><type>1</type></trkpt>
      <trkpt lat="40.76432394" lon="-4.64705913"><ele>2956</ele><speed>10.19</speed><time>2016-06-30T14:44:21Z</time><pdop>4.0</pdop><geoidheight>53.00</geoidheight><course>327.5</course><type>1</type></trkpt>
      <trkpt lat="40.76439187" lon="-4.64714662"><ele>2957</ele><speed>10.33</speed><time>2016-06-30T14:44:22Z</time><pdop>5.0</pdop><geoidheight>53.00</geoidheight><course>323.4</course><type>1</type></trkpt>
      <trkpt lat="40.76445395" lon="-4.64732234"><ele>2956</ele><speed>12.72</speed><time>2016-06-30T14:44:23Z</time><pdop>4.0</pdop><geoidheight>53.00</geoidheight><course>307.8</course><type>1</type></trkpt>
      <trkpt lat="40.76452273" lon="-4.64745414"><ele>2958</ele><speed>12.70</speed><time>2016-06-30T14:44:24Z</time><pdop>4.0</pdop><geoidheight>53.00</geoidheight><course>307.9</course><type>1</type></trkpt>
      <trkpt lat="40.76459157" lon="-4.64756708"><ele>2960</ele><speed>12.13</speed><time>2016-06-30T14:44:25Z</time><pdop>4.0</pdop><geoidheight>53.00</geoidheight><course>313.1</course><type>1</type></trkpt>
      <trkpt lat="40.76466793" lon="-4.64767541"><ele>2962</ele><speed>11.94</speed><time>2016-06-30T14:44:26Z</time><pdop>4.0</pdop><geoidheight>53.00</geoidheight><course>315.3</course><type>1</type></trkpt>
      <trkpt lat="40.76473893" lon="-4.64775277"><ele>2964</ele><speed>10.27</speed><time>2016-06-30T14:44:27Z</time><pdop>4.0</pdop><geoidheight>53.00</geoidheight><course>323.4</course><type>1</type></trkpt>
      <trkpt lat="40.76480149" lon="-4.64783455"><ele>2965</ele><speed>10.08</speed><time>2016-06-30T14:44:28Z</time><pdop>3.0</pdop><geoidheight>53.00</geoidheight><course>318.8</course><type>1</type></trkpt>
      <trkpt lat="40.76484347" lon="-4.64792962"><ele>2966</ele><speed>10.36</speed><time>2016-06-30T14:44:29Z</time><pdop>4.0</pdop><geoidheight>53.00</geoidheight><course>309.0</course><type>1</type></trkpt>
      <trkpt lat="40.76489864" lon="-4.64805333"><ele>2965</ele><speed>11.15</speed><time>2016-06-30T14:44:30Z</time><pdop>4.0</pdop><geoidheight>53.00</geoidheight><course>300.5</course><type>1</type></trkpt>
      <trkpt lat="40.76494528" lon="-4.6481804"><ele>2965</ele><speed>11.34</speed><time>2016-06-30T14:44:31Z</time><pdop>5.0</pdop><geoidheight>53.00</geoidheight><course>297.3</course><type>1</type></trkpt>
      <trkpt lat="40.76498034" lon="-4.64833747"><ele>2965</ele><speed>12.31</speed><time>2016-06-30T14:44:32Z</time><pdop>5.0</pdop><geoidheight>53.00</geoidheight><course>292.4</course><type>1</type></trkpt>
      <trkpt lat="40.76503386" lon="-4.64845163"><ele>2964</ele><speed>12.49</speed><time>2016-06-30T14:44:33Z</time><pdop>4.0</pdop><geoidheight>53.00</geoidheight><course>294.3</course><type>1</type></trkpt>
      <trkpt lat="40.76509955" lon="-4.64857659"><ele>2962</ele><speed>12.37</speed><time>2016-06-30T14:44:34Z</time><pdop>4.0</pdop><geoidheight>53.00</geoidheight><course>300.9</course><type>1</type></trkpt>
      <trkpt lat="40.76514859" lon="-4.64871913"><ele>2963</ele><speed>12.31</speed><time>2016-06-30T14:44:35Z</time><pdop>4.0</pdop><geoidheight>53.00</geoidheight><course>304.8</course><type>1</type></trkpt>
      <trkpt lat="40.76520306" lon="-4.64883136"><ele>2964</ele><speed>12.08</speed><time>2016-06-30T14:44:36Z</time><pdop>3.0</pdop><geoidheight>53.00</geoidheight><course>306.5</course><type>1</type></trkpt>
      <trkpt lat="40.76526119" lon="-4.64894964"><ele>2966</ele><speed>11.56</speed><time>2016-06-30T14:44:37Z</time><pdop>3.0</pdop><geoidheight>53.00</geoidheight><course>306.6</course><type>1</type></trkpt>
      <trkpt lat="40.76531546" lon="-4.64906349"><ele>2968</ele><speed>11.05</speed><time>2016-06-30T14:44:38Z</time><pdop>3.0</pdop><geoidheight>53.00</geoidheight><course>306.3</course><type>1</type></trkpt>
      <trkpt lat="40.76537364" lon="-4.64915895"><ele>2968</ele><speed>10.71</speed><time>2016-06-30T14:44:39Z</time><pdop>3.0</pdop><geoidheight>53.00</geoidheight><course>306.8</course><type>1</type></trkpt>
      <trkpt lat="40.76543873" lon="-4.64925194"><ele>2966</ele><speed>11.05</speed><time>2016-06-30T14:44:40Z</time><pdop>3.0</pdop><geoidheight>53.00</geoidheight><course>305.7</course><type>1</type></trkpt>
      <trkpt lat="40.76549377" lon="-4.64937552"><ele>2965</ele><speed>12.34</speed><time>2016-06-30T14:44:41Z</time><pdop>4.0</pdop><geoidheight>53.00</geoidheight><course>301.5</course><type>1</type></trkpt>
      <trkpt lat="40.76557078" lon="-4.64949798"><ele>2962</ele><speed>13.50</speed><time>2016-06-30T14:44:42Z</time><pdop>3.0</pdop><geoidheight>53.00</geoidheight><course>305.4</course><type>1</type></trkpt>
      <trkpt lat="40.76564997" lon="-4.64962969"><ele>2962</ele><speed>14.00</speed><time>2016-06-30T14:44:43Z</time><pdop>3.0</pdop><geoidheight>53.00</geoidheight><course>309.6</course><type>1</type></trkpt>
      <trkpt lat="40.76573875" lon="-4.64973937"><ele>2963</ele><speed>13.41</speed><time>2016-06-30T14:44:44Z</time><pdop>3.0</pdop><geoidheight>53.00</geoidheight><course>315.9</course><type>1</type></trkpt>
      <trkpt lat="40.76581201" lon="-4.64983257"><ele>2964</ele><speed>12.31</speed><time>2016-06-30T14:44:45Z</time><pdop>3.0</pdop><geoidheight>53.00</geoidheight><course>318.0</course><type>1</type></trkpt>
      <trkpt lat="40.76589357" lon="-4.64992032"><ele>2963</ele><speed>11.32</speed><time>2016-06-30T14:44:46Z</time><pdop>3.0</pdop><geoidheight>53.00</geoidheight><course>316.1</course><type>1</type></trkpt>
      <trkpt lat="40.76595609" lon="-4.65001907"><ele>2963</ele><speed>11.22</speed><time>2016-06-30T14:44:47Z</time><pdop>4.0</pdop><geoidheight>53.00</geoidheight><course>313.8</course><type>1</type></trkpt>
      <trkpt lat="40.76603307" lon="-4.65011169"><ele>2960</ele><speed>11.79</speed><time>2016-06-30T14:44:48Z</time><pdop>3.0</pdop><geoidheight>53.00</geoidheight><course>315.1</course><type>1</type></trkpt>
      <trkpt lat="40.76610447" lon="-4.65021741"><ele>2960</ele><speed>11.93</speed><time>2016-06-30T14:44:49Z</time><pdop>3.0</pdop><geoidheight>53.00</geoidheight><course>313.7</course><type>1</type></trkpt>
      <trkpt lat="40.76620886" lon="-4.65033178"><ele>2959</ele><speed>13.75</speed><time>2016-06-30T14:44:50Z</time><pdop>3.0</pdop><geoidheight>53.00</geoidheight><course>318.2</course><type>1</type></trkpt>
      <trkpt lat="40.76631163" lon="-4.65042148"><ele>2960</ele><speed>13.90</speed><time>2016-06-30T14:44:51Z</time><pdop>3.0</pdop><geoidheight>53.00</geoidheight><course>322.8</course><type>1</type></trkpt>
      <trkpt lat="40.76642313" lon="-4.65050943"><ele>2961</ele><speed>13.71</speed><time>2016-06-30T14:44:52Z</time><pdop>3.0</pdop><geoidheight>53.00</geoidheight><course>328.9</course><type>1</type></trkpt>
      <trkpt lat="40.76652315" lon="-4.65058585"><ele>2961</ele><speed>13.10</speed><time>2016-06-30T14:44:53Z</time><pdop>4.0</pdop><geoidheight>53.00</geoidheight><course>330.9</course><type>1</type></trkpt>
      <trkpt lat="40.76660293" lon="-4.65065021"><ele>2961</ele><speed>11.93</speed><time>2016-06-30T14:44:54Z</time><pdop>4.0</pdop><geoidheight>53.00</geoidheight><course>328.3</course><type>1</type></trkpt>
      <trkpt lat="40.76668776" lon="-4.65075036"><ele>2961</ele><speed>12.20</speed><time>2016-06-30T14:44:55Z</time><pdop>4.0</pdop><geoidheight>53.00</geoidheight><course>321.8</course><type>1</type></trkpt>
      <trkpt lat="40.76688741" lon="-4.65090467"><ele>2959</ele><speed>13.05</speed><time>2016-06-30T14:44:57Z</time><pdop>10.0</pdop><geoidheight>53.00</geoidheight><course>324.4</course><type>1</type></trkpt>
      <trkpt lat="40.76710625" lon="-4.65110633"><ele>2956</ele><speed>14.41</speed><time>2016-06-30T14:44:59Z</time><pdop>9.0</pdop><geoidheight>53.00</geoidheight><course>326.6</course><type>1</type></trkpt>
      <trkpt lat="40.76731188" lon="-4.65123047"><ele>2956</ele><speed>12.67</speed><time>2016-06-30T14:45:01Z</time><pdop>10.0</pdop><geoidheight>53.00</geoidheight><course>336.2</course><type>1</type></trkpt>
      <trkpt lat="40.76748651" lon="-4.65134081"><ele>2955</ele><speed>10.71</speed><time>2016-06-30T14:45:03Z</time><pdop>10.0</pdop><geoidheight>53.00</geoidheight><course>333.8</course><type>1</type></trkpt>
      <trkpt lat="40.76767854" lon="-4.65145601"><ele>2952</ele><speed>11.51</speed><time>2016-06-30T14:45:05Z</time><pdop>12.0</pdop><geoidheight>53.00</geoidheight><course>331.1</course><type>1</type></trkpt>
      <trkpt lat="40.76794579" lon="-4.65160263"><ele>2950</ele><speed>13.77</speed><time>2016-06-30T14:45:07Z</time><pdop>13.0</pdop><geoidheight>53.00</geoidheight><course>334.1</course><type>1</type></trkpt>
      <trkpt lat="40.76824721" lon="-4.65154889"><ele>2950</ele><speed>13.67</speed><time>2016-06-30T14:45:09Z</time><pdop>11.0</pdop><geoidheight>53.00</geoidheight><course>357.7</course><type>1</type></trkpt>
      <trkpt lat="40.76847663" lon="-4.65146258"><ele>2949</ele><speed>11.98</speed><time>2016-06-30T14:45:11Z</time><pdop>10.0</pdop><geoidheight>53.00</geoidheight><course>8.1</course><type>1</type></trkpt>
      <trkpt lat="40.76870147" lon="-4.65149859"><ele>2948</ele><speed>12.01</speed><time>2016-06-30T14:45:13Z</time><pdop>10.0</pdop><geoidheight>53.00</geoidheight><course>356.1</course><type>1</type></trkpt>
      <trkpt lat="40.76899094" lon="-4.65149511"><ele>2949</ele><speed>16.40</speed><time>2016-06-30T14:45:15Z</time><pdop>9.0</pdop><geoidheight>53.00</geoidheight><course>0.8</course><type>1</type></trkpt>
      <trkpt lat="40.7692489" lon="-4.65143194"><ele>2951</ele><speed>14.56</speed><time>2016-06-30T14:45:17Z</time><pdop>9.0</pdop><geoidheight>53.00</geoidheight><course>13.6</course><type>1</type></trkpt>
      <trkpt lat="40.76948433" lon="-4.6513273"><ele>2949</ele><speed>13.41</speed><time>2016-06-30T14:45:19Z</time><pdop>9.0</pdop><geoidheight>53.00</geoidheight><course>13.8</course><type>1</type></trkpt>
      <trkpt lat="40.76969552" lon="-4.65124996"><ele>2945</ele><speed>11.96</speed><time>2016-06-30T14:45:21Z</time><pdop>10.0</pdop><geoidheight>53.00</geoidheight><course>11.1</course><type>1</type></trkpt>
      <trkpt lat="40.77009982" lon="-4.65117053"><ele>2940</ele><speed>18.26</speed><time>2016-06-30T14:45:23Z</time><pdop>9.0</pdop><geoidheight>53.00</geoidheight><course>6.0</course><type>1</type></trkpt>
      <trkpt lat="40.77026363" lon="-4.65112098"><ele>2939</ele><speed>18.01</speed><time>2016-06-30T14:45:24Z</time><pdop>9.0</pdop><geoidheight>53.00</geoidheight><course>10.0</course><type>1</type></trkpt>
      <trkpt lat="40.7704307" lon="-4.65107772"><ele>2939</ele><speed>17.74</speed><time>2016-06-30T14:45:25Z</time><pdop>9.0</pdop><geoidheight>53.00</geoidheight><course>11.5</course><type>1</type></trkpt>
      <trkpt lat="40.77071163" lon="-4.65099133"><ele>2937</ele><speed>16.24</speed><time>2016-06-30T14:45:27Z</time><pdop>9.0</pdop><geoidheight>53.00</geoidheight><course>13.2</course><type>1</type></trkpt>
      <trkpt lat="40.77102607" lon="-4.65092807"><ele>2935</ele><speed>17.13</speed><time>2016-06-30T14:45:29Z</time><pdop>9.0</pdop><geoidheight>53.00</geoidheight><course>9.7</course><type>1</type></trkpt>
      <trkpt lat="40.77119602" lon="-4.65089939"><ele>2933</ele><speed>17.95</speed><time>2016-06-30T14:45:30Z</time><pdop>9.0</pdop><geoidheight>53.00</geoidheight><course>9.0</course><type>1</type></trkpt>
      <trkpt lat="40.77136116" lon="-4.65085765"><ele>2933</ele><speed>17.81</speed><time>2016-06-30T14:45:31Z</time><pdop>9.0</pdop><geoidheight>53.00</geoidheight><course>9.9</course><type>1</type></trkpt>
      <trkpt lat="40.77164635" lon="-4.65073654"><ele>2930</ele><speed>16.30</speed><time>2016-06-30T14:45:33Z</time><pdop>9.0</pdop><geoidheight>53.00</geoidheight><course>17.6</course><type>1</type></trkpt>
      <trkpt lat="40.77193532" lon="-4.65060883"><ele>2926</ele><speed>16.93</speed><time>2016-06-30T14:45:35Z</time><pdop>9.0</pdop><geoidheight>53.00</geoidheight><course>18.2</course><type>1</type></trkpt>
      <trkpt lat="40.77224585" lon="-4.65046029"><ele>2924</ele><speed>17.32</speed><time>2016-06-30T14:45:37Z</time><pdop>9.0</pdop><geoidheight>53.00</geoidheight><course>20.6</course><type>1</type></trkpt>
      <trkpt lat="40.77239904" lon="-4.65035922"><ele>2921</ele><speed>17.81</speed><time>2016-06-30T14:45:38Z</time><pdop>9.0</pdop><geoidheight>53.00</geoidheight><course>22.8</course><type>1</type></trkpt>
      <trkpt lat="40.77271623" lon="-4.65024027"><ele>2920</ele><speed>18.11</speed><time>2016-06-30T14:45:40Z</time><pdop>10.0</pdop><geoidheight>53.00</geoidheight><course>16.3</course><type>1</type></trkpt>
      <trkpt lat="40.77301433" lon="-4.65011779"><ele>2917</ele><speed>16.68</speed><time>2016-06-30T14:45:42Z</time><pdop>9.0</pdop><geoidheight>53.00</geoidheight><course>16.5</course><type>1</type></trkpt>
      <trkpt lat="40.77327762" lon="-4.64998142"><ele>2915</ele><speed>15.79</speed><time>2016-06-30T14:45:44Z</time><pdop>9.0</pdop><geoidheight>53.00</geoidheight><course>23.8</course><type>1</type></trkpt>
      <trkpt lat="40.77357136" lon="-4.64984337"><ele>2913</ele><speed>17.48</speed><time>2016-06-30T14:45:46Z</time><pdop>9.0</pdop><geoidheight>53.00</geoidheight><course>19.8</course><type>1</type></trkpt>
      <trkpt lat="40.7738458" lon="-4.64969637"><ele>2915</ele><speed>16.11</speed><time>2016-06-30T14:45:48Z</time><pdop>9.0</pdop><geoidheight>53.00</geoidheight><course>23.1</course><type>1</type></trkpt>
      <trkpt lat="40.77407631" lon="-4.64952414"><ele>2914</ele><speed>15.02</speed><time>2016-06-30T14:45:50Z</time><pdop>9.0</pdop><geoidheight>53.00</geoidheight><course>29.3</course><type>1</type></trkpt>
      <trkpt lat="40.7743222" lon="-4.6493526"><ele>2912</ele><speed>15.32</speed><time>2016-06-30T14:45:52Z</time><pdop>9.0</pdop><geoidheight>53.00</geoidheight><course>28.2</course><type>1</type></trkpt>
      <trkpt lat="40.77464241" lon="-4.64917549"><ele>2910</ele><speed>18.70</speed><time>2016-06-30T14:45:54Z</time><pdop>9.0</pdop><geoidheight>53.00</geoidheight><course>23.4</course><type>1</type></trkpt>
      <trkpt lat="40.77480449" lon="-4.64906666"><ele>2909</ele><speed>19.39</speed><time>2016-06-30T14:45:55Z</time><pdop>9.0</pdop><geoidheight>53.00</geoidheight><course>24.4</course><type>1</type></trkpt>
      <trkpt lat="40.77494554" lon="-4.64895503"><ele>2909</ele><speed>18.88</speed><time>2016-06-30T14:45:56Z</time><pdop>9.0</pdop><geoidheight>53.00</geoidheight><course>28.5</course><type>1</type></trkpt>
      <trkpt lat="40.77522328" lon="-4.64878124"><ele>2912</ele><speed>17.83</speed><time>2016-06-30T14:45:58Z</time><pdop>10.0</pdop><geoidheight>53.00</geoidheight><course>25.8</course><type>1</type></trkpt>
      <trkpt lat="40.77543682" lon="-4.64860002"><ele>2910</ele><speed>15.16</speed><time>2016-06-30T14:46:00Z</time><pdop>10.0</pdop><geoidheight>53.00</geoidheight><course>30.5</course><type>1</type></trkpt>
      <trkpt lat="40.77574045" lon="-4.64838438"><ele>2904</ele><speed>17.30</speed><time>2016-06-30T14:46:02Z</time><pdop>10.0</pdop><geoidheight>53.00</geoidheight><course>25.7</course><type>1</type></trkpt>
      <trkpt lat="40.77602321" lon="-4.64818846"><ele>2904</ele><speed>16.21</speed><time>2016-06-30T14:46:04Z</time><pdop>9.0</pdop><geoidheight>53.00</geoidheight><course>29.0</course><type>1</type></trkpt>
      <trkpt lat="40.77623472" lon="-4.64798795"><ele>2903</ele><speed>14.92</speed><time>2016-06-30T14:46:06Z</time><pdop>9.0</pdop><geoidheight>53.00</geoidheight><course>32.2</course><type>1</type></trkpt>
      <trkpt lat="40.7764661" lon="-4.64780973"><ele>2901</ele><speed>14.39</speed><time>2016-06-30T14:46:08Z</time><pdop>9.0</pdop><geoidheight>53.00</geoidheight><course>29.3</course><type>1</type></trkpt>
      <trkpt lat="40.77673562" lon="-4.64766101"><ele>2896</ele><speed>15.54</speed><time>2016-06-30T14:46:10Z</time><pdop>9.0</pdop><geoidheight>53.00</geoidheight><course>22.9</course><type>1</type></trkpt>
      <trkpt lat="40.7769835" lon="-4.64752389"><ele>2893</ele><speed>15.12</speed><time>2016-06-30T14:46:12Z</time><pdop>9.0</pdop><geoidheight>53.00</geoidheight><course>21.0</course><type>1</type></trkpt>
      <trkpt lat="40.77723178" lon="-4.64740826"><ele>2888</ele><speed>14.91</speed><time>2016-06-30T14:46:14Z</time><pdop>9.0</pdop><geoidheight>53.00</geoidheight><course>18.1</course><type>1</type></trkpt>
      <trkpt lat="40.77750172" lon="-4.64725879"><ele>2885</ele><speed>16.38</speed><time>2016-06-30T14:46:16Z</time><pdop>9.0</pdop><geoidheight>53.00</geoidheight><course>21.0</course><type>1</type></trkpt>
      <trkpt lat="40.77778775" lon="-4.64708375"><ele>2885</ele><speed>17.19</speed><time>2016-06-30T14:46:18Z</time><pdop>10.0</pdop><geoidheight>53.00</geoidheight><course>24.3</course><type>1</type></trkpt>
      <trkpt lat="40.77804422" lon="-4.64693064"><ele>2883</ele><speed>16.17</speed><time>2016-06-30T14:46:20Z</time><pdop>10.0</pdop><geoidheight>53.00</geoidheight><course>24.8</course><type>1</type></trkpt>
      <trkpt lat="40.77827402" lon="-4.64674892"><ele>2880</ele><speed>14.49</speed><time>2016-06-30T14:46:22Z</time><pdop>10.0</pdop><geoidheight>53.00</geoidheight><course>31.4</course><type>1</type></trkpt>
      <trkpt lat="40.77848927" lon="-4.64657971"><ele>2877</ele><speed>13.57</speed><time>2016-06-30T14:46:24Z</time><pdop>10.0</pdop><geoidheight>53.00</geoidheight><course>31.2</course><type>1</type></trkpt>
      <trkpt lat="40.77871939" lon="-4.64640746"><ele>2874</ele><speed>14.56</speed><time>2016-06-30T14:46:26Z</time><pdop>11.0</pdop><geoidheight>53.00</geoidheight><course>30.3</course><type>1</type></trkpt>
      <trkpt lat="40.77900916" lon="-4.6462469"><ele>2874</ele><speed>15.94</speed><time>2016-06-30T14:46:28Z</time><pdop>12.0</pdop><geoidheight>53.00</geoidheight><course>23.1</course><type>1</type></trkpt>
      <trkpt lat="40.77924229" lon="-4.64611146"><ele>2875</ele><speed>13.79</speed><time>2016-06-30T14:46:30Z</time><pdop>13.0</pdop><geoidheight>53.00</geoidheight><course>21.2</course><type>1</type></trkpt>
      <trkpt lat="40.77953754" lon="-4.6458833"><ele>2874</ele><speed>13.33</speed><time>2016-06-30T14:46:33Z</time><pdop>18.0</pdop><geoidheight>53.00</geoidheight><course>26.7</course><type>1</type></trkpt>
      <trkpt lat="40.77987339" lon="-4.64566547"><ele>2870</ele><speed>14.47</speed><time>2016-06-30T14:46:36Z</time><pdop>12.0</pdop><geoidheight>53.00</geoidheight><course>20.2</course><type>1</type></trkpt>
      <trkpt lat="40.78013866" lon="-4.64565386"><ele>2866</ele><speed>13.73</speed><time>2016-06-30T14:46:38Z</time><pdop>11.0</pdop><geoidheight>53.00</geoidheight><course>10.8</course><type>1</type></trkpt>
      <trkpt lat="40.78040607" lon="-4.64555192"><ele>2860</ele><speed>14.16</speed><time>2016-06-30T14:46:40Z</time><pdop>10.0</pdop><geoidheight>53.00</geoidheight><course>15.8</course><type>1</type></trkpt>
      <trkpt lat="40.78068065" lon="-4.6454759"><ele>2854</ele><speed>15.47</speed><time>2016-06-30T14:46:42Z</time><pdop>10.0</pdop><geoidheight>53.00</geoidheight><course>16.1</course><type>1</type></trkpt>
      <trkpt lat="40.78097656" lon="-4.64534704"><ele>2849</ele><speed>16.17</speed><time>2016-06-30T14:46:44Z</time><pdop>10.0</pdop><geoidheight>53.00</geoidheight><course>19.7</course><type>1</type></trkpt>
      <trkpt lat="40.78124091" lon="-4.64521232"><ele>2846</ele><speed>14.68</speed><time>2016-06-30T14:46:46Z</time><pdop>10.0</pdop><geoidheight>53.00</geoidheight><course>21.9</course><type>1</type></trkpt>
      <trkpt lat="40.7814761" lon="-4.64507495"><ele>2846</ele><speed>14.09</speed><time>2016-06-30T14:46:48Z</time><pdop>11.0</pdop><geoidheight>53.00</geoidheight><course>23.8</course><type>1</type></trkpt>
      <trkpt lat="40.78173829" lon="-4.64495485"><ele>2842</ele><speed>14.66</speed><time>2016-06-30T14:46:50Z</time><pdop>11.0</pdop><geoidheight>53.00</geoidheight><course>21.7</course><type>1</type></trkpt>
      <trkpt lat="40.78200795" lon="-4.6448553"><ele>2837</ele><speed>15.80</speed><time>2016-06-30T14:46:52Z</time><pdop>10.0</pdop><geoidheight>53.00</geoidheight><course>20.3</course><type>1</type></trkpt>
      <trkpt lat="40.78226711" lon="-4.64468274"><ele>2835</ele><speed>16.01</speed><time>2016-06-30T14:46:54Z</time><pdop>10.0</pdop><geoidheight>53.00</geoidheight><course>26.8</course><type>1</type></trkpt>
      <trkpt lat="40.7824818" lon="-4.64452406"><ele>2835</ele><speed>15.09</speed><time>2016-06-30T14:46:56Z</time><pdop>11.0</pdop><geoidheight>53.00</geoidheight><course>26.1</course><type>1</type></trkpt>
      <trkpt lat="40.78278992" lon="-4.64435873"><ele>2827</ele><speed>16.77</speed><time>2016-06-30T14:46:58Z</time><pdop>11.0</pdop><geoidheight>53.00</geoidheight><course>25.3</course><type>1</type></trkpt>
      <trkpt lat="40.78304974" lon="-4.64417644"><ele>2743</ele><speed>17.22</speed><time>2016-06-30T14:47:00Z</time><pdop>10.0</pdop><geoidheight>53.00</geoidheight><course>27.5</course><type>1</type></trkpt>
      <trkpt lat="40.78328275" lon="-4.64406436"><ele>2768</ele><speed>15.11</speed><time>2016-06-30T14:47:02Z</time><pdop>10.0</pdop><geoidheight>53.00</geoidheight><course>21.7</course><type>1</type></trkpt>
      <trkpt lat="40.78352806" lon="-4.64392461"><ele>2780</ele><speed>14.52</speed><time>2016-06-30T14:47:04Z</time><pdop>10.0</pdop><geoidheight>53.00</geoidheight><course>23.2</course><type>1</type></trkpt>
      <trkpt lat="40.78379785" lon="-4.64384541"><ele>2782</ele><speed>14.68</speed><time>2016-06-30T14:47:06Z</time><pdop>10.0</pdop><geoidheight>53.00</geoidheight><course>17.0</course><type>1</type></trkpt>
      <trkpt lat="40.78405457" lon="-4.64377827"><ele>2781</ele><speed>15.43</speed><time>2016-06-30T14:47:08Z</time><pdop>9.0</pdop><geoidheight>53.00</geoidheight><course>11.2</course><type>1</type></trkpt>
      <trkpt lat="40.78433846" lon="-4.64367438"><ele>2774</ele><speed>16.82</speed><time>2016-06-30T14:47:10Z</time><pdop>9.0</pdop><geoidheight>53.00</geoidheight><course>14.9</course><type>1</type></trkpt>
      <trkpt lat="40.78462868" lon="-4.6435333"><ele>2770</ele><speed>17.42</speed><time>2016-06-30T14:47:12Z</time><pdop>9.0</pdop><geoidheight>53.00</geoidheight><course>21.0</course><type>1</type></trkpt>
      <trkpt lat="40.78491466" lon="-4.64339389"><ele>2767</ele><speed>16.73</speed><time>2016-06-30T14:47:14Z</time><pdop>10.0</pdop><geoidheight>53.00</geoidheight><course>21.3</course><type>1</type></trkpt>
      <trkpt lat="40.78516385" lon="-4.64326343"><ele>2767</ele><speed>15.31</speed><time>2016-06-30T14:47:16Z</time><pdop>10.0</pdop><geoidheight>53.00</geoidheight><course>24.7</course><type>1</type></trkpt>
      <trkpt lat="40.78542652" lon="-4.64308113"><ele>2764</ele><speed>16.08</speed><time>2016-06-30T14:47:18Z</time><pdop>10.0</pdop><geoidheight>53.00</geoidheight><course>27.8</course><type>1</type></trkpt>
      <trkpt lat="40.78567488" lon="-4.64289936"><ele>2764</ele><speed>16.24</speed><time>2016-06-30T14:47:20Z</time><pdop>11.0</pdop><geoidheight>53.00</geoidheight><course>27.7</course><type>1</type></trkpt>
      <trkpt lat="40.78588735" lon="-4.64267622"><ele>2761</ele><speed>15.61</speed><time>2016-06-30T14:47:22Z</time><pdop>11.0</pdop><geoidheight>53.00</geoidheight><course>33.1</course><type>1</type></trkpt>
      <trkpt lat="40.78607857" lon="-4.6425885"><ele>2758</ele><speed>18.02</speed><time>2016-06-30T14:47:23Z</time><pdop>10.0</pdop><geoidheight>53.00</geoidheight><course>26.8</course><type>1</type></trkpt>
      <trkpt lat="40.78625949" lon="-4.64250006"><ele>2754</ele><speed>18.56</speed><time>2016-06-30T14:47:24Z</time><pdop>10.0</pdop><geoidheight>53.00</geoidheight><course>24.9</course><type>1</type></trkpt>
      <trkpt lat="40.78656736" lon="-4.64231145"><ele>2751</ele><speed>17.88</speed><time>2016-06-30T14:47:26Z</time><pdop>10.0</pdop><geoidheight>53.00</geoidheight><course>27.7</course><type>1</type></trkpt>
      <trkpt lat="40.78682993" lon="-4.64209279"><ele>2788</ele><speed>17.92</speed><time>2016-06-30T14:47:28Z</time><pdop>11.0</pdop><geoidheight>53.00</geoidheight><course>31.6</course><type>1</type></trkpt>
      <trkpt lat="40.78709828" lon="-4.64186417"><ele>2765</ele><speed>17.66</speed><time>2016-06-30T14:47:30Z</time><pdop>10.0</pdop><geoidheight>53.00</geoidheight><course>31.4</course><type>1</type></trkpt>
      <trkpt lat="40.78736106" lon="-4.64170705"><ele>2753</ele><speed>16.54</speed><time>2016-06-30T14:47:32Z</time><pdop>10.0</pdop><geoidheight>53.00</geoidheight><course>22.6</course><type>1</type></trkpt>
      <trkpt lat="40.7876281" lon="-4.64160572"><ele>2742</ele><speed>15.51</speed><time>2016-06-30T14:47:34Z</time><pdop>10.0</pdop><geoidheight>53.00</geoidheight><course>20.6</course><type>1</type></trkpt>
      <trkpt lat="40.78803502" lon="-4.6413845"><ele>2436</ele><speed>16.93</speed><time>2016-06-30T14:47:37Z</time><pdop>10.0</pdop><geoidheight>53.00</geoidheight><course>24.3</course><type>1</type></trkpt>
      <trkpt lat="40.78832239" lon="-4.64121143"><ele>2554</ele><speed>17.07</speed><time>2016-06-30T14:47:39Z</time><pdop>11.0</pdop><geoidheight>53.00</geoidheight><course>24.5</course><type>1</type></trkpt>
      <trkpt lat="40.78860045" lon="-4.64105544"><ele>2602</ele><speed>16.95</speed><time>2016-06-30T14:47:41Z</time><pdop>12.0</pdop><geoidheight>53.00</geoidheight><course>22.8</course><type>1</type></trkpt>
      <trkpt lat="40.78885785" lon="-4.64095375"><ele>2631</ele><speed>16.22</speed><time>2016-06-30T14:47:43Z</time><pdop>11.0</pdop><geoidheight>53.00</geoidheight><course>19.6</course><type>1</type></trkpt>
      <trkpt lat="40.78914475" lon="-4.64080862"><ele>2659</ele><speed>16.09</speed><time>2016-06-30T14:47:45Z</time><pdop>11.0</pdop><geoidheight>53.00</geoidheight><course>20.4</course><type>1</type></trkpt>
      <trkpt lat="40.78946889" lon="-4.64058477"><ele>2662</ele><speed>17.61</speed><time>2016-06-30T14:47:47Z</time><pdop>11.0</pdop><geoidheight>53.00</geoidheight><course>24.0</course><type>1</type></trkpt>
      <trkpt lat="40.78980355" lon="-4.64044474"><ele>2667</ele><speed>17.32</speed><time>2016-06-30T14:47:49Z</time><pdop>11.0</pdop><geoidheight>53.00</geoidheight><course>20.3</course><type>1</type></trkpt>
      <trkpt lat="40.79008897" lon="-4.6403118"><ele>2668</ele><speed>16.14</speed><time>2016-06-30T14:47:51Z</time><pdop>11.0</pdop><geoidheight>53.00</geoidheight><course>19.8</course><type>1</type></trkpt>
      <trkpt lat="40.79032072" lon="-4.64009723"><ele>2674</ele><speed>15.81</speed><time>2016-06-30T14:47:53Z</time><pdop>10.0</pdop><geoidheight>53.00</geoidheight><course>38.8</course><type>1</type></trkpt>
      <trkpt lat="40.79048833" lon="-4.63976642"><ele>2674</ele><speed>16.50</speed><time>2016-06-30T14:47:55Z</time><pdop>4.0</pdop><geoidheight>53.00</geoidheight><course>65.9</course><type>1</type></trkpt>
      <trkpt lat="40.79053584" lon="-4.63956959"><ele>2674</ele><speed>17.18</speed><time>2016-06-30T14:47:56Z</time><pdop>4.0</pdop><geoidheight>53.00</geoidheight><course>70.0</course><type>1</type></trkpt>
      <trkpt lat="40.79055685" lon="-4.63935668"><ele>2672</ele><speed>17.71</speed><time>2016-06-30T14:47:57Z</time><pdop>4.0</pdop><geoidheight>53.00</geoidheight><course>79.6</course><type>1</type></trkpt>
      <trkpt lat="40.7905862" lon="-4.63914848"><ele>2675</ele><speed>17.75</speed><time>2016-06-30T14:47:58Z</time><pdop>3.0</pdop><geoidheight>53.00</geoidheight><course>78.7</course><type>1</type></trkpt>
      <trkpt lat="40.79061975" lon="-4.63893599"><ele>2674</ele><speed>18.33</speed><time>2016-06-30T14:47:59Z</time><pdop>3.0</pdop><geoidheight>53.00</geoidheight><course>77.5</course><type>1</type></trkpt>
      <trkpt lat="40.79066287" lon="-4.63871431"><ele>2672</ele><speed>19.02</speed><time>2016-06-30T14:48:00Z</time><pdop>3.0</pdop><geoidheight>53.00</geoidheight><course>77.2</course><type>1</type></trkpt>
      <trkpt lat="40.79070681" lon="-4.63848605"><ele>2669</ele><speed>19.73</speed><time>2016-06-30T14:48:01Z</time><pdop>3.0</pdop><geoidheight>53.00</geoidheight><course>77.4</course><type>1</type></trkpt>
      <trkpt lat="40.79074787" lon="-4.6382481"><ele>2666</ele><speed>20.16</speed><time>2016-06-30T14:48:02Z</time><pdop>3.0</pdop><geoidheight>53.00</geoidheight><course>78.3</course><type>1</type></trkpt>
      <trkpt lat="40.79079062" lon="-4.63800661"><ele>2665</ele><speed>20.73</speed><time>2016-06-30T14:48:03Z</time><pdop>3.0</pdop><geoidheight>53.00</geoidheight><course>78.7</course><type>1</type></trkpt>
      <trkpt lat="40.79081917" lon="-4.63778781"><ele>2664</ele><speed>19.90</speed><time>2016-06-30T14:48:04Z</time><pdop>3.0</pdop><geoidheight>53.00</geoidheight><course>80.4</course><type>1</type></trkpt>
      <trkpt lat="40.79084384" lon="-4.63757005"><ele>2664</ele><speed>18.51</speed><time>2016-06-30T14:48:05Z</time><pdop>3.0</pdop><geoidheight>53.00</geoidheight><course>81.1</course><type>1</type></trkpt>
      <trkpt lat="40.79086322" lon="-4.63736582"><ele>2664</ele><speed>17.32</speed><time>2016-06-30T14:48:06Z</time><pdop>3.0</pdop><geoidheight>53.00</geoidheight><course>80.0</course><type>1</type></trkpt>
      <trkpt lat="40.79089743" lon="-4.63716458"><ele>2664</ele><speed>16.95</speed><time>2016-06-30T14:48:07Z</time><pdop>3.0</pdop><geoidheight>53.00</geoidheight><course>78.8</course><type>1</type></trkpt>
      <trkpt lat="40.79092988" lon="-4.63701343"><ele>2663</ele><speed>15.37</speed><time>2016-06-30T14:48:08Z</time><pdop>3.0</pdop><geoidheight>53.00</geoidheight><course>75.2</course><type>1</type></trkpt>
      <trkpt lat="40.79096446" lon="-4.63685051"><ele>2661</ele><speed>14.91</speed><time>2016-06-30T14:48:09Z</time><pdop>3.0</pdop><geoidheight>53.00</geoidheight><course>74.6</course><type>1</type></trkpt>
      <trkpt lat="40.79100615" lon="-4.63668394"><ele>2664</ele><speed>14.81</speed><time>2016-06-30T14:48:10Z</time><pdop>3.0</pdop><geoidheight>53.00</geoidheight><course>73.5</course><type>1</type></trkpt>
      <trkpt lat="40.79103991" lon="-4.63652174"><ele>2662</ele><speed>15.34</speed><time>2016-06-30T14:48:11Z</time><pdop>3.0</pdop><geoidheight>53.00</geoidheight><course>73.2</course><type>1</type></trkpt>
      <trkpt lat="40.79108485" lon="-4.6363454"><ele>2658</ele><speed>16.11</speed><time>2016-06-30T14:48:12Z</time><pdop>3.0</pdop><geoidheight>53.00</geoidheight><course>72.2</course><type>1</type></trkpt>
      <trkpt lat="40.79113122" lon="-4.63615475"><ele>2657</ele><speed>16.33</speed><time>2016-06-30T14:48:13Z</time><pdop>3.0</pdop><geoidheight>53.00</geoidheight><course>73.3</course><type>1</type></trkpt>
      <trkpt lat="40.79117297" lon="-4.63597326"><ele>2655</ele><speed>16.22</speed><time>2016-06-30T14:48:14Z</time><pdop>3.0</pdop><geoidheight>53.00</geoidheight><course>72.6</course><type>1</type></trkpt>
      <trkpt lat="40.79121942" lon="-4.63579946"><ele>2655</ele><speed>15.65</speed><time>2016-06-30T14:48:15Z</time><pdop>3.0</pdop><geoidheight>53.00</geoidheight><course>70.1</course><type>1</type></trkpt>
      <trkpt lat="40.7912687" lon="-4.6356497"><ele>2654</ele><speed>14.81</speed><time>2016-06-30T14:48:16Z</time><pdop>3.0</pdop><geoidheight>53.00</geoidheight><course>68.5</course><type>1</type></trkpt>
      <trkpt lat="40.79132124" lon="-4.63549238"><ele>2654</ele><speed>14.77</speed><time>2016-06-30T14:48:17Z</time><pdop>3.0</pdop><geoidheight>53.00</geoidheight><course>67.6</course><type>1</type></trkpt>
      <trkpt lat="40.79136832" lon="-4.6353225"><ele>2654</ele><speed>15.29</speed><time>2016-06-30T14:48:18Z</time><pdop>3.0</pdop><geoidheight>53.00</geoidheight><course>66.4</course><type>1</type></trkpt>
      <trkpt lat="40.79142566" lon="-4.63515655"><ele>2654</ele><speed>15.56</speed><time>2016-06-30T14:48:19Z</time><pdop>3.0</pdop><geoidheight>53.00</geoidheight><course>64.6</course><type>1</type></trkpt>
      <trkpt lat="40.79147427" lon="-4.634991"><ele>2655</ele><speed>15.21</speed><time>2016-06-30T14:48:20Z</time><pdop>3.0</pdop><geoidheight>53.00</geoidheight><course>63.3</course><type>1</type></trkpt>
      <trkpt lat="40.79153044" lon="-4.6348461"><ele>2656</ele><speed>14.45</speed><time>2016-06-30T14:48:21Z</time><pdop>3.0</pdop><geoidheight>53.00</geoidheight><course>62.7</course><type>1</type></trkpt>
      <trkpt lat="40.79159205" lon="-4.63469879"><ele>2655</ele><speed>14.10</speed><time>2016-06-30T14:48:22Z</time><pdop>3.0</pdop><geoidheight>53.00</geoidheight><course>63.0</course><type>1</type></trkpt>
      <trkpt lat="40.79165281" lon="-4.6345481"><ele>2655</ele><speed>14.50</speed><time>2016-06-30T14:48:23Z</time><pdop>3.0</pdop><geoidheight>53.00</geoidheight><course>63.0</course><type>1</type></trkpt>
      <trkpt lat="40.7917138" lon="-4.63439145"><ele>2654</ele><speed>15.07</speed><time>2016-06-30T14:48:24Z</time><pdop>3.0</pdop><geoidheight>53.00</geoidheight><course>62.6</course><type>1</type></trkpt>
      <trkpt lat="40.79177367" lon="-4.63422996"><ele>2654</ele><speed>15.37</speed><time>2016-06-30T14:48:25Z</time><pdop>3.0</pdop><geoidheight>53.00</geoidheight><course>63.2</course><type>1</type></trkpt>
      <trkpt lat="40.79182988" lon="-4.63405939"><ele>2652</ele><speed>15.92</speed><time>2016-06-30T14:48:26Z</time><pdop>3.0</pdop><geoidheight>53.00</geoidheight><course>64.8</course><type>1</type></trkpt>
      <trkpt lat="40.79188127" lon="-4.63387899"><ele>2652</ele><speed>16.33</speed><time>2016-06-30T14:48:27Z</time><pdop>3.0</pdop><geoidheight>53.00</geoidheight><course>69.1</course><type>1</type></trkpt>
      <trkpt lat="40.79191996" lon="-4.63368741"><ele>2653</ele><speed>16.56</speed><time>2016-06-30T14:48:28Z</time><pdop>3.0</pdop><geoidheight>53.00</geoidheight><course>73.7</course><type>1</type></trkpt>
      <trkpt lat="40.79195834" lon="-4.63350844"><ele>2655</ele><speed>16.03</speed><time>2016-06-30T14:48:29Z</time><pdop>3.0</pdop><geoidheight>53.00</geoidheight><course>76.2</course><type>1</type></trkpt>
      <trkpt lat="40.7919942" lon="-4.63333551"><ele>2657</ele><speed>14.76</speed><time>2016-06-30T14:48:30Z</time><pdop>3.0</pdop><geoidheight>53.00</geoidheight><course>75.8</course><type>1</type></trkpt>
      <trkpt lat="40.79202982" lon="-4.63317381"><ele>2657</ele><speed>13.84</speed><time>2016-06-30T14:48:31Z</time><pdop>3.0</pdop><geoidheight>53.00</geoidheight><course>74.0</course><type>1</type></trkpt>
      <trkpt lat="40.79206734" lon="-4.63301986"><ele>2657</ele><speed>13.88</speed><time>2016-06-30T14:48:32Z</time><pdop>3.0</pdop><geoidheight>53.00</geoidheight><course>74.1</course><type>1</type></trkpt>
      <trkpt lat="40.79209827" lon="-4.63286352"><ele>2657</ele><speed>14.16</speed><time>2016-06-30T14:48:33Z</time><pdop>3.0</pdop><geoidheight>53.00</geoidheight><course>75.8</course><type>1</type></trkpt>
      <trkpt lat="40.79213017" lon="-4.63269649"><ele>2656</ele><speed>14.62</speed><time>2016-06-30T14:48:34Z</time><pdop>3.0</pdop><geoidheight>53.00</geoidheight><course>76.7</course><type>1</type></trkpt>
      <trkpt lat="40.79216509" lon="-4.63251465"><ele>2656</ele><speed>15.44</speed><time>2016-06-30T14:48:35Z</time><pdop>3.0</pdop><geoidheight>53.00</geoidheight><course>75.6</course><type>1</type></trkpt>
      <trkpt lat="40.79220722" lon="-4.63233428"><ele>2656</ele><speed>15.89</speed><time>2016-06-30T14:48:36Z</time><pdop>3.0</pdop><geoidheight>53.00</geoidheight><course>74.5</course><type>1</type></trkpt>
      <trkpt lat="40.79224779" lon="-4.63215819"><ele>2657</ele><speed>15.79</speed><time>2016-06-30T14:48:37Z</time><pdop>3.0</pdop><geoidheight>53.00</geoidheight><course>72.5</course><type>1</type></trkpt>
      <trkpt lat="40.79228509" lon="-4.63198978"><ele>2656</ele><speed>15.28</speed><time>2016-06-30T14:48:38Z</time><pdop>3.0</pdop><geoidheight>53.00</geoidheight><course>73.1</course><type>1</type></trkpt>
      <trkpt lat="40.79231794" lon="-4.63182746"><ele>2655</ele><speed>14.50</speed><time>2016-06-30T14:48:39Z</time><pdop>3.0</pdop><geoidheight>53.00</geoidheight><course>74.1</course><type>1</type></trkpt>
      <trkpt lat="40.7923536" lon="-4.63166238"><ele>2654</ele><speed>14.65</speed><time>2016-06-30T14:48:40Z</time><pdop>3.0</pdop><geoidheight>53.00</geoidheight><course>75.1</course><type>1</type></trkpt>
      <trkpt lat="40.79238793" lon="-4.63148992"><ele>2652</ele><speed>15.17</speed><time>2016-06-30T14:48:41Z</time><pdop>3.0</pdop><geoidheight>53.00</geoidheight><course>75.2</course><type>1</type></trkpt>
      <trkpt lat="40.79242096" lon="-4.63132863"><ele>2650</ele><speed>14.08</speed><time>2016-06-30T14:48:42Z</time><pdop>3.0</pdop><geoidheight>53.00</geoidheight><course>75.1</course><type>1</type></trkpt>
      <trkpt lat="40.7924441" lon="-4.63117932"><ele>2646</ele><speed>13.68</speed><time>2016-06-30T14:48:43Z</time><pdop>3.0</pdop><geoidheight>53.00</geoidheight><course>76.2</course><type>1</type></trkpt>
      <trkpt lat="40.79247325" lon="-4.63100926"><ele>2643</ele><speed>14.58</speed><time>2016-06-30T14:48:44Z</time><pdop>3.0</pdop><geoidheight>53.00</geoidheight><course>77.7</course><type>1</type></trkpt>
      <trkpt lat="40.79249504" lon="-4.63083225"><ele>2638</ele><speed>15.42</speed><time>2016-06-30T14:48:45Z</time><pdop>3.0</pdop><geoidheight>53.00</geoidheight><course>79.0</course><type>1</type></trkpt>
      <trkpt lat="40.79251936" lon="-4.63065102"><ele>2633</ele><speed>15.96</speed><time>2016-06-30T14:48:46Z</time><pdop>3.0</pdop><geoidheight>53.00</geoidheight><course>79.5</course><type>1</type></trkpt>
      <trkpt lat="40.79253966" lon="-4.63046132"><ele>2631</ele><speed>16.32</speed><time>2016-06-30T14:48:47Z</time><pdop>3.0</pdop><geoidheight>53.00</geoidheight><course>81.0</course><type>1</type></trkpt>
      <trkpt lat="40.79255691" lon="-4.63028288"><ele>2629</ele><speed>15.59</speed><time>2016-06-30T14:48:48Z</time><pdop>3.0</pdop><geoidheight>53.00</geoidheight><course>81.9</course><type>1</type></trkpt>
      <trkpt lat="40.79257354" lon="-4.63011952"><ele>2628</ele><speed>14.39</speed><time>2016-06-30T14:48:49Z</time><pdop>3.0</pdop><geoidheight>53.00</geoidheight><course>81.9</course><type>1</type></trkpt>
      <trkpt lat="40.79258317" lon="-4.62996452"><ele>2628</ele><speed>13.38</speed><time>2016-06-30T14:48:50Z</time><pdop>3.0</pdop><geoidheight>53.00</geoidheight><course>81.8</course><type>1</type></trkpt>
      <trkpt lat="40.79260136" lon="-4.62982942"><ele>2626</ele><speed>12.09</speed><time>2016-06-30T14:48:51Z</time><pdop>3.0</pdop><geoidheight>53.00</geoidheight><course>80.2</course><type>1</type></trkpt>
      <trkpt lat="40.79262796" lon="-4.62970134"><ele>2624</ele><speed>11.57</speed><time>2016-06-30T14:48:52Z</time><pdop>3.0</pdop><geoidheight>53.00</geoidheight><course>76.5</course><type>1</type></trkpt>
      <trkpt lat="40.79264197" lon="-4.62956228"><ele>2623</ele><speed>11.58</speed><time>2016-06-30T14:48:53Z</time><pdop>4.0</pdop><geoidheight>53.00</geoidheight><course>77.7</course><type>1</type></trkpt>
      <trkpt lat="40.79267615" lon="-4.62940644"><ele>2622</ele><speed>12.53</speed><time>2016-06-30T14:48:54Z</time><pdop>5.0</pdop><geoidheight>53.00</geoidheight><course>75.5</course><type>1</type></trkpt>
      <trkpt lat="40.79272857" lon="-4.62922437"><ele>2622</ele><speed>14.21</speed><time>2016-06-30T14:48:55Z</time><pdop>5.0</pdop><geoidheight>53.00</geoidheight><course>72.8</course><type>1</type></trkpt>
      <trkpt lat="40.79278359" lon="-4.6290674"><ele>2620</ele><speed>14.56</speed><time>2016-06-30T14:48:56Z</time><pdop>4.0</pdop><geoidheight>53.00</geoidheight><course>70.2</course><type>1</type></trkpt>
      <trkpt lat="40.79282705" lon="-4.62892507"><ele>2621</ele><speed>13.86</speed><time>2016-06-30T14:48:57Z</time><pdop>3.0</pdop><geoidheight>53.00</geoidheight><course>71.4</course><type>1</type></trkpt>
      <trkpt lat="40.79285194" lon="-4.62878569"><ele>2621</ele><speed>12.92</speed><time>2016-06-30T14:48:58Z</time><pdop>4.0</pdop><geoidheight>53.00</geoidheight><course>73.6</course><type>1</type></trkpt>
      <trkpt lat="40.79285331" lon="-4.6286459"><ele>2620</ele><speed>11.99</speed><time>2016-06-30T14:48:59Z</time><pdop>4.0</pdop><geoidheight>53.00</geoidheight><course>81.8</course><type>1</type></trkpt>
      <trkpt lat="40.7928536" lon="-4.62850306"><ele>2619</ele><speed>11.59</speed><time>2016-06-30T14:49:00Z</time><pdop>3.0</pdop><geoidheight>53.00</geoidheight><course>81.9</course><type>1</type></trkpt>
      <trkpt lat="40.79287003" lon="-4.62836492"><ele>2618</ele><speed>11.27</speed><time>2016-06-30T14:49:01Z</time><pdop>3.0</pdop><geoidheight>53.00</geoidheight><course>78.8</course><type>1</type></trkpt>
      <trkpt lat="40.79290243" lon="-4.62824291"><ele>2617</ele><speed>10.82</speed><time>2016-06-30T14:49:02Z</time><pdop>3.0</pdop><geoidheight>53.00</geoidheight><course>76.8</course><type>1</type></trkpt>
      <trkpt lat="40.79293187" lon="-4.62812055"><ele>2615</ele><speed>11.11</speed><time>2016-06-30T14:49:03Z</time><pdop>3.0</pdop><geoidheight>53.00</geoidheight><course>76.4</course><type>1</type></trkpt>
      <trkpt lat="40.7929647" lon="-4.62798924"><ele>2613</ele><speed>12.02</speed><time>2016-06-30T14:49:04Z</time><pdop>3.0</pdop><geoidheight>53.00</geoidheight><course>74.3</course><type>1</type></trkpt>
      <trkpt lat="40.79299978" lon="-4.62782847"><ele>2611</ele><speed>13.75</speed><time>2016-06-30T14:49:05Z</time><pdop>3.0</pdop><geoidheight>53.00</geoidheight><course>71.9</course><type>1</type></trkpt>
      <trkpt lat="40.79301148" lon="-4.62765349"><ele>2610</ele><speed>14.93</speed><time>2016-06-30T14:49:06Z</time><pdop>4.0</pdop><geoidheight>53.00</geoidheight><course>77.0</course><type>1</type></trkpt>
      <trkpt lat="40.7930635" lon="-4.62748263"><ele>2607</ele><speed>16.36</speed><time>2016-06-30T14:49:07Z</time><pdop>3.0</pdop><geoidheight>53.00</geoidheight><course>74.3</course><type>1</type></trkpt>
      <trkpt lat="40.79310612" lon="-4.62730575"><ele>2607</ele><speed>15.84</speed><time>2016-06-30T14:49:08Z</time><pdop>4.0</pdop><geoidheight>53.00</geoidheight><course>74.4</course><type>1</type></trkpt>
      <trkpt lat="40.79312641" lon="-4.62715963"><ele>2607</ele><speed>14.08</speed><time>2016-06-30T14:49:09Z</time><pdop>5.0</pdop><geoidheight>53.00</geoidheight><course>76.6</course><type>1</type></trkpt>
      <trkpt lat="40.79313943" lon="-4.62701551"><ele>2378</ele><speed>12.96</speed><time>2016-06-30T14:49:10Z</time><pdop>6.0</pdop><geoidheight>53.00</geoidheight><course>79.2</course><type>1</type></trkpt>
      <trkpt lat="40.79323459" lon="-4.6269593"><ele>2471</ele><speed>10.48</speed><time>2016-06-30T14:49:11Z</time><pdop>4.0</pdop><geoidheight>53.00</geoidheight><course>63.5</course><type>1</type></trkpt>
      <trkpt lat="40.79328035" lon="-4.62685863"><ele>2530</ele><speed>10.10</speed><time>2016-06-30T14:49:12Z</time><pdop>4.0</pdop><geoidheight>53.00</geoidheight><course>63.6</course><type>1</type></trkpt>
      <trkpt lat="40.79333022" lon="-4.62676174"><ele>2562</ele><speed>9.56</speed><time>2016-06-30T14:49:13Z</time><pdop>4.0</pdop><geoidheight>53.00</geoidheight><course>65.1</course><type>1</type></trkpt>
      <trkpt lat="40.79335062" lon="-4.62665056"><ele>2576</ele><speed>9.39</speed><time>2016-06-30T14:49:14Z</time><pdop>4.0</pdop><geoidheight>53.00</geoidheight><course>68.7</course><type>1</type></trkpt>
      <trkpt lat="40.79336375" lon="-4.62652488"><ele>2586</ele><speed>9.79</speed><time>2016-06-30T14:49:15Z</time><pdop>4.0</pdop><geoidheight>53.00</geoidheight><course>72.3</course><type>1</type></trkpt>
      <trkpt lat="40.79339449" lon="-4.62640354"><ele>2590</ele><speed>10.40</speed><time>2016-06-30T14:49:16Z</time><pdop>5.0</pdop><geoidheight>53.00</geoidheight><course>71.4</course><type>1</type></trkpt>
      <trkpt lat="40.79345881" lon="-4.62628719"><ele>2596</ele><speed>10.88</speed><time>2016-06-30T14:49:17Z</time><pdop>4.0</pdop><geoidheight>53.00</geoidheight><course>68.5</course><type>1</type></trkpt>
      <trkpt lat="40.79350313" lon="-4.62618886"><ele>2601</ele><speed>10.52</speed><time>2016-06-30T14:49:18Z</time><pdop>4.0</pdop><geoidheight>53.00</geoidheight><course>68.2</course><type>1</type></trkpt>
      <trkpt lat="40.79352979" lon="-4.62607662"><ele>2606</ele><speed>10.55</speed><time>2016-06-30T14:49:19Z</time><pdop>3.0</pdop><geoidheight>53.00</geoidheight><course>70.9</course><type>1</type></trkpt>
      <trkpt lat="40.79355926" lon="-4.625963"><ele>2607</ele><speed>10.13</speed><time>2016-06-30T14:49:20Z</time><pdop>3.0</pdop><geoidheight>53.00</geoidheight><course>73.6</course><type>1</type></trkpt>
      <trkpt lat="40.79359039" lon="-4.62585802"><ele>2611</ele><speed>9.30</speed><time>2016-06-30T14:49:21Z</time><pdop>3.0</pdop><geoidheight>53.00</geoidheight><course>73.3</course><type>1</type></trkpt>
      <trkpt lat="40.79361974" lon="-4.62576111"><ele>2614</ele><speed>9.00</speed><time>2016-06-30T14:49:22Z</time><pdop>3.0</pdop><geoidheight>53.00</geoidheight><course>66.5</course><type>1</type></trkpt>
      <trkpt lat="40.7936582" lon="-4.62565908"><ele>2614</ele><speed>9.32</speed><time>2016-06-30T14:49:23Z</time><pdop>3.0</pdop><geoidheight>53.00</geoidheight><course>62.9</course><type>1</type></trkpt>
      <trkpt lat="40.79370051" lon="-4.625558"><ele>2615</ele><speed>9.46</speed><time>2016-06-30T14:49:24Z</time><pdop>3.0</pdop><geoidheight>53.00</geoidheight><course>62.6</course><type>1</type></trkpt>
      <trkpt lat="40.79373142" lon="-4.62545524"><ele>2615</ele><speed>9.49</speed><time>2016-06-30T14:49:25Z</time><pdop>3.0</pdop><geoidheight>53.00</geoidheight><course>64.5</course><type>1</type></trkpt>
      <trkpt lat="40.79377477" lon="-4.6253476"><ele>2616</ele><speed>10.00</speed><time>2016-06-30T14:49:26Z</time><pdop>3.0</pdop><geoidheight>53.00</geoidheight><course>65.4</course><type>1</type></trkpt>
      <trkpt lat="40.79381729" lon="-4.62524335"><ele>2618</ele><speed>9.81</speed><time>2016-06-30T14:49:27Z</time><pdop>3.0</pdop><geoidheight>53.00</geoidheight><course>62.5</course><type>1</type></trkpt>
      <trkpt lat="40.79385973" lon="-4.62514199"><ele>2619</ele><speed>9.66</speed><time>2016-06-30T14:49:28Z</time><pdop>3.0</pdop><geoidheight>53.00</geoidheight><course>61.7</course><type>1</type></trkpt>
      <trkpt lat="40.79392141" lon="-4.62503124"><ele>2621</ele><speed>10.73</speed><time>2016-06-30T14:49:29Z</time><pdop>3.0</pdop><geoidheight>53.00</geoidheight><course>58.5</course><type>1</type></trkpt>
      <trkpt lat="40.79397219" lon="-4.62491628"><ele>2623</ele><speed>11.01</speed><time>2016-06-30T14:49:30Z</time><pdop>3.0</pdop><geoidheight>53.00</geoidheight><course>59.2</course><type>1</type></trkpt>
      <trkpt lat="40.79402537" lon="-4.62480569"><ele>2625</ele><speed>10.96</speed><time>2016-06-30T14:49:31Z</time><pdop>3.0</pdop><geoidheight>53.00</geoidheight><course>58.0</course><type>1</type></trkpt>
      <trkpt lat="40.79407145" lon="-4.62469263"><ele>2627</ele><speed>10.79</speed><time>2016-06-30T14:49:32Z</time><pdop>3.0</pdop><geoidheight>53.00</geoidheight><course>59.7</course><type>1</type></trkpt>
      <trkpt lat="40.79411214" lon="-4.62456482"><ele>2630</ele><speed>10.82</speed><time>2016-06-30T14:49:33Z</time><pdop>4.0</pdop><geoidheight>53.00</geoidheight><course>63.0</course><type>1</type></trkpt>
      <trkpt lat="40.79415175" lon="-4.62444799"><ele>2633</ele><speed>10.55</speed><time>2016-06-30T14:49:34Z</time><pdop>3.0</pdop><geoidheight>53.00</geoidheight><course>66.0</course><type>1</type></trkpt>
      <trkpt lat="40.7941619" lon="-4.6243268"><ele>2635</ele><speed>10.12</speed><time>2016-06-30T14:49:35Z</time><pdop>3.0</pdop><geoidheight>53.00</geoidheight><course>73.7</course><type>1</type></trkpt>
      <trkpt lat="40.79418242" lon="-4.62420574"><ele>2637</ele><speed>10.30</speed><time>2016-06-30T14:49:36Z</time><pdop>3.0</pdop><geoidheight>53.00</geoidheight><course>79.1</course><type>1</type></trkpt>
      <trkpt lat="40.79420915" lon="-4.62409463"><ele>2640</ele><speed>10.18</speed><time>2016-06-30T14:49:37Z</time><pdop>3.0</pdop><geoidheight>53.00</geoidheight><course>79.2</course><type>1</type></trkpt>
      <trkpt lat="40.79422683" lon="-4.62398297"><ele>2641</ele><speed>9.58</speed><time>2016-06-30T14:49:38Z</time><pdop>3.0</pdop><geoidheight>53.00</geoidheight><course>79.8</course><type>1</type></trkpt>
      <trkpt lat="40.79425569" lon="-4.62386916"><ele>2643</ele><speed>10.36</speed><time>2016-06-30T14:49:39Z</time><pdop>3.0</pdop><geoidheight>53.00</geoidheight><course>75.2</course><type>1</type></trkpt>
      <trkpt lat="40.79428626" lon="-4.62374422"><ele>2644</ele><speed>10.97</speed><time>2016-06-30T14:49:40Z</time><pdop>3.0</pdop><geoidheight>53.00</geoidheight><course>71.0</course><type>1</type></trkpt>
      <trkpt lat="40.79432313" lon="-4.6236251"><ele>2646</ele><speed>10.96</speed><time>2016-06-30T14:49:41Z</time><pdop>4.0</pdop><geoidheight>53.00</geoidheight><course>70.1</course><type>1</type></trkpt>
      <trkpt lat="40.7943498" lon="-4.62349941"><ele>2647</ele><speed>10.57</speed><time>2016-06-30T14:49:42Z</time><pdop>4.0</pdop><geoidheight>53.00</geoidheight><course>72.2</course><type>1</type></trkpt>
      <trkpt lat="40.79443128" lon="-4.62340375"><ele>2649</ele><speed>11.05</speed><time>2016-06-30T14:49:43Z</time><pdop>4.0</pdop><geoidheight>53.00</geoidheight><course>58.6</course><type>1</type></trkpt>
      <trkpt lat="40.79448098" lon="-4.62328544"><ele>2650</ele><speed>11.16</speed><time>2016-06-30T14:49:44Z</time><pdop>3.0</pdop><geoidheight>53.00</geoidheight><course>59.2</course><type>1</type></trkpt>
      <trkpt lat="40.79453092" lon="-4.62317343"><ele>2651</ele><speed>11.41</speed><time>2016-06-30T14:49:45Z</time><pdop>4.0</pdop><geoidheight>53.00</geoidheight><course>62.6</course><type>1</type></trkpt>
      <trkpt lat="40.79456628" lon="-4.62301551"><ele>2653</ele><speed>12.60</speed><time>2016-06-30T14:49:46Z</time><pdop>3.0</pdop><geoidheight>53.00</geoidheight><course>71.3</course><type>1</type></trkpt>
      <trkpt lat="40.79459687" lon="-4.62287772"><ele>2655</ele><speed>12.19</speed><time>2016-06-30T14:49:47Z</time><pdop>3.0</pdop><geoidheight>53.00</geoidheight><course>73.1</course><type>1</type></trkpt>
      <trkpt lat="40.79462443" lon="-4.62273123"><ele>2656</ele><speed>13.06</speed><time>2016-06-30T14:49:48Z</time><pdop>3.0</pdop><geoidheight>53.00</geoidheight><course>73.1</course><type>1</type></trkpt>
      <trkpt lat="40.79466541" lon="-4.62258278"><ele>2658</ele><speed>13.17</speed><time>2016-06-30T14:49:49Z</time><pdop>3.0</pdop><geoidheight>53.00</geoidheight><course>71.0</course><type>1</type></trkpt>
      <trkpt lat="40.79470442" lon="-4.62244548"><ele>2660</ele><speed>12.52</speed><time>2016-06-30T14:49:50Z</time><pdop>4.0</pdop><geoidheight>53.00</geoidheight><course>71.8</course><type>1</type></trkpt>
      <trkpt lat="40.79473143" lon="-4.62229038"><ele>2662</ele><speed>12.67</speed><time>2016-06-30T14:49:51Z</time><pdop>4.0</pdop><geoidheight>53.00</geoidheight><course>74.2</course><type>1</type></trkpt>
      <trkpt lat="40.79476479" lon="-4.62214478"><ele>2663</ele><speed>12.56</speed><time>2016-06-30T14:49:52Z</time><pdop>4.0</pdop><geoidheight>53.00</geoidheight><course>74.9</course><type>1</type></trkpt>
      <trkpt lat="40.79479047" lon="-4.62200718"><ele>2665</ele><speed>12.37</speed><time>2016-06-30T14:49:53Z</time><pdop>4.0</pdop><geoidheight>53.00</geoidheight><course>76.0</course><type>1</type></trkpt>
      <trkpt lat="40.79480454" lon="-4.62184499"><ele>2666</ele><speed>12.32</speed><time>2016-06-30T14:49:54Z</time><pdop>4.0</pdop><geoidheight>53.00</geoidheight><course>75.9</course><type>1</type></trkpt>
      <trkpt lat="40.79482967" lon="-4.62170886"><ele>2669</ele><speed>11.59</speed><time>2016-06-30T14:49:55Z</time><pdop>4.0</pdop><geoidheight>53.00</geoidheight><course>75.0</course><type>1</type></trkpt>
      <trkpt lat="40.79486043" lon="-4.62158998"><ele>2671</ele><speed>11.12</speed><time>2016-06-30T14:49:56Z</time><pdop>4.0</pdop><geoidheight>53.00</geoidheight><course>74.6</course><type>1</type></trkpt>
      <trkpt lat="40.79489025" lon="-4.62144848"><ele>2672</ele><speed>11.19</speed><time>2016-06-30T14:49:57Z</time><pdop>4.0</pdop><geoidheight>53.00</geoidheight><course>73.9</course><type>1</type></trkpt>
      <trkpt lat="40.79493147" lon="-4.62130571"><ele>2674</ele><speed>12.21</speed><time>2016-06-30T14:49:58Z</time><pdop>5.0</pdop><geoidheight>53.00</geoidheight><course>71.5</course><type>1</type></trkpt>
      <trkpt lat="40.79498654" lon="-4.62117378"><ele>2676</ele><speed>12.69</speed><time>2016-06-30T14:49:59Z</time><pdop>7.0</pdop><geoidheight>53.00</geoidheight><course>68.2</course><type>1</type></trkpt>
      <trkpt lat="40.7950696" lon="-4.62090702"><ele>2674</ele><speed>13.16</speed><time>2016-06-30T14:50:01Z</time><pdop>5.0</pdop><geoidheight>53.00</geoidheight><course>66.0</course><type>1</type></trkpt>
      <trkpt lat="40.79511538" lon="-4.62076515"><ele>2673</ele><speed>13.38</speed><time>2016-06-30T14:50:02Z</time><pdop>5.0</pdop><geoidheight>53.00</geoidheight><course>65.8</course><type>1</type></trkpt>
      <trkpt lat="40.79516966" lon="-4.62063748"><ele>2674</ele><speed>13.36</speed><time>2016-06-30T14:50:03Z</time><pdop>5.0</pdop><geoidheight>53.00</geoidheight><course>67.2</course><type>1</type></trkpt>
      <trkpt lat="40.79520215" lon="-4.62047789"><ele>2674</ele><speed>13.25</speed><time>2016-06-30T14:50:04Z</time><pdop>5.0</pdop><geoidheight>53.00</geoidheight><course>69.3</course><type>1</type></trkpt>
      <trkpt lat="40.79523654" lon="-4.62032786"><ele>2675</ele><speed>13.10</speed><time>2016-06-30T14:50:05Z</time><pdop>5.0</pdop><geoidheight>53.00</geoidheight><course>69.2</course><type>1</type></trkpt>
      <trkpt lat="40.79528535" lon="-4.62017797"><ele>2675</ele><speed>13.41</speed><time>2016-06-30T14:50:06Z</time><pdop>5.0</pdop><geoidheight>53.00</geoidheight><course>68.0</course><type>1</type></trkpt>
      <trkpt lat="40.79533968" lon="-4.62002072"><ele>2675</ele><speed>14.01</speed><time>2016-06-30T14:50:07Z</time><pdop>6.0</pdop><geoidheight>53.00</geoidheight><course>66.9</course><type>1</type></trkpt>
      <trkpt lat="40.79540131" lon="-4.61988577"><ele>2675</ele><speed>14.04</speed><time>2016-06-30T14:50:08Z</time><pdop>6.0</pdop><geoidheight>53.00</geoidheight><course>65.5</course><type>1</type></trkpt>
      <trkpt lat="40.7954264" lon="-4.61970666"><ele>2675</ele><speed>14.34</speed><time>2016-06-30T14:50:09Z</time><pdop>6.0</pdop><geoidheight>53.00</geoidheight><course>72.2</course><type>1</type></trkpt>
      <trkpt lat="40.79547614" lon="-4.61953272"><ele>2677</ele><speed>14.39</speed><time>2016-06-30T14:50:10Z</time><pdop>6.0</pdop><geoidheight>53.00</geoidheight><course>73.0</course><type>1</type></trkpt>
      <trkpt lat="40.795512" lon="-4.61934388"><ele>2680</ele><speed>14.31</speed><time>2016-06-30T14:50:11Z</time><pdop>6.0</pdop><geoidheight>53.00</geoidheight><course>74.5</course><type>1</type></trkpt>
      <trkpt lat="40.79555102" lon="-4.61917204"><ele>2682</ele><speed>13.98</speed><time>2016-06-30T14:50:12Z</time><pdop>5.0</pdop><geoidheight>53.00</geoidheight><course>71.3</course><type>1</type></trkpt>
      <trkpt lat="40.79557746" lon="-4.6190046"><ele>2684</ele><speed>13.51</speed><time>2016-06-30T14:50:13Z</time><pdop>5.0</pdop><geoidheight>53.00</geoidheight><course>71.4</course><type>1</type></trkpt>
      <trkpt lat="40.79560798" lon="-4.61885906"><ele>2685</ele><speed>12.95</speed><time>2016-06-30T14:50:14Z</time><pdop>5.0</pdop><geoidheight>53.00</geoidheight><course>72.2</course><type>1</type></trkpt>
      <trkpt lat="40.79564596" lon="-4.61870411"><ele>2686</ele><speed>12.70</speed><time>2016-06-30T14:50:15Z</time><pdop>5.0</pdop><geoidheight>53.00</geoidheight><course>72.6</course><type>1</type></trkpt>
      <trkpt lat="40.79565871" lon="-4.61853732"><ele>2688</ele><speed>12.54</speed><time>2016-06-30T14:50:16Z</time><pdop>5.0</pdop><geoidheight>53.00</geoidheight><course>76.9</course><type>1</type></trkpt>
      <trkpt lat="40.79569146" lon="-4.61839783"><ele>2689</ele><speed>12.08</speed><time>2016-06-30T14:50:17Z</time><pdop>5.0</pdop><geoidheight>53.00</geoidheight><course>77.5</course><type>1</type></trkpt>
      <trkpt lat="40.79570902" lon="-4.61824421"><ele>2690</ele><speed>12.03</speed><time>2016-06-30T14:50:18Z</time><pdop>4.0</pdop><geoidheight>53.00</geoidheight><course>79.1</course><type>1</type></trkpt>
      <trkpt lat="40.79574969" lon="-4.61810266"><ele>2692</ele><speed>12.18</speed><time>2016-06-30T14:50:19Z</time><pdop>4.0</pdop><geoidheight>53.00</geoidheight><course>76.6</course><type>1</type></trkpt>
      <trkpt lat="40.79578125" lon="-4.61795882"><ele>2692</ele><speed>12.35</speed><time>2016-06-30T14:50:20Z</time><pdop>5.0</pdop><geoidheight>53.00</geoidheight><course>75.9</course><type>1</type></trkpt>
      <trkpt lat="40.79580332" lon="-4.61781662"><ele>2693</ele><speed>12.30</speed><time>2016-06-30T14:50:21Z</time><pdop>4.0</pdop><geoidheight>53.00</geoidheight><course>78.8</course><type>1</type></trkpt>
      <trkpt lat="40.79582172" lon="-4.61767268"><ele>2694</ele><speed>12.44</speed><time>2016-06-30T14:50:22Z</time><pdop>4.0</pdop><geoidheight>53.00</geoidheight><course>78.5</course><type>1</type></trkpt>
      <trkpt lat="40.7958443" lon="-4.61751856"><ele>2694</ele><speed>13.01</speed><time>2016-06-30T14:50:23Z</time><pdop>4.0</pdop><geoidheight>53.00</geoidheight><course>77.5</course><type>1</type></trkpt>
      <trkpt lat="40.7958791" lon="-4.61737518"><ele>2693</ele><speed>12.74</speed><time>2016-06-30T14:50:24Z</time><pdop>4.0</pdop><geoidheight>53.00</geoidheight><course>74.7</course><type>1</type></trkpt>
      <trkpt lat="40.79590876" lon="-4.6172227"><ele>2692</ele><speed>13.11</speed><time>2016-06-30T14:50:25Z</time><pdop>4.0</pdop><geoidheight>53.00</geoidheight><course>73.8</course><type>1</type></trkpt>
      <trkpt lat="40.79594573" lon="-4.61706787"><ele>2692</ele><speed>13.54</speed><time>2016-06-30T14:50:26Z</time><pdop>9.0</pdop><geoidheight>53.00</geoidheight><course>72.4</course><type>1</type></trkpt>
      <trkpt lat="40.79603747" lon="-4.61677695"><ele>2690</ele><speed>13.65</speed><time>2016-06-30T14:50:28Z</time><pdop>9.0</pdop><geoidheight>53.00</geoidheight><course>69.7</course><type>1</type></trkpt>
      <trkpt lat="40.79610299" lon="-4.61648571"><ele>2689</ele><speed>13.31</speed><time>2016-06-30T14:50:30Z</time><pdop>9.0</pdop><geoidheight>53.00</geoidheight><course>73.8</course><type>1</type></trkpt>
      <trkpt lat="40.79617817" lon="-4.61614664"><ele>2689</ele><speed>14.64</speed><time>2016-06-30T14:50:32Z</time><pdop>9.0</pdop><geoidheight>53.00</geoidheight><course>73.6</course><type>1</type></trkpt>
      <trkpt lat="40.7962588" lon="-4.61581157"><ele>2691</ele><speed>14.39</speed><time>2016-06-30T14:50:34Z</time><pdop>9.0</pdop><geoidheight>53.00</geoidheight><course>74.5</course><type>1</type></trkpt>
      <trkpt lat="40.79630593" lon="-4.61550609"><ele>2692</ele><speed>13.10</speed><time>2016-06-30T14:50:36Z</time><pdop>9.0</pdop><geoidheight>53.00</geoidheight><course>77.9</course><type>1</type></trkpt>
      <trkpt lat="40.79635886" lon="-4.61520361"><ele>2690</ele><speed>13.57</speed><time>2016-06-30T14:50:38Z</time><pdop>9.0</pdop><geoidheight>53.00</geoidheight><course>78.3</course><type>1</type></trkpt>
      <trkpt lat="40.79642346" lon="-4.6149292"><ele>2679</ele><speed>15.36</speed><time>2016-06-30T14:50:40Z</time><pdop>9.0</pdop><geoidheight>53.00</geoidheight><course>73.8</course><type>1</type></trkpt>
      <trkpt lat="40.79652228" lon="-4.61455669"><ele>2670</ele><speed>17.58</speed><time>2016-06-30T14:50:42Z</time><pdop>10.0</pdop><geoidheight>53.00</geoidheight><course>70.4</course><type>1</type></trkpt>
      <trkpt lat="40.79663466" lon="-4.61413975"><ele>2672</ele><speed>17.59</speed><time>2016-06-30T14:50:44Z</time><pdop>10.0</pdop><geoidheight>53.00</geoidheight><course>72.0</course><type>1</type></trkpt>
      <trkpt lat="40.79667738" lon="-4.61373624"><ele>2672</ele><speed>16.69</speed><time>2016-06-30T14:50:46Z</time><pdop>9.0</pdop><geoidheight>53.00</geoidheight><course>78.4</course><type>1</type></trkpt>
      <trkpt lat="40.7967498" lon="-4.61337859"><ele>2678</ele><speed>15.74</speed><time>2016-06-30T14:50:48Z</time><pdop>9.0</pdop><geoidheight>53.00</geoidheight><course>77.1</course><type>1</type></trkpt>
      <trkpt lat="40.79683867" lon="-4.61304479"><ele>2675</ele><speed>14.54</speed><time>2016-06-30T14:50:50Z</time><pdop>9.0</pdop><geoidheight>53.00</geoidheight><course>71.4</course><type>1</type></trkpt>
      <trkpt lat="40.79692865" lon="-4.61273041"><ele>2673</ele><speed>14.03</speed><time>2016-06-30T14:50:52Z</time><pdop>9.0</pdop><geoidheight>53.00</geoidheight><course>68.5</course><type>1</type></trkpt>
      <trkpt lat="40.79702538" lon="-4.6124471"><ele>2670</ele><speed>13.45</speed><time>2016-06-30T14:50:54Z</time><pdop>9.0</pdop><geoidheight>53.00</geoidheight><course>67.4</course><type>1</type></trkpt>
      <trkpt lat="40.7971116" lon="-4.6121255"><ele>2669</ele><speed>14.30</speed><time>2016-06-30T14:50:56Z</time><pdop>9.0</pdop><geoidheight>53.00</geoidheight><course>71.1</course><type>1</type></trkpt>
      <trkpt lat="40.79722092" lon="-4.61181576"><ele>2666</ele><speed>14.80</speed><time>2016-06-30T14:50:58Z</time><pdop>9.0</pdop><geoidheight>53.00</geoidheight><course>65.7</course><type>1</type></trkpt>
      <trkpt lat="40.79733643" lon="-4.61148304"><ele>2663</ele><speed>15.36</speed><time>2016-06-30T14:51:00Z</time><pdop>10.0</pdop><geoidheight>53.00</geoidheight><course>64.9</course><type>1</type></trkpt>
      <trkpt lat="40.79746511" lon="-4.61109169"><ele>2661</ele><speed>17.92</speed><time>2016-06-30T14:51:02Z</time><pdop>10.0</pdop><geoidheight>53.00</geoidheight><course>65.6</course><type>1</type></trkpt>
      <trkpt lat="40.79750853" lon="-4.61065346"><ele>2657</ele><speed>18.62</speed><time>2016-06-30T14:51:04Z</time><pdop>9.0</pdop><geoidheight>53.00</geoidheight><course>73.9</course><type>1</type></trkpt>
      <trkpt lat="40.79757489" lon="-4.61026954"><ele>2656</ele><speed>17.65</speed><time>2016-06-30T14:51:06Z</time><pdop>9.0</pdop><geoidheight>53.00</geoidheight><course>79.1</course><type>1</type></trkpt>
      <trkpt lat="40.79759051" lon="-4.60988956"><ele>2657</ele><speed>16.09</speed><time>2016-06-30T14:51:08Z</time><pdop>3.0</pdop><geoidheight>53.00</geoidheight><course>86.0</course><type>1</type></trkpt>
      <trkpt lat="40.79761558" lon="-4.60969798"><ele>2657</ele><speed>15.88</speed><time>2016-06-30T14:51:09Z</time><pdop>3.0</pdop><geoidheight>53.00</geoidheight><course>83.9</course><type>1</type></trkpt>
      <trkpt lat="40.79762926" lon="-4.60952207"><ele>2658</ele><speed>15.27</speed><time>2016-06-30T14:51:10Z</time><pdop>3.0</pdop><geoidheight>53.00</geoidheight><course>81.0</course><type>1</type></trkpt>
      <trkpt lat="40.79765154" lon="-4.6093528"><ele>2657</ele><speed>14.62</speed><time>2016-06-30T14:51:11Z</time><pdop>3.0</pdop><geoidheight>53.00</geoidheight><course>78.8</course><type>1</type></trkpt>
      <trkpt lat="40.79768024" lon="-4.60919052"><ele>2657</ele><speed>14.40</speed><time>2016-06-30T14:51:12Z</time><pdop>3.0</pdop><geoidheight>53.00</geoidheight><course>78.7</course><type>1</type></trkpt>
      <trkpt lat="40.79770218" lon="-4.60901662"><ele>2656</ele><speed>15.16</speed><time>2016-06-30T14:51:13Z</time><pdop>3.0</pdop><geoidheight>53.00</geoidheight><course>79.4</course><type>1</type></trkpt>
      <trkpt lat="40.79772867" lon="-4.60883379"><ele>2656</ele><speed>15.43</speed><time>2016-06-30T14:51:14Z</time><pdop>3.0</pdop><geoidheight>53.00</geoidheight><course>80.0</course><type>1</type></trkpt>
      <trkpt lat="40.79774161" lon="-4.60864891"><ele>2655</ele><speed>15.45</speed><time>2016-06-30T14:51:15Z</time><pdop>3.0</pdop><geoidheight>53.00</geoidheight><course>83.1</course><type>1</type></trkpt>
      <trkpt lat="40.79776467" lon="-4.60846265"><ele>2655</ele><speed>15.61</speed><time>2016-06-30T14:51:16Z</time><pdop>3.0</pdop><geoidheight>53.00</geoidheight><course>82.4</course><type>1</type></trkpt>
      <trkpt lat="40.79779702" lon="-4.60829173"><ele>2656</ele><speed>15.25</speed><time>2016-06-30T14:51:17Z</time><pdop>4.0</pdop><geoidheight>53.00</geoidheight><course>80.8</course><type>1</type></trkpt>
      <trkpt lat="40.79782811" lon="-4.60810653"><ele>2656</ele><speed>15.40</speed><time>2016-06-30T14:51:18Z</time><pdop>3.0</pdop><geoidheight>53.00</geoidheight><course>79.0</course><type>1</type></trkpt>
      <trkpt lat="40.7978474" lon="-4.60791812"><ele>2657</ele><speed>15.76</speed><time>2016-06-30T14:51:19Z</time><pdop>3.0</pdop><geoidheight>53.00</geoidheight><course>80.4</course><type>1</type></trkpt>
      <trkpt lat="40.79785978" lon="-4.60773196"><ele>2659</ele><speed>15.74</speed><time>2016-06-30T14:51:20Z</time><pdop>3.0</pdop><geoidheight>53.00</geoidheight><course>82.3</course><type>1</type></trkpt>
      <trkpt lat="40.79788169" lon="-4.60755233"><ele>2661</ele><speed>15.67</speed><time>2016-06-30T14:51:21Z</time><pdop>3.0</pdop><geoidheight>53.00</geoidheight><course>83.4</course><type>1</type></trkpt>
      <trkpt lat="40.7978976" lon="-4.60737629"><ele>2663</ele><speed>15.25</speed><time>2016-06-30T14:51:22Z</time><pdop>3.0</pdop><geoidheight>53.00</geoidheight><course>83.6</course><type>1</type></trkpt>
      <trkpt lat="40.7979079" lon="-4.60720564"><ele>2666</ele><speed>14.18</speed><time>2016-06-30T14:51:23Z</time><pdop>3.0</pdop><geoidheight>53.00</geoidheight><course>85.2</course><type>1</type></trkpt>
      <trkpt lat="40.79791034" lon="-4.60705358"><ele>2667</ele><speed>12.60</speed><time>2016-06-30T14:51:24Z</time><pdop>3.0</pdop><geoidheight>53.00</geoidheight><course>88.4</course><type>1</type></trkpt>
      <trkpt lat="40.79790966" lon="-4.60691102"><ele>2668</ele><speed>11.81</speed><time>2016-06-30T14:51:25Z</time><pdop>3.0</pdop><geoidheight>53.00</geoidheight><course>91.1</course><type>1</type></trkpt>
      <trkpt lat="40.79791053" lon="-4.60677105"><ele>2667</ele><speed>11.96</speed><time>2016-06-30T14:51:26Z</time><pdop>3.0</pdop><geoidheight>53.00</geoidheight><course>89.3</course><type>1</type></trkpt>
      <trkpt lat="40.79791454" lon="-4.60662607"><ele>2667</ele><speed>12.56</speed><time>2016-06-30T14:51:27Z</time><pdop>3.0</pdop><geoidheight>53.00</geoidheight><course>88.0</course><type>1</type></trkpt>
      <trkpt lat="40.79792399" lon="-4.60647073"><ele>2666</ele><speed>12.92</speed><time>2016-06-30T14:51:28Z</time><pdop>3.0</pdop><geoidheight>53.00</geoidheight><course>86.7</course><type>1</type></trkpt>
      <trkpt lat="40.79793361" lon="-4.60631789"><ele>2666</ele><speed>13.10</speed><time>2016-06-30T14:51:29Z</time><pdop>3.0</pdop><geoidheight>53.00</geoidheight><course>83.5</course><type>1</type></trkpt>
      <trkpt lat="40.79795245" lon="-4.60617225"><ele>2664</ele><speed>13.02</speed><time>2016-06-30T14:51:30Z</time><pdop>3.0</pdop><geoidheight>53.00</geoidheight><course>80.4</course><type>1</type></trkpt>
      <trkpt lat="40.79798413" lon="-4.60602444"><ele>2664</ele><speed>12.92</speed><time>2016-06-30T14:51:31Z</time><pdop>3.0</pdop><geoidheight>53.00</geoidheight><course>75.6</course><type>1</type></trkpt>
      <trkpt lat="40.79801467" lon="-4.60588068"><ele>2662</ele><speed>13.08</speed><time>2016-06-30T14:51:32Z</time><pdop>3.0</pdop><geoidheight>53.00</geoidheight><course>74.8</course><type>1</type></trkpt>
      <trkpt lat="40.79808788" lon="-4.60571306"><ele>2660</ele><speed>15.03</speed><time>2016-06-30T14:51:33Z</time><pdop>3.0</pdop><geoidheight>53.00</geoidheight><course>65.3</course><type>1</type></trkpt>
      <trkpt lat="40.79815307" lon="-4.60553263"><ele>2660</ele><speed>16.16</speed><time>2016-06-30T14:51:34Z</time><pdop>4.0</pdop><geoidheight>53.00</geoidheight><course>65.9</course><type>1</type></trkpt>
      <trkpt lat="40.79818004" lon="-4.60533163"><ele>2657</ele><speed>17.57</speed><time>2016-06-30T14:51:35Z</time><pdop>3.0</pdop><geoidheight>53.00</geoidheight><course>74.0</course><type>1</type></trkpt>
      <trkpt lat="40.79822185" lon="-4.60512031"><ele>2656</ele><speed>18.06</speed><time>2016-06-30T14:51:36Z</time><pdop>3.0</pdop><geoidheight>53.00</geoidheight><course>75.2</course><type>1</type></trkpt>
      <trkpt lat="40.79827009" lon="-4.60492034"><ele>2655</ele><speed>18.14</speed><time>2016-06-30T14:51:37Z</time><pdop>3.0</pdop><geoidheight>53.00</geoidheight><course>73.9</course><type>1</type></trkpt>
      <trkpt lat="40.79831495" lon="-4.60472531"><ele>2655</ele><speed>17.45</speed><time>2016-06-30T14:51:38Z</time><pdop>3.0</pdop><geoidheight>53.00</geoidheight><course>72.0</course><type>1</type></trkpt>
      <trkpt lat="40.79836523" lon="-4.60454254"><ele>2655</ele><speed>16.78</speed><time>2016-06-30T14:51:39Z</time><pdop>4.0</pdop><geoidheight>53.00</geoidheight><course>72.9</course><type>1</type></trkpt>
      <trkpt lat="40.79840349" lon="-4.60433835"><ele>2656</ele><speed>16.95</speed><time>2016-06-30T14:51:40Z</time><pdop>4.0</pdop><geoidheight>53.00</geoidheight><course>74.9</course><type>1</type></trkpt>
      <trkpt lat="40.79844903" lon="-4.60411913"><ele>2657</ele><speed>17.99</speed><time>2016-06-30T14:51:41Z</time><pdop>3.0</pdop><geoidheight>53.00</geoidheight><course>76.0</course><type>1</type></trkpt>
      <trkpt lat="40.79848516" lon="-4.60390565"><ele>2659</ele><speed>17.81</speed><time>2016-06-30T14:51:42Z</time><pdop>3.0</pdop><geoidheight>53.00</geoidheight><course>75.7</course><type>1</type></trkpt>
      <trkpt lat="40.79852537" lon="-4.60369406"><ele>2660</ele><speed>17.73</speed><time>2016-06-30T14:51:43Z</time><pdop>4.0</pdop><geoidheight>53.00</geoidheight><course>76.1</course><type>1</type></trkpt>
      <trkpt lat="40.79856819" lon="-4.60351125"><ele>2661</ele><speed>16.92</speed><time>2016-06-30T14:51:44Z</time><pdop>5.0</pdop><geoidheight>53.00</geoidheight><course>75.5</course><type>1</type></trkpt>
      <trkpt lat="40.798576" lon="-4.60332196"><ele>2663</ele><speed>16.15</speed><time>2016-06-30T14:51:45Z</time><pdop>4.0</pdop><geoidheight>53.00</geoidheight><course>78.9</course><type>1</type></trkpt>
      <trkpt lat="40.7985976" lon="-4.60310116"><ele>2665</ele><speed>17.22</speed><time>2016-06-30T14:51:46Z</time><pdop>3.0</pdop><geoidheight>53.00</geoidheight><course>78.4</course><type>1</type></trkpt>
      <trkpt lat="40.79863015" lon="-4.60290403"><ele>2668</ele><speed>16.53</speed><time>2016-06-30T14:51:47Z</time><pdop>3.0</pdop><geoidheight>53.00</geoidheight><course>79.8</course><type>1</type></trkpt>
      <trkpt lat="40.79864808" lon="-4.60271221"><ele>2671</ele><speed>16.14</speed><time>2016-06-30T14:51:48Z</time><pdop>3.0</pdop><geoidheight>53.00</geoidheight><course>84.3</course><type>1</type></trkpt>
      <trkpt lat="40.79864838" lon="-4.60252546"><ele>2673</ele><speed>15.72</speed><time>2016-06-30T14:51:49Z</time><pdop>3.0</pdop><geoidheight>53.00</geoidheight><course>85.3</course><type>1</type></trkpt>
      <trkpt lat="40.79866212" lon="-4.60235196"><ele>2675</ele><speed>14.81</speed><time>2016-06-30T14:51:50Z</time><pdop>3.0</pdop><geoidheight>53.00</geoidheight><course>85.5</course><type>1</type></trkpt>
      <trkpt lat="40.79867564" lon="-4.60216848"><ele>2677</ele><speed>14.62</speed><time>2016-06-30T14:51:51Z</time><pdop>3.0</pdop><geoidheight>53.00</geoidheight><course>82.9</course><type>1</type></trkpt>
      <trkpt lat="40.79869382" lon="-4.60199267"><ele>2678</ele><speed>14.68</speed><time>2016-06-30T14:51:52Z</time><pdop>3.0</pdop><geoidheight>53.00</geoidheight><course>80.0</course><type>1</type></trkpt>
      <trkpt lat="40.7987248" lon="-4.60182609"><ele>2679</ele><speed>14.80</speed><time>2016-06-30T14:51:53Z</time><pdop>3.0</pdop><geoidheight>53.00</geoidheight><course>79.6</course><type>1</type></trkpt>
      <trkpt lat="40.79874978" lon="-4.60164389"><ele>2681</ele><speed>14.97</speed><time>2016-06-30T14:51:54Z</time><pdop>3.0</pdop><geoidheight>53.00</geoidheight><course>80.1</course><type>1</type></trkpt>
      <trkpt lat="40.79876424" lon="-4.60147544"><ele>2683</ele><speed>15.15</speed><time>2016-06-30T14:51:55Z</time><pdop>3.0</pdop><geoidheight>53.00</geoidheight><course>82.3</course><type>1</type></trkpt>
      <trkpt lat="40.79878382" lon="-4.60130124"><ele>2684</ele><speed>15.23</speed><time>2016-06-30T14:51:56Z</time><pdop>3.0</pdop><geoidheight>53.00</geoidheight><course>83.0</course><type>1</type></trkpt>
      <trkpt lat="40.79879701" lon="-4.60112699"><ele>2685</ele><speed>15.13</speed><time>2016-06-30T14:51:57Z</time><pdop>3.0</pdop><geoidheight>53.00</geoidheight><course>81.9</course><type>1</type></trkpt>
      <trkpt lat="40.79882203" lon="-4.60095382"><ele>2685</ele><speed>14.88</speed><time>2016-06-30T14:51:58Z</time><pdop>3.0</pdop><geoidheight>53.00</geoidheight><course>80.4</course><type>1</type></trkpt>
      <trkpt lat="40.79884013" lon="-4.6007805"><ele>2685</ele><speed>14.70</speed><time>2016-06-30T14:51:59Z</time><pdop>3.0</pdop><geoidheight>53.00</geoidheight><course>80.4</course><type>1</type></trkpt>
      <trkpt lat="40.79887531" lon="-4.60061303"><ele>2685</ele><speed>14.51</speed><time>2016-06-30T14:52:00Z</time><pdop>4.0</pdop><geoidheight>53.00</geoidheight><course>77.3</course><type>1</type></trkpt>
      <trkpt lat="40.79893776" lon="-4.60045591"><ele>2684</ele><speed>14.59</speed><time>2016-06-30T14:52:01Z</time><pdop>3.0</pdop><geoidheight>53.00</geoidheight><course>69.5</course><type>1</type></trkpt>
      <trkpt lat="40.79900373" lon="-4.60028437"><ele>2683</ele><speed>15.87</speed><time>2016-06-30T14:52:02Z</time><pdop>4.0</pdop><geoidheight>53.00</geoidheight><course>67.1</course><type>1</type></trkpt>
      <trkpt lat="40.79907951" lon="-4.60009788"><ele>2683</ele><speed>17.13</speed><time>2016-06-30T14:52:03Z</time><pdop>4.0</pdop><geoidheight>53.00</geoidheight><course>64.5</course><type>1</type></trkpt>
      <trkpt lat="40.79916499" lon="-4.59992749"><ele>2684</ele><speed>17.61</speed><time>2016-06-30T14:52:04Z</time><pdop>4.0</pdop><geoidheight>53.00</geoidheight><course>62.7</course><type>1</type></trkpt>
      <trkpt lat="40.79922199" lon="-4.59973571"><ele>2685</ele><speed>16.75</speed><time>2016-06-30T14:52:05Z</time><pdop>3.0</pdop><geoidheight>53.00</geoidheight><course>67.3</course><type>1</type></trkpt>
      <trkpt lat="40.79925585" lon="-4.59956521"><ele>2686</ele><speed>15.28</speed><time>2016-06-30T14:52:06Z</time><pdop>3.0</pdop><geoidheight>53.00</geoidheight><course>71.6</course><type>1</type></trkpt>
      <trkpt lat="40.79929665" lon="-4.59940228"><ele>2687</ele><speed>14.45</speed><time>2016-06-30T14:52:07Z</time><pdop>3.0</pdop><geoidheight>53.00</geoidheight><course>72.6</course><type>1</type></trkpt>
      <trkpt lat="40.79933123" lon="-4.59923328"><ele>2686</ele><speed>14.66</speed><time>2016-06-30T14:52:08Z</time><pdop>3.0</pdop><geoidheight>53.00</geoidheight><course>71.5</course><type>1</type></trkpt>
      <trkpt lat="40.79938105" lon="-4.5990574"><ele>2685</ele><speed>15.46</speed><time>2016-06-30T14:52:09Z</time><pdop>4.0</pdop><geoidheight>53.00</geoidheight><course>69.7</course><type>1</type></trkpt>
      <trkpt lat="40.79942101" lon="-4.59888032"><ele>2683</ele><speed>16.04</speed><time>2016-06-30T14:52:10Z</time><pdop>3.0</pdop><geoidheight>53.00</geoidheight><course>72.1</course><type>1</type></trkpt>
      <trkpt lat="40.79944983" lon="-4.59868488"><ele>2682</ele><speed>16.80</speed><time>2016-06-30T14:52:11Z</time><pdop>3.0</pdop><geoidheight>53.00</geoidheight><course>75.1</course><type>1</type></trkpt>
      <trkpt lat="40.79947943" lon="-4.59848267"><ele>2681</ele><speed>17.29</speed><time>2016-06-30T14:52:12Z</time><pdop>3.0</pdop><geoidheight>53.00</geoidheight><course>76.7</course><type>1</type></trkpt>
      <trkpt lat="40.79951202" lon="-4.59829712"><ele>2681</ele><speed>16.63</speed><time>2016-06-30T14:52:13Z</time><pdop>3.0</pdop><geoidheight>53.00</geoidheight><course>77.3</course><type>1</type></trkpt>
      <trkpt lat="40.79955248" lon="-4.59810318"><ele>2681</ele><speed>16.40</speed><time>2016-06-30T14:52:14Z</time><pdop>3.0</pdop><geoidheight>53.00</geoidheight><course>76.9</course><type>1</type></trkpt>
      <trkpt lat="40.79958609" lon="-4.59793008"><ele>2680</ele><speed>15.72</speed><time>2016-06-30T14:52:15Z</time><pdop>5.0</pdop><geoidheight>53.00</geoidheight><course>76.8</course><type>1</type></trkpt>
      <trkpt lat="40.7996126" lon="-4.59776924"><ele>2679</ele><speed>15.01</speed><time>2016-06-30T14:52:16Z</time><pdop>6.0</pdop><geoidheight>53.00</geoidheight><course>77.2</course><type>1</type></trkpt>
      <trkpt lat="40.79962505" lon="-4.59755163"><ele>2678</ele><speed>16.68</speed><time>2016-06-30T14:52:17Z</time><pdop>6.0</pdop><geoidheight>53.00</geoidheight><course>78.3</course><type>1</type></trkpt>
      <trkpt lat="40.79968081" lon="-4.59735079"><ele>2678</ele><speed>17.98</speed><time>2016-06-30T14:52:18Z</time><pdop>6.0</pdop><geoidheight>53.00</geoidheight><course>77.0</course><type>1</type></trkpt>
      <trkpt lat="40.79968738" lon="-4.59711072"><ele>2676</ele><speed>18.92</speed><time>2016-06-30T14:52:19Z</time><pdop>6.0</pdop><geoidheight>53.00</geoidheight><course>79.4</course><type>1</type></trkpt>
      <trkpt lat="40.79975525" lon="-4.59692116"><ele>2673</ele><speed>18.82</speed><time>2016-06-30T14:52:20Z</time><pdop>6.0</pdop><geoidheight>53.00</geoidheight><course>75.6</course><type>1</type></trkpt>
      <trkpt lat="40.79979076" lon="-4.59671854"><ele>2671</ele><speed>18.29</speed><time>2016-06-30T14:52:21Z</time><pdop>6.0</pdop><geoidheight>53.00</geoidheight><course>75.3</course><type>1</type></trkpt>
      <trkpt lat="40.79984965" lon="-4.59651275"><ele>2669</ele><speed>18.56</speed><time>2016-06-30T14:52:22Z</time><pdop>5.0</pdop><geoidheight>53.00</geoidheight><course>72.4</course><type>1</type></trkpt>
      <trkpt lat="40.79989299" lon="-4.59634492"><ele>2667</ele><speed>17.41</speed><time>2016-06-30T14:52:23Z</time><pdop>5.0</pdop><geoidheight>53.00</geoidheight><course>72.1</course><type>1</type></trkpt>
      <trkpt lat="40.79993199" lon="-4.5962237"><ele>2663</ele><speed>14.63</speed><time>2016-06-30T14:52:24Z</time><pdop>6.0</pdop><geoidheight>53.00</geoidheight><course>70.2</course><type>1</type></trkpt>
      <trkpt lat="40.79998935" lon="-4.59607664"><ele>2660</ele><speed>14.73</speed><time>2016-06-30T14:52:25Z</time><pdop>7.0</pdop><geoidheight>53.00</geoidheight><course>67.6</course><type>1</type></trkpt>
      <trkpt lat="40.80005208" lon="-4.59585927"><ele>2659</ele><speed>16.70</speed><time>2016-06-30T14:52:26Z</time><pdop>9.0</pdop><geoidheight>53.00</geoidheight><course>67.9</course><type>1</type></trkpt>
      <trkpt lat="40.80008304" lon="-4.59564629"><ele>2657</ele><speed>17.40</speed><time>2016-06-30T14:52:27Z</time><pdop>8.0</pdop><geoidheight>53.00</geoidheight><course>70.5</course><type>1</type></trkpt>
      <trkpt lat="40.80019938" lon="-4.5954983"><ele>2652</ele><speed>17.67</speed><time>2016-06-30T14:52:28Z</time><pdop>7.0</pdop><geoidheight>53.00</geoidheight><course>62.2</course><type>1</type></trkpt>
      <trkpt lat="40.80028057" lon="-4.59532437"><ele>2649</ele><speed>17.26</speed><time>2016-06-30T14:52:29Z</time><pdop>6.0</pdop><geoidheight>53.00</geoidheight><course>64.6</course><type>1</type></trkpt>
      <trkpt lat="40.80036057" lon="-4.59515449"><ele>2646</ele><speed>17.13</speed><time>2016-06-30T14:52:30Z</time><pdop>6.0</pdop><geoidheight>53.00</geoidheight><course>64.0</course><type>1</type></trkpt>
      <trkpt lat="40.80044148" lon="-4.59497759"><ele>2644</ele><speed>16.75</speed><time>2016-06-30T14:52:31Z</time><pdop>7.0</pdop><geoidheight>53.00</geoidheight><course>60.5</course><type>1</type></trkpt>
      <trkpt lat="40.80051857" lon="-4.59480438"><ele>2641</ele><speed>16.94</speed><time>2016-06-30T14:52:32Z</time><pdop>8.0</pdop><geoidheight>53.00</geoidheight><course>60.8</course><type>1</type></trkpt>
      <trkpt lat="40.80059992" lon="-4.59461756"><ele>2639</ele><speed>17.74</speed><time>2016-06-30T14:52:33Z</time><pdop>8.0</pdop><geoidheight>53.00</geoidheight><course>60.5</course><type>1</type></trkpt>
      <trkpt lat="40.80062728" lon="-4.5944551"><ele>2629</ele><speed>17.07</speed><time>2016-06-30T14:52:34Z</time><pdop>6.0</pdop><geoidheight>53.00</geoidheight><course>61.6</course><type>1</type></trkpt>
      <trkpt lat="40.80069622" lon="-4.5943087"><ele>2623</ele><speed>16.76</speed><time>2016-06-30T14:52:35Z</time><pdop>6.0</pdop><geoidheight>53.00</geoidheight><course>61.2</course><type>1</type></trkpt>
      <trkpt lat="40.80078076" lon="-4.59412885"><ele>2620</ele><speed>17.22</speed><time>2016-06-30T14:52:36Z</time><pdop>5.0</pdop><geoidheight>53.00</geoidheight><course>59.0</course><type>1</type></trkpt>
      <trkpt lat="40.80086036" lon="-4.5939531"><ele>2617</ele><speed>17.16</speed><time>2016-06-30T14:52:37Z</time><pdop>5.0</pdop><geoidheight>53.00</geoidheight><course>59.4</course><type>1</type></trkpt>
      <trkpt lat="40.80093431" lon="-4.59378034"><ele>2616</ele><speed>16.80</speed><time>2016-06-30T14:52:38Z</time><pdop>10.0</pdop><geoidheight>53.00</geoidheight><course>61.0</course><type>1</type></trkpt>
      <trkpt lat="40.80102461" lon="-4.59334871"><ele>2613</ele><speed>17.82</speed><time>2016-06-30T14:52:40Z</time><pdop>10.0</pdop><geoidheight>53.00</geoidheight><course>71.4</course><type>1</type></trkpt>
      <trkpt lat="40.80112258" lon="-4.59301391"><ele>2607</ele><speed>16.43</speed><time>2016-06-30T14:52:42Z</time><pdop>10.0</pdop><geoidheight>53.00</geoidheight><course>67.1</course><type>1</type></trkpt>
      <trkpt lat="40.80123979" lon="-4.59268224"><ele>2602</ele><speed>16.06</speed><time>2016-06-30T14:52:44Z</time><pdop>11.0</pdop><geoidheight>53.00</geoidheight><course>65.5</course><type>1</type></trkpt>
      <trkpt lat="40.80139957" lon="-4.59231657"><ele>2597</ele><speed>18.05</speed><time>2016-06-30T14:52:46Z</time><pdop>11.0</pdop><geoidheight>53.00</geoidheight><course>61.8</course><type>1</type></trkpt>
      <trkpt lat="40.80154285" lon="-4.59186094"><ele>2594</ele><speed>19.54</speed><time>2016-06-30T14:52:48Z</time><pdop>11.0</pdop><geoidheight>53.00</geoidheight><course>65.9</course><type>1</type></trkpt>
      <trkpt lat="40.80162767" lon="-4.59147938"><ele>2591</ele><speed>16.83</speed><time>2016-06-30T14:52:50Z</time><pdop>10.0</pdop><geoidheight>53.00</geoidheight><course>66.8</course><type>1</type></trkpt>
      <trkpt lat="40.80172654" lon="-4.59117306"><ele>2584</ele><speed>16.35</speed><time>2016-06-30T14:52:52Z</time><pdop>10.0</pdop><geoidheight>53.00</geoidheight><course>69.1</course><type>1</type></trkpt>
      <trkpt lat="40.80187603" lon="-4.5907406"><ele>2581</ele><speed>19.69</speed><time>2016-06-30T14:52:54Z</time><pdop>12.0</pdop><geoidheight>53.00</geoidheight><course>65.7</course><type>1</type></trkpt>
      <trkpt lat="40.80205697" lon="-4.59029108"><ele>2576</ele><speed>21.13</speed><time>2016-06-30T14:52:56Z</time><pdop>12.0</pdop><geoidheight>53.00</geoidheight><course>65.4</course><type>1</type></trkpt>
      <trkpt lat="40.8021775" lon="-4.58991022"><ele>2575</ele><speed>18.35</speed><time>2016-06-30T14:52:58Z</time><pdop>10.0</pdop><geoidheight>53.00</geoidheight><course>69.7</course><type>1</type></trkpt>
      <trkpt lat="40.80225955" lon="-4.58954415"><ele>2570</ele><speed>15.95</speed><time>2016-06-30T14:53:00Z</time><pdop>10.0</pdop><geoidheight>53.00</geoidheight><course>69.2</course><type>1</type></trkpt>
      <trkpt lat="40.80230027" lon="-4.5892498"><ele>2564</ele><speed>13.55</speed><time>2016-06-30T14:53:02Z</time><pdop>11.0</pdop><geoidheight>53.00</geoidheight><course>76.0</course><type>1</type></trkpt>
      <trkpt lat="40.80239383" lon="-4.58899113"><ele>2560</ele><speed>13.40</speed><time>2016-06-30T14:53:04Z</time><pdop>13.0</pdop><geoidheight>53.00</geoidheight><course>70.4</course><type>1</type></trkpt>
      <trkpt lat="40.80256087" lon="-4.58859391"><ele>2548</ele><speed>19.95</speed><time>2016-06-30T14:53:06Z</time><pdop>12.0</pdop><geoidheight>53.00</geoidheight><course>67.1</course><type>1</type></trkpt>
      <trkpt lat="40.80262649" lon="-4.58817657"><ele>2535</ele><speed>19.04</speed><time>2016-06-30T14:53:08Z</time><pdop>11.0</pdop><geoidheight>53.00</geoidheight><course>73.4</course><type>1</type></trkpt>
      <trkpt lat="40.80271678" lon="-4.58776644"><ele>2526</ele><speed>18.68</speed><time>2016-06-30T14:53:10Z</time><pdop>10.0</pdop><geoidheight>53.00</geoidheight><course>75.3</course><type>1</type></trkpt>
      <trkpt lat="40.80278303" lon="-4.58736327"><ele>2518</ele><speed>16.92</speed><time>2016-06-30T14:53:12Z</time><pdop>10.0</pdop><geoidheight>53.00</geoidheight><course>74.9</course><type>1</type></trkpt>
      <trkpt lat="40.80289279" lon="-4.58700864"><ele>2510</ele><speed>16.46</speed><time>2016-06-30T14:53:14Z</time><pdop>10.0</pdop><geoidheight>53.00</geoidheight><course>67.9</course><type>1</type></trkpt>
      <trkpt lat="40.80300201" lon="-4.58664534"><ele>2500</ele><speed>17.10</speed><time>2016-06-30T14:53:16Z</time><pdop>10.0</pdop><geoidheight>53.00</geoidheight><course>69.1</course><type>1</type></trkpt>
      <trkpt lat="40.80310636" lon="-4.58632423"><ele>2487</ele><speed>16.89</speed><time>2016-06-30T14:53:18Z</time><pdop>10.0</pdop><geoidheight>53.00</geoidheight><course>68.1</course><type>1</type></trkpt>
      <trkpt lat="40.80321629" lon="-4.58596378"><ele>2476</ele><speed>17.42</speed><time>2016-06-30T14:53:20Z</time><pdop>10.0</pdop><geoidheight>53.00</geoidheight><course>67.3</course><type>1</type></trkpt>
      <trkpt lat="40.80333211" lon="-4.58558949"><ele>2465</ele><speed>17.22</speed><time>2016-06-30T14:53:22Z</time><pdop>11.0</pdop><geoidheight>53.00</geoidheight><course>64.0</course><type>1</type></trkpt>
      <trkpt lat="40.8034668" lon="-4.58529586"><ele>2454</ele><speed>16.60</speed><time>2016-06-30T14:53:24Z</time><pdop>10.0</pdop><geoidheight>53.00</geoidheight><course>65.4</course><type>1</type></trkpt>
      <trkpt lat="40.80358103" lon="-4.58494116"><ele>2445</ele><speed>16.50</speed><time>2016-06-30T14:53:26Z</time><pdop>11.0</pdop><geoidheight>53.00</geoidheight><course>65.5</course><type>1</type></trkpt>
      <trkpt lat="40.80371303" lon="-4.58465306"><ele>2439</ele><speed>14.63</speed><time>2016-06-30T14:53:28Z</time><pdop>11.0</pdop><geoidheight>53.00</geoidheight><course>62.2</course><type>1</type></trkpt>
      <trkpt lat="40.80385685" lon="-4.58437083"><ele>2436</ele><speed>14.16</speed><time>2016-06-30T14:53:30Z</time><pdop>13.0</pdop><geoidheight>53.00</geoidheight><course>58.6</course><type>1</type></trkpt>
      <trkpt lat="40.80407307" lon="-4.58410178"><ele>2648</ele><speed>15.55</speed><time>2016-06-30T14:53:32Z</time><pdop>15.0</pdop><geoidheight>53.00</geoidheight><course>52.5</course><type>1</type></trkpt>
      <trkpt lat="40.8042739" lon="-4.58381952"><ele>2595</ele><speed>17.10</speed><time>2016-06-30T14:53:34Z</time><pdop>13.0</pdop><geoidheight>53.00</geoidheight><course>48.6</course><type>1</type></trkpt>
      <trkpt lat="40.80447132" lon="-4.58357727"><ele>2534</ele><speed>14.86</speed><time>2016-06-30T14:53:36Z</time><pdop>12.0</pdop><geoidheight>53.00</geoidheight><course>44.6</course><type>1</type></trkpt>
      <trkpt lat="40.80468971" lon="-4.5833605"><ele>2499</ele><speed>14.94</speed><time>2016-06-30T14:53:38Z</time><pdop>12.0</pdop><geoidheight>53.00</geoidheight><course>40.6</course><type>1</type></trkpt>
      <trkpt lat="40.8048948" lon="-4.58310348"><ele>2472</ele><speed>16.75</speed><time>2016-06-30T14:53:40Z</time><pdop>12.0</pdop><geoidheight>53.00</geoidheight><course>43.0</course><type>1</type></trkpt>
      <trkpt lat="40.8051216" lon="-4.58278337"><ele>2433</ele><speed>17.97</speed><time>2016-06-30T14:53:42Z</time><pdop>11.0</pdop><geoidheight>53.00</geoidheight><course>45.8</course><type>1</type></trkpt>
      <trkpt lat="40.80534238" lon="-4.58250987"><ele>2419</ele><speed>16.06</speed><time>2016-06-30T14:53:44Z</time><pdop>12.0</pdop><geoidheight>53.00</geoidheight><course>45.1</course><type>1</type></trkpt>
      <trkpt lat="40.80551412" lon="-4.58223464"><ele>2409</ele><speed>14.81</speed><time>2016-06-30T14:53:46Z</time><pdop>13.0</pdop><geoidheight>53.00</geoidheight><course>50.1</course><type>1</type></trkpt>
      <trkpt lat="40.80570032" lon="-4.58199805"><ele>2399</ele><speed>15.35</speed><time>2016-06-30T14:53:48Z</time><pdop>13.0</pdop><geoidheight>53.00</geoidheight><course>50.1</course><type>1</type></trkpt>
      <trkpt lat="40.80590767" lon="-4.58170322"><ele>2393</ele><speed>16.98</speed><time>2016-06-30T14:53:50Z</time><pdop>13.0</pdop><geoidheight>53.00</geoidheight><course>50.0</course><type>1</type></trkpt>
      <trkpt lat="40.80610355" lon="-4.58141764"><ele>2383</ele><speed>15.37</speed><time>2016-06-30T14:53:52Z</time><pdop>12.0</pdop><geoidheight>53.00</geoidheight><course>46.6</course><type>1</type></trkpt>
      <trkpt lat="40.80627459" lon="-4.58119335"><ele>2376</ele><speed>13.95</speed><time>2016-06-30T14:53:54Z</time><pdop>13.0</pdop><geoidheight>53.00</geoidheight><course>46.3</course><type>1</type></trkpt>
      <trkpt lat="40.8063881" lon="-4.58088801"><ele>2356</ele><speed>16.11</speed><time>2016-06-30T14:53:56Z</time><pdop>11.0</pdop><geoidheight>53.00</geoidheight><course>57.7</course><type>1</type></trkpt>
      <trkpt lat="40.80655538" lon="-4.58053652"><ele>2343</ele><speed>17.50</speed><time>2016-06-30T14:53:58Z</time><pdop>10.0</pdop><geoidheight>53.00</geoidheight><course>56.6</course><type>1</type></trkpt>
      <trkpt lat="40.80668605" lon="-4.58019908"><ele>2335</ele><speed>16.30</speed><time>2016-06-30T14:54:00Z</time><pdop>11.0</pdop><geoidheight>53.00</geoidheight><course>58.6</course><type>1</type></trkpt>
      <trkpt lat="40.80683266" lon="-4.57988771"><ele>2329</ele><speed>15.82</speed><time>2016-06-30T14:54:02Z</time><pdop>11.0</pdop><geoidheight>53.00</geoidheight><course>56.6</course><type>1</type></trkpt>
      <trkpt lat="40.8069666" lon="-4.57960527"><ele>2325</ele><speed>14.40</speed><time>2016-06-30T14:54:04Z</time><pdop>11.0</pdop><geoidheight>53.00</geoidheight><course>55.9</course><type>1</type></trkpt>
      <trkpt lat="40.80714853" lon="-4.5793963"><ele>2320</ele><speed>12.79</speed><time>2016-06-30T14:54:06Z</time><pdop>12.0</pdop><geoidheight>53.00</geoidheight><course>45.9</course><type>1</type></trkpt>
      <trkpt lat="40.80738042" lon="-4.5791923"><ele>2311</ele><speed>14.61</speed><time>2016-06-30T14:54:08Z</time><pdop>10.0</pdop><geoidheight>53.00</geoidheight><course>42.8</course><type>1</type></trkpt>
      <trkpt lat="40.8075964" lon="-4.5789565"><ele>2300</ele><speed>16.05</speed><time>2016-06-30T14:54:10Z</time><pdop>10.0</pdop><geoidheight>53.00</geoidheight><course>43.4</course><type>1</type></trkpt>
      <trkpt lat="40.80779893" lon="-4.57868053"><ele>2291</ele><speed>16.43</speed><time>2016-06-30T14:54:12Z</time><pdop>9.0</pdop><geoidheight>53.00</geoidheight><course>47.6</course><type>1</type></trkpt>
      <trkpt lat="40.80797788" lon="-4.57837503"><ele>2288</ele><speed>16.57</speed><time>2016-06-30T14:54:14Z</time><pdop>9.0</pdop><geoidheight>53.00</geoidheight><course>47.8</course><type>1</type></trkpt>
      <trkpt lat="40.80816656" lon="-4.57811459"><ele>2286</ele><speed>14.57</speed><time>2016-06-30T14:54:16Z</time><pdop>9.0</pdop><geoidheight>53.00</geoidheight><course>47.9</course><type>1</type></trkpt>
      <trkpt lat="40.80834139" lon="-4.57786856"><ele>2286</ele><speed>13.88</speed><time>2016-06-30T14:54:18Z</time><pdop>9.0</pdop><geoidheight>53.00</geoidheight><course>47.0</course><type>1</type></trkpt>
      <trkpt lat="40.80842505" lon="-4.57775242"><ele>2284</ele><speed>13.87</speed><time>2016-06-30T14:54:19Z</time><pdop>4.0</pdop><geoidheight>53.00</geoidheight><course>46.5</course><type>1</type></trkpt>
      <trkpt lat="40.8085122" lon="-4.57763424"><ele>2284</ele><speed>13.81</speed><time>2016-06-30T14:54:20Z</time><pdop>4.0</pdop><geoidheight>53.00</geoidheight><course>46.9</course><type>1</type></trkpt>
      <trkpt lat="40.80859132" lon="-4.5775047"><ele>2283</ele><speed>13.71</speed><time>2016-06-30T14:54:21Z</time><pdop>4.0</pdop><geoidheight>53.00</geoidheight><course>50.0</course><type>1</type></trkpt>
      <trkpt lat="40.80867324" lon="-4.57738043"><ele>2283</ele><speed>14.06</speed><time>2016-06-30T14:54:22Z</time><pdop>5.0</pdop><geoidheight>53.00</geoidheight><course>50.2</course><type>1</type></trkpt>
      <trkpt lat="40.80874495" lon="-4.57724633"><ele>2282</ele><speed>13.95</speed><time>2016-06-30T14:54:23Z</time><pdop>6.0</pdop><geoidheight>53.00</geoidheight><course>51.6</course><type>1</type></trkpt>
      <trkpt lat="40.80880925" lon="-4.57710268"><ele>2281</ele><speed>14.01</speed><time>2016-06-30T14:54:24Z</time><pdop>8.0</pdop><geoidheight>53.00</geoidheight><course>54.8</course><type>1</type></trkpt>
      <trkpt lat="40.80899637" lon="-4.57682587"><ele>2277</ele><speed>15.58</speed><time>2016-06-30T14:54:26Z</time><pdop>8.0</pdop><geoidheight>53.00</geoidheight><course>49.9</course><type>1</type></trkpt>
      <trkpt lat="40.80910408" lon="-4.5766709"><ele>2275</ele><speed>16.55</speed><time>2016-06-30T14:54:27Z</time><pdop>7.0</pdop><geoidheight>53.00</geoidheight><course>49.1</course><type>1</type></trkpt>
      <trkpt lat="40.80917277" lon="-4.5765223"><ele>2272</ele><speed>15.61</speed><time>2016-06-30T14:54:28Z</time><pdop>5.0</pdop><geoidheight>53.00</geoidheight><course>53.3</course><type>1</type></trkpt>
      <trkpt lat="40.80925769" lon="-4.57637512"><ele>2271</ele><speed>14.98</speed><time>2016-06-30T14:54:29Z</time><pdop>4.0</pdop><geoidheight>53.00</geoidheight><course>52.5</course><type>1</type></trkpt>
      <trkpt lat="40.80932225" lon="-4.57623614"><ele>2270</ele><speed>14.33</speed><time>2016-06-30T14:54:30Z</time><pdop>4.0</pdop><geoidheight>53.00</geoidheight><course>52.0</course><type>1</type></trkpt>
      <trkpt lat="40.80940852" lon="-4.57611"><ele>2268</ele><speed>14.27</speed><time>2016-06-30T14:54:31Z</time><pdop>4.0</pdop><geoidheight>53.00</geoidheight><course>50.5</course><type>1</type></trkpt>
      <trkpt lat="40.80947153" lon="-4.57597786"><ele>2266</ele><speed>14.00</speed><time>2016-06-30T14:54:32Z</time><pdop>6.0</pdop><geoidheight>53.00</geoidheight><course>52.1</course><type>1</type></trkpt>
      <trkpt lat="40.809557" lon="-4.5758332"><ele>2265</ele><speed>14.71</speed><time>2016-06-30T14:54:33Z</time><pdop>7.0</pdop><geoidheight>53.00</geoidheight><course>52.3</course><type>1</type></trkpt>
      <trkpt lat="40.8096437" lon="-4.5756413"><ele>2264</ele><speed>16.18</speed><time>2016-06-30T14:54:34Z</time><pdop>6.0</pdop><geoidheight>53.00</geoidheight><course>54.7</course><type>1</type></trkpt>
      <trkpt lat="40.80975619" lon="-4.57552999"><ele>2259</ele><speed>16.91</speed><time>2016-06-30T14:54:35Z</time><pdop>5.0</pdop><geoidheight>53.00</geoidheight><course>49.2</course><type>1</type></trkpt>
      <trkpt lat="40.80983969" lon="-4.57538122"><ele>2255</ele><speed>16.91</speed><time>2016-06-30T14:54:36Z</time><pdop>5.0</pdop><geoidheight>53.00</geoidheight><course>49.8</course><type>1</type></trkpt>
      <trkpt lat="40.80993243" lon="-4.57525413"><ele>2252</ele><speed>16.08</speed><time>2016-06-30T14:54:37Z</time><pdop>4.0</pdop><geoidheight>53.00</geoidheight><course>48.9</course><type>1</type></trkpt>
      <trkpt lat="40.81000467" lon="-4.57510366"><ele>2250</ele><speed>15.77</speed><time>2016-06-30T14:54:38Z</time><pdop>5.0</pdop><geoidheight>53.00</geoidheight><course>51.7</course><type>1</type></trkpt>
      <trkpt lat="40.81008175" lon="-4.57496771"><ele>2246</ele><speed>15.10</speed><time>2016-06-30T14:54:39Z</time><pdop>4.0</pdop><geoidheight>53.00</geoidheight><course>52.5</course><type>1</type></trkpt>
      <trkpt lat="40.81016001" lon="-4.57482731"><ele>2244</ele><speed>14.70</speed><time>2016-06-30T14:54:40Z</time><pdop>4.0</pdop><geoidheight>53.00</geoidheight><course>53.7</course><type>1</type></trkpt>
      <trkpt lat="40.81023745" lon="-4.57468055"><ele>2242</ele><speed>14.93</speed><time>2016-06-30T14:54:41Z</time><pdop>4.0</pdop><geoidheight>53.00</geoidheight><course>53.0</course><type>1</type></trkpt>
      <trkpt lat="40.81030417" lon="-4.57453502"><ele>2239</ele><speed>14.76</speed><time>2016-06-30T14:54:42Z</time><pdop>4.0</pdop><geoidheight>53.00</geoidheight><course>53.2</course><type>1</type></trkpt>
      <trkpt lat="40.81038242" lon="-4.57440914"><ele>2236</ele><speed>14.38</speed><time>2016-06-30T14:54:43Z</time><pdop>4.0</pdop><geoidheight>53.00</geoidheight><course>54.2</course><type>1</type></trkpt>
      <trkpt lat="40.81045003" lon="-4.57427596"><ele>2234</ele><speed>13.99</speed><time>2016-06-30T14:54:44Z</time><pdop>4.0</pdop><geoidheight>53.00</geoidheight><course>54.4</course><type>1</type></trkpt>
      <trkpt lat="40.81053151" lon="-4.57416104"><ele>2231</ele><speed>13.83</speed><time>2016-06-30T14:54:45Z</time><pdop>4.0</pdop><geoidheight>53.00</geoidheight><course>52.1</course><type>1</type></trkpt>
      <trkpt lat="40.81059878" lon="-4.57403795"><ele>2227</ele><speed>13.66</speed><time>2016-06-30T14:54:46Z</time><pdop>4.0</pdop><geoidheight>53.00</geoidheight><course>54.4</course><type>1</type></trkpt>
      <trkpt lat="40.81066809" lon="-4.57390562"><ele>2224</ele><speed>14.21</speed><time>2016-06-30T14:54:47Z</time><pdop>4.0</pdop><geoidheight>53.00</geoidheight><course>55.1</course><type>1</type></trkpt>
      <trkpt lat="40.81075316" lon="-4.57377357"><ele>2222</ele><speed>14.52</speed><time>2016-06-30T14:54:48Z</time><pdop>4.0</pdop><geoidheight>53.00</geoidheight><course>54.0</course><type>1</type></trkpt>
      <trkpt lat="40.81079746" lon="-4.57360568"><ele>2217</ele><speed>15.15</speed><time>2016-06-30T14:54:49Z</time><pdop>4.0</pdop><geoidheight>53.00</geoidheight><course>62.9</course><type>1</type></trkpt>
      <trkpt lat="40.81085288" lon="-4.57343636"><ele>2214</ele><speed>15.13</speed><time>2016-06-30T14:54:50Z</time><pdop>3.0</pdop><geoidheight>53.00</geoidheight><course>65.1</course><type>1</type></trkpt>
      <trkpt lat="40.810907" lon="-4.57327712"><ele>2211</ele><speed>14.82</speed><time>2016-06-30T14:54:51Z</time><pdop>3.0</pdop><geoidheight>53.00</geoidheight><course>64.1</course><type>1</type></trkpt>
      <trkpt lat="40.81097364" lon="-4.57313149"><ele>2208</ele><speed>14.54</speed><time>2016-06-30T14:54:52Z</time><pdop>3.0</pdop><geoidheight>53.00</geoidheight><course>60.8</course><type>1</type></trkpt>
      <trkpt lat="40.81104302" lon="-4.57299479"><ele>2205</ele><speed>14.47</speed><time>2016-06-30T14:54:53Z</time><pdop>3.0</pdop><geoidheight>53.00</geoidheight><course>59.5</course><type>1</type></trkpt>
      <trkpt lat="40.81111645" lon="-4.57285084"><ele>2203</ele><speed>14.77</speed><time>2016-06-30T14:54:54Z</time><pdop>3.0</pdop><geoidheight>53.00</geoidheight><course>59.2</course><type>1</type></trkpt>
      <trkpt lat="40.81117922" lon="-4.57269835"><ele>2201</ele><speed>14.85</speed><time>2016-06-30T14:54:55Z</time><pdop>3.0</pdop><geoidheight>53.00</geoidheight><course>59.7</course><type>1</type></trkpt>
      <trkpt lat="40.81124619" lon="-4.57253545"><ele>2200</ele><speed>15.17</speed><time>2016-06-30T14:54:56Z</time><pdop>4.0</pdop><geoidheight>53.00</geoidheight><course>61.0</course><type>1</type></trkpt>
      <trkpt lat="40.81131358" lon="-4.57237526"><ele>2200</ele><speed>15.26</speed><time>2016-06-30T14:54:57Z</time><pdop>6.0</pdop><geoidheight>53.00</geoidheight><course>60.9</course><type>1</type></trkpt>
      <trkpt lat="40.81137487" lon="-4.57221372"><ele>2198</ele><speed>15.92</speed><time>2016-06-30T14:54:58Z</time><pdop>6.0</pdop><geoidheight>53.00</geoidheight><course>61.2</course><type>1</type></trkpt>
      <trkpt lat="40.81148044" lon="-4.5720821"><ele>2196</ele><speed>16.36</speed><time>2016-06-30T14:54:59Z</time><pdop>7.0</pdop><geoidheight>53.00</geoidheight><course>56.0</course><type>1</type></trkpt>
      <trkpt lat="40.8115411" lon="-4.57192753"><ele>2192</ele><speed>16.53</speed><time>2016-06-30T14:55:00Z</time><pdop>6.0</pdop><geoidheight>53.00</geoidheight><course>62.7</course><type>1</type></trkpt>
      <trkpt lat="40.81158775" lon="-4.57177248"><ele>2189</ele><speed>14.83</speed><time>2016-06-30T14:55:01Z</time><pdop>4.0</pdop><geoidheight>53.00</geoidheight><course>65.0</course><type>1</type></trkpt>
      <trkpt lat="40.81164821" lon="-4.57160829"><ele>2187</ele><speed>14.70</speed><time>2016-06-30T14:55:02Z</time><pdop>4.0</pdop><geoidheight>53.00</geoidheight><course>66.2</course><type>1</type></trkpt>
      <trkpt lat="40.81169696" lon="-4.57144357"><ele>2185</ele><speed>14.87</speed><time>2016-06-30T14:55:03Z</time><pdop>4.0</pdop><geoidheight>53.00</geoidheight><course>67.2</course><type>1</type></trkpt>
      <trkpt lat="40.81175302" lon="-4.57128277"><ele>2182</ele><speed>14.83</speed><time>2016-06-30T14:55:04Z</time><pdop>4.0</pdop><geoidheight>53.00</geoidheight><course>67.0</course><type>1</type></trkpt>
      <trkpt lat="40.81180287" lon="-4.57112394"><ele>2181</ele><speed>14.94</speed><time>2016-06-30T14:55:05Z</time><pdop>5.0</pdop><geoidheight>53.00</geoidheight><course>67.0</course><type>1</type></trkpt>
      <trkpt lat="40.811864" lon="-4.57097075"><ele>2180</ele><speed>15.17</speed><time>2016-06-30T14:55:06Z</time><pdop>6.0</pdop><geoidheight>53.00</geoidheight><course>65.4</course><type>1</type></trkpt>
      <trkpt lat="40.8119355" lon="-4.57076482"><ele>2177</ele><speed>17.51</speed><time>2016-06-30T14:55:07Z</time><pdop>5.0</pdop><geoidheight>53.00</geoidheight><course>65.8</course><type>1</type></trkpt>
      <trkpt lat="40.81200962" lon="-4.57057754"><ele>2175</ele><speed>17.35</speed><time>2016-06-30T14:55:08Z</time><pdop>5.0</pdop><geoidheight>53.00</geoidheight><course>65.2</course><type>1</type></trkpt>
      <trkpt lat="40.81205191" lon="-4.57044771"><ele>2172</ele><speed>15.93</speed><time>2016-06-30T14:55:09Z</time><pdop>6.0</pdop><geoidheight>53.00</geoidheight><course>65.5</course><type>1</type></trkpt>
      <trkpt lat="40.8120929" lon="-4.57032468"><ele>2167</ele><speed>14.87</speed><time>2016-06-30T14:55:10Z</time><pdop>4.0</pdop><geoidheight>53.00</geoidheight><course>64.7</course><type>1</type></trkpt>
      <trkpt lat="40.81212577" lon="-4.57016092"><ele>2163</ele><speed>14.40</speed><time>2016-06-30T14:55:11Z</time><pdop>4.0</pdop><geoidheight>53.00</geoidheight><course>66.5</course><type>1</type></trkpt>
      <trkpt lat="40.81218282" lon="-4.56999714"><ele>2161</ele><speed>14.92</speed><time>2016-06-30T14:55:12Z</time><pdop>4.0</pdop><geoidheight>53.00</geoidheight><course>65.6</course><type>1</type></trkpt>
      <trkpt lat="40.81222867" lon="-4.56984501"><ele>2156</ele><speed>14.94</speed><time>2016-06-30T14:55:13Z</time><pdop>4.0</pdop><geoidheight>53.00</geoidheight><course>63.1</course><type>1</type></trkpt>
      <trkpt lat="40.81229458" lon="-4.5697153"><ele>2152</ele><speed>14.68</speed><time>2016-06-30T14:55:14Z</time><pdop>4.0</pdop><geoidheight>53.00</geoidheight><course>62.7</course><type>1</type></trkpt>
      <trkpt lat="40.8123484" lon="-4.56954565"><ele>2151</ele><speed>14.90</speed><time>2016-06-30T14:55:15Z</time><pdop>5.0</pdop><geoidheight>53.00</geoidheight><course>63.7</course><type>1</type></trkpt>
      <trkpt lat="40.81239512" lon="-4.56932673"><ele>2149</ele><speed>16.69</speed><time>2016-06-30T14:55:16Z</time><pdop>6.0</pdop><geoidheight>53.00</geoidheight><course>67.9</course><type>1</type></trkpt>
      <trkpt lat="40.81247244" lon="-4.56915282"><ele>2149</ele><speed>16.92</speed><time>2016-06-30T14:55:17Z</time><pdop>7.0</pdop><geoidheight>53.00</geoidheight><course>65.5</course><type>1</type></trkpt>
      <trkpt lat="40.81255513" lon="-4.56898314"><ele>2140</ele><speed>18.57</speed><time>2016-06-30T14:55:18Z</time><pdop>5.0</pdop><geoidheight>53.00</geoidheight><course>64.9</course><type>1</type></trkpt>
      <trkpt lat="40.81263118" lon="-4.56879031"><ele>2135</ele><speed>18.83</speed><time>2016-06-30T14:55:19Z</time><pdop>5.0</pdop><geoidheight>53.00</geoidheight><course>63.6</course><type>1</type></trkpt>
      <trkpt lat="40.81271668" lon="-4.56861117"><ele>2133</ele><speed>17.97</speed><time>2016-06-30T14:55:20Z</time><pdop>4.0</pdop><geoidheight>53.00</geoidheight><course>58.9</course><type>1</type></trkpt>
      <trkpt lat="40.81279703" lon="-4.56843123"><ele>2131</ele><speed>17.09</speed><time>2016-06-30T14:55:21Z</time><pdop>4.0</pdop><geoidheight>53.00</geoidheight><course>60.1</course><type>1</type></trkpt>
      <trkpt lat="40.81286562" lon="-4.56826046"><ele>2131</ele><speed>16.26</speed><time>2016-06-30T14:55:22Z</time><pdop>4.0</pdop><geoidheight>53.00</geoidheight><course>61.4</course><type>1</type></trkpt>
      <trkpt lat="40.81291252" lon="-4.56809299"><ele>2131</ele><speed>15.25</speed><time>2016-06-30T14:55:23Z</time><pdop>4.0</pdop><geoidheight>53.00</geoidheight><course>67.6</course><type>1</type></trkpt>
      <trkpt lat="40.81295639" lon="-4.56795772"><ele>2132</ele><speed>13.75</speed><time>2016-06-30T14:55:24Z</time><pdop>4.0</pdop><geoidheight>53.00</geoidheight><course>70.7</course><type>1</type></trkpt>
      <trkpt lat="40.81298785" lon="-4.56779964"><ele>2132</ele><speed>13.24</speed><time>2016-06-30T14:55:25Z</time><pdop>4.0</pdop><geoidheight>53.00</geoidheight><course>72.4</course><type>1</type></trkpt>
      <trkpt lat="40.81300055" lon="-4.56766715"><ele>2133</ele><speed>11.32</speed><time>2016-06-30T14:55:26Z</time><pdop>4.0</pdop><geoidheight>53.00</geoidheight><course>79.3</course><type>1</type></trkpt>
      <trkpt lat="40.8130067" lon="-4.56753166"><ele>2133</ele><speed>10.94</speed><time>2016-06-30T14:55:27Z</time><pdop>3.0</pdop><geoidheight>53.00</geoidheight><course>80.8</course><type>1</type></trkpt>
      <trkpt lat="40.81302603" lon="-4.56740872"><ele>2133</ele><speed>10.61</speed><time>2016-06-30T14:55:28Z</time><pdop>4.0</pdop><geoidheight>53.00</geoidheight><course>80.4</course><type>1</type></trkpt>
      <trkpt lat="40.81304696" lon="-4.56729061"><ele>2132</ele><speed>10.40</speed><time>2016-06-30T14:55:29Z</time><pdop>3.0</pdop><geoidheight>53.00</geoidheight><course>80.9</course><type>1</type></trkpt>
      <trkpt lat="40.81305118" lon="-4.56716598"><ele>2132</ele><speed>10.45</speed><time>2016-06-30T14:55:30Z</time><pdop>3.0</pdop><geoidheight>53.00</geoidheight><course>83.2</course><type>1</type></trkpt>
      <trkpt lat="40.81306266" lon="-4.56703582"><ele>2131</ele><speed>10.63</speed><time>2016-06-30T14:55:31Z</time><pdop>3.0</pdop><geoidheight>53.00</geoidheight><course>83.4</course><type>1</type></trkpt>
      <trkpt lat="40.81308972" lon="-4.56690675"><ele>2130</ele><speed>11.02</speed><time>2016-06-30T14:55:32Z</time><pdop>3.0</pdop><geoidheight>53.00</geoidheight><course>78.8</course><type>1</type></trkpt>
      <trkpt lat="40.81312975" lon="-4.56679094"><ele>2129</ele><speed>11.10</speed><time>2016-06-30T14:55:33Z</time><pdop>3.0</pdop><geoidheight>53.00</geoidheight><course>70.2</course><type>1</type></trkpt>
      <trkpt lat="40.81317602" lon="-4.56670357"><ele>2127</ele><speed>10.16</speed><time>2016-06-30T14:55:34Z</time><pdop>3.0</pdop><geoidheight>53.00</geoidheight><course>58.3</course><type>1</type></trkpt>
      <trkpt lat="40.81323634" lon="-4.5666194"><ele>2126</ele><speed>9.65</speed><time>2016-06-30T14:55:35Z</time><pdop>3.0</pdop><geoidheight>53.00</geoidheight><course>51.6</course><type>1</type></trkpt>
      <trkpt lat="40.81328079" lon="-4.56652088"><ele>2125</ele><speed>9.86</speed><time>2016-06-30T14:55:36Z</time><pdop>3.0</pdop><geoidheight>53.00</geoidheight><course>55.0</course><type>1</type></trkpt>
      <trkpt lat="40.81332049" lon="-4.56641401"><ele>2123</ele><speed>10.07</speed><time>2016-06-30T14:55:37Z</time><pdop>3.0</pdop><geoidheight>53.00</geoidheight><course>61.9</course><type>1</type></trkpt>
      <trkpt lat="40.81335942" lon="-4.56631269"><ele>2121</ele><speed>9.99</speed><time>2016-06-30T14:55:38Z</time><pdop>3.0</pdop><geoidheight>53.00</geoidheight><course>65.9</course><type>1</type></trkpt>
      <trkpt lat="40.81340463" lon="-4.56619699"><ele>2120</ele><speed>11.02</speed><time>2016-06-30T14:55:39Z</time><pdop>3.0</pdop><geoidheight>53.00</geoidheight><course>63.6</course><type>1</type></trkpt>
      <trkpt lat="40.81345104" lon="-4.56608059"><ele>2118</ele><speed>11.08</speed><time>2016-06-30T14:55:40Z</time><pdop>4.0</pdop><geoidheight>53.00</geoidheight><course>63.8</course><type>1</type></trkpt>
      <trkpt lat="40.81347456" lon="-4.56595965"><ele>2117</ele><speed>11.35</speed><time>2016-06-30T14:55:41Z</time><pdop>5.0</pdop><geoidheight>53.00</geoidheight><course>68.1</course><type>1</type></trkpt>
      <trkpt lat="40.81357633" lon="-4.56581938"><ele>2111</ele><speed>14.38</speed><time>2016-06-30T14:55:42Z</time><pdop>4.0</pdop><geoidheight>53.00</geoidheight><course>56.5</course><type>1</type></trkpt>
      <trkpt lat="40.81364457" lon="-4.56567857"><ele>2107</ele><speed>14.69</speed><time>2016-06-30T14:55:43Z</time><pdop>4.0</pdop><geoidheight>53.00</geoidheight><course>56.5</course><type>1</type></trkpt>
      <trkpt lat="40.81373231" lon="-4.56554449"><ele>2105</ele><speed>14.19</speed><time>2016-06-30T14:55:44Z</time><pdop>4.0</pdop><geoidheight>53.00</geoidheight><course>55.0</course><type>1</type></trkpt>
      <trkpt lat="40.8138019" lon="-4.5654138"><ele>2104</ele><speed>13.72</speed><time>2016-06-30T14:55:45Z</time><pdop>4.0</pdop><geoidheight>53.00</geoidheight><course>55.6</course><type>1</type></trkpt>
      <trkpt lat="40.81386886" lon="-4.56529633"><ele>2102</ele><speed>13.10</speed><time>2016-06-30T14:55:46Z</time><pdop>4.0</pdop><geoidheight>53.00</geoidheight><course>56.3</course><type>1</type></trkpt>
      <trkpt lat="40.81392986" lon="-4.56516537"><ele>2100</ele><speed>12.86</speed><time>2016-06-30T14:55:47Z</time><pdop>3.0</pdop><geoidheight>53.00</geoidheight><course>57.4</course><type>1</type></trkpt>
      <trkpt lat="40.8139889" lon="-4.56503278"><ele>2096</ele><speed>13.18</speed><time>2016-06-30T14:55:48Z</time><pdop>3.0</pdop><geoidheight>53.00</geoidheight><course>58.9</course><type>1</type></trkpt>
      <trkpt lat="40.8140465" lon="-4.56488553"><ele>2095</ele><speed>13.49</speed><time>2016-06-30T14:55:49Z</time><pdop>3.0</pdop><geoidheight>53.00</geoidheight><course>59.8</course><type>1</type></trkpt>
      <trkpt lat="40.81411875" lon="-4.56473598"><ele>2093</ele><speed>14.61</speed><time>2016-06-30T14:55:50Z</time><pdop>3.0</pdop><geoidheight>53.00</geoidheight><course>60.2</course><type>1</type></trkpt>
      <trkpt lat="40.81418519" lon="-4.56458089"><ele>2091</ele><speed>14.66</speed><time>2016-06-30T14:55:51Z</time><pdop>3.0</pdop><geoidheight>53.00</geoidheight><course>61.2</course><type>1</type></trkpt>
      <trkpt lat="40.81424415" lon="-4.56442452"><ele>2089</ele><speed>14.75</speed><time>2016-06-30T14:55:52Z</time><pdop>3.0</pdop><geoidheight>53.00</geoidheight><course>61.9</course><type>1</type></trkpt>
      <trkpt lat="40.81431035" lon="-4.56427235"><ele>2089</ele><speed>14.77</speed><time>2016-06-30T14:55:53Z</time><pdop>3.0</pdop><geoidheight>53.00</geoidheight><course>62.3</course><type>1</type></trkpt>
      <trkpt lat="40.81435766" lon="-4.56411559"><ele>2086</ele><speed>14.27</speed><time>2016-06-30T14:55:54Z</time><pdop>3.0</pdop><geoidheight>53.00</geoidheight><course>67.2</course><type>1</type></trkpt>
      <trkpt lat="40.81439871" lon="-4.56395918"><ele>2082</ele><speed>14.52</speed><time>2016-06-30T14:55:55Z</time><pdop>3.0</pdop><geoidheight>53.00</geoidheight><course>68.4</course><type>1</type></trkpt>
      <trkpt lat="40.81445676" lon="-4.56380366"><ele>2080</ele><speed>14.96</speed><time>2016-06-30T14:55:56Z</time><pdop>3.0</pdop><geoidheight>53.00</geoidheight><course>67.3</course><type>1</type></trkpt>
      <trkpt lat="40.81451873" lon="-4.5636386"><ele>2077</ele><speed>15.37</speed><time>2016-06-30T14:55:57Z</time><pdop>3.0</pdop><geoidheight>53.00</geoidheight><course>64.8</course><type>1</type></trkpt>
      <trkpt lat="40.81457099" lon="-4.5634691"><ele>2076</ele><speed>15.39</speed><time>2016-06-30T14:55:58Z</time><pdop>3.0</pdop><geoidheight>53.00</geoidheight><course>63.9</course><type>1</type></trkpt>
      <trkpt lat="40.81463091" lon="-4.56332754"><ele>2074</ele><speed>14.61</speed><time>2016-06-30T14:55:59Z</time><pdop>3.0</pdop><geoidheight>53.00</geoidheight><course>61.8</course><type>1</type></trkpt>
      <trkpt lat="40.81470302" lon="-4.56318066"><ele>2074</ele><speed>14.29</speed><time>2016-06-30T14:56:00Z</time><pdop>4.0</pdop><geoidheight>53.00</geoidheight><course>61.5</course><type>1</type></trkpt>
      <trkpt lat="40.81472468" lon="-4.56303521"><ele>2072</ele><speed>13.28</speed><time>2016-06-30T14:56:01Z</time><pdop>3.0</pdop><geoidheight>53.00</geoidheight><course>66.8</course><type>1</type></trkpt>
      <trkpt lat="40.81477185" lon="-4.5628862"><ele>2072</ele><speed>13.57</speed><time>2016-06-30T14:56:02Z</time><pdop>3.0</pdop><geoidheight>53.00</geoidheight><course>70.6</course><type>1</type></trkpt>
      <trkpt lat="40.81481456" lon="-4.56275364"><ele>2069</ele><speed>13.57</speed><time>2016-06-30T14:56:03Z</time><pdop>9.0</pdop><geoidheight>53.00</geoidheight><course>72.1</course><type>1</type></trkpt>
      <trkpt lat="40.81491055" lon="-4.56242355"><ele>2068</ele><speed>15.10</speed><time>2016-06-30T14:56:05Z</time><pdop>9.0</pdop><geoidheight>53.00</geoidheight><course>69.3</course><type>1</type></trkpt>
      <trkpt lat="40.81498581" lon="-4.56207611"><ele>2067</ele><speed>14.88</speed><time>2016-06-30T14:56:07Z</time><pdop>10.0</pdop><geoidheight>53.00</geoidheight><course>73.0</course><type>1</type></trkpt>
      <trkpt lat="40.8150439" lon="-4.56176264"><ele>2067</ele><speed>13.22</speed><time>2016-06-30T14:56:09Z</time><pdop>9.0</pdop><geoidheight>53.00</geoidheight><course>73.9</course><type>1</type></trkpt>
      <trkpt lat="40.81509473" lon="-4.56146491"><ele>2068</ele><speed>12.17</speed><time>2016-06-30T14:56:11Z</time><pdop>3.0</pdop><geoidheight>53.00</geoidheight><course>74.5</course><type>1</type></trkpt>
      <trkpt lat="40.81511505" lon="-4.56133748"><ele>2068</ele><speed>11.71</speed><time>2016-06-30T14:56:12Z</time><pdop>3.0</pdop><geoidheight>53.00</geoidheight><course>74.6</course><type>1</type></trkpt>
      <trkpt lat="40.81514071" lon="-4.56120186"><ele>2068</ele><speed>11.47</speed><time>2016-06-30T14:56:13Z</time><pdop>3.0</pdop><geoidheight>53.00</geoidheight><course>75.7</course><type>1</type></trkpt>
      <trkpt lat="40.81515265" lon="-4.56107575"><ele>2069</ele><speed>10.84</speed><time>2016-06-30T14:56:14Z</time><pdop>3.0</pdop><geoidheight>53.00</geoidheight><course>78.9</course><type>1</type></trkpt>
      <trkpt lat="40.81516565" lon="-4.56095379"><ele>2069</ele><speed>10.40</speed><time>2016-06-30T14:56:15Z</time><pdop>3.0</pdop><geoidheight>53.00</geoidheight><course>82.6</course><type>1</type></trkpt>
      <trkpt lat="40.81517232" lon="-4.56082419"><ele>2070</ele><speed>10.34</speed><time>2016-06-30T14:56:16Z</time><pdop>3.0</pdop><geoidheight>53.00</geoidheight><course>85.3</course><type>1</type></trkpt>
      <trkpt lat="40.81516613" lon="-4.56070871"><ele>2071</ele><speed>10.15</speed><time>2016-06-30T14:56:17Z</time><pdop>3.0</pdop><geoidheight>53.00</geoidheight><course>87.6</course><type>1</type></trkpt>
      <trkpt lat="40.81514845" lon="-4.56058604"><ele>2072</ele><speed>9.99</speed><time>2016-06-30T14:56:18Z</time><pdop>3.0</pdop><geoidheight>53.00</geoidheight><course>96.6</course><type>1</type></trkpt>
      <trkpt lat="40.81512149" lon="-4.56044902"><ele>2072</ele><speed>10.69</speed><time>2016-06-30T14:56:19Z</time><pdop>4.0</pdop><geoidheight>53.00</geoidheight><course>101.7</course><type>1</type></trkpt>
      <trkpt lat="40.81504245" lon="-4.56029215"><ele>2072</ele><speed>12.57</speed><time>2016-06-30T14:56:20Z</time><pdop>3.0</pdop><geoidheight>53.00</geoidheight><course>114.9</course><type>1</type></trkpt>
      <trkpt lat="40.81498296" lon="-4.56015768"><ele>2073</ele><speed>12.81</speed><time>2016-06-30T14:56:21Z</time><pdop>3.0</pdop><geoidheight>53.00</geoidheight><course>122.6</course><type>1</type></trkpt>
      <trkpt lat="40.8149028" lon="-4.56005655"><ele>2074</ele><speed>12.58</speed><time>2016-06-30T14:56:22Z</time><pdop>3.0</pdop><geoidheight>53.00</geoidheight><course>133.9</course><type>1</type></trkpt>
      <trkpt lat="40.81480544" lon="-4.55998791"><ele>2074</ele><speed>12.55</speed><time>2016-06-30T14:56:23Z</time><pdop>3.0</pdop><geoidheight>53.00</geoidheight><course>150.2</course><type>1</type></trkpt>
      <trkpt lat="40.81469819" lon="-4.5599528"><ele>2073</ele><speed>12.89</speed><time>2016-06-30T14:56:24Z</time><pdop>3.0</pdop><geoidheight>53.00</geoidheight><course>165.5</course><type>1</type></trkpt>
      <trkpt lat="40.81458053" lon="-4.55995243"><ele>2073</ele><speed>12.98</speed><time>2016-06-30T14:56:25Z</time><pdop>3.0</pdop><geoidheight>53.00</geoidheight><course>177.6</course><type>1</type></trkpt>
      <trkpt lat="40.81447836" lon="-4.55999172"><ele>2074</ele><speed>12.07</speed><time>2016-06-30T14:56:26Z</time><pdop>3.0</pdop><geoidheight>53.00</geoidheight><course>191.1</course><type>1</type></trkpt>
      <trkpt lat="40.81438813" lon="-4.56005571"><ele>2074</ele><speed>11.44</speed><time>2016-06-30T14:56:27Z</time><pdop>3.0</pdop><geoidheight>53.00</geoidheight><course>203.1</course><type>1</type></trkpt>
      <trkpt lat="40.81432122" lon="-4.56013652"><ele>2073</ele><speed>10.62</speed><time>2016-06-30T14:56:28Z</time><pdop>3.0</pdop><geoidheight>53.00</geoidheight><course>213.6</course><type>1</type></trkpt>
      <trkpt lat="40.8142513" lon="-4.56021086"><ele>2073</ele><speed>10.18</speed><time>2016-06-30T14:56:29Z</time><pdop>3.0</pdop><geoidheight>53.00</geoidheight><course>217.7</course><type>1</type></trkpt>
      <trkpt lat="40.8141946" lon="-4.56029268"><ele>2074</ele><speed>9.51</speed><time>2016-06-30T14:56:30Z</time><pdop>3.0</pdop><geoidheight>53.00</geoidheight><course>224.2</course><type>1</type></trkpt>
      <trkpt lat="40.81416146" lon="-4.56037149"><ele>2072</ele><speed>8.54</speed><time>2016-06-30T14:56:31Z</time><pdop>3.0</pdop><geoidheight>53.00</geoidheight><course>234.5</course><type>1</type></trkpt>
      <trkpt lat="40.81414057" lon="-4.56045508"><ele>2072</ele><speed>7.41</speed><time>2016-06-30T14:56:32Z</time><pdop>3.0</pdop><geoidheight>53.00</geoidheight><course>247.5</course><type>1</type></trkpt>
      <trkpt lat="40.81416131" lon="-4.56059582"><ele>2071</ele><speed>6.34</speed><time>2016-06-30T14:56:34Z</time><pdop>3.0</pdop><geoidheight>53.00</geoidheight><course>287.4</course><type>1</type></trkpt>
      <trkpt lat="40.81419433" lon="-4.56065895"><ele>2070</ele><speed>6.51</speed><time>2016-06-30T14:56:35Z</time><pdop>3.0</pdop><geoidheight>53.00</geoidheight><course>300.1</course><type>1</type></trkpt>
      <trkpt lat="40.81424937" lon="-4.56070496"><ele>2069</ele><speed>6.83</speed><time>2016-06-30T14:56:36Z</time><pdop>3.0</pdop><geoidheight>53.00</geoidheight><course>320.7</course><type>1</type></trkpt>
      <trkpt lat="40.81431422" lon="-4.56072744"><ele>2068</ele><speed>7.56</speed><time>2016-06-30T14:56:37Z</time><pdop>3.0</pdop><geoidheight>53.00</geoidheight><course>336.3</course><type>1</type></trkpt>
      <trkpt lat="40.81439298" lon="-4.56073419"><ele>2067</ele><speed>8.44</speed><time>2016-06-30T14:56:38Z</time><pdop>3.0</pdop><geoidheight>53.00</geoidheight><course>350.3</course><type>1</type></trkpt>
      <trkpt lat="40.8144711" lon="-4.56073374"><ele>2068</ele><speed>8.51</speed><time>2016-06-30T14:56:39Z</time><pdop>3.0</pdop><geoidheight>53.00</geoidheight><course>0.1</course><type>1</type></trkpt>
      <trkpt lat="40.81454146" lon="-4.56072023"><ele>2068</ele><speed>8.29</speed><time>2016-06-30T14:56:40Z</time><pdop>3.0</pdop><geoidheight>53.00</geoidheight><course>11.0</course><type>1</type></trkpt>
      <trkpt lat="40.81460398" lon="-4.56067129"><ele>2068</ele><speed>7.83</speed><time>2016-06-30T14:56:41Z</time><pdop>3.0</pdop><geoidheight>53.00</geoidheight><course>27.4</course><type>1</type></trkpt>
      <trkpt lat="40.81465319" lon="-4.56060885"><ele>2067</ele><speed>7.45</speed><time>2016-06-30T14:56:42Z</time><pdop>3.0</pdop><geoidheight>53.00</geoidheight><course>42.3</course><type>1</type></trkpt>
      <trkpt lat="40.81469584" lon="-4.56053714"><ele>2066</ele><speed>7.42</speed><time>2016-06-30T14:56:43Z</time><pdop>3.0</pdop><geoidheight>53.00</geoidheight><course>50.9</course><type>1</type></trkpt>
      <trkpt lat="40.81473846" lon="-4.5604601"><ele>2064</ele><speed>8.07</speed><time>2016-06-30T14:56:44Z</time><pdop>3.0</pdop><geoidheight>53.00</geoidheight><course>56.4</course><type>1</type></trkpt>
      <trkpt lat="40.81477951" lon="-4.5603693"><ele>2063</ele><speed>8.90</speed><time>2016-06-30T14:56:45Z</time><pdop>3.0</pdop><geoidheight>53.00</geoidheight><course>58.9</course><type>1</type></trkpt>
      <trkpt lat="40.81483102" lon="-4.56026929"><ele>2063</ele><speed>9.67</speed><time>2016-06-30T14:56:46Z</time><pdop>5.0</pdop><geoidheight>53.00</geoidheight><course>58.4</course><type>1</type></trkpt>
      <trkpt lat="40.81491266" lon="-4.56014313"><ele>2062</ele><speed>11.72</speed><time>2016-06-30T14:56:47Z</time><pdop>6.0</pdop><geoidheight>53.00</geoidheight><course>54.7</course><type>1</type></trkpt>
      <trkpt lat="40.81498876" lon="-4.56000414"><ele>2065</ele><speed>13.07</speed><time>2016-06-30T14:56:48Z</time><pdop>4.0</pdop><geoidheight>53.00</geoidheight><course>54.8</course><type>1</type></trkpt>
      <trkpt lat="40.81504262" lon="-4.55988305"><ele>2065</ele><speed>12.28</speed><time>2016-06-30T14:56:49Z</time><pdop>5.0</pdop><geoidheight>53.00</geoidheight><course>54.7</course><type>1</type></trkpt>
      <trkpt lat="40.81514532" lon="-4.5596869"><ele>2065</ele><speed>10.47</speed><time>2016-06-30T14:56:51Z</time><pdop>7.0</pdop><geoidheight>53.00</geoidheight><course>54.8</course><type>1</type></trkpt>
      <trkpt lat="40.81519094" lon="-4.55948009"><ele>2063</ele><speed>9.96</speed><time>2016-06-30T14:56:53Z</time><pdop>5.0</pdop><geoidheight>53.00</geoidheight><course>70.1</course><type>1</type></trkpt>
      <trkpt lat="40.81522379" lon="-4.55935891"><ele>2063</ele><speed>10.48</speed><time>2016-06-30T14:56:54Z</time><pdop>4.0</pdop><geoidheight>53.00</geoidheight><course>72.6</course><type>1</type></trkpt>
      <trkpt lat="40.81525464" lon="-4.55923374"><ele>2062</ele><speed>11.00</speed><time>2016-06-30T14:56:55Z</time><pdop>4.0</pdop><geoidheight>53.00</geoidheight><course>72.7</course><type>1</type></trkpt>
      <trkpt lat="40.81528596" lon="-4.55910368"><ele>2061</ele><speed>11.53</speed><time>2016-06-30T14:56:56Z</time><pdop>3.0</pdop><geoidheight>53.00</geoidheight><course>71.9</course><type>1</type></trkpt>
      <trkpt lat="40.81531462" lon="-4.55896231"><ele>2060</ele><speed>12.38</speed><time>2016-06-30T14:56:57Z</time><pdop>4.0</pdop><geoidheight>53.00</geoidheight><course>71.0</course><type>1</type></trkpt>
      <trkpt lat="40.81533936" lon="-4.55882034"><ele>2060</ele><speed>12.39</speed><time>2016-06-30T14:56:58Z</time><pdop>3.0</pdop><geoidheight>53.00</geoidheight><course>71.6</course><type>1</type></trkpt>
      <trkpt lat="40.81537553" lon="-4.55869412"><ele>2060</ele><speed>11.77</speed><time>2016-06-30T14:56:59Z</time><pdop>3.0</pdop><geoidheight>53.00</geoidheight><course>70.3</course><type>1</type></trkpt>
      <trkpt lat="40.81539905" lon="-4.55856671"><ele>2060</ele><speed>11.21</speed><time>2016-06-30T14:57:00Z</time><pdop>3.0</pdop><geoidheight>53.00</geoidheight><course>70.0</course><type>1</type></trkpt>
      <trkpt lat="40.81543841" lon="-4.55844162"><ele>2060</ele><speed>11.02</speed><time>2016-06-30T14:57:01Z</time><pdop>3.0</pdop><geoidheight>53.00</geoidheight><course>70.6</course><type>1</type></trkpt>
      <trkpt lat="40.81546691" lon="-4.55831758"><ele>2060</ele><speed>11.11</speed><time>2016-06-30T14:57:02Z</time><pdop>3.0</pdop><geoidheight>53.00</geoidheight><course>72.8</course><type>1</type></trkpt>
      <trkpt lat="40.8154736" lon="-4.55818387"><ele>2060</ele><speed>11.25</speed><time>2016-06-30T14:57:03Z</time><pdop>3.0</pdop><geoidheight>53.00</geoidheight><course>78.9</course><type>1</type></trkpt>
      <trkpt lat="40.81548854" lon="-4.55805384"><ele>2061</ele><speed>11.08</speed><time>2016-06-30T14:57:04Z</time><pdop>3.0</pdop><geoidheight>53.00</geoidheight><course>81.0</course><type>1</type></trkpt>
      <trkpt lat="40.81549596" lon="-4.55792464"><ele>2061</ele><speed>10.75</speed><time>2016-06-30T14:57:05Z</time><pdop>3.0</pdop><geoidheight>53.00</geoidheight><course>82.0</course><type>1</type></trkpt>
      <trkpt lat="40.81550915" lon="-4.55780322"><ele>2062</ele><speed>10.26</speed><time>2016-06-30T14:57:06Z</time><pdop>3.0</pdop><geoidheight>53.00</geoidheight><course>81.9</course><type>1</type></trkpt>
      <trkpt lat="40.81552762" lon="-4.55768363"><ele>2061</ele><speed>10.33</speed><time>2016-06-30T14:57:07Z</time><pdop>3.0</pdop><geoidheight>53.00</geoidheight><course>81.3</course><type>1</type></trkpt>
      <trkpt lat="40.81554554" lon="-4.55754897"><ele>2060</ele><speed>10.94</speed><time>2016-06-30T14:57:08Z</time><pdop>3.0</pdop><geoidheight>53.00</geoidheight><course>79.8</course><type>1</type></trkpt>
      <trkpt lat="40.81556562" lon="-4.55741194"><ele>2060</ele><speed>11.89</speed><time>2016-06-30T14:57:09Z</time><pdop>3.0</pdop><geoidheight>53.00</geoidheight><course>76.9</course><type>1</type></trkpt>
      <trkpt lat="40.8155999" lon="-4.55726815"><ele>2059</ele><speed>12.55</speed><time>2016-06-30T14:57:10Z</time><pdop>4.0</pdop><geoidheight>53.00</geoidheight><course>74.3</course><type>1</type></trkpt>
      <trkpt lat="40.81563833" lon="-4.5571194"><ele>2059</ele><speed>12.65</speed><time>2016-06-30T14:57:11Z</time><pdop>3.0</pdop><geoidheight>53.00</geoidheight><course>73.9</course><type>1</type></trkpt>
      <trkpt lat="40.81567404" lon="-4.55698566"><ele>2060</ele><speed>12.29</speed><time>2016-06-30T14:57:12Z</time><pdop>3.0</pdop><geoidheight>53.00</geoidheight><course>72.5</course><type>1</type></trkpt>
      <trkpt lat="40.8157088" lon="-4.55685421"><ele>2060</ele><speed>12.16</speed><time>2016-06-30T14:57:13Z</time><pdop>3.0</pdop><geoidheight>53.00</geoidheight><course>69.6</course><type>1</type></trkpt>
      <trkpt lat="40.81574875" lon="-4.55672241"><ele>2062</ele><speed>11.69</speed><time>2016-06-30T14:57:14Z</time><pdop>3.0</pdop><geoidheight>53.00</geoidheight><course>70.6</course><type>1</type></trkpt>
      <trkpt lat="40.81576804" lon="-4.55658816"><ele>2064</ele><speed>11.62</speed><time>2016-06-30T14:57:15Z</time><pdop>3.0</pdop><geoidheight>53.00</geoidheight><course>78.6</course><type>1</type></trkpt>
      <trkpt lat="40.81578008" lon="-4.55645973"><ele>2065</ele><speed>11.05</speed><time>2016-06-30T14:57:16Z</time><pdop>3.0</pdop><geoidheight>53.00</geoidheight><course>85.9</course><type>1</type></trkpt>
      <trkpt lat="40.81578067" lon="-4.55633021"><ele>2066</ele><speed>11.08</speed><time>2016-06-30T14:57:17Z</time><pdop>3.0</pdop><geoidheight>53.00</geoidheight><course>91.1</course><type>1</type></trkpt>
      <trkpt lat="40.81577336" lon="-4.55619075"><ele>2067</ele><speed>11.48</speed><time>2016-06-30T14:57:18Z</time><pdop>3.0</pdop><geoidheight>53.00</geoidheight><course>94.1</course><type>1</type></trkpt>
      <trkpt lat="40.81576197" lon="-4.55605066"><ele>2067</ele><speed>11.68</speed><time>2016-06-30T14:57:19Z</time><pdop>3.0</pdop><geoidheight>53.00</geoidheight><course>96.9</course><type>1</type></trkpt>
      <trkpt lat="40.81568376" lon="-4.55593735"><ele>2068</ele><speed>11.95</speed><time>2016-06-30T14:57:20Z</time><pdop>3.0</pdop><geoidheight>53.00</geoidheight><course>117.2</course><type>1</type></trkpt>
      <trkpt lat="40.81560224" lon="-4.55581996"><ele>2070</ele><speed>13.38</speed><time>2016-06-30T14:57:21Z</time><pdop>3.0</pdop><geoidheight>53.00</geoidheight><course>134.2</course><type>1</type></trkpt>
      <trkpt lat="40.81548863" lon="-4.55575117"><ele>2071</ele><speed>13.82</speed><time>2016-06-30T14:57:22Z</time><pdop>3.0</pdop><geoidheight>53.00</geoidheight><course>153.4</course><type>1</type></trkpt>
      <trkpt lat="40.81536814" lon="-4.55569601"><ele>2071</ele><speed>14.47</speed><time>2016-06-30T14:57:23Z</time><pdop>3.0</pdop><geoidheight>53.00</geoidheight><course>160.7</course><type>1</type></trkpt>
      <trkpt lat="40.81526616" lon="-4.55578132"><ele>2074</ele><speed>12.65</speed><time>2016-06-30T14:57:24Z</time><pdop>3.0</pdop><geoidheight>53.00</geoidheight><course>194.4</course><type>1</type></trkpt>
      <trkpt lat="40.81516741" lon="-4.55585788"><ele>2074</ele><speed>12.44</speed><time>2016-06-30T14:57:25Z</time><pdop>3.0</pdop><geoidheight>53.00</geoidheight><course>204.5</course><type>1</type></trkpt>
      <trkpt lat="40.81510703" lon="-4.55594698"><ele>2076</ele><speed>11.04</speed><time>2016-06-30T14:57:26Z</time><pdop>3.0</pdop><geoidheight>53.00</geoidheight><course>220.6</course><type>1</type></trkpt>
      <trkpt lat="40.81507058" lon="-4.55602665"><ele>2079</ele><speed>9.16</speed><time>2016-06-30T14:57:27Z</time><pdop>3.0</pdop><geoidheight>53.00</geoidheight><course>228.7</course><type>1</type></trkpt>
      <trkpt lat="40.81510545" lon="-4.5561334"><ele>2081</ele><speed>8.03</speed><time>2016-06-30T14:57:28Z</time><pdop>3.0</pdop><geoidheight>53.00</geoidheight><course>265.5</course><type>1</type></trkpt>
      <trkpt lat="40.81512678" lon="-4.55622851"><ele>2081</ele><speed>8.01</speed><time>2016-06-30T14:57:29Z</time><pdop>3.0</pdop><geoidheight>53.00</geoidheight><course>278.6</course><type>1</type></trkpt>
      <trkpt lat="40.8151632" lon="-4.55628132"><ele>2081</ele><speed>6.65</speed><time>2016-06-30T14:57:30Z</time><pdop>3.0</pdop><geoidheight>53.00</geoidheight><course>288.2</course><type>1</type></trkpt>
      <trkpt lat="40.81526117" lon="-4.55617525"><ele>2083</ele><speed>6.42</speed><time>2016-06-30T14:57:31Z</time><pdop>3.0</pdop><geoidheight>53.00</geoidheight><course>16.4</course><type>1</type></trkpt>
      <trkpt lat="40.81531081" lon="-4.55609983"><ele>2083</ele><speed>8.10</speed><time>2016-06-30T14:57:32Z</time><pdop>3.0</pdop><geoidheight>53.00</geoidheight><course>33.8</course><type>1</type></trkpt>
      <trkpt lat="40.81532985" lon="-4.55598662"><ele>2085</ele><speed>10.07</speed><time>2016-06-30T14:57:33Z</time><pdop>3.0</pdop><geoidheight>53.00</geoidheight><course>64.6</course><type>1</type></trkpt>
      <trkpt lat="40.81536898" lon="-4.55586556"><ele>2086</ele><speed>11.05</speed><time>2016-06-30T14:57:34Z</time><pdop>3.0</pdop><geoidheight>53.00</geoidheight><course>73.7</course><type>1</type></trkpt>
      <trkpt lat="40.81538597" lon="-4.55574647"><ele>2086</ele><speed>10.76</speed><time>2016-06-30T14:57:35Z</time><pdop>3.0</pdop><geoidheight>53.00</geoidheight><course>81.2</course><type>1</type></trkpt>
      <trkpt lat="40.81538461" lon="-4.55561414"><ele>2087</ele><speed>11.23</speed><time>2016-06-30T14:57:36Z</time><pdop>3.0</pdop><geoidheight>53.00</geoidheight><course>88.4</course><type>1</type></trkpt>
      <trkpt lat="40.81537623" lon="-4.55545423"><ele>2088</ele><speed>12.62</speed><time>2016-06-30T14:57:37Z</time><pdop>4.0</pdop><geoidheight>53.00</geoidheight><course>93.9</course><type>1</type></trkpt>
      <trkpt lat="40.81530452" lon="-4.55532225"><ele>2088</ele><speed>12.63</speed><time>2016-06-30T14:57:38Z</time><pdop>4.0</pdop><geoidheight>53.00</geoidheight><course>110.7</course><type>1</type></trkpt>
      <trkpt lat="40.81524341" lon="-4.55519554"><ele>2088</ele><speed>12.85</speed><time>2016-06-30T14:57:39Z</time><pdop>5.0</pdop><geoidheight>53.00</geoidheight><course>119.6</course><type>1</type></trkpt>
      <trkpt lat="40.81512591" lon="-4.55514924"><ele>2089</ele><speed>12.69</speed><time>2016-06-30T14:57:40Z</time><pdop>4.0</pdop><geoidheight>53.00</geoidheight><course>145.9</course><type>1</type></trkpt>
      <trkpt lat="40.81502211" lon="-4.55511493"><ele>2090</ele><speed>12.35</speed><time>2016-06-30T14:57:41Z</time><pdop>4.0</pdop><geoidheight>53.00</geoidheight><course>159.6</course><type>1</type></trkpt>
      <trkpt lat="40.8149006" lon="-4.55507583"><ele>2094</ele><speed>12.94</speed><time>2016-06-30T14:57:42Z</time><pdop>3.0</pdop><geoidheight>53.00</geoidheight><course>170.8</course><type>1</type></trkpt>
      <trkpt lat="40.81479988" lon="-4.55506913"><ele>2095</ele><speed>12.21</speed><time>2016-06-30T14:57:43Z</time><pdop>3.0</pdop><geoidheight>53.00</geoidheight><course>179.4</course><type>1</type></trkpt>
      <trkpt lat="40.81470785" lon="-4.55510922"><ele>2097</ele><speed>11.61</speed><time>2016-06-30T14:57:44Z</time><pdop>3.0</pdop><geoidheight>53.00</geoidheight><course>195.5</course><type>1</type></trkpt>
      <trkpt lat="40.81460563" lon="-4.55516238"><ele>2097</ele><speed>11.78</speed><time>2016-06-30T14:57:45Z</time><pdop>3.0</pdop><geoidheight>53.00</geoidheight><course>204.6</course><type>1</type></trkpt>
      <trkpt lat="40.81455059" lon="-4.55526115"><ele>2101</ele><speed>11.70</speed><time>2016-06-30T14:57:46Z</time><pdop>3.0</pdop><geoidheight>53.00</geoidheight><course>230.2</course><type>1</type></trkpt>
      <trkpt lat="40.81452475" lon="-4.55537593"><ele>2102</ele><speed>11.16</speed><time>2016-06-30T14:57:47Z</time><pdop>3.0</pdop><geoidheight>53.00</geoidheight><course>252.2</course><type>1</type></trkpt>
      <trkpt lat="40.81451136" lon="-4.55551212"><ele>2103</ele><speed>11.61</speed><time>2016-06-30T14:57:48Z</time><pdop>3.0</pdop><geoidheight>53.00</geoidheight><course>261.1</course><type>1</type></trkpt>
      <trkpt lat="40.81451396" lon="-4.5556285"><ele>2103</ele><speed>10.73</speed><time>2016-06-30T14:57:49Z</time><pdop>4.0</pdop><geoidheight>53.00</geoidheight><course>265.4</course><type>1</type></trkpt>
      <trkpt lat="40.81459993" lon="-4.55566757"><ele>2103</ele><speed>7.91</speed><time>2016-06-30T14:57:50Z</time><pdop>4.0</pdop><geoidheight>53.00</geoidheight><course>301.5</course><type>1</type></trkpt>
      <trkpt lat="40.81470202" lon="-4.55575069"><ele>2105</ele><speed>7.26</speed><time>2016-06-30T14:57:52Z</time><pdop>6.0</pdop><geoidheight>53.00</geoidheight><course>326.4</course><type>1</type></trkpt>
      <trkpt lat="40.81483032" lon="-4.55567769"><ele>2106</ele><speed>9.55</speed><time>2016-06-30T14:57:53Z</time><pdop>7.0</pdop><geoidheight>53.00</geoidheight><course>4.3</course><type>1</type></trkpt>
      <trkpt lat="40.81486439" lon="-4.5553751"><ele>2108</ele><speed>9.90</speed><time>2016-06-30T14:57:55Z</time><pdop>7.0</pdop><geoidheight>53.00</geoidheight><course>55.1</course><type>1</type></trkpt>
      <trkpt lat="40.81479284" lon="-4.55515868"><ele>2112</ele><speed>12.75</speed><time>2016-06-30T14:57:56Z</time><pdop>5.0</pdop><geoidheight>53.00</geoidheight><course>94.5</course><type>1</type></trkpt>
      <trkpt lat="40.81475531" lon="-4.55499569"><ele>2115</ele><speed>13.09</speed><time>2016-06-30T14:57:57Z</time><pdop>4.0</pdop><geoidheight>53.00</geoidheight><course>110.0</course><type>1</type></trkpt>
      <trkpt lat="40.81468819" lon="-4.55486784"><ele>2119</ele><speed>13.58</speed><time>2016-06-30T14:57:58Z</time><pdop>3.0</pdop><geoidheight>53.00</geoidheight><course>128.8</course><type>1</type></trkpt>
      <trkpt lat="40.81457839" lon="-4.55477589"><ele>2119</ele><speed>14.52</speed><time>2016-06-30T14:57:59Z</time><pdop>3.0</pdop><geoidheight>53.00</geoidheight><course>146.3</course><type>1</type></trkpt>
      <trkpt lat="40.81444191" lon="-4.55471338"><ele>2121</ele><speed>15.66</speed><time>2016-06-30T14:58:00Z</time><pdop>3.0</pdop><geoidheight>53.00</geoidheight><course>163.1</course><type>1</type></trkpt>
      <trkpt lat="40.8143037" lon="-4.55470819"><ele>2124</ele><speed>15.72</speed><time>2016-06-30T14:58:01Z</time><pdop>3.0</pdop><geoidheight>53.00</geoidheight><course>178.4</course><type>1</type></trkpt>
      <trkpt lat="40.81416073" lon="-4.55470347"><ele>2126</ele><speed>15.84</speed><time>2016-06-30T14:58:02Z</time><pdop>3.0</pdop><geoidheight>53.00</geoidheight><course>179.3</course><type>1</type></trkpt>
      <trkpt lat="40.81402973" lon="-4.55472946"><ele>2127</ele><speed>15.23</speed><time>2016-06-30T14:58:03Z</time><pdop>3.0</pdop><geoidheight>53.00</geoidheight><course>182.8</course><type>1</type></trkpt>
      <trkpt lat="40.81393212" lon="-4.55479241"><ele>2127</ele><speed>13.74</speed><time>2016-06-30T14:58:04Z</time><pdop>4.0</pdop><geoidheight>53.00</geoidheight><course>191.2</course><type>1</type></trkpt>
      <trkpt lat="40.81392343" lon="-4.55501055"><ele>2132</ele><speed>9.50</speed><time>2016-06-30T14:58:06Z</time><pdop>4.0</pdop><geoidheight>53.00</geoidheight><course>235.5</course><type>1</type></trkpt>
      <trkpt lat="40.81392288" lon="-4.5551437"><ele>2131</ele><speed>9.29</speed><time>2016-06-30T14:58:07Z</time><pdop>5.0</pdop><geoidheight>53.00</geoidheight><course>248.2</course><type>1</type></trkpt>
      <trkpt lat="40.81387516" lon="-4.55531054"><ele>2133</ele><speed>7.66</speed><time>2016-06-30T14:58:09Z</time><pdop>7.0</pdop><geoidheight>53.00</geoidheight><course>245.8</course><type>1</type></trkpt>
      <trkpt lat="40.81401744" lon="-4.55524361"><ele>2132</ele><speed>1.67</speed><time>2016-06-30T14:58:11Z</time><pdop>7.0</pdop><geoidheight>53.00</geoidheight><course>328.1</course><type>1</type></trkpt>
      <trkpt lat="40.81410777" lon="-4.55508457"><ele>2133</ele><speed>6.52</speed><time>2016-06-30T14:58:12Z</time><pdop>7.0</pdop><geoidheight>53.00</geoidheight><course>53.2</course><type>1</type></trkpt>
      <trkpt lat="40.81419265" lon="-4.55494553"><ele>2135</ele><speed>9.09</speed><time>2016-06-30T14:58:13Z</time><pdop>5.0</pdop><geoidheight>53.00</geoidheight><course>59.5</course><type>1</type></trkpt>
      <trkpt lat="40.81421783" lon="-4.55482265"><ele>2136</ele><speed>9.43</speed><time>2016-06-30T14:58:14Z</time><pdop>5.0</pdop><geoidheight>53.00</geoidheight><course>64.6</course><type>1</type></trkpt>
      <trkpt lat="40.81410937" lon="-4.55455025"><ele>2137</ele><speed>10.52</speed><time>2016-06-30T14:58:16Z</time><pdop>6.0</pdop><geoidheight>53.00</geoidheight><course>110.8</course><type>1</type></trkpt>
      <trkpt lat="40.81405352" lon="-4.55441589"><ele>2140</ele><speed>11.40</speed><time>2016-06-30T14:58:17Z</time><pdop>6.0</pdop><geoidheight>53.00</geoidheight><course>121.1</course><type>1</type></trkpt>
      <trkpt lat="40.8139007" lon="-4.5543256"><ele>2141</ele><speed>13.89</speed><time>2016-06-30T14:58:18Z</time><pdop>4.0</pdop><geoidheight>53.00</geoidheight><course>146.7</course><type>1</type></trkpt>
      <trkpt lat="40.81378796" lon="-4.55424382"><ele>2142</ele><speed>14.29</speed><time>2016-06-30T14:58:19Z</time><pdop>4.0</pdop><geoidheight>53.00</geoidheight><course>159.4</course><type>1</type></trkpt>
      <trkpt lat="40.81366729" lon="-4.55421032"><ele>2146</ele><speed>13.92</speed><time>2016-06-30T14:58:20Z</time><pdop>3.0</pdop><geoidheight>53.00</geoidheight><course>170.5</course><type>1</type></trkpt>
      <trkpt lat="40.81353656" lon="-4.55420236"><ele>2149</ele><speed>13.95</speed><time>2016-06-30T14:58:21Z</time><pdop>3.0</pdop><geoidheight>53.00</geoidheight><course>179.9</course><type>1</type></trkpt>
      <trkpt lat="40.81343361" lon="-4.55422822"><ele>2152</ele><speed>12.63</speed><time>2016-06-30T14:58:22Z</time><pdop>3.0</pdop><geoidheight>53.00</geoidheight><course>188.9</course><type>1</type></trkpt>
      <trkpt lat="40.81334872" lon="-4.55427474"><ele>2153</ele><speed>11.21</speed><time>2016-06-30T14:58:23Z</time><pdop>3.0</pdop><geoidheight>53.00</geoidheight><course>204.4</course><type>1</type></trkpt>
      <trkpt lat="40.81327871" lon="-4.55434727"><ele>2155</ele><speed>10.31</speed><time>2016-06-30T14:58:24Z</time><pdop>3.0</pdop><geoidheight>53.00</geoidheight><course>221.1</course><type>1</type></trkpt>
      <trkpt lat="40.81321933" lon="-4.55442417"><ele>2156</ele><speed>9.78</speed><time>2016-06-30T14:58:25Z</time><pdop>3.0</pdop><geoidheight>53.00</geoidheight><course>231.1</course><type>1</type></trkpt>
      <trkpt lat="40.8131779" lon="-4.5545124"><ele>2157</ele><speed>9.80</speed><time>2016-06-30T14:58:26Z</time><pdop>4.0</pdop><geoidheight>53.00</geoidheight><course>237.1</course><type>1</type></trkpt>
      <trkpt lat="40.81313414" lon="-4.55468647"><ele>2159</ele><speed>8.40</speed><time>2016-06-30T14:58:28Z</time><pdop>7.0</pdop><geoidheight>53.00</geoidheight><course>246.5</course><type>1</type></trkpt>
      <trkpt lat="40.81337065" lon="-4.55464364"><ele>2159</ele><speed>4.92</speed><time>2016-06-30T14:58:31Z</time><pdop>7.0</pdop><geoidheight>53.00</geoidheight><course>4.1</course><type>1</type></trkpt>
      <trkpt lat="40.81344162" lon="-4.55450575"><ele>2160</ele><speed>8.48</speed><time>2016-06-30T14:58:32Z</time><pdop>5.0</pdop><geoidheight>53.00</geoidheight><course>49.2</course><type>1</type></trkpt>
      <trkpt lat="40.81346525" lon="-4.55438133"><ele>2163</ele><speed>10.20</speed><time>2016-06-30T14:58:33Z</time><pdop>4.0</pdop><geoidheight>53.00</geoidheight><course>74.1</course><type>1</type></trkpt>
      <trkpt lat="40.81348953" lon="-4.55425307"><ele>2164</ele><speed>11.35</speed><time>2016-06-30T14:58:34Z</time><pdop>4.0</pdop><geoidheight>53.00</geoidheight><course>86.7</course><type>1</type></trkpt>
      <trkpt lat="40.81348194" lon="-4.55413476"><ele>2166</ele><speed>11.17</speed><time>2016-06-30T14:58:35Z</time><pdop>4.0</pdop><geoidheight>53.00</geoidheight><course>97.8</course><type>1</type></trkpt>
      <trkpt lat="40.8134644" lon="-4.55402195"><ele>2166</ele><speed>11.11</speed><time>2016-06-30T14:58:36Z</time><pdop>4.0</pdop><geoidheight>53.00</geoidheight><course>101.8</course><type>1</type></trkpt>
      <trkpt lat="40.81341441" lon="-4.55391332"><ele>2166</ele><speed>11.53</speed><time>2016-06-30T14:58:37Z</time><pdop>3.0</pdop><geoidheight>53.00</geoidheight><course>119.3</course><type>1</type></trkpt>
      <trkpt lat="40.81335973" lon="-4.55379502"><ele>2165</ele><speed>12.64</speed><time>2016-06-30T14:58:38Z</time><pdop>3.0</pdop><geoidheight>53.00</geoidheight><course>128.5</course><type>1</type></trkpt>
      <trkpt lat="40.81327746" lon="-4.55368015"><ele>2164</ele><speed>13.82</speed><time>2016-06-30T14:58:39Z</time><pdop>3.0</pdop><geoidheight>53.00</geoidheight><course>134.0</course><type>1</type></trkpt>
      <trkpt lat="40.81318865" lon="-4.55355223"><ele>2165</ele><speed>14.92</speed><time>2016-06-30T14:58:40Z</time><pdop>3.0</pdop><geoidheight>53.00</geoidheight><course>136.8</course><type>1</type></trkpt>
      <trkpt lat="40.81308255" lon="-4.55343104"><ele>2166</ele><speed>15.75</speed><time>2016-06-30T14:58:41Z</time><pdop>3.0</pdop><geoidheight>53.00</geoidheight><course>138.7</course><type>1</type></trkpt>
      <trkpt lat="40.8129814" lon="-4.55333266"><ele>2166</ele><speed>15.54</speed><time>2016-06-30T14:58:42Z</time><pdop>3.0</pdop><geoidheight>53.00</geoidheight><course>140.4</course><type>1</type></trkpt>
      <trkpt lat="40.81288329" lon="-4.55322844"><ele>2168</ele><speed>15.20</speed><time>2016-06-30T14:58:43Z</time><pdop>3.0</pdop><geoidheight>53.00</geoidheight><course>140.5</course><type>1</type></trkpt>
      <trkpt lat="40.8127885" lon="-4.55310799"><ele>2170</ele><speed>15.13</speed><time>2016-06-30T14:58:44Z</time><pdop>3.0</pdop><geoidheight>53.00</geoidheight><course>137.3</course><type>1</type></trkpt>
      <trkpt lat="40.81270182" lon="-4.55300386"><ele>2172</ele><speed>13.89</speed><time>2016-06-30T14:58:45Z</time><pdop>3.0</pdop><geoidheight>53.00</geoidheight><course>137.1</course><type>1</type></trkpt>
      <trkpt lat="40.81261237" lon="-4.55289892"><ele>2172</ele><speed>13.29</speed><time>2016-06-30T14:58:46Z</time><pdop>3.0</pdop><geoidheight>53.00</geoidheight><course>137.6</course><type>1</type></trkpt>
      <trkpt lat="40.8125295" lon="-4.5528052"><ele>2173</ele><speed>12.00</speed><time>2016-06-30T14:58:47Z</time><pdop>3.0</pdop><geoidheight>53.00</geoidheight><course>142.6</course><type>1</type></trkpt>
      <trkpt lat="40.8124135" lon="-4.55276224"><ele>2176</ele><speed>12.46</speed><time>2016-06-30T14:58:48Z</time><pdop>3.0</pdop><geoidheight>53.00</geoidheight><course>156.5</course><type>1</type></trkpt>
      <trkpt lat="40.81231205" lon="-4.55272857"><ele>2179</ele><speed>12.08</speed><time>2016-06-30T14:58:49Z</time><pdop>3.0</pdop><geoidheight>53.00</geoidheight><course>165.6</course><type>1</type></trkpt>
      <trkpt lat="40.81221885" lon="-4.55270981"><ele>2182</ele><speed>10.62</speed><time>2016-06-30T14:58:50Z</time><pdop>3.0</pdop><geoidheight>53.00</geoidheight><course>171.7</course><type>1</type></trkpt>
      <trkpt lat="40.81213813" lon="-4.55272882"><ele>2183</ele><speed>9.94</speed><time>2016-06-30T14:58:51Z</time><pdop>3.0</pdop><geoidheight>53.00</geoidheight><course>186.1</course><type>1</type></trkpt>
      <trkpt lat="40.81204206" lon="-4.55277955"><ele>2183</ele><speed>10.99</speed><time>2016-06-30T14:58:52Z</time><pdop>3.0</pdop><geoidheight>53.00</geoidheight><course>204.6</course><type>1</type></trkpt>
      <trkpt lat="40.8119528" lon="-4.55285107"><ele>2183</ele><speed>11.56</speed><time>2016-06-30T14:58:53Z</time><pdop>3.0</pdop><geoidheight>53.00</geoidheight><course>208.8</course><type>1</type></trkpt>
      <trkpt lat="40.81189478" lon="-4.55293546"><ele>2182</ele><speed>10.31</speed><time>2016-06-30T14:58:54Z</time><pdop>4.0</pdop><geoidheight>53.00</geoidheight><course>216.4</course><type>1</type></trkpt>
      <trkpt lat="40.8118963" lon="-4.55309303"><ele>2182</ele><speed>10.44</speed><time>2016-06-30T14:58:55Z</time><pdop>4.0</pdop><geoidheight>53.00</geoidheight><course>249.2</course><type>1</type></trkpt>
      <trkpt lat="40.81190601" lon="-4.55329702"><ele>2183</ele><speed>8.54</speed><time>2016-06-30T14:58:57Z</time><pdop>5.0</pdop><geoidheight>53.00</geoidheight><course>266.6</course><type>1</type></trkpt>
      <trkpt lat="40.81199689" lon="-4.5533986"><ele>2183</ele><speed>6.35</speed><time>2016-06-30T14:58:59Z</time><pdop>7.0</pdop><geoidheight>53.00</geoidheight><course>288.7</course><type>1</type></trkpt>
      <trkpt lat="40.81223749" lon="-4.55325371"><ele>2184</ele><speed>9.57</speed><time>2016-06-30T14:59:01Z</time><pdop>6.0</pdop><geoidheight>53.00</geoidheight><course>17.1</course><type>1</type></trkpt>
      <trkpt lat="40.81228227" lon="-4.55311479"><ele>2185</ele><speed>9.53</speed><time>2016-06-30T14:59:02Z</time><pdop>6.0</pdop><geoidheight>53.00</geoidheight><course>40.8</course><type>1</type></trkpt>
      <trkpt lat="40.81228446" lon="-4.5529606"><ele>2185</ele><speed>9.19</speed><time>2016-06-30T14:59:03Z</time><pdop>6.0</pdop><geoidheight>53.00</geoidheight><course>63.1</course><type>1</type></trkpt>
      <trkpt lat="40.81219978" lon="-4.55275358"><ele>2186</ele><speed>11.49</speed><time>2016-06-30T14:59:04Z</time><pdop>4.0</pdop><geoidheight>53.00</geoidheight><course>95.8</course><type>1</type></trkpt>
      <trkpt lat="40.8121853" lon="-4.55260883"><ele>2188</ele><speed>11.99</speed><time>2016-06-30T14:59:05Z</time><pdop>4.0</pdop><geoidheight>53.00</geoidheight><course>99.9</course><type>1</type></trkpt>
      <trkpt lat="40.81216576" lon="-4.55246595"><ele>2188</ele><speed>12.33</speed><time>2016-06-30T14:59:06Z</time><pdop>4.0</pdop><geoidheight>53.00</geoidheight><course>102.0</course><type>1</type></trkpt>
      <trkpt lat="40.81214557" lon="-4.55231572"><ele>2189</ele><speed>12.39</speed><time>2016-06-30T14:59:07Z</time><pdop>4.0</pdop><geoidheight>53.00</geoidheight><course>104.1</course><type>1</type></trkpt>
      <trkpt lat="40.81210354" lon="-4.55216941"><ele>2191</ele><speed>12.59</speed><time>2016-06-30T14:59:08Z</time><pdop>3.0</pdop><geoidheight>53.00</geoidheight><course>111.4</course><type>1</type></trkpt>
      <trkpt lat="40.81204809" lon="-4.55204144"><ele>2192</ele><speed>12.95</speed><time>2016-06-30T14:59:09Z</time><pdop>3.0</pdop><geoidheight>53.00</geoidheight><course>122.4</course><type>1</type></trkpt>
      <trkpt lat="40.81197529" lon="-4.55192933"><ele>2192</ele><speed>13.67</speed><time>2016-06-30T14:59:10Z</time><pdop>3.0</pdop><geoidheight>53.00</geoidheight><course>132.6</course><type>1</type></trkpt>
      <trkpt lat="40.81188425" lon="-4.55182575"><ele>2192</ele><speed>13.70</speed><time>2016-06-30T14:59:11Z</time><pdop>3.0</pdop><geoidheight>53.00</geoidheight><course>136.1</course><type>1</type></trkpt>
      <trkpt lat="40.81180318" lon="-4.55173816"><ele>2194</ele><speed>13.44</speed><time>2016-06-30T14:59:12Z</time><pdop>3.0</pdop><geoidheight>53.00</geoidheight><course>140.7</course><type>1</type></trkpt>
      <trkpt lat="40.81170466" lon="-4.55165964"><ele>2195</ele><speed>12.52</speed><time>2016-06-30T14:59:13Z</time><pdop>3.0</pdop><geoidheight>53.00</geoidheight><course>147.8</course><type>1</type></trkpt>
      <trkpt lat="40.81160564" lon="-4.55161569"><ele>2197</ele><speed>11.28</speed><time>2016-06-30T14:59:14Z</time><pdop>3.0</pdop><geoidheight>53.00</geoidheight><course>160.0</course><type>1</type></trkpt>
      <trkpt lat="40.81151351" lon="-4.55160799"><ele>2197</ele><speed>10.71</speed><time>2016-06-30T14:59:15Z</time><pdop>3.0</pdop><geoidheight>53.00</geoidheight><course>176.4</course><type>1</type></trkpt>
      <trkpt lat="40.81142195" lon="-4.55165296"><ele>2196</ele><speed>10.95</speed><time>2016-06-30T14:59:16Z</time><pdop>3.0</pdop><geoidheight>53.00</geoidheight><course>198.5</course><type>1</type></trkpt>
      <trkpt lat="40.81134884" lon="-4.55174672"><ele>2195</ele><speed>11.08</speed><time>2016-06-30T14:59:17Z</time><pdop>3.0</pdop><geoidheight>53.00</geoidheight><course>219.2</course><type>1</type></trkpt>
      <trkpt lat="40.81130711" lon="-4.55186841"><ele>2195</ele><speed>11.24</speed><time>2016-06-30T14:59:18Z</time><pdop>3.0</pdop><geoidheight>53.00</geoidheight><course>240.7</course><type>1</type></trkpt>
      <trkpt lat="40.81128843" lon="-4.5519859"><ele>2195</ele><speed>10.76</speed><time>2016-06-30T14:59:19Z</time><pdop>3.0</pdop><geoidheight>53.00</geoidheight><course>256.7</course><type>1</type></trkpt>
      <trkpt lat="40.81130789" lon="-4.55209038"><ele>2196</ele><speed>9.25</speed><time>2016-06-30T14:59:20Z</time><pdop>3.0</pdop><geoidheight>53.00</geoidheight><course>277.6</course><type>1</type></trkpt>
      <trkpt lat="40.81134549" lon="-4.55216412"><ele>2196</ele><speed>8.12</speed><time>2016-06-30T14:59:21Z</time><pdop>3.0</pdop><geoidheight>53.00</geoidheight><course>301.9</course><type>1</type></trkpt>
      <trkpt lat="40.81138904" lon="-4.55222813"><ele>2196</ele><speed>7.11</speed><time>2016-06-30T14:59:22Z</time><pdop>3.0</pdop><geoidheight>53.00</geoidheight><course>310.2</course><type>1</type></trkpt>
      <trkpt lat="40.81147393" lon="-4.55221405"><ele>2195</ele><speed>7.10</speed><time>2016-06-30T14:59:23Z</time><pdop>4.0</pdop><geoidheight>53.00</geoidheight><course>347.7</course><type>1</type></trkpt>
      <trkpt lat="40.81156271" lon="-4.55213134"><ele>2195</ele><speed>9.47</speed><time>2016-06-30T14:59:24Z</time><pdop>3.0</pdop><geoidheight>53.00</geoidheight><course>24.7</course><type>1</type></trkpt>
      <trkpt lat="40.81162039" lon="-4.55204803"><ele>2196</ele><speed>9.74</speed><time>2016-06-30T14:59:25Z</time><pdop>3.0</pdop><geoidheight>53.00</geoidheight><course>44.8</course><type>1</type></trkpt>
      <trkpt lat="40.81166785" lon="-4.55194599"><ele>2198</ele><speed>9.66</speed><time>2016-06-30T14:59:26Z</time><pdop>3.0</pdop><geoidheight>53.00</geoidheight><course>58.7</course><type>1</type></trkpt>
      <trkpt lat="40.81170689" lon="-4.55183463"><ele>2199</ele><speed>9.96</speed><time>2016-06-30T14:59:27Z</time><pdop>3.0</pdop><geoidheight>53.00</geoidheight><course>66.6</course><type>1</type></trkpt>
      <trkpt lat="40.81172667" lon="-4.55172231"><ele>2199</ele><speed>9.95</speed><time>2016-06-30T14:59:28Z</time><pdop>3.0</pdop><geoidheight>53.00</geoidheight><course>74.8</course><type>1</type></trkpt>
      <trkpt lat="40.8117431" lon="-4.55158661"><ele>2199</ele><speed>10.69</speed><time>2016-06-30T14:59:29Z</time><pdop>3.0</pdop><geoidheight>53.00</geoidheight><course>80.8</course><type>1</type></trkpt>
      <trkpt lat="40.81173516" lon="-4.55145092"><ele>2200</ele><speed>11.01</speed><time>2016-06-30T14:59:30Z</time><pdop>3.0</pdop><geoidheight>53.00</geoidheight><course>86.7</course><type>1</type></trkpt>
      <trkpt lat="40.81173248" lon="-4.55132446"><ele>2200</ele><speed>10.81</speed><time>2016-06-30T14:59:31Z</time><pdop>3.0</pdop><geoidheight>53.00</geoidheight><course>91.0</course><type>1</type></trkpt>
      <trkpt lat="40.81173524" lon="-4.55119997"><ele>2201</ele><speed>10.79</speed><time>2016-06-30T14:59:32Z</time><pdop>3.0</pdop><geoidheight>53.00</geoidheight><course>89.7</course><type>1</type></trkpt>
      <trkpt lat="40.81174554" lon="-4.55106674"><ele>2201</ele><speed>11.09</speed><time>2016-06-30T14:59:33Z</time><pdop>3.0</pdop><geoidheight>53.00</geoidheight><course>86.1</course><type>1</type></trkpt>
      <trkpt lat="40.8117706" lon="-4.55093166"><ele>2202</ele><speed>11.38</speed><time>2016-06-30T14:59:34Z</time><pdop>3.0</pdop><geoidheight>53.00</geoidheight><course>80.5</course><type>1</type></trkpt>
      <trkpt lat="40.81180252" lon="-4.55081245"><ele>2203</ele><speed>10.44</speed><time>2016-06-30T14:59:35Z</time><pdop>4.0</pdop><geoidheight>53.00</geoidheight><course>73.4</course><type>1</type></trkpt>
      <trkpt lat="40.81184677" lon="-4.55070735"><ele>2204</ele><speed>9.96</speed><time>2016-06-30T14:59:36Z</time><pdop>4.0</pdop><geoidheight>53.00</geoidheight><course>69.2</course><type>1</type></trkpt>
      <trkpt lat="40.81197657" lon="-4.55058553"><ele>2206</ele><speed>8.00</speed><time>2016-06-30T14:59:38Z</time><pdop>5.0</pdop><geoidheight>53.00</geoidheight><course>46.8</course><type>1</type></trkpt>
      <trkpt lat="40.81217967" lon="-4.55063727"><ele>2206</ele><speed>8.45</speed><time>2016-06-30T14:59:40Z</time><pdop>8.0</pdop><geoidheight>53.00</geoidheight><course>1.0</course><type>1</type></trkpt>
      <trkpt lat="40.81227212" lon="-4.55086728"><ele>2206</ele><speed>8.19</speed><time>2016-06-30T14:59:42Z</time><pdop>8.0</pdop><geoidheight>53.00</geoidheight><course>319.0</course><type>1</type></trkpt>
      <trkpt lat="40.81214723" lon="-4.55105288"><ele>2208</ele><speed>5.07</speed><time>2016-06-30T14:59:44Z</time><pdop>9.0</pdop><geoidheight>53.00</geoidheight><course>267.9</course><type>1</type></trkpt>
      <trkpt lat="40.81196908" lon="-4.55123561"><ele>2210</ele><speed>10.25</speed><time>2016-06-30T14:59:45Z</time><pdop>8.0</pdop><geoidheight>53.00</geoidheight><course>232.6</course><type>1</type></trkpt>
      <trkpt lat="40.81170312" lon="-4.55122663"><ele>2211</ele><speed>10.10</speed><time>2016-06-30T14:59:47Z</time><pdop>9.0</pdop><geoidheight>53.00</geoidheight><course>195.6</course><type>1</type></trkpt>
      <trkpt lat="40.81147899" lon="-4.55113106"><ele>2211</ele><speed>9.32</speed><time>2016-06-30T14:59:49Z</time><pdop>8.0</pdop><geoidheight>53.00</geoidheight><course>172.7</course><type>1</type></trkpt>
      <trkpt lat="40.8113478" lon="-4.550921"><ele>2212</ele><speed>8.41</speed><time>2016-06-30T14:59:51Z</time><pdop>13.0</pdop><geoidheight>53.00</geoidheight><course>146.7</course><type>1</type></trkpt>
      <trkpt lat="40.81131441" lon="-4.55052721"><ele>2215</ele><speed>9.81</speed><time>2016-06-30T14:59:53Z</time><pdop>10.0</pdop><geoidheight>53.00</geoidheight><course>107.7</course><type>1</type></trkpt>
      <trkpt lat="40.81129726" lon="-4.55013081"><ele>2220</ele><speed>8.65</speed><time>2016-06-30T14:59:56Z</time><pdop>7.0</pdop><geoidheight>53.00</geoidheight><course>95.3</course><type>1</type></trkpt>
      <trkpt lat="40.8112877" lon="-4.54984362"><ele>2222</ele><speed>9.80</speed><time>2016-06-30T14:59:58Z</time><pdop>8.0</pdop><geoidheight>53.00</geoidheight><course>91.9</course><type>1</type></trkpt>
      <trkpt lat="40.81144975" lon="-4.54967462"><ele>2225</ele><speed>8.04</speed><time>2016-06-30T15:00:00Z</time><pdop>7.0</pdop><geoidheight>53.00</geoidheight><course>40.4</course><type>1</type></trkpt>
      <trkpt lat="40.81162255" lon="-4.54957312"><ele>2229</ele><speed>8.30</speed><time>2016-06-30T15:00:02Z</time><pdop>6.0</pdop><geoidheight>53.00</geoidheight><course>14.7</course><type>1</type></trkpt>
      <trkpt lat="40.81178751" lon="-4.54948997"><ele>2231</ele><speed>8.45</speed><time>2016-06-30T15:00:04Z</time><pdop>5.0</pdop><geoidheight>53.00</geoidheight><course>10.7</course><type>1</type></trkpt>
      <trkpt lat="40.81195117" lon="-4.54944839"><ele>2230</ele><speed>8.55</speed><time>2016-06-30T15:00:06Z</time><pdop>5.0</pdop><geoidheight>53.00</geoidheight><course>7.8</course><type>1</type></trkpt>
      <trkpt lat="40.81203156" lon="-4.54943686"><ele>2230</ele><speed>9.78</speed><time>2016-06-30T15:00:07Z</time><pdop>4.0</pdop><geoidheight>53.00</geoidheight><course>2.7</course><type>1</type></trkpt>
      <trkpt lat="40.81212952" lon="-4.54943362"><ele>2231</ele><speed>10.10</speed><time>2016-06-30T15:00:08Z</time><pdop>4.0</pdop><geoidheight>53.00</geoidheight><course>5.0</course><type>1</type></trkpt>
      <trkpt lat="40.81222051" lon="-4.54940579"><ele>2230</ele><speed>9.53</speed><time>2016-06-30T15:00:09Z</time><pdop>4.0</pdop><geoidheight>53.00</geoidheight><course>9.9</course><type>1</type></trkpt>
      <trkpt lat="40.81230708" lon="-4.54938761"><ele>2230</ele><speed>9.34</speed><time>2016-06-30T15:00:10Z</time><pdop>5.0</pdop><geoidheight>53.00</geoidheight><course>12.3</course><type>1</type></trkpt>
      <trkpt lat="40.81247698" lon="-4.54932671"><ele>2231</ele><speed>10.36</speed><time>2016-06-30T15:00:12Z</time><pdop>4.0</pdop><geoidheight>53.00</geoidheight><course>20.6</course><type>1</type></trkpt>
      <trkpt lat="40.81256082" lon="-4.5492691"><ele>2231</ele><speed>10.71</speed><time>2016-06-30T15:00:13Z</time><pdop>5.0</pdop><geoidheight>53.00</geoidheight><course>24.4</course><type>1</type></trkpt>
      <trkpt lat="40.81265145" lon="-4.54917911"><ele>2233</ele><speed>12.19</speed><time>2016-06-30T15:00:14Z</time><pdop>6.0</pdop><geoidheight>53.00</geoidheight><course>32.5</course><type>1</type></trkpt>
      <trkpt lat="40.81280407" lon="-4.54900603"><ele>2236</ele><speed>10.99</speed><time>2016-06-30T15:00:16Z</time><pdop>10.0</pdop><geoidheight>53.00</geoidheight><course>43.1</course><type>1</type></trkpt>
      <trkpt lat="40.81294232" lon="-4.54883225"><ele>2237</ele><speed>9.54</speed><time>2016-06-30T15:00:18Z</time><pdop>9.0</pdop><geoidheight>53.00</geoidheight><course>52.2</course><type>1</type></trkpt>
      <trkpt lat="40.81303145" lon="-4.54865219"><ele>2239</ele><speed>8.97</speed><time>2016-06-30T15:00:20Z</time><pdop>9.0</pdop><geoidheight>53.00</geoidheight><course>54.2</course><type>1</type></trkpt>
      <trkpt lat="40.81309425" lon="-4.54844219"><ele>2243</ele><speed>9.63</speed><time>2016-06-30T15:00:22Z</time><pdop>9.0</pdop><geoidheight>53.00</geoidheight><course>70.5</course><type>1</type></trkpt>
      <trkpt lat="40.81313362" lon="-4.5481986"><ele>2246</ele><speed>10.16</speed><time>2016-06-30T15:00:24Z</time><pdop>9.0</pdop><geoidheight>53.00</geoidheight><course>82.7</course><type>1</type></trkpt>
      <trkpt lat="40.81311433" lon="-4.54796426"><ele>2250</ele><speed>9.73</speed><time>2016-06-30T15:00:26Z</time><pdop>9.0</pdop><geoidheight>53.00</geoidheight><course>100.7</course><type>1</type></trkpt>
      <trkpt lat="40.81300104" lon="-4.54775727"><ele>2251</ele><speed>11.39</speed><time>2016-06-30T15:00:28Z</time><pdop>3.0</pdop><geoidheight>53.00</geoidheight><course>132.8</course><type>1</type></trkpt>
      <trkpt lat="40.81291875" lon="-4.54768187"><ele>2251</ele><speed>11.81</speed><time>2016-06-30T15:00:29Z</time><pdop>3.0</pdop><geoidheight>53.00</geoidheight><course>146.0</course><type>1</type></trkpt>
      <trkpt lat="40.81280844" lon="-4.54765186"><ele>2252</ele><speed>12.35</speed><time>2016-06-30T15:00:30Z</time><pdop>3.0</pdop><geoidheight>53.00</geoidheight><course>163.7</course><type>1</type></trkpt>
      <trkpt lat="40.8126971" lon="-4.54765161"><ele>2253</ele><speed>12.14</speed><time>2016-06-30T15:00:31Z</time><pdop>3.0</pdop><geoidheight>53.00</geoidheight><course>178.9</course><type>1</type></trkpt>
      <trkpt lat="40.81260317" lon="-4.54769773"><ele>2253</ele><speed>11.37</speed><time>2016-06-30T15:00:32Z</time><pdop>3.0</pdop><geoidheight>53.00</geoidheight><course>196.1</course><type>1</type></trkpt>
      <trkpt lat="40.81253543" lon="-4.54778491"><ele>2254</ele><speed>10.90</speed><time>2016-06-30T15:00:33Z</time><pdop>3.0</pdop><geoidheight>53.00</geoidheight><course>214.5</course><type>1</type></trkpt>
      <trkpt lat="40.8124854" lon="-4.54788175"><ele>2255</ele><speed>10.38</speed><time>2016-06-30T15:00:34Z</time><pdop>3.0</pdop><geoidheight>53.00</geoidheight><course>234.8</course><type>1</type></trkpt>
      <trkpt lat="40.81247202" lon="-4.54797494"><ele>2255</ele><speed>8.60</speed><time>2016-06-30T15:00:35Z</time><pdop>3.0</pdop><geoidheight>53.00</geoidheight><course>257.4</course><type>1</type></trkpt>
      <trkpt lat="40.81247043" lon="-4.54807738"><ele>2255</ele><speed>8.48</speed><time>2016-06-30T15:00:36Z</time><pdop>3.0</pdop><geoidheight>53.00</geoidheight><course>267.2</course><type>1</type></trkpt>
      <trkpt lat="40.8124769" lon="-4.54814903"><ele>2256</ele><speed>6.69</speed><time>2016-06-30T15:00:37Z</time><pdop>3.0</pdop><geoidheight>53.00</geoidheight><course>271.6</course><type>1</type></trkpt>
      <trkpt lat="40.81256681" lon="-4.54818057"><ele>2256</ele><speed>6.72</speed><time>2016-06-30T15:00:38Z</time><pdop>4.0</pdop><geoidheight>53.00</geoidheight><course>318.1</course><type>1</type></trkpt>
      <trkpt lat="40.81270478" lon="-4.5482213"><ele>2255</ele><speed>6.82</speed><time>2016-06-30T15:00:40Z</time><pdop>5.0</pdop><geoidheight>53.00</geoidheight><course>344.9</course><type>1</type></trkpt>
      <trkpt lat="40.8128026" lon="-4.54818665"><ele>2254</ele><speed>7.53</speed><time>2016-06-30T15:00:41Z</time><pdop>6.0</pdop><geoidheight>53.00</geoidheight><course>3.4</course><type>1</type></trkpt>
      <trkpt lat="40.81293691" lon="-4.54811566"><ele>2255</ele><speed>10.81</speed><time>2016-06-30T15:00:42Z</time><pdop>7.0</pdop><geoidheight>53.00</geoidheight><course>18.0</course><type>1</type></trkpt>
      <trkpt lat="40.813118" lon="-4.54798832"><ele>2255</ele><speed>10.38</speed><time>2016-06-30T15:00:44Z</time><pdop>9.0</pdop><geoidheight>53.00</geoidheight><course>23.3</course><type>1</type></trkpt>
      <trkpt lat="40.81330543" lon="-4.54779861"><ele>2260</ele><speed>10.11</speed><time>2016-06-30T15:00:47Z</time><pdop>7.0</pdop><geoidheight>53.00</geoidheight><course>31.0</course><type>1</type></trkpt>
      <trkpt lat="40.8135075" lon="-4.54771287"><ele>2260</ele><speed>10.92</speed><time>2016-06-30T15:00:49Z</time><pdop>6.0</pdop><geoidheight>53.00</geoidheight><course>18.0</course><type>1</type></trkpt>
      <trkpt lat="40.8136719" lon="-4.54768712"><ele>2261</ele><speed>8.94</speed><time>2016-06-30T15:00:51Z</time><pdop>6.0</pdop><geoidheight>53.00</geoidheight><course>8.5</course><type>1</type></trkpt>
      <trkpt lat="40.81371145" lon="-4.54783686"><ele>2261</ele><speed>7.49</speed><time>2016-06-30T15:00:52Z</time><pdop>7.0</pdop><geoidheight>53.00</geoidheight><course>331.7</course><type>1</type></trkpt>
      <trkpt lat="40.81371397" lon="-4.54810866"><ele>2263</ele><speed>6.65</speed><time>2016-06-30T15:00:54Z</time><pdop>8.0</pdop><geoidheight>53.00</geoidheight><course>287.8</course><type>1</type></trkpt>
      <trkpt lat="40.81354353" lon="-4.54840329"><ele>2265</ele><speed>10.31</speed><time>2016-06-30T15:00:56Z</time><pdop>9.0</pdop><geoidheight>53.00</geoidheight><course>241.7</course><type>1</type></trkpt>
      <trkpt lat="40.81341616" lon="-4.54859899"><ele>2267</ele><speed>12.80</speed><time>2016-06-30T15:00:57Z</time><pdop>8.0</pdop><geoidheight>53.00</geoidheight><course>236.3</course><type>1</type></trkpt>
      <trkpt lat="40.81316884" lon="-4.54853976"><ele>2268</ele><speed>9.48</speed><time>2016-06-30T15:00:59Z</time><pdop>7.0</pdop><geoidheight>53.00</geoidheight><course>193.4</course><type>1</type></trkpt>
      <trkpt lat="40.81301069" lon="-4.54847906"><ele>2269</ele><speed>11.90</speed><time>2016-06-30T15:01:00Z</time><pdop>7.0</pdop><geoidheight>53.00</geoidheight><course>179.1</course><type>1</type></trkpt>
      <trkpt lat="40.81289537" lon="-4.54830617"><ele>2272</ele><speed>12.93</speed><time>2016-06-30T15:01:01Z</time><pdop>6.0</pdop><geoidheight>53.00</geoidheight><course>151.4</course><type>1</type></trkpt>
      <trkpt lat="40.81287344" lon="-4.5481416"><ele>2275</ele><speed>11.12</speed><time>2016-06-30T15:01:02Z</time><pdop>5.0</pdop><geoidheight>53.00</geoidheight><course>124.9</course><type>1</type></trkpt>
      <trkpt lat="40.81280781" lon="-4.54799473"><ele>2276</ele><speed>11.34</speed><time>2016-06-30T15:01:03Z</time><pdop>5.0</pdop><geoidheight>53.00</geoidheight><course>118.7</course><type>1</type></trkpt>
      <trkpt lat="40.81277908" lon="-4.54786794"><ele>2278</ele><speed>10.32</speed><time>2016-06-30T15:01:04Z</time><pdop>5.0</pdop><geoidheight>53.00</geoidheight><course>108.9</course><type>1</type></trkpt>
      <trkpt lat="40.81275029" lon="-4.5477322"><ele>2279</ele><speed>10.53</speed><time>2016-06-30T15:01:05Z</time><pdop>4.0</pdop><geoidheight>53.00</geoidheight><course>106.6</course><type>1</type></trkpt>
      <trkpt lat="40.81272957" lon="-4.54759617"><ele>2281</ele><speed>10.61</speed><time>2016-06-30T15:01:06Z</time><pdop>4.0</pdop><geoidheight>53.00</geoidheight><course>104.9</course><type>1</type></trkpt>
      <trkpt lat="40.81272208" lon="-4.54744194"><ele>2283</ele><speed>10.47</speed><time>2016-06-30T15:01:07Z</time><pdop>4.0</pdop><geoidheight>53.00</geoidheight><course>95.4</course><type>1</type></trkpt>
      <trkpt lat="40.81270391" lon="-4.54731363"><ele>2285</ele><speed>10.51</speed><time>2016-06-30T15:01:08Z</time><pdop>5.0</pdop><geoidheight>53.00</geoidheight><course>96.5</course><type>1</type></trkpt>
      <trkpt lat="40.81280814" lon="-4.5472286"><ele>2289</ele><speed>3.46</speed><time>2016-06-30T15:01:11Z</time><pdop>8.0</pdop><geoidheight>53.00</geoidheight><course>14.9</course><type>1</type></trkpt>
      <trkpt lat="40.81297049" lon="-4.54728157"><ele>2295</ele><speed>5.51</speed><time>2016-06-30T15:01:13Z</time><pdop>8.0</pdop><geoidheight>53.00</geoidheight><course>345.0</course><type>1</type></trkpt>
      <trkpt lat="40.81310964" lon="-4.54737323"><ele>2297</ele><speed>6.98</speed><time>2016-06-30T15:01:15Z</time><pdop>9.0</pdop><geoidheight>53.00</geoidheight><course>329.5</course><type>1</type></trkpt>
      <trkpt lat="40.81324141" lon="-4.547495"><ele>2300</ele><speed>8.34</speed><time>2016-06-30T15:01:17Z</time><pdop>8.0</pdop><geoidheight>53.00</geoidheight><course>323.3</course><type>1</type></trkpt>
      <trkpt lat="40.81337841" lon="-4.54761549"><ele>2300</ele><speed>8.47</speed><time>2016-06-30T15:01:19Z</time><pdop>7.0</pdop><geoidheight>53.00</geoidheight><course>325.8</course><type>1</type></trkpt>
      <trkpt lat="40.81353643" lon="-4.54774401"><ele>2300</ele><speed>9.43</speed><time>2016-06-30T15:01:21Z</time><pdop>7.0</pdop><geoidheight>53.00</geoidheight><course>326.2</course><type>1</type></trkpt>
      <trkpt lat="40.81369233" lon="-4.54787799"><ele>2302</ele><speed>10.03</speed><time>2016-06-30T15:01:23Z</time><pdop>6.0</pdop><geoidheight>53.00</geoidheight><course>329.6</course><type>1</type></trkpt>
      <trkpt lat="40.81382547" lon="-4.54797773"><ele>2307</ele><speed>9.17</speed><time>2016-06-30T15:01:25Z</time><pdop>5.0</pdop><geoidheight>53.00</geoidheight><course>339.6</course><type>1</type></trkpt>
      <trkpt lat="40.81398046" lon="-4.54806246"><ele>2309</ele><speed>9.35</speed><time>2016-06-30T15:01:27Z</time><pdop>5.0</pdop><geoidheight>53.00</geoidheight><course>337.2</course><type>1</type></trkpt>
      <trkpt lat="40.81409383" lon="-4.54816406"><ele>2311</ele><speed>7.83</speed><time>2016-06-30T15:01:29Z</time><pdop>10.0</pdop><geoidheight>53.00</geoidheight><course>328.2</course><type>1</type></trkpt>
      <trkpt lat="40.8141662" lon="-4.54844165"><ele>2314</ele><speed>6.19</speed><time>2016-06-30T15:01:32Z</time><pdop>10.0</pdop><geoidheight>53.00</geoidheight><course>294.3</course><type>1</type></trkpt>
      <trkpt lat="40.8142225" lon="-4.54868672"><ele>2311</ele><speed>7.71</speed><time>2016-06-30T15:01:35Z</time><pdop>9.0</pdop><geoidheight>53.00</geoidheight><course>278.8</course><type>1</type></trkpt>
      <trkpt lat="40.81420856" lon="-4.54892235"><ele>2311</ele><speed>9.89</speed><time>2016-06-30T15:01:37Z</time><pdop>10.0</pdop><geoidheight>53.00</geoidheight><course>264.0</course><type>1</type></trkpt>
      <trkpt lat="40.81420008" lon="-4.54923062"><ele>2313</ele><speed>7.69</speed><time>2016-06-30T15:01:40Z</time><pdop>10.0</pdop><geoidheight>53.00</geoidheight><course>273.1</course><type>1</type></trkpt>
      <trkpt lat="40.81420821" lon="-4.54949565"><ele>2313</ele><speed>7.30</speed><time>2016-06-30T15:01:43Z</time><pdop>10.0</pdop><geoidheight>53.00</geoidheight><course>269.2</course><type>1</type></trkpt>
      <trkpt lat="40.81416986" lon="-4.54975695"><ele>2310</ele><speed>8.69</speed><time>2016-06-30T15:01:46Z</time><pdop>10.0</pdop><geoidheight>53.00</geoidheight><course>260.7</course><type>1</type></trkpt>
      <trkpt lat="40.8141426" lon="-4.55001433"><ele>2309</ele><speed>10.45</speed><time>2016-06-30T15:01:48Z</time><pdop>10.0</pdop><geoidheight>53.00</geoidheight><course>262.1</course><type>1</type></trkpt>
      <trkpt lat="40.81405166" lon="-4.55032718"><ele>2310</ele><speed>8.54</speed><time>2016-06-30T15:01:51Z</time><pdop>10.0</pdop><geoidheight>53.00</geoidheight><course>245.5</course><type>1</type></trkpt>
      <trkpt lat="40.81394899" lon="-4.55057493"><ele>2513</ele><speed>7.74</speed><time>2016-06-30T15:01:55Z</time><pdop>10.0</pdop><geoidheight>53.00</geoidheight><course>249.6</course><type>1</type></trkpt>
      <trkpt lat="40.81388022" lon="-4.55088636"><ele>2409</ele><speed>8.47</speed><time>2016-06-30T15:01:58Z</time><pdop>9.0</pdop><geoidheight>53.00</geoidheight><course>250.6</course><type>1</type></trkpt>
      <trkpt lat="40.8138328" lon="-4.55111855"><ele>2367</ele><speed>4.21</speed><time>2016-06-30T15:02:02Z</time><pdop>10.0</pdop><geoidheight>53.00</geoidheight><course>254.6</course><type>1</type></trkpt>
      <trkpt lat="40.81381071" lon="-4.55137757"><ele>2345</ele><speed>5.99</speed><time>2016-06-30T15:02:06Z</time><pdop>10.0</pdop><geoidheight>53.00</geoidheight><course>280.6</course><type>1</type></trkpt>
      <trkpt lat="40.81375136" lon="-4.5516544"><ele>2350</ele><speed>6.42</speed><time>2016-06-30T15:02:10Z</time><pdop>10.0</pdop><geoidheight>53.00</geoidheight><course>235.7</course><type>1</type></trkpt>
      <trkpt lat="40.81355374" lon="-4.55179106"><ele>2361</ele><speed>8.23</speed><time>2016-06-30T15:02:13Z</time><pdop>9.0</pdop><geoidheight>53.00</geoidheight><course>194.0</course><type>1</type></trkpt>
      <trkpt lat="40.81327939" lon="-4.5518036"><ele>2357</ele><speed>12.49</speed><time>2016-06-30T15:02:15Z</time><pdop>9.0</pdop><geoidheight>53.00</geoidheight><course>177.7</course><type>1</type></trkpt>
      <trkpt lat="40.81307255" lon="-4.55171756"><ele>2360</ele><speed>10.81</speed><time>2016-06-30T15:02:17Z</time><pdop>10.0</pdop><geoidheight>53.00</geoidheight><course>159.8</course><type>1</type></trkpt>
      <trkpt lat="40.81287654" lon="-4.55156011"><ele>2364</ele><speed>10.93</speed><time>2016-06-30T15:02:19Z</time><pdop>11.0</pdop><geoidheight>53.00</geoidheight><course>149.9</course><type>1</type></trkpt>
      <trkpt lat="40.81273975" lon="-4.55128773"><ele>2369</ele><speed>11.62</speed><time>2016-06-30T15:02:21Z</time><pdop>11.0</pdop><geoidheight>53.00</geoidheight><course>127.6</course><type>1</type></trkpt>
      <trkpt lat="40.81268573" lon="-4.55085902"><ele>2375</ele><speed>14.96</speed><time>2016-06-30T15:02:23Z</time><pdop>10.0</pdop><geoidheight>53.00</geoidheight><course>99.5</course><type>1</type></trkpt>
      <trkpt lat="40.81261647" lon="-4.55045408"><ele>2379</ele><speed>14.88</speed><time>2016-06-30T15:02:25Z</time><pdop>11.0</pdop><geoidheight>53.00</geoidheight><course>101.1</course><type>1</type></trkpt>
      <trkpt lat="40.81261827" lon="-4.55005151"><ele>2384</ele><speed>11.24</speed><time>2016-06-30T15:02:28Z</time><pdop>19.0</pdop><geoidheight>53.00</geoidheight><course>96.8</course><type>1</type></trkpt>
      <trkpt lat="40.8130204" lon="-4.55007783"><ele>2387</ele><speed>9.27</speed><time>2016-06-30T15:02:30Z</time><pdop>18.0</pdop><geoidheight>53.00</geoidheight><course>30.4</course><type>1</type></trkpt>
      <trkpt lat="40.81329033" lon="-4.55032435"><ele>2388</ele><speed>6.25</speed><time>2016-06-30T15:02:33Z</time><pdop>16.0</pdop><geoidheight>53.00</geoidheight><course>345.4</course><type>1</type></trkpt>
      <trkpt lat="40.81307287" lon="-4.5506854"><ele>2393</ele><speed>5.54</speed><time>2016-06-30T15:02:36Z</time><pdop>13.0</pdop><geoidheight>53.00</geoidheight><course>231.3</course><type>1</type></trkpt>
      <trkpt lat="40.81282936" lon="-4.55089061"><ele>2398</ele><speed>8.24</speed><time>2016-06-30T15:02:39Z</time><pdop>13.0</pdop><geoidheight>53.00</geoidheight><course>214.4</course><type>1</type></trkpt>
      <trkpt lat="40.81256817" lon="-4.55106437"><ele>2403</ele><speed>9.29</speed><time>2016-06-30T15:02:42Z</time><pdop>13.0</pdop><geoidheight>53.00</geoidheight><course>218.2</course><type>1</type></trkpt>
      <trkpt lat="40.81232437" lon="-4.55116193"><ele>2413</ele><speed>8.29</speed><time>2016-06-30T15:02:45Z</time><pdop>13.0</pdop><geoidheight>53.00</geoidheight><course>193.7</course><type>1</type></trkpt>
      <trkpt lat="40.81199077" lon="-4.55104562"><ele>2421</ele><speed>11.29</speed><time>2016-06-30T15:02:48Z</time><pdop>16.0</pdop><geoidheight>53.00</geoidheight><course>159.8</course><type>1</type></trkpt>
      <trkpt lat="40.81174898" lon="-4.55083307"><ele>2427</ele><speed>12.00</speed><time>2016-06-30T15:02:50Z</time><pdop>16.0</pdop><geoidheight>53.00</geoidheight><course>143.1</course><type>1</type></trkpt>
      <trkpt lat="40.811554" lon="-4.55034548"><ele>2437</ele><speed>13.07</speed><time>2016-06-30T15:02:53Z</time><pdop>14.0</pdop><geoidheight>53.00</geoidheight><course>112.8</course><type>1</type></trkpt>
      <trkpt lat="40.81147578" lon="-4.54993665"><ele>2446</ele><speed>14.14</speed><time>2016-06-30T15:02:55Z</time><pdop>14.0</pdop><geoidheight>53.00</geoidheight><course>101.0</course><type>1</type></trkpt>
      <trkpt lat="40.81146915" lon="-4.54958522"><ele>2452</ele><speed>13.92</speed><time>2016-06-30T15:02:57Z</time><pdop>15.0</pdop><geoidheight>53.00</geoidheight><course>93.9</course><type>1</type></trkpt>
      <trkpt lat="40.81152579" lon="-4.54911591"><ele>2463</ele><speed>11.39</speed><time>2016-06-30T15:03:00Z</time><pdop>19.0</pdop><geoidheight>53.00</geoidheight><course>80.9</course><type>1</type></trkpt>
      <trkpt lat="40.81196907" lon="-4.54884656"><ele>2471</ele><speed>12.27</speed><time>2016-06-30T15:03:03Z</time><pdop>22.0</pdop><geoidheight>53.00</geoidheight><course>35.7</course><type>1</type></trkpt>
      <trkpt lat="40.81188742" lon="-4.5492887"><ele>2490</ele><speed>7.63</speed><time>2016-06-30T15:03:11Z</time><pdop>14.0</pdop><geoidheight>53.00</geoidheight><course>217.4</course><type>1</type></trkpt>
      <trkpt lat="40.81158156" lon="-4.54945971"><ele>2497</ele><speed>8.63</speed><time>2016-06-30T15:03:14Z</time><pdop>16.0</pdop><geoidheight>53.00</geoidheight><course>197.3</course><type>1</type></trkpt>
      <trkpt lat="40.81116633" lon="-4.54949484"><ele>2504</ele><speed>12.39</speed><time>2016-06-30T15:03:17Z</time><pdop>18.0</pdop><geoidheight>53.00</geoidheight><course>178.4</course><type>1</type></trkpt>
      <trkpt lat="40.8108435" lon="-4.54934716"><ele>2512</ele><speed>14.76</speed><time>2016-06-30T15:03:19Z</time><pdop>17.0</pdop><geoidheight>53.00</geoidheight><course>164.3</course><type>1</type></trkpt>
      <trkpt lat="40.81047082" lon="-4.5490057"><ele>2526</ele><speed>15.26</speed><time>2016-06-30T15:03:22Z</time><pdop>18.0</pdop><geoidheight>53.00</geoidheight><course>140.3</course><type>1</type></trkpt>
      <trkpt lat="40.81033734" lon="-4.54842817"><ele>2532</ele><speed>14.29</speed><time>2016-06-30T15:03:25Z</time><pdop>22.0</pdop><geoidheight>53.00</geoidheight><course>115.5</course><type>1</type></trkpt>
      <trkpt lat="40.81077578" lon="-4.54802664"><ele>2544</ele><speed>8.15</speed><time>2016-06-30T15:03:30Z</time><pdop>30.0</pdop><geoidheight>53.00</geoidheight><course>46.9</course><type>1</type></trkpt>
      <trkpt lat="40.81053609" lon="-4.54739664"><ele>2583</ele><speed>13.69</speed><time>2016-06-30T15:03:44Z</time><pdop>16.0</pdop><geoidheight>53.00</geoidheight><course>82.0</course><type>1</type></trkpt>
      <trkpt lat="40.81052419" lon="-4.54690155"><ele>2593</ele><speed>11.65</speed><time>2016-06-30T15:03:47Z</time><pdop>17.0</pdop><geoidheight>53.00</geoidheight><course>79.7</course><type>1</type></trkpt>
      <trkpt lat="40.81070613" lon="-4.54637822"><ele>2605</ele><speed>8.85</speed><time>2016-06-30T15:03:52Z</time><pdop>24.0</pdop><geoidheight>53.00</geoidheight><course>54.8</course><type>1</type></trkpt>
      <trkpt lat="40.81105041" lon="-4.54638256"><ele>2619</ele><speed>7.95</speed><time>2016-06-30T15:03:55Z</time><pdop>14.0</pdop><geoidheight>53.00</geoidheight><course>354.4</course><type>1</type></trkpt>
      <trkpt lat="40.81128445" lon="-4.54646725"><ele>2626</ele><speed>7.63</speed><time>2016-06-30T15:03:58Z</time><pdop>13.0</pdop><geoidheight>53.00</geoidheight><course>345.4</course><type>1</type></trkpt>
      <trkpt lat="40.81144907" lon="-4.5467346"><ele>2632</ele><speed>8.45</speed><time>2016-06-30T15:04:01Z</time><pdop>12.0</pdop><geoidheight>53.00</geoidheight><course>311.5</course><type>1</type></trkpt>
      <trkpt lat="40.81148296" lon="-4.54703661"><ele>2636</ele><speed>8.30</speed><time>2016-06-30T15:04:04Z</time><pdop>11.0</pdop><geoidheight>53.00</geoidheight><course>273.8</course><type>1</type></trkpt>
      <trkpt lat="40.81140327" lon="-4.54726317"><ele>2640</ele><speed>8.95</speed><time>2016-06-30T15:04:06Z</time><pdop>10.0</pdop><geoidheight>53.00</geoidheight><course>244.1</course><type>1</type></trkpt>
      <trkpt lat="40.81109181" lon="-4.54754703"><ele>2437</ele><speed>10.11</speed><time>2016-06-30T15:04:10Z</time><pdop>11.0</pdop><geoidheight>53.00</geoidheight><course>203.4</course><type>1</type></trkpt>
      <trkpt lat="40.81094797" lon="-4.5477787"><ele>2547</ele><speed>5.53</speed><time>2016-06-30T15:04:14Z</time><pdop>13.0</pdop><geoidheight>53.00</geoidheight><course>233.5</course><type>1</type></trkpt>
      <trkpt lat="40.81117716" lon="-4.547635"><ele>2594</ele><speed>11.84</speed><time>2016-06-30T15:04:16Z</time><pdop>11.0</pdop><geoidheight>53.00</geoidheight><course>38.9</course><type>1</type></trkpt>
      <trkpt lat="40.81130616" lon="-4.54735433"><ele>2626</ele><speed>10.67</speed><time>2016-06-30T15:04:19Z</time><pdop>11.0</pdop><geoidheight>53.00</geoidheight><course>53.3</course><type>1</type></trkpt>
      <trkpt lat="40.81112573" lon="-4.54707742"><ele>2639</ele><speed>16.23</speed><time>2016-06-30T15:04:20Z</time><pdop>10.0</pdop><geoidheight>53.00</geoidheight><course>118.3</course><type>1</type></trkpt>
      <trkpt lat="40.81091611" lon="-4.54689165"><ele>2656</ele><speed>13.67</speed><time>2016-06-30T15:04:22Z</time><pdop>10.0</pdop><geoidheight>53.00</geoidheight><course>158.7</course><type>1</type></trkpt>
      <trkpt lat="40.81070638" lon="-4.5469005"><ele>2667</ele><speed>12.32</speed><time>2016-06-30T15:04:24Z</time><pdop>10.0</pdop><geoidheight>53.00</geoidheight><course>186.2</course><type>1</type></trkpt>
      <trkpt lat="40.81063615" lon="-4.54715211"><ele>2679</ele><speed>10.98</speed><time>2016-06-30T15:04:26Z</time><pdop>10.0</pdop><geoidheight>53.00</geoidheight><course>246.5</course><type>1</type></trkpt>
      <trkpt lat="40.81058158" lon="-4.54743153"><ele>2688</ele><speed>5.95</speed><time>2016-06-30T15:04:30Z</time><pdop>14.0</pdop><geoidheight>53.00</geoidheight><course>256.6</course><type>1</type></trkpt>
      <trkpt lat="40.81088426" lon="-4.54709834"><ele>2692</ele><speed>7.72</speed><time>2016-06-30T15:04:33Z</time><pdop>14.0</pdop><geoidheight>53.00</geoidheight><course>34.0</course><type>1</type></trkpt>
      <trkpt lat="40.81109857" lon="-4.54677166"><ele>2702</ele><speed>11.55</speed><time>2016-06-30T15:04:35Z</time><pdop>13.0</pdop><geoidheight>53.00</geoidheight><course>45.5</course><type>1</type></trkpt>
      <trkpt lat="40.81092645" lon="-4.54644069"><ele>2707</ele><speed>10.31</speed><time>2016-06-30T15:04:37Z</time><pdop>11.0</pdop><geoidheight>53.00</geoidheight><course>119.3</course><type>1</type></trkpt>
      <trkpt lat="40.81072639" lon="-4.54618889"><ele>2715</ele><speed>12.54</speed><time>2016-06-30T15:04:39Z</time><pdop>10.0</pdop><geoidheight>53.00</geoidheight><course>152.8</course><type>1</type></trkpt>
      <trkpt lat="40.81049862" lon="-4.54604523"><ele>2719</ele><speed>13.42</speed><time>2016-06-30T15:04:41Z</time><pdop>10.0</pdop><geoidheight>53.00</geoidheight><course>164.0</course><type>1</type></trkpt>
      <trkpt lat="40.81030811" lon="-4.54600876"><ele>2722</ele><speed>10.72</speed><time>2016-06-30T15:04:43Z</time><pdop>10.0</pdop><geoidheight>53.00</geoidheight><course>169.7</course><type>1</type></trkpt>
      <trkpt lat="40.8103588" lon="-4.54628101"><ele>2727</ele><speed>7.59</speed><time>2016-06-30T15:04:45Z</time><pdop>10.0</pdop><geoidheight>53.00</geoidheight><course>274.8</course><type>1</type></trkpt>
      <trkpt lat="40.81046738" lon="-4.54647879"><ele>2739</ele><speed>7.64</speed><time>2016-06-30T15:04:48Z</time><pdop>10.0</pdop><geoidheight>53.00</geoidheight><course>321.1</course><type>1</type></trkpt>
      <trkpt lat="40.81065869" lon="-4.54661489"><ele>2750</ele><speed>8.58</speed><time>2016-06-30T15:04:51Z</time><pdop>9.0</pdop><geoidheight>53.00</geoidheight><course>350.5</course><type>1</type></trkpt>
      <trkpt lat="40.81091042" lon="-4.54657105"><ele>2760</ele><speed>10.76</speed><time>2016-06-30T15:04:54Z</time><pdop>9.0</pdop><geoidheight>53.00</geoidheight><course>18.1</course><type>1</type></trkpt>
      <trkpt lat="40.81108062" lon="-4.54646549"><ele>2765</ele><speed>11.07</speed><time>2016-06-30T15:04:56Z</time><pdop>9.0</pdop><geoidheight>53.00</geoidheight><course>27.6</course><type>1</type></trkpt>
      <trkpt lat="40.81122534" lon="-4.54635449"><ele>2770</ele><speed>10.18</speed><time>2016-06-30T15:04:58Z</time><pdop>9.0</pdop><geoidheight>53.00</geoidheight><course>26.1</course><type>1</type></trkpt>
      <trkpt lat="40.81145294" lon="-4.5461621"><ele>2779</ele><speed>11.23</speed><time>2016-06-30T15:05:01Z</time><pdop>9.0</pdop><geoidheight>53.00</geoidheight><course>32.9</course><type>1</type></trkpt>
      <trkpt lat="40.81161727" lon="-4.54600673"><ele>2784</ele><speed>11.70</speed><time>2016-06-30T15:05:03Z</time><pdop>9.0</pdop><geoidheight>53.00</geoidheight><course>36.3</course><type>1</type></trkpt>
      <trkpt lat="40.81181609" lon="-4.54585724"><ele>2787</ele><speed>11.93</speed><time>2016-06-30T15:05:05Z</time><pdop>10.0</pdop><geoidheight>53.00</geoidheight><course>32.2</course><type>1</type></trkpt>
      <trkpt lat="40.81189844" lon="-4.54564621"><ele>2799</ele><speed>10.56</speed><time>2016-06-30T15:05:07Z</time><pdop>9.0</pdop><geoidheight>53.00</geoidheight><course>63.6</course><type>1</type></trkpt>
      <trkpt lat="40.81191431" lon="-4.5453861"><ele>2803</ele><speed>11.32</speed><time>2016-06-30T15:05:09Z</time><pdop>3.0</pdop><geoidheight>53.00</geoidheight><course>88.9</course><type>1</type></trkpt>
      <trkpt lat="40.81188454" lon="-4.54523982"><ele>2804</ele><speed>12.04</speed><time>2016-06-30T15:05:10Z</time><pdop>4.0</pdop><geoidheight>53.00</geoidheight><course>102.5</course><type>1</type></trkpt>
      <trkpt lat="40.81175431" lon="-4.54511785"><ele>2804</ele><speed>13.81</speed><time>2016-06-30T15:05:11Z</time><pdop>3.0</pdop><geoidheight>53.00</geoidheight><course>133.7</course><type>1</type></trkpt>
      <trkpt lat="40.81166521" lon="-4.54501554"><ele>2805</ele><speed>13.41</speed><time>2016-06-30T15:05:12Z</time><pdop>3.0</pdop><geoidheight>53.00</geoidheight><course>138.3</course><type>1</type></trkpt>
      <trkpt lat="40.81152629" lon="-4.54506081"><ele>2808</ele><speed>12.80</speed><time>2016-06-30T15:05:13Z</time><pdop>3.0</pdop><geoidheight>53.00</geoidheight><course>181.8</course><type>1</type></trkpt>
      <trkpt lat="40.81142287" lon="-4.54511798"><ele>2809</ele><speed>12.24</speed><time>2016-06-30T15:05:14Z</time><pdop>3.0</pdop><geoidheight>53.00</geoidheight><course>200.0</course><type>1</type></trkpt>
      <trkpt lat="40.81134067" lon="-4.54520447"><ele>2811</ele><speed>11.63</speed><time>2016-06-30T15:05:15Z</time><pdop>3.0</pdop><geoidheight>53.00</geoidheight><course>218.4</course><type>1</type></trkpt>
      <trkpt lat="40.81129649" lon="-4.54531712"><ele>2811</ele><speed>11.08</speed><time>2016-06-30T15:05:16Z</time><pdop>3.0</pdop><geoidheight>53.00</geoidheight><course>240.7</course><type>1</type></trkpt>
      <trkpt lat="40.81129713" lon="-4.54543684"><ele>2811</ele><speed>10.34</speed><time>2016-06-30T15:05:17Z</time><pdop>3.0</pdop><geoidheight>53.00</geoidheight><course>268.2</course><type>1</type></trkpt>
      <trkpt lat="40.81130654" lon="-4.54554594"><ele>2812</ele><speed>9.47</speed><time>2016-06-30T15:05:18Z</time><pdop>3.0</pdop><geoidheight>53.00</geoidheight><course>273.8</course><type>1</type></trkpt>
      <trkpt lat="40.81132008" lon="-4.54563577"><ele>2813</ele><speed>8.04</speed><time>2016-06-30T15:05:19Z</time><pdop>4.0</pdop><geoidheight>53.00</geoidheight><course>277.2</course><type>1</type></trkpt>
      <trkpt lat="40.8115399" lon="-4.54556805"><ele>2813</ele><speed>9.54</speed><time>2016-06-30T15:05:21Z</time><pdop>4.0</pdop><geoidheight>53.00</geoidheight><course>11.6</course><type>1</type></trkpt>
      <trkpt lat="40.81162986" lon="-4.54549708"><ele>2815</ele><speed>10.98</speed><time>2016-06-30T15:05:22Z</time><pdop>4.0</pdop><geoidheight>53.00</geoidheight><course>23.9</course><type>1</type></trkpt>
      <trkpt lat="40.81170636" lon="-4.54544092"><ele>2816</ele><speed>10.00</speed><time>2016-06-30T15:05:23Z</time><pdop>5.0</pdop><geoidheight>53.00</geoidheight><course>25.3</course><type>1</type></trkpt>
      <trkpt lat="40.81182741" lon="-4.54532261"><ele>2822</ele><speed>7.76</speed><time>2016-06-30T15:05:25Z</time><pdop>3.0</pdop><geoidheight>53.00</geoidheight><course>40.6</course><type>1</type></trkpt>
      <trkpt lat="40.81188569" lon="-4.5452459"><ele>2823</ele><speed>8.69</speed><time>2016-06-30T15:05:26Z</time><pdop>3.0</pdop><geoidheight>53.00</geoidheight><course>50.7</course><type>1</type></trkpt>
      <trkpt lat="40.81193403" lon="-4.54515025"><ele>2824</ele><speed>9.51</speed><time>2016-06-30T15:05:27Z</time><pdop>3.0</pdop><geoidheight>53.00</geoidheight><course>54.2</course><type>1</type></trkpt>
      <trkpt lat="40.81198691" lon="-4.54504805"><ele>2825</ele><speed>9.74</speed><time>2016-06-30T15:05:28Z</time><pdop>3.0</pdop><geoidheight>53.00</geoidheight><course>55.8</course><type>1</type></trkpt>
      <trkpt lat="40.81204315" lon="-4.54495292"><ele>2825</ele><speed>9.94</speed><time>2016-06-30T15:05:29Z</time><pdop>3.0</pdop><geoidheight>53.00</geoidheight><course>56.5</course><type>1</type></trkpt>
      <trkpt lat="40.81209692" lon="-4.54485255"><ele>2825</ele><speed>10.13</speed><time>2016-06-30T15:05:30Z</time><pdop>3.0</pdop><geoidheight>53.00</geoidheight><course>57.6</course><type>1</type></trkpt>
      <trkpt lat="40.81215395" lon="-4.5447485"><ele>2826</ele><speed>10.53</speed><time>2016-06-30T15:05:31Z</time><pdop>3.0</pdop><geoidheight>53.00</geoidheight><course>58.2</course><type>1</type></trkpt>
      <trkpt lat="40.81219947" lon="-4.54464845"><ele>2826</ele><speed>11.11</speed><time>2016-06-30T15:05:32Z</time><pdop>3.0</pdop><geoidheight>53.00</geoidheight><course>58.4</course><type>1</type></trkpt>
      <trkpt lat="40.81225151" lon="-4.54453713"><ele>2826</ele><speed>11.22</speed><time>2016-06-30T15:05:33Z</time><pdop>3.0</pdop><geoidheight>53.00</geoidheight><course>59.2</course><type>1</type></trkpt>
      <trkpt lat="40.81228414" lon="-4.54440432"><ele>2827</ele><speed>11.94</speed><time>2016-06-30T15:05:34Z</time><pdop>3.0</pdop><geoidheight>53.00</geoidheight><course>64.3</course><type>1</type></trkpt>
      <trkpt lat="40.81233314" lon="-4.54427189"><ele>2829</ele><speed>12.28</speed><time>2016-06-30T15:05:35Z</time><pdop>3.0</pdop><geoidheight>53.00</geoidheight><course>65.4</course><type>1</type></trkpt>
      <trkpt lat="40.81236965" lon="-4.54414297"><ele>2830</ele><speed>11.54</speed><time>2016-06-30T15:05:36Z</time><pdop>3.0</pdop><geoidheight>53.00</geoidheight><course>68.2</course><type>1</type></trkpt>
      <trkpt lat="40.81239022" lon="-4.54402793"><ele>2832</ele><speed>10.05</speed><time>2016-06-30T15:05:37Z</time><pdop>3.0</pdop><geoidheight>53.00</geoidheight><course>73.8</course><type>1</type></trkpt>
      <trkpt lat="40.81241317" lon="-4.54391868"><ele>2833</ele><speed>9.49</speed><time>2016-06-30T15:05:38Z</time><pdop>3.0</pdop><geoidheight>53.00</geoidheight><course>75.5</course><type>1</type></trkpt>
      <trkpt lat="40.81244418" lon="-4.54380372"><ele>2833</ele><speed>9.63</speed><time>2016-06-30T15:05:39Z</time><pdop>3.0</pdop><geoidheight>53.00</geoidheight><course>72.7</course><type>1</type></trkpt>
      <trkpt lat="40.81247369" lon="-4.54368477"><ele>2834</ele><speed>9.93</speed><time>2016-06-30T15:05:40Z</time><pdop>3.0</pdop><geoidheight>53.00</geoidheight><course>70.6</course><type>1</type></trkpt>
      <trkpt lat="40.81250399" lon="-4.54356438"><ele>2836</ele><speed>9.94</speed><time>2016-06-30T15:05:41Z</time><pdop>3.0</pdop><geoidheight>53.00</geoidheight><course>71.8</course><type>1</type></trkpt>
      <trkpt lat="40.81252967" lon="-4.54345427"><ele>2836</ele><speed>9.84</speed><time>2016-06-30T15:05:42Z</time><pdop>3.0</pdop><geoidheight>53.00</geoidheight><course>73.5</course><type>1</type></trkpt>
      <trkpt lat="40.81256342" lon="-4.54334457"><ele>2836</ele><speed>10.14</speed><time>2016-06-30T15:05:43Z</time><pdop>3.0</pdop><geoidheight>53.00</geoidheight><course>69.5</course><type>1</type></trkpt>
      <trkpt lat="40.81261105" lon="-4.54323439"><ele>2835</ele><speed>11.07</speed><time>2016-06-30T15:05:44Z</time><pdop>3.0</pdop><geoidheight>53.00</geoidheight><course>61.3</course><type>1</type></trkpt>
      <trkpt lat="40.81265913" lon="-4.54310947"><ele>2836</ele><speed>11.50</speed><time>2016-06-30T15:05:45Z</time><pdop>3.0</pdop><geoidheight>53.00</geoidheight><course>61.7</course><type>1</type></trkpt>
      <trkpt lat="40.81274861" lon="-4.54299019"><ele>2836</ele><speed>12.94</speed><time>2016-06-30T15:05:46Z</time><pdop>3.0</pdop><geoidheight>53.00</geoidheight><course>49.8</course><type>1</type></trkpt>
      <trkpt lat="40.81282135" lon="-4.54287224"><ele>2837</ele><speed>12.88</speed><time>2016-06-30T15:05:47Z</time><pdop>3.0</pdop><geoidheight>53.00</geoidheight><course>50.3</course><type>1</type></trkpt>
      <trkpt lat="40.81289415" lon="-4.54274734"><ele>2838</ele><speed>12.91</speed><time>2016-06-30T15:05:48Z</time><pdop>3.0</pdop><geoidheight>53.00</geoidheight><course>52.4</course><type>1</type></trkpt>
      <trkpt lat="40.81294808" lon="-4.5426182"><ele>2837</ele><speed>12.88</speed><time>2016-06-30T15:05:49Z</time><pdop>3.0</pdop><geoidheight>53.00</geoidheight><course>54.5</course><type>1</type></trkpt>
      <trkpt lat="40.81302115" lon="-4.54248155"><ele>2837</ele><speed>13.91</speed><time>2016-06-30T15:05:50Z</time><pdop>4.0</pdop><geoidheight>53.00</geoidheight><course>54.4</course><type>1</type></trkpt>
      <trkpt lat="40.813069" lon="-4.54233748"><ele>2839</ele><speed>13.57</speed><time>2016-06-30T15:05:51Z</time><pdop>3.0</pdop><geoidheight>53.00</geoidheight><course>60.4</course><type>1</type></trkpt>
      <trkpt lat="40.81313793" lon="-4.54222314"><ele>2839</ele><speed>12.64</speed><time>2016-06-30T15:05:52Z</time><pdop>3.0</pdop><geoidheight>53.00</geoidheight><course>57.1</course><type>1</type></trkpt>
      <trkpt lat="40.81319885" lon="-4.54209117"><ele>2841</ele><speed>11.94</speed><time>2016-06-30T15:05:53Z</time><pdop>3.0</pdop><geoidheight>53.00</geoidheight><course>57.1</course><type>1</type></trkpt>
      <trkpt lat="40.81327133" lon="-4.54198085"><ele>2842</ele><speed>11.43</speed><time>2016-06-30T15:05:54Z</time><pdop>3.0</pdop><geoidheight>53.00</geoidheight><course>50.6</course><type>1</type></trkpt>
      <trkpt lat="40.81333668" lon="-4.5418755"><ele>2843</ele><speed>10.97</speed><time>2016-06-30T15:05:55Z</time><pdop>3.0</pdop><geoidheight>53.00</geoidheight><course>49.2</course><type>1</type></trkpt>
      <trkpt lat="40.81339526" lon="-4.54176939"><ele>2844</ele><speed>11.02</speed><time>2016-06-30T15:05:56Z</time><pdop>4.0</pdop><geoidheight>53.00</geoidheight><course>51.3</course><type>1</type></trkpt>
      <trkpt lat="40.81344523" lon="-4.54165113"><ele>2844</ele><speed>11.19</speed><time>2016-06-30T15:05:57Z</time><pdop>3.0</pdop><geoidheight>53.00</geoidheight><course>58.4</course><type>1</type></trkpt>
      <trkpt lat="40.81350798" lon="-4.54153385"><ele>2844</ele><speed>11.76</speed><time>2016-06-30T15:05:58Z</time><pdop>3.0</pdop><geoidheight>53.00</geoidheight><course>60.5</course><type>1</type></trkpt>
      <trkpt lat="40.81356081" lon="-4.5413944"><ele>2844</ele><speed>12.80</speed><time>2016-06-30T15:05:59Z</time><pdop>3.0</pdop><geoidheight>53.00</geoidheight><course>60.6</course><type>1</type></trkpt>
      <trkpt lat="40.8136188" lon="-4.54124956"><ele>2845</ele><speed>13.84</speed><time>2016-06-30T15:06:00Z</time><pdop>3.0</pdop><geoidheight>53.00</geoidheight><course>61.4</course><type>1</type></trkpt>
      <trkpt lat="40.81366459" lon="-4.54109715"><ele>2846</ele><speed>14.15</speed><time>2016-06-30T15:06:01Z</time><pdop>4.0</pdop><geoidheight>53.00</geoidheight><course>63.0</course><type>1</type></trkpt>
      <trkpt lat="40.81371037" lon="-4.54095975"><ele>2847</ele><speed>13.38</speed><time>2016-06-30T15:06:02Z</time><pdop>4.0</pdop><geoidheight>53.00</geoidheight><course>65.2</course><type>1</type></trkpt>
      <trkpt lat="40.81374043" lon="-4.5408209"><ele>2848</ele><speed>12.86</speed><time>2016-06-30T15:06:03Z</time><pdop>5.0</pdop><geoidheight>53.00</geoidheight><course>68.8</course><type>1</type></trkpt>
      <trkpt lat="40.81378388" lon="-4.5406784"><ele>2848</ele><speed>12.92</speed><time>2016-06-30T15:06:04Z</time><pdop>5.0</pdop><geoidheight>53.00</geoidheight><course>69.5</course><type>1</type></trkpt>
      <trkpt lat="40.81384963" lon="-4.54054361"><ele>2849</ele><speed>13.47</speed><time>2016-06-30T15:06:05Z</time><pdop>5.0</pdop><geoidheight>53.00</geoidheight><course>66.9</course><type>1</type></trkpt>
      <trkpt lat="40.81391235" lon="-4.5403943"><ele>2850</ele><speed>13.96</speed><time>2016-06-30T15:06:06Z</time><pdop>5.0</pdop><geoidheight>53.00</geoidheight><course>64.5</course><type>1</type></trkpt>
      <trkpt lat="40.81399072" lon="-4.54023161"><ele>2851</ele><speed>14.99</speed><time>2016-06-30T15:06:07Z</time><pdop>5.0</pdop><geoidheight>53.00</geoidheight><course>61.1</course><type>1</type></trkpt>
      <trkpt lat="40.8140567" lon="-4.54007612"><ele>2853</ele><speed>15.01</speed><time>2016-06-30T15:06:08Z</time><pdop>5.0</pdop><geoidheight>53.00</geoidheight><course>61.3</course><type>1</type></trkpt>
      <trkpt lat="40.81412408" lon="-4.53992731"><ele>2856</ele><speed>14.20</speed><time>2016-06-30T15:06:09Z</time><pdop>5.0</pdop><geoidheight>53.00</geoidheight><course>61.9</course><type>1</type></trkpt>
      <trkpt lat="40.81418954" lon="-4.5397812"><ele>2858</ele><speed>13.47</speed><time>2016-06-30T15:06:10Z</time><pdop>5.0</pdop><geoidheight>53.00</geoidheight><course>62.4</course><type>1</type></trkpt>
      <trkpt lat="40.81424954" lon="-4.53964725"><ele>2858</ele><speed>13.03</speed><time>2016-06-30T15:06:11Z</time><pdop>5.0</pdop><geoidheight>53.00</geoidheight><course>59.4</course><type>1</type></trkpt>
      <trkpt lat="40.81432365" lon="-4.53950803"><ele>2860</ele><speed>13.50</speed><time>2016-06-30T15:06:12Z</time><pdop>4.0</pdop><geoidheight>53.00</geoidheight><course>55.1</course><type>1</type></trkpt>
      <trkpt lat="40.81440513" lon="-4.53937264"><ele>2860</ele><speed>13.95</speed><time>2016-06-30T15:06:13Z</time><pdop>4.0</pdop><geoidheight>53.00</geoidheight><course>53.9</course><type>1</type></trkpt>
      <trkpt lat="40.81447612" lon="-4.53922176"><ele>2860</ele><speed>14.67</speed><time>2016-06-30T15:06:14Z</time><pdop>4.0</pdop><geoidheight>53.00</geoidheight><course>55.4</course><type>1</type></trkpt>
      <trkpt lat="40.81454846" lon="-4.53905892"><ele>2860</ele><speed>15.41</speed><time>2016-06-30T15:06:15Z</time><pdop>4.0</pdop><geoidheight>53.00</geoidheight><course>58.8</course><type>1</type></trkpt>
      <trkpt lat="40.81462338" lon="-4.53889795"><ele>2861</ele><speed>15.95</speed><time>2016-06-30T15:06:16Z</time><pdop>3.0</pdop><geoidheight>53.00</geoidheight><course>61.4</course><type>1</type></trkpt>
      <trkpt lat="40.81468746" lon="-4.53873803"><ele>2863</ele><speed>15.60</speed><time>2016-06-30T15:06:17Z</time><pdop>4.0</pdop><geoidheight>53.00</geoidheight><course>61.1</course><type>1</type></trkpt>
      <trkpt lat="40.81474919" lon="-4.5386052"><ele>2866</ele><speed>13.52</speed><time>2016-06-30T15:06:18Z</time><pdop>4.0</pdop><geoidheight>53.00</geoidheight><course>60.2</course><type>1</type></trkpt>
      <trkpt lat="40.81479819" lon="-4.53849467"><ele>2869</ele><speed>11.17</speed><time>2016-06-30T15:06:19Z</time><pdop>5.0</pdop><geoidheight>53.00</geoidheight><course>60.3</course><type>1</type></trkpt>
      <trkpt lat="40.81484545" lon="-4.53839065"><ele>2872</ele><speed>10.01</speed><time>2016-06-30T15:06:20Z</time><pdop>5.0</pdop><geoidheight>53.00</geoidheight><course>58.6</course><type>1</type></trkpt>
      <trkpt lat="40.81490785" lon="-4.53830161"><ele>2874</ele><speed>9.62</speed><time>2016-06-30T15:06:21Z</time><pdop>5.0</pdop><geoidheight>53.00</geoidheight><course>53.3</course><type>1</type></trkpt>
      <trkpt lat="40.81496509" lon="-4.53820591"><ele>2875</ele><speed>9.76</speed><time>2016-06-30T15:06:22Z</time><pdop>4.0</pdop><geoidheight>53.00</geoidheight><course>51.2</course><type>1</type></trkpt>
      <trkpt lat="40.81503651" lon="-4.53811845"><ele>2877</ele><speed>10.50</speed><time>2016-06-30T15:06:23Z</time><pdop>4.0</pdop><geoidheight>53.00</geoidheight><course>47.7</course><type>1</type></trkpt>
      <trkpt lat="40.81509783" lon="-4.53801697"><ele>2878</ele><speed>10.95</speed><time>2016-06-30T15:06:24Z</time><pdop>4.0</pdop><geoidheight>53.00</geoidheight><course>49.2</course><type>1</type></trkpt>
      <trkpt lat="40.81516208" lon="-4.53792245"><ele>2879</ele><speed>11.10</speed><time>2016-06-30T15:06:25Z</time><pdop>4.0</pdop><geoidheight>53.00</geoidheight><course>51.1</course><type>1</type></trkpt>
      <trkpt lat="40.81522491" lon="-4.53781536"><ele>2881</ele><speed>11.44</speed><time>2016-06-30T15:06:26Z</time><pdop>3.0</pdop><geoidheight>53.00</geoidheight><course>53.0</course><type>1</type></trkpt>
      <trkpt lat="40.8152877" lon="-4.53769442"><ele>2883</ele><speed>12.10</speed><time>2016-06-30T15:06:27Z</time><pdop>3.0</pdop><geoidheight>53.00</geoidheight><course>54.5</course><type>1</type></trkpt>
      <trkpt lat="40.81535137" lon="-4.53758338"><ele>2884</ele><speed>12.01</speed><time>2016-06-30T15:06:28Z</time><pdop>3.0</pdop><geoidheight>53.00</geoidheight><course>53.0</course><type>1</type></trkpt>
      <trkpt lat="40.81541933" lon="-4.53747003"><ele>2886</ele><speed>11.47</speed><time>2016-06-30T15:06:29Z</time><pdop>3.0</pdop><geoidheight>53.00</geoidheight><course>52.8</course><type>1</type></trkpt>
      <trkpt lat="40.81549975" lon="-4.53736491"><ele>2887</ele><speed>11.85</speed><time>2016-06-30T15:06:30Z</time><pdop>3.0</pdop><geoidheight>53.00</geoidheight><course>48.1</course><type>1</type></trkpt>
      <trkpt lat="40.81557675" lon="-4.53725222"><ele>2888</ele><speed>12.37</speed><time>2016-06-30T15:06:31Z</time><pdop>3.0</pdop><geoidheight>53.00</geoidheight><course>49.1</course><type>1</type></trkpt>
      <trkpt lat="40.8156517" lon="-4.53713554"><ele>2889</ele><speed>12.91</speed><time>2016-06-30T15:06:32Z</time><pdop>3.0</pdop><geoidheight>53.00</geoidheight><course>49.2</course><type>1</type></trkpt>
      <trkpt lat="40.81572202" lon="-4.53701134"><ele>2890</ele><speed>13.25</speed><time>2016-06-30T15:06:33Z</time><pdop>3.0</pdop><geoidheight>53.00</geoidheight><course>49.5</course><type>1</type></trkpt>
      <trkpt lat="40.8158051" lon="-4.53689137"><ele>2892</ele><speed>13.29</speed><time>2016-06-30T15:06:34Z</time><pdop>3.0</pdop><geoidheight>53.00</geoidheight><course>50.1</course><type>1</type></trkpt>
      <trkpt lat="40.81588411" lon="-4.53677512"><ele>2893</ele><speed>13.38</speed><time>2016-06-30T15:06:35Z</time><pdop>3.0</pdop><geoidheight>53.00</geoidheight><course>50.3</course><type>1</type></trkpt>
      <trkpt lat="40.81596126" lon="-4.53665446"><ele>2895</ele><speed>13.31</speed><time>2016-06-30T15:06:36Z</time><pdop>3.0</pdop><geoidheight>53.00</geoidheight><course>50.5</course><type>1</type></trkpt>
      <trkpt lat="40.81603863" lon="-4.53653568"><ele>2897</ele><speed>13.26</speed><time>2016-06-30T15:06:37Z</time><pdop>3.0</pdop><geoidheight>53.00</geoidheight><course>49.2</course><type>1</type></trkpt>
      <trkpt lat="40.8161216" lon="-4.5364136"><ele>2897</ele><speed>13.52</speed><time>2016-06-30T15:06:38Z</time><pdop>3.0</pdop><geoidheight>53.00</geoidheight><course>48.2</course><type>1</type></trkpt>
      <trkpt lat="40.81620427" lon="-4.53628871"><ele>2898</ele><speed>13.84</speed><time>2016-06-30T15:06:39Z</time><pdop>3.0</pdop><geoidheight>53.00</geoidheight><course>47.8</course><type>1</type></trkpt>
      <trkpt lat="40.81629489" lon="-4.53616657"><ele>2899</ele><speed>13.92</speed><time>2016-06-30T15:06:40Z</time><pdop>3.0</pdop><geoidheight>53.00</geoidheight><course>46.5</course><type>1</type></trkpt>
      <trkpt lat="40.81637887" lon="-4.53604818"><ele>2899</ele><speed>13.99</speed><time>2016-06-30T15:06:41Z</time><pdop>3.0</pdop><geoidheight>53.00</geoidheight><course>45.9</course><type>1</type></trkpt>
      <trkpt lat="40.81647409" lon="-4.53592959"><ele>2900</ele><speed>14.13</speed><time>2016-06-30T15:06:42Z</time><pdop>3.0</pdop><geoidheight>53.00</geoidheight><course>45.5</course><type>1</type></trkpt>
      <trkpt lat="40.81655825" lon="-4.5358047"><ele>2900</ele><speed>14.36</speed><time>2016-06-30T15:06:43Z</time><pdop>3.0</pdop><geoidheight>53.00</geoidheight><course>46.4</course><type>1</type></trkpt>
      <trkpt lat="40.81664919" lon="-4.5356712"><ele>2901</ele><speed>15.22</speed><time>2016-06-30T15:06:44Z</time><pdop>3.0</pdop><geoidheight>53.00</geoidheight><course>48.0</course><type>1</type></trkpt>
      <trkpt lat="40.81673256" lon="-4.53552096"><ele>2902</ele><speed>15.48</speed><time>2016-06-30T15:06:45Z</time><pdop>3.0</pdop><geoidheight>53.00</geoidheight><course>52.6</course><type>1</type></trkpt>
      <trkpt lat="40.81681556" lon="-4.53537142"><ele>2903</ele><speed>15.11</speed><time>2016-06-30T15:06:46Z</time><pdop>3.0</pdop><geoidheight>53.00</geoidheight><course>56.1</course><type>1</type></trkpt>
      <trkpt lat="40.8168833" lon="-4.53522389"><ele>2904</ele><speed>14.72</speed><time>2016-06-30T15:06:47Z</time><pdop>3.0</pdop><geoidheight>53.00</geoidheight><course>57.4</course><type>1</type></trkpt>
      <trkpt lat="40.81695517" lon="-4.53507182"><ele>2904</ele><speed>14.92</speed><time>2016-06-30T15:06:48Z</time><pdop>3.0</pdop><geoidheight>53.00</geoidheight><course>56.6</course><type>1</type></trkpt>
      <trkpt lat="40.81704377" lon="-4.53493302"><ele>2906</ele><speed>15.04</speed><time>2016-06-30T15:06:49Z</time><pdop>3.0</pdop><geoidheight>53.00</geoidheight><course>53.9</course><type>1</type></trkpt>
      <trkpt lat="40.81711839" lon="-4.53479457"><ele>2908</ele><speed>14.51</speed><time>2016-06-30T15:06:50Z</time><pdop>3.0</pdop><geoidheight>53.00</geoidheight><course>53.5</course><type>1</type></trkpt>
      <trkpt lat="40.81718839" lon="-4.53466295"><ele>2909</ele><speed>13.98</speed><time>2016-06-30T15:06:51Z</time><pdop>3.0</pdop><geoidheight>53.00</geoidheight><course>56.8</course><type>1</type></trkpt>
      <trkpt lat="40.81724571" lon="-4.53451855"><ele>2912</ele><speed>13.80</speed><time>2016-06-30T15:06:52Z</time><pdop>3.0</pdop><geoidheight>53.00</geoidheight><course>62.8</course><type>1</type></trkpt>
      <trkpt lat="40.81728438" lon="-4.53437446"><ele>2913</ele><speed>13.00</speed><time>2016-06-30T15:06:53Z</time><pdop>3.0</pdop><geoidheight>53.00</geoidheight><course>69.9</course><type>1</type></trkpt>
      <trkpt lat="40.8173065" lon="-4.53422569"><ele>2913</ele><speed>12.77</speed><time>2016-06-30T15:06:54Z</time><pdop>3.0</pdop><geoidheight>53.00</geoidheight><course>75.2</course><type>1</type></trkpt>
      <trkpt lat="40.81733158" lon="-4.53407331"><ele>2907</ele><speed>13.08</speed><time>2016-06-30T15:06:55Z</time><pdop>3.0</pdop><geoidheight>53.00</geoidheight><course>76.2</course><type>1</type></trkpt>
      <trkpt lat="40.81737419" lon="-4.53391425"><ele>2909</ele><speed>14.33</speed><time>2016-06-30T15:06:56Z</time><pdop>3.0</pdop><geoidheight>53.00</geoidheight><course>72.7</course><type>1</type></trkpt>
      <trkpt lat="40.81744608" lon="-4.53374065"><ele>2908</ele><speed>16.22</speed><time>2016-06-30T15:06:57Z</time><pdop>3.0</pdop><geoidheight>53.00</geoidheight><course>65.8</course><type>1</type></trkpt>
      <trkpt lat="40.81752796" lon="-4.53356247"><ele>2906</ele><speed>17.49</speed><time>2016-06-30T15:06:58Z</time><pdop>3.0</pdop><geoidheight>53.00</geoidheight><course>59.7</course><type>1</type></trkpt>
      <trkpt lat="40.81763046" lon="-4.53338839"><ele>2906</ele><speed>17.99</speed><time>2016-06-30T15:06:59Z</time><pdop>3.0</pdop><geoidheight>53.00</geoidheight><course>54.6</course><type>1</type></trkpt>
      <trkpt lat="40.81773126" lon="-4.53322321"><ele>2906</ele><speed>17.64</speed><time>2016-06-30T15:07:00Z</time><pdop>3.0</pdop><geoidheight>53.00</geoidheight><course>54.3</course><type>1</type></trkpt>
      <trkpt lat="40.81779147" lon="-4.5330525"><ele>2906</ele><speed>16.49</speed><time>2016-06-30T15:07:01Z</time><pdop>3.0</pdop><geoidheight>53.00</geoidheight><course>58.4</course><type>1</type></trkpt>
      <trkpt lat="40.81785322" lon="-4.53289409"><ele>2904</ele><speed>15.65</speed><time>2016-06-30T15:07:02Z</time><pdop>3.0</pdop><geoidheight>53.00</geoidheight><course>60.9</course><type>1</type></trkpt>
      <trkpt lat="40.81791175" lon="-4.53274446"><ele>2902</ele><speed>15.06</speed><time>2016-06-30T15:07:03Z</time><pdop>3.0</pdop><geoidheight>53.00</geoidheight><course>60.1</course><type>1</type></trkpt>
      <trkpt lat="40.8179918" lon="-4.53259247"><ele>2899</ele><speed>15.65</speed><time>2016-06-30T15:07:04Z</time><pdop>4.0</pdop><geoidheight>53.00</geoidheight><course>57.6</course><type>1</type></trkpt>
      <trkpt lat="40.81806529" lon="-4.53242606"><ele>2895</ele><speed>16.89</speed><time>2016-06-30T15:07:05Z</time><pdop>3.0</pdop><geoidheight>53.00</geoidheight><course>58.3</course><type>1</type></trkpt>
      <trkpt lat="40.81813854" lon="-4.53224804"><ele>2892</ele><speed>17.11</speed><time>2016-06-30T15:07:06Z</time><pdop>3.0</pdop><geoidheight>53.00</geoidheight><course>60.4</course><type>1</type></trkpt>
      <trkpt lat="40.81820917" lon="-4.53206286"><ele>2892</ele><speed>17.03</speed><time>2016-06-30T15:07:07Z</time><pdop>3.0</pdop><geoidheight>53.00</geoidheight><course>62.6</course><type>1</type></trkpt>
      <trkpt lat="40.81826571" lon="-4.53188892"><ele>2892</ele><speed>16.33</speed><time>2016-06-30T15:07:08Z</time><pdop>3.0</pdop><geoidheight>53.00</geoidheight><course>64.5</course><type>1</type></trkpt>
      <trkpt lat="40.81831468" lon="-4.53171641"><ele>2890</ele><speed>16.29</speed><time>2016-06-30T15:07:09Z</time><pdop>3.0</pdop><geoidheight>53.00</geoidheight><course>65.2</course><type>1</type></trkpt>
      <trkpt lat="40.81837915" lon="-4.53153915"><ele>2890</ele><speed>16.53</speed><time>2016-06-30T15:07:10Z</time><pdop>3.0</pdop><geoidheight>53.00</geoidheight><course>64.6</course><type>1</type></trkpt>
      <trkpt lat="40.818449" lon="-4.53135404"><ele>2889</ele><speed>17.38</speed><time>2016-06-30T15:07:11Z</time><pdop>4.0</pdop><geoidheight>53.00</geoidheight><course>63.1</course><type>1</type></trkpt>
      <trkpt lat="40.81853256" lon="-4.53115175"><ele>2888</ele><speed>18.77</speed><time>2016-06-30T15:07:12Z</time><pdop>4.0</pdop><geoidheight>53.00</geoidheight><course>61.6</course><type>1</type></trkpt>
      <trkpt lat="40.81859973" lon="-4.53092749"><ele>2885</ele><speed>19.65</speed><time>2016-06-30T15:07:13Z</time><pdop>4.0</pdop><geoidheight>53.00</geoidheight><course>63.1</course><type>1</type></trkpt>
      <trkpt lat="40.81867726" lon="-4.53071122"><ele>2885</ele><speed>19.89</speed><time>2016-06-30T15:07:14Z</time><pdop>4.0</pdop><geoidheight>53.00</geoidheight><course>62.4</course><type>1</type></trkpt>
      <trkpt lat="40.81875603" lon="-4.5305113"><ele>2884</ele><speed>19.34</speed><time>2016-06-30T15:07:15Z</time><pdop>4.0</pdop><geoidheight>53.00</geoidheight><course>62.4</course><type>1</type></trkpt>
      <trkpt lat="40.81882315" lon="-4.53031468"><ele>2885</ele><speed>18.57</speed><time>2016-06-30T15:07:16Z</time><pdop>4.0</pdop><geoidheight>53.00</geoidheight><course>62.7</course><type>1</type></trkpt>
      <trkpt lat="40.81891066" lon="-4.53012344"><ele>2886</ele><speed>18.25</speed><time>2016-06-30T15:07:17Z</time><pdop>4.0</pdop><geoidheight>53.00</geoidheight><course>61.6</course><type>1</type></trkpt>
      <trkpt lat="40.81898903" lon="-4.52994837"><ele>2884</ele><speed>18.13</speed><time>2016-06-30T15:07:18Z</time><pdop>3.0</pdop><geoidheight>53.00</geoidheight><course>62.1</course><type>1</type></trkpt>
      <trkpt lat="40.81908906" lon="-4.52975631"><ele>2883</ele><speed>19.09</speed><time>2016-06-30T15:07:19Z</time><pdop>3.0</pdop><geoidheight>53.00</geoidheight><course>60.8</course><type>1</type></trkpt>
      <trkpt lat="40.81917163" lon="-4.52955657"><ele>2882</ele><speed>19.23</speed><time>2016-06-30T15:07:20Z</time><pdop>4.0</pdop><geoidheight>53.00</geoidheight><course>61.0</course><type>1</type></trkpt>
      <trkpt lat="40.81926873" lon="-4.52936226"><ele>2882</ele><speed>19.75</speed><time>2016-06-30T15:07:21Z</time><pdop>5.0</pdop><geoidheight>53.00</geoidheight><course>59.8</course><type>1</type></trkpt>
      <trkpt lat="40.81935365" lon="-4.52911531"><ele>2880</ele><speed>21.41</speed><time>2016-06-30T15:07:22Z</time><pdop>4.0</pdop><geoidheight>53.00</geoidheight><course>60.3</course><type>1</type></trkpt>
      <trkpt lat="40.81945762" lon="-4.52892428"><ele>2878</ele><speed>20.31</speed><time>2016-06-30T15:07:23Z</time><pdop>4.0</pdop><geoidheight>53.00</geoidheight><course>59.0</course><type>1</type></trkpt>
      <trkpt lat="40.81953824" lon="-4.52873128"><ele>2879</ele><speed>18.76</speed><time>2016-06-30T15:07:24Z</time><pdop>3.0</pdop><geoidheight>53.00</geoidheight><course>57.5</course><type>1</type></trkpt>
      <trkpt lat="40.81963213" lon="-4.52854513"><ele>2894</ele><speed>17.77</speed><time>2016-06-30T15:07:25Z</time><pdop>3.0</pdop><geoidheight>53.00</geoidheight><course>56.1</course><type>1</type></trkpt>
      <trkpt lat="40.81972068" lon="-4.52836615"><ele>2888</ele><speed>17.60</speed><time>2016-06-30T15:07:26Z</time><pdop>3.0</pdop><geoidheight>53.00</geoidheight><course>56.1</course><type>1</type></trkpt>
      <trkpt lat="40.81979762" lon="-4.52819385"><ele>2885</ele><speed>17.12</speed><time>2016-06-30T15:07:27Z</time><pdop>3.0</pdop><geoidheight>53.00</geoidheight><course>58.3</course><type>1</type></trkpt>
      <trkpt lat="40.81985896" lon="-4.52800857"><ele>2884</ele><speed>16.62</speed><time>2016-06-30T15:07:28Z</time><pdop>3.0</pdop><geoidheight>53.00</geoidheight><course>62.1</course><type>1</type></trkpt>
      <trkpt lat="40.81992462" lon="-4.52784112"><ele>2882</ele><speed>16.18</speed><time>2016-06-30T15:07:29Z</time><pdop>3.0</pdop><geoidheight>53.00</geoidheight><course>64.1</course><type>1</type></trkpt>
      <trkpt lat="40.81997169" lon="-4.52767578"><ele>2880</ele><speed>15.27</speed><time>2016-06-30T15:07:30Z</time><pdop>3.0</pdop><geoidheight>53.00</geoidheight><course>64.8</course><type>1</type></trkpt>
      <trkpt lat="40.82002737" lon="-4.52751039"><ele>2877</ele><speed>15.10</speed><time>2016-06-30T15:07:31Z</time><pdop>3.0</pdop><geoidheight>53.00</geoidheight><course>64.8</course><type>1</type></trkpt>
      <trkpt lat="40.82008502" lon="-4.52735087"><ele>2873</ele><speed>15.93</speed><time>2016-06-30T15:07:32Z</time><pdop>3.0</pdop><geoidheight>53.00</geoidheight><course>64.2</course><type>1</type></trkpt>
      <trkpt lat="40.8201518" lon="-4.52718846"><ele>2871</ele><speed>16.06</speed><time>2016-06-30T15:07:33Z</time><pdop>3.0</pdop><geoidheight>53.00</geoidheight><course>63.3</course><type>1</type></trkpt>
      <trkpt lat="40.82022875" lon="-4.52701906"><ele>2869</ele><speed>17.10</speed><time>2016-06-30T15:07:34Z</time><pdop>4.0</pdop><geoidheight>53.00</geoidheight><course>62.1</course><type>1</type></trkpt>
      <trkpt lat="40.82032006" lon="-4.52684008"><ele>2868</ele><speed>17.97</speed><time>2016-06-30T15:07:35Z</time><pdop>6.0</pdop><geoidheight>53.00</geoidheight><course>60.0</course><type>1</type></trkpt>
      <trkpt lat="40.82045089" lon="-4.52666357"><ele>2865</ele><speed>19.09</speed><time>2016-06-30T15:07:36Z</time><pdop>5.0</pdop><geoidheight>53.00</geoidheight><course>53.4</course><type>1</type></trkpt>
      <trkpt lat="40.82054225" lon="-4.52648458"><ele>2864</ele><speed>18.53</speed><time>2016-06-30T15:07:37Z</time><pdop>6.0</pdop><geoidheight>53.00</geoidheight><course>52.9</course><type>1</type></trkpt>
      <trkpt lat="40.82061811" lon="-4.52633904"><ele>2860</ele><speed>17.25</speed><time>2016-06-30T15:07:38Z</time><pdop>5.0</pdop><geoidheight>53.00</geoidheight><course>56.5</course><type>1</type></trkpt>
      <trkpt lat="40.82068005" lon="-4.52617676"><ele>2857</ele><speed>16.77</speed><time>2016-06-30T15:07:39Z</time><pdop>5.0</pdop><geoidheight>53.00</geoidheight><course>58.3</course><type>1</type></trkpt>
      <trkpt lat="40.8207576" lon="-4.52600714"><ele>2854</ele><speed>16.76</speed><time>2016-06-30T15:07:40Z</time><pdop>5.0</pdop><geoidheight>53.00</geoidheight><course>59.5</course><type>1</type></trkpt>
      <trkpt lat="40.82081858" lon="-4.52583355"><ele>2849</ele><speed>16.41</speed><time>2016-06-30T15:07:41Z</time><pdop>5.0</pdop><geoidheight>53.00</geoidheight><course>61.6</course><type>1</type></trkpt>
      <trkpt lat="40.8208952" lon="-4.52565493"><ele>2844</ele><speed>17.53</speed><time>2016-06-30T15:07:42Z</time><pdop>5.0</pdop><geoidheight>53.00</geoidheight><course>60.9</course><type>1</type></trkpt>
      <trkpt lat="40.82098325" lon="-4.52546012"><ele>2839</ele><speed>19.15</speed><time>2016-06-30T15:07:43Z</time><pdop>5.0</pdop><geoidheight>53.00</geoidheight><course>59.9</course><type>1</type></trkpt>
      <trkpt lat="40.82107231" lon="-4.52525717"><ele>2834</ele><speed>20.47</speed><time>2016-06-30T15:07:44Z</time><pdop>6.0</pdop><geoidheight>53.00</geoidheight><course>61.5</course><type>1</type></trkpt>
      <trkpt lat="40.82117076" lon="-4.52504624"><ele>2832</ele><speed>20.44</speed><time>2016-06-30T15:07:45Z</time><pdop>8.0</pdop><geoidheight>53.00</geoidheight><course>60.6</course><type>1</type></trkpt>
      <trkpt lat="40.8212517" lon="-4.52482666"><ele>2835</ele><speed>20.39</speed><time>2016-06-30T15:07:46Z</time><pdop>6.0</pdop><geoidheight>53.00</geoidheight><course>61.5</course><type>1</type></trkpt>
      <trkpt lat="40.82133487" lon="-4.52461067"><ele>2836</ele><speed>20.12</speed><time>2016-06-30T15:07:47Z</time><pdop>7.0</pdop><geoidheight>53.00</geoidheight><course>62.0</course><type>1</type></trkpt>
      <trkpt lat="40.82140367" lon="-4.52441581"><ele>2837</ele><speed>18.85</speed><time>2016-06-30T15:07:48Z</time><pdop>9.0</pdop><geoidheight>53.00</geoidheight><course>63.8</course><type>1</type></trkpt>
      <trkpt lat="40.82147223" lon="-4.52406986"><ele>2836</ele><speed>15.24</speed><time>2016-06-30T15:07:50Z</time><pdop>7.0</pdop><geoidheight>53.00</geoidheight><course>69.1</course><type>1</type></trkpt>
      <trkpt lat="40.82152651" lon="-4.52390042"><ele>2836</ele><speed>15.35</speed><time>2016-06-30T15:07:51Z</time><pdop>6.0</pdop><geoidheight>53.00</geoidheight><course>68.5</course><type>1</type></trkpt>
      <trkpt lat="40.82157815" lon="-4.52373826"><ele>2836</ele><speed>15.35</speed><time>2016-06-30T15:07:52Z</time><pdop>6.0</pdop><geoidheight>53.00</geoidheight><course>67.5</course><type>1</type></trkpt>
      <trkpt lat="40.82163235" lon="-4.52356798"><ele>2835</ele><speed>15.42</speed><time>2016-06-30T15:07:53Z</time><pdop>5.0</pdop><geoidheight>53.00</geoidheight><course>66.0</course><type>1</type></trkpt>
      <trkpt lat="40.82169811" lon="-4.52340167"><ele>2833</ele><speed>16.27</speed><time>2016-06-30T15:07:54Z</time><pdop>10.0</pdop><geoidheight>53.00</geoidheight><course>62.6</course><type>1</type></trkpt>
      <trkpt lat="40.82185711" lon="-4.52306162"><ele>2831</ele><speed>17.07</speed><time>2016-06-30T15:07:56Z</time><pdop>11.0</pdop><geoidheight>53.00</geoidheight><course>59.6</course><type>1</type></trkpt>
      <trkpt lat="40.82196307" lon="-4.52282897"><ele>2830</ele><speed>19.78</speed><time>2016-06-30T15:07:57Z</time><pdop>11.0</pdop><geoidheight>53.00</geoidheight><course>58.3</course><type>1</type></trkpt>
      <trkpt lat="40.8221252" lon="-4.52246614"><ele>2827</ele><speed>18.23</speed><time>2016-06-30T15:07:59Z</time><pdop>10.0</pdop><geoidheight>53.00</geoidheight><course>58.9</course><type>1</type></trkpt>
      <trkpt lat="40.82228018" lon="-4.52211021"><ele>2825</ele><speed>16.92</speed><time>2016-06-30T15:08:01Z</time><pdop>10.0</pdop><geoidheight>53.00</geoidheight><course>61.2</course><type>1</type></trkpt>
      <trkpt lat="40.82242387" lon="-4.52179289"><ele>2817</ele><speed>16.63</speed><time>2016-06-30T15:08:03Z</time><pdop>9.0</pdop><geoidheight>53.00</geoidheight><course>59.7</course><type>1</type></trkpt>
      <trkpt lat="40.8226234" lon="-4.52150215"><ele>2809</ele><speed>17.23</speed><time>2016-06-30T15:08:05Z</time><pdop>9.0</pdop><geoidheight>53.00</geoidheight><course>48.7</course><type>1</type></trkpt>
      <trkpt lat="40.82272512" lon="-4.52133278"><ele>2807</ele><speed>17.42</speed><time>2016-06-30T15:08:06Z</time><pdop>9.0</pdop><geoidheight>53.00</geoidheight><course>51.3</course><type>1</type></trkpt>
      <trkpt lat="40.82281948" lon="-4.52115465"><ele>2805</ele><speed>18.06</speed><time>2016-06-30T15:08:07Z</time><pdop>9.0</pdop><geoidheight>53.00</geoidheight><course>53.4</course><type>1</type></trkpt>
      <trkpt lat="40.82299119" lon="-4.52082396"><ele>2804</ele><speed>17.18</speed><time>2016-06-30T15:08:09Z</time><pdop>10.0</pdop><geoidheight>53.00</geoidheight><course>57.1</course><type>1</type></trkpt>
      <trkpt lat="40.82316467" lon="-4.52051714"><ele>2801</ele><speed>16.07</speed><time>2016-06-30T15:08:11Z</time><pdop>9.0</pdop><geoidheight>53.00</geoidheight><course>55.3</course><type>1</type></trkpt>
      <trkpt lat="40.82330845" lon="-4.52022059"><ele>2797</ele><speed>15.59</speed><time>2016-06-30T15:08:13Z</time><pdop>9.0</pdop><geoidheight>53.00</geoidheight><course>56.4</course><type>1</type></trkpt>
      <trkpt lat="40.82345376" lon="-4.51988831"><ele>2768</ele><speed>15.97</speed><time>2016-06-30T15:08:15Z</time><pdop>10.0</pdop><geoidheight>53.00</geoidheight><course>58.4</course><type>1</type></trkpt>
      <trkpt lat="40.82360354" lon="-4.51957095"><ele>2776</ele><speed>15.89</speed><time>2016-06-30T15:08:17Z</time><pdop>9.0</pdop><geoidheight>53.00</geoidheight><course>56.4</course><type>1</type></trkpt>
      <trkpt lat="40.82373838" lon="-4.51927953"><ele>2776</ele><speed>14.29</speed><time>2016-06-30T15:08:19Z</time><pdop>9.0</pdop><geoidheight>53.00</geoidheight><course>59.2</course><type>1</type></trkpt>
      <trkpt lat="40.82385653" lon="-4.51898357"><ele>2775</ele><speed>14.64</speed><time>2016-06-30T15:08:21Z</time><pdop>9.0</pdop><geoidheight>53.00</geoidheight><course>62.1</course><type>1</type></trkpt>
      <trkpt lat="40.82393741" lon="-4.51861958"><ele>2734</ele><speed>16.06</speed><time>2016-06-30T15:08:23Z</time><pdop>10.0</pdop><geoidheight>53.00</geoidheight><course>69.7</course><type>1</type></trkpt>
      <trkpt lat="40.82404074" lon="-4.51828216"><ele>2750</ele><speed>16.71</speed><time>2016-06-30T15:08:25Z</time><pdop>10.0</pdop><geoidheight>53.00</geoidheight><course>70.5</course><type>1</type></trkpt>
      <trkpt lat="40.82405099" lon="-4.51790628"><ele>2753</ele><speed>14.33</speed><time>2016-06-30T15:08:27Z</time><pdop>10.0</pdop><geoidheight>53.00</geoidheight><course>75.7</course><type>1</type></trkpt>
      <trkpt lat="40.82408737" lon="-4.51759033"><ele>2753</ele><speed>14.38</speed><time>2016-06-30T15:08:29Z</time><pdop>10.0</pdop><geoidheight>53.00</geoidheight><course>77.5</course><type>1</type></trkpt>
      <trkpt lat="40.82415004" lon="-4.5172023"><ele>2748</ele><speed>17.60</speed><time>2016-06-30T15:08:31Z</time><pdop>9.0</pdop><geoidheight>53.00</geoidheight><course>76.2</course><type>1</type></trkpt>
      <trkpt lat="40.82425694" lon="-4.51680889"><ele>2747</ele><speed>17.23</speed><time>2016-06-30T15:08:33Z</time><pdop>9.0</pdop><geoidheight>53.00</geoidheight><course>70.9</course><type>1</type></trkpt>
      <trkpt lat="40.82434512" lon="-4.5164779"><ele>2745</ele><speed>14.35</speed><time>2016-06-30T15:08:35Z</time><pdop>9.0</pdop><geoidheight>53.00</geoidheight><course>72.3</course><type>1</type></trkpt>
      <trkpt lat="40.82443016" lon="-4.51616848"><ele>2742</ele><speed>14.11</speed><time>2016-06-30T15:08:37Z</time><pdop>9.0</pdop><geoidheight>53.00</geoidheight><course>69.8</course><type>1</type></trkpt>
      <trkpt lat="40.82456027" lon="-4.51591441"><ele>2739</ele><speed>13.90</speed><time>2016-06-30T15:08:39Z</time><pdop>11.0</pdop><geoidheight>53.00</geoidheight><course>60.0</course><type>1</type></trkpt>
      <trkpt lat="40.82473163" lon="-4.51554948"><ele>2736</ele><speed>17.06</speed><time>2016-06-30T15:08:41Z</time><pdop>12.0</pdop><geoidheight>53.00</geoidheight><course>58.7</course><type>1</type></trkpt>
      <trkpt lat="40.82490029" lon="-4.51518215"><ele>2730</ele><speed>17.60</speed><time>2016-06-30T15:08:43Z</time><pdop>11.0</pdop><geoidheight>53.00</geoidheight><course>60.0</course><type>1</type></trkpt>
      <trkpt lat="40.8250703" lon="-4.51488458"><ele>2725</ele><speed>15.33</speed><time>2016-06-30T15:08:45Z</time><pdop>12.0</pdop><geoidheight>53.00</geoidheight><course>55.5</course><type>1</type></trkpt>
      <trkpt lat="40.82528464" lon="-4.51457473"><ele>2722</ele><speed>17.00</speed><time>2016-06-30T15:08:47Z</time><pdop>14.0</pdop><geoidheight>53.00</geoidheight><course>51.3</course><type>1</type></trkpt>
      <trkpt lat="40.8255234" lon="-4.51412638"><ele>2717</ele><speed>20.29</speed><time>2016-06-30T15:08:49Z</time><pdop>13.0</pdop><geoidheight>53.00</geoidheight><course>55.3</course><type>1</type></trkpt>
      <trkpt lat="40.8256781" lon="-4.51386236"><ele>2703</ele><speed>17.88</speed><time>2016-06-30T15:08:51Z</time><pdop>11.0</pdop><geoidheight>53.00</geoidheight><course>50.1</course><type>1</type></trkpt>
      <trkpt lat="40.82583252" lon="-4.51358708"><ele>2689</ele><speed>16.16</speed><time>2016-06-30T15:08:53Z</time><pdop>11.0</pdop><geoidheight>53.00</geoidheight><course>47.4</course><type>1</type></trkpt>
      <trkpt lat="40.82600231" lon="-4.51331987"><ele>2674</ele><speed>16.82</speed><time>2016-06-30T15:08:55Z</time><pdop>10.0</pdop><geoidheight>53.00</geoidheight><course>47.7</course><type>1</type></trkpt>
      <trkpt lat="40.82620177" lon="-4.51300182"><ele>2661</ele><speed>18.85</speed><time>2016-06-30T15:08:57Z</time><pdop>10.0</pdop><geoidheight>53.00</geoidheight><course>51.0</course><type>1</type></trkpt>
      <trkpt lat="40.8264196" lon="-4.51267486"><ele>2653</ele><speed>18.29</speed><time>2016-06-30T15:08:59Z</time><pdop>11.0</pdop><geoidheight>53.00</geoidheight><course>50.2</course><type>1</type></trkpt>
      <trkpt lat="40.82661765" lon="-4.5123788"><ele>2647</ele><speed>17.00</speed><time>2016-06-30T15:09:01Z</time><pdop>11.0</pdop><geoidheight>53.00</geoidheight><course>50.0</course><type>1</type></trkpt>
      <trkpt lat="40.82679124" lon="-4.51206869"><ele>2641</ele><speed>16.16</speed><time>2016-06-30T15:09:03Z</time><pdop>11.0</pdop><geoidheight>53.00</geoidheight><course>52.3</course><type>1</type></trkpt>
      <trkpt lat="40.82690758" lon="-4.51170283"><ele>2629</ele><speed>18.10</speed><time>2016-06-30T15:09:05Z</time><pdop>10.0</pdop><geoidheight>53.00</geoidheight><course>62.6</course><type>1</type></trkpt>
      <trkpt lat="40.82702664" lon="-4.51132051"><ele>2622</ele><speed>17.42</speed><time>2016-06-30T15:09:07Z</time><pdop>10.0</pdop><geoidheight>53.00</geoidheight><course>71.0</course><type>1</type></trkpt>
      <trkpt lat="40.82711553" lon="-4.51102214"><ele>2455</ele><speed>14.58</speed><time>2016-06-30T15:09:09Z</time><pdop>10.0</pdop><geoidheight>53.00</geoidheight><course>68.8</course><type>1</type></trkpt>
      <trkpt lat="40.82722386" lon="-4.51074647"><ele>2524</ele><speed>13.36</speed><time>2016-06-30T15:09:11Z</time><pdop>10.0</pdop><geoidheight>53.00</geoidheight><course>63.3</course><type>1</type></trkpt>
      <trkpt lat="40.82738428" lon="-4.51046251"><ele>2539</ele><speed>14.66</speed><time>2016-06-30T15:09:13Z</time><pdop>11.0</pdop><geoidheight>53.00</geoidheight><course>55.4</course><type>1</type></trkpt>
      <trkpt lat="40.82759345" lon="-4.51001476"><ele>2542</ele><speed>19.99</speed><time>2016-06-30T15:09:15Z</time><pdop>13.0</pdop><geoidheight>53.00</geoidheight><course>56.2</course><type>1</type></trkpt>
      <trkpt lat="40.82778992" lon="-4.50958975"><ele>2552</ele><speed>19.81</speed><time>2016-06-30T15:09:17Z</time><pdop>12.0</pdop><geoidheight>53.00</geoidheight><course>57.9</course><type>1</type></trkpt>
      <trkpt lat="40.82790451" lon="-4.50924228"><ele>2557</ele><speed>18.57</speed><time>2016-06-30T15:09:19Z</time><pdop>11.0</pdop><geoidheight>53.00</geoidheight><course>65.1</course><type>1</type></trkpt>
      <trkpt lat="40.82802828" lon="-4.50886097"><ele>2561</ele><speed>18.57</speed><time>2016-06-30T15:09:21Z</time><pdop>10.0</pdop><geoidheight>53.00</geoidheight><course>68.4</course><type>1</type></trkpt>
      <trkpt lat="40.82812946" lon="-4.50844155"><ele>2562</ele><speed>19.32</speed><time>2016-06-30T15:09:23Z</time><pdop>10.0</pdop><geoidheight>53.00</geoidheight><course>69.7</course><type>1</type></trkpt>
      <trkpt lat="40.82820688" lon="-4.50800874"><ele>2564</ele><speed>18.31</speed><time>2016-06-30T15:09:25Z</time><pdop>10.0</pdop><geoidheight>53.00</geoidheight><course>73.2</course><type>1</type></trkpt>
      <trkpt lat="40.82830317" lon="-4.50762154"><ele>2562</ele><speed>17.67</speed><time>2016-06-30T15:09:27Z</time><pdop>10.0</pdop><geoidheight>53.00</geoidheight><course>72.2</course><type>1</type></trkpt>
      <trkpt lat="40.82843713" lon="-4.50724973"><ele>2559</ele><speed>17.53</speed><time>2016-06-30T15:09:29Z</time><pdop>9.0</pdop><geoidheight>53.00</geoidheight><course>63.3</course><type>1</type></trkpt>
      <trkpt lat="40.82856737" lon="-4.50686748"><ele>2556</ele><speed>18.13</speed><time>2016-06-30T15:09:31Z</time><pdop>10.0</pdop><geoidheight>53.00</geoidheight><course>63.4</course><type>1</type></trkpt>
      <trkpt lat="40.82876166" lon="-4.50651139"><ele>2544</ele><speed>19.38</speed><time>2016-06-30T15:09:33Z</time><pdop>9.0</pdop><geoidheight>53.00</geoidheight><course>58.1</course><type>1</type></trkpt>
      <trkpt lat="40.82884675" lon="-4.50632802"><ele>2539</ele><speed>19.33</speed><time>2016-06-30T15:09:34Z</time><pdop>9.0</pdop><geoidheight>53.00</geoidheight><course>59.5</course><type>1</type></trkpt>
      <trkpt lat="40.8289325" lon="-4.50613352"><ele>2535</ele><speed>18.96</speed><time>2016-06-30T15:09:35Z</time><pdop>9.0</pdop><geoidheight>53.00</geoidheight><course>59.3</course><type>1</type></trkpt>
      <trkpt lat="40.82901602" lon="-4.50594803"><ele>2533</ele><speed>18.42</speed><time>2016-06-30T15:09:36Z</time><pdop>9.0</pdop><geoidheight>53.00</geoidheight><course>59.6</course><type>1</type></trkpt>
      <trkpt lat="40.82917409" lon="-4.50558301"><ele>2526</ele><speed>17.81</speed><time>2016-06-30T15:09:38Z</time><pdop>9.0</pdop><geoidheight>53.00</geoidheight><course>60.8</course><type>1</type></trkpt>
      <trkpt lat="40.82930661" lon="-4.50521951"><ele>2518</ele><speed>17.34</speed><time>2016-06-30T15:09:40Z</time><pdop>9.0</pdop><geoidheight>53.00</geoidheight><course>64.0</course><type>1</type></trkpt>
      <trkpt lat="40.82943702" lon="-4.50489488"><ele>2510</ele><speed>15.92</speed><time>2016-06-30T15:09:42Z</time><pdop>9.0</pdop><geoidheight>53.00</geoidheight><course>62.0</course><type>1</type></trkpt>
      <trkpt lat="40.82955422" lon="-4.50456001"><ele>2505</ele><speed>15.84</speed><time>2016-06-30T15:09:44Z</time><pdop>9.0</pdop><geoidheight>53.00</geoidheight><course>64.8</course><type>1</type></trkpt>
      <trkpt lat="40.82968881" lon="-4.50421604"><ele>2502</ele><speed>16.02</speed><time>2016-06-30T15:09:46Z</time><pdop>9.0</pdop><geoidheight>53.00</geoidheight><course>66.9</course><type>1</type></trkpt>
      <trkpt lat="40.82977998" lon="-4.50390147"><ele>2499</ele><speed>14.22</speed><time>2016-06-30T15:09:48Z</time><pdop>9.0</pdop><geoidheight>53.00</geoidheight><course>68.3</course><type>1</type></trkpt>
      <trkpt lat="40.82989215" lon="-4.50360074"><ele>2496</ele><speed>14.46</speed><time>2016-06-30T15:09:50Z</time><pdop>10.0</pdop><geoidheight>53.00</geoidheight><course>64.1</course><type>1</type></trkpt>
      <trkpt lat="40.83005171" lon="-4.50326391"><ele>2493</ele><speed>16.87</speed><time>2016-06-30T15:09:52Z</time><pdop>10.0</pdop><geoidheight>53.00</geoidheight><course>59.6</course><type>1</type></trkpt>
      <trkpt lat="40.83019133" lon="-4.50287202"><ele>2486</ele><speed>18.02</speed><time>2016-06-30T15:09:54Z</time><pdop>10.0</pdop><geoidheight>53.00</geoidheight><course>60.9</course><type>1</type></trkpt>
      <trkpt lat="40.83031784" lon="-4.50256202"><ele>2482</ele><speed>14.86</speed><time>2016-06-30T15:09:56Z</time><pdop>9.0</pdop><geoidheight>53.00</geoidheight><course>61.9</course><type>1</type></trkpt>
      <trkpt lat="40.83043018" lon="-4.50229509"><ele>2474</ele><speed>13.30</speed><time>2016-06-30T15:09:58Z</time><pdop>9.0</pdop><geoidheight>53.00</geoidheight><course>62.6</course><type>1</type></trkpt>
      <trkpt lat="40.83055688" lon="-4.501992"><ele>2465</ele><speed>15.30</speed><time>2016-06-30T15:10:00Z</time><pdop>9.0</pdop><geoidheight>53.00</geoidheight><course>61.2</course><type>1</type></trkpt>
      <trkpt lat="40.83070583" lon="-4.50167083"><ele>2459</ele><speed>16.11</speed><time>2016-06-30T15:10:02Z</time><pdop>9.0</pdop><geoidheight>53.00</geoidheight><course>60.8</course><type>1</type></trkpt>
      <trkpt lat="40.83083864" lon="-4.50131924"><ele>2454</ele><speed>16.45</speed><time>2016-06-30T15:10:04Z</time><pdop>10.0</pdop><geoidheight>53.00</geoidheight><course>61.4</course><type>1</type></trkpt>
      <trkpt lat="40.83096398" lon="-4.50095357"><ele>2449</ele><speed>16.93</speed><time>2016-06-30T15:10:06Z</time><pdop>9.0</pdop><geoidheight>53.00</geoidheight><course>64.8</course><type>1</type></trkpt>
      <trkpt lat="40.83108749" lon="-4.50062916"><ele>2439</ele><speed>16.85</speed><time>2016-06-30T15:10:08Z</time><pdop>9.0</pdop><geoidheight>53.00</geoidheight><course>62.8</course><type>1</type></trkpt>
      <trkpt lat="40.83121526" lon="-4.50028749"><ele>2430</ele><speed>16.93</speed><time>2016-06-30T15:10:10Z</time><pdop>9.0</pdop><geoidheight>53.00</geoidheight><course>61.0</course><type>1</type></trkpt>
      <trkpt lat="40.83135472" lon="-4.49996178"><ele>2420</ele><speed>16.31</speed><time>2016-06-30T15:10:12Z</time><pdop>9.0</pdop><geoidheight>53.00</geoidheight><course>59.0</course><type>1</type></trkpt>
      <trkpt lat="40.8315195" lon="-4.49964339"><ele>2408</ele><speed>17.73</speed><time>2016-06-30T15:10:14Z</time><pdop>9.0</pdop><geoidheight>53.00</geoidheight><course>56.1</course><type>1</type></trkpt>
      <trkpt lat="40.83171424" lon="-4.4992977"><ele>2397</ele><speed>19.09</speed><time>2016-06-30T15:10:16Z</time><pdop>9.0</pdop><geoidheight>53.00</geoidheight><course>53.0</course><type>1</type></trkpt>
      <trkpt lat="40.83181174" lon="-4.49911107"><ele>2396</ele><speed>19.29</speed><time>2016-06-30T15:10:17Z</time><pdop>9.0</pdop><geoidheight>53.00</geoidheight><course>54.8</course><type>1</type></trkpt>
      <trkpt lat="40.83190373" lon="-4.49892083"><ele>2395</ele><speed>18.99</speed><time>2016-06-30T15:10:18Z</time><pdop>9.0</pdop><geoidheight>53.00</geoidheight><course>57.9</course><type>1</type></trkpt>
      <trkpt lat="40.83198191" lon="-4.498733"><ele>2396</ele><speed>18.18</speed><time>2016-06-30T15:10:19Z</time><pdop>9.0</pdop><geoidheight>53.00</geoidheight><course>60.8</course><type>1</type></trkpt>
      <trkpt lat="40.83212305" lon="-4.49839307"><ele>2400</ele><speed>15.78</speed><time>2016-06-30T15:10:21Z</time><pdop>9.0</pdop><geoidheight>53.00</geoidheight><course>60.7</course><type>1</type></trkpt>
      <trkpt lat="40.83223387" lon="-4.49811967"><ele>2406</ele><speed>12.77</speed><time>2016-06-30T15:10:23Z</time><pdop>9.0</pdop><geoidheight>53.00</geoidheight><course>63.3</course><type>1</type></trkpt>
      <trkpt lat="40.83231056" lon="-4.49787801"><ele>2407</ele><speed>11.23</speed><time>2016-06-30T15:10:25Z</time><pdop>9.0</pdop><geoidheight>53.00</geoidheight><course>66.2</course><type>1</type></trkpt>
      <trkpt lat="40.83240719" lon="-4.49765153"><ele>2409</ele><speed>11.06</speed><time>2016-06-30T15:10:27Z</time><pdop>9.0</pdop><geoidheight>53.00</geoidheight><course>60.9</course><type>1</type></trkpt>
      <trkpt lat="40.8324847" lon="-4.49741825"><ele>2412</ele><speed>10.74</speed><time>2016-06-30T15:10:29Z</time><pdop>9.0</pdop><geoidheight>53.00</geoidheight><course>67.2</course><type>1</type></trkpt>
      <trkpt lat="40.83253922" lon="-4.49717579"><ele>2415</ele><speed>10.91</speed><time>2016-06-30T15:10:31Z</time><pdop>9.0</pdop><geoidheight>53.00</geoidheight><course>73.7</course><type>1</type></trkpt>
      <trkpt lat="40.83258198" lon="-4.49689662"><ele>2415</ele><speed>11.99</speed><time>2016-06-30T15:10:33Z</time><pdop>9.0</pdop><geoidheight>53.00</geoidheight><course>76.1</course><type>1</type></trkpt>
      <trkpt lat="40.83264933" lon="-4.49659507"><ele>2417</ele><speed>13.19</speed><time>2016-06-30T15:10:35Z</time><pdop>9.0</pdop><geoidheight>53.00</geoidheight><course>73.9</course><type>1</type></trkpt>
      <trkpt lat="40.83271321" lon="-4.496305"><ele>2420</ele><speed>12.73</speed><time>2016-06-30T15:10:37Z</time><pdop>9.0</pdop><geoidheight>53.00</geoidheight><course>76.5</course><type>1</type></trkpt>
      <trkpt lat="40.83270232" lon="-4.49602907"><ele>2420</ele><speed>11.52</speed><time>2016-06-30T15:10:39Z</time><pdop>9.0</pdop><geoidheight>53.00</geoidheight><course>90.3</course><type>1</type></trkpt>
      <trkpt lat="40.83257381" lon="-4.49573495"><ele>2421</ele><speed>13.75</speed><time>2016-06-30T15:10:41Z</time><pdop>9.0</pdop><geoidheight>53.00</geoidheight><course>120.7</course><type>1</type></trkpt>
      <trkpt lat="40.83248969" lon="-4.49559897"><ele>2423</ele><speed>14.85</speed><time>2016-06-30T15:10:42Z</time><pdop>3.0</pdop><geoidheight>53.00</geoidheight><course>131.5</course><type>1</type></trkpt>
      <trkpt lat="40.8323894" lon="-4.49548234"><ele>2424</ele><speed>14.91</speed><time>2016-06-30T15:10:43Z</time><pdop>3.0</pdop><geoidheight>53.00</geoidheight><course>139.8</course><type>1</type></trkpt>
      <trkpt lat="40.83228652" lon="-4.49538914"><ele>2424</ele><speed>14.22</speed><time>2016-06-30T15:10:44Z</time><pdop>3.0</pdop><geoidheight>53.00</geoidheight><course>149.0</course><type>1</type></trkpt>
      <trkpt lat="40.83217124" lon="-4.49534495"><ele>2428</ele><speed>13.84</speed><time>2016-06-30T15:10:45Z</time><pdop>3.0</pdop><geoidheight>53.00</geoidheight><course>161.1</course><type>1</type></trkpt>
      <trkpt lat="40.83205555" lon="-4.49530736"><ele>2430</ele><speed>13.43</speed><time>2016-06-30T15:10:46Z</time><pdop>3.0</pdop><geoidheight>53.00</geoidheight><course>163.9</course><type>1</type></trkpt>
      <trkpt lat="40.83196348" lon="-4.49528317"><ele>2431</ele><speed>11.86</speed><time>2016-06-30T15:10:47Z</time><pdop>4.0</pdop><geoidheight>53.00</geoidheight><course>166.1</course><type>1</type></trkpt>
      <trkpt lat="40.83188308" lon="-4.49530725"><ele>2432</ele><speed>9.97</speed><time>2016-06-30T15:10:48Z</time><pdop>4.0</pdop><geoidheight>53.00</geoidheight><course>176.4</course><type>1</type></trkpt>
      <trkpt lat="40.83179361" lon="-4.49530164"><ele>2433</ele><speed>9.36</speed><time>2016-06-30T15:10:49Z</time><pdop>5.0</pdop><geoidheight>53.00</geoidheight><course>178.1</course><type>1</type></trkpt>
      <trkpt lat="40.83168556" lon="-4.49541029"><ele>2433</ele><speed>7.93</speed><time>2016-06-30T15:10:51Z</time><pdop>4.0</pdop><geoidheight>53.00</geoidheight><course>205.5</course><type>1</type></trkpt>
      <trkpt lat="40.83162096" lon="-4.49554199"><ele>2434</ele><speed>7.05</speed><time>2016-06-30T15:10:53Z</time><pdop>5.0</pdop><geoidheight>53.00</geoidheight><course>243.1</course><type>1</type></trkpt>
      <trkpt lat="40.83159569" lon="-4.4956986"><ele>2430</ele><speed>6.96</speed><time>2016-06-30T15:10:55Z</time><pdop>7.0</pdop><geoidheight>53.00</geoidheight><course>255.9</course><type>1</type></trkpt>
      <trkpt lat="40.83180021" lon="-4.49570025"><ele>2434</ele><speed>4.73</speed><time>2016-06-30T15:10:58Z</time><pdop>8.0</pdop><geoidheight>53.00</geoidheight><course>348.7</course><type>1</type></trkpt>
      <trkpt lat="40.83190629" lon="-4.49543982"><ele>2438</ele><speed>7.98</speed><time>2016-06-30T15:11:00Z</time><pdop>7.0</pdop><geoidheight>53.00</geoidheight><course>54.6</course><type>1</type></trkpt>
      <trkpt lat="40.831907" lon="-4.49527216"><ele>2439</ele><speed>9.83</speed><time>2016-06-30T15:11:01Z</time><pdop>7.0</pdop><geoidheight>53.00</geoidheight><course>74.9</course><type>1</type></trkpt>
      <trkpt lat="40.83185093" lon="-4.49498079"><ele>2439</ele><speed>10.62</speed><time>2016-06-30T15:11:03Z</time><pdop>10.0</pdop><geoidheight>53.00</geoidheight><course>101.9</course><type>1</type></trkpt>
      <trkpt lat="40.83162127" lon="-4.49469013"><ele>2442</ele><speed>13.75</speed><time>2016-06-30T15:11:05Z</time><pdop>12.0</pdop><geoidheight>53.00</geoidheight><course>135.3</course><type>1</type></trkpt>
      <trkpt lat="40.83144788" lon="-4.49457698"><ele>2447</ele><speed>15.45</speed><time>2016-06-30T15:11:06Z</time><pdop>8.0</pdop><geoidheight>53.00</geoidheight><course>152.4</course><type>1</type></trkpt>
      <trkpt lat="40.83130464" lon="-4.49447993"><ele>2452</ele><speed>15.33</speed><time>2016-06-30T15:11:07Z</time><pdop>6.0</pdop><geoidheight>53.00</geoidheight><course>158.4</course><type>1</type></trkpt>
      <trkpt lat="40.83117343" lon="-4.49441488"><ele>2457</ele><speed>14.67</speed><time>2016-06-30T15:11:08Z</time><pdop>5.0</pdop><geoidheight>53.00</geoidheight><course>164.4</course><type>1</type></trkpt>
      <trkpt lat="40.83105024" lon="-4.49435734"><ele>2460</ele><speed>14.19</speed><time>2016-06-30T15:11:09Z</time><pdop>5.0</pdop><geoidheight>53.00</geoidheight><course>163.4</course><type>1</type></trkpt>
      <trkpt lat="40.83095782" lon="-4.49432246"><ele>2463</ele><speed>11.89</speed><time>2016-06-30T15:11:10Z</time><pdop>5.0</pdop><geoidheight>53.00</geoidheight><course>167.9</course><type>1</type></trkpt>
      <trkpt lat="40.83084873" lon="-4.49441075"><ele>2471</ele><speed>6.82</speed><time>2016-06-30T15:11:12Z</time><pdop>4.0</pdop><geoidheight>53.00</geoidheight><course>219.9</course><type>1</type></trkpt>
      <trkpt lat="40.83081012" lon="-4.49452174"><ele>2474</ele><speed>4.85</speed><time>2016-06-30T15:11:14Z</time><pdop>5.0</pdop><geoidheight>53.00</geoidheight><course>247.0</course><type>1</type></trkpt>
      <trkpt lat="40.83103278" lon="-4.49436381"><ele>2474</ele><speed>6.08</speed><time>2016-06-30T15:11:18Z</time><pdop>10.0</pdop><geoidheight>53.00</geoidheight><course>42.2</course><type>1</type></trkpt>
      <trkpt lat="40.83108971" lon="-4.4940613"><ele>2477</ele><speed>9.53</speed><time>2016-06-30T15:11:20Z</time><pdop>11.0</pdop><geoidheight>53.00</geoidheight><course>75.4</course><type>1</type></trkpt>
      <trkpt lat="40.83103834" lon="-4.49370873"><ele>2479</ele><speed>11.67</speed><time>2016-06-30T15:11:22Z</time><pdop>12.0</pdop><geoidheight>53.00</geoidheight><course>96.9</course><type>1</type></trkpt>
      <trkpt lat="40.83090502" lon="-4.49330298"><ele>2482</ele><speed>14.26</speed><time>2016-06-30T15:11:24Z</time><pdop>13.0</pdop><geoidheight>53.00</geoidheight><course>111.5</course><type>1</type></trkpt>
      <trkpt lat="40.83067057" lon="-4.49309039"><ele>2485</ele><speed>10.32</speed><time>2016-06-30T15:11:27Z</time><pdop>12.0</pdop><geoidheight>53.00</geoidheight><course>133.4</course><type>1</type></trkpt>
      <trkpt lat="40.83038782" lon="-4.49312985"><ele>2495</ele><speed>7.66</speed><time>2016-06-30T15:11:30Z</time><pdop>10.0</pdop><geoidheight>53.00</geoidheight><course>187.5</course><type>1</type></trkpt>
      <trkpt lat="40.83024859" lon="-4.49333871"><ele>2500</ele><speed>8.58</speed><time>2016-06-30T15:11:32Z</time><pdop>11.0</pdop><geoidheight>53.00</geoidheight><course>225.7</course><type>1</type></trkpt>
      <trkpt lat="40.8301492" lon="-4.49357962"><ele>2505</ele><speed>7.53</speed><time>2016-06-30T15:11:34Z</time><pdop>8.0</pdop><geoidheight>53.00</geoidheight><course>250.4</course><type>1</type></trkpt>
      <trkpt lat="40.83020415" lon="-4.49334896"><ele>2502</ele><speed>15.22</speed><time>2016-06-30T15:11:41Z</time><pdop>7.0</pdop><geoidheight>53.00</geoidheight><course>76.7</course><type>1</type></trkpt>
      <trkpt lat="40.83017366" lon="-4.49303521"><ele>2520</ele><speed>14.28</speed><time>2016-06-30T15:11:43Z</time><pdop>8.0</pdop><geoidheight>53.00</geoidheight><course>96.0</course><type>1</type></trkpt>
      <trkpt lat="40.83010079" lon="-4.49273983"><ele>2534</ele><speed>12.66</speed><time>2016-06-30T15:11:45Z</time><pdop>9.0</pdop><geoidheight>53.00</geoidheight><course>103.0</course><type>1</type></trkpt>
      <trkpt lat="40.82980005" lon="-4.49259232"><ele>2542</ele><speed>14.02</speed><time>2016-06-30T15:11:47Z</time><pdop>8.0</pdop><geoidheight>53.00</geoidheight><course>147.1</course><type>1</type></trkpt>
      <trkpt lat="40.82953101" lon="-4.49250405"><ele>2548</ele><speed>13.64</speed><time>2016-06-30T15:11:49Z</time><pdop>7.0</pdop><geoidheight>53.00</geoidheight><course>166.5</course><type>1</type></trkpt>
      <trkpt lat="40.8292866" lon="-4.49253815"><ele>2557</ele><speed>12.10</speed><time>2016-06-30T15:11:51Z</time><pdop>6.0</pdop><geoidheight>53.00</geoidheight><course>187.4</course><type>1</type></trkpt>
      <trkpt lat="40.8292156" lon="-4.4926419"><ele>2564</ele><speed>10.69</speed><time>2016-06-30T15:11:52Z</time><pdop>5.0</pdop><geoidheight>53.00</geoidheight><course>216.5</course><type>1</type></trkpt>
      <trkpt lat="40.82915134" lon="-4.49275275"><ele>2570</ele><speed>11.44</speed><time>2016-06-30T15:11:53Z</time><pdop>5.0</pdop><geoidheight>53.00</geoidheight><course>238.3</course><type>1</type></trkpt>
      <trkpt lat="40.82912456" lon="-4.49285663"><ele>2575</ele><speed>11.48</speed><time>2016-06-30T15:11:54Z</time><pdop>4.0</pdop><geoidheight>53.00</geoidheight><course>253.7</course><type>1</type></trkpt>
      <trkpt lat="40.82909536" lon="-4.49298775"><ele>2584</ele><speed>12.25</speed><time>2016-06-30T15:11:55Z</time><pdop>4.0</pdop><geoidheight>53.00</geoidheight><course>260.5</course><type>1</type></trkpt>
      <trkpt lat="40.82907695" lon="-4.49312975"><ele>2594</ele><speed>12.21</speed><time>2016-06-30T15:11:56Z</time><pdop>4.0</pdop><geoidheight>53.00</geoidheight><course>262.9</course><type>1</type></trkpt>
      <trkpt lat="40.82905672" lon="-4.49324436"><ele>2598</ele><speed>11.69</speed><time>2016-06-30T15:11:57Z</time><pdop>4.0</pdop><geoidheight>53.00</geoidheight><course>263.2</course><type>1</type></trkpt>
      <trkpt lat="40.82905628" lon="-4.49334147"><ele>2603</ele><speed>11.08</speed><time>2016-06-30T15:11:58Z</time><pdop>4.0</pdop><geoidheight>53.00</geoidheight><course>265.5</course><type>1</type></trkpt>
      <trkpt lat="40.82904647" lon="-4.49344902"><ele>2608</ele><speed>10.61</speed><time>2016-06-30T15:11:59Z</time><pdop>4.0</pdop><geoidheight>53.00</geoidheight><course>266.2</course><type>1</type></trkpt>
      <trkpt lat="40.82905881" lon="-4.49362626"><ele>2618</ele><speed>9.27</speed><time>2016-06-30T15:12:01Z</time><pdop>5.0</pdop><geoidheight>53.00</geoidheight><course>279.8</course><type>1</type></trkpt>
      <trkpt lat="40.82914872" lon="-4.49350711"><ele>2644</ele><speed>9.02</speed><time>2016-06-30T15:12:05Z</time><pdop>8.0</pdop><geoidheight>53.00</geoidheight><course>53.7</course><type>1</type></trkpt>
      <trkpt lat="40.82917212" lon="-4.49327667"><ele>2645</ele><speed>12.42</speed><time>2016-06-30T15:12:06Z</time><pdop>7.0</pdop><geoidheight>53.00</geoidheight><course>74.6</course><type>1</type></trkpt>
      <trkpt lat="40.82916121" lon="-4.49310855"><ele>2650</ele><speed>13.01</speed><time>2016-06-30T15:12:07Z</time><pdop>5.0</pdop><geoidheight>53.00</geoidheight><course>89.9</course><type>1</type></trkpt>
      <trkpt lat="40.82912896" lon="-4.49291464"><ele>2655</ele><speed>14.88</speed><time>2016-06-30T15:12:08Z</time><pdop>6.0</pdop><geoidheight>53.00</geoidheight><course>94.9</course><type>1</type></trkpt>
      <trkpt lat="40.82907234" lon="-4.49274754"><ele>2660</ele><speed>14.77</speed><time>2016-06-30T15:12:09Z</time><pdop>6.0</pdop><geoidheight>53.00</geoidheight><course>101.3</course><type>1</type></trkpt>
      <trkpt lat="40.82892704" lon="-4.49264028"><ele>2657</ele><speed>14.25</speed><time>2016-06-30T15:12:10Z</time><pdop>7.0</pdop><geoidheight>53.00</geoidheight><course>125.6</course><type>1</type></trkpt>
      <trkpt lat="40.82874967" lon="-4.49261148"><ele>2656</ele><speed>14.39</speed><time>2016-06-30T15:12:11Z</time><pdop>7.0</pdop><geoidheight>53.00</geoidheight><course>153.0</course><type>1</type></trkpt>
      <trkpt lat="40.82860987" lon="-4.49258972"><ele>2657</ele><speed>13.78</speed><time>2016-06-30T15:12:12Z</time><pdop>6.0</pdop><geoidheight>53.00</geoidheight><course>166.9</course><type>1</type></trkpt>
      <trkpt lat="40.82849668" lon="-4.4926143"><ele>2658</ele><speed>13.66</speed><time>2016-06-30T15:12:13Z</time><pdop>6.0</pdop><geoidheight>53.00</geoidheight><course>182.6</course><type>1</type></trkpt>
      <trkpt lat="40.828387" lon="-4.49266216"><ele>2661</ele><speed>13.17</speed><time>2016-06-30T15:12:14Z</time><pdop>5.0</pdop><geoidheight>53.00</geoidheight><course>192.4</course><type>1</type></trkpt>
      <trkpt lat="40.82827337" lon="-4.49273378"><ele>2664</ele><speed>12.99</speed><time>2016-06-30T15:12:15Z</time><pdop>6.0</pdop><geoidheight>53.00</geoidheight><course>198.8</course><type>1</type></trkpt>
      <trkpt lat="40.82807567" lon="-4.49289659"><ele>2669</ele><speed>12.76</speed><time>2016-06-30T15:12:17Z</time><pdop>7.0</pdop><geoidheight>53.00</geoidheight><course>212.0</course><type>1</type></trkpt>
      <trkpt lat="40.82797199" lon="-4.49297741"><ele>2671</ele><speed>12.35</speed><time>2016-06-30T15:12:18Z</time><pdop>6.0</pdop><geoidheight>53.00</geoidheight><course>214.6</course><type>1</type></trkpt>
      <trkpt lat="40.82789381" lon="-4.49307883"><ele>2673</ele><speed>11.87</speed><time>2016-06-30T15:12:19Z</time><pdop>6.0</pdop><geoidheight>53.00</geoidheight><course>225.4</course><type>1</type></trkpt>
      <trkpt lat="40.8278304" lon="-4.49321974"><ele>2675</ele><speed>12.68</speed><time>2016-06-30T15:12:20Z</time><pdop>6.0</pdop><geoidheight>53.00</geoidheight><course>238.8</course><type>1</type></trkpt>
      <trkpt lat="40.8277415" lon="-4.49341641"><ele>2680</ele><speed>9.44</speed><time>2016-06-30T15:12:22Z</time><pdop>9.0</pdop><geoidheight>53.00</geoidheight><course>239.4</course><type>1</type></trkpt>
      <trkpt lat="40.82798197" lon="-4.49318412"><ele>2687</ele><speed>6.95</speed><time>2016-06-30T15:12:26Z</time><pdop>11.0</pdop><geoidheight>53.00</geoidheight><course>60.2</course><type>1</type></trkpt>
      <trkpt lat="40.82805258" lon="-4.49279097"><ele>2693</ele><speed>9.54</speed><time>2016-06-30T15:12:29Z</time><pdop>13.0</pdop><geoidheight>53.00</geoidheight><course>94.1</course><type>1</type></trkpt>
      <trkpt lat="40.82804138" lon="-4.49237878"><ele>2698</ele><speed>12.43</speed><time>2016-06-30T15:12:31Z</time><pdop>12.0</pdop><geoidheight>53.00</geoidheight><course>99.8</course><type>1</type></trkpt>
      <trkpt lat="40.82800377" lon="-4.49205703"><ele>2707</ele><speed>12.93</speed><time>2016-06-30T15:12:33Z</time><pdop>9.0</pdop><geoidheight>53.00</geoidheight><course>98.5</course><type>1</type></trkpt>
      <trkpt lat="40.82799564" lon="-4.49178865"><ele>2712</ele><speed>10.91</speed><time>2016-06-30T15:12:35Z</time><pdop>9.0</pdop><geoidheight>53.00</geoidheight><course>91.2</course><type>1</type></trkpt>
      <trkpt lat="40.82801871" lon="-4.49149788"><ele>2718</ele><speed>11.18</speed><time>2016-06-30T15:12:37Z</time><pdop>10.0</pdop><geoidheight>53.00</geoidheight><course>86.4</course><type>1</type></trkpt>
      <trkpt lat="40.82813116" lon="-4.49125233"><ele>2700</ele><speed>11.43</speed><time>2016-06-30T15:12:39Z</time><pdop>8.0</pdop><geoidheight>53.00</geoidheight><course>65.2</course><type>1</type></trkpt>
      <trkpt lat="40.82820662" lon="-4.49101838"><ele>2723</ele><speed>10.70</speed><time>2016-06-30T15:12:41Z</time><pdop>6.0</pdop><geoidheight>53.00</geoidheight><course>67.7</course><type>1</type></trkpt>
      <trkpt lat="40.82828153" lon="-4.49079885"><ele>2737</ele><speed>9.79</speed><time>2016-06-30T15:12:43Z</time><pdop>7.0</pdop><geoidheight>53.00</geoidheight><course>69.7</course><type>1</type></trkpt>
      <trkpt lat="40.82838453" lon="-4.49058746"><ele>2751</ele><speed>10.85</speed><time>2016-06-30T15:12:45Z</time><pdop>5.0</pdop><geoidheight>53.00</geoidheight><course>57.1</course><type>1</type></trkpt>
      <trkpt lat="40.82849467" lon="-4.49043801"><ele>2765</ele><speed>9.08</speed><time>2016-06-30T15:12:47Z</time><pdop>7.0</pdop><geoidheight>53.00</geoidheight><course>42.1</course><type>1</type></trkpt>
      <trkpt lat="40.82866862" lon="-4.49041096"><ele>2775</ele><speed>8.75</speed><time>2016-06-30T15:12:49Z</time><pdop>7.0</pdop><geoidheight>53.00</geoidheight><course>4.8</course><type>1</type></trkpt>
      <trkpt lat="40.82881283" lon="-4.49043595"><ele>2782</ele><speed>7.58</speed><time>2016-06-30T15:12:51Z</time><pdop>8.0</pdop><geoidheight>53.00</geoidheight><course>350.9</course><type>1</type></trkpt>
      <trkpt lat="40.82872912" lon="-4.49064597"><ele>2786</ele><speed>3.63</speed><time>2016-06-30T15:12:54Z</time><pdop>11.0</pdop><geoidheight>53.00</geoidheight><course>255.2</course><type>1</type></trkpt>
      <trkpt lat="40.8284958" lon="-4.49082799"><ele>2790</ele><speed>8.59</speed><time>2016-06-30T15:12:56Z</time><pdop>13.0</pdop><geoidheight>53.00</geoidheight><course>213.0</course><type>1</type></trkpt>
      <trkpt lat="40.82812758" lon="-4.49086932"><ele>2793</ele><speed>13.73</speed><time>2016-06-30T15:12:58Z</time><pdop>13.0</pdop><geoidheight>53.00</geoidheight><course>189.5</course><type>1</type></trkpt>
      <trkpt lat="40.82783688" lon="-4.4906776"><ele>2691</ele><speed>14.71</speed><time>2016-06-30T15:13:00Z</time><pdop>13.0</pdop><geoidheight>53.00</geoidheight><course>168.3</course><type>1</type></trkpt>
      <trkpt lat="40.82770639" lon="-4.49032335"><ele>2714</ele><speed>12.02</speed><time>2016-06-30T15:13:02Z</time><pdop>15.0</pdop><geoidheight>53.00</geoidheight><course>140.6</course><type>1</type></trkpt>
      <trkpt lat="40.8276932" lon="-4.48986569"><ele>2741</ele><speed>11.08</speed><time>2016-06-30T15:13:05Z</time><pdop>16.0</pdop><geoidheight>53.00</geoidheight><course>104.1</course><type>1</type></trkpt>
      <trkpt lat="40.82766852" lon="-4.48936778"><ele>2775</ele><speed>11.21</speed><time>2016-06-30T15:13:08Z</time><pdop>18.0</pdop><geoidheight>53.00</geoidheight><course>96.9</course><type>1</type></trkpt>
      <trkpt lat="40.8279855" lon="-4.48905454"><ele>2800</ele><speed>10.84</speed><time>2016-06-30T15:13:11Z</time><pdop>18.0</pdop><geoidheight>53.00</geoidheight><course>48.9</course><type>1</type></trkpt>
      <trkpt lat="40.82835376" lon="-4.48904892"><ele>2815</ele><speed>8.66</speed><time>2016-06-30T15:13:14Z</time><pdop>21.0</pdop><geoidheight>53.00</geoidheight><course>15.4</course><type>1</type></trkpt>
      <trkpt lat="40.82834015" lon="-4.48962644"><ele>2830</ele><speed>6.28</speed><time>2016-06-30T15:13:19Z</time><pdop>24.0</pdop><geoidheight>53.00</geoidheight><course>262.6</course><type>1</type></trkpt>
      <trkpt lat="40.82795604" lon="-4.48989818"><ele>2838</ele><speed>9.35</speed><time>2016-06-30T15:13:22Z</time><pdop>22.0</pdop><geoidheight>53.00</geoidheight><course>214.0</course><type>1</type></trkpt>
      <trkpt lat="40.82754578" lon="-4.48975835"><ele>2853</ele><speed>10.95</speed><time>2016-06-30T15:13:25Z</time><pdop>20.0</pdop><geoidheight>53.00</geoidheight><course>168.3</course><type>1</type></trkpt>
      <trkpt lat="40.82749824" lon="-4.48910667"><ele>2871</ele><speed>11.10</speed><time>2016-06-30T15:13:29Z</time><pdop>22.0</pdop><geoidheight>53.00</geoidheight><course>90.0</course><type>1</type></trkpt>
      <trkpt lat="40.82765354" lon="-4.48859609"><ele>2886</ele><speed>13.19</speed><time>2016-06-30T15:13:32Z</time><pdop>17.0</pdop><geoidheight>53.00</geoidheight><course>68.0</course><type>1</type></trkpt>
      <trkpt lat="40.82780566" lon="-4.48813649"><ele>2897</ele><speed>14.99</speed><time>2016-06-30T15:13:34Z</time><pdop>14.0</pdop><geoidheight>53.00</geoidheight><course>66.5</course><type>1</type></trkpt>
      <trkpt lat="40.82794059" lon="-4.48779194"><ele>2906</ele><speed>14.42</speed><time>2016-06-30T15:13:36Z</time><pdop>14.0</pdop><geoidheight>53.00</geoidheight><course>58.3</course><type>1</type></trkpt>
      <trkpt lat="40.82811567" lon="-4.48746131"><ele>2915</ele><speed>15.30</speed><time>2016-06-30T15:13:38Z</time><pdop>14.0</pdop><geoidheight>53.00</geoidheight><course>58.3</course><type>1</type></trkpt>
      <trkpt lat="40.82823684" lon="-4.48706976"><ele>2924</ele><speed>16.01</speed><time>2016-06-30T15:13:40Z</time><pdop>13.0</pdop><geoidheight>53.00</geoidheight><course>65.7</course><type>1</type></trkpt>
      <trkpt lat="40.82837166" lon="-4.48672012"><ele>2931</ele><speed>15.45</speed><time>2016-06-30T15:13:42Z</time><pdop>13.0</pdop><geoidheight>53.00</geoidheight><course>64.6</course><type>1</type></trkpt>
      <trkpt lat="40.82849353" lon="-4.48637211"><ele>2935</ele><speed>15.10</speed><time>2016-06-30T15:13:44Z</time><pdop>12.0</pdop><geoidheight>53.00</geoidheight><course>66.9</course><type>1</type></trkpt>
      <trkpt lat="40.82862135" lon="-4.48601215"><ele>2937</ele><speed>16.48</speed><time>2016-06-30T15:13:46Z</time><pdop>13.0</pdop><geoidheight>53.00</geoidheight><course>63.7</course><type>1</type></trkpt>
      <trkpt lat="40.82882908" lon="-4.48571147"><ele>2941</ele><speed>15.63</speed><time>2016-06-30T15:13:48Z</time><pdop>12.0</pdop><geoidheight>53.00</geoidheight><course>51.2</course><type>1</type></trkpt>
      <trkpt lat="40.82905447" lon="-4.48551112"><ele>2946</ele><speed>13.99</speed><time>2016-06-30T15:13:50Z</time><pdop>11.0</pdop><geoidheight>53.00</geoidheight><course>35.8</course><type>1</type></trkpt>
      <trkpt lat="40.82920381" lon="-4.48527656"><ele>2947</ele><speed>12.57</speed><time>2016-06-30T15:13:52Z</time><pdop>6.0</pdop><geoidheight>53.00</geoidheight><course>52.2</course><type>1</type></trkpt>
      <trkpt lat="40.82928624" lon="-4.4851644"><ele>2948</ele><speed>12.94</speed><time>2016-06-30T15:13:53Z</time><pdop>6.0</pdop><geoidheight>53.00</geoidheight><course>50.6</course><type>1</type></trkpt>
      <trkpt lat="40.82936571" lon="-4.4850152"><ele>2947</ele><speed>14.61</speed><time>2016-06-30T15:13:54Z</time><pdop>6.0</pdop><geoidheight>53.00</geoidheight><course>55.0</course><type>1</type></trkpt>
      <trkpt lat="40.82943877" lon="-4.48486875"><ele>2946</ele><speed>14.97</speed><time>2016-06-30T15:13:55Z</time><pdop>7.0</pdop><geoidheight>53.00</geoidheight><course>56.0</course><type>1</type></trkpt>
      <trkpt lat="40.82953871" lon="-4.48470646"><ele>2947</ele><speed>16.13</speed><time>2016-06-30T15:13:56Z</time><pdop>7.0</pdop><geoidheight>53.00</geoidheight><course>55.3</course><type>1</type></trkpt>
      <trkpt lat="40.82963776" lon="-4.4844331"><ele>2948</ele><speed>19.96</speed><time>2016-06-30T15:13:57Z</time><pdop>6.0</pdop><geoidheight>53.00</geoidheight><course>59.2</course><type>1</type></trkpt>
      <trkpt lat="40.82966458" lon="-4.4841938"><ele>2947</ele><speed>19.05</speed><time>2016-06-30T15:13:58Z</time><pdop>6.0</pdop><geoidheight>53.00</geoidheight><course>63.2</course><type>1</type></trkpt>
      <trkpt lat="40.82977524" lon="-4.4840058"><ele>2948</ele><speed>18.68</speed><time>2016-06-30T15:13:59Z</time><pdop>7.0</pdop><geoidheight>53.00</geoidheight><course>58.4</course><type>1</type></trkpt>
      <trkpt lat="40.82986732" lon="-4.48386979"><ele>2948</ele><speed>16.71</speed><time>2016-06-30T15:14:00Z</time><pdop>6.0</pdop><geoidheight>53.00</geoidheight><course>54.7</course><type>1</type></trkpt>
      <trkpt lat="40.82996523" lon="-4.4837308"><ele>2946</ele><speed>15.96</speed><time>2016-06-30T15:14:01Z</time><pdop>5.0</pdop><geoidheight>53.00</geoidheight><course>51.4</course><type>1</type></trkpt>
      <trkpt lat="40.83006076" lon="-4.4835943"><ele>2947</ele><speed>15.69</speed><time>2016-06-30T15:14:02Z</time><pdop>5.0</pdop><geoidheight>53.00</geoidheight><course>51.0</course><type>1</type></trkpt>
      <trkpt lat="40.83014985" lon="-4.48345717"><ele>2947</ele><speed>15.55</speed><time>2016-06-30T15:14:03Z</time><pdop>5.0</pdop><geoidheight>53.00</geoidheight><course>50.2</course><type>1</type></trkpt>
      <trkpt lat="40.83024677" lon="-4.48331232"><ele>2946</ele><speed>16.12</speed><time>2016-06-30T15:14:04Z</time><pdop>6.0</pdop><geoidheight>53.00</geoidheight><course>49.1</course><type>1</type></trkpt>
      <trkpt lat="40.83035796" lon="-4.48315025"><ele>2945</ele><speed>17.32</speed><time>2016-06-30T15:14:05Z</time><pdop>7.0</pdop><geoidheight>53.00</geoidheight><course>49.5</course><type>1</type></trkpt>
      <trkpt lat="40.83044454" lon="-4.48298335"><ele>2944</ele><speed>17.42</speed><time>2016-06-30T15:14:06Z</time><pdop>6.0</pdop><geoidheight>53.00</geoidheight><course>51.4</course><type>1</type></trkpt>
      <trkpt lat="40.83055419" lon="-4.48277239"><ele>2942</ele><speed>19.22</speed><time>2016-06-30T15:14:07Z</time><pdop>6.0</pdop><geoidheight>53.00</geoidheight><course>53.3</course><type>1</type></trkpt>
      <trkpt lat="40.83062955" lon="-4.48258891"><ele>2942</ele><speed>17.83</speed><time>2016-06-30T15:14:08Z</time><pdop>6.0</pdop><geoidheight>53.00</geoidheight><course>56.4</course><type>1</type></trkpt>
      <trkpt lat="40.83068331" lon="-4.48243997"><ele>2940</ele><speed>15.61</speed><time>2016-06-30T15:14:09Z</time><pdop>5.0</pdop><geoidheight>53.00</geoidheight><course>62.3</course><type>1</type></trkpt>
      <trkpt lat="40.83072949" lon="-4.48227489"><ele>2940</ele><speed>14.92</speed><time>2016-06-30T15:14:10Z</time><pdop>4.0</pdop><geoidheight>53.00</geoidheight><course>64.8</course><type>1</type></trkpt>
      <trkpt lat="40.8307831" lon="-4.48212458"><ele>2938</ele><speed>15.05</speed><time>2016-06-30T15:14:11Z</time><pdop>4.0</pdop><geoidheight>53.00</geoidheight><course>63.4</course><type>1</type></trkpt>
      <trkpt lat="40.83084953" lon="-4.48195827"><ele>2937</ele><speed>15.28</speed><time>2016-06-30T15:14:12Z</time><pdop>5.0</pdop><geoidheight>53.00</geoidheight><course>63.3</course><type>1</type></trkpt>
      <trkpt lat="40.83093217" lon="-4.48178057"><ele>2937</ele><speed>16.32</speed><time>2016-06-30T15:14:13Z</time><pdop>6.0</pdop><geoidheight>53.00</geoidheight><course>61.3</course><type>1</type></trkpt>
      <trkpt lat="40.83101795" lon="-4.48161364"><ele>2935</ele><speed>17.21</speed><time>2016-06-30T15:14:14Z</time><pdop>6.0</pdop><geoidheight>53.00</geoidheight><course>59.8</course><type>1</type></trkpt>
      <trkpt lat="40.83106414" lon="-4.48141936"><ele>2932</ele><speed>17.44</speed><time>2016-06-30T15:14:15Z</time><pdop>4.0</pdop><geoidheight>53.00</geoidheight><course>63.6</course><type>1</type></trkpt>
      <trkpt lat="40.83111661" lon="-4.48125542"><ele>2931</ele><speed>16.34</speed><time>2016-06-30T15:14:16Z</time><pdop>4.0</pdop><geoidheight>53.00</geoidheight><course>65.4</course><type>1</type></trkpt>
      <trkpt lat="40.8311791" lon="-4.48109879"><ele>2930</ele><speed>15.15</speed><time>2016-06-30T15:14:17Z</time><pdop>4.0</pdop><geoidheight>53.00</geoidheight><course>67.7</course><type>1</type></trkpt>
      <trkpt lat="40.83122027" lon="-4.48094806"><ele>2931</ele><speed>14.27</speed><time>2016-06-30T15:14:18Z</time><pdop>4.0</pdop><geoidheight>53.00</geoidheight><course>67.7</course><type>1</type></trkpt>
      <trkpt lat="40.83126664" lon="-4.48079775"><ele>2929</ele><speed>14.28</speed><time>2016-06-30T15:14:19Z</time><pdop>4.0</pdop><geoidheight>53.00</geoidheight><course>67.2</course><type>1</type></trkpt>
      <trkpt lat="40.83132925" lon="-4.4806376"><ele>2927</ele><speed>15.38</speed><time>2016-06-30T15:14:20Z</time><pdop>4.0</pdop><geoidheight>53.00</geoidheight><course>67.2</course><type>1</type></trkpt>
      <trkpt lat="40.8313908" lon="-4.48047834"><ele>2927</ele><speed>15.29</speed><time>2016-06-30T15:14:21Z</time><pdop>4.0</pdop><geoidheight>53.00</geoidheight><course>66.4</course><type>1</type></trkpt>
      <trkpt lat="40.83145153" lon="-4.4803184"><ele>2926</ele><speed>15.19</speed><time>2016-06-30T15:14:22Z</time><pdop>6.0</pdop><geoidheight>53.00</geoidheight><course>65.6</course><type>1</type></trkpt>
      <trkpt lat="40.83151873" lon="-4.48010391"><ele>2925</ele><speed>16.86</speed><time>2016-06-30T15:14:23Z</time><pdop>8.0</pdop><geoidheight>53.00</geoidheight><course>66.3</course><type>1</type></trkpt>
      <trkpt lat="40.83160134" lon="-4.4798604"><ele>2923</ele><speed>18.64</speed><time>2016-06-30T15:14:24Z</time><pdop>7.0</pdop><geoidheight>53.00</geoidheight><course>66.1</course><type>1</type></trkpt>
      <trkpt lat="40.8316686" lon="-4.47969995"><ele>2921</ele><speed>17.36</speed><time>2016-06-30T15:14:25Z</time><pdop>6.0</pdop><geoidheight>53.00</geoidheight><course>63.6</course><type>1</type></trkpt>
      <trkpt lat="40.83174221" lon="-4.47950582"><ele>2919</ele><speed>17.54</speed><time>2016-06-30T15:14:26Z</time><pdop>6.0</pdop><geoidheight>53.00</geoidheight><course>64.1</course><type>1</type></trkpt>
      <trkpt lat="40.83179469" lon="-4.47931958"><ele>2918</ele><speed>16.97</speed><time>2016-06-30T15:14:27Z</time><pdop>6.0</pdop><geoidheight>53.00</geoidheight><course>66.6</course><type>1</type></trkpt>
      <trkpt lat="40.83183994" lon="-4.47916101"><ele>2917</ele><speed>15.93</speed><time>2016-06-30T15:14:28Z</time><pdop>6.0</pdop><geoidheight>53.00</geoidheight><course>69.1</course><type>1</type></trkpt>
      <trkpt lat="40.83187736" lon="-4.47899167"><ele>2916</ele><speed>15.39</speed><time>2016-06-30T15:14:29Z</time><pdop>5.0</pdop><geoidheight>53.00</geoidheight><course>70.1</course><type>1</type></trkpt>
      <trkpt lat="40.83192716" lon="-4.47883883"><ele>2915</ele><speed>14.57</speed><time>2016-06-30T15:14:30Z</time><pdop>5.0</pdop><geoidheight>53.00</geoidheight><course>69.1</course><type>1</type></trkpt>
      <trkpt lat="40.83198537" lon="-4.47868093"><ele>2913</ele><speed>14.73</speed><time>2016-06-30T15:14:31Z</time><pdop>5.0</pdop><geoidheight>53.00</geoidheight><course>65.5</course><type>1</type></trkpt>
      <trkpt lat="40.83205615" lon="-4.47850801"><ele>2912</ele><speed>15.71</speed><time>2016-06-30T15:14:32Z</time><pdop>5.0</pdop><geoidheight>53.00</geoidheight><course>62.4</course><type>1</type></trkpt>
      <trkpt lat="40.83212005" lon="-4.47836767"><ele>2910</ele><speed>15.40</speed><time>2016-06-30T15:14:33Z</time><pdop>4.0</pdop><geoidheight>53.00</geoidheight><course>60.3</course><type>1</type></trkpt>
      <trkpt lat="40.83216978" lon="-4.47822841"><ele>2905</ele><speed>15.40</speed><time>2016-06-30T15:14:34Z</time><pdop>4.0</pdop><geoidheight>53.00</geoidheight><course>61.3</course><type>1</type></trkpt>
      <trkpt lat="40.83223177" lon="-4.47804814"><ele>2904</ele><speed>15.38</speed><time>2016-06-30T15:14:35Z</time><pdop>4.0</pdop><geoidheight>53.00</geoidheight><course>63.9</course><type>1</type></trkpt>
      <trkpt lat="40.83228522" lon="-4.47788533"><ele>2903</ele><speed>15.84</speed><time>2016-06-30T15:14:36Z</time><pdop>4.0</pdop><geoidheight>53.00</geoidheight><course>65.9</course><type>1</type></trkpt>
      <trkpt lat="40.83234352" lon="-4.47772662"><ele>2902</ele><speed>15.70</speed><time>2016-06-30T15:14:37Z</time><pdop>4.0</pdop><geoidheight>53.00</geoidheight><course>67.2</course><type>1</type></trkpt>
      <trkpt lat="40.83238803" lon="-4.47756489"><ele>2902</ele><speed>15.13</speed><time>2016-06-30T15:14:38Z</time><pdop>4.0</pdop><geoidheight>53.00</geoidheight><course>67.1</course><type>1</type></trkpt>
      <trkpt lat="40.83244145" lon="-4.47741004"><ele>2901</ele><speed>14.46</speed><time>2016-06-30T15:14:39Z</time><pdop>4.0</pdop><geoidheight>53.00</geoidheight><course>65.6</course><type>1</type></trkpt>
      <trkpt lat="40.83250086" lon="-4.47726239"><ele>2901</ele><speed>14.06</speed><time>2016-06-30T15:14:40Z</time><pdop>3.0</pdop><geoidheight>53.00</geoidheight><course>63.8</course><type>1</type></trkpt>
      <trkpt lat="40.83255871" lon="-4.47711155"><ele>2901</ele><speed>13.82</speed><time>2016-06-30T15:14:41Z</time><pdop>3.0</pdop><geoidheight>53.00</geoidheight><course>63.2</course><type>1</type></trkpt>
      <trkpt lat="40.83261466" lon="-4.47696958"><ele>2900</ele><speed>13.92</speed><time>2016-06-30T15:14:42Z</time><pdop>3.0</pdop><geoidheight>53.00</geoidheight><course>62.5</course><type>1</type></trkpt>
      <trkpt lat="40.83266439" lon="-4.47682603"><ele>2895</ele><speed>14.41</speed><time>2016-06-30T15:14:43Z</time><pdop>3.0</pdop><geoidheight>53.00</geoidheight><course>62.6</course><type>1</type></trkpt>
      <trkpt lat="40.83272425" lon="-4.47666276"><ele>2892</ele><speed>15.34</speed><time>2016-06-30T15:14:44Z</time><pdop>3.0</pdop><geoidheight>53.00</geoidheight><course>63.6</course><type>1</type></trkpt>
      <trkpt lat="40.83278609" lon="-4.47649239"><ele>2889</ele><speed>15.79</speed><time>2016-06-30T15:14:45Z</time><pdop>3.0</pdop><geoidheight>53.00</geoidheight><course>65.3</course><type>1</type></trkpt>
      <trkpt lat="40.83284131" lon="-4.47632565"><ele>2886</ele><speed>15.67</speed><time>2016-06-30T15:14:46Z</time><pdop>3.0</pdop><geoidheight>53.00</geoidheight><course>66.1</course><type>1</type></trkpt>
      <trkpt lat="40.83289786" lon="-4.47615783"><ele>2885</ele><speed>15.54</speed><time>2016-06-30T15:14:47Z</time><pdop>4.0</pdop><geoidheight>53.00</geoidheight><course>66.7</course><type>1</type></trkpt>
      <trkpt lat="40.83294463" lon="-4.47597081"><ele>2885</ele><speed>15.82</speed><time>2016-06-30T15:14:48Z</time><pdop>4.0</pdop><geoidheight>53.00</geoidheight><course>69.1</course><type>1</type></trkpt>
      <trkpt lat="40.83298214" lon="-4.47578398"><ele>2884</ele><speed>15.75</speed><time>2016-06-30T15:14:49Z</time><pdop>5.0</pdop><geoidheight>53.00</geoidheight><course>71.6</course><type>1</type></trkpt>
      <trkpt lat="40.83303669" lon="-4.47561441"><ele>2884</ele><speed>15.59</speed><time>2016-06-30T15:14:50Z</time><pdop>4.0</pdop><geoidheight>53.00</geoidheight><course>72.1</course><type>1</type></trkpt>
      <trkpt lat="40.83308235" lon="-4.47544645"><ele>2882</ele><speed>15.61</speed><time>2016-06-30T15:14:51Z</time><pdop>4.0</pdop><geoidheight>53.00</geoidheight><course>69.0</course><type>1</type></trkpt>
      <trkpt lat="40.83314275" lon="-4.47527683"><ele>2881</ele><speed>15.59</speed><time>2016-06-30T15:14:52Z</time><pdop>5.0</pdop><geoidheight>53.00</geoidheight><course>68.5</course><type>1</type></trkpt>
      <trkpt lat="40.83319406" lon="-4.47510368"><ele>2881</ele><speed>15.67</speed><time>2016-06-30T15:14:53Z</time><pdop>5.0</pdop><geoidheight>53.00</geoidheight><course>67.9</course><type>1</type></trkpt>
      <trkpt lat="40.83323236" lon="-4.47490225"><ele>2879</ele><speed>16.63</speed><time>2016-06-30T15:14:54Z</time><pdop>11.0</pdop><geoidheight>53.00</geoidheight><course>69.6</course><type>1</type></trkpt>
      <trkpt lat="40.83331313" lon="-4.47447602"><ele>2876</ele><speed>17.43</speed><time>2016-06-30T15:14:56Z</time><pdop>10.0</pdop><geoidheight>53.00</geoidheight><course>75.1</course><type>1</type></trkpt>
      <trkpt lat="40.83340789" lon="-4.47413554"><ele>2872</ele><speed>15.09</speed><time>2016-06-30T15:14:58Z</time><pdop>10.0</pdop><geoidheight>53.00</geoidheight><course>73.7</course><type>1</type></trkpt>
      <trkpt lat="40.83345848" lon="-4.47385775"><ele>2865</ele><speed>13.87</speed><time>2016-06-30T15:15:00Z</time><pdop>10.0</pdop><geoidheight>53.00</geoidheight><course>71.1</course><type>1</type></trkpt>
      <trkpt lat="40.83355506" lon="-4.47355235"><ele>2861</ele><speed>14.25</speed><time>2016-06-30T15:15:02Z</time><pdop>11.0</pdop><geoidheight>53.00</geoidheight><course>69.0</course><type>1</type></trkpt>
      <trkpt lat="40.83362964" lon="-4.47319223"><ele>2858</ele><speed>16.10</speed><time>2016-06-30T15:15:04Z</time><pdop>11.0</pdop><geoidheight>53.00</geoidheight><course>71.1</course><type>1</type></trkpt>
      <trkpt lat="40.83372421" lon="-4.47280094"><ele>2855</ele><speed>16.89</speed><time>2016-06-30T15:15:06Z</time><pdop>11.0</pdop><geoidheight>53.00</geoidheight><course>71.5</course><type>1</type></trkpt>
      <trkpt lat="40.83378526" lon="-4.47247023"><ele>2851</ele><speed>15.15</speed><time>2016-06-30T15:15:08Z</time><pdop>11.0</pdop><geoidheight>53.00</geoidheight><course>72.2</course><type>1</type></trkpt>
      <trkpt lat="40.83389921" lon="-4.47209663"><ele>2848</ele><speed>16.32</speed><time>2016-06-30T15:15:10Z</time><pdop>13.0</pdop><geoidheight>53.00</geoidheight><course>69.1</course><type>1</type></trkpt>
      <trkpt lat="40.8339998" lon="-4.47176873"><ele>2846</ele><speed>15.98</speed><time>2016-06-30T15:15:12Z</time><pdop>14.0</pdop><geoidheight>53.00</geoidheight><course>68.4</course><type>1</type></trkpt>
      <trkpt lat="40.83412464" lon="-4.47130774"><ele>2845</ele><speed>18.05</speed><time>2016-06-30T15:15:14Z</time><pdop>12.0</pdop><geoidheight>53.00</geoidheight><course>68.6</course><type>1</type></trkpt>
      <trkpt lat="40.83420493" lon="-4.47095877"><ele>2843</ele><speed>14.70</speed><time>2016-06-30T15:15:16Z</time><pdop>11.0</pdop><geoidheight>53.00</geoidheight><course>72.1</course><type>1</type></trkpt>
      <trkpt lat="40.83426457" lon="-4.47055006"><ele>2837</ele><speed>13.42</speed><time>2016-06-30T15:15:19Z</time><pdop>10.0</pdop><geoidheight>53.00</geoidheight><course>77.4</course><type>1</type></trkpt>
      <trkpt lat="40.83430612" lon="-4.47023586"><ele>2836</ele><speed>13.03</speed><time>2016-06-30T15:15:21Z</time><pdop>10.0</pdop><geoidheight>53.00</geoidheight><course>78.0</course><type>1</type></trkpt>
      <trkpt lat="40.83437902" lon="-4.4699663"><ele>2833</ele><speed>11.72</speed><time>2016-06-30T15:15:23Z</time><pdop>9.0</pdop><geoidheight>53.00</geoidheight><course>73.2</course><type>1</type></trkpt>
      <trkpt lat="40.83444982" lon="-4.46970987"><ele>2830</ele><speed>11.63</speed><time>2016-06-30T15:15:25Z</time><pdop>9.0</pdop><geoidheight>53.00</geoidheight><course>70.3</course><type>1</type></trkpt>
      <trkpt lat="40.83451215" lon="-4.46942347"><ele>2822</ele><speed>12.92</speed><time>2016-06-30T15:15:27Z</time><pdop>9.0</pdop><geoidheight>53.00</geoidheight><course>73.2</course><type>1</type></trkpt>
      <trkpt lat="40.8345528" lon="-4.46909632"><ele>2818</ele><speed>14.05</speed><time>2016-06-30T15:15:29Z</time><pdop>9.0</pdop><geoidheight>53.00</geoidheight><course>82.1</course><type>1</type></trkpt>
      <trkpt lat="40.83455831" lon="-4.4687658"><ele>2814</ele><speed>13.81</speed><time>2016-06-30T15:15:31Z</time><pdop>9.0</pdop><geoidheight>53.00</geoidheight><course>87.0</course><type>1</type></trkpt>
      <trkpt lat="40.83455616" lon="-4.46845119"><ele>2808</ele><speed>13.37</speed><time>2016-06-30T15:15:33Z</time><pdop>9.0</pdop><geoidheight>53.00</geoidheight><course>87.5</course><type>1</type></trkpt>
      <trkpt lat="40.83457003" lon="-4.46808495"><ele>2804</ele><speed>15.28</speed><time>2016-06-30T15:15:35Z</time><pdop>10.0</pdop><geoidheight>53.00</geoidheight><course>85.3</course><type>1</type></trkpt>
      <trkpt lat="40.83460954" lon="-4.46771402"><ele>2798</ele><speed>16.66</speed><time>2016-06-30T15:15:37Z</time><pdop>9.0</pdop><geoidheight>53.00</geoidheight><course>83.9</course><type>1</type></trkpt>
      <trkpt lat="40.8346346" lon="-4.46731479"><ele>2796</ele><speed>15.70</speed><time>2016-06-30T15:15:39Z</time><pdop>9.0</pdop><geoidheight>53.00</geoidheight><course>85.7</course><type>1</type></trkpt>
      <trkpt lat="40.83469496" lon="-4.46698046"><ele>2490</ele><speed>14.22</speed><time>2016-06-30T15:15:41Z</time><pdop>9.0</pdop><geoidheight>53.00</geoidheight><course>76.1</course><type>1</type></trkpt>
      <trkpt lat="40.8347706" lon="-4.46662648"><ele>2619</ele><speed>15.50</speed><time>2016-06-30T15:15:43Z</time><pdop>10.0</pdop><geoidheight>53.00</geoidheight><course>72.9</course><type>1</type></trkpt>
      <trkpt lat="40.83482311" lon="-4.46624199"><ele>2698</ele><speed>17.03</speed><time>2016-06-30T15:15:45Z</time><pdop>9.0</pdop><geoidheight>53.00</geoidheight><course>72.9</course><type>1</type></trkpt>
      <trkpt lat="40.83493572" lon="-4.46588049"><ele>2717</ele><speed>16.47</speed><time>2016-06-30T15:15:47Z</time><pdop>9.0</pdop><geoidheight>53.00</geoidheight><course>68.9</course><type>1</type></trkpt>
      <trkpt lat="40.83503159" lon="-4.46552566"><ele>2729</ele><speed>16.47</speed><time>2016-06-30T15:15:49Z</time><pdop>9.0</pdop><geoidheight>53.00</geoidheight><course>67.2</course><type>1</type></trkpt>
      <trkpt lat="40.83511342" lon="-4.46515957"><ele>2737</ele><speed>17.06</speed><time>2016-06-30T15:15:51Z</time><pdop>9.0</pdop><geoidheight>53.00</geoidheight><course>73.8</course><type>1</type></trkpt>
      <trkpt lat="40.83519437" lon="-4.46475485"><ele>2744</ele><speed>17.75</speed><time>2016-06-30T15:15:53Z</time><pdop>9.0</pdop><geoidheight>53.00</geoidheight><course>75.5</course><type>1</type></trkpt>
      <trkpt lat="40.83527936" lon="-4.46434865"><ele>2742</ele><speed>17.70</speed><time>2016-06-30T15:15:55Z</time><pdop>9.0</pdop><geoidheight>53.00</geoidheight><course>74.3</course><type>1</type></trkpt>
      <trkpt lat="40.8353815" lon="-4.46395936"><ele>2738</ele><speed>17.11</speed><time>2016-06-30T15:15:57Z</time><pdop>9.0</pdop><geoidheight>53.00</geoidheight><course>70.9</course><type>1</type></trkpt>
      <trkpt lat="40.83550007" lon="-4.46360976"><ele>2734</ele><speed>15.82</speed><time>2016-06-30T15:15:59Z</time><pdop>9.0</pdop><geoidheight>53.00</geoidheight><course>64.5</course><type>1</type></trkpt>
      <trkpt lat="40.83562106" lon="-4.46327703"><ele>2731</ele><speed>15.49</speed><time>2016-06-30T15:16:01Z</time><pdop>9.0</pdop><geoidheight>53.00</geoidheight><course>63.5</course><type>1</type></trkpt>
      <trkpt lat="40.83569298" lon="-4.46292933"><ele>2720</ele><speed>16.16</speed><time>2016-06-30T15:16:03Z</time><pdop>9.0</pdop><geoidheight>53.00</geoidheight><course>70.8</course><type>1</type></trkpt>
      <trkpt lat="40.83579882" lon="-4.46257772"><ele>2710</ele><speed>17.12</speed><time>2016-06-30T15:16:05Z</time><pdop>9.0</pdop><geoidheight>53.00</geoidheight><course>70.4</course><type>1</type></trkpt>
      <trkpt lat="40.83589415" lon="-4.46218701"><ele>2703</ele><speed>16.98</speed><time>2016-06-30T15:16:07Z</time><pdop>9.0</pdop><geoidheight>53.00</geoidheight><course>70.8</course><type>1</type></trkpt>
      <trkpt lat="40.8359642" lon="-4.46181229"><ele>2699</ele><speed>15.75</speed><time>2016-06-30T15:16:09Z</time><pdop>9.0</pdop><geoidheight>53.00</geoidheight><course>75.2</course><type>1</type></trkpt>
      <trkpt lat="40.83602295" lon="-4.46144346"><ele>2692</ele><speed>16.21</speed><time>2016-06-30T15:16:11Z</time><pdop>9.0</pdop><geoidheight>53.00</geoidheight><course>75.5</course><type>1</type></trkpt>
      <trkpt lat="40.83612037" lon="-4.4610722"><ele>2686</ele><speed>16.60</speed><time>2016-06-30T15:16:13Z</time><pdop>9.0</pdop><geoidheight>53.00</geoidheight><course>70.2</course><type>1</type></trkpt>
      <trkpt lat="40.83620826" lon="-4.46073319"><ele>2683</ele><speed>14.87</speed><time>2016-06-30T15:16:15Z</time><pdop>9.0</pdop><geoidheight>53.00</geoidheight><course>70.3</course><type>1</type></trkpt>
      <trkpt lat="40.83630282" lon="-4.46039197"><ele>2680</ele><speed>15.55</speed><time>2016-06-30T15:16:17Z</time><pdop>10.0</pdop><geoidheight>53.00</geoidheight><course>68.5</course><type>1</type></trkpt>
      <trkpt lat="40.83637971" lon="-4.46002548"><ele>2669</ele><speed>17.75</speed><time>2016-06-30T15:16:19Z</time><pdop>9.0</pdop><geoidheight>53.00</geoidheight><course>72.7</course><type>1</type></trkpt>
      <trkpt lat="40.83646597" lon="-4.4596304"><ele>2660</ele><speed>17.08</speed><time>2016-06-30T15:16:21Z</time><pdop>9.0</pdop><geoidheight>53.00</geoidheight><course>74.6</course><type>1</type></trkpt>
      <trkpt lat="40.83652983" lon="-4.45927786"><ele>2651</ele><speed>15.49</speed><time>2016-06-30T15:16:23Z</time><pdop>9.0</pdop><geoidheight>53.00</geoidheight><course>74.4</course><type>1</type></trkpt>
      <trkpt lat="40.83660375" lon="-4.45893226"><ele>2640</ele><speed>15.89</speed><time>2016-06-30T15:16:25Z</time><pdop>9.0</pdop><geoidheight>53.00</geoidheight><course>75.7</course><type>1</type></trkpt>
      <trkpt lat="40.83667243" lon="-4.45854101"><ele>2631</ele><speed>17.66</speed><time>2016-06-30T15:16:27Z</time><pdop>9.0</pdop><geoidheight>53.00</geoidheight><course>76.5</course><type>1</type></trkpt>
      <trkpt lat="40.83671466" lon="-4.45815452"><ele>2620</ele><speed>17.59</speed><time>2016-06-30T15:16:29Z</time><pdop>9.0</pdop><geoidheight>53.00</geoidheight><course>73.5</course><type>1</type></trkpt>
      <trkpt lat="40.83682267" lon="-4.45778371"><ele>2612</ele><speed>17.33</speed><time>2016-06-30T15:16:31Z</time><pdop>9.0</pdop><geoidheight>53.00</geoidheight><course>70.7</course><type>1</type></trkpt>
      <trkpt lat="40.83692171" lon="-4.45737986"><ele>2602</ele><speed>18.89</speed><time>2016-06-30T15:16:33Z</time><pdop>9.0</pdop><geoidheight>53.00</geoidheight><course>73.4</course><type>1</type></trkpt>
      <trkpt lat="40.83700017" lon="-4.45697583"><ele>2596</ele><speed>17.65</speed><time>2016-06-30T15:16:35Z</time><pdop>9.0</pdop><geoidheight>53.00</geoidheight><course>76.2</course><type>1</type></trkpt>
      <trkpt lat="40.83706726" lon="-4.45661094"><ele>2588</ele><speed>15.76</speed><time>2016-06-30T15:16:37Z</time><pdop>9.0</pdop><geoidheight>53.00</geoidheight><course>72.9</course><type>1</type></trkpt>
      <trkpt lat="40.83715815" lon="-4.45625124"><ele>2577</ele><speed>16.91</speed><time>2016-06-30T15:16:39Z</time><pdop>9.0</pdop><geoidheight>53.00</geoidheight><course>73.1</course><type>1</type></trkpt>
      <trkpt lat="40.83724825" lon="-4.45585569"><ele>2566</ele><speed>18.35</speed><time>2016-06-30T15:16:41Z</time><pdop>9.0</pdop><geoidheight>53.00</geoidheight><course>73.9</course><type>1</type></trkpt>
      <trkpt lat="40.83728697" lon="-4.45564536"><ele>2560</ele><speed>18.49</speed><time>2016-06-30T15:16:42Z</time><pdop>9.0</pdop><geoidheight>53.00</geoidheight><course>74.5</course><type>1</type></trkpt>
      <trkpt lat="40.83733411" lon="-4.45544045"><ele>2557</ele><speed>18.31</speed><time>2016-06-30T15:16:43Z</time><pdop>9.0</pdop><geoidheight>53.00</geoidheight><course>75.2</course><type>1</type></trkpt>
      <trkpt lat="40.83740953" lon="-4.45505173"><ele>2551</ele><speed>16.98</speed><time>2016-06-30T15:16:45Z</time><pdop>9.0</pdop><geoidheight>53.00</geoidheight><course>75.1</course><type>1</type></trkpt>
      <trkpt lat="40.8374933" lon="-4.45467608"><ele>2545</ele><speed>17.02</speed><time>2016-06-30T15:16:47Z</time><pdop>9.0</pdop><geoidheight>53.00</geoidheight><course>74.8</course><type>1</type></trkpt>
      <trkpt lat="40.8375726" lon="-4.45429003"><ele>2536</ele><speed>17.70</speed><time>2016-06-30T15:16:49Z</time><pdop>9.0</pdop><geoidheight>53.00</geoidheight><course>74.7</course><type>1</type></trkpt>
      <trkpt lat="40.83767207" lon="-4.45389219"><ele>2527</ele><speed>18.12</speed><time>2016-06-30T15:16:51Z</time><pdop>9.0</pdop><geoidheight>53.00</geoidheight><course>71.2</course><type>1</type></trkpt>
      <trkpt lat="40.83777932" lon="-4.45350701"><ele>2519</ele><speed>17.84</speed><time>2016-06-30T15:16:53Z</time><pdop>9.0</pdop><geoidheight>53.00</geoidheight><course>68.6</course><type>1</type></trkpt>
      <trkpt lat="40.83791018" lon="-4.45312135"><ele>2510</ele><speed>18.38</speed><time>2016-06-30T15:16:55Z</time><pdop>9.0</pdop><geoidheight>53.00</geoidheight><course>65.8</course><type>1</type></trkpt>
      <trkpt lat="40.83797852" lon="-4.4529262"><ele>2506</ele><speed>18.43</speed><time>2016-06-30T15:16:56Z</time><pdop>9.0</pdop><geoidheight>53.00</geoidheight><course>64.8</course><type>1</type></trkpt>
      <trkpt lat="40.83812393" lon="-4.4525468"><ele>2498</ele><speed>18.44</speed><time>2016-06-30T15:16:58Z</time><pdop>9.0</pdop><geoidheight>53.00</geoidheight><course>63.1</course><type>1</type></trkpt>
      <trkpt lat="40.83826258" lon="-4.45218334"><ele>2492</ele><speed>17.09</speed><time>2016-06-30T15:17:00Z</time><pdop>9.0</pdop><geoidheight>53.00</geoidheight><course>62.0</course><type>1</type></trkpt>
      <trkpt lat="40.83840827" lon="-4.45185167"><ele>2487</ele><speed>16.23</speed><time>2016-06-30T15:17:02Z</time><pdop>9.0</pdop><geoidheight>53.00</geoidheight><course>59.7</course><type>1</type></trkpt>
      <trkpt lat="40.83853854" lon="-4.45151465"><ele>2478</ele><speed>17.41</speed><time>2016-06-30T15:17:04Z</time><pdop>9.0</pdop><geoidheight>53.00</geoidheight><course>63.8</course><type>1</type></trkpt>
      <trkpt lat="40.83866041" lon="-4.45112644"><ele>2469</ele><speed>18.17</speed><time>2016-06-30T15:17:06Z</time><pdop>9.0</pdop><geoidheight>53.00</geoidheight><course>66.4</course><type>1</type></trkpt>
      <trkpt lat="40.83879028" lon="-4.45072272"><ele>2463</ele><speed>18.17</speed><time>2016-06-30T15:17:08Z</time><pdop>10.0</pdop><geoidheight>53.00</geoidheight><course>66.1</course><type>1</type></trkpt>
      <trkpt lat="40.83892593" lon="-4.45037165"><ele>2458</ele><speed>16.69</speed><time>2016-06-30T15:17:10Z</time><pdop>10.0</pdop><geoidheight>53.00</geoidheight><course>62.2</course><type>1</type></trkpt>
      <trkpt lat="40.83909372" lon="-4.45003763"><ele>2456</ele><speed>17.05</speed><time>2016-06-30T15:17:12Z</time><pdop>10.0</pdop><geoidheight>53.00</geoidheight><course>57.9</course><type>1</type></trkpt>
      <trkpt lat="40.83926413" lon="-4.44968528"><ele>2453</ele><speed>17.82</speed><time>2016-06-30T15:17:14Z</time><pdop>11.0</pdop><geoidheight>53.00</geoidheight><course>55.6</course><type>1</type></trkpt>
      <trkpt lat="40.83945981" lon="-4.44933698"><ele>2449</ele><speed>18.80</speed><time>2016-06-30T15:17:16Z</time><pdop>11.0</pdop><geoidheight>53.00</geoidheight><course>54.3</course><type>1</type></trkpt>
      <trkpt lat="40.83967128" lon="-4.44894383"><ele>2446</ele><speed>19.58</speed><time>2016-06-30T15:17:18Z</time><pdop>12.0</pdop><geoidheight>53.00</geoidheight><course>53.4</course><type>1</type></trkpt>
      <trkpt lat="40.83979655" lon="-4.44858615"><ele>2436</ele><speed>18.47</speed><time>2016-06-30T15:17:20Z</time><pdop>11.0</pdop><geoidheight>53.00</geoidheight><course>56.2</course><type>1</type></trkpt>
      <trkpt lat="40.83988136" lon="-4.44820656"><ele>2427</ele><speed>17.86</speed><time>2016-06-30T15:17:22Z</time><pdop>11.0</pdop><geoidheight>53.00</geoidheight><course>58.7</course><type>1</type></trkpt>
      <trkpt lat="40.84004447" lon="-4.44782707"><ele>2422</ele><speed>18.78</speed><time>2016-06-30T15:17:24Z</time><pdop>11.0</pdop><geoidheight>53.00</geoidheight><course>56.1</course><type>1</type></trkpt>
      <trkpt lat="40.84026521" lon="-4.44743379"><ele>2418</ele><speed>19.68</speed><time>2016-06-30T15:17:26Z</time><pdop>12.0</pdop><geoidheight>53.00</geoidheight><course>53.6</course><type>1</type></trkpt>
      <trkpt lat="40.84042508" lon="-4.4471356"><ele>2412</ele><speed>17.20</speed><time>2016-06-30T15:17:28Z</time><pdop>12.0</pdop><geoidheight>53.00</geoidheight><course>51.6</course><type>1</type></trkpt>
      <trkpt lat="40.84041933" lon="-4.44679126"><ele>2401</ele><speed>15.95</speed><time>2016-06-30T15:17:30Z</time><pdop>13.0</pdop><geoidheight>53.00</geoidheight><course>64.1</course><type>1</type></trkpt>
      <trkpt lat="40.84051559" lon="-4.44637953"><ele>2392</ele><speed>17.99</speed><time>2016-06-30T15:17:32Z</time><pdop>11.0</pdop><geoidheight>53.00</geoidheight><course>74.3</course><type>1</type></trkpt>
      <trkpt lat="40.84058739" lon="-4.44600395"><ele>2385</ele><speed>16.79</speed><time>2016-06-30T15:17:34Z</time><pdop>10.0</pdop><geoidheight>53.00</geoidheight><course>74.0</course><type>1</type></trkpt>
      <trkpt lat="40.84065097" lon="-4.44561138"><ele>2373</ele><speed>16.02</speed><time>2016-06-30T15:17:36Z</time><pdop>10.0</pdop><geoidheight>53.00</geoidheight><course>74.2</course><type>1</type></trkpt>
      <trkpt lat="40.84070706" lon="-4.44521745"><ele>2359</ele><speed>18.08</speed><time>2016-06-30T15:17:38Z</time><pdop>9.0</pdop><geoidheight>53.00</geoidheight><course>78.7</course><type>1</type></trkpt>
      <trkpt lat="40.84072636" lon="-4.44499524"><ele>2353</ele><speed>19.43</speed><time>2016-06-30T15:17:39Z</time><pdop>9.0</pdop><geoidheight>53.00</geoidheight><course>80.5</course><type>1</type></trkpt>
      <trkpt lat="40.84075509" lon="-4.44476159"><ele>2347</ele><speed>20.34</speed><time>2016-06-30T15:17:40Z</time><pdop>9.0</pdop><geoidheight>53.00</geoidheight><course>79.6</course><type>1</type></trkpt>
      <trkpt lat="40.84079973" lon="-4.44453653"><ele>2344</ele><speed>20.05</speed><time>2016-06-30T15:17:41Z</time><pdop>9.0</pdop><geoidheight>53.00</geoidheight><course>78.4</course><type>1</type></trkpt>
      <trkpt lat="40.84082032" lon="-4.44430729"><ele>2340</ele><speed>19.37</speed><time>2016-06-30T15:17:42Z</time><pdop>9.0</pdop><geoidheight>53.00</geoidheight><course>78.5</course><type>1</type></trkpt>
      <trkpt lat="40.84086349" lon="-4.44409754"><ele>2337</ele><speed>18.48</speed><time>2016-06-30T15:17:43Z</time><pdop>9.0</pdop><geoidheight>53.00</geoidheight><course>78.1</course><type>1</type></trkpt>
      <trkpt lat="40.84089403" lon="-4.44388185"><ele>2333</ele><speed>18.26</speed><time>2016-06-30T15:17:44Z</time><pdop>9.0</pdop><geoidheight>53.00</geoidheight><course>79.5</course><type>1</type></trkpt>
      <trkpt lat="40.84091629" lon="-4.44366244"><ele>2327</ele><speed>18.79</speed><time>2016-06-30T15:17:45Z</time><pdop>9.0</pdop><geoidheight>53.00</geoidheight><course>80.4</course><type>1</type></trkpt>
      <trkpt lat="40.84094383" lon="-4.44344106"><ele>2323</ele><speed>19.28</speed><time>2016-06-30T15:17:46Z</time><pdop>9.0</pdop><geoidheight>53.00</geoidheight><course>78.8</course><type>1</type></trkpt>
      <trkpt lat="40.84097923" lon="-4.44322544"><ele>2317</ele><speed>19.34</speed><time>2016-06-30T15:17:47Z</time><pdop>9.0</pdop><geoidheight>53.00</geoidheight><course>77.1</course><type>1</type></trkpt>
      <trkpt lat="40.84102825" lon="-4.44300607"><ele>2312</ele><speed>19.41</speed><time>2016-06-30T15:17:48Z</time><pdop>9.0</pdop><geoidheight>53.00</geoidheight><course>76.0</course><type>1</type></trkpt>
      <trkpt lat="40.84106317" lon="-4.44277668"><ele>2307</ele><speed>19.99</speed><time>2016-06-30T15:17:49Z</time><pdop>9.0</pdop><geoidheight>53.00</geoidheight><course>78.4</course><type>1</type></trkpt>
      <trkpt lat="40.84109615" lon="-4.44254361"><ele>2302</ele><speed>19.99</speed><time>2016-06-30T15:17:50Z</time><pdop>9.0</pdop><geoidheight>53.00</geoidheight><course>80.2</course><type>1</type></trkpt>
      <trkpt lat="40.84111852" lon="-4.44231793"><ele>2299</ele><speed>19.21</speed><time>2016-06-30T15:17:51Z</time><pdop>9.0</pdop><geoidheight>53.00</geoidheight><course>80.7</course><type>1</type></trkpt>
      <trkpt lat="40.84116629" lon="-4.44191498"><ele>2290</ele><speed>17.10</speed><time>2016-06-30T15:17:53Z</time><pdop>9.0</pdop><geoidheight>53.00</geoidheight><course>80.0</course><type>1</type></trkpt>
      <trkpt lat="40.84123402" lon="-4.44152683"><ele>2281</ele><speed>17.72</speed><time>2016-06-30T15:17:55Z</time><pdop>9.0</pdop><geoidheight>53.00</geoidheight><course>75.4</course><type>1</type></trkpt>
      <trkpt lat="40.84126775" lon="-4.44131573"><ele>2277</ele><speed>18.44</speed><time>2016-06-30T15:17:56Z</time><pdop>9.0</pdop><geoidheight>53.00</geoidheight><course>76.4</course><type>1</type></trkpt>
      <trkpt lat="40.84129704" lon="-4.44109762"><ele>2272</ele><speed>18.99</speed><time>2016-06-30T15:17:57Z</time><pdop>9.0</pdop><geoidheight>53.00</geoidheight><course>79.2</course><type>1</type></trkpt>
      <trkpt lat="40.84132317" lon="-4.44087258"><ele>2269</ele><speed>19.23</speed><time>2016-06-30T15:17:58Z</time><pdop>9.0</pdop><geoidheight>53.00</geoidheight><course>79.6</course><type>1</type></trkpt>
      <trkpt lat="40.84134421" lon="-4.44064139"><ele>2266</ele><speed>19.45</speed><time>2016-06-30T15:17:59Z</time><pdop>10.0</pdop><geoidheight>53.00</geoidheight><course>80.3</course><type>1</type></trkpt>
      <trkpt lat="40.84134836" lon="-4.44020916"><ele>2260</ele><speed>17.57</speed><time>2016-06-30T15:18:01Z</time><pdop>10.0</pdop><geoidheight>53.00</geoidheight><course>86.5</course><type>1</type></trkpt>
      <trkpt lat="40.84137159" lon="-4.43981476"><ele>2250</ele><speed>17.46</speed><time>2016-06-30T15:18:03Z</time><pdop>9.0</pdop><geoidheight>53.00</geoidheight><course>85.2</course><type>1</type></trkpt>
      <trkpt lat="40.84140931" lon="-4.43938921"><ele>2239</ele><speed>18.93</speed><time>2016-06-30T15:18:05Z</time><pdop>9.0</pdop><geoidheight>53.00</geoidheight><course>82.9</course><type>1</type></trkpt>
      <trkpt lat="40.84143913" lon="-4.43916418"><ele>2234</ele><speed>19.78</speed><time>2016-06-30T15:18:06Z</time><pdop>9.0</pdop><geoidheight>53.00</geoidheight><course>81.7</course><type>1</type></trkpt>
      <trkpt lat="40.84146195" lon="-4.43894272"><ele>2231</ele><speed>19.82</speed><time>2016-06-30T15:18:07Z</time><pdop>9.0</pdop><geoidheight>53.00</geoidheight><course>82.8</course><type>1</type></trkpt>
      <trkpt lat="40.8414779" lon="-4.43871677"><ele>2228</ele><speed>19.03</speed><time>2016-06-30T15:18:08Z</time><pdop>9.0</pdop><geoidheight>53.00</geoidheight><course>84.0</course><type>1</type></trkpt>
      <trkpt lat="40.84151939" lon="-4.4383198"><ele>2222</ele><speed>17.53</speed><time>2016-06-30T15:18:10Z</time><pdop>9.0</pdop><geoidheight>53.00</geoidheight><course>81.8</course><type>1</type></trkpt>
      <trkpt lat="40.84155837" lon="-4.43790188"><ele>2211</ele><speed>19.03</speed><time>2016-06-30T15:18:12Z</time><pdop>9.0</pdop><geoidheight>53.00</geoidheight><course>83.5</course><type>1</type></trkpt>
      <trkpt lat="40.84157159" lon="-4.43767438"><ele>2207</ele><speed>19.59</speed><time>2016-06-30T15:18:13Z</time><pdop>9.0</pdop><geoidheight>53.00</geoidheight><course>85.1</course><type>1</type></trkpt>
      <trkpt lat="40.8415867" lon="-4.43745428"><ele>2202</ele><speed>19.42</speed><time>2016-06-30T15:18:14Z</time><pdop>9.0</pdop><geoidheight>53.00</geoidheight><course>85.0</course><type>1</type></trkpt>
      <trkpt lat="40.84160654" lon="-4.43723689"><ele>2200</ele><speed>18.71</speed><time>2016-06-30T15:18:15Z</time><pdop>9.0</pdop><geoidheight>53.00</geoidheight><course>83.9</course><type>1</type></trkpt>
      <trkpt lat="40.84163006" lon="-4.43702195"><ele>2198</ele><speed>18.16</speed><time>2016-06-30T15:18:16Z</time><pdop>9.0</pdop><geoidheight>53.00</geoidheight><course>83.4</course><type>1</type></trkpt>
      <trkpt lat="40.84164935" lon="-4.43680697"><ele>2195</ele><speed>18.10</speed><time>2016-06-30T15:18:17Z</time><pdop>9.0</pdop><geoidheight>53.00</geoidheight><course>83.7</course><type>1</type></trkpt>
      <trkpt lat="40.84165228" lon="-4.43658341"><ele>2191</ele><speed>18.88</speed><time>2016-06-30T15:18:18Z</time><pdop>9.0</pdop><geoidheight>53.00</geoidheight><course>85.6</course><type>1</type></trkpt>
      <trkpt lat="40.8416688" lon="-4.43635705"><ele>2189</ele><speed>19.29</speed><time>2016-06-30T15:18:19Z</time><pdop>9.0</pdop><geoidheight>53.00</geoidheight><course>85.0</course><type>1</type></trkpt>
      <trkpt lat="40.84168124" lon="-4.43612682"><ele>2187</ele><speed>19.45</speed><time>2016-06-30T15:18:20Z</time><pdop>9.0</pdop><geoidheight>53.00</geoidheight><course>85.3</course><type>1</type></trkpt>
      <trkpt lat="40.84170248" lon="-4.43590304"><ele>2185</ele><speed>19.01</speed><time>2016-06-30T15:18:21Z</time><pdop>9.0</pdop><geoidheight>53.00</geoidheight><course>85.0</course><type>1</type></trkpt>
      <trkpt lat="40.84172065" lon="-4.43568412"><ele>2181</ele><speed>18.53</speed><time>2016-06-30T15:18:22Z</time><pdop>9.0</pdop><geoidheight>53.00</geoidheight><course>84.2</course><type>1</type></trkpt>
      <trkpt lat="40.8417459" lon="-4.43546753"><ele>2178</ele><speed>18.39</speed><time>2016-06-30T15:18:23Z</time><pdop>9.0</pdop><geoidheight>53.00</geoidheight><course>81.8</course><type>1</type></trkpt>
      <trkpt lat="40.84177145" lon="-4.43525525"><ele>2173</ele><speed>18.76</speed><time>2016-06-30T15:18:24Z</time><pdop>9.0</pdop><geoidheight>53.00</geoidheight><course>80.0</course><type>1</type></trkpt>
      <trkpt lat="40.84179558" lon="-4.43503092"><ele>2168</ele><speed>19.56</speed><time>2016-06-30T15:18:25Z</time><pdop>9.0</pdop><geoidheight>53.00</geoidheight><course>81.0</course><type>1</type></trkpt>
      <trkpt lat="40.84181408" lon="-4.43479808"><ele>2164</ele><speed>19.99</speed><time>2016-06-30T15:18:26Z</time><pdop>9.0</pdop><geoidheight>53.00</geoidheight><course>83.5</course><type>1</type></trkpt>
      <trkpt lat="40.84183465" lon="-4.43456534"><ele>2161</ele><speed>19.83</speed><time>2016-06-30T15:18:27Z</time><pdop>9.0</pdop><geoidheight>53.00</geoidheight><course>84.1</course><type>1</type></trkpt>
      <trkpt lat="40.84185299" lon="-4.4343405"><ele>2158</ele><speed>19.60</speed><time>2016-06-30T15:18:28Z</time><pdop>9.0</pdop><geoidheight>53.00</geoidheight><course>82.7</course><type>1</type></trkpt>
      <trkpt lat="40.8418777" lon="-4.43411844"><ele>2155</ele><speed>19.03</speed><time>2016-06-30T15:18:29Z</time><pdop>9.0</pdop><geoidheight>53.00</geoidheight><course>82.8</course><type>1</type></trkpt>
      <trkpt lat="40.84189781" lon="-4.43390138"><ele>2154</ele><speed>18.53</speed><time>2016-06-30T15:18:30Z</time><pdop>9.0</pdop><geoidheight>53.00</geoidheight><course>83.2</course><type>1</type></trkpt>
      <trkpt lat="40.84194282" lon="-4.43349861"><ele>2151</ele><speed>17.19</speed><time>2016-06-30T15:18:32Z</time><pdop>9.0</pdop><geoidheight>53.00</geoidheight><course>81.3</course><type>1</type></trkpt>
      <trkpt lat="40.84199811" lon="-4.43311033"><ele>2144</ele><speed>17.43</speed><time>2016-06-30T15:18:34Z</time><pdop>9.0</pdop><geoidheight>53.00</geoidheight><course>79.1</course><type>1</type></trkpt>
      <trkpt lat="40.84204262" lon="-4.43268707"><ele>2135</ele><speed>18.54</speed><time>2016-06-30T15:18:36Z</time><pdop>9.0</pdop><geoidheight>53.00</geoidheight><course>80.8</course><type>1</type></trkpt>
      <trkpt lat="40.84206441" lon="-4.43246646"><ele>2131</ele><speed>18.86</speed><time>2016-06-30T15:18:37Z</time><pdop>9.0</pdop><geoidheight>53.00</geoidheight><course>81.2</course><type>1</type></trkpt>
      <trkpt lat="40.84208229" lon="-4.43225078"><ele>2128</ele><speed>18.26</speed><time>2016-06-30T15:18:38Z</time><pdop>9.0</pdop><geoidheight>53.00</geoidheight><course>80.9</course><type>1</type></trkpt>
      <trkpt lat="40.84210889" lon="-4.43183937"><ele>2121</ele><speed>17.80</speed><time>2016-06-30T15:18:40Z</time><pdop>9.0</pdop><geoidheight>53.00</geoidheight><course>86.6</course><type>1</type></trkpt>
      <trkpt lat="40.84214723" lon="-4.43144125"><ele>2115</ele><speed>17.31</speed><time>2016-06-30T15:18:42Z</time><pdop>9.0</pdop><geoidheight>53.00</geoidheight><course>80.5</course><type>1</type></trkpt>
      <trkpt lat="40.84220333" lon="-4.43104996"><ele>2110</ele><speed>16.51</speed><time>2016-06-30T15:18:44Z</time><pdop>9.0</pdop><geoidheight>53.00</geoidheight><course>81.7</course><type>1</type></trkpt>
      <trkpt lat="40.84226001" lon="-4.43071036"><ele>2109</ele><speed>14.02</speed><time>2016-06-30T15:18:46Z</time><pdop>9.0</pdop><geoidheight>53.00</geoidheight><course>76.5</course><type>1</type></trkpt>
      <trkpt lat="40.84233287" lon="-4.43043513"><ele>2106</ele><speed>12.38</speed><time>2016-06-30T15:18:48Z</time><pdop>9.0</pdop><geoidheight>53.00</geoidheight><course>70.1</course><type>1</type></trkpt>
      <trkpt lat="40.8424322" lon="-4.43015636"><ele>2103</ele><speed>13.07</speed><time>2016-06-30T15:18:50Z</time><pdop>9.0</pdop><geoidheight>53.00</geoidheight><course>64.9</course><type>1</type></trkpt>
      <trkpt lat="40.84253567" lon="-4.42984076"><ele>2101</ele><speed>14.95</speed><time>2016-06-30T15:18:52Z</time><pdop>9.0</pdop><geoidheight>53.00</geoidheight><course>66.6</course><type>1</type></trkpt>
      <trkpt lat="40.84259114" lon="-4.42948005"><ele>2100</ele><speed>15.45</speed><time>2016-06-30T15:18:54Z</time><pdop>9.0</pdop><geoidheight>53.00</geoidheight><course>77.5</course><type>1</type></trkpt>
      <trkpt lat="40.84262941" lon="-4.42917499"><ele>2105</ele><speed>11.93</speed><time>2016-06-30T15:18:56Z</time><pdop>9.0</pdop><geoidheight>53.00</geoidheight><course>80.3</course><type>1</type></trkpt>
      <trkpt lat="40.84264489" lon="-4.42891053"><ele>2104</ele><speed>11.51</speed><time>2016-06-30T15:18:58Z</time><pdop>9.0</pdop><geoidheight>53.00</geoidheight><course>85.0</course><type>1</type></trkpt>
      <trkpt lat="40.84265635" lon="-4.42861333"><ele>2104</ele><speed>12.80</speed><time>2016-06-30T15:19:00Z</time><pdop>9.0</pdop><geoidheight>53.00</geoidheight><course>87.4</course><type>1</type></trkpt>
      <trkpt lat="40.84267438" lon="-4.42828427"><ele>2101</ele><speed>13.96</speed><time>2016-06-30T15:19:02Z</time><pdop>9.0</pdop><geoidheight>53.00</geoidheight><course>86.3</course><type>1</type></trkpt>
      <trkpt lat="40.84269166" lon="-4.42793728"><ele>2098</ele><speed>15.26</speed><time>2016-06-30T15:19:04Z</time><pdop>9.0</pdop><geoidheight>53.00</geoidheight><course>86.0</course><type>1</type></trkpt>
      <trkpt lat="40.84271976" lon="-4.42757493"><ele>2097</ele><speed>15.53</speed><time>2016-06-30T15:19:06Z</time><pdop>9.0</pdop><geoidheight>53.00</geoidheight><course>84.0</course><type>1</type></trkpt>
      <trkpt lat="40.84276362" lon="-4.42721147"><ele>2097</ele><speed>15.61</speed><time>2016-06-30T15:19:08Z</time><pdop>10.0</pdop><geoidheight>53.00</geoidheight><course>80.6</course><type>1</type></trkpt>
      <trkpt lat="40.84280178" lon="-4.42681495"><ele>2095</ele><speed>16.32</speed><time>2016-06-30T15:19:10Z</time><pdop>9.0</pdop><geoidheight>53.00</geoidheight><course>86.8</course><type>1</type></trkpt>
      <trkpt lat="40.84279699" lon="-4.42643367"><ele>2095</ele><speed>16.13</speed><time>2016-06-30T15:19:12Z</time><pdop>9.0</pdop><geoidheight>53.00</geoidheight><course>91.7</course><type>1</type></trkpt>
      <trkpt lat="40.84277344" lon="-4.42608383"><ele>2096</ele><speed>14.74</speed><time>2016-06-30T15:19:14Z</time><pdop>9.0</pdop><geoidheight>53.00</geoidheight><course>92.7</course><type>1</type></trkpt>
      <trkpt lat="40.84276208" lon="-4.42572977"><ele>2097</ele><speed>15.19</speed><time>2016-06-30T15:19:16Z</time><pdop>9.0</pdop><geoidheight>53.00</geoidheight><course>92.3</course><type>1</type></trkpt>
      <trkpt lat="40.8427294" lon="-4.42535399"><ele>2097</ele><speed>15.92</speed><time>2016-06-30T15:19:18Z</time><pdop>10.0</pdop><geoidheight>53.00</geoidheight><course>93.5</course><type>1</type></trkpt>
      <trkpt lat="40.8427426" lon="-4.42494022"><ele>2101</ele><speed>16.32</speed><time>2016-06-30T15:19:20Z</time><pdop>9.0</pdop><geoidheight>53.00</geoidheight><course>89.7</course><type>1</type></trkpt>
      <trkpt lat="40.84273548" lon="-4.42456607"><ele>2104</ele><speed>15.87</speed><time>2016-06-30T15:19:22Z</time><pdop>9.0</pdop><geoidheight>53.00</geoidheight><course>90.1</course><type>1</type></trkpt>
      <trkpt lat="40.84278415" lon="-4.42423871"><ele>2108</ele><speed>14.25</speed><time>2016-06-30T15:19:24Z</time><pdop>9.0</pdop><geoidheight>53.00</geoidheight><course>77.8</course><type>1</type></trkpt>
      <trkpt lat="40.8428473" lon="-4.42392046"><ele>2109</ele><speed>13.78</speed><time>2016-06-30T15:19:26Z</time><pdop>9.0</pdop><geoidheight>53.00</geoidheight><course>78.0</course><type>1</type></trkpt>
      <trkpt lat="40.84289553" lon="-4.4235923"><ele>2109</ele><speed>14.11</speed><time>2016-06-30T15:19:28Z</time><pdop>9.0</pdop><geoidheight>53.00</geoidheight><course>84.3</course><type>1</type></trkpt>
      <trkpt lat="40.842899" lon="-4.4232325"><ele>2108</ele><speed>15.66</speed><time>2016-06-30T15:19:30Z</time><pdop>9.0</pdop><geoidheight>53.00</geoidheight><course>89.3</course><type>1</type></trkpt>
      <trkpt lat="40.84286491" lon="-4.4228847"><ele>2108</ele><speed>14.74</speed><time>2016-06-30T15:19:32Z</time><pdop>9.0</pdop><geoidheight>53.00</geoidheight><course>94.1</course><type>1</type></trkpt>
      <trkpt lat="40.84284608" lon="-4.42254673"><ele>2108</ele><speed>14.90</speed><time>2016-06-30T15:19:34Z</time><pdop>9.0</pdop><geoidheight>53.00</geoidheight><course>92.3</course><type>1</type></trkpt>
      <trkpt lat="40.84286789" lon="-4.42215905"><ele>2107</ele><speed>16.25</speed><time>2016-06-30T15:19:36Z</time><pdop>10.0</pdop><geoidheight>53.00</geoidheight><course>86.9</course><type>1</type></trkpt>
      <trkpt lat="40.84293197" lon="-4.42175801"><ele>2110</ele><speed>15.81</speed><time>2016-06-30T15:19:38Z</time><pdop>9.0</pdop><geoidheight>53.00</geoidheight><course>82.2</course><type>1</type></trkpt>
      <trkpt lat="40.842953" lon="-4.42142096"><ele>2112</ele><speed>14.43</speed><time>2016-06-30T15:19:40Z</time><pdop>9.0</pdop><geoidheight>53.00</geoidheight><course>84.6</course><type>1</type></trkpt>
      <trkpt lat="40.8429873" lon="-4.42106912"><ele>2114</ele><speed>14.73</speed><time>2016-06-30T15:19:42Z</time><pdop>9.0</pdop><geoidheight>53.00</geoidheight><course>83.0</course><type>1</type></trkpt>
      <trkpt lat="40.84300957" lon="-4.42073396"><ele>2113</ele><speed>14.51</speed><time>2016-06-30T15:19:44Z</time><pdop>9.0</pdop><geoidheight>53.00</geoidheight><course>85.4</course><type>1</type></trkpt>
      <trkpt lat="40.84303955" lon="-4.42038673"><ele>2116</ele><speed>14.96</speed><time>2016-06-30T15:19:46Z</time><pdop>9.0</pdop><geoidheight>53.00</geoidheight><course>85.3</course><type>1</type></trkpt>
      <trkpt lat="40.84306074" lon="-4.42005536"><ele>2119</ele><speed>14.22</speed><time>2016-06-30T15:19:48Z</time><pdop>9.0</pdop><geoidheight>53.00</geoidheight><course>86.6</course><type>1</type></trkpt>
      <trkpt lat="40.84307332" lon="-4.41971878"><ele>2120</ele><speed>14.35</speed><time>2016-06-30T15:19:50Z</time><pdop>9.0</pdop><geoidheight>53.00</geoidheight><course>87.3</course><type>1</type></trkpt>
      <trkpt lat="40.84311708" lon="-4.41937539"><ele>2118</ele><speed>14.66</speed><time>2016-06-30T15:19:52Z</time><pdop>9.0</pdop><geoidheight>53.00</geoidheight><course>79.1</course><type>1</type></trkpt>
      <trkpt lat="40.84318573" lon="-4.41904927"><ele>2120</ele><speed>13.97</speed><time>2016-06-30T15:19:54Z</time><pdop>9.0</pdop><geoidheight>53.00</geoidheight><course>76.3</course><type>1</type></trkpt>
      <trkpt lat="40.84321076" lon="-4.41873047"><ele>2120</ele><speed>13.48</speed><time>2016-06-30T15:19:56Z</time><pdop>9.0</pdop><geoidheight>53.00</geoidheight><course>85.2</course><type>1</type></trkpt>
      <trkpt lat="40.84323087" lon="-4.41843409"><ele>2119</ele><speed>12.19</speed><time>2016-06-30T15:19:58Z</time><pdop>9.0</pdop><geoidheight>53.00</geoidheight><course>87.0</course><type>1</type></trkpt>
      <trkpt lat="40.84324661" lon="-4.41816631"><ele>2115</ele><speed>11.73</speed><time>2016-06-30T15:20:00Z</time><pdop>9.0</pdop><geoidheight>53.00</geoidheight><course>84.8</course><type>1</type></trkpt>
      <trkpt lat="40.8433108" lon="-4.41787366"><ele>2109</ele><speed>13.48</speed><time>2016-06-30T15:20:02Z</time><pdop>9.0</pdop><geoidheight>53.00</geoidheight><course>71.2</course><type>1</type></trkpt>
      <trkpt lat="40.84339655" lon="-4.41755876"><ele>2109</ele><speed>13.72</speed><time>2016-06-30T15:20:04Z</time><pdop>9.0</pdop><geoidheight>53.00</geoidheight><course>70.2</course><type>1</type></trkpt>
      <trkpt lat="40.84344283" lon="-4.4172604"><ele>2110</ele><speed>12.81</speed><time>2016-06-30T15:20:06Z</time><pdop>9.0</pdop><geoidheight>53.00</geoidheight><course>78.1</course><type>1</type></trkpt>
      <trkpt lat="40.84342193" lon="-4.41694632"><ele>2110</ele><speed>13.34</speed><time>2016-06-30T15:20:08Z</time><pdop>9.0</pdop><geoidheight>53.00</geoidheight><course>90.8</course><type>1</type></trkpt>
      <trkpt lat="40.84340981" lon="-4.41663156"><ele>2106</ele><speed>13.25</speed><time>2016-06-30T15:20:10Z</time><pdop>9.0</pdop><geoidheight>53.00</geoidheight><course>91.6</course><type>1</type></trkpt>
      <trkpt lat="40.84341657" lon="-4.41630792"><ele>2098</ele><speed>14.86</speed><time>2016-06-30T15:20:12Z</time><pdop>9.0</pdop><geoidheight>53.00</geoidheight><course>87.5</course><type>1</type></trkpt>
      <trkpt lat="40.84343063" lon="-4.41592518"><ele>2092</ele><speed>16.36</speed><time>2016-06-30T15:20:14Z</time><pdop>9.0</pdop><geoidheight>53.00</geoidheight><course>86.5</course><type>1</type></trkpt>
      <trkpt lat="40.84345545" lon="-4.41552999"><ele>2091</ele><speed>15.72</speed><time>2016-06-30T15:20:16Z</time><pdop>9.0</pdop><geoidheight>53.00</geoidheight><course>88.3</course><type>1</type></trkpt>
      <trkpt lat="40.84345999" lon="-4.41521031"><ele>2091</ele><speed>13.49</speed><time>2016-06-30T15:20:18Z</time><pdop>9.0</pdop><geoidheight>53.00</geoidheight><course>89.0</course><type>1</type></trkpt>
      <trkpt lat="40.84349315" lon="-4.41486595"><ele>2084</ele><speed>15.29</speed><time>2016-06-30T15:20:20Z</time><pdop>9.0</pdop><geoidheight>53.00</geoidheight><course>82.9</course><type>1</type></trkpt>
      <trkpt lat="40.84354034" lon="-4.41447376"><ele>2078</ele><speed>17.79</speed><time>2016-06-30T15:20:22Z</time><pdop>9.0</pdop><geoidheight>53.00</geoidheight><course>79.4</course><type>1</type></trkpt>
      <trkpt lat="40.84356247" lon="-4.41425716"><ele>2077</ele><speed>18.10</speed><time>2016-06-30T15:20:23Z</time><pdop>9.0</pdop><geoidheight>53.00</geoidheight><course>80.6</course><type>1</type></trkpt>
      <trkpt lat="40.84360149" lon="-4.41404765"><ele>2079</ele><speed>17.98</speed><time>2016-06-30T15:20:24Z</time><pdop>9.0</pdop><geoidheight>53.00</geoidheight><course>77.7</course><type>1</type></trkpt>
      <trkpt lat="40.84364588" lon="-4.41366248"><ele>2081</ele><speed>15.91</speed><time>2016-06-30T15:20:26Z</time><pdop>9.0</pdop><geoidheight>53.00</geoidheight><course>78.5</course><type>1</type></trkpt>
      <trkpt lat="40.84368081" lon="-4.41330772"><ele>2084</ele><speed>15.51</speed><time>2016-06-30T15:20:28Z</time><pdop>9.0</pdop><geoidheight>53.00</geoidheight><course>83.2</course><type>1</type></trkpt>
      <trkpt lat="40.84369599" lon="-4.41292295"><ele>2088</ele><speed>16.07</speed><time>2016-06-30T15:20:30Z</time><pdop>9.0</pdop><geoidheight>53.00</geoidheight><course>86.9</course><type>1</type></trkpt>
      <trkpt lat="40.8437057" lon="-4.41254388"><ele>2091</ele><speed>15.17</speed><time>2016-06-30T15:20:32Z</time><pdop>9.0</pdop><geoidheight>53.00</geoidheight><course>91.9</course><type>1</type></trkpt>
      <trkpt lat="40.84360229" lon="-4.41225475"><ele>2090</ele><speed>13.81</speed><time>2016-06-30T15:20:34Z</time><pdop>3.0</pdop><geoidheight>53.00</geoidheight><course>121.2</course><type>1</type></trkpt>
      <trkpt lat="40.8435076" lon="-4.41215102"><ele>2089</ele><speed>13.75</speed><time>2016-06-30T15:20:35Z</time><pdop>3.0</pdop><geoidheight>53.00</geoidheight><course>141.8</course><type>1</type></trkpt>
      <trkpt lat="40.84340752" lon="-4.41210772"><ele>2087</ele><speed>12.21</speed><time>2016-06-30T15:20:36Z</time><pdop>3.0</pdop><geoidheight>53.00</geoidheight><course>159.7</course><type>1</type></trkpt>
      <trkpt lat="40.84330212" lon="-4.41205618"><ele>2086</ele><speed>12.11</speed><time>2016-06-30T15:20:37Z</time><pdop>3.0</pdop><geoidheight>53.00</geoidheight><course>159.8</course><type>1</type></trkpt>
      <trkpt lat="40.84322608" lon="-4.41205567"><ele>2086</ele><speed>10.27</speed><time>2016-06-30T15:20:38Z</time><pdop>5.0</pdop><geoidheight>53.00</geoidheight><course>165.7</course><type>1</type></trkpt>
      <trkpt lat="40.84314765" lon="-4.41229426"><ele>2085</ele><speed>7.85</speed><time>2016-06-30T15:20:40Z</time><pdop>9.0</pdop><geoidheight>53.00</geoidheight><course>221.8</course><type>1</type></trkpt>
      <trkpt lat="40.84314799" lon="-4.41250118"><ele>2085</ele><speed>10.90</speed><time>2016-06-30T15:20:41Z</time><pdop>7.0</pdop><geoidheight>53.00</geoidheight><course>253.7</course><type>1</type></trkpt>
      <trkpt lat="40.84321059" lon="-4.41268321"><ele>2084</ele><speed>9.35</speed><time>2016-06-30T15:20:43Z</time><pdop>9.0</pdop><geoidheight>53.00</geoidheight><course>272.4</course><type>1</type></trkpt>
      <trkpt lat="40.84349838" lon="-4.41260003"><ele>2081</ele><speed>8.39</speed><time>2016-06-30T15:20:45Z</time><pdop>7.0</pdop><geoidheight>53.00</geoidheight><course>343.6</course><type>1</type></trkpt>
      <trkpt lat="40.84374748" lon="-4.41234197"><ele>2089</ele><speed>12.35</speed><time>2016-06-30T15:20:47Z</time><pdop>6.0</pdop><geoidheight>53.00</geoidheight><course>39.0</course><type>1</type></trkpt>
      <trkpt lat="40.84381642" lon="-4.4122391"><ele>2090</ele><speed>11.87</speed><time>2016-06-30T15:20:48Z</time><pdop>5.0</pdop><geoidheight>53.00</geoidheight><course>48.1</course><type>1</type></trkpt>
      <trkpt lat="40.84388592" lon="-4.41211733"><ele>2090</ele><speed>12.23</speed><time>2016-06-30T15:20:49Z</time><pdop>5.0</pdop><geoidheight>53.00</geoidheight><course>56.8</course><type>1</type></trkpt>
      <trkpt lat="40.84395542" lon="-4.41197356"><ele>2091</ele><speed>13.03</speed><time>2016-06-30T15:20:50Z</time><pdop>4.0</pdop><geoidheight>53.00</geoidheight><course>60.7</course><type>1</type></trkpt>
      <trkpt lat="40.84402824" lon="-4.41183432"><ele>2093</ele><speed>13.95</speed><time>2016-06-30T15:20:51Z</time><pdop>4.0</pdop><geoidheight>53.00</geoidheight><course>59.6</course><type>1</type></trkpt>
      <trkpt lat="40.84410646" lon="-4.41168313"><ele>2094</ele><speed>14.97</speed><time>2016-06-30T15:20:52Z</time><pdop>4.0</pdop><geoidheight>53.00</geoidheight><course>59.0</course><type>1</type></trkpt>
      <trkpt lat="40.84415732" lon="-4.41152386"><ele>2095</ele><speed>14.53</speed><time>2016-06-30T15:20:53Z</time><pdop>5.0</pdop><geoidheight>53.00</geoidheight><course>64.5</course><type>1</type></trkpt>
      <trkpt lat="40.84421892" lon="-4.41137032"><ele>2098</ele><speed>14.07</speed><time>2016-06-30T15:20:54Z</time><pdop>4.0</pdop><geoidheight>53.00</geoidheight><course>66.0</course><type>1</type></trkpt>
      <trkpt lat="40.84426671" lon="-4.41121683"><ele>2098</ele><speed>13.76</speed><time>2016-06-30T15:20:55Z</time><pdop>4.0</pdop><geoidheight>53.00</geoidheight><course>69.5</course><type>1</type></trkpt>
      <trkpt lat="40.84430511" lon="-4.41107161"><ele>2099</ele><speed>13.02</speed><time>2016-06-30T15:20:56Z</time><pdop>4.0</pdop><geoidheight>53.00</geoidheight><course>72.9</course><type>1</type></trkpt>
      <trkpt lat="40.84432877" lon="-4.41090799"><ele>2100</ele><speed>13.27</speed><time>2016-06-30T15:20:57Z</time><pdop>4.0</pdop><geoidheight>53.00</geoidheight><course>80.6</course><type>1</type></trkpt>
      <trkpt lat="40.84436267" lon="-4.4107227"><ele>2101</ele><speed>14.31</speed><time>2016-06-30T15:20:58Z</time><pdop>4.0</pdop><geoidheight>53.00</geoidheight><course>81.5</course><type>1</type></trkpt>
      <trkpt lat="40.84437195" lon="-4.41054634"><ele>2102</ele><speed>14.62</speed><time>2016-06-30T15:20:59Z</time><pdop>5.0</pdop><geoidheight>53.00</geoidheight><course>86.9</course><type>1</type></trkpt>
      <trkpt lat="40.84435624" lon="-4.41042676"><ele>2108</ele><speed>13.56</speed><time>2016-06-30T15:21:00Z</time><pdop>4.0</pdop><geoidheight>53.00</geoidheight><course>99.0</course><type>1</type></trkpt>
      <trkpt lat="40.84431453" lon="-4.4102923"><ele>2110</ele><speed>11.99</speed><time>2016-06-30T15:21:01Z</time><pdop>4.0</pdop><geoidheight>53.00</geoidheight><course>114.2</course><type>1</type></trkpt>
      <trkpt lat="40.84425319" lon="-4.41019519"><ele>2111</ele><speed>11.14</speed><time>2016-06-30T15:21:02Z</time><pdop>4.0</pdop><geoidheight>53.00</geoidheight><course>131.6</course><type>1</type></trkpt>
      <trkpt lat="40.84418049" lon="-4.41012442"><ele>2111</ele><speed>10.66</speed><time>2016-06-30T15:21:03Z</time><pdop>4.0</pdop><geoidheight>53.00</geoidheight><course>148.2</course><type>1</type></trkpt>
      <trkpt lat="40.84409569" lon="-4.41008836"><ele>2111</ele><speed>10.10</speed><time>2016-06-30T15:21:04Z</time><pdop>4.0</pdop><geoidheight>53.00</geoidheight><course>159.9</course><type>1</type></trkpt>
      <trkpt lat="40.84402355" lon="-4.41010399"><ele>2112</ele><speed>8.70</speed><time>2016-06-30T15:21:05Z</time><pdop>4.0</pdop><geoidheight>53.00</geoidheight><course>182.8</course><type>1</type></trkpt>
      <trkpt lat="40.84393941" lon="-4.41024322"><ele>2112</ele><speed>7.38</speed><time>2016-06-30T15:21:07Z</time><pdop>4.0</pdop><geoidheight>53.00</geoidheight><course>244.0</course><type>1</type></trkpt>
      <trkpt lat="40.84395126" lon="-4.41034192"><ele>2111</ele><speed>7.96</speed><time>2016-06-30T15:21:08Z</time><pdop>4.0</pdop><geoidheight>53.00</geoidheight><course>275.1</course><type>1</type></trkpt>
      <trkpt lat="40.84400605" lon="-4.41052373"><ele>2111</ele><speed>8.08</speed><time>2016-06-30T15:21:10Z</time><pdop>7.0</pdop><geoidheight>53.00</geoidheight><course>290.9</course><type>1</type></trkpt>
      <trkpt lat="40.84416009" lon="-4.4104439"><ele>2111</ele><speed>7.69</speed><time>2016-06-30T15:21:12Z</time><pdop>7.0</pdop><geoidheight>53.00</geoidheight><course>12.6</course><type>1</type></trkpt>
      <trkpt lat="40.84434004" lon="-4.41031189"><ele>2112</ele><speed>10.07</speed><time>2016-06-30T15:21:14Z</time><pdop>7.0</pdop><geoidheight>53.00</geoidheight><course>29.8</course><type>1</type></trkpt>
      <trkpt lat="40.84453727" lon="-4.41015993"><ele>2117</ele><speed>13.24</speed><time>2016-06-30T15:21:16Z</time><pdop>6.0</pdop><geoidheight>53.00</geoidheight><course>35.1</course><type>1</type></trkpt>
      <trkpt lat="40.84473094" lon="-4.40999941"><ele>2122</ele><speed>12.28</speed><time>2016-06-30T15:21:18Z</time><pdop>7.0</pdop><geoidheight>53.00</geoidheight><course>33.4</course><type>1</type></trkpt>
      <trkpt lat="40.8448813" lon="-4.40977506"><ele>2132</ele><speed>12.60</speed><time>2016-06-30T15:21:20Z</time><pdop>5.0</pdop><geoidheight>53.00</geoidheight><course>51.0</course><type>1</type></trkpt>
      <trkpt lat="40.84496942" lon="-4.40966276"><ele>2135</ele><speed>13.83</speed><time>2016-06-30T15:21:21Z</time><pdop>5.0</pdop><geoidheight>53.00</geoidheight><course>51.7</course><type>1</type></trkpt>
      <trkpt lat="40.8450452" lon="-4.40953633"><ele>2137</ele><speed>13.68</speed><time>2016-06-30T15:21:22Z</time><pdop>6.0</pdop><geoidheight>53.00</geoidheight><course>51.7</course><type>1</type></trkpt>
      <trkpt lat="40.84511239" lon="-4.4093956"><ele>2138</ele><speed>13.59</speed><time>2016-06-30T15:21:23Z</time><pdop>8.0</pdop><geoidheight>53.00</geoidheight><course>52.8</course><type>1</type></trkpt>
      <trkpt lat="40.84530109" lon="-4.40934325"><ele>2141</ele><speed>10.50</speed><time>2016-06-30T15:21:25Z</time><pdop>8.0</pdop><geoidheight>53.00</geoidheight><course>21.7</course><type>1</type></trkpt>
      <trkpt lat="40.84548007" lon="-4.40953686"><ele>2145</ele><speed>6.62</speed><time>2016-06-30T15:21:28Z</time><pdop>10.0</pdop><geoidheight>53.00</geoidheight><course>333.7</course><type>1</type></trkpt>
      <trkpt lat="40.8452137" lon="-4.40978237"><ele>2146</ele><speed>6.68</speed><time>2016-06-30T15:21:32Z</time><pdop>20.0</pdop><geoidheight>53.00</geoidheight><course>208.6</course><type>1</type></trkpt>
      <trkpt lat="40.84481188" lon="-4.40936556"><ele>2150</ele><speed>12.30</speed><time>2016-06-30T15:21:35Z</time><pdop>13.0</pdop><geoidheight>53.00</geoidheight><course>143.2</course><type>1</type></trkpt>
      <trkpt lat="40.84460213" lon="-4.40910632"><ele>2156</ele><speed>12.33</speed><time>2016-06-30T15:21:37Z</time><pdop>10.0</pdop><geoidheight>53.00</geoidheight><course>130.0</course><type>1</type></trkpt>
      <trkpt lat="40.84442632" lon="-4.40886478"><ele>2161</ele><speed>12.43</speed><time>2016-06-30T15:21:39Z</time><pdop>11.0</pdop><geoidheight>53.00</geoidheight><course>127.5</course><type>1</type></trkpt>
      <trkpt lat="40.84433619" lon="-4.40854805"><ele>2166</ele><speed>11.53</speed><time>2016-06-30T15:21:41Z</time><pdop>12.0</pdop><geoidheight>53.00</geoidheight><course>115.0</course><type>1</type></trkpt>
      <trkpt lat="40.84436716" lon="-4.40817971"><ele>2171</ele><speed>11.19</speed><time>2016-06-30T15:21:43Z</time><pdop>11.0</pdop><geoidheight>53.00</geoidheight><course>98.0</course><type>1</type></trkpt>
      <trkpt lat="40.84472128" lon="-4.40812975"><ele>2182</ele><speed>5.55</speed><time>2016-06-30T15:21:48Z</time><pdop>18.0</pdop><geoidheight>53.00</geoidheight><course>357.3</course><type>1</type></trkpt>
      <trkpt lat="40.84461828" lon="-4.40855874"><ele>2193</ele><speed>6.11</speed><time>2016-06-30T15:21:53Z</time><pdop>16.0</pdop><geoidheight>53.00</geoidheight><course>206.6</course><type>1</type></trkpt>
      <trkpt lat="40.84446203" lon="-4.40818011"><ele>2203</ele><speed>9.21</speed><time>2016-06-30T15:21:57Z</time><pdop>17.0</pdop><geoidheight>53.00</geoidheight><course>120.2</course><type>1</type></trkpt>
      <trkpt lat="40.84449903" lon="-4.40774077"><ele>2211</ele><speed>13.95</speed><time>2016-06-30T15:21:59Z</time><pdop>13.0</pdop><geoidheight>53.00</geoidheight><course>84.1</course><type>1</type></trkpt>
      <trkpt lat="40.84459644" lon="-4.40737293"><ele>2224</ele><speed>14.54</speed><time>2016-06-30T15:22:01Z</time><pdop>10.0</pdop><geoidheight>53.00</geoidheight><course>74.9</course><type>1</type></trkpt>
      <trkpt lat="40.84472649" lon="-4.40705995"><ele>2233</ele><speed>13.09</speed><time>2016-06-30T15:22:03Z</time><pdop>11.0</pdop><geoidheight>53.00</geoidheight><course>55.1</course><type>1</type></trkpt>
      <trkpt lat="40.84486891" lon="-4.40683561"><ele>2236</ele><speed>11.55</speed><time>2016-06-30T15:22:05Z</time><pdop>11.0</pdop><geoidheight>53.00</geoidheight><course>46.5</course><type>1</type></trkpt>
      <trkpt lat="40.8450743" lon="-4.40664556"><ele>2243</ele><speed>8.70</speed><time>2016-06-30T15:22:08Z</time><pdop>13.0</pdop><geoidheight>53.00</geoidheight><course>36.3</course><type>1</type></trkpt>
      <trkpt lat="40.84538723" lon="-4.40676649"><ele>2248</ele><speed>9.55</speed><time>2016-06-30T15:22:11Z</time><pdop>15.0</pdop><geoidheight>53.00</geoidheight><course>350.3</course><type>1</type></trkpt>
      <trkpt lat="40.84508349" lon="-4.40692635"><ele>2259</ele><speed>7.79</speed><time>2016-06-30T15:22:18Z</time><pdop>19.0</pdop><geoidheight>53.00</geoidheight><course>174.9</course><type>1</type></trkpt>
      <trkpt lat="40.84467499" lon="-4.40672586"><ele>2264</ele><speed>14.26</speed><time>2016-06-30T15:22:20Z</time><pdop>16.0</pdop><geoidheight>53.00</geoidheight><course>160.9</course><type>1</type></trkpt>
      <trkpt lat="40.84448629" lon="-4.40625646"><ele>2272</ele><speed>12.79</speed><time>2016-06-30T15:22:23Z</time><pdop>13.0</pdop><geoidheight>53.00</geoidheight><course>128.5</course><type>1</type></trkpt>
      <trkpt lat="40.8443306" lon="-4.40603468"><ele>2279</ele><speed>11.91</speed><time>2016-06-30T15:22:25Z</time><pdop>12.0</pdop><geoidheight>53.00</geoidheight><course>134.0</course><type>1</type></trkpt>
      <trkpt lat="40.84416077" lon="-4.40581621"><ele>2290</ele><speed>8.25</speed><time>2016-06-30T15:22:28Z</time><pdop>13.0</pdop><geoidheight>53.00</geoidheight><course>136.9</course><type>1</type></trkpt>
      <trkpt lat="40.84399337" lon="-4.40608793"><ele>2302</ele><speed>5.25</speed><time>2016-06-30T15:22:31Z</time><pdop>15.0</pdop><geoidheight>53.00</geoidheight><course>205.0</course><type>1</type></trkpt>
      <trkpt lat="40.8443343" lon="-4.4058509"><ele>2317</ele><speed>16.03</speed><time>2016-06-30T15:22:34Z</time><pdop>12.0</pdop><geoidheight>53.00</geoidheight><course>56.2</course><type>1</type></trkpt>
      <trkpt lat="40.8444377" lon="-4.40551011"><ele>2327</ele><speed>15.42</speed><time>2016-06-30T15:22:36Z</time><pdop>11.0</pdop><geoidheight>53.00</geoidheight><course>90.9</course><type>1</type></trkpt>
      <trkpt lat="40.8443928" lon="-4.40520661"><ele>2338</ele><speed>16.56</speed><time>2016-06-30T15:22:38Z</time><pdop>6.0</pdop><geoidheight>53.00</geoidheight><course>128.8</course><type>1</type></trkpt>
      <trkpt lat="40.84429801" lon="-4.40509548"><ele>2343</ele><speed>16.30</speed><time>2016-06-30T15:22:39Z</time><pdop>5.0</pdop><geoidheight>53.00</geoidheight><course>141.3</course><type>1</type></trkpt>
      <trkpt lat="40.84419881" lon="-4.40504972"><ele>2351</ele><speed>14.73</speed><time>2016-06-30T15:22:40Z</time><pdop>5.0</pdop><geoidheight>53.00</geoidheight><course>156.8</course><type>1</type></trkpt>
      <trkpt lat="40.84410207" lon="-4.40503408"><ele>2283</ele><speed>12.78</speed><time>2016-06-30T15:22:41Z</time><pdop>5.0</pdop><geoidheight>53.00</geoidheight><course>170.1</course><type>1</type></trkpt>
      <trkpt lat="40.84393797" lon="-4.40506554"><ele>2289</ele><speed>10.36</speed><time>2016-06-30T15:22:43Z</time><pdop>6.0</pdop><geoidheight>53.00</geoidheight><course>188.0</course><type>1</type></trkpt>
      <trkpt lat="40.84400598" lon="-4.40520425"><ele>2487</ele><speed>5.78</speed><time>2016-06-30T15:22:45Z</time><pdop>6.0</pdop><geoidheight>53.00</geoidheight><course>285.3</course><type>1</type></trkpt>
      <trkpt lat="40.84423983" lon="-4.40514816"><ele>2497</ele><speed>6.03</speed><time>2016-06-30T15:22:49Z</time><pdop>8.0</pdop><geoidheight>53.00</geoidheight><course>25.5</course><type>1</type></trkpt>
      <trkpt lat="40.84433633" lon="-4.40498599"><ele>2531</ele><speed>10.06</speed><time>2016-06-30T15:22:50Z</time><pdop>9.0</pdop><geoidheight>53.00</geoidheight><course>42.4</course><type>1</type></trkpt>
      <trkpt lat="40.84444674" lon="-4.40466578"><ele>2516</ele><speed>11.44</speed><time>2016-06-30T15:22:52Z</time><pdop>10.0</pdop><geoidheight>53.00</geoidheight><course>69.7</course><type>1</type></trkpt>
      <trkpt lat="40.84433684" lon="-4.40442832"><ele>2534</ele><speed>15.73</speed><time>2016-06-30T15:22:53Z</time><pdop>7.0</pdop><geoidheight>53.00</geoidheight><course>123.3</course><type>1</type></trkpt>
      <trkpt lat="40.84425972" lon="-4.40427385"><ele>2509</ele><speed>15.63</speed><time>2016-06-30T15:22:54Z</time><pdop>8.0</pdop><geoidheight>53.00</geoidheight><course>123.4</course><type>1</type></trkpt>
      <trkpt lat="40.84405152" lon="-4.40411524"><ele>2471</ele><speed>14.05</speed><time>2016-06-30T15:22:56Z</time><pdop>8.0</pdop><geoidheight>53.00</geoidheight><course>150.8</course><type>1</type></trkpt>
      <trkpt lat="40.84391053" lon="-4.4042391"><ele>2451</ele><speed>9.40</speed><time>2016-06-30T15:22:58Z</time><pdop>6.0</pdop><geoidheight>53.00</geoidheight><course>217.0</course><type>1</type></trkpt>
      <trkpt lat="40.84383442" lon="-4.404382"><ele>2440</ele><speed>8.03</speed><time>2016-06-30T15:23:00Z</time><pdop>6.0</pdop><geoidheight>53.00</geoidheight><course>240.3</course><type>1</type></trkpt>
      <trkpt lat="40.84396091" lon="-4.40446565"><ele>2436</ele><speed>9.05</speed><time>2016-06-30T15:23:02Z</time><pdop>5.0</pdop><geoidheight>53.00</geoidheight><course>336.3</course><type>1</type></trkpt>
      <trkpt lat="40.84410988" lon="-4.40444801"><ele>2437</ele><speed>9.93</speed><time>2016-06-30T15:23:04Z</time><pdop>5.0</pdop><geoidheight>53.00</geoidheight><course>10.7</course><type>1</type></trkpt>
      <trkpt lat="40.84423242" lon="-4.40433747"><ele>2438</ele><speed>15.00</speed><time>2016-06-30T15:23:05Z</time><pdop>5.0</pdop><geoidheight>53.00</geoidheight><course>30.0</course><type>1</type></trkpt>
      <trkpt lat="40.84433962" lon="-4.40421402"><ele>2441</ele><speed>16.58</speed><time>2016-06-30T15:23:06Z</time><pdop>4.0</pdop><geoidheight>53.00</geoidheight><course>45.9</course><type>1</type></trkpt>
      <trkpt lat="40.84444127" lon="-4.404076"><ele>2445</ele><speed>16.60</speed><time>2016-06-30T15:23:07Z</time><pdop>5.0</pdop><geoidheight>53.00</geoidheight><course>45.9</course><type>1</type></trkpt>
      <trkpt lat="40.84447639" lon="-4.40391461"><ele>2452</ele><speed>15.93</speed><time>2016-06-30T15:23:08Z</time><pdop>4.0</pdop><geoidheight>53.00</geoidheight><course>67.5</course><type>1</type></trkpt>
      <trkpt lat="40.84452701" lon="-4.40375405"><ele>2459</ele><speed>15.93</speed><time>2016-06-30T15:23:09Z</time><pdop>6.0</pdop><geoidheight>53.00</geoidheight><course>67.5</course><type>1</type></trkpt>
      <trkpt lat="40.84452762" lon="-4.40357961"><ele>2466</ele><speed>15.52</speed><time>2016-06-30T15:23:10Z</time><pdop>5.0</pdop><geoidheight>53.00</geoidheight><course>87.2</course><type>1</type></trkpt>
      <trkpt lat="40.84445481" lon="-4.40343231"><ele>2465</ele><speed>14.65</speed><time>2016-06-30T15:23:11Z</time><pdop>5.0</pdop><geoidheight>53.00</geoidheight><course>114.9</course><type>1</type></trkpt>
      <trkpt lat="40.8443834" lon="-4.40330077"><ele>2468</ele><speed>15.23</speed><time>2016-06-30T15:23:12Z</time><pdop>5.0</pdop><geoidheight>53.00</geoidheight><course>130.4</course><type>1</type></trkpt>
      <trkpt lat="40.84429086" lon="-4.40317332"><ele>2471</ele><speed>15.66</speed><time>2016-06-30T15:23:13Z</time><pdop>5.0</pdop><geoidheight>53.00</geoidheight><course>138.8</course><type>1</type></trkpt>
      <trkpt lat="40.84418231" lon="-4.40314994"><ele>2475</ele><speed>13.84</speed><time>2016-06-30T15:23:14Z</time><pdop>4.0</pdop><geoidheight>53.00</geoidheight><course>161.4</course><type>1</type></trkpt>
      <trkpt lat="40.84406839" lon="-4.40309946"><ele>2478</ele><speed>13.60</speed><time>2016-06-30T15:23:15Z</time><pdop>5.0</pdop><geoidheight>53.00</geoidheight><course>161.4</course><type>1</type></trkpt>
      <trkpt lat="40.84392388" lon="-4.4031844"><ele>2488</ele><speed>8.87</speed><time>2016-06-30T15:23:17Z</time><pdop>6.0</pdop><geoidheight>53.00</geoidheight><course>200.5</course><type>1</type></trkpt>
      <trkpt lat="40.84387111" lon="-4.40329512"><ele>2489</ele><speed>6.85</speed><time>2016-06-30T15:23:19Z</time><pdop>5.0</pdop><geoidheight>53.00</geoidheight><course>242.2</course><type>1</type></trkpt>
      <trkpt lat="40.84388728" lon="-4.40346511"><ele>2494</ele><speed>6.60</speed><time>2016-06-30T15:23:21Z</time><pdop>5.0</pdop><geoidheight>53.00</geoidheight><course>283.1</course><type>1</type></trkpt>
      <trkpt lat="40.84402011" lon="-4.40354007"><ele>2496</ele><speed>9.84</speed><time>2016-06-30T15:23:23Z</time><pdop>5.0</pdop><geoidheight>53.00</geoidheight><course>342.5</course><type>1</type></trkpt>
      <trkpt lat="40.84420568" lon="-4.40353017"><ele>2497</ele><speed>10.08</speed><time>2016-06-30T15:23:25Z</time><pdop>6.0</pdop><geoidheight>53.00</geoidheight><course>359.9</course><type>1</type></trkpt>
      <trkpt lat="40.84431831" lon="-4.40348976"><ele>2498</ele><speed>11.05</speed><time>2016-06-30T15:23:26Z</time><pdop>6.0</pdop><geoidheight>53.00</geoidheight><course>11.5</course><type>1</type></trkpt>
      <trkpt lat="40.84442302" lon="-4.40339454"><ele>2506</ele><speed>13.00</speed><time>2016-06-30T15:23:27Z</time><pdop>5.0</pdop><geoidheight>53.00</geoidheight><course>31.2</course><type>1</type></trkpt>
      <trkpt lat="40.84449178" lon="-4.4033012"><ele>2512</ele><speed>12.44</speed><time>2016-06-30T15:23:28Z</time><pdop>5.0</pdop><geoidheight>53.00</geoidheight><course>43.7</course><type>1</type></trkpt>
      <trkpt lat="40.84455768" lon="-4.40317411"><ele>2515</ele><speed>12.27</speed><time>2016-06-30T15:23:29Z</time><pdop>5.0</pdop><geoidheight>53.00</geoidheight><course>53.8</course><type>1</type></trkpt>
      <trkpt lat="40.84461398" lon="-4.40304132"><ele>2517</ele><speed>13.49</speed><time>2016-06-30T15:23:30Z</time><pdop>5.0</pdop><geoidheight>53.00</geoidheight><course>65.4</course><type>1</type></trkpt>
      <trkpt lat="40.8446606" lon="-4.40288135"><ele>2518</ele><speed>14.62</speed><time>2016-06-30T15:23:31Z</time><pdop>5.0</pdop><geoidheight>53.00</geoidheight><course>73.8</course><type>1</type></trkpt>
      <trkpt lat="40.84469697" lon="-4.40271646"><ele>2520</ele><speed>14.52</speed><time>2016-06-30T15:23:32Z</time><pdop>6.0</pdop><geoidheight>53.00</geoidheight><course>73.8</course><type>1</type></trkpt>
      <trkpt lat="40.84468943" lon="-4.40254739"><ele>2524</ele><speed>15.50</speed><time>2016-06-30T15:23:33Z</time><pdop>5.0</pdop><geoidheight>53.00</geoidheight><course>93.2</course><type>1</type></trkpt>
      <trkpt lat="40.84465126" lon="-4.40237673"><ele>2526</ele><speed>15.34</speed><time>2016-06-30T15:23:34Z</time><pdop>5.0</pdop><geoidheight>53.00</geoidheight><course>104.5</course><type>1</type></trkpt>
      <trkpt lat="40.84462558" lon="-4.40221205"><ele>2529</ele><speed>14.49</speed><time>2016-06-30T15:23:35Z</time><pdop>5.0</pdop><geoidheight>53.00</geoidheight><course>114.6</course><type>1</type></trkpt>
      <trkpt lat="40.84456305" lon="-4.40208381"><ele>2531</ele><speed>13.48</speed><time>2016-06-30T15:23:36Z</time><pdop>4.0</pdop><geoidheight>53.00</geoidheight><course>125.2</course><type>1</type></trkpt>
      <trkpt lat="40.84449537" lon="-4.40195744"><ele>2534</ele><speed>13.30</speed><time>2016-06-30T15:23:37Z</time><pdop>5.0</pdop><geoidheight>53.00</geoidheight><course>125.2</course><type>1</type></trkpt>
      <trkpt lat="40.84440906" lon="-4.40187104"><ele>2537</ele><speed>12.94</speed><time>2016-06-30T15:23:38Z</time><pdop>4.0</pdop><geoidheight>53.00</geoidheight><course>141.8</course><type>1</type></trkpt>
      <trkpt lat="40.84431582" lon="-4.40181727"><ele>2538</ele><speed>12.02</speed><time>2016-06-30T15:23:39Z</time><pdop>4.0</pdop><geoidheight>53.00</geoidheight><course>157.9</course><type>1</type></trkpt>
      <trkpt lat="40.84422009" lon="-4.40178024"><ele>2540</ele><speed>11.11</speed><time>2016-06-30T15:23:40Z</time><pdop>4.0</pdop><geoidheight>53.00</geoidheight><course>169.5</course><type>1</type></trkpt>
      <trkpt lat="40.84411983" lon="-4.40175704"><ele>2541</ele><speed>11.06</speed><time>2016-06-30T15:23:41Z</time><pdop>4.0</pdop><geoidheight>53.00</geoidheight><course>174.3</course><type>1</type></trkpt>
      <trkpt lat="40.84405774" lon="-4.40183207"><ele>2545</ele><speed>9.66</speed><time>2016-06-30T15:23:42Z</time><pdop>4.0</pdop><geoidheight>53.00</geoidheight><course>208.6</course><type>1</type></trkpt>
      <trkpt lat="40.84398279" lon="-4.40188583"><ele>2546</ele><speed>9.53</speed><time>2016-06-30T15:23:43Z</time><pdop>5.0</pdop><geoidheight>53.00</geoidheight><course>208.6</course><type>1</type></trkpt>
      <trkpt lat="40.84399748" lon="-4.40201051"><ele>2549</ele><speed>8.18</speed><time>2016-06-30T15:23:44Z</time><pdop>5.0</pdop><geoidheight>53.00</geoidheight><course>254.4</course><type>1</type></trkpt>
      <trkpt lat="40.84404758" lon="-4.40214263"><ele>2553</ele><speed>7.55</speed><time>2016-06-30T15:23:46Z</time><pdop>5.0</pdop><geoidheight>53.00</geoidheight><course>307.3</course><type>1</type></trkpt>
      <trkpt lat="40.84422611" lon="-4.40212512"><ele>2559</ele><speed>10.44</speed><time>2016-06-30T15:23:48Z</time><pdop>5.0</pdop><geoidheight>53.00</geoidheight><course>8.5</course><type>1</type></trkpt>
      <trkpt lat="40.84431425" lon="-4.40209766"><ele>2561</ele><speed>11.21</speed><time>2016-06-30T15:23:49Z</time><pdop>5.0</pdop><geoidheight>53.00</geoidheight><course>22.1</course><type>1</type></trkpt>
      <trkpt lat="40.84438889" lon="-4.40201101"><ele>2565</ele><speed>13.37</speed><time>2016-06-30T15:23:50Z</time><pdop>4.0</pdop><geoidheight>53.00</geoidheight><course>43.2</course><type>1</type></trkpt>
      <trkpt lat="40.84447357" lon="-4.40190645"><ele>2568</ele><speed>13.38</speed><time>2016-06-30T15:23:51Z</time><pdop>5.0</pdop><geoidheight>53.00</geoidheight><course>43.2</course><type>1</type></trkpt>
      <trkpt lat="40.84450896" lon="-4.40176674"><ele>2574</ele><speed>13.60</speed><time>2016-06-30T15:23:52Z</time><pdop>4.0</pdop><geoidheight>53.00</geoidheight><course>69.2</course><type>1</type></trkpt>
      <trkpt lat="40.8445219" lon="-4.40162076"><ele>2577</ele><speed>13.61</speed><time>2016-06-30T15:23:53Z</time><pdop>4.0</pdop><geoidheight>53.00</geoidheight><course>85.7</course><type>1</type></trkpt>
      <trkpt lat="40.84453064" lon="-4.40146211"><ele>2579</ele><speed>13.49</speed><time>2016-06-30T15:23:54Z</time><pdop>5.0</pdop><geoidheight>53.00</geoidheight><course>85.8</course><type>1</type></trkpt>
      <trkpt lat="40.84445121" lon="-4.40131985"><ele>2581</ele><speed>15.11</speed><time>2016-06-30T15:23:55Z</time><pdop>4.0</pdop><geoidheight>53.00</geoidheight><course>117.9</course><type>1</type></trkpt>
      <trkpt lat="40.84439088" lon="-4.40118949"><ele>2584</ele><speed>14.54</speed><time>2016-06-30T15:23:56Z</time><pdop>4.0</pdop><geoidheight>53.00</geoidheight><course>129.0</course><type>1</type></trkpt>
      <trkpt lat="40.84431048" lon="-4.40105862"><ele>2586</ele><speed>14.37</speed><time>2016-06-30T15:23:57Z</time><pdop>5.0</pdop><geoidheight>53.00</geoidheight><course>129.0</course><type>1</type></trkpt>
      <trkpt lat="40.84420849" lon="-4.40103074"><ele>2590</ele><speed>12.56</speed><time>2016-06-30T15:23:58Z</time><pdop>4.0</pdop><geoidheight>53.00</geoidheight><course>158.8</course><type>1</type></trkpt>
      <trkpt lat="40.84410622" lon="-4.40098066"><ele>2591</ele><speed>12.33</speed><time>2016-06-30T15:23:59Z</time><pdop>5.0</pdop><geoidheight>53.00</geoidheight><course>163.0</course><type>1</type></trkpt>
      <trkpt lat="40.84397965" lon="-4.40109439"><ele>2597</ele><speed>7.90</speed><time>2016-06-30T15:24:01Z</time><pdop>4.0</pdop><geoidheight>53.00</geoidheight><course>221.6</course><type>1</type></trkpt>
      <trkpt lat="40.84399355" lon="-4.40125624"><ele>2601</ele><speed>7.27</speed><time>2016-06-30T15:24:03Z</time><pdop>4.0</pdop><geoidheight>53.00</geoidheight><course>289.0</course><type>1</type></trkpt>
      <trkpt lat="40.84407453" lon="-4.40138322"><ele>2605</ele><speed>7.76</speed><time>2016-06-30T15:24:05Z</time><pdop>5.0</pdop><geoidheight>53.00</geoidheight><course>318.0</course><type>1</type></trkpt>
      <trkpt lat="40.84426035" lon="-4.40129036"><ele>2607</ele><speed>10.66</speed><time>2016-06-30T15:24:07Z</time><pdop>6.0</pdop><geoidheight>53.00</geoidheight><course>18.6</course><type>1</type></trkpt>
      <trkpt lat="40.84436516" lon="-4.40120799"><ele>2610</ele><speed>12.48</speed><time>2016-06-30T15:24:08Z</time><pdop>6.0</pdop><geoidheight>53.00</geoidheight><course>30.2</course><type>1</type></trkpt>
      <trkpt lat="40.84444057" lon="-4.40108946"><ele>2611</ele><speed>13.61</speed><time>2016-06-30T15:24:09Z</time><pdop>6.0</pdop><geoidheight>53.00</geoidheight><course>47.8</course><type>1</type></trkpt>
      <trkpt lat="40.84448811" lon="-4.40094065"><ele>2616</ele><speed>14.60</speed><time>2016-06-30T15:24:10Z</time><pdop>5.0</pdop><geoidheight>53.00</geoidheight><course>63.9</course><type>1</type></trkpt>
      <trkpt lat="40.84454457" lon="-4.40078846"><ele>2619</ele><speed>14.45</speed><time>2016-06-30T15:24:11Z</time><pdop>6.0</pdop><geoidheight>53.00</geoidheight><course>63.9</course><type>1</type></trkpt>
      <trkpt lat="40.8445677" lon="-4.40063176"><ele>2625</ele><speed>14.24</speed><time>2016-06-30T15:24:12Z</time><pdop>5.0</pdop><geoidheight>53.00</geoidheight><course>77.2</course><type>1</type></trkpt>
      <trkpt lat="40.84459539" lon="-4.40046951"><ele>2626</ele><speed>14.10</speed><time>2016-06-30T15:24:13Z</time><pdop>7.0</pdop><geoidheight>53.00</geoidheight><course>77.2</course><type>1</type></trkpt>
      <trkpt lat="40.84455106" lon="-4.40030762"><ele>2630</ele><speed>14.73</speed><time>2016-06-30T15:24:14Z</time><pdop>5.0</pdop><geoidheight>53.00</geoidheight><course>102.6</course><type>1</type></trkpt>
      <trkpt lat="40.84451014" lon="-4.40014947"><ele>2632</ele><speed>14.27</speed><time>2016-06-30T15:24:15Z</time><pdop>4.0</pdop><geoidheight>53.00</geoidheight><course>113.5</course><type>1</type></trkpt>
      <trkpt lat="40.84444795" lon="-4.40000251"><ele>2634</ele><speed>13.98</speed><time>2016-06-30T15:24:16Z</time><pdop>4.0</pdop><geoidheight>53.00</geoidheight><course>124.2</course><type>1</type></trkpt>
      <trkpt lat="40.84436938" lon="-4.3998861"><ele>2636</ele><speed>13.33</speed><time>2016-06-30T15:24:17Z</time><pdop>4.0</pdop><geoidheight>53.00</geoidheight><course>136.3</course><type>1</type></trkpt>
      <trkpt lat="40.84427688" lon="-4.39981454"><ele>2638</ele><speed>12.62</speed><time>2016-06-30T15:24:18Z</time><pdop>4.0</pdop><geoidheight>53.00</geoidheight><course>155.4</course><type>1</type></trkpt>
      <trkpt lat="40.84417448" lon="-4.39975271"><ele>2639</ele><speed>12.53</speed><time>2016-06-30T15:24:19Z</time><pdop>4.0</pdop><geoidheight>53.00</geoidheight><course>155.4</course><type>1</type></trkpt>
      <trkpt lat="40.84407891" lon="-4.39977394"><ele>2639</ele><speed>10.44</speed><time>2016-06-30T15:24:20Z</time><pdop>4.0</pdop><geoidheight>53.00</geoidheight><course>178.4</course><type>1</type></trkpt>
      <trkpt lat="40.843985" lon="-4.39977037"><ele>2639</ele><speed>10.43</speed><time>2016-06-30T15:24:21Z</time><pdop>5.0</pdop><geoidheight>53.00</geoidheight><course>178.3</course><type>1</type></trkpt>
      <trkpt lat="40.84387945" lon="-4.39989598"><ele>2646</ele><speed>7.75</speed><time>2016-06-30T15:24:23Z</time><pdop>4.0</pdop><geoidheight>53.00</geoidheight><course>227.8</course><type>1</type></trkpt>
      <trkpt lat="40.84380425" lon="-4.40005214"><ele>2648</ele><speed>7.96</speed><time>2016-06-30T15:24:25Z</time><pdop>7.0</pdop><geoidheight>53.00</geoidheight><course>240.0</course><type>1</type></trkpt>
      <trkpt lat="40.84394124" lon="-4.40018427"><ele>2652</ele><speed>6.07</speed><time>2016-06-30T15:24:28Z</time><pdop>9.0</pdop><geoidheight>53.00</geoidheight><course>328.9</course><type>1</type></trkpt>
      <trkpt lat="40.84414063" lon="-4.3999929"><ele>2656</ele><speed>11.03</speed><time>2016-06-30T15:24:30Z</time><pdop>8.0</pdop><geoidheight>53.00</geoidheight><course>41.1</course><type>1</type></trkpt>
      <trkpt lat="40.84427278" lon="-4.39972829"><ele>2660</ele><speed>14.43</speed><time>2016-06-30T15:24:32Z</time><pdop>7.0</pdop><geoidheight>53.00</geoidheight><course>68.1</course><type>1</type></trkpt>
      <trkpt lat="40.84431873" lon="-4.39957205"><ele>2663</ele><speed>14.84</speed><time>2016-06-30T15:24:33Z</time><pdop>7.0</pdop><geoidheight>53.00</geoidheight><course>78.5</course><type>1</type></trkpt>
      <trkpt lat="40.844345" lon="-4.39940154"><ele>2665</ele><speed>14.73</speed><time>2016-06-30T15:24:34Z</time><pdop>7.0</pdop><geoidheight>53.00</geoidheight><course>78.5</course><type>1</type></trkpt>
      <trkpt lat="40.84430442" lon="-4.39909837"><ele>2672</ele><speed>15.04</speed><time>2016-06-30T15:24:36Z</time><pdop>6.0</pdop><geoidheight>53.00</geoidheight><course>110.8</course><type>1</type></trkpt>
      <trkpt lat="40.84425354" lon="-4.39894565"><ele>2675</ele><speed>13.97</speed><time>2016-06-30T15:24:37Z</time><pdop>6.0</pdop><geoidheight>53.00</geoidheight><course>123.8</course><type>1</type></trkpt>
      <trkpt lat="40.84417352" lon="-4.39882868"><ele>2677</ele><speed>13.22</speed><time>2016-06-30T15:24:38Z</time><pdop>5.0</pdop><geoidheight>53.00</geoidheight><course>136.3</course><type>1</type></trkpt>
      <trkpt lat="40.84408889" lon="-4.39876217"><ele>2651</ele><speed>11.69</speed><time>2016-06-30T15:24:39Z</time><pdop>5.0</pdop><geoidheight>53.00</geoidheight><course>157.5</course><type>1</type></trkpt>
      <trkpt lat="40.84399216" lon="-4.39870931"><ele>2657</ele><speed>11.64</speed><time>2016-06-30T15:24:40Z</time><pdop>6.0</pdop><geoidheight>53.00</geoidheight><course>157.4</course><type>1</type></trkpt>
      <trkpt lat="40.84384439" lon="-4.39875222"><ele>2668</ele><speed>9.33</speed><time>2016-06-30T15:24:42Z</time><pdop>6.0</pdop><geoidheight>53.00</geoidheight><course>191.0</course><type>1</type></trkpt>
      <trkpt lat="40.84375318" lon="-4.39888262"><ele>2680</ele><speed>7.59</speed><time>2016-06-30T15:24:44Z</time><pdop>5.0</pdop><geoidheight>53.00</geoidheight><course>238.4</course><type>1</type></trkpt>
      <trkpt lat="40.84375243" lon="-4.39903665"><ele>2686</ele><speed>7.27</speed><time>2016-06-30T15:24:46Z</time><pdop>6.0</pdop><geoidheight>53.00</geoidheight><course>270.5</course><type>1</type></trkpt>
      <trkpt lat="40.84387038" lon="-4.39917826"><ele>2691</ele><speed>5.86</speed><time>2016-06-30T15:24:49Z</time><pdop>11.0</pdop><geoidheight>53.00</geoidheight><course>317.6</course><type>1</type></trkpt>
      <trkpt lat="40.84403826" lon="-4.39900636"><ele>2698</ele><speed>11.42</speed><time>2016-06-30T15:24:50Z</time><pdop>5.0</pdop><geoidheight>53.00</geoidheight><course>26.6</course><type>1</type></trkpt>
      <trkpt lat="40.84413065" lon="-4.39891066"><ele>2703</ele><speed>13.32</speed><time>2016-06-30T15:24:51Z</time><pdop>5.0</pdop><geoidheight>53.00</geoidheight><course>44.5</course><type>1</type></trkpt>
      <trkpt lat="40.84421325" lon="-4.39878922"><ele>2706</ele><speed>14.56</speed><time>2016-06-30T15:24:52Z</time><pdop>5.0</pdop><geoidheight>53.00</geoidheight><course>58.4</course><type>1</type></trkpt>
      <trkpt lat="40.84427112" lon="-4.3986341"><ele>2709</ele><speed>15.05</speed><time>2016-06-30T15:24:53Z</time><pdop>4.0</pdop><geoidheight>53.00</geoidheight><course>68.6</course><type>1</type></trkpt>
      <trkpt lat="40.84431942" lon="-4.39847015"><ele>2711</ele><speed>14.91</speed><time>2016-06-30T15:24:54Z</time><pdop>5.0</pdop><geoidheight>53.00</geoidheight><course>68.7</course><type>1</type></trkpt>
      <trkpt lat="40.84427475" lon="-4.39829805"><ele>2713</ele><speed>14.41</speed><time>2016-06-30T15:24:55Z</time><pdop>4.0</pdop><geoidheight>53.00</geoidheight><course>96.7</course><type>1</type></trkpt>
      <trkpt lat="40.84423178" lon="-4.39816394"><ele>2714</ele><speed>13.94</speed><time>2016-06-30T15:24:56Z</time><pdop>4.0</pdop><geoidheight>53.00</geoidheight><course>113.3</course><type>1</type></trkpt>
      <trkpt lat="40.84417247" lon="-4.39802241"><ele>2716</ele><speed>14.29</speed><time>2016-06-30T15:24:57Z</time><pdop>5.0</pdop><geoidheight>53.00</geoidheight><course>123.5</course><type>1</type></trkpt>
      <trkpt lat="40.84408447" lon="-4.39796884"><ele>2718</ele><speed>12.81</speed><time>2016-06-30T15:24:58Z</time><pdop>5.0</pdop><geoidheight>53.00</geoidheight><course>151.6</course><type>1</type></trkpt>
      <trkpt lat="40.84398917" lon="-4.39791879"><ele>2720</ele><speed>11.38</speed><time>2016-06-30T15:24:59Z</time><pdop>4.0</pdop><geoidheight>53.00</geoidheight><course>166.4</course><type>1</type></trkpt>
      <trkpt lat="40.84389067" lon="-4.39788745"><ele>2722</ele><speed>11.28</speed><time>2016-06-30T15:25:00Z</time><pdop>5.0</pdop><geoidheight>53.00</geoidheight><course>166.4</course><type>1</type></trkpt>
      <trkpt lat="40.84371416" lon="-4.39792547"><ele>2727</ele><speed>10.71</speed><time>2016-06-30T15:25:02Z</time><pdop>4.0</pdop><geoidheight>53.00</geoidheight><course>188.6</course><type>1</type></trkpt>
      <trkpt lat="40.84361953" lon="-4.39794429"><ele>2727</ele><speed>10.64</speed><time>2016-06-30T15:25:03Z</time><pdop>5.0</pdop><geoidheight>53.00</geoidheight><course>188.6</course><type>1</type></trkpt>
      <trkpt lat="40.84353279" lon="-4.39798155"><ele>2730</ele><speed>10.36</speed><time>2016-06-30T15:25:04Z</time><pdop>4.0</pdop><geoidheight>53.00</geoidheight><course>197.8</course><type>1</type></trkpt>
      <trkpt lat="40.84345674" lon="-4.39804574"><ele>2732</ele><speed>9.55</speed><time>2016-06-30T15:25:05Z</time><pdop>3.0</pdop><geoidheight>53.00</geoidheight><course>209.9</course><type>1</type></trkpt>
      <trkpt lat="40.84340039" lon="-4.39810926"><ele>2735</ele><speed>8.49</speed><time>2016-06-30T15:25:06Z</time><pdop>3.0</pdop><geoidheight>53.00</geoidheight><course>222.0</course><type>1</type></trkpt>
      <trkpt lat="40.84336944" lon="-4.39817981"><ele>2738</ele><speed>7.73</speed><time>2016-06-30T15:25:07Z</time><pdop>3.0</pdop><geoidheight>53.00</geoidheight><course>251.9</course><type>1</type></trkpt>
      <trkpt lat="40.84337083" lon="-4.3982729"><ele>2740</ele><speed>8.20</speed><time>2016-06-30T15:25:08Z</time><pdop>4.0</pdop><geoidheight>53.00</geoidheight><course>275.9</course><type>1</type></trkpt>
      <trkpt lat="40.84341062" lon="-4.39835322"><ele>2742</ele><speed>8.77</speed><time>2016-06-30T15:25:09Z</time><pdop>4.0</pdop><geoidheight>53.00</geoidheight><course>308.6</course><type>1</type></trkpt>
      <trkpt lat="40.84345886" lon="-4.39843273"><ele>2744</ele><speed>8.63</speed><time>2016-06-30T15:25:10Z</time><pdop>4.0</pdop><geoidheight>53.00</geoidheight><course>308.6</course><type>1</type></trkpt>
      <trkpt lat="40.84355488" lon="-4.39843817"><ele>2747</ele><speed>10.11</speed><time>2016-06-30T15:25:11Z</time><pdop>4.0</pdop><geoidheight>53.00</geoidheight><course>354.2</course><type>1</type></trkpt>
      <trkpt lat="40.84364688" lon="-4.39840436"><ele>2751</ele><speed>10.71</speed><time>2016-06-30T15:25:12Z</time><pdop>4.0</pdop><geoidheight>53.00</geoidheight><course>15.2</course><type>1</type></trkpt>
      <trkpt lat="40.84373789" lon="-4.39837171"><ele>2752</ele><speed>10.56</speed><time>2016-06-30T15:25:13Z</time><pdop>5.0</pdop><geoidheight>53.00</geoidheight><course>15.2</course><type>1</type></trkpt>
      <trkpt lat="40.84379332" lon="-4.39821741"><ele>2755</ele><speed>12.58</speed><time>2016-06-30T15:25:14Z</time><pdop>4.0</pdop><geoidheight>53.00</geoidheight><course>55.4</course><type>1</type></trkpt>
      <trkpt lat="40.84385744" lon="-4.39809514"><ele>2756</ele><speed>12.54</speed><time>2016-06-30T15:25:15Z</time><pdop>5.0</pdop><geoidheight>53.00</geoidheight><course>55.4</course><type>1</type></trkpt>
      <trkpt lat="40.84386297" lon="-4.39791571"><ele>2757</ele><speed>13.99</speed><time>2016-06-30T15:25:16Z</time><pdop>4.0</pdop><geoidheight>53.00</geoidheight><course>83.5</course><type>1</type></trkpt>
      <trkpt lat="40.84385363" lon="-4.39776444"><ele>2759</ele><speed>12.93</speed><time>2016-06-30T15:25:17Z</time><pdop>4.0</pdop><geoidheight>53.00</geoidheight><course>99.3</course><type>1</type></trkpt>
      <trkpt lat="40.84381874" lon="-4.39762748"><ele>2761</ele><speed>12.74</speed><time>2016-06-30T15:25:18Z</time><pdop>4.0</pdop><geoidheight>53.00</geoidheight><course>111.9</course><type>1</type></trkpt>
      <trkpt lat="40.84376587" lon="-4.39750186"><ele>2764</ele><speed>12.19</speed><time>2016-06-30T15:25:19Z</time><pdop>4.0</pdop><geoidheight>53.00</geoidheight><course>125.5</course><type>1</type></trkpt>
      <trkpt lat="40.84369662" lon="-4.39740536"><ele>2766</ele><speed>11.97</speed><time>2016-06-30T15:25:20Z</time><pdop>4.0</pdop><geoidheight>53.00</geoidheight><course>141.7</course><type>1</type></trkpt>
      <trkpt lat="40.84360187" lon="-4.39733752"><ele>2751</ele><speed>11.70</speed><time>2016-06-30T15:25:21Z</time><pdop>4.0</pdop><geoidheight>53.00</geoidheight><course>158.7</course><type>1</type></trkpt>
      <trkpt lat="40.84349777" lon="-4.39730428"><ele>2757</ele><speed>12.30</speed><time>2016-06-30T15:25:22Z</time><pdop>4.0</pdop><geoidheight>53.00</geoidheight><course>168.0</course><type>1</type></trkpt>
      <trkpt lat="40.84338975" lon="-4.39727394"><ele>2760</ele><speed>12.28</speed><time>2016-06-30T15:25:23Z</time><pdop>5.0</pdop><geoidheight>53.00</geoidheight><course>168.0</course><type>1</type></trkpt>
      <trkpt lat="40.84328124" lon="-4.39730279"><ele>2765</ele><speed>11.48</speed><time>2016-06-30T15:25:24Z</time><pdop>4.0</pdop><geoidheight>53.00</geoidheight><course>182.5</course><type>1</type></trkpt>
      <trkpt lat="40.84317862" lon="-4.39732688"><ele>2768</ele><speed>11.70</speed><time>2016-06-30T15:25:25Z</time><pdop>4.0</pdop><geoidheight>53.00</geoidheight><course>190.7</course><type>1</type></trkpt>
      <trkpt lat="40.84308554" lon="-4.39736523"><ele>2771</ele><speed>11.00</speed><time>2016-06-30T15:25:26Z</time><pdop>4.0</pdop><geoidheight>53.00</geoidheight><course>194.1</course><type>1</type></trkpt>
      <trkpt lat="40.84302737" lon="-4.39744586"><ele>2772</ele><speed>9.47</speed><time>2016-06-30T15:25:27Z</time><pdop>4.0</pdop><geoidheight>53.00</geoidheight><course>217.8</course><type>1</type></trkpt>
      <trkpt lat="40.84296779" lon="-4.39758723"><ele>2777</ele><speed>7.15</speed><time>2016-06-30T15:25:29Z</time><pdop>4.0</pdop><geoidheight>53.00</geoidheight><course>267.8</course><type>1</type></trkpt>
      <trkpt lat="40.84302768" lon="-4.39772626"><ele>2785</ele><speed>8.58</speed><time>2016-06-30T15:25:31Z</time><pdop>4.0</pdop><geoidheight>53.00</geoidheight><course>317.1</course><type>1</type></trkpt>
      <trkpt lat="40.84309249" lon="-4.39777889"><ele>2786</ele><speed>8.87</speed><time>2016-06-30T15:25:32Z</time><pdop>4.0</pdop><geoidheight>53.00</geoidheight><course>324.1</course><type>1</type></trkpt>
      <trkpt lat="40.8432464" lon="-4.39775786"><ele>2793</ele><speed>9.55</speed><time>2016-06-30T15:25:34Z</time><pdop>4.0</pdop><geoidheight>53.00</geoidheight><course>16.6</course><type>1</type></trkpt>
      <trkpt lat="40.84332681" lon="-4.39772631"><ele>2795</ele><speed>9.40</speed><time>2016-06-30T15:25:35Z</time><pdop>5.0</pdop><geoidheight>53.00</geoidheight><course>16.6</course><type>1</type></trkpt>
      <trkpt lat="40.84339295" lon="-4.39761685"><ele>2796</ele><speed>11.29</speed><time>2016-06-30T15:25:36Z</time><pdop>5.0</pdop><geoidheight>53.00</geoidheight><course>40.8</course><type>1</type></trkpt>
      <trkpt lat="40.84347278" lon="-4.39750035"><ele>2799</ele><speed>12.50</speed><time>2016-06-30T15:25:37Z</time><pdop>5.0</pdop><geoidheight>53.00</geoidheight><course>44.8</course><type>1</type></trkpt>
      <trkpt lat="40.84355095" lon="-4.39737653"><ele>2802</ele><speed>13.07</speed><time>2016-06-30T15:25:38Z</time><pdop>5.0</pdop><geoidheight>53.00</geoidheight><course>52.2</course><type>1</type></trkpt>
      <trkpt lat="40.84358065" lon="-4.39724806"><ele>2804</ele><speed>13.44</speed><time>2016-06-30T15:25:39Z</time><pdop>5.0</pdop><geoidheight>53.00</geoidheight><course>64.4</course><type>1</type></trkpt>
      <trkpt lat="40.84363173" lon="-4.39710746"><ele>2807</ele><speed>13.29</speed><time>2016-06-30T15:25:40Z</time><pdop>6.0</pdop><geoidheight>53.00</geoidheight><course>64.4</course><type>1</type></trkpt>
      <trkpt lat="40.84362205" lon="-4.39695704"><ele>2811</ele><speed>13.11</speed><time>2016-06-30T15:25:41Z</time><pdop>4.0</pdop><geoidheight>53.00</geoidheight><course>91.3</course><type>1</type></trkpt>
      <trkpt lat="40.84360466" lon="-4.39683096"><ele>2814</ele><speed>12.09</speed><time>2016-06-30T15:25:42Z</time><pdop>4.0</pdop><geoidheight>53.00</geoidheight><course>107.4</course><type>1</type></trkpt>
      <trkpt lat="40.84357239" lon="-4.39669599"><ele>2815</ele><speed>11.97</speed><time>2016-06-30T15:25:43Z</time><pdop>5.0</pdop><geoidheight>53.00</geoidheight><course>107.4</course><type>1</type></trkpt>
      <trkpt lat="40.84349444" lon="-4.39663336"><ele>2817</ele><speed>10.39</speed><time>2016-06-30T15:25:44Z</time><pdop>5.0</pdop><geoidheight>53.00</geoidheight><course>138.3</course><type>1</type></trkpt>
      <trkpt lat="40.84340546" lon="-4.39658228"><ele>2818</ele><speed>10.67</speed><time>2016-06-30T15:25:45Z</time><pdop>4.0</pdop><geoidheight>53.00</geoidheight><course>158.2</course><type>1</type></trkpt>
      <trkpt lat="40.84331322" lon="-4.39654638"><ele>2820</ele><speed>10.72</speed><time>2016-06-30T15:25:46Z</time><pdop>4.0</pdop><geoidheight>53.00</geoidheight><course>171.5</course><type>1</type></trkpt>
      <trkpt lat="40.84321882" lon="-4.39652782"><ele>2821</ele><speed>10.62</speed><time>2016-06-30T15:25:47Z</time><pdop>5.0</pdop><geoidheight>53.00</geoidheight><course>171.5</course><type>1</type></trkpt>
      <trkpt lat="40.84308996" lon="-4.39663185"><ele>2823</ele><speed>8.71</speed><time>2016-06-30T15:25:49Z</time><pdop>4.0</pdop><geoidheight>53.00</geoidheight><course>210.6</course><type>1</type></trkpt>
      <trkpt lat="40.84303984" lon="-4.39671229"><ele>2826</ele><speed>8.82</speed><time>2016-06-30T15:25:50Z</time><pdop>4.0</pdop><geoidheight>53.00</geoidheight><course>233.7</course><type>1</type></trkpt>
      <trkpt lat="40.84299301" lon="-4.39688086"><ele>2830</ele><speed>7.90</speed><time>2016-06-30T15:25:52Z</time><pdop>5.0</pdop><geoidheight>53.00</geoidheight><course>259.1</course><type>1</type></trkpt>
      <trkpt lat="40.84312714" lon="-4.39698605"><ele>2789</ele><speed>9.50</speed><time>2016-06-30T15:25:54Z</time><pdop>4.0</pdop><geoidheight>53.00</geoidheight><course>333.0</course><type>1</type></trkpt>
      <trkpt lat="40.84328796" lon="-4.3969343"><ele>2809</ele><speed>10.52</speed><time>2016-06-30T15:25:56Z</time><pdop>4.0</pdop><geoidheight>53.00</geoidheight><course>22.8</course><type>1</type></trkpt>
      <trkpt lat="40.84337473" lon="-4.39688627"><ele>2814</ele><speed>10.47</speed><time>2016-06-30T15:25:57Z</time><pdop>5.0</pdop><geoidheight>53.00</geoidheight><course>22.8</course><type>1</type></trkpt>
      <trkpt lat="40.8434319" lon="-4.39675997"><ele>2821</ele><speed>11.54</speed><time>2016-06-30T15:25:58Z</time><pdop>4.0</pdop><geoidheight>53.00</geoidheight><course>52.1</course><type>1</type></trkpt>
      <trkpt lat="40.8434954" lon="-4.39665266"><ele>2824</ele><speed>11.49</speed><time>2016-06-30T15:25:59Z</time><pdop>5.0</pdop><geoidheight>53.00</geoidheight><course>52.1</course><type>1</type></trkpt>
      <trkpt lat="40.84355163" lon="-4.39647925"><ele>2828</ele><speed>13.80</speed><time>2016-06-30T15:26:00Z</time><pdop>4.0</pdop><geoidheight>53.00</geoidheight><course>59.6</course><type>1</type></trkpt>
      <trkpt lat="40.84362096" lon="-4.39633411"><ele>2830</ele><speed>14.63</speed><time>2016-06-30T15:26:01Z</time><pdop>4.0</pdop><geoidheight>53.00</geoidheight><course>58.7</course><type>1</type></trkpt>
      <trkpt lat="40.84368194" lon="-4.39618219"><ele>2832</ele><speed>15.23</speed><time>2016-06-30T15:26:02Z</time><pdop>5.0</pdop><geoidheight>53.00</geoidheight><course>59.1</course><type>1</type></trkpt>
      <trkpt lat="40.84375243" lon="-4.39602618"><ele>2833</ele><speed>15.47</speed><time>2016-06-30T15:26:03Z</time><pdop>5.0</pdop><geoidheight>53.00</geoidheight><course>60.1</course><type>1</type></trkpt>
      <trkpt lat="40.84382164" lon="-4.39586698"><ele>2791</ele><speed>15.47</speed><time>2016-06-30T15:26:04Z</time><pdop>8.0</pdop><geoidheight>53.00</geoidheight><course>60.2</course><type>1</type></trkpt>
      <trkpt lat="40.84391117" lon="-4.39556302"><ele>2825</ele><speed>14.17</speed><time>2016-06-30T15:26:06Z</time><pdop>4.0</pdop><geoidheight>53.00</geoidheight><course>66.7</course><type>1</type></trkpt>
      <trkpt lat="40.84395552" lon="-4.39542285"><ele>2832</ele><speed>13.91</speed><time>2016-06-30T15:26:07Z</time><pdop>4.0</pdop><geoidheight>53.00</geoidheight><course>66.4</course><type>1</type></trkpt>
      <trkpt lat="40.84400555" lon="-4.39527205"><ele>2834</ele><speed>13.89</speed><time>2016-06-30T15:26:08Z</time><pdop>6.0</pdop><geoidheight>53.00</geoidheight><course>66.4</course><type>1</type></trkpt>
      <trkpt lat="40.84405447" lon="-4.39510338"><ele>2839</ele><speed>14.51</speed><time>2016-06-30T15:26:09Z</time><pdop>5.0</pdop><geoidheight>53.00</geoidheight><course>64.1</course><type>1</type></trkpt>
      <trkpt lat="40.84410943" lon="-4.39494229"><ele>2845</ele><speed>15.14</speed><time>2016-06-30T15:26:10Z</time><pdop>4.0</pdop><geoidheight>53.00</geoidheight><course>63.3</course><type>1</type></trkpt>
      <trkpt lat="40.84417603" lon="-4.39477736"><ele>2851</ele><speed>15.42</speed><time>2016-06-30T15:26:11Z</time><pdop>4.0</pdop><geoidheight>53.00</geoidheight><course>61.7</course><type>1</type></trkpt>
      <trkpt lat="40.84424034" lon="-4.39461194"><ele>2853</ele><speed>15.42</speed><time>2016-06-30T15:26:12Z</time><pdop>4.0</pdop><geoidheight>53.00</geoidheight><course>63.0</course><type>1</type></trkpt>
      <trkpt lat="40.84429103" lon="-4.39443958"><ele>2857</ele><speed>15.18</speed><time>2016-06-30T15:26:13Z</time><pdop>4.0</pdop><geoidheight>53.00</geoidheight><course>70.2</course><type>1</type></trkpt>
      <trkpt lat="40.84432387" lon="-4.39427855"><ele>2858</ele><speed>14.46</speed><time>2016-06-30T15:26:14Z</time><pdop>4.0</pdop><geoidheight>53.00</geoidheight><course>79.4</course><type>1</type></trkpt>
      <trkpt lat="40.84434399" lon="-4.39411401"><ele>2861</ele><speed>14.44</speed><time>2016-06-30T15:26:15Z</time><pdop>4.0</pdop><geoidheight>53.00</geoidheight><course>83.8</course><type>1</type></trkpt>
      <trkpt lat="40.84435929" lon="-4.39394067"><ele>2861</ele><speed>15.17</speed><time>2016-06-30T15:26:16Z</time><pdop>4.0</pdop><geoidheight>53.00</geoidheight><course>83.5</course><type>1</type></trkpt>
      <trkpt lat="40.84439074" lon="-4.39374761"><ele>2860</ele><speed>16.95</speed><time>2016-06-30T15:26:17Z</time><pdop>4.0</pdop><geoidheight>53.00</geoidheight><course>76.4</course><type>1</type></trkpt>
      <trkpt lat="40.84444004" lon="-4.39356601"><ele>2861</ele><speed>17.64</speed><time>2016-06-30T15:26:18Z</time><pdop>3.0</pdop><geoidheight>53.00</geoidheight><course>70.0</course><type>1</type></trkpt>
      <trkpt lat="40.84449542" lon="-4.39338131"><ele>2863</ele><speed>16.81</speed><time>2016-06-30T15:26:19Z</time><pdop>3.0</pdop><geoidheight>53.00</geoidheight><course>68.5</course><type>1</type></trkpt>
      <trkpt lat="40.84455053" lon="-4.39319703"><ele>2865</ele><speed>16.74</speed><time>2016-06-30T15:26:20Z</time><pdop>4.0</pdop><geoidheight>53.00</geoidheight><course>68.5</course><type>1</type></trkpt>
      <trkpt lat="40.84461119" lon="-4.39301505"><ele>2865</ele><speed>16.41</speed><time>2016-06-30T15:26:21Z</time><pdop>6.0</pdop><geoidheight>53.00</geoidheight><course>67.6</course><type>1</type></trkpt>
      <trkpt lat="40.84465572" lon="-4.39286918"><ele>2867</ele><speed>14.28</speed><time>2016-06-30T15:26:22Z</time><pdop>4.0</pdop><geoidheight>53.00</geoidheight><course>68.2</course><type>1</type></trkpt>
      <trkpt lat="40.84471399" lon="-4.39271807"><ele>2866</ele><speed>14.51</speed><time>2016-06-30T15:26:23Z</time><pdop>4.0</pdop><geoidheight>53.00</geoidheight><course>65.7</course><type>1</type></trkpt>
      <trkpt lat="40.84476764" lon="-4.39256132"><ele>2866</ele><speed>14.50</speed><time>2016-06-30T15:26:24Z</time><pdop>5.0</pdop><geoidheight>53.00</geoidheight><course>65.7</course><type>1</type></trkpt>
      <trkpt lat="40.84485333" lon="-4.39239418"><ele>2866</ele><speed>15.90</speed><time>2016-06-30T15:26:25Z</time><pdop>5.0</pdop><geoidheight>53.00</geoidheight><course>60.0</course><type>1</type></trkpt>
      <trkpt lat="40.84492753" lon="-4.39222072"><ele>2866</ele><speed>16.49</speed><time>2016-06-30T15:26:26Z</time><pdop>5.0</pdop><geoidheight>53.00</geoidheight><course>58.1</course><type>1</type></trkpt>
      <trkpt lat="40.84500618" lon="-4.39205481"><ele>2866</ele><speed>16.09</speed><time>2016-06-30T15:26:27Z</time><pdop>4.0</pdop><geoidheight>53.00</geoidheight><course>58.5</course><type>1</type></trkpt>
      <trkpt lat="40.84506542" lon="-4.39190179"><ele>2867</ele><speed>14.69</speed><time>2016-06-30T15:26:28Z</time><pdop>5.0</pdop><geoidheight>53.00</geoidheight><course>61.3</course><type>1</type></trkpt>
      <trkpt lat="40.84513315" lon="-4.39177039"><ele>2869</ele><speed>13.66</speed><time>2016-06-30T15:26:29Z</time><pdop>4.0</pdop><geoidheight>53.00</geoidheight><course>60.4</course><type>1</type></trkpt>
      <trkpt lat="40.84520662" lon="-4.39164355"><ele>2869</ele><speed>12.69</speed><time>2016-06-30T15:26:30Z</time><pdop>4.0</pdop><geoidheight>53.00</geoidheight><course>59.5</course><type>1</type></trkpt>
      <trkpt lat="40.84527379" lon="-4.39151882"><ele>2868</ele><speed>13.29</speed><time>2016-06-30T15:26:31Z</time><pdop>4.0</pdop><geoidheight>53.00</geoidheight><course>57.4</course><type>1</type></trkpt>
      <trkpt lat="40.84534333" lon="-4.39137315"><ele>2867</ele><speed>13.97</speed><time>2016-06-30T15:26:32Z</time><pdop>4.0</pdop><geoidheight>53.00</geoidheight><course>58.3</course><type>1</type></trkpt>
      <trkpt lat="40.84540874" lon="-4.39123603"><ele>2866</ele><speed>14.20</speed><time>2016-06-30T15:26:33Z</time><pdop>4.0</pdop><geoidheight>53.00</geoidheight><course>57.7</course><type>1</type></trkpt>
      <trkpt lat="40.845483" lon="-4.39109066"><ele>2866</ele><speed>14.89</speed><time>2016-06-30T15:26:34Z</time><pdop>4.0</pdop><geoidheight>53.00</geoidheight><course>56.2</course><type>1</type></trkpt>
      <trkpt lat="40.8455576" lon="-4.39095534"><ele>2864</ele><speed>15.11</speed><time>2016-06-30T15:26:35Z</time><pdop>4.0</pdop><geoidheight>53.00</geoidheight><course>56.1</course><type>1</type></trkpt>
      <trkpt lat="40.84563313" lon="-4.3908069"><ele>2864</ele><speed>15.09</speed><time>2016-06-30T15:26:36Z</time><pdop>5.0</pdop><geoidheight>53.00</geoidheight><course>56.1</course><type>1</type></trkpt>
      <trkpt lat="40.84572865" lon="-4.39067898"><ele>2861</ele><speed>14.58</speed><time>2016-06-30T15:26:37Z</time><pdop>4.0</pdop><geoidheight>53.00</geoidheight><course>49.1</course><type>1</type></trkpt>
      <trkpt lat="40.84581393" lon="-4.39054934"><ele>2859</ele><speed>14.49</speed><time>2016-06-30T15:26:38Z</time><pdop>5.0</pdop><geoidheight>53.00</geoidheight><course>49.1</course><type>1</type></trkpt>
      <trkpt lat="40.84590119" lon="-4.39041491"><ele>2861</ele><speed>14.50</speed><time>2016-06-30T15:26:39Z</time><pdop>6.0</pdop><geoidheight>53.00</geoidheight><course>48.9</course><type>1</type></trkpt>
      <trkpt lat="40.84598525" lon="-4.39023819"><ele>2857</ele><speed>15.92</speed><time>2016-06-30T15:26:40Z</time><pdop>5.0</pdop><geoidheight>53.00</geoidheight><course>53.3</course><type>1</type></trkpt>
      <trkpt lat="40.84607066" lon="-4.39008112"><ele>2856</ele><speed>16.78</speed><time>2016-06-30T15:26:41Z</time><pdop>4.0</pdop><geoidheight>53.00</geoidheight><course>56.1</course><type>1</type></trkpt>
      <trkpt lat="40.84615081" lon="-4.38992729"><ele>2854</ele><speed>16.11</speed><time>2016-06-30T15:26:42Z</time><pdop>4.0</pdop><geoidheight>53.00</geoidheight><course>57.3</course><type>1</type></trkpt>
      <trkpt lat="40.84624198" lon="-4.38977503"><ele>2859</ele><speed>15.45</speed><time>2016-06-30T15:26:43Z</time><pdop>4.0</pdop><geoidheight>53.00</geoidheight><course>57.4</course><type>1</type></trkpt>
      <trkpt lat="40.8463188" lon="-4.38962016"><ele>2858</ele><speed>15.41</speed><time>2016-06-30T15:26:44Z</time><pdop>4.0</pdop><geoidheight>53.00</geoidheight><course>58.2</course><type>1</type></trkpt>
      <trkpt lat="40.84639188" lon="-4.38946483"><ele>2857</ele><speed>15.41</speed><time>2016-06-30T15:26:45Z</time><pdop>5.0</pdop><geoidheight>53.00</geoidheight><course>58.2</course><type>1</type></trkpt>
      <trkpt lat="40.84646162" lon="-4.3893123"><ele>2855</ele><speed>15.08</speed><time>2016-06-30T15:26:46Z</time><pdop>4.0</pdop><geoidheight>53.00</geoidheight><course>60.7</course><type>1</type></trkpt>
      <trkpt lat="40.84652808" lon="-4.38916292"><ele>2853</ele><speed>14.74</speed><time>2016-06-30T15:26:47Z</time><pdop>4.0</pdop><geoidheight>53.00</geoidheight><course>57.0</course><type>1</type></trkpt>
      <trkpt lat="40.84660864" lon="-4.38902454"><ele>2852</ele><speed>14.48</speed><time>2016-06-30T15:26:48Z</time><pdop>4.0</pdop><geoidheight>53.00</geoidheight><course>56.4</course><type>1</type></trkpt>
      <trkpt lat="40.84668521" lon="-4.38888154"><ele>2852</ele><speed>14.60</speed><time>2016-06-30T15:26:49Z</time><pdop>4.0</pdop><geoidheight>53.00</geoidheight><course>58.5</course><type>1</type></trkpt>
      <trkpt lat="40.84674714" lon="-4.38874109"><ele>2851</ele><speed>14.00</speed><time>2016-06-30T15:26:50Z</time><pdop>4.0</pdop><geoidheight>53.00</geoidheight><course>60.6</course><type>1</type></trkpt>
      <trkpt lat="40.8468057" lon="-4.38860708"><ele>2851</ele><speed>13.19</speed><time>2016-06-30T15:26:51Z</time><pdop>4.0</pdop><geoidheight>53.00</geoidheight><course>59.1</course><type>1</type></trkpt>
      <trkpt lat="40.84687542" lon="-4.3884774"><ele>2849</ele><speed>13.09</speed><time>2016-06-30T15:26:52Z</time><pdop>4.0</pdop><geoidheight>53.00</geoidheight><course>55.0</course><type>1</type></trkpt>
      <trkpt lat="40.84694558" lon="-4.38836775"><ele>2847</ele><speed>12.90</speed><time>2016-06-30T15:26:53Z</time><pdop>4.0</pdop><geoidheight>53.00</geoidheight><course>50.2</course><type>1</type></trkpt>
      <trkpt lat="40.84700875" lon="-4.38824543"><ele>2844</ele><speed>13.13</speed><time>2016-06-30T15:26:54Z</time><pdop>4.0</pdop><geoidheight>53.00</geoidheight><course>51.7</course><type>1</type></trkpt>
      <trkpt lat="40.84708651" lon="-4.38811918"><ele>2840</ele><speed>14.02</speed><time>2016-06-30T15:26:55Z</time><pdop>4.0</pdop><geoidheight>53.00</geoidheight><course>51.8</course><type>1</type></trkpt>
      <trkpt lat="40.84715642" lon="-4.38799123"><ele>2836</ele><speed>14.54</speed><time>2016-06-30T15:26:56Z</time><pdop>4.0</pdop><geoidheight>53.00</geoidheight><course>52.7</course><type>1</type></trkpt>
      <trkpt lat="40.84724047" lon="-4.38785551"><ele>2831</ele><speed>15.54</speed><time>2016-06-30T15:26:57Z</time><pdop>4.0</pdop><geoidheight>53.00</geoidheight><course>52.5</course><type>1</type></trkpt>
      <trkpt lat="40.84732158" lon="-4.38771653"><ele>2826</ele><speed>15.54</speed><time>2016-06-30T15:26:58Z</time><pdop>4.0</pdop><geoidheight>53.00</geoidheight><course>52.5</course><type>1</type></trkpt>
      <trkpt lat="40.84741808" lon="-4.38756028"><ele>2824</ele><speed>16.25</speed><time>2016-06-30T15:26:59Z</time><pdop>4.0</pdop><geoidheight>53.00</geoidheight><course>53.4</course><type>1</type></trkpt>
      <trkpt lat="40.84750444" lon="-4.38740789"><ele>2822</ele><speed>16.13</speed><time>2016-06-30T15:27:00Z</time><pdop>5.0</pdop><geoidheight>53.00</geoidheight><course>53.3</course><type>1</type></trkpt>
      <trkpt lat="40.84759867" lon="-4.38727121"><ele>2823</ele><speed>15.89</speed><time>2016-06-30T15:27:01Z</time><pdop>8.0</pdop><geoidheight>53.00</geoidheight><course>52.1</course><type>1</type></trkpt>
      <trkpt lat="40.84766827" lon="-4.38710174"><ele>2819</ele><speed>15.73</speed><time>2016-06-30T15:27:02Z</time><pdop>7.0</pdop><geoidheight>53.00</geoidheight><course>57.0</course><type>1</type></trkpt>
      <trkpt lat="40.84774898" lon="-4.38691561"><ele>2817</ele><speed>16.35</speed><time>2016-06-30T15:27:03Z</time><pdop>7.0</pdop><geoidheight>53.00</geoidheight><course>56.9</course><type>1</type></trkpt>
      <trkpt lat="40.84784447" lon="-4.38673702"><ele>2815</ele><speed>17.10</speed><time>2016-06-30T15:27:04Z</time><pdop>8.0</pdop><geoidheight>53.00</geoidheight><course>54.3</course><type>1</type></trkpt>
      <trkpt lat="40.84795966" lon="-4.38656825"><ele>2813</ele><speed>17.87</speed><time>2016-06-30T15:27:05Z</time><pdop>8.0</pdop><geoidheight>53.00</geoidheight><course>50.4</course><type>1</type></trkpt>
      <trkpt lat="40.8480555" lon="-4.38639873"><ele>2809</ele><speed>17.54</speed><time>2016-06-30T15:27:06Z</time><pdop>6.0</pdop><geoidheight>53.00</geoidheight><course>49.0</course><type>1</type></trkpt>
      <trkpt lat="40.84823935" lon="-4.38612044"><ele>2804</ele><speed>15.57</speed><time>2016-06-30T15:27:08Z</time><pdop>6.0</pdop><geoidheight>53.00</geoidheight><course>46.5</course><type>1</type></trkpt>
      <trkpt lat="40.84833373" lon="-4.38599337"><ele>2802</ele><speed>15.32</speed><time>2016-06-30T15:27:09Z</time><pdop>6.0</pdop><geoidheight>53.00</geoidheight><course>46.0</course><type>1</type></trkpt>
      <trkpt lat="40.84843258" lon="-4.38586099"><ele>2799</ele><speed>16.07</speed><time>2016-06-30T15:27:10Z</time><pdop>6.0</pdop><geoidheight>53.00</geoidheight><course>46.5</course><type>1</type></trkpt>
      <trkpt lat="40.84850272" lon="-4.38571193"><ele>2795</ele><speed>16.27</speed><time>2016-06-30T15:27:11Z</time><pdop>6.0</pdop><geoidheight>53.00</geoidheight><course>47.8</course><type>1</type></trkpt>
      <trkpt lat="40.84860269" lon="-4.38554041"><ele>2793</ele><speed>17.73</speed><time>2016-06-30T15:27:12Z</time><pdop>6.0</pdop><geoidheight>53.00</geoidheight><course>48.7</course><type>1</type></trkpt>
      <trkpt lat="40.84870501" lon="-4.38535437"><ele>2790</ele><speed>18.71</speed><time>2016-06-30T15:27:13Z</time><pdop>5.0</pdop><geoidheight>53.00</geoidheight><course>50.0</course><type>1</type></trkpt>
      <trkpt lat="40.84880929" lon="-4.38519714"><ele>2787</ele><speed>18.34</speed><time>2016-06-30T15:27:14Z</time><pdop>5.0</pdop><geoidheight>53.00</geoidheight><course>50.9</course><type>1</type></trkpt>
      <trkpt lat="40.84889396" lon="-4.38503734"><ele>2784</ele><speed>17.44</speed><time>2016-06-30T15:27:15Z</time><pdop>4.0</pdop><geoidheight>53.00</geoidheight><course>51.4</course><type>1</type></trkpt>
      <trkpt lat="40.84896657" lon="-4.38488672"><ele>2782</ele><speed>16.07</speed><time>2016-06-30T15:27:16Z</time><pdop>4.0</pdop><geoidheight>53.00</geoidheight><course>52.3</course><type>1</type></trkpt>
      <trkpt lat="40.84905336" lon="-4.38474124"><ele>2822</ele><speed>15.67</speed><time>2016-06-30T15:27:17Z</time><pdop>4.0</pdop><geoidheight>53.00</geoidheight><course>51.4</course><type>1</type></trkpt>
      <trkpt lat="40.84913329" lon="-4.38458308"><ele>2812</ele><speed>16.01</speed><time>2016-06-30T15:27:18Z</time><pdop>5.0</pdop><geoidheight>53.00</geoidheight><course>51.8</course><type>1</type></trkpt>
      <trkpt lat="40.84921046" lon="-4.38442092"><ele>2805</ele><speed>16.74</speed><time>2016-06-30T15:27:19Z</time><pdop>6.0</pdop><geoidheight>53.00</geoidheight><course>51.9</course><type>1</type></trkpt>
      <trkpt lat="40.84930101" lon="-4.38421381"><ele>2795</ele><speed>17.63</speed><time>2016-06-30T15:27:20Z</time><pdop>5.0</pdop><geoidheight>53.00</geoidheight><course>57.0</course><type>1</type></trkpt>
      <trkpt lat="40.84938181" lon="-4.38405337"><ele>2788</ele><speed>16.92</speed><time>2016-06-30T15:27:21Z</time><pdop>5.0</pdop><geoidheight>53.00</geoidheight><course>56.7</course><type>1</type></trkpt>
      <trkpt lat="40.84946354" lon="-4.38390369"><ele>2784</ele><speed>15.63</speed><time>2016-06-30T15:27:22Z</time><pdop>5.0</pdop><geoidheight>53.00</geoidheight><course>55.3</course><type>1</type></trkpt>
      <trkpt lat="40.84953282" lon="-4.38376813"><ele>2779</ele><speed>14.37</speed><time>2016-06-30T15:27:23Z</time><pdop>5.0</pdop><geoidheight>53.00</geoidheight><course>53.9</course><type>1</type></trkpt>
      <trkpt lat="40.84960577" lon="-4.38363824"><ele>2774</ele><speed>13.80</speed><time>2016-06-30T15:27:24Z</time><pdop>5.0</pdop><geoidheight>53.00</geoidheight><course>53.3</course><type>1</type></trkpt>
      <trkpt lat="40.84967483" lon="-4.38350948"><ele>2769</ele><speed>13.93</speed><time>2016-06-30T15:27:25Z</time><pdop>5.0</pdop><geoidheight>53.00</geoidheight><course>54.3</course><type>1</type></trkpt>
      <trkpt lat="40.84974243" lon="-4.38336572"><ele>2764</ele><speed>14.17</speed><time>2016-06-30T15:27:26Z</time><pdop>4.0</pdop><geoidheight>53.00</geoidheight><course>56.5</course><type>1</type></trkpt>
      <trkpt lat="40.84981136" lon="-4.38322406"><ele>2761</ele><speed>14.11</speed><time>2016-06-30T15:27:27Z</time><pdop>4.0</pdop><geoidheight>53.00</geoidheight><course>58.3</course><type>1</type></trkpt>
      <trkpt lat="40.84987727" lon="-4.3830845"><ele>2757</ele><speed>14.15</speed><time>2016-06-30T15:27:28Z</time><pdop>4.0</pdop><geoidheight>53.00</geoidheight><course>58.7</course><type>1</type></trkpt>
      <trkpt lat="40.84994725" lon="-4.38294242"><ele>2752</ele><speed>14.65</speed><time>2016-06-30T15:27:29Z</time><pdop>4.0</pdop><geoidheight>53.00</geoidheight><course>58.1</course><type>1</type></trkpt>
      <trkpt lat="40.85002278" lon="-4.38279448"><ele>2748</ele><speed>15.33</speed><time>2016-06-30T15:27:30Z</time><pdop>5.0</pdop><geoidheight>53.00</geoidheight><course>57.2</course><type>1</type></trkpt>
      <trkpt lat="40.8500975" lon="-4.38264187"><ele>2744</ele><speed>15.63</speed><time>2016-06-30T15:27:31Z</time><pdop>6.0</pdop><geoidheight>53.00</geoidheight><course>57.8</course><type>1</type></trkpt>
      <trkpt lat="40.85017981" lon="-4.38247513"><ele>2744</ele><speed>16.12</speed><time>2016-06-30T15:27:32Z</time><pdop>8.0</pdop><geoidheight>53.00</geoidheight><course>57.5</course><type>1</type></trkpt>
      <trkpt lat="40.85027568" lon="-4.38213461"><ele>2730</ele><speed>15.91</speed><time>2016-06-30T15:27:34Z</time><pdop>6.0</pdop><geoidheight>53.00</geoidheight><course>62.4</course><type>1</type></trkpt>
      <trkpt lat="40.85033025" lon="-4.38197318"><ele>2725</ele><speed>14.95</speed><time>2016-06-30T15:27:35Z</time><pdop>5.0</pdop><geoidheight>53.00</geoidheight><course>62.7</course><type>1</type></trkpt>
      <trkpt lat="40.85038856" lon="-4.3818288"><ele>2720</ele><speed>14.18</speed><time>2016-06-30T15:27:36Z</time><pdop>5.0</pdop><geoidheight>53.00</geoidheight><course>60.5</course><type>1</type></trkpt>
      <trkpt lat="40.85045155" lon="-4.38169036"><ele>2714</ele><speed>14.08</speed><time>2016-06-30T15:27:37Z</time><pdop>5.0</pdop><geoidheight>53.00</geoidheight><course>56.6</course><type>1</type></trkpt>
      <trkpt lat="40.8505187" lon="-4.3815605"><ele>2708</ele><speed>14.86</speed><time>2016-06-30T15:27:38Z</time><pdop>4.0</pdop><geoidheight>53.00</geoidheight><course>53.1</course><type>1</type></trkpt>
      <trkpt lat="40.85060252" lon="-4.3814253"><ele>2701</ele><speed>15.91</speed><time>2016-06-30T15:27:39Z</time><pdop>4.0</pdop><geoidheight>53.00</geoidheight><course>49.9</course><type>1</type></trkpt>
      <trkpt lat="40.85068664" lon="-4.38128842"><ele>2694</ele><speed>16.51</speed><time>2016-06-30T15:27:40Z</time><pdop>4.0</pdop><geoidheight>53.00</geoidheight><course>50.9</course><type>1</type></trkpt>
      <trkpt lat="40.85079112" lon="-4.38113403"><ele>2689</ele><speed>17.27</speed><time>2016-06-30T15:27:41Z</time><pdop>4.0</pdop><geoidheight>53.00</geoidheight><course>50.1</course><type>1</type></trkpt>
      <trkpt lat="40.85088279" lon="-4.38097511"><ele>2684</ele><speed>17.19</speed><time>2016-06-30T15:27:42Z</time><pdop>5.0</pdop><geoidheight>53.00</geoidheight><course>52.2</course><type>1</type></trkpt>
      <trkpt lat="40.85096874" lon="-4.38081354"><ele>2683</ele><speed>16.08</speed><time>2016-06-30T15:27:43Z</time><pdop>4.0</pdop><geoidheight>53.00</geoidheight><course>55.6</course><type>1</type></trkpt>
      <trkpt lat="40.85104925" lon="-4.38066406"><ele>2683</ele><speed>15.61</speed><time>2016-06-30T15:27:44Z</time><pdop>5.0</pdop><geoidheight>53.00</geoidheight><course>56.3</course><type>1</type></trkpt>
      <trkpt lat="40.85111303" lon="-4.3805091"><ele>2681</ele><speed>15.14</speed><time>2016-06-30T15:27:45Z</time><pdop>5.0</pdop><geoidheight>53.00</geoidheight><course>58.8</course><type>1</type></trkpt>
      <trkpt lat="40.85117389" lon="-4.38035607"><ele>2678</ele><speed>14.86</speed><time>2016-06-30T15:27:46Z</time><pdop>5.0</pdop><geoidheight>53.00</geoidheight><course>61.1</course><type>1</type></trkpt>
      <trkpt lat="40.85124145" lon="-4.38021714"><ele>2676</ele><speed>14.82</speed><time>2016-06-30T15:27:47Z</time><pdop>5.0</pdop><geoidheight>53.00</geoidheight><course>62.2</course><type>1</type></trkpt>
      <trkpt lat="40.85130556" lon="-4.38005912"><ele>2675</ele><speed>14.55</speed><time>2016-06-30T15:27:48Z</time><pdop>5.0</pdop><geoidheight>53.00</geoidheight><course>62.8</course><type>1</type></trkpt>
      <trkpt lat="40.85137274" lon="-4.37990401"><ele>2674</ele><speed>14.99</speed><time>2016-06-30T15:27:49Z</time><pdop>6.0</pdop><geoidheight>53.00</geoidheight><course>60.2</course><type>1</type></trkpt>
      <trkpt lat="40.85142971" lon="-4.37976317"><ele>2673</ele><speed>14.99</speed><time>2016-06-30T15:27:50Z</time><pdop>7.0</pdop><geoidheight>53.00</geoidheight><course>57.8</course><type>1</type></trkpt>
      <trkpt lat="40.85151029" lon="-4.37961685"><ele>2672</ele><speed>15.26</speed><time>2016-06-30T15:27:51Z</time><pdop>7.0</pdop><geoidheight>53.00</geoidheight><course>54.1</course><type>1</type></trkpt>
      <trkpt lat="40.85157977" lon="-4.37945634"><ele>2669</ele><speed>15.63</speed><time>2016-06-30T15:27:52Z</time><pdop>7.0</pdop><geoidheight>53.00</geoidheight><course>57.4</course><type>1</type></trkpt>
      <trkpt lat="40.85170719" lon="-4.37911684"><ele>2665</ele><speed>15.95</speed><time>2016-06-30T15:27:54Z</time><pdop>6.0</pdop><geoidheight>53.00</geoidheight><course>65.5</course><type>1</type></trkpt>
      <trkpt lat="40.85175437" lon="-4.37893532"><ele>2660</ele><speed>15.81</speed><time>2016-06-30T15:27:55Z</time><pdop>5.0</pdop><geoidheight>53.00</geoidheight><course>65.8</course><type>1</type></trkpt>
      <trkpt lat="40.85180402" lon="-4.37877597"><ele>2658</ele><speed>15.17</speed><time>2016-06-30T15:27:56Z</time><pdop>4.0</pdop><geoidheight>53.00</geoidheight><course>63.4</course><type>1</type></trkpt>
      <trkpt lat="40.85186925" lon="-4.37862938"><ele>2657</ele><speed>14.63</speed><time>2016-06-30T15:27:57Z</time><pdop>4.0</pdop><geoidheight>53.00</geoidheight><course>60.9</course><type>1</type></trkpt>
      <trkpt lat="40.85192828" lon="-4.37848571"><ele>2655</ele><speed>14.53</speed><time>2016-06-30T15:27:58Z</time><pdop>4.0</pdop><geoidheight>53.00</geoidheight><course>58.9</course><type>1</type></trkpt>
      <trkpt lat="40.8519869" lon="-4.37833212"><ele>2651</ele><speed>14.68</speed><time>2016-06-30T15:27:59Z</time><pdop>4.0</pdop><geoidheight>53.00</geoidheight><course>62.7</course><type>1</type></trkpt>
      <trkpt lat="40.85204041" lon="-4.3781725"><ele>2648</ele><speed>15.21</speed><time>2016-06-30T15:28:00Z</time><pdop>3.0</pdop><geoidheight>53.00</geoidheight><course>66.2</course><type>1</type></trkpt>
      <trkpt lat="40.85209427" lon="-4.37799987"><ele>2645</ele><speed>16.18</speed><time>2016-06-30T15:28:01Z</time><pdop>3.0</pdop><geoidheight>53.00</geoidheight><course>67.8</course><type>1</type></trkpt>
      <trkpt lat="40.8521364" lon="-4.37780845"><ele>2642</ele><speed>16.25</speed><time>2016-06-30T15:28:02Z</time><pdop>3.0</pdop><geoidheight>53.00</geoidheight><course>67.5</course><type>1</type></trkpt>
      <trkpt lat="40.85218974" lon="-4.37763723"><ele>2641</ele><speed>15.24</speed><time>2016-06-30T15:28:03Z</time><pdop>3.0</pdop><geoidheight>53.00</geoidheight><course>66.5</course><type>1</type></trkpt>
      <trkpt lat="40.85225027" lon="-4.37748726"><ele>2640</ele><speed>14.25</speed><time>2016-06-30T15:28:04Z</time><pdop>3.0</pdop><geoidheight>53.00</geoidheight><course>61.6</course><type>1</type></trkpt>
      <trkpt lat="40.85232031" lon="-4.377356"><ele>2638</ele><speed>13.51</speed><time>2016-06-30T15:28:05Z</time><pdop>3.0</pdop><geoidheight>53.00</geoidheight><course>58.0</course><type>1</type></trkpt>
      <trkpt lat="40.85239891" lon="-4.37722511"><ele>2636</ele><speed>13.86</speed><time>2016-06-30T15:28:06Z</time><pdop>4.0</pdop><geoidheight>53.00</geoidheight><course>54.2</course><type>1</type></trkpt>
      <trkpt lat="40.85248567" lon="-4.37709585"><ele>2635</ele><speed>14.32</speed><time>2016-06-30T15:28:07Z</time><pdop>4.0</pdop><geoidheight>53.00</geoidheight><course>51.8</course><type>1</type></trkpt>
      <trkpt lat="40.85255711" lon="-4.37694978"><ele>2635</ele><speed>15.10</speed><time>2016-06-30T15:28:08Z</time><pdop>5.0</pdop><geoidheight>53.00</geoidheight><course>53.7</course><type>1</type></trkpt>
      <trkpt lat="40.85262652" lon="-4.37677355"><ele>2634</ele><speed>16.14</speed><time>2016-06-30T15:28:09Z</time><pdop>5.0</pdop><geoidheight>53.00</geoidheight><course>57.8</course><type>1</type></trkpt>
      <trkpt lat="40.85267923" lon="-4.37659627"><ele>2631</ele><speed>16.13</speed><time>2016-06-30T15:28:10Z</time><pdop>5.0</pdop><geoidheight>53.00</geoidheight><course>63.1</course><type>1</type></trkpt>
      <trkpt lat="40.85272011" lon="-4.3764244"><ele>2628</ele><speed>15.66</speed><time>2016-06-30T15:28:11Z</time><pdop>4.0</pdop><geoidheight>53.00</geoidheight><course>67.6</course><type>1</type></trkpt>
      <trkpt lat="40.85277509" lon="-4.37626337"><ele>2627</ele><speed>14.47</speed><time>2016-06-30T15:28:12Z</time><pdop>4.0</pdop><geoidheight>53.00</geoidheight><course>65.3</course><type>1</type></trkpt>
      <trkpt lat="40.85282398" lon="-4.37610441"><ele>2626</ele><speed>13.71</speed><time>2016-06-30T15:28:13Z</time><pdop>4.0</pdop><geoidheight>53.00</geoidheight><course>62.6</course><type>1</type></trkpt>
      <trkpt lat="40.85288255" lon="-4.37595862"><ele>2621</ele><speed>13.92</speed><time>2016-06-30T15:28:14Z</time><pdop>3.0</pdop><geoidheight>53.00</geoidheight><course>60.4</course><type>1</type></trkpt>
      <trkpt lat="40.8529422" lon="-4.37579842"><ele>2616</ele><speed>14.95</speed><time>2016-06-30T15:28:15Z</time><pdop>3.0</pdop><geoidheight>53.00</geoidheight><course>60.0</course><type>1</type></trkpt>
      <trkpt lat="40.85301355" lon="-4.37563516"><ele>2613</ele><speed>15.71</speed><time>2016-06-30T15:28:16Z</time><pdop>3.0</pdop><geoidheight>53.00</geoidheight><course>59.9</course><type>1</type></trkpt>
      <trkpt lat="40.85308403" lon="-4.37547143"><ele>2612</ele><speed>15.73</speed><time>2016-06-30T15:28:17Z</time><pdop>3.0</pdop><geoidheight>53.00</geoidheight><course>60.6</course><type>1</type></trkpt>
      <trkpt lat="40.85314298" lon="-4.37530615"><ele>2610</ele><speed>15.35</speed><time>2016-06-30T15:28:18Z</time><pdop>3.0</pdop><geoidheight>53.00</geoidheight><course>62.6</course><type>1</type></trkpt>
      <trkpt lat="40.85320665" lon="-4.3751517"><ele>2609</ele><speed>14.72</speed><time>2016-06-30T15:28:19Z</time><pdop>3.0</pdop><geoidheight>53.00</geoidheight><course>64.5</course><type>1</type></trkpt>
      <trkpt lat="40.85326783" lon="-4.37500851"><ele>2607</ele><speed>14.11</speed><time>2016-06-30T15:28:20Z</time><pdop>3.0</pdop><geoidheight>53.00</geoidheight><course>64.0</course><type>1</type></trkpt>
      <trkpt lat="40.85332009" lon="-4.37486431"><ele>2606</ele><speed>13.85</speed><time>2016-06-30T15:28:21Z</time><pdop>3.0</pdop><geoidheight>53.00</geoidheight><course>62.0</course><type>1</type></trkpt>
      <trkpt lat="40.85338337" lon="-4.37471829"><ele>2604</ele><speed>14.42</speed><time>2016-06-30T15:28:22Z</time><pdop>3.0</pdop><geoidheight>53.00</geoidheight><course>60.1</course><type>1</type></trkpt>
      <trkpt lat="40.85346541" lon="-4.37457099"><ele>2601</ele><speed>15.22</speed><time>2016-06-30T15:28:23Z</time><pdop>3.0</pdop><geoidheight>53.00</geoidheight><course>57.1</course><type>1</type></trkpt>
      <trkpt lat="40.85353842" lon="-4.37440653"><ele>2597</ele><speed>16.00</speed><time>2016-06-30T15:28:24Z</time><pdop>3.0</pdop><geoidheight>53.00</geoidheight><course>59.6</course><type>1</type></trkpt>
      <trkpt lat="40.85360916" lon="-4.37423693"><ele>2595</ele><speed>16.38</speed><time>2016-06-30T15:28:25Z</time><pdop>3.0</pdop><geoidheight>53.00</geoidheight><course>60.9</course><type>1</type></trkpt>
      <trkpt lat="40.85367006" lon="-4.37406214"><ele>2593</ele><speed>15.90</speed><time>2016-06-30T15:28:26Z</time><pdop>3.0</pdop><geoidheight>53.00</geoidheight><course>64.6</course><type>1</type></trkpt>
      <trkpt lat="40.85372742" lon="-4.37389851"><ele>2593</ele><speed>15.29</speed><time>2016-06-30T15:28:27Z</time><pdop>3.0</pdop><geoidheight>53.00</geoidheight><course>66.0</course><type>1</type></trkpt>
      <trkpt lat="40.85376523" lon="-4.37373334"><ele>2591</ele><speed>14.65</speed><time>2016-06-30T15:28:28Z</time><pdop>9.0</pdop><geoidheight>53.00</geoidheight><course>69.4</course><type>1</type></trkpt>
      <trkpt lat="40.8538431" lon="-4.37342829"><ele>2587</ele><speed>13.65</speed><time>2016-06-30T15:28:30Z</time><pdop>9.0</pdop><geoidheight>53.00</geoidheight><course>68.7</course><type>1</type></trkpt>
      <trkpt lat="40.85393478" lon="-4.3731249"><ele>2583</ele><speed>13.88</speed><time>2016-06-30T15:28:32Z</time><pdop>9.0</pdop><geoidheight>53.00</geoidheight><course>67.5</course><type>1</type></trkpt>
      <trkpt lat="40.85399969" lon="-4.37281529"><ele>2580</ele><speed>13.47</speed><time>2016-06-30T15:28:34Z</time><pdop>9.0</pdop><geoidheight>53.00</geoidheight><course>71.2</course><type>1</type></trkpt>
      <trkpt lat="40.85405452" lon="-4.37251785"><ele>2573</ele><speed>12.86</speed><time>2016-06-30T15:28:36Z</time><pdop>9.0</pdop><geoidheight>53.00</geoidheight><course>70.4</course><type>1</type></trkpt>
      <trkpt lat="40.85413879" lon="-4.37222456"><ele>2568</ele><speed>13.08</speed><time>2016-06-30T15:28:38Z</time><pdop>9.0</pdop><geoidheight>53.00</geoidheight><course>70.4</course><type>1</type></trkpt>
      <trkpt lat="40.85422378" lon="-4.37194014"><ele>2563</ele><speed>13.24</speed><time>2016-06-30T15:28:40Z</time><pdop>9.0</pdop><geoidheight>53.00</geoidheight><course>69.8</course><type>1</type></trkpt>
      <trkpt lat="40.85431036" lon="-4.37163594"><ele>2557</ele><speed>13.99</speed><time>2016-06-30T15:28:42Z</time><pdop>9.0</pdop><geoidheight>53.00</geoidheight><course>70.3</course><type>1</type></trkpt>
      <trkpt lat="40.85439094" lon="-4.37133405"><ele>2551</ele><speed>13.53</speed><time>2016-06-30T15:28:44Z</time><pdop>9.0</pdop><geoidheight>53.00</geoidheight><course>70.2</course><type>1</type></trkpt>
      <trkpt lat="40.85450702" lon="-4.37106889"><ele>2546</ele><speed>13.58</speed><time>2016-06-30T15:28:46Z</time><pdop>9.0</pdop><geoidheight>53.00</geoidheight><course>57.6</course><type>1</type></trkpt>
      <trkpt lat="40.85464395" lon="-4.37077956"><ele>2539</ele><speed>15.15</speed><time>2016-06-30T15:28:48Z</time><pdop>9.0</pdop><geoidheight>53.00</geoidheight><course>57.0</course><type>1</type></trkpt>
      <trkpt lat="40.85477096" lon="-4.37045606"><ele>2536</ele><speed>15.31</speed><time>2016-06-30T15:28:50Z</time><pdop>9.0</pdop><geoidheight>53.00</geoidheight><course>61.8</course><type>1</type></trkpt>
      <trkpt lat="40.85489028" lon="-4.37014923"><ele>2534</ele><speed>14.56</speed><time>2016-06-30T15:28:52Z</time><pdop>9.0</pdop><geoidheight>53.00</geoidheight><course>63.6</course><type>1</type></trkpt>
      <trkpt lat="40.85500809" lon="-4.36988306"><ele>2531</ele><speed>13.21</speed><time>2016-06-30T15:28:54Z</time><pdop>9.0</pdop><geoidheight>53.00</geoidheight><course>59.3</course><type>1</type></trkpt>
      <trkpt lat="40.85511894" lon="-4.36961978"><ele>2528</ele><speed>11.95</speed><time>2016-06-30T15:28:56Z</time><pdop>9.0</pdop><geoidheight>53.00</geoidheight><course>60.1</course><type>1</type></trkpt>
      <trkpt lat="40.85523286" lon="-4.36938133"><ele>2526</ele><speed>12.12</speed><time>2016-06-30T15:28:58Z</time><pdop>9.0</pdop><geoidheight>53.00</geoidheight><course>55.5</course><type>1</type></trkpt>
      <trkpt lat="40.85537252" lon="-4.36914544"><ele>2524</ele><speed>13.10</speed><time>2016-06-30T15:29:00Z</time><pdop>11.0</pdop><geoidheight>53.00</geoidheight><course>52.6</course><type>1</type></trkpt>
      <trkpt lat="40.85556541" lon="-4.36879714"><ele>2521</ele><speed>16.48</speed><time>2016-06-30T15:29:02Z</time><pdop>10.0</pdop><geoidheight>53.00</geoidheight><course>56.2</course><type>1</type></trkpt>
      <trkpt lat="40.85569071" lon="-4.36851886"><ele>2518</ele><speed>12.87</speed><time>2016-06-30T15:29:04Z</time><pdop>10.0</pdop><geoidheight>53.00</geoidheight><course>58.9</course><type>1</type></trkpt>
      <trkpt lat="40.85576104" lon="-4.36824676"><ele>2509</ele><speed>12.61</speed><time>2016-06-30T15:29:06Z</time><pdop>9.0</pdop><geoidheight>53.00</geoidheight><course>63.5</course><type>1</type></trkpt>
      <trkpt lat="40.85585405" lon="-4.36793931"><ele>2497</ele><speed>15.75</speed><time>2016-06-30T15:29:08Z</time><pdop>9.0</pdop><geoidheight>53.00</geoidheight><course>66.6</course><type>1</type></trkpt>
      <trkpt lat="40.8559712" lon="-4.36761117"><ele>2494</ele><speed>15.18</speed><time>2016-06-30T15:29:10Z</time><pdop>9.0</pdop><geoidheight>53.00</geoidheight><course>64.9</course><type>1</type></trkpt>
      <trkpt lat="40.85605905" lon="-4.36732664"><ele>2491</ele><speed>12.56</speed><time>2016-06-30T15:29:12Z</time><pdop>9.0</pdop><geoidheight>53.00</geoidheight><course>66.0</course><type>1</type></trkpt>
      <trkpt lat="40.85614814" lon="-4.36705828"><ele>2487</ele><speed>12.46</speed><time>2016-06-30T15:29:14Z</time><pdop>9.0</pdop><geoidheight>53.00</geoidheight><course>63.3</course><type>1</type></trkpt>
      <trkpt lat="40.85628767" lon="-4.36675802"><ele>2482</ele><speed>15.00</speed><time>2016-06-30T15:29:16Z</time><pdop>10.0</pdop><geoidheight>53.00</geoidheight><course>56.2</course><type>1</type></trkpt>
      <trkpt lat="40.85642778" lon="-4.36643827"><ele>2478</ele><speed>15.83</speed><time>2016-06-30T15:29:18Z</time><pdop>10.0</pdop><geoidheight>53.00</geoidheight><course>59.4</course><type>1</type></trkpt>
      <trkpt lat="40.85651912" lon="-4.36608035"><ele>2475</ele><speed>15.40</speed><time>2016-06-30T15:29:20Z</time><pdop>10.0</pdop><geoidheight>53.00</geoidheight><course>67.1</course><type>1</type></trkpt>
      <trkpt lat="40.85659927" lon="-4.36578101"><ele>2474</ele><speed>13.75</speed><time>2016-06-30T15:29:22Z</time><pdop>10.0</pdop><geoidheight>53.00</geoidheight><course>70.7</course><type>1</type></trkpt>
      <trkpt lat="40.85663204" lon="-4.36549968"><ele>2472</ele><speed>11.18</speed><time>2016-06-30T15:29:24Z</time><pdop>9.0</pdop><geoidheight>53.00</geoidheight><course>76.6</course><type>1</type></trkpt>
      <trkpt lat="40.85668501" lon="-4.36526354"><ele>2469</ele><speed>10.30</speed><time>2016-06-30T15:29:26Z</time><pdop>9.0</pdop><geoidheight>53.00</geoidheight><course>71.2</course><type>1</type></trkpt>
      <trkpt lat="40.85675552" lon="-4.36501135"><ele>2466</ele><speed>11.63</speed><time>2016-06-30T15:29:28Z</time><pdop>9.0</pdop><geoidheight>53.00</geoidheight><course>66.1</course><type>1</type></trkpt>
      <trkpt lat="40.8568157" lon="-4.36472185"><ele>2463</ele><speed>12.46</speed><time>2016-06-30T15:29:30Z</time><pdop>9.0</pdop><geoidheight>53.00</geoidheight><course>76.5</course><type>1</type></trkpt>
      <trkpt lat="40.85680688" lon="-4.36444017"><ele>2464</ele><speed>12.01</speed><time>2016-06-30T15:29:32Z</time><pdop>9.0</pdop><geoidheight>53.00</geoidheight><course>92.5</course><type>1</type></trkpt>
      <trkpt lat="40.85679492" lon="-4.36415914"><ele>2461</ele><speed>11.48</speed><time>2016-06-30T15:29:34Z</time><pdop>9.0</pdop><geoidheight>53.00</geoidheight><course>90.7</course><type>1</type></trkpt>
      <trkpt lat="40.8568039" lon="-4.3639106"><ele>2459</ele><speed>10.19</speed><time>2016-06-30T15:29:36Z</time><pdop>9.0</pdop><geoidheight>53.00</geoidheight><course>85.3</course><type>1</type></trkpt>
      <trkpt lat="40.85683155" lon="-4.36363346"><ele>2455</ele><speed>12.43</speed><time>2016-06-30T15:29:38Z</time><pdop>9.0</pdop><geoidheight>53.00</geoidheight><course>78.7</course><type>1</type></trkpt>
      <trkpt lat="40.85693929" lon="-4.36333976"><ele>2456</ele><speed>13.81</speed><time>2016-06-30T15:29:40Z</time><pdop>9.0</pdop><geoidheight>53.00</geoidheight><course>66.5</course><type>1</type></trkpt>
      <trkpt lat="40.85704624" lon="-4.36304256"><ele>2454</ele><speed>14.21</speed><time>2016-06-30T15:29:42Z</time><pdop>9.0</pdop><geoidheight>53.00</geoidheight><course>64.4</course><type>1</type></trkpt>
      <trkpt lat="40.85714205" lon="-4.362699"><ele>2452</ele><speed>14.79</speed><time>2016-06-30T15:29:44Z</time><pdop>9.0</pdop><geoidheight>53.00</geoidheight><course>68.5</course><type>1</type></trkpt>
      <trkpt lat="40.85720678" lon="-4.36235899"><ele>2450</ele><speed>13.94</speed><time>2016-06-30T15:29:46Z</time><pdop>9.0</pdop><geoidheight>53.00</geoidheight><course>76.1</course><type>1</type></trkpt>
      <trkpt lat="40.85726394" lon="-4.36205787"><ele>2449</ele><speed>13.21</speed><time>2016-06-30T15:29:48Z</time><pdop>9.0</pdop><geoidheight>53.00</geoidheight><course>74.5</course><type>1</type></trkpt>
      <trkpt lat="40.85732253" lon="-4.36176105"><ele>2446</ele><speed>13.47</speed><time>2016-06-30T15:29:50Z</time><pdop>9.0</pdop><geoidheight>53.00</geoidheight><course>75.8</course><type>1</type></trkpt>
      <trkpt lat="40.85734525" lon="-4.36142169"><ele>2436</ele><speed>15.87</speed><time>2016-06-30T15:29:52Z</time><pdop>9.0</pdop><geoidheight>53.00</geoidheight><course>85.0</course><type>1</type></trkpt>
      <trkpt lat="40.85736529" lon="-4.36105008"><ele>2432</ele><speed>15.39</speed><time>2016-06-30T15:29:54Z</time><pdop>9.0</pdop><geoidheight>53.00</geoidheight><course>83.7</course><type>1</type></trkpt>
      <trkpt lat="40.85739561" lon="-4.36071927"><ele>2431</ele><speed>13.50</speed><time>2016-06-30T15:29:56Z</time><pdop>9.0</pdop><geoidheight>53.00</geoidheight><course>80.4</course><type>1</type></trkpt>
      <trkpt lat="40.85745477" lon="-4.36042431"><ele>2427</ele><speed>13.10</speed><time>2016-06-30T15:29:58Z</time><pdop>9.0</pdop><geoidheight>53.00</geoidheight><course>74.8</course><type>1</type></trkpt>
      <trkpt lat="40.85750709" lon="-4.360109"><ele>2425</ele><speed>13.46</speed><time>2016-06-30T15:30:00Z</time><pdop>9.0</pdop><geoidheight>53.00</geoidheight><course>74.5</course><type>1</type></trkpt>
      <trkpt lat="40.85753786" lon="-4.35982064"><ele>2423</ele><speed>12.15</speed><time>2016-06-30T15:30:02Z</time><pdop>9.0</pdop><geoidheight>53.00</geoidheight><course>82.2</course><type>1</type></trkpt>
      <trkpt lat="40.85757795" lon="-4.35952473"><ele>2420</ele><speed>12.98</speed><time>2016-06-30T15:30:04Z</time><pdop>9.0</pdop><geoidheight>53.00</geoidheight><course>81.0</course><type>1</type></trkpt>
      <trkpt lat="40.85760121" lon="-4.3591759"><ele>2415</ele><speed>15.42</speed><time>2016-06-30T15:30:06Z</time><pdop>9.0</pdop><geoidheight>53.00</geoidheight><course>85.0</course><type>1</type></trkpt>
      <trkpt lat="40.85763343" lon="-4.35882178"><ele>2414</ele><speed>14.57</speed><time>2016-06-30T15:30:08Z</time><pdop>9.0</pdop><geoidheight>53.00</geoidheight><course>83.3</course><type>1</type></trkpt>
      <trkpt lat="40.85766532" lon="-4.35851277"><ele>2415</ele><speed>12.62</speed><time>2016-06-30T15:30:10Z</time><pdop>9.0</pdop><geoidheight>53.00</geoidheight><course>82.6</course><type>1</type></trkpt>
      <trkpt lat="40.85765528" lon="-4.35822183"><ele>2414</ele><speed>12.31</speed><time>2016-06-30T15:30:12Z</time><pdop>9.0</pdop><geoidheight>53.00</geoidheight><course>89.2</course><type>1</type></trkpt>
      <trkpt lat="40.85762065" lon="-4.35795211"><ele>2415</ele><speed>12.08</speed><time>2016-06-30T15:30:14Z</time><pdop>9.0</pdop><geoidheight>53.00</geoidheight><course>98.8</course><type>1</type></trkpt>
      <trkpt lat="40.85756915" lon="-4.35770832"><ele>2414</ele><speed>10.82</speed><time>2016-06-30T15:30:16Z</time><pdop>3.0</pdop><geoidheight>53.00</geoidheight><course>105.2</course><type>1</type></trkpt>
      <trkpt lat="40.85754809" lon="-4.35758031"><ele>2411</ele><speed>10.66</speed><time>2016-06-30T15:30:17Z</time><pdop>3.0</pdop><geoidheight>53.00</geoidheight><course>105.2</course><type>1</type></trkpt>
      <trkpt lat="40.85752544" lon="-4.35743892"><ele>2408</ele><speed>12.02</speed><time>2016-06-30T15:30:18Z</time><pdop>3.0</pdop><geoidheight>53.00</geoidheight><course>102.9</course><type>1</type></trkpt>
      <trkpt lat="40.85749602" lon="-4.35728455"><ele>2405</ele><speed>13.92</speed><time>2016-06-30T15:30:19Z</time><pdop>3.0</pdop><geoidheight>53.00</geoidheight><course>99.7</course><type>1</type></trkpt>
      <trkpt lat="40.85748261" lon="-4.35710294"><ele>2402</ele><speed>15.33</speed><time>2016-06-30T15:30:20Z</time><pdop>3.0</pdop><geoidheight>53.00</geoidheight><course>96.5</course><type>1</type></trkpt>
      <trkpt lat="40.85747495" lon="-4.35692066"><ele>2400</ele><speed>15.66</speed><time>2016-06-30T15:30:21Z</time><pdop>3.0</pdop><geoidheight>53.00</geoidheight><course>93.2</course><type>1</type></trkpt>
      <trkpt lat="40.8574757" lon="-4.3567394"><ele>2400</ele><speed>15.13</speed><time>2016-06-30T15:30:22Z</time><pdop>3.0</pdop><geoidheight>53.00</geoidheight><course>90.2</course><type>1</type></trkpt>
      <trkpt lat="40.8574816" lon="-4.35658385"><ele>2399</ele><speed>14.17</speed><time>2016-06-30T15:30:23Z</time><pdop>3.0</pdop><geoidheight>53.00</geoidheight><course>87.1</course><type>1</type></trkpt>
      <trkpt lat="40.85749374" lon="-4.35642672"><ele>2399</ele><speed>13.35</speed><time>2016-06-30T15:30:24Z</time><pdop>3.0</pdop><geoidheight>53.00</geoidheight><course>85.9</course><type>1</type></trkpt>
      <trkpt lat="40.85750129" lon="-4.3562734"><ele>2398</ele><speed>12.91</speed><time>2016-06-30T15:30:25Z</time><pdop>3.0</pdop><geoidheight>53.00</geoidheight><course>85.4</course><type>1</type></trkpt>
      <trkpt lat="40.85750909" lon="-4.35612058"><ele>2397</ele><speed>12.74</speed><time>2016-06-30T15:30:26Z</time><pdop>3.0</pdop><geoidheight>53.00</geoidheight><course>85.7</course><type>1</type></trkpt>
      <trkpt lat="40.85751491" lon="-4.35597191"><ele>2397</ele><speed>12.67</speed><time>2016-06-30T15:30:27Z</time><pdop>3.0</pdop><geoidheight>53.00</geoidheight><course>85.6</course><type>1</type></trkpt>
      <trkpt lat="40.85753399" lon="-4.35582587"><ele>2395</ele><speed>12.65</speed><time>2016-06-30T15:30:28Z</time><pdop>3.0</pdop><geoidheight>53.00</geoidheight><course>80.8</course><type>1</type></trkpt>
      <trkpt lat="40.85757252" lon="-4.35567354"><ele>2393</ele><speed>13.23</speed><time>2016-06-30T15:30:29Z</time><pdop>3.0</pdop><geoidheight>53.00</geoidheight><course>75.6</course><type>1</type></trkpt>
      <trkpt lat="40.8576072" lon="-4.35552362"><ele>2394</ele><speed>13.35</speed><time>2016-06-30T15:30:30Z</time><pdop>4.0</pdop><geoidheight>53.00</geoidheight><course>72.8</course><type>1</type></trkpt>
      <trkpt lat="40.85765926" lon="-4.35538848"><ele>2395</ele><speed>13.32</speed><time>2016-06-30T15:30:31Z</time><pdop>4.0</pdop><geoidheight>53.00</geoidheight><course>68.9</course><type>1</type></trkpt>
      <trkpt lat="40.85770743" lon="-4.35523399"><ele>2395</ele><speed>13.30</speed><time>2016-06-30T15:30:32Z</time><pdop>5.0</pdop><geoidheight>53.00</geoidheight><course>67.3</course><type>1</type></trkpt>
      <trkpt lat="40.85778255" lon="-4.35509038"><ele>2394</ele><speed>14.13</speed><time>2016-06-30T15:30:33Z</time><pdop>4.0</pdop><geoidheight>53.00</geoidheight><course>60.7</course><type>1</type></trkpt>
      <trkpt lat="40.85783962" lon="-4.35495483"><ele>2391</ele><speed>14.58</speed><time>2016-06-30T15:30:34Z</time><pdop>5.0</pdop><geoidheight>53.00</geoidheight><course>60.5</course><type>1</type></trkpt>
      <trkpt lat="40.85790693" lon="-4.35479594"><ele>2388</ele><speed>15.31</speed><time>2016-06-30T15:30:35Z</time><pdop>5.0</pdop><geoidheight>53.00</geoidheight><course>60.6</course><type>1</type></trkpt>
      <trkpt lat="40.85797791" lon="-4.35461723"><ele>2388</ele><speed>15.99</speed><time>2016-06-30T15:30:36Z</time><pdop>5.0</pdop><geoidheight>53.00</geoidheight><course>60.4</course><type>1</type></trkpt>
      <trkpt lat="40.85804183" lon="-4.35444379"><ele>2386</ele><speed>16.35</speed><time>2016-06-30T15:30:37Z</time><pdop>5.0</pdop><geoidheight>53.00</geoidheight><course>61.7</course><type>1</type></trkpt>
      <trkpt lat="40.85811192" lon="-4.35427781"><ele>2387</ele><speed>16.10</speed><time>2016-06-30T15:30:38Z</time><pdop>5.0</pdop><geoidheight>53.00</geoidheight><course>61.8</course><type>1</type></trkpt>
      <trkpt lat="40.85816805" lon="-4.35411401"><ele>2386</ele><speed>15.62</speed><time>2016-06-30T15:30:39Z</time><pdop>5.0</pdop><geoidheight>53.00</geoidheight><course>61.4</course><type>1</type></trkpt>
      <trkpt lat="40.85823222" lon="-4.35395124"><ele>2385</ele><speed>15.40</speed><time>2016-06-30T15:30:40Z</time><pdop>5.0</pdop><geoidheight>53.00</geoidheight><course>63.1</course><type>1</type></trkpt>
      <trkpt lat="40.85829119" lon="-4.35378032"><ele>2385</ele><speed>15.69</speed><time>2016-06-30T15:30:41Z</time><pdop>5.0</pdop><geoidheight>53.00</geoidheight><course>65.2</course><type>1</type></trkpt>
      <trkpt lat="40.85834431" lon="-4.35361065"><ele>2386</ele><speed>15.67</speed><time>2016-06-30T15:30:42Z</time><pdop>5.0</pdop><geoidheight>53.00</geoidheight><course>67.9</course><type>1</type></trkpt>
      <trkpt lat="40.85839964" lon="-4.35343631"><ele>2387</ele><speed>15.51</speed><time>2016-06-30T15:30:43Z</time><pdop>5.0</pdop><geoidheight>53.00</geoidheight><course>70.0</course><type>1</type></trkpt>
      <trkpt lat="40.85844185" lon="-4.35325818"><ele>2387</ele><speed>15.16</speed><time>2016-06-30T15:30:44Z</time><pdop>5.0</pdop><geoidheight>53.00</geoidheight><course>72.6</course><type>1</type></trkpt>
      <trkpt lat="40.85847151" lon="-4.35309244"><ele>2387</ele><speed>15.06</speed><time>2016-06-30T15:30:45Z</time><pdop>4.0</pdop><geoidheight>53.00</geoidheight><course>75.5</course><type>1</type></trkpt>
      <trkpt lat="40.85849748" lon="-4.35291934"><ele>2387</ele><speed>14.69</speed><time>2016-06-30T15:30:46Z</time><pdop>4.0</pdop><geoidheight>53.00</geoidheight><course>78.7</course><type>1</type></trkpt>
      <trkpt lat="40.85851607" lon="-4.35275208"><ele>2386</ele><speed>14.26</speed><time>2016-06-30T15:30:47Z</time><pdop>4.0</pdop><geoidheight>53.00</geoidheight><course>81.3</course><type>1</type></trkpt>
      <trkpt lat="40.85853393" lon="-4.35259029"><ele>2386</ele><speed>14.20</speed><time>2016-06-30T15:30:48Z</time><pdop>3.0</pdop><geoidheight>53.00</geoidheight><course>81.3</course><type>1</type></trkpt>
      <trkpt lat="40.85855823" lon="-4.35242459"><ele>2385</ele><speed>14.26</speed><time>2016-06-30T15:30:49Z</time><pdop>3.0</pdop><geoidheight>53.00</geoidheight><course>78.1</course><type>1</type></trkpt>
      <trkpt lat="40.85859924" lon="-4.35227771"><ele>2383</ele><speed>14.04</speed><time>2016-06-30T15:30:50Z</time><pdop>3.0</pdop><geoidheight>53.00</geoidheight><course>72.8</course><type>1</type></trkpt>
      <trkpt lat="40.85865293" lon="-4.35212628"><ele>2381</ele><speed>14.84</speed><time>2016-06-30T15:30:51Z</time><pdop>3.0</pdop><geoidheight>53.00</geoidheight><course>68.6</course><type>1</type></trkpt>
      <trkpt lat="40.85871193" lon="-4.35195054"><ele>2379</ele><speed>16.31</speed><time>2016-06-30T15:30:52Z</time><pdop>3.0</pdop><geoidheight>53.00</geoidheight><course>66.2</course><type>1</type></trkpt>
      <trkpt lat="40.85877849" lon="-4.35176347"><ele>2378</ele><speed>17.15</speed><time>2016-06-30T15:30:53Z</time><pdop>4.0</pdop><geoidheight>53.00</geoidheight><course>65.6</course><type>1</type></trkpt>
      <trkpt lat="40.85885823" lon="-4.35155359"><ele>2377</ele><speed>18.73</speed><time>2016-06-30T15:30:54Z</time><pdop>4.0</pdop><geoidheight>53.00</geoidheight><course>64.7</course><type>1</type></trkpt>
      <trkpt lat="40.85890453" lon="-4.3513189"><ele>2376</ele><speed>19.26</speed><time>2016-06-30T15:30:55Z</time><pdop>4.0</pdop><geoidheight>53.00</geoidheight><course>69.9</course><type>1</type></trkpt>
      <trkpt lat="40.85894416" lon="-4.35109426"><ele>2376</ele><speed>18.64</speed><time>2016-06-30T15:30:56Z</time><pdop>4.0</pdop><geoidheight>53.00</geoidheight><course>71.6</course><type>1</type></trkpt>
      <trkpt lat="40.85899204" lon="-4.35088383"><ele>2376</ele><speed>18.12</speed><time>2016-06-30T15:30:57Z</time><pdop>4.0</pdop><geoidheight>53.00</geoidheight><course>70.9</course><type>1</type></trkpt>
      <trkpt lat="40.85904273" lon="-4.35069643"><ele>2375</ele><speed>16.96</speed><time>2016-06-30T15:30:58Z</time><pdop>4.0</pdop><geoidheight>53.00</geoidheight><course>68.2</course><type>1</type></trkpt>
      <trkpt lat="40.85910187" lon="-4.35051059"><ele>2376</ele><speed>17.05</speed><time>2016-06-30T15:30:59Z</time><pdop>4.0</pdop><geoidheight>53.00</geoidheight><course>67.1</course><type>1</type></trkpt>
      <trkpt lat="40.85915036" lon="-4.35032516"><ele>2376</ele><speed>16.21</speed><time>2016-06-30T15:31:00Z</time><pdop>4.0</pdop><geoidheight>53.00</geoidheight><course>67.9</course><type>1</type></trkpt>
      <trkpt lat="40.85918196" lon="-4.35015436"><ele>2376</ele><speed>15.15</speed><time>2016-06-30T15:31:01Z</time><pdop>4.0</pdop><geoidheight>53.00</geoidheight><course>71.6</course><type>1</type></trkpt>
      <trkpt lat="40.85924313" lon="-4.35001593"><ele>2376</ele><speed>14.34</speed><time>2016-06-30T15:31:02Z</time><pdop>4.0</pdop><geoidheight>53.00</geoidheight><course>68.2</course><type>1</type></trkpt>
      <trkpt lat="40.85928839" lon="-4.34985204"><ele>2375</ele><speed>13.78</speed><time>2016-06-30T15:31:03Z</time><pdop>5.0</pdop><geoidheight>53.00</geoidheight><course>69.5</course><type>1</type></trkpt>
      <trkpt lat="40.85934305" lon="-4.34972314"><ele>2375</ele><speed>13.12</speed><time>2016-06-30T15:31:04Z</time><pdop>4.0</pdop><geoidheight>53.00</geoidheight><course>66.4</course><type>1</type></trkpt>
      <trkpt lat="40.85939806" lon="-4.3496037"><ele>2374</ele><speed>12.66</speed><time>2016-06-30T15:31:05Z</time><pdop>4.0</pdop><geoidheight>53.00</geoidheight><course>64.2</course><type>1</type></trkpt>
      <trkpt lat="40.85944586" lon="-4.34948691"><ele>2375</ele><speed>12.32</speed><time>2016-06-30T15:31:06Z</time><pdop>4.0</pdop><geoidheight>53.00</geoidheight><course>62.0</course><type>1</type></trkpt>
      <trkpt lat="40.85950993" lon="-4.34936058"><ele>2375</ele><speed>11.97</speed><time>2016-06-30T15:31:07Z</time><pdop>4.0</pdop><geoidheight>53.00</geoidheight><course>60.4</course><type>1</type></trkpt>
      <trkpt lat="40.85956629" lon="-4.34923861"><ele>2375</ele><speed>11.84</speed><time>2016-06-30T15:31:08Z</time><pdop>3.0</pdop><geoidheight>53.00</geoidheight><course>61.2</course><type>1</type></trkpt>
      <trkpt lat="40.85961015" lon="-4.34910979"><ele>2375</ele><speed>12.04</speed><time>2016-06-30T15:31:09Z</time><pdop>3.0</pdop><geoidheight>53.00</geoidheight><course>62.9</course><type>1</type></trkpt>
      <trkpt lat="40.85965548" lon="-4.34898381"><ele>2375</ele><speed>12.18</speed><time>2016-06-30T15:31:10Z</time><pdop>3.0</pdop><geoidheight>53.00</geoidheight><course>64.9</course><type>1</type></trkpt>
      <trkpt lat="40.85969113" lon="-4.34884552"><ele>2374</ele><speed>12.10</speed><time>2016-06-30T15:31:11Z</time><pdop>3.0</pdop><geoidheight>53.00</geoidheight><course>66.0</course><type>1</type></trkpt>
      <trkpt lat="40.85973294" lon="-4.34870581"><ele>2374</ele><speed>12.22</speed><time>2016-06-30T15:31:12Z</time><pdop>3.0</pdop><geoidheight>53.00</geoidheight><course>68.6</course><type>1</type></trkpt>
      <trkpt lat="40.85976023" lon="-4.34856489"><ele>2374</ele><speed>12.32</speed><time>2016-06-30T15:31:13Z</time><pdop>3.0</pdop><geoidheight>53.00</geoidheight><course>71.5</course><type>1</type></trkpt>
      <trkpt lat="40.8597941" lon="-4.34841609"><ele>2374</ele><speed>12.67</speed><time>2016-06-30T15:31:14Z</time><pdop>3.0</pdop><geoidheight>53.00</geoidheight><course>73.4</course><type>1</type></trkpt>
      <trkpt lat="40.85982941" lon="-4.3482609"><ele>2374</ele><speed>12.80</speed><time>2016-06-30T15:31:15Z</time><pdop>3.0</pdop><geoidheight>53.00</geoidheight><course>75.8</course><type>1</type></trkpt>
      <trkpt lat="40.85985604" lon="-4.34810988"><ele>2374</ele><speed>12.58</speed><time>2016-06-30T15:31:16Z</time><pdop>3.0</pdop><geoidheight>53.00</geoidheight><course>76.8</course><type>1</type></trkpt>
      <trkpt lat="40.8599026" lon="-4.34782739"><ele>2374</ele><speed>12.31</speed><time>2016-06-30T15:31:18Z</time><pdop>9.0</pdop><geoidheight>53.00</geoidheight><course>74.6</course><type>1</type></trkpt>
      <trkpt lat="40.8599371" lon="-4.34756091"><ele>2389</ele><speed>12.43</speed><time>2016-06-30T15:31:20Z</time><pdop>9.0</pdop><geoidheight>53.00</geoidheight><course>81.4</course><type>1</type></trkpt>
      <trkpt lat="40.85996247" lon="-4.34723381"><ele>2382</ele><speed>13.80</speed><time>2016-06-30T15:31:22Z</time><pdop>9.0</pdop><geoidheight>53.00</geoidheight><course>83.5</course><type>1</type></trkpt>
      <trkpt lat="40.85999382" lon="-4.34691867"><ele>2379</ele><speed>13.28</speed><time>2016-06-30T15:31:24Z</time><pdop>9.0</pdop><geoidheight>53.00</geoidheight><course>84.7</course><type>1</type></trkpt>
      <trkpt lat="40.85999871" lon="-4.34660689"><ele>2381</ele><speed>13.11</speed><time>2016-06-30T15:31:26Z</time><pdop>9.0</pdop><geoidheight>53.00</geoidheight><course>87.4</course><type>1</type></trkpt>
      <trkpt lat="40.8599934" lon="-4.34630223"><ele>2379</ele><speed>13.20</speed><time>2016-06-30T15:31:28Z</time><pdop>9.0</pdop><geoidheight>53.00</geoidheight><course>87.5</course><type>1</type></trkpt>
      <trkpt lat="40.86000121" lon="-4.34598444"><ele>2379</ele><speed>13.62</speed><time>2016-06-30T15:31:30Z</time><pdop>9.0</pdop><geoidheight>53.00</geoidheight><course>85.8</course><type>1</type></trkpt>
      <trkpt lat="40.86001324" lon="-4.34567708"><ele>2381</ele><speed>12.69</speed><time>2016-06-30T15:31:32Z</time><pdop>9.0</pdop><geoidheight>53.00</geoidheight><course>89.3</course><type>1</type></trkpt>
      <trkpt lat="40.85996266" lon="-4.3453922"><ele>2381</ele><speed>12.12</speed><time>2016-06-30T15:31:34Z</time><pdop>9.0</pdop><geoidheight>53.00</geoidheight><course>104.9</course><type>1</type></trkpt>
      <trkpt lat="40.85984245" lon="-4.34518652"><ele>2381</ele><speed>11.26</speed><time>2016-06-30T15:31:36Z</time><pdop>9.0</pdop><geoidheight>53.00</geoidheight><course>134.2</course><type>1</type></trkpt>
      <trkpt lat="40.85968373" lon="-4.34510596"><ele>2381</ele><speed>9.27</speed><time>2016-06-30T15:31:38Z</time><pdop>9.0</pdop><geoidheight>53.00</geoidheight><course>159.6</course><type>1</type></trkpt>
      <trkpt lat="40.85950063" lon="-4.34527711"><ele>2380</ele><speed>9.82</speed><time>2016-06-30T15:31:40Z</time><pdop>9.0</pdop><geoidheight>53.00</geoidheight><course>212.1</course><type>1</type></trkpt>
      <trkpt lat="40.85938231" lon="-4.34548492"><ele>2382</ele><speed>7.02</speed><time>2016-06-30T15:31:43Z</time><pdop>10.0</pdop><geoidheight>53.00</geoidheight><course>243.3</course><type>1</type></trkpt>
      <trkpt lat="40.85940129" lon="-4.345726"><ele>2384</ele><speed>6.68</speed><time>2016-06-30T15:31:46Z</time><pdop>9.0</pdop><geoidheight>53.00</geoidheight><course>288.5</course><type>1</type></trkpt>
      <trkpt lat="40.85958206" lon="-4.34585039"><ele>2387</ele><speed>8.95</speed><time>2016-06-30T15:31:49Z</time><pdop>9.0</pdop><geoidheight>53.00</geoidheight><course>352.0</course><type>1</type></trkpt>
      <trkpt lat="40.85975146" lon="-4.34582113"><ele>2388</ele><speed>9.67</speed><time>2016-06-30T15:31:51Z</time><pdop>9.0</pdop><geoidheight>53.00</geoidheight><course>10.0</course><type>1</type></trkpt>
      <trkpt lat="40.85991346" lon="-4.34567855"><ele>2388</ele><speed>11.02</speed><time>2016-06-30T15:31:53Z</time><pdop>9.0</pdop><geoidheight>53.00</geoidheight><course>38.0</course><type>1</type></trkpt>
      <trkpt lat="40.85999565" lon="-4.34539923"><ele>2390</ele><speed>12.94</speed><time>2016-06-30T15:31:55Z</time><pdop>9.0</pdop><geoidheight>53.00</geoidheight><course>65.0</course><type>1</type></trkpt>
      <trkpt lat="40.8600225" lon="-4.34506116"><ele>2391</ele><speed>13.92</speed><time>2016-06-30T15:31:57Z</time><pdop>9.0</pdop><geoidheight>53.00</geoidheight><course>89.0</course><type>1</type></trkpt>
      <trkpt lat="40.85994966" lon="-4.34476024"><ele>2393</ele><speed>13.32</speed><time>2016-06-30T15:31:59Z</time><pdop>9.0</pdop><geoidheight>53.00</geoidheight><course>114.0</course><type>1</type></trkpt>
      <trkpt lat="40.85979321" lon="-4.344569"><ele>2394</ele><speed>11.95</speed><time>2016-06-30T15:32:01Z</time><pdop>3.0</pdop><geoidheight>53.00</geoidheight><course>140.9</course><type>1</type></trkpt>
      <trkpt lat="40.85970744" lon="-4.34451808"><ele>2395</ele><speed>10.83</speed><time>2016-06-30T15:32:02Z</time><pdop>3.0</pdop><geoidheight>53.00</geoidheight><course>150.1</course><type>1</type></trkpt>
      <trkpt lat="40.85963164" lon="-4.34447265"><ele>2395</ele><speed>9.86</speed><time>2016-06-30T15:32:03Z</time><pdop>4.0</pdop><geoidheight>53.00</geoidheight><course>152.8</course><type>1</type></trkpt>
      <trkpt lat="40.85954192" lon="-4.34456422"><ele>2395</ele><speed>9.27</speed><time>2016-06-30T15:32:04Z</time><pdop>3.0</pdop><geoidheight>53.00</geoidheight><course>193.4</course><type>1</type></trkpt>
      <trkpt lat="40.85946159" lon="-4.34460088"><ele>2396</ele><speed>9.08</speed><time>2016-06-30T15:32:05Z</time><pdop>4.0</pdop><geoidheight>53.00</geoidheight><course>196.3</course><type>1</type></trkpt>
      <trkpt lat="40.85937018" lon="-4.34476995"><ele>2396</ele><speed>8.26</speed><time>2016-06-30T15:32:07Z</time><pdop>4.0</pdop><geoidheight>53.00</geoidheight><course>231.6</course><type>1</type></trkpt>
      <trkpt lat="40.85934465" lon="-4.34492406"><ele>2401</ele><speed>7.28</speed><time>2016-06-30T15:32:09Z</time><pdop>4.0</pdop><geoidheight>53.00</geoidheight><course>249.6</course><type>1</type></trkpt>
      <trkpt lat="40.85935245" lon="-4.34508636"><ele>2399</ele><speed>7.39</speed><time>2016-06-30T15:32:11Z</time><pdop>4.0</pdop><geoidheight>53.00</geoidheight><course>269.9</course><type>1</type></trkpt>
      <trkpt lat="40.85942615" lon="-4.3452359"><ele>2401</ele><speed>7.42</speed><time>2016-06-30T15:32:13Z</time><pdop>5.0</pdop><geoidheight>53.00</geoidheight><course>300.7</course><type>1</type></trkpt>
      <trkpt lat="40.85956408" lon="-4.34521592"><ele>2401</ele><speed>4.83</speed><time>2016-06-30T15:32:15Z</time><pdop>5.0</pdop><geoidheight>53.00</geoidheight><course>342.5</course><type>1</type></trkpt>
      <trkpt lat="40.85970968" lon="-4.34498656"><ele>2404</ele><speed>11.25</speed><time>2016-06-30T15:32:16Z</time><pdop>4.0</pdop><geoidheight>53.00</geoidheight><course>46.6</course><type>1</type></trkpt>
      <trkpt lat="40.85975953" lon="-4.34485348"><ele>2407</ele><speed>11.99</speed><time>2016-06-30T15:32:17Z</time><pdop>3.0</pdop><geoidheight>53.00</geoidheight><course>60.2</course><type>1</type></trkpt>
      <trkpt lat="40.85979781" lon="-4.34470099"><ele>2408</ele><speed>12.40</speed><time>2016-06-30T15:32:18Z</time><pdop>4.0</pdop><geoidheight>53.00</geoidheight><course>71.3</course><type>1</type></trkpt>
      <trkpt lat="40.85981831" lon="-4.34455234"><ele>2408</ele><speed>12.92</speed><time>2016-06-30T15:32:19Z</time><pdop>4.0</pdop><geoidheight>53.00</geoidheight><course>79.6</course><type>1</type></trkpt>
      <trkpt lat="40.85982704" lon="-4.34440721"><ele>2410</ele><speed>12.80</speed><time>2016-06-30T15:32:20Z</time><pdop>4.0</pdop><geoidheight>53.00</geoidheight><course>84.1</course><type>1</type></trkpt>
      <trkpt lat="40.85983815" lon="-4.34424478"><ele>2412</ele><speed>13.13</speed><time>2016-06-30T15:32:21Z</time><pdop>4.0</pdop><geoidheight>53.00</geoidheight><course>83.5</course><type>1</type></trkpt>
      <trkpt lat="40.85984807" lon="-4.34408501"><ele>2413</ele><speed>13.26</speed><time>2016-06-30T15:32:22Z</time><pdop>4.0</pdop><geoidheight>53.00</geoidheight><course>83.5</course><type>1</type></trkpt>
      <trkpt lat="40.85985847" lon="-4.34393066"><ele>2415</ele><speed>13.19</speed><time>2016-06-30T15:32:23Z</time><pdop>4.0</pdop><geoidheight>53.00</geoidheight><course>84.8</course><type>1</type></trkpt>
      <trkpt lat="40.85987917" lon="-4.34377156"><ele>2416</ele><speed>13.50</speed><time>2016-06-30T15:32:24Z</time><pdop>4.0</pdop><geoidheight>53.00</geoidheight><course>82.5</course><type>1</type></trkpt>
      <trkpt lat="40.85990155" lon="-4.3436126"><ele>2418</ele><speed>13.69</speed><time>2016-06-30T15:32:25Z</time><pdop>4.0</pdop><geoidheight>53.00</geoidheight><course>81.0</course><type>1</type></trkpt>
      <trkpt lat="40.85993655" lon="-4.34345036"><ele>2419</ele><speed>14.11</speed><time>2016-06-30T15:32:26Z</time><pdop>4.0</pdop><geoidheight>53.00</geoidheight><course>76.8</course><type>1</type></trkpt>
      <trkpt lat="40.85997639" lon="-4.34328886"><ele>2418</ele><speed>14.38</speed><time>2016-06-30T15:32:27Z</time><pdop>4.0</pdop><geoidheight>53.00</geoidheight><course>75.0</course><type>1</type></trkpt>
      <trkpt lat="40.86001006" lon="-4.34313724"><ele>2419</ele><speed>13.86</speed><time>2016-06-30T15:32:28Z</time><pdop>4.0</pdop><geoidheight>53.00</geoidheight><course>74.9</course><type>1</type></trkpt>
      <trkpt lat="40.86005173" lon="-4.34296636"><ele>2420</ele><speed>14.18</speed><time>2016-06-30T15:32:29Z</time><pdop>4.0</pdop><geoidheight>53.00</geoidheight><course>75.9</course><type>1</type></trkpt>
      <trkpt lat="40.86007044" lon="-4.34279142"><ele>2421</ele><speed>14.03</speed><time>2016-06-30T15:32:30Z</time><pdop>4.0</pdop><geoidheight>53.00</geoidheight><course>77.7</course><type>1</type></trkpt>
      <trkpt lat="40.86009243" lon="-4.34262328"><ele>2421</ele><speed>13.66</speed><time>2016-06-30T15:32:31Z</time><pdop>4.0</pdop><geoidheight>53.00</geoidheight><course>79.6</course><type>1</type></trkpt>
      <trkpt lat="40.86011362" lon="-4.34246445"><ele>2421</ele><speed>13.09</speed><time>2016-06-30T15:32:32Z</time><pdop>4.0</pdop><geoidheight>53.00</geoidheight><course>81.1</course><type>1</type></trkpt>
      <trkpt lat="40.86011474" lon="-4.34230894"><ele>2422</ele><speed>13.25</speed><time>2016-06-30T15:32:33Z</time><pdop>4.0</pdop><geoidheight>53.00</geoidheight><course>85.1</course><type>1</type></trkpt>
      <trkpt lat="40.86013031" lon="-4.34216025"><ele>2425</ele><speed>13.78</speed><time>2016-06-30T15:32:34Z</time><pdop>4.0</pdop><geoidheight>53.00</geoidheight><course>83.5</course><type>1</type></trkpt>
      <trkpt lat="40.86014296" lon="-4.34200425"><ele>2428</ele><speed>13.82</speed><time>2016-06-30T15:32:35Z</time><pdop>4.0</pdop><geoidheight>53.00</geoidheight><course>83.5</course><type>1</type></trkpt>
      <trkpt lat="40.86015535" lon="-4.34185203"><ele>2429</ele><speed>13.23</speed><time>2016-06-30T15:32:36Z</time><pdop>4.0</pdop><geoidheight>53.00</geoidheight><course>84.5</course><type>1</type></trkpt>
      <trkpt lat="40.86016451" lon="-4.34170778"><ele>2431</ele><speed>12.58</speed><time>2016-06-30T15:32:37Z</time><pdop>3.0</pdop><geoidheight>53.00</geoidheight><course>85.1</course><type>1</type></trkpt>
      <trkpt lat="40.86017223" lon="-4.34155894"><ele>2432</ele><speed>13.23</speed><time>2016-06-30T15:32:38Z</time><pdop>3.0</pdop><geoidheight>53.00</geoidheight><course>84.6</course><type>1</type></trkpt>
      <trkpt lat="40.86019054" lon="-4.34140481"><ele>2433</ele><speed>13.45</speed><time>2016-06-30T15:32:39Z</time><pdop>4.0</pdop><geoidheight>53.00</geoidheight><course>83.3</course><type>1</type></trkpt>
      <trkpt lat="40.86022333" lon="-4.34124262"><ele>2435</ele><speed>13.74</speed><time>2016-06-30T15:32:40Z</time><pdop>4.0</pdop><geoidheight>53.00</geoidheight><course>76.8</course><type>1</type></trkpt>
      <trkpt lat="40.86027618" lon="-4.34110514"><ele>2438</ele><speed>13.02</speed><time>2016-06-30T15:32:41Z</time><pdop>4.0</pdop><geoidheight>53.00</geoidheight><course>66.7</course><type>1</type></trkpt>
      <trkpt lat="40.8603375" lon="-4.34098002"><ele>2440</ele><speed>12.29</speed><time>2016-06-30T15:32:42Z</time><pdop>4.0</pdop><geoidheight>53.00</geoidheight><course>59.5</course><type>1</type></trkpt>
      <trkpt lat="40.86039786" lon="-4.34086764"><ele>2443</ele><speed>12.49</speed><time>2016-06-30T15:32:43Z</time><pdop>4.0</pdop><geoidheight>53.00</geoidheight><course>54.3</course><type>1</type></trkpt>
      <trkpt lat="40.86045996" lon="-4.34074985"><ele>2448</ele><speed>12.71</speed><time>2016-06-30T15:32:44Z</time><pdop>3.0</pdop><geoidheight>53.00</geoidheight><course>56.8</course><type>1</type></trkpt>
      <trkpt lat="40.86050929" lon="-4.34062401"><ele>2451</ele><speed>12.61</speed><time>2016-06-30T15:32:45Z</time><pdop>3.0</pdop><geoidheight>53.00</geoidheight><course>61.9</course><type>1</type></trkpt>
      <trkpt lat="40.86056206" lon="-4.34049475"><ele>2454</ele><speed>12.50</speed><time>2016-06-30T15:32:46Z</time><pdop>3.0</pdop><geoidheight>53.00</geoidheight><course>63.0</course><type>1</type></trkpt>
      <trkpt lat="40.86061169" lon="-4.34037128"><ele>2456</ele><speed>11.64</speed><time>2016-06-30T15:32:47Z</time><pdop>3.0</pdop><geoidheight>53.00</geoidheight><course>61.1</course><type>1</type></trkpt>
      <trkpt lat="40.86065384" lon="-4.34025585"><ele>2456</ele><speed>10.84</speed><time>2016-06-30T15:32:48Z</time><pdop>4.0</pdop><geoidheight>53.00</geoidheight><course>59.4</course><type>1</type></trkpt>
      <trkpt lat="40.86074855" lon="-4.34021443"><ele>2457</ele><speed>9.44</speed><time>2016-06-30T15:32:49Z</time><pdop>4.0</pdop><geoidheight>53.00</geoidheight><course>31.2</course><type>1</type></trkpt>
      <trkpt lat="40.86083864" lon="-4.34017137"><ele>2458</ele><speed>9.91</speed><time>2016-06-30T15:32:50Z</time><pdop>4.0</pdop><geoidheight>53.00</geoidheight><course>23.8</course><type>1</type></trkpt>
      <trkpt lat="40.86100426" lon="-4.34022944"><ele>2459</ele><speed>6.61</speed><time>2016-06-30T15:32:53Z</time><pdop>10.0</pdop><geoidheight>53.00</geoidheight><course>350.5</course><type>1</type></trkpt>
      <trkpt lat="40.86078772" lon="-4.34045938"><ele>2461</ele><speed>5.27</speed><time>2016-06-30T15:32:58Z</time><pdop>13.0</pdop><geoidheight>53.00</geoidheight><course>187.7</course><type>1</type></trkpt>
      <trkpt lat="40.86038745" lon="-4.34033325"><ele>2459</ele><speed>14.23</speed><time>2016-06-30T15:33:00Z</time><pdop>11.0</pdop><geoidheight>53.00</geoidheight><course>157.2</course><type>1</type></trkpt>
      <trkpt lat="40.86016575" lon="-4.34011623"><ele>2462</ele><speed>13.72</speed><time>2016-06-30T15:33:02Z</time><pdop>13.0</pdop><geoidheight>53.00</geoidheight><course>148.5</course><type>1</type></trkpt>
      <trkpt lat="40.86008676" lon="-4.33971189"><ele>2469</ele><speed>13.18</speed><time>2016-06-30T15:33:04Z</time><pdop>12.0</pdop><geoidheight>53.00</geoidheight><course>124.4</course><type>1</type></trkpt>
      <trkpt lat="40.86014803" lon="-4.33936464"><ele>2474</ele><speed>11.95</speed><time>2016-06-30T15:33:06Z</time><pdop>11.0</pdop><geoidheight>53.00</geoidheight><course>97.0</course><type>1</type></trkpt>
      <trkpt lat="40.86026069" lon="-4.33905989"><ele>2465</ele><speed>7.87</speed><time>2016-06-30T15:33:09Z</time><pdop>12.0</pdop><geoidheight>53.00</geoidheight><course>80.2</course><type>1</type></trkpt>
      <trkpt lat="40.86053422" lon="-4.33929018"><ele>2480</ele><speed>4.01</speed><time>2016-06-30T15:33:14Z</time><pdop>17.0</pdop><geoidheight>53.00</geoidheight><course>312.6</course><type>1</type></trkpt>
      <trkpt lat="40.86037617" lon="-4.33976708"><ele>2485</ele><speed>7.83</speed><time>2016-06-30T15:33:18Z</time><pdop>21.0</pdop><geoidheight>53.00</geoidheight><course>231.0</course><type>1</type></trkpt>
      <trkpt lat="40.86001015" lon="-4.33980445"><ele>2495</ele><speed>10.73</speed><time>2016-06-30T15:33:21Z</time><pdop>13.0</pdop><geoidheight>53.00</geoidheight><course>178.0</course><type>1</type></trkpt>
      <trkpt lat="40.85977567" lon="-4.33965447"><ele>2501</ele><speed>12.69</speed><time>2016-06-30T15:33:23Z</time><pdop>12.0</pdop><geoidheight>53.00</geoidheight><course>159.5</course><type>1</type></trkpt>
      <trkpt lat="40.85954748" lon="-4.33945149"><ele>2509</ele><speed>13.55</speed><time>2016-06-30T15:33:25Z</time><pdop>11.0</pdop><geoidheight>53.00</geoidheight><course>147.9</course><type>1</type></trkpt>
      <trkpt lat="40.85937393" lon="-4.33915097"><ele>2513</ele><speed>15.25</speed><time>2016-06-30T15:33:27Z</time><pdop>11.0</pdop><geoidheight>53.00</geoidheight><course>131.1</course><type>1</type></trkpt>
      <trkpt lat="40.85928043" lon="-4.33875492"><ele>2520</ele><speed>15.08</speed><time>2016-06-30T15:33:29Z</time><pdop>13.0</pdop><geoidheight>53.00</geoidheight><course>113.9</course><type>1</type></trkpt>
      <trkpt lat="40.85924061" lon="-4.33834263"><ele>2528</ele><speed>14.51</speed><time>2016-06-30T15:33:31Z</time><pdop>13.0</pdop><geoidheight>53.00</geoidheight><course>105.5</course><type>1</type></trkpt>
      <trkpt lat="40.85941885" lon="-4.33807313"><ele>2533</ele><speed>7.90</speed><time>2016-06-30T15:33:34Z</time><pdop>15.0</pdop><geoidheight>53.00</geoidheight><course>70.9</course><type>1</type></trkpt>
      <trkpt lat="40.859787" lon="-4.3382041"><ele>2536</ele><speed>4.55</speed><time>2016-06-30T15:33:39Z</time><pdop>22.0</pdop><geoidheight>53.00</geoidheight><course>341.7</course><type>1</type></trkpt>
      <trkpt lat="40.85950432" lon="-4.33886419"><ele>2547</ele><speed>9.48</speed><time>2016-06-30T15:33:45Z</time><pdop>23.0</pdop><geoidheight>53.00</geoidheight><course>212.7</course><type>1</type></trkpt>
      <trkpt lat="40.85913057" lon="-4.33888157"><ele>2552</ele><speed>9.03</speed><time>2016-06-30T15:33:48Z</time><pdop>17.0</pdop><geoidheight>53.00</geoidheight><course>185.4</course><type>1</type></trkpt>
      <trkpt lat="40.85890862" lon="-4.33848961"><ele>2561</ele><speed>12.24</speed><time>2016-06-30T15:33:50Z</time><pdop>15.0</pdop><geoidheight>53.00</geoidheight><course>139.6</course><type>1</type></trkpt>
      <trkpt lat="40.85878855" lon="-4.33810079"><ele>2566</ele><speed>12.54</speed><time>2016-06-30T15:33:52Z</time><pdop>17.0</pdop><geoidheight>53.00</geoidheight><course>123.8</course><type>1</type></trkpt>
      <trkpt lat="40.8587803" lon="-4.33760314"><ele>2570</ele><speed>14.09</speed><time>2016-06-30T15:33:54Z</time><pdop>13.0</pdop><geoidheight>53.00</geoidheight><course>98.4</course><type>1</type></trkpt>
      <trkpt lat="40.85884497" lon="-4.3372314"><ele>2575</ele><speed>12.28</speed><time>2016-06-30T15:33:56Z</time><pdop>13.0</pdop><geoidheight>53.00</geoidheight><course>85.5</course><type>1</type></trkpt>
      <trkpt lat="40.85898331" lon="-4.33695673"><ele>2584</ele><speed>8.29</speed><time>2016-06-30T15:33:59Z</time><pdop>14.0</pdop><geoidheight>53.00</geoidheight><course>65.0</course><type>1</type></trkpt>
      <trkpt lat="40.85924731" lon="-4.33705727"><ele>2592</ele><speed>3.20</speed><time>2016-06-30T15:34:04Z</time><pdop>15.0</pdop><geoidheight>53.00</geoidheight><course>332.3</course><type>1</type></trkpt>
      <trkpt lat="40.85907752" lon="-4.33735408"><ele>2596</ele><speed>7.28</speed><time>2016-06-30T15:34:06Z</time><pdop>15.0</pdop><geoidheight>53.00</geoidheight><course>220.7</course><type>1</type></trkpt>
      <trkpt lat="40.85882749" lon="-4.33745795"><ele>2602</ele><speed>10.89</speed><time>2016-06-30T15:34:09Z</time><pdop>14.0</pdop><geoidheight>53.00</geoidheight><course>185.9</course><type>1</type></trkpt>
      <trkpt lat="40.85861276" lon="-4.33729652"><ele>2607</ele><speed>14.71</speed><time>2016-06-30T15:34:11Z</time><pdop>12.0</pdop><geoidheight>53.00</geoidheight><course>160.9</course><type>1</type></trkpt>
      <trkpt lat="40.85845035" lon="-4.33710688"><ele>2611</ele><speed>13.03</speed><time>2016-06-30T15:34:13Z</time><pdop>12.0</pdop><geoidheight>53.00</geoidheight><course>148.2</course><type>1</type></trkpt>
      <trkpt lat="40.85838209" lon="-4.3368134"><ele>2613</ele><speed>11.47</speed><time>2016-06-30T15:34:15Z</time><pdop>12.0</pdop><geoidheight>53.00</geoidheight><course>125.9</course><type>1</type></trkpt>
      <trkpt lat="40.85833404" lon="-4.33632219"><ele>2618</ele><speed>15.09</speed><time>2016-06-30T15:34:17Z</time><pdop>13.0</pdop><geoidheight>53.00</geoidheight><course>104.2</course><type>1</type></trkpt>
      <trkpt lat="40.8584353" lon="-4.33589595"><ele>2625</ele><speed>15.54</speed><time>2016-06-30T15:34:19Z</time><pdop>12.0</pdop><geoidheight>53.00</geoidheight><course>81.0</course><type>1</type></trkpt>
      <trkpt lat="40.85853882" lon="-4.33552923"><ele>2637</ele><speed>14.89</speed><time>2016-06-30T15:34:21Z</time><pdop>11.0</pdop><geoidheight>53.00</geoidheight><course>70.5</course><type>1</type></trkpt>
      <trkpt lat="40.85862686" lon="-4.33521227"><ele>2641</ele><speed>13.86</speed><time>2016-06-30T15:34:23Z</time><pdop>12.0</pdop><geoidheight>53.00</geoidheight><course>72.2</course><type>1</type></trkpt>
      <trkpt lat="40.85874222" lon="-4.3348825"><ele>2645</ele><speed>13.86</speed><time>2016-06-30T15:34:25Z</time><pdop>11.0</pdop><geoidheight>53.00</geoidheight><course>66.4</course><type>1</type></trkpt>
      <trkpt lat="40.85887708" lon="-4.33460015"><ele>2650</ele><speed>13.49</speed><time>2016-06-30T15:34:27Z</time><pdop>11.0</pdop><geoidheight>53.00</geoidheight><course>61.0</course><type>1</type></trkpt>
      <trkpt lat="40.85912328" lon="-4.334468"><ele>2655</ele><speed>8.68</speed><time>2016-06-30T15:34:30Z</time><pdop>10.0</pdop><geoidheight>53.00</geoidheight><course>25.3</course><type>1</type></trkpt>
      <trkpt lat="40.85937072" lon="-4.33458744"><ele>2660</ele><speed>7.28</speed><time>2016-06-30T15:34:34Z</time><pdop>13.0</pdop><geoidheight>53.00</geoidheight><course>334.5</course><type>1</type></trkpt>
      <trkpt lat="40.85906245" lon="-4.33494671"><ele>2662</ele><speed>6.92</speed><time>2016-06-30T15:34:38Z</time><pdop>13.0</pdop><geoidheight>53.00</geoidheight><course>217.6</course><type>1</type></trkpt>
      <trkpt lat="40.85884907" lon="-4.33483439"><ele>2663</ele><speed>11.93</speed><time>2016-06-30T15:34:39Z</time><pdop>11.0</pdop><geoidheight>53.00</geoidheight><course>169.5</course><type>1</type></trkpt>
      <trkpt lat="40.85857197" lon="-4.33473626"><ele>2661</ele><speed>13.31</speed><time>2016-06-30T15:34:41Z</time><pdop>11.0</pdop><geoidheight>53.00</geoidheight><course>162.5</course><type>1</type></trkpt>
      <trkpt lat="40.85830569" lon="-4.33452227"><ele>2663</ele><speed>15.03</speed><time>2016-06-30T15:34:43Z</time><pdop>11.0</pdop><geoidheight>53.00</geoidheight><course>153.0</course><type>1</type></trkpt>
      <trkpt lat="40.85819974" lon="-4.33419877"><ele>2666</ele><speed>13.48</speed><time>2016-06-30T15:34:45Z</time><pdop>12.0</pdop><geoidheight>53.00</geoidheight><course>128.1</course><type>1</type></trkpt>
      <trkpt lat="40.85813574" lon="-4.33393753"><ele>2667</ele><speed>15.90</speed><time>2016-06-30T15:34:46Z</time><pdop>11.0</pdop><geoidheight>53.00</geoidheight><course>118.1</course><type>1</type></trkpt>
      <trkpt lat="40.85818707" lon="-4.33347965"><ele>2674</ele><speed>15.12</speed><time>2016-06-30T15:34:48Z</time><pdop>10.0</pdop><geoidheight>53.00</geoidheight><course>91.4</course><type>1</type></trkpt>
      <trkpt lat="40.85822934" lon="-4.33315417"><ele>2678</ele><speed>13.05</speed><time>2016-06-30T15:34:50Z</time><pdop>9.0</pdop><geoidheight>53.00</geoidheight><course>79.8</course><type>1</type></trkpt>
      <trkpt lat="40.85835158" lon="-4.3328505"><ele>2680</ele><speed>13.77</speed><time>2016-06-30T15:34:52Z</time><pdop>9.0</pdop><geoidheight>53.00</geoidheight><course>61.8</course><type>1</type></trkpt>
      <trkpt lat="40.85849765" lon="-4.33259627"><ele>2682</ele><speed>13.77</speed><time>2016-06-30T15:34:54Z</time><pdop>9.0</pdop><geoidheight>53.00</geoidheight><course>52.4</course><type>1</type></trkpt>
      <trkpt lat="40.85868703" lon="-4.33241903"><ele>2684</ele><speed>11.84</speed><time>2016-06-30T15:34:56Z</time><pdop>9.0</pdop><geoidheight>53.00</geoidheight><course>35.4</course><type>1</type></trkpt>
      <trkpt lat="40.85886025" lon="-4.33228503"><ele>2686</ele><speed>10.45</speed><time>2016-06-30T15:34:58Z</time><pdop>9.0</pdop><geoidheight>53.00</geoidheight><course>29.8</course><type>1</type></trkpt>
      <trkpt lat="40.8590214" lon="-4.33220929"><ele>2686</ele><speed>9.36</speed><time>2016-06-30T15:35:00Z</time><pdop>10.0</pdop><geoidheight>53.00</geoidheight><course>20.6</course><type>1</type></trkpt>
      <trkpt lat="40.85919755" lon="-4.33213925"><ele>2689</ele><speed>9.42</speed><time>2016-06-30T15:35:02Z</time><pdop>10.0</pdop><geoidheight>53.00</geoidheight><course>18.1</course><type>1</type></trkpt>
      <trkpt lat="40.85936866" lon="-4.33206296"><ele>2693</ele><speed>8.53</speed><time>2016-06-30T15:35:04Z</time><pdop>9.0</pdop><geoidheight>53.00</geoidheight><course>23.2</course><type>1</type></trkpt>
      <trkpt lat="40.85957512" lon="-4.33189031"><ele>2692</ele><speed>10.34</speed><time>2016-06-30T15:35:07Z</time><pdop>9.0</pdop><geoidheight>53.00</geoidheight><course>36.6</course><type>1</type></trkpt>
      <trkpt lat="40.85973463" lon="-4.33166938"><ele>2692</ele><speed>14.11</speed><time>2016-06-30T15:35:09Z</time><pdop>9.0</pdop><geoidheight>53.00</geoidheight><course>43.1</course><type>1</type></trkpt>
      <trkpt lat="40.85993401" lon="-4.33144612"><ele>2693</ele><speed>14.14</speed><time>2016-06-30T15:35:11Z</time><pdop>9.0</pdop><geoidheight>53.00</geoidheight><course>44.3</course><type>1</type></trkpt>
      <trkpt lat="40.86008541" lon="-4.33122388"><ele>2698</ele><speed>12.26</speed><time>2016-06-30T15:35:13Z</time><pdop>9.0</pdop><geoidheight>53.00</geoidheight><course>48.0</course><type>1</type></trkpt>
      <trkpt lat="40.86021579" lon="-4.33099681"><ele>2595</ele><speed>12.42</speed><time>2016-06-30T15:35:15Z</time><pdop>9.0</pdop><geoidheight>53.00</geoidheight><course>55.3</course><type>1</type></trkpt>
      <trkpt lat="40.86031673" lon="-4.33073951"><ele>2653</ele><speed>12.51</speed><time>2016-06-30T15:35:17Z</time><pdop>9.0</pdop><geoidheight>53.00</geoidheight><course>63.4</course><type>1</type></trkpt>
      <trkpt lat="40.86040217" lon="-4.33046009"><ele>2676</ele><speed>12.98</speed><time>2016-06-30T15:35:19Z</time><pdop>9.0</pdop><geoidheight>53.00</geoidheight><course>68.5</course><type>1</type></trkpt>
      <trkpt lat="40.86045611" lon="-4.33016118"><ele>2680</ele><speed>12.87</speed><time>2016-06-30T15:35:21Z</time><pdop>11.0</pdop><geoidheight>53.00</geoidheight><course>77.5</course><type>1</type></trkpt>
      <trkpt lat="40.86036165" lon="-4.32982705"><ele>2683</ele><speed>13.34</speed><time>2016-06-30T15:35:23Z</time><pdop>11.0</pdop><geoidheight>53.00</geoidheight><course>107.5</course><type>1</type></trkpt>
      <trkpt lat="40.8601666" lon="-4.32954333"><ele>2690</ele><speed>13.48</speed><time>2016-06-30T15:35:25Z</time><pdop>11.0</pdop><geoidheight>53.00</geoidheight><course>122.5</course><type>1</type></trkpt>
      <trkpt lat="40.85999349" lon="-4.3298061"><ele>2696</ele><speed>5.42</speed><time>2016-06-30T15:35:30Z</time><pdop>11.0</pdop><geoidheight>53.00</geoidheight><course>257.4</course><type>1</type></trkpt>
      <trkpt lat="40.86021526" lon="-4.33003775"><ele>2698</ele><speed>7.31</speed><time>2016-06-30T15:35:33Z</time><pdop>11.0</pdop><geoidheight>53.00</geoidheight><course>316.1</course><type>1</type></trkpt>
      <trkpt lat="40.86043273" lon="-4.32990059"><ele>2699</ele><speed>10.21</speed><time>2016-06-30T15:35:35Z</time><pdop>10.0</pdop><geoidheight>53.00</geoidheight><course>18.1</course><type>1</type></trkpt>
      <trkpt lat="40.86063557" lon="-4.32979489"><ele>2705</ele><speed>10.62</speed><time>2016-06-30T15:35:37Z</time><pdop>10.0</pdop><geoidheight>53.00</geoidheight><course>28.7</course><type>1</type></trkpt>
      <trkpt lat="40.86079719" lon="-4.32963193"><ele>2707</ele><speed>11.47</speed><time>2016-06-30T15:35:39Z</time><pdop>10.0</pdop><geoidheight>53.00</geoidheight><course>40.1</course><type>1</type></trkpt>
      <trkpt lat="40.86097882" lon="-4.32948127"><ele>2716</ele><speed>11.48</speed><time>2016-06-30T15:35:41Z</time><pdop>9.0</pdop><geoidheight>53.00</geoidheight><course>32.9</course><type>1</type></trkpt>
      <trkpt lat="40.86113156" lon="-4.32934502"><ele>2719</ele><speed>9.31</speed><time>2016-06-30T15:35:43Z</time><pdop>9.0</pdop><geoidheight>53.00</geoidheight><course>31.6</course><type>1</type></trkpt>
      <trkpt lat="40.86128902" lon="-4.329205"><ele>2721</ele><speed>10.95</speed><time>2016-06-30T15:35:45Z</time><pdop>9.0</pdop><geoidheight>53.00</geoidheight><course>36.7</course><type>1</type></trkpt>
      <trkpt lat="40.86145073" lon="-4.32901068"><ele>2722</ele><speed>12.12</speed><time>2016-06-30T15:35:47Z</time><pdop>9.0</pdop><geoidheight>53.00</geoidheight><course>43.1</course><type>1</type></trkpt>
      <trkpt lat="40.86159567" lon="-4.32881279"><ele>2723</ele><speed>11.25</speed><time>2016-06-30T15:35:49Z</time><pdop>9.0</pdop><geoidheight>53.00</geoidheight><course>47.5</course><type>1</type></trkpt>
      <trkpt lat="40.86174874" lon="-4.32863001"><ele>2726</ele><speed>11.22</speed><time>2016-06-30T15:35:51Z</time><pdop>9.0</pdop><geoidheight>53.00</geoidheight><course>44.5</course><type>1</type></trkpt>
      <trkpt lat="40.86187096" lon="-4.3283971"><ele>2729</ele><speed>13.28</speed><time>2016-06-30T15:35:53Z</time><pdop>9.0</pdop><geoidheight>53.00</geoidheight><course>56.0</course><type>1</type></trkpt>
      <trkpt lat="40.86195484" lon="-4.32806517"><ele>2731</ele><speed>15.30</speed><time>2016-06-30T15:35:55Z</time><pdop>9.0</pdop><geoidheight>53.00</geoidheight><course>78.3</course><type>1</type></trkpt>
      <trkpt lat="40.8618885" lon="-4.32769685"><ele>2731</ele><speed>15.93</speed><time>2016-06-30T15:35:57Z</time><pdop>9.0</pdop><geoidheight>53.00</geoidheight><course>106.3</course><type>1</type></trkpt>
      <trkpt lat="40.86174117" lon="-4.32738455"><ele>2732</ele><speed>15.61</speed><time>2016-06-30T15:35:59Z</time><pdop>9.0</pdop><geoidheight>53.00</geoidheight><course>123.5</course><type>1</type></trkpt>
      <trkpt lat="40.86157824" lon="-4.32717495"><ele>2734</ele><speed>13.21</speed><time>2016-06-30T15:36:01Z</time><pdop>10.0</pdop><geoidheight>53.00</geoidheight><course>135.7</course><type>1</type></trkpt>
      <trkpt lat="40.86138806" lon="-4.3273648"><ele>2733</ele><speed>5.48</speed><time>2016-06-30T15:36:05Z</time><pdop>12.0</pdop><geoidheight>53.00</geoidheight><course>223.4</course><type>1</type></trkpt>
      <trkpt lat="40.86161557" lon="-4.32744373"><ele>2735</ele><speed>6.32</speed><time>2016-06-30T15:36:10Z</time><pdop>10.0</pdop><geoidheight>53.00</geoidheight><course>6.9</course><type>1</type></trkpt>
      <trkpt lat="40.86175455" lon="-4.32725661"><ele>2736</ele><speed>11.07</speed><time>2016-06-30T15:36:12Z</time><pdop>10.0</pdop><geoidheight>53.00</geoidheight><course>40.4</course><type>1</type></trkpt>
      <trkpt lat="40.86190614" lon="-4.32702103"><ele>2737</ele><speed>13.58</speed><time>2016-06-30T15:36:14Z</time><pdop>9.0</pdop><geoidheight>53.00</geoidheight><course>52.0</course><type>1</type></trkpt>
      <trkpt lat="40.86204357" lon="-4.32675209"><ele>2740</ele><speed>14.23</speed><time>2016-06-30T15:36:16Z</time><pdop>9.0</pdop><geoidheight>53.00</geoidheight><course>59.5</course><type>1</type></trkpt>
      <trkpt lat="40.86214923" lon="-4.3264415"><ele>2719</ele><speed>14.61</speed><time>2016-06-30T15:36:18Z</time><pdop>9.0</pdop><geoidheight>53.00</geoidheight><course>72.3</course><type>1</type></trkpt>
      <trkpt lat="40.8621564" lon="-4.32610825"><ele>2728</ele><speed>14.40</speed><time>2016-06-30T15:36:20Z</time><pdop>9.0</pdop><geoidheight>53.00</geoidheight><course>91.9</course><type>1</type></trkpt>
      <trkpt lat="40.86206083" lon="-4.3257989"><ele>2733</ele><speed>14.62</speed><time>2016-06-30T15:36:22Z</time><pdop>9.0</pdop><geoidheight>53.00</geoidheight><course>119.0</course><type>1</type></trkpt>
      <trkpt lat="40.86189934" lon="-4.32555949"><ele>2736</ele><speed>12.89</speed><time>2016-06-30T15:36:24Z</time><pdop>9.0</pdop><geoidheight>53.00</geoidheight><course>132.4</course><type>1</type></trkpt>
      <trkpt lat="40.8617547" lon="-4.32541861"><ele>2740</ele><speed>9.74</speed><time>2016-06-30T15:36:26Z</time><pdop>9.0</pdop><geoidheight>53.00</geoidheight><course>149.6</course><type>1</type></trkpt>
      <trkpt lat="40.86155904" lon="-4.32548259"><ele>2738</ele><speed>7.42</speed><time>2016-06-30T15:36:29Z</time><pdop>9.0</pdop><geoidheight>53.00</geoidheight><course>202.6</course><type>1</type></trkpt>
      <trkpt lat="40.86156046" lon="-4.32569945"><ele>2742</ele><speed>5.47</speed><time>2016-06-30T15:36:32Z</time><pdop>9.0</pdop><geoidheight>53.00</geoidheight><course>282.8</course><type>1</type></trkpt>
      <trkpt lat="40.86179859" lon="-4.32570476"><ele>2745</ele><speed>9.34</speed><time>2016-06-30T15:36:36Z</time><pdop>9.0</pdop><geoidheight>53.00</geoidheight><course>18.5</course><type>1</type></trkpt>
      <trkpt lat="40.8619578" lon="-4.32559916"><ele>2746</ele><speed>9.28</speed><time>2016-06-30T15:36:38Z</time><pdop>9.0</pdop><geoidheight>53.00</geoidheight><course>24.2</course><type>1</type></trkpt>
      <trkpt lat="40.86210194" lon="-4.32547525"><ele>2747</ele><speed>9.79</speed><time>2016-06-30T15:36:40Z</time><pdop>9.0</pdop><geoidheight>53.00</geoidheight><course>36.0</course><type>1</type></trkpt>
      <trkpt lat="40.86225114" lon="-4.32527687"><ele>2745</ele><speed>12.30</speed><time>2016-06-30T15:36:42Z</time><pdop>9.0</pdop><geoidheight>53.00</geoidheight><course>47.0</course><type>1</type></trkpt>
      <trkpt lat="40.86238267" lon="-4.32500456"><ele>2743</ele><speed>14.09</speed><time>2016-06-30T15:36:44Z</time><pdop>9.0</pdop><geoidheight>53.00</geoidheight><course>58.5</course><type>1</type></trkpt>
      <trkpt lat="40.86250625" lon="-4.32470722"><ele>2744</ele><speed>13.92</speed><time>2016-06-30T15:36:46Z</time><pdop>9.0</pdop><geoidheight>53.00</geoidheight><course>61.7</course><type>1</type></trkpt>
      <trkpt lat="40.8626424" lon="-4.32445054"><ele>2742</ele><speed>13.27</speed><time>2016-06-30T15:36:48Z</time><pdop>9.0</pdop><geoidheight>53.00</geoidheight><course>55.7</course><type>1</type></trkpt>
      <trkpt lat="40.86279902" lon="-4.3241696"><ele>2740</ele><speed>15.05</speed><time>2016-06-30T15:36:50Z</time><pdop>9.0</pdop><geoidheight>53.00</geoidheight><course>53.6</course><type>1</type></trkpt>
      <trkpt lat="40.86290317" lon="-4.32399951"><ele>2740</ele><speed>16.91</speed><time>2016-06-30T15:36:51Z</time><pdop>9.0</pdop><geoidheight>53.00</geoidheight><course>53.2</course><type>1</type></trkpt>
      <trkpt lat="40.86299289" lon="-4.3238145"><ele>2739</ele><speed>18.02</speed><time>2016-06-30T15:36:52Z</time><pdop>9.0</pdop><geoidheight>53.00</geoidheight><course>55.6</course><type>1</type></trkpt>
      <trkpt lat="40.86313901" lon="-4.32346854"><ele>2737</ele><speed>16.95</speed><time>2016-06-30T15:36:54Z</time><pdop>9.0</pdop><geoidheight>53.00</geoidheight><course>56.7</course><type>1</type></trkpt>
      <trkpt lat="40.86326855" lon="-4.3231471"><ele>2736</ele><speed>15.06</speed><time>2016-06-30T15:36:56Z</time><pdop>9.0</pdop><geoidheight>53.00</geoidheight><course>62.2</course><type>1</type></trkpt>
      <trkpt lat="40.86340266" lon="-4.32282002"><ele>2733</ele><speed>16.28</speed><time>2016-06-30T15:36:58Z</time><pdop>10.0</pdop><geoidheight>53.00</geoidheight><course>61.6</course><type>1</type></trkpt>
      <trkpt lat="40.86353656" lon="-4.32245765"><ele>2727</ele><speed>16.83</speed><time>2016-06-30T15:37:00Z</time><pdop>10.0</pdop><geoidheight>53.00</geoidheight><course>63.6</course><type>1</type></trkpt>
      <trkpt lat="40.86369607" lon="-4.32213597"><ele>2726</ele><speed>15.82</speed><time>2016-06-30T15:37:02Z</time><pdop>9.0</pdop><geoidheight>53.00</geoidheight><course>59.9</course><type>1</type></trkpt>
      <trkpt lat="40.86382269" lon="-4.32183084"><ele>2721</ele><speed>14.64</speed><time>2016-06-30T15:37:04Z</time><pdop>9.0</pdop><geoidheight>53.00</geoidheight><course>59.6</course><type>1</type></trkpt>
      <trkpt lat="40.86395394" lon="-4.32152583"><ele>2717</ele><speed>15.27</speed><time>2016-06-30T15:37:06Z</time><pdop>9.0</pdop><geoidheight>53.00</geoidheight><course>57.7</course><type>1</type></trkpt>
      <trkpt lat="40.86409821" lon="-4.32123778"><ele>2714</ele><speed>14.50</speed><time>2016-06-30T15:37:08Z</time><pdop>9.0</pdop><geoidheight>53.00</geoidheight><course>53.1</course><type>1</type></trkpt>
      <trkpt lat="40.86426859" lon="-4.32096576"><ele>2711</ele><speed>15.30</speed><time>2016-06-30T15:37:10Z</time><pdop>9.0</pdop><geoidheight>53.00</geoidheight><course>49.9</course><type>1</type></trkpt>
      <trkpt lat="40.86445475" lon="-4.32068404"><ele>2707</ele><speed>15.99</speed><time>2016-06-30T15:37:12Z</time><pdop>9.0</pdop><geoidheight>53.00</geoidheight><course>47.0</course><type>1</type></trkpt>
      <trkpt lat="40.86464915" lon="-4.32040182"><ele>2704</ele><speed>15.69</speed><time>2016-06-30T15:37:14Z</time><pdop>9.0</pdop><geoidheight>53.00</geoidheight><course>48.5</course><type>1</type></trkpt>
      <trkpt lat="40.864826" lon="-4.32011536"><ele>2700</ele><speed>15.64</speed><time>2016-06-30T15:37:16Z</time><pdop>9.0</pdop><geoidheight>53.00</geoidheight><course>52.3</course><type>1</type></trkpt>
      <trkpt lat="40.86497877" lon="-4.31981222"><ele>2699</ele><speed>15.14</speed><time>2016-06-30T15:37:18Z</time><pdop>10.0</pdop><geoidheight>53.00</geoidheight><course>57.1</course><type>1</type></trkpt>
      <trkpt lat="40.86510215" lon="-4.31955414"><ele>2699</ele><speed>13.14</speed><time>2016-06-30T15:37:20Z</time><pdop>9.0</pdop><geoidheight>53.00</geoidheight><course>55.9</course><type>1</type></trkpt>
      <trkpt lat="40.86524088" lon="-4.31933117"><ele>2697</ele><speed>13.14</speed><time>2016-06-30T15:37:22Z</time><pdop>9.0</pdop><geoidheight>53.00</geoidheight><course>49.7</course><type>1</type></trkpt>
      <trkpt lat="40.86539493" lon="-4.31907843"><ele>2695</ele><speed>14.08</speed><time>2016-06-30T15:37:24Z</time><pdop>9.0</pdop><geoidheight>53.00</geoidheight><course>48.8</course><type>1</type></trkpt>
      <trkpt lat="40.86556084" lon="-4.31879705"><ele>2693</ele><speed>14.82</speed><time>2016-06-30T15:37:26Z</time><pdop>9.0</pdop><geoidheight>53.00</geoidheight><course>52.4</course><type>1</type></trkpt>
      <trkpt lat="40.86572696" lon="-4.31851686"><ele>2693</ele><speed>14.67</speed><time>2016-06-30T15:37:28Z</time><pdop>9.0</pdop><geoidheight>53.00</geoidheight><course>53.5</course><type>1</type></trkpt>
      <trkpt lat="40.86587691" lon="-4.31823004"><ele>2693</ele><speed>14.27</speed><time>2016-06-30T15:37:30Z</time><pdop>9.0</pdop><geoidheight>53.00</geoidheight><course>54.2</course><type>1</type></trkpt>
      <trkpt lat="40.86602758" lon="-4.31795807"><ele>2693</ele><speed>14.06</speed><time>2016-06-30T15:37:32Z</time><pdop>10.0</pdop><geoidheight>53.00</geoidheight><course>54.1</course><type>1</type></trkpt>
      <trkpt lat="40.86618643" lon="-4.3176764"><ele>2692</ele><speed>14.37</speed><time>2016-06-30T15:37:34Z</time><pdop>10.0</pdop><geoidheight>53.00</geoidheight><course>55.2</course><type>1</type></trkpt>
      <trkpt lat="40.86633042" lon="-4.31740153"><ele>2688</ele><speed>14.04</speed><time>2016-06-30T15:37:36Z</time><pdop>10.0</pdop><geoidheight>53.00</geoidheight><course>52.1</course><type>1</type></trkpt>
      <trkpt lat="40.86651602" lon="-4.31712604"><ele>2684</ele><speed>16.45</speed><time>2016-06-30T15:37:38Z</time><pdop>10.0</pdop><geoidheight>53.00</geoidheight><course>43.3</course><type>1</type></trkpt>
      <trkpt lat="40.86671213" lon="-4.31682586"><ele>2679</ele><speed>16.77</speed><time>2016-06-30T15:37:40Z</time><pdop>10.0</pdop><geoidheight>53.00</geoidheight><course>48.3</course><type>1</type></trkpt>
      <trkpt lat="40.86687611" lon="-4.31654494"><ele>2676</ele><speed>15.01</speed><time>2016-06-30T15:37:42Z</time><pdop>10.0</pdop><geoidheight>53.00</geoidheight><course>51.0</course><type>1</type></trkpt>
      <trkpt lat="40.86705088" lon="-4.31626544"><ele>2673</ele><speed>14.87</speed><time>2016-06-30T15:37:44Z</time><pdop>10.0</pdop><geoidheight>53.00</geoidheight><course>50.2</course><type>1</type></trkpt>
      <trkpt lat="40.8672317" lon="-4.31598617"><ele>2670</ele><speed>16.09</speed><time>2016-06-30T15:37:46Z</time><pdop>11.0</pdop><geoidheight>53.00</geoidheight><course>47.4</course><type>1</type></trkpt>
      <trkpt lat="40.86738619" lon="-4.3156847"><ele>2663</ele><speed>15.55</speed><time>2016-06-30T15:37:48Z</time><pdop>11.0</pdop><geoidheight>53.00</geoidheight><course>51.7</course><type>1</type></trkpt>
      <trkpt lat="40.86756737" lon="-4.31542118"><ele>2658</ele><speed>14.97</speed><time>2016-06-30T15:37:50Z</time><pdop>10.0</pdop><geoidheight>53.00</geoidheight><course>46.9</course><type>1</type></trkpt>
      <trkpt lat="40.86777172" lon="-4.3151442"><ele>2652</ele><speed>16.84</speed><time>2016-06-30T15:37:52Z</time><pdop>10.0</pdop><geoidheight>53.00</geoidheight><course>46.8</course><type>1</type></trkpt>
      <trkpt lat="40.86793018" lon="-4.314808"><ele>2641</ele><speed>17.69</speed><time>2016-06-30T15:37:54Z</time><pdop>10.0</pdop><geoidheight>53.00</geoidheight><course>54.2</course><type>1</type></trkpt>
      <trkpt lat="40.86811187" lon="-4.31451378"><ele>2638</ele><speed>15.87</speed><time>2016-06-30T15:37:56Z</time><pdop>9.0</pdop><geoidheight>53.00</geoidheight><course>48.3</course><type>1</type></trkpt>
      <trkpt lat="40.86826479" lon="-4.3142608"><ele>2685</ele><speed>13.39</speed><time>2016-06-30T15:37:58Z</time><pdop>9.0</pdop><geoidheight>53.00</geoidheight><course>49.4</course><type>1</type></trkpt>
      <trkpt lat="40.86841823" lon="-4.31402532"><ele>2663</ele><speed>13.16</speed><time>2016-06-30T15:38:00Z</time><pdop>10.0</pdop><geoidheight>53.00</geoidheight><course>48.3</course><type>1</type></trkpt>
      <trkpt lat="40.86860476" lon="-4.3137361"><ele>2661</ele><speed>15.78</speed><time>2016-06-30T15:38:02Z</time><pdop>12.0</pdop><geoidheight>53.00</geoidheight><course>48.6</course><type>1</type></trkpt>
      <trkpt lat="40.86886615" lon="-4.31340299"><ele>2657</ele><speed>18.90</speed><time>2016-06-30T15:38:04Z</time><pdop>13.0</pdop><geoidheight>53.00</geoidheight><course>46.3</course><type>1</type></trkpt>
      <trkpt lat="40.86903031" lon="-4.31306661"><ele>2649</ele><speed>16.72</speed><time>2016-06-30T15:38:06Z</time><pdop>12.0</pdop><geoidheight>53.00</geoidheight><course>50.7</course><type>1</type></trkpt>
      <trkpt lat="40.86919909" lon="-4.31277801"><ele>2640</ele><speed>15.92</speed><time>2016-06-30T15:38:08Z</time><pdop>12.0</pdop><geoidheight>53.00</geoidheight><course>48.8</course><type>1</type></trkpt>
      <trkpt lat="40.86936565" lon="-4.31247719"><ele>2632</ele><speed>16.08</speed><time>2016-06-30T15:38:10Z</time><pdop>11.0</pdop><geoidheight>53.00</geoidheight><course>55.1</course><type>1</type></trkpt>
      <trkpt lat="40.86951643" lon="-4.31217785"><ele>2621</ele><speed>16.04</speed><time>2016-06-30T15:38:12Z</time><pdop>11.0</pdop><geoidheight>53.00</geoidheight><course>52.8</course><type>1</type></trkpt>
      <trkpt lat="40.86968309" lon="-4.31188352"><ele>2612</ele><speed>14.95</speed><time>2016-06-30T15:38:14Z</time><pdop>11.0</pdop><geoidheight>53.00</geoidheight><course>52.9</course><type>1</type></trkpt>
      <trkpt lat="40.86985325" lon="-4.31161086"><ele>2605</ele><speed>15.15</speed><time>2016-06-30T15:38:16Z</time><pdop>11.0</pdop><geoidheight>53.00</geoidheight><course>47.7</course><type>1</type></trkpt>
      <trkpt lat="40.87004268" lon="-4.31134377"><ele>2601</ele><speed>15.98</speed><time>2016-06-30T15:38:18Z</time><pdop>12.0</pdop><geoidheight>53.00</geoidheight><course>46.1</course><type>1</type></trkpt>
      <trkpt lat="40.87025588" lon="-4.31099546"><ele>2594</ele><speed>18.77</speed><time>2016-06-30T15:38:20Z</time><pdop>11.0</pdop><geoidheight>53.00</geoidheight><course>51.2</course><type>1</type></trkpt>
      <trkpt lat="40.87041477" lon="-4.31063803"><ele>2588</ele><speed>17.15</speed><time>2016-06-30T15:38:22Z</time><pdop>11.0</pdop><geoidheight>53.00</geoidheight><course>56.2</course><type>1</type></trkpt>
      <trkpt lat="40.87058482" lon="-4.31032338"><ele>2585</ele><speed>16.93</speed><time>2016-06-30T15:38:24Z</time><pdop>11.0</pdop><geoidheight>53.00</geoidheight><course>53.4</course><type>1</type></trkpt>
      <trkpt lat="40.87075881" lon="-4.30999175"><ele>2578</ele><speed>18.23</speed><time>2016-06-30T15:38:26Z</time><pdop>11.0</pdop><geoidheight>53.00</geoidheight><course>51.5</course><type>1</type></trkpt>
      <trkpt lat="40.87099012" lon="-4.30962627"><ele>2573</ele><speed>19.84</speed><time>2016-06-30T15:38:28Z</time><pdop>11.0</pdop><geoidheight>53.00</geoidheight><course>50.6</course><type>1</type></trkpt>
      <trkpt lat="40.87117013" lon="-4.30926464"><ele>2568</ele><speed>17.97</speed><time>2016-06-30T15:38:30Z</time><pdop>11.0</pdop><geoidheight>53.00</geoidheight><course>51.6</course><type>1</type></trkpt>
      <trkpt lat="40.87136734" lon="-4.30894752"><ele>2565</ele><speed>17.02</speed><time>2016-06-30T15:38:32Z</time><pdop>13.0</pdop><geoidheight>53.00</geoidheight><course>50.3</course><type>1</type></trkpt>
      <trkpt lat="40.87157167" lon="-4.30859381"><ele>2561</ele><speed>18.46</speed><time>2016-06-30T15:38:34Z</time><pdop>13.0</pdop><geoidheight>53.00</geoidheight><course>49.8</course><type>1</type></trkpt>
      <trkpt lat="40.87172485" lon="-4.30826898"><ele>2554</ele><speed>19.22</speed><time>2016-06-30T15:38:36Z</time><pdop>11.0</pdop><geoidheight>53.00</geoidheight><course>48.9</course><type>1</type></trkpt>
      <trkpt lat="40.87190942" lon="-4.30792107"><ele>2548</ele><speed>17.67</speed><time>2016-06-30T15:38:38Z</time><pdop>10.0</pdop><geoidheight>53.00</geoidheight><course>54.7</course><type>1</type></trkpt>
      <trkpt lat="40.87204385" lon="-4.30759645"><ele>2544</ele><speed>15.35</speed><time>2016-06-30T15:38:40Z</time><pdop>10.0</pdop><geoidheight>53.00</geoidheight><course>57.8</course><type>1</type></trkpt>
      <trkpt lat="40.8721629" lon="-4.30728833"><ele>2541</ele><speed>14.66</speed><time>2016-06-30T15:38:42Z</time><pdop>10.0</pdop><geoidheight>53.00</geoidheight><course>60.5</course><type>1</type></trkpt>
      <trkpt lat="40.87226913" lon="-4.30702191"><ele>2536</ele><speed>12.95</speed><time>2016-06-30T15:38:44Z</time><pdop>10.0</pdop><geoidheight>53.00</geoidheight><course>56.7</course><type>1</type></trkpt>
      <trkpt lat="40.87237635" lon="-4.30673876"><ele>2526</ele><speed>15.23</speed><time>2016-06-30T15:38:46Z</time><pdop>10.0</pdop><geoidheight>53.00</geoidheight><course>58.5</course><type>1</type></trkpt>
      <trkpt lat="40.87246955" lon="-4.30641243"><ele>2521</ele><speed>14.79</speed><time>2016-06-30T15:38:48Z</time><pdop>10.0</pdop><geoidheight>53.00</geoidheight><course>64.9</course><type>1</type></trkpt>
      <trkpt lat="40.87256815" lon="-4.30614058"><ele>2518</ele><speed>12.28</speed><time>2016-06-30T15:38:50Z</time><pdop>10.0</pdop><geoidheight>53.00</geoidheight><course>59.5</course><type>1</type></trkpt>
      <trkpt lat="40.8726867" lon="-4.30590524"><ele>2512</ele><speed>12.46</speed><time>2016-06-30T15:38:52Z</time><pdop>10.0</pdop><geoidheight>53.00</geoidheight><course>54.6</course><type>1</type></trkpt>
      <trkpt lat="40.87280021" lon="-4.30563057"><ele>2499</ele><speed>15.47</speed><time>2016-06-30T15:38:54Z</time><pdop>10.0</pdop><geoidheight>53.00</geoidheight><course>59.3</course><type>1</type></trkpt>
      <trkpt lat="40.87295026" lon="-4.3052816"><ele>2486</ele><speed>18.58</speed><time>2016-06-30T15:38:56Z</time><pdop>10.0</pdop><geoidheight>53.00</geoidheight><course>59.3</course><type>1</type></trkpt>
      <trkpt lat="40.87312771" lon="-4.3049164"><ele>2479</ele><speed>18.03</speed><time>2016-06-30T15:38:58Z</time><pdop>12.0</pdop><geoidheight>53.00</geoidheight><course>57.3</course><type>1</type></trkpt>
      <trkpt lat="40.87323401" lon="-4.30460349"><ele>2476</ele><speed>14.40</speed><time>2016-06-30T15:39:00Z</time><pdop>11.0</pdop><geoidheight>53.00</geoidheight><course>58.6</course><type>1</type></trkpt>
      <trkpt lat="40.87341724" lon="-4.30431927"><ele>2473</ele><speed>15.66</speed><time>2016-06-30T15:39:02Z</time><pdop>11.0</pdop><geoidheight>53.00</geoidheight><course>52.8</course><type>1</type></trkpt>
      <trkpt lat="40.87356919" lon="-4.30399384"><ele>2466</ele><speed>17.85</speed><time>2016-06-30T15:39:04Z</time><pdop>11.0</pdop><geoidheight>53.00</geoidheight><course>54.1</course><type>1</type></trkpt>
      <trkpt lat="40.87374924" lon="-4.30366542"><ele>2463</ele><speed>16.68</speed><time>2016-06-30T15:39:06Z</time><pdop>10.0</pdop><geoidheight>53.00</geoidheight><course>51.0</course><type>1</type></trkpt>
      <trkpt lat="40.87391253" lon="-4.30339506"><ele>2462</ele><speed>14.53</speed><time>2016-06-30T15:39:08Z</time><pdop>10.0</pdop><geoidheight>53.00</geoidheight><course>49.4</course><type>1</type></trkpt>
      <trkpt lat="40.87407408" lon="-4.30309701"><ele>2457</ele><speed>16.15</speed><time>2016-06-30T15:39:10Z</time><pdop>10.0</pdop><geoidheight>53.00</geoidheight><course>49.2</course><type>1</type></trkpt>
      <trkpt lat="40.87428299" lon="-4.30277244"><ele>2452</ele><speed>17.84</speed><time>2016-06-30T15:39:12Z</time><pdop>10.0</pdop><geoidheight>53.00</geoidheight><course>48.9</course><type>1</type></trkpt>
      <trkpt lat="40.87445741" lon="-4.30247018"><ele>2450</ele><speed>15.65</speed><time>2016-06-30T15:39:14Z</time><pdop>9.0</pdop><geoidheight>53.00</geoidheight><course>50.0</course><type>1</type></trkpt>
      <trkpt lat="40.87461603" lon="-4.30220231"><ele>2445</ele><speed>14.66</speed><time>2016-06-30T15:39:16Z</time><pdop>10.0</pdop><geoidheight>53.00</geoidheight><course>49.2</course><type>1</type></trkpt>
      <trkpt lat="40.87479444" lon="-4.30191057"><ele>2441</ele><speed>16.41</speed><time>2016-06-30T15:39:18Z</time><pdop>10.0</pdop><geoidheight>53.00</geoidheight><course>49.9</course><type>1</type></trkpt>
      <trkpt lat="40.87499828" lon="-4.30158816"><ele>2438</ele><speed>17.98</speed><time>2016-06-30T15:39:20Z</time><pdop>11.0</pdop><geoidheight>53.00</geoidheight><course>50.2</course><type>1</type></trkpt>
      <trkpt lat="40.87515449" lon="-4.30128595"><ele>2436</ele><speed>15.77</speed><time>2016-06-30T15:39:22Z</time><pdop>11.0</pdop><geoidheight>53.00</geoidheight><course>51.7</course><type>1</type></trkpt>
      <trkpt lat="40.8752751" lon="-4.30101442"><ele>2434</ele><speed>13.64</speed><time>2016-06-30T15:39:24Z</time><pdop>11.0</pdop><geoidheight>53.00</geoidheight><course>53.2</course><type>1</type></trkpt>
      <trkpt lat="40.87540329" lon="-4.3007715"><ele>2430</ele><speed>12.86</speed><time>2016-06-30T15:39:26Z</time><pdop>10.0</pdop><geoidheight>53.00</geoidheight><course>53.0</course><type>1</type></trkpt>
      <trkpt lat="40.87553832" lon="-4.30052179"><ele>2428</ele><speed>12.97</speed><time>2016-06-30T15:39:28Z</time><pdop>10.0</pdop><geoidheight>53.00</geoidheight><course>51.0</course><type>1</type></trkpt>
      <trkpt lat="40.87571643" lon="-4.30025571"><ele>2424</ele><speed>14.99</speed><time>2016-06-30T15:39:30Z</time><pdop>10.0</pdop><geoidheight>53.00</geoidheight><course>48.4</course><type>1</type></trkpt>
      <trkpt lat="40.8759178" lon="-4.29994823"><ele>2419</ele><speed>17.23</speed><time>2016-06-30T15:39:32Z</time><pdop>10.0</pdop><geoidheight>53.00</geoidheight><course>50.0</course><type>1</type></trkpt>
      <trkpt lat="40.87611351" lon="-4.29958052"><ele>2416</ele><speed>19.22</speed><time>2016-06-30T15:39:34Z</time><pdop>10.0</pdop><geoidheight>53.00</geoidheight><course>53.8</course><type>1</type></trkpt>
      <trkpt lat="40.87626325" lon="-4.29925401"><ele>2411</ele><speed>16.46</speed><time>2016-06-30T15:39:36Z</time><pdop>10.0</pdop><geoidheight>53.00</geoidheight><course>52.2</course><type>1</type></trkpt>
      <trkpt lat="40.87643683" lon="-4.29899508"><ele>2408</ele><speed>15.33</speed><time>2016-06-30T15:39:38Z</time><pdop>10.0</pdop><geoidheight>53.00</geoidheight><course>47.1</course><type>1</type></trkpt>
      <trkpt lat="40.8766285" lon="-4.2987161"><ele>2403</ele><speed>16.36</speed><time>2016-06-30T15:39:40Z</time><pdop>10.0</pdop><geoidheight>53.00</geoidheight><course>44.2</course><type>1</type></trkpt>
      <trkpt lat="40.8768793" lon="-4.29838634"><ele>2399</ele><speed>20.07</speed><time>2016-06-30T15:39:42Z</time><pdop>10.0</pdop><geoidheight>53.00</geoidheight><course>44.7</course><type>1</type></trkpt>
      <trkpt lat="40.8770907" lon="-4.29803989"><ele>2395</ele><speed>18.70</speed><time>2016-06-30T15:39:44Z</time><pdop>10.0</pdop><geoidheight>53.00</geoidheight><course>50.2</course><type>1</type></trkpt>
      <trkpt lat="40.87726972" lon="-4.29771528"><ele>2390</ele><speed>16.78</speed><time>2016-06-30T15:39:46Z</time><pdop>10.0</pdop><geoidheight>53.00</geoidheight><course>52.1</course><type>1</type></trkpt>
      <trkpt lat="40.87747322" lon="-4.29741804"><ele>2384</ele><speed>16.90</speed><time>2016-06-30T15:39:48Z</time><pdop>10.0</pdop><geoidheight>53.00</geoidheight><course>46.8</course><type>1</type></trkpt>
      <trkpt lat="40.87767458" lon="-4.29713183"><ele>2380</ele><speed>17.04</speed><time>2016-06-30T15:39:50Z</time><pdop>10.0</pdop><geoidheight>53.00</geoidheight><course>45.3</course><type>1</type></trkpt>
      <trkpt lat="40.87787722" lon="-4.29684227"><ele>2372</ele><speed>16.89</speed><time>2016-06-30T15:39:52Z</time><pdop>10.0</pdop><geoidheight>53.00</geoidheight><course>46.8</course><type>1</type></trkpt>
      <trkpt lat="40.87807087" lon="-4.29655569"><ele>2364</ele><speed>16.29</speed><time>2016-06-30T15:39:54Z</time><pdop>10.0</pdop><geoidheight>53.00</geoidheight><course>46.9</course><type>1</type></trkpt>
      <trkpt lat="40.87825218" lon="-4.29626953"><ele>2358</ele><speed>16.40</speed><time>2016-06-30T15:39:56Z</time><pdop>10.0</pdop><geoidheight>53.00</geoidheight><course>45.5</course><type>1</type></trkpt>
      <trkpt lat="40.8784667" lon="-4.2959766"><ele>2353</ele><speed>17.16</speed><time>2016-06-30T15:39:58Z</time><pdop>11.0</pdop><geoidheight>53.00</geoidheight><course>44.4</course><type>1</type></trkpt>
      <trkpt lat="40.87866118" lon="-4.29568446"><ele>2348</ele><speed>16.45</speed><time>2016-06-30T15:40:00Z</time><pdop>11.0</pdop><geoidheight>53.00</geoidheight><course>47.9</course><type>1</type></trkpt>
      <trkpt lat="40.87884244" lon="-4.29538066"><ele>2344</ele><speed>16.36</speed><time>2016-06-30T15:40:02Z</time><pdop>11.0</pdop><geoidheight>53.00</geoidheight><course>51.4</course><type>1</type></trkpt>
      <trkpt lat="40.87901935" lon="-4.29507373"><ele>2339</ele><speed>16.92</speed><time>2016-06-30T15:40:04Z</time><pdop>11.0</pdop><geoidheight>53.00</geoidheight><course>47.6</course><type>1</type></trkpt>
      <trkpt lat="40.87920475" lon="-4.29478027"><ele>2332</ele><speed>16.72</speed><time>2016-06-30T15:40:06Z</time><pdop>10.0</pdop><geoidheight>53.00</geoidheight><course>47.7</course><type>1</type></trkpt>
      <trkpt lat="40.87937751" lon="-4.29447983"><ele>2326</ele><speed>15.97</speed><time>2016-06-30T15:40:08Z</time><pdop>10.0</pdop><geoidheight>53.00</geoidheight><course>50.4</course><type>1</type></trkpt>
      <trkpt lat="40.87955097" lon="-4.2941736"><ele>2323</ele><speed>16.22</speed><time>2016-06-30T15:40:10Z</time><pdop>10.0</pdop><geoidheight>53.00</geoidheight><course>51.0</course><type>1</type></trkpt>
      <trkpt lat="40.87974179" lon="-4.29386593"><ele>2317</ele><speed>17.24</speed><time>2016-06-30T15:40:12Z</time><pdop>10.0</pdop><geoidheight>53.00</geoidheight><course>49.4</course><type>1</type></trkpt>
      <trkpt lat="40.8799424" lon="-4.29354862"><ele>2314</ele><speed>17.76</speed><time>2016-06-30T15:40:14Z</time><pdop>10.0</pdop><geoidheight>53.00</geoidheight><course>48.6</course><type>1</type></trkpt>
      <trkpt lat="40.88012705" lon="-4.29321537"><ele>2309</ele><speed>18.38</speed><time>2016-06-30T15:40:16Z</time><pdop>10.0</pdop><geoidheight>53.00</geoidheight><course>50.2</course><type>1</type></trkpt>
      <trkpt lat="40.88028187" lon="-4.2928844"><ele>2300</ele><speed>17.22</speed><time>2016-06-30T15:40:18Z</time><pdop>5.0</pdop><geoidheight>53.00</geoidheight><course>54.8</course><type>1</type></trkpt>
      <trkpt lat="40.88037033" lon="-4.29272563"><ele>2299</ele><speed>16.85</speed><time>2016-06-30T15:40:19Z</time><pdop>5.0</pdop><geoidheight>53.00</geoidheight><course>53.1</course><type>1</type></trkpt>
      <trkpt lat="40.8804512" lon="-4.29256363"><ele>2294</ele><speed>17.27</speed><time>2016-06-30T15:40:20Z</time><pdop>4.0</pdop><geoidheight>53.00</geoidheight><course>54.1</course><type>1</type></trkpt>
      <trkpt lat="40.88053556" lon="-4.29239362"><ele>2290</ele><speed>17.45</speed><time>2016-06-30T15:40:21Z</time><pdop>4.0</pdop><geoidheight>53.00</geoidheight><course>54.3</course><type>1</type></trkpt>
      <trkpt lat="40.88063008" lon="-4.29223415"><ele>2287</ele><speed>17.61</speed><time>2016-06-30T15:40:22Z</time><pdop>4.0</pdop><geoidheight>53.00</geoidheight><course>51.1</course><type>1</type></trkpt>
      <trkpt lat="40.88073659" lon="-4.29207857"><ele>2283</ele><speed>17.80</speed><time>2016-06-30T15:40:23Z</time><pdop>3.0</pdop><geoidheight>53.00</geoidheight><course>47.9</course><type>1</type></trkpt>
      <trkpt lat="40.88084567" lon="-4.29192817"><ele>2282</ele><speed>17.76</speed><time>2016-06-30T15:40:24Z</time><pdop>4.0</pdop><geoidheight>53.00</geoidheight><course>46.6</course><type>1</type></trkpt>
      <trkpt lat="40.88095593" lon="-4.29178023"><ele>2281</ele><speed>17.90</speed><time>2016-06-30T15:40:25Z</time><pdop>4.0</pdop><geoidheight>53.00</geoidheight><course>45.5</course><type>1</type></trkpt>
      <trkpt lat="40.88106193" lon="-4.2916413"><ele>2280</ele><speed>17.53</speed><time>2016-06-30T15:40:26Z</time><pdop>4.0</pdop><geoidheight>53.00</geoidheight><course>44.0</course><type>1</type></trkpt>
      <trkpt lat="40.88118681" lon="-4.29150114"><ele>2279</ele><speed>17.65</speed><time>2016-06-30T15:40:27Z</time><pdop>5.0</pdop><geoidheight>53.00</geoidheight><course>42.1</course><type>1</type></trkpt>
      <trkpt lat="40.88130571" lon="-4.29135647"><ele>2277</ele><speed>17.96</speed><time>2016-06-30T15:40:28Z</time><pdop>5.0</pdop><geoidheight>53.00</geoidheight><course>42.2</course><type>1</type></trkpt>
      <trkpt lat="40.88141425" lon="-4.29120719"><ele>2276</ele><speed>17.98</speed><time>2016-06-30T15:40:29Z</time><pdop>5.0</pdop><geoidheight>53.00</geoidheight><course>43.5</course><type>1</type></trkpt>
      <trkpt lat="40.88150496" lon="-4.29106681"><ele>2274</ele><speed>17.42</speed><time>2016-06-30T15:40:30Z</time><pdop>5.0</pdop><geoidheight>53.00</geoidheight><course>43.7</course><type>1</type></trkpt>
      <trkpt lat="40.88160777" lon="-4.29092147"><ele>2271</ele><speed>17.49</speed><time>2016-06-30T15:40:31Z</time><pdop>5.0</pdop><geoidheight>53.00</geoidheight><course>43.1</course><type>1</type></trkpt>
      <trkpt lat="40.88171011" lon="-4.29077735"><ele>2271</ele><speed>17.37</speed><time>2016-06-30T15:40:32Z</time><pdop>6.0</pdop><geoidheight>53.00</geoidheight><course>43.4</course><type>1</type></trkpt>
      <trkpt lat="40.88183119" lon="-4.29064021"><ele>2270</ele><speed>17.56</speed><time>2016-06-30T15:40:33Z</time><pdop>7.0</pdop><geoidheight>53.00</geoidheight><course>42.1</course><type>1</type></trkpt>
      <trkpt lat="40.8819395" lon="-4.2904897"><ele>2268</ele><speed>17.88</speed><time>2016-06-30T15:40:34Z</time><pdop>6.0</pdop><geoidheight>53.00</geoidheight><course>43.4</course><type>1</type></trkpt>
      <trkpt lat="40.88203798" lon="-4.29034041"><ele>2265</ele><speed>17.24</speed><time>2016-06-30T15:40:35Z</time><pdop>6.0</pdop><geoidheight>53.00</geoidheight><course>45.1</course><type>1</type></trkpt>
      <trkpt lat="40.88213871" lon="-4.29018427"><ele>2263</ele><speed>16.99</speed><time>2016-06-30T15:40:36Z</time><pdop>6.0</pdop><geoidheight>53.00</geoidheight><course>45.3</course><type>1</type></trkpt>
      <trkpt lat="40.88224864" lon="-4.29003986"><ele>2261</ele><speed>16.96</speed><time>2016-06-30T15:40:37Z</time><pdop>5.0</pdop><geoidheight>53.00</geoidheight><course>44.4</course><type>1</type></trkpt>
      <trkpt lat="40.88235117" lon="-4.28990494"><ele>2259</ele><speed>16.68</speed><time>2016-06-30T15:40:38Z</time><pdop>5.0</pdop><geoidheight>53.00</geoidheight><course>43.0</course><type>1</type></trkpt>
      <trkpt lat="40.88246036" lon="-4.28977677"><ele>2256</ele><speed>16.39</speed><time>2016-06-30T15:40:39Z</time><pdop>5.0</pdop><geoidheight>53.00</geoidheight><course>42.2</course><type>1</type></trkpt>
      <trkpt lat="40.88257231" lon="-4.2896401"><ele>2254</ele><speed>16.77</speed><time>2016-06-30T15:40:40Z</time><pdop>5.0</pdop><geoidheight>53.00</geoidheight><course>43.1</course><type>1</type></trkpt>
      <trkpt lat="40.88268252" lon="-4.28950251"><ele>2251</ele><speed>17.48</speed><time>2016-06-30T15:40:41Z</time><pdop>6.0</pdop><geoidheight>53.00</geoidheight><course>42.3</course><type>1</type></trkpt>
      <trkpt lat="40.88278869" lon="-4.28935425"><ele>2250</ele><speed>17.68</speed><time>2016-06-30T15:40:42Z</time><pdop>7.0</pdop><geoidheight>53.00</geoidheight><course>44.0</course><type>1</type></trkpt>
      <trkpt lat="40.88291542" lon="-4.28920042"><ele>2248</ele><speed>18.75</speed><time>2016-06-30T15:40:43Z</time><pdop>8.0</pdop><geoidheight>53.00</geoidheight><course>44.0</course><type>1</type></trkpt>
      <trkpt lat="40.88304193" lon="-4.28901459"><ele>2243</ele><speed>20.53</speed><time>2016-06-30T15:40:44Z</time><pdop>7.0</pdop><geoidheight>53.00</geoidheight><course>46.3</course><type>1</type></trkpt>
      <trkpt lat="40.88316151" lon="-4.28882893"><ele>2239</ele><speed>20.92</speed><time>2016-06-30T15:40:45Z</time><pdop>7.0</pdop><geoidheight>53.00</geoidheight><course>47.7</course><type>1</type></trkpt>
      <trkpt lat="40.88328462" lon="-4.28865536"><ele>2233</ele><speed>20.59</speed><time>2016-06-30T15:40:46Z</time><pdop>7.0</pdop><geoidheight>53.00</geoidheight><course>48.4</course><type>1</type></trkpt>
      <trkpt lat="40.88340365" lon="-4.28847021"><ele>2350</ele><speed>20.76</speed><time>2016-06-30T15:40:47Z</time><pdop>7.0</pdop><geoidheight>53.00</geoidheight><course>46.9</course><type>1</type></trkpt>
      <trkpt lat="40.88350025" lon="-4.28828977"><ele>2335</ele><speed>20.56</speed><time>2016-06-30T15:40:48Z</time><pdop>8.0</pdop><geoidheight>53.00</geoidheight><course>47.4</course><type>1</type></trkpt>
      <trkpt lat="40.88360624" lon="-4.28810774"><ele>2320</ele><speed>20.58</speed><time>2016-06-30T15:40:49Z</time><pdop>7.0</pdop><geoidheight>53.00</geoidheight><course>48.9</course><type>1</type></trkpt>
      <trkpt lat="40.88371485" lon="-4.28791159"><ele>2297</ele><speed>21.17</speed><time>2016-06-30T15:40:50Z</time><pdop>7.0</pdop><geoidheight>53.00</geoidheight><course>49.9</course><type>1</type></trkpt>
      <trkpt lat="40.88383546" lon="-4.28772203"><ele>2277</ele><speed>21.69</speed><time>2016-06-30T15:40:51Z</time><pdop>6.0</pdop><geoidheight>53.00</geoidheight><course>49.5</course><type>1</type></trkpt>
      <trkpt lat="40.883946" lon="-4.28753669"><ele>2259</ele><speed>21.21</speed><time>2016-06-30T15:40:52Z</time><pdop>6.0</pdop><geoidheight>53.00</geoidheight><course>48.5</course><type>1</type></trkpt>
      <trkpt lat="40.88404995" lon="-4.28736172"><ele>2248</ele><speed>19.22</speed><time>2016-06-30T15:40:53Z</time><pdop>6.0</pdop><geoidheight>53.00</geoidheight><course>50.2</course><type>1</type></trkpt>
      <trkpt lat="40.88414745" lon="-4.28719888"><ele>2244</ele><speed>17.80</speed><time>2016-06-30T15:40:54Z</time><pdop>6.0</pdop><geoidheight>53.00</geoidheight><course>50.8</course><type>1</type></trkpt>
      <trkpt lat="40.88422787" lon="-4.28703601"><ele>2240</ele><speed>16.87</speed><time>2016-06-30T15:40:55Z</time><pdop>7.0</pdop><geoidheight>53.00</geoidheight><course>52.5</course><type>1</type></trkpt>
      <trkpt lat="40.88429292" lon="-4.28686491"><ele>2234</ele><speed>16.65</speed><time>2016-06-30T15:40:56Z</time><pdop>7.0</pdop><geoidheight>53.00</geoidheight><course>56.0</course><type>1</type></trkpt>
      <trkpt lat="40.88440977" lon="-4.28669465"><ele>2235</ele><speed>18.12</speed><time>2016-06-30T15:40:57Z</time><pdop>8.0</pdop><geoidheight>53.00</geoidheight><course>50.9</course><type>1</type></trkpt>
      <trkpt lat="40.88448731" lon="-4.28651903"><ele>2222</ele><speed>18.78</speed><time>2016-06-30T15:40:58Z</time><pdop>7.0</pdop><geoidheight>53.00</geoidheight><course>53.2</course><type>1</type></trkpt>
      <trkpt lat="40.88458969" lon="-4.28634371"><ele>2213</ele><speed>19.07</speed><time>2016-06-30T15:40:59Z</time><pdop>7.0</pdop><geoidheight>53.00</geoidheight><course>53.2</course><type>1</type></trkpt>
      <trkpt lat="40.88468804" lon="-4.28616834"><ele>2206</ele><speed>19.14</speed><time>2016-06-30T15:41:00Z</time><pdop>7.0</pdop><geoidheight>53.00</geoidheight><course>51.6</course><type>1</type></trkpt>
      <trkpt lat="40.88479064" lon="-4.28600328"><ele>2217</ele><speed>18.19</speed><time>2016-06-30T15:41:01Z</time><pdop>7.0</pdop><geoidheight>53.00</geoidheight><course>51.3</course><type>1</type></trkpt>
      <trkpt lat="40.88488467" lon="-4.28585349"><ele>2209</ele><speed>17.37</speed><time>2016-06-30T15:41:02Z</time><pdop>7.0</pdop><geoidheight>53.00</geoidheight><course>50.5</course><type>1</type></trkpt>
      <trkpt lat="40.88499134" lon="-4.28571048"><ele>2201</ele><speed>17.45</speed><time>2016-06-30T15:41:03Z</time><pdop>6.0</pdop><geoidheight>53.00</geoidheight><course>48.0</course><type>1</type></trkpt>
      <trkpt lat="40.88510714" lon="-4.28555266"><ele>2193</ele><speed>18.30</speed><time>2016-06-30T15:41:04Z</time><pdop>6.0</pdop><geoidheight>53.00</geoidheight><course>47.3</course><type>1</type></trkpt>
      <trkpt lat="40.88520661" lon="-4.28538742"><ele>2186</ele><speed>19.22</speed><time>2016-06-30T15:41:05Z</time><pdop>6.0</pdop><geoidheight>53.00</geoidheight><course>49.7</course><type>1</type></trkpt>
      <trkpt lat="40.88531582" lon="-4.28520525"><ele>2178</ele><speed>19.74</speed><time>2016-06-30T15:41:06Z</time><pdop>6.0</pdop><geoidheight>53.00</geoidheight><course>50.5</course><type>1</type></trkpt>
      <trkpt lat="40.8854228" lon="-4.28503081"><ele>2172</ele><speed>19.37</speed><time>2016-06-30T15:41:07Z</time><pdop>6.0</pdop><geoidheight>53.00</geoidheight><course>49.7</course><type>1</type></trkpt>
      <trkpt lat="40.88553704" lon="-4.28487272"><ele>2166</ele><speed>18.77</speed><time>2016-06-30T15:41:08Z</time><pdop>6.0</pdop><geoidheight>53.00</geoidheight><course>47.0</course><type>1</type></trkpt>
      <trkpt lat="40.88565681" lon="-4.28472988"><ele>2162</ele><speed>18.35</speed><time>2016-06-30T15:41:09Z</time><pdop>6.0</pdop><geoidheight>53.00</geoidheight><course>43.6</course><type>1</type></trkpt>
      <trkpt lat="40.88576468" lon="-4.28458321"><ele>2160</ele><speed>18.02</speed><time>2016-06-30T15:41:10Z</time><pdop>7.0</pdop><geoidheight>53.00</geoidheight><course>43.2</course><type>1</type></trkpt>
      <trkpt lat="40.88589766" lon="-4.2844514"><ele>2156</ele><speed>18.49</speed><time>2016-06-30T15:41:11Z</time><pdop>6.0</pdop><geoidheight>53.00</geoidheight><course>39.8</course><type>1</type></trkpt>
      <trkpt lat="40.88601895" lon="-4.28430265"><ele>2153</ele><speed>18.60</speed><time>2016-06-30T15:41:12Z</time><pdop>7.0</pdop><geoidheight>53.00</geoidheight><course>39.8</course><type>1</type></trkpt>
      <trkpt lat="40.88614907" lon="-4.28415962"><ele>2151</ele><speed>18.66</speed><time>2016-06-30T15:41:13Z</time><pdop>7.0</pdop><geoidheight>53.00</geoidheight><course>39.2</course><type>1</type></trkpt>
      <trkpt lat="40.8862805" lon="-4.28402742"><ele>2147</ele><speed>18.67</speed><time>2016-06-30T15:41:14Z</time><pdop>6.0</pdop><geoidheight>53.00</geoidheight><course>38.6</course><type>1</type></trkpt>
      <trkpt lat="40.88641076" lon="-4.28387895"><ele>2144</ele><speed>18.75</speed><time>2016-06-30T15:41:15Z</time><pdop>6.0</pdop><geoidheight>53.00</geoidheight><course>37.6</course><type>1</type></trkpt>
      <trkpt lat="40.88653239" lon="-4.28374221"><ele>2140</ele><speed>18.17</speed><time>2016-06-30T15:41:16Z</time><pdop>6.0</pdop><geoidheight>53.00</geoidheight><course>39.0</course><type>1</type></trkpt>
      <trkpt lat="40.88665129" lon="-4.28361419"><ele>2137</ele><speed>17.45</speed><time>2016-06-30T15:41:17Z</time><pdop>6.0</pdop><geoidheight>53.00</geoidheight><course>39.4</course><type>1</type></trkpt>
      <trkpt lat="40.88675589" lon="-4.28349207"><ele>2134</ele><speed>16.64</speed><time>2016-06-30T15:41:18Z</time><pdop>6.0</pdop><geoidheight>53.00</geoidheight><course>40.0</course><type>1</type></trkpt>
      <trkpt lat="40.88686282" lon="-4.28336631"><ele>2132</ele><speed>16.58</speed><time>2016-06-30T15:41:19Z</time><pdop>6.0</pdop><geoidheight>53.00</geoidheight><course>39.7</course><type>1</type></trkpt>
      <trkpt lat="40.88703999" lon="-4.2831341"><ele>2129</ele><speed>13.78</speed><time>2016-06-30T15:41:21Z</time><pdop>10.0</pdop><geoidheight>53.00</geoidheight><course>44.6</course><type>1</type></trkpt>
      <trkpt lat="40.88713472" lon="-4.28290608"><ele>2126</ele><speed>11.33</speed><time>2016-06-30T15:41:23Z</time><pdop>10.0</pdop><geoidheight>53.00</geoidheight><course>56.2</course><type>1</type></trkpt>
      <trkpt lat="40.88725553" lon="-4.28258703"><ele>2117</ele><speed>10.72</speed><time>2016-06-30T15:41:26Z</time><pdop>10.0</pdop><geoidheight>53.00</geoidheight><course>56.1</course><type>1</type></trkpt>
      <trkpt lat="40.88741344" lon="-4.2823516"><ele>2111</ele><speed>14.24</speed><time>2016-06-30T15:41:28Z</time><pdop>10.0</pdop><geoidheight>53.00</geoidheight><course>48.2</course><type>1</type></trkpt>
      <trkpt lat="40.88758411" lon="-4.28206681"><ele>2106</ele><speed>14.85</speed><time>2016-06-30T15:41:30Z</time><pdop>10.0</pdop><geoidheight>53.00</geoidheight><course>50.6</course><type>1</type></trkpt>
      <trkpt lat="40.88771957" lon="-4.28181494"><ele>2102</ele><speed>13.22</speed><time>2016-06-30T15:41:32Z</time><pdop>10.0</pdop><geoidheight>53.00</geoidheight><course>53.0</course><type>1</type></trkpt>
      <trkpt lat="40.887879" lon="-4.28157362"><ele>2095</ele><speed>14.17</speed><time>2016-06-30T15:41:34Z</time><pdop>9.0</pdop><geoidheight>53.00</geoidheight><course>46.1</course><type>1</type></trkpt>
      <trkpt lat="40.88810491" lon="-4.28131053"><ele>2088</ele><speed>17.28</speed><time>2016-06-30T15:41:36Z</time><pdop>10.0</pdop><geoidheight>53.00</geoidheight><course>42.3</course><type>1</type></trkpt>
      <trkpt lat="40.88830062" lon="-4.28101859"><ele>2085</ele><speed>16.40</speed><time>2016-06-30T15:41:38Z</time><pdop>10.0</pdop><geoidheight>53.00</geoidheight><course>48.7</course><type>1</type></trkpt>
      <trkpt lat="40.88845196" lon="-4.28074091"><ele>2080</ele><speed>14.65</speed><time>2016-06-30T15:41:40Z</time><pdop>10.0</pdop><geoidheight>53.00</geoidheight><course>49.9</course><type>1</type></trkpt>
      <trkpt lat="40.88863201" lon="-4.28049252"><ele>2090</ele><speed>15.12</speed><time>2016-06-30T15:41:42Z</time><pdop>10.0</pdop><geoidheight>53.00</geoidheight><course>45.7</course><type>1</type></trkpt>
      <trkpt lat="40.88883986" lon="-4.28022354"><ele>2081</ele><speed>16.17</speed><time>2016-06-30T15:41:44Z</time><pdop>10.0</pdop><geoidheight>53.00</geoidheight><course>43.8</course><type>1</type></trkpt>
      <trkpt lat="40.88904999" lon="-4.27998855"><ele>2074</ele><speed>15.26</speed><time>2016-06-30T15:41:46Z</time><pdop>10.0</pdop><geoidheight>53.00</geoidheight><course>38.3</course><type>1</type></trkpt>
      <trkpt lat="40.8892636" lon="-4.27980423"><ele>2070</ele><speed>14.35</speed><time>2016-06-30T15:41:48Z</time><pdop>10.0</pdop><geoidheight>53.00</geoidheight><course>34.0</course><type>1</type></trkpt>
      <trkpt lat="40.88944459" lon="-4.27960129"><ele>2067</ele><speed>13.47</speed><time>2016-06-30T15:41:50Z</time><pdop>11.0</pdop><geoidheight>53.00</geoidheight><course>39.6</course><type>1</type></trkpt>
      <trkpt lat="40.88963354" lon="-4.27928721"><ele>2064</ele><speed>12.69</speed><time>2016-06-30T15:41:53Z</time><pdop>11.0</pdop><geoidheight>53.00</geoidheight><course>46.8</course><type>1</type></trkpt>
      <trkpt lat="40.88977862" lon="-4.2790311"><ele>2061</ele><speed>14.35</speed><time>2016-06-30T15:41:55Z</time><pdop>10.0</pdop><geoidheight>53.00</geoidheight><course>50.1</course><type>1</type></trkpt>
      <trkpt lat="40.88994296" lon="-4.27880175"><ele>2061</ele><speed>12.99</speed><time>2016-06-30T15:41:57Z</time><pdop>10.0</pdop><geoidheight>53.00</geoidheight><course>43.1</course><type>1</type></trkpt>
      <trkpt lat="40.89010593" lon="-4.27866686"><ele>2059</ele><speed>11.34</speed><time>2016-06-30T15:41:59Z</time><pdop>10.0</pdop><geoidheight>53.00</geoidheight><course>32.1</course><type>1</type></trkpt>
      <trkpt lat="40.8903742" lon="-4.27868004"><ele>2058</ele><speed>10.31</speed><time>2016-06-30T15:42:02Z</time><pdop>12.0</pdop><geoidheight>53.00</geoidheight><course>358.2</course><type>1</type></trkpt>
      <trkpt lat="40.8902993" lon="-4.27899266"><ele>2056</ele><speed>3.94</speed><time>2016-06-30T15:42:05Z</time><pdop>13.0</pdop><geoidheight>53.00</geoidheight><course>280.4</course><type>1</type></trkpt>
      <trkpt lat="40.88995461" lon="-4.27899585"><ele>2052</ele><speed>7.63</speed><time>2016-06-30T15:42:08Z</time><pdop>14.0</pdop><geoidheight>53.00</geoidheight><course>173.2</course><type>1</type></trkpt>
      <trkpt lat="40.88975019" lon="-4.27876076"><ele>2048</ele><speed>10.25</speed><time>2016-06-30T15:42:10Z</time><pdop>15.0</pdop><geoidheight>53.00</geoidheight><course>144.4</course><type>1</type></trkpt>
      <trkpt lat="40.88964136" lon="-4.27831143"><ele>2045</ele><speed>12.51</speed><time>2016-06-30T15:42:12Z</time><pdop>13.0</pdop><geoidheight>53.00</geoidheight><course>116.0</course><type>1</type></trkpt>
      <trkpt lat="40.8897556" lon="-4.27796547"><ele>2044</ele><speed>11.71</speed><time>2016-06-30T15:42:14Z</time><pdop>12.0</pdop><geoidheight>53.00</geoidheight><course>71.3</course><type>1</type></trkpt>
      <trkpt lat="40.88988922" lon="-4.2777122"><ele>2037</ele><speed>11.59</speed><time>2016-06-30T15:42:16Z</time><pdop>11.0</pdop><geoidheight>53.00</geoidheight><course>55.3</course><type>1</type></trkpt>
      <trkpt lat="40.89004216" lon="-4.27748878"><ele>2031</ele><speed>12.25</speed><time>2016-06-30T15:42:18Z</time><pdop>11.0</pdop><geoidheight>53.00</geoidheight><course>47.0</course><type>1</type></trkpt>
      <trkpt lat="40.89019082" lon="-4.27724519"><ele>2027</ele><speed>11.83</speed><time>2016-06-30T15:42:20Z</time><pdop>10.0</pdop><geoidheight>53.00</geoidheight><course>50.2</course><type>1</type></trkpt>
      <trkpt lat="40.89034491" lon="-4.27703116"><ele>2027</ele><speed>12.71</speed><time>2016-06-30T15:42:22Z</time><pdop>10.0</pdop><geoidheight>53.00</geoidheight><course>44.7</course><type>1</type></trkpt>
      <trkpt lat="40.89052311" lon="-4.27679715"><ele>2025</ele><speed>12.52</speed><time>2016-06-30T15:42:24Z</time><pdop>10.0</pdop><geoidheight>53.00</geoidheight><course>45.2</course><type>1</type></trkpt>
      <trkpt lat="40.89065644" lon="-4.27658037"><ele>2024</ele><speed>11.23</speed><time>2016-06-30T15:42:26Z</time><pdop>10.0</pdop><geoidheight>53.00</geoidheight><course>51.1</course><type>1</type></trkpt>
      <trkpt lat="40.890778" lon="-4.27636926"><ele>2024</ele><speed>11.13</speed><time>2016-06-30T15:42:28Z</time><pdop>10.0</pdop><geoidheight>53.00</geoidheight><course>51.3</course><type>1</type></trkpt>
      <trkpt lat="40.89090231" lon="-4.27617781"><ele>2023</ele><speed>10.67</speed><time>2016-06-30T15:42:30Z</time><pdop>10.0</pdop><geoidheight>53.00</geoidheight><course>48.6</course><type>1</type></trkpt>
      <trkpt lat="40.89103953" lon="-4.27599448"><ele>2023</ele><speed>10.99</speed><time>2016-06-30T15:42:32Z</time><pdop>9.0</pdop><geoidheight>53.00</geoidheight><course>44.5</course><type>1</type></trkpt>
      <trkpt lat="40.89117974" lon="-4.27578483"><ele>2021</ele><speed>12.03</speed><time>2016-06-30T15:42:34Z</time><pdop>9.0</pdop><geoidheight>53.00</geoidheight><course>48.8</course><type>1</type></trkpt>
      <trkpt lat="40.89133082" lon="-4.27554475"><ele>2018</ele><speed>13.72</speed><time>2016-06-30T15:42:36Z</time><pdop>9.0</pdop><geoidheight>53.00</geoidheight><course>49.1</course><type>1</type></trkpt>
      <trkpt lat="40.89148346" lon="-4.27530618"><ele>2019</ele><speed>12.89</speed><time>2016-06-30T15:42:38Z</time><pdop>9.0</pdop><geoidheight>53.00</geoidheight><course>52.6</course><type>1</type></trkpt>
      <trkpt lat="40.89162069" lon="-4.27507868"><ele>2019</ele><speed>11.83</speed><time>2016-06-30T15:42:40Z</time><pdop>9.0</pdop><geoidheight>53.00</geoidheight><course>51.4</course><type>1</type></trkpt>
      <trkpt lat="40.89176374" lon="-4.27486336"><ele>2018</ele><speed>12.42</speed><time>2016-06-30T15:42:42Z</time><pdop>9.0</pdop><geoidheight>53.00</geoidheight><course>46.5</course><type>1</type></trkpt>
      <trkpt lat="40.89190926" lon="-4.27463398"><ele>2019</ele><speed>12.61</speed><time>2016-06-30T15:42:44Z</time><pdop>9.0</pdop><geoidheight>53.00</geoidheight><course>53.6</course><type>1</type></trkpt>
      <trkpt lat="40.8920536" lon="-4.27438103"><ele>2315</ele><speed>12.89</speed><time>2016-06-30T15:42:46Z</time><pdop>9.0</pdop><geoidheight>53.00</geoidheight><course>53.4</course><type>1</type></trkpt>
      <trkpt lat="40.89221959" lon="-4.27415093"><ele>2190</ele><speed>13.20</speed><time>2016-06-30T15:42:48Z</time><pdop>9.0</pdop><geoidheight>53.00</geoidheight><course>44.5</course><type>1</type></trkpt>
      <trkpt lat="40.89240315" lon="-4.27393866"><ele>2122</ele><speed>13.42</speed><time>2016-06-30T15:42:50Z</time><pdop>9.0</pdop><geoidheight>53.00</geoidheight><course>42.9</course><type>1</type></trkpt>
      <trkpt lat="40.89258397" lon="-4.27370956"><ele>2101</ele><speed>14.38</speed><time>2016-06-30T15:42:52Z</time><pdop>9.0</pdop><geoidheight>53.00</geoidheight><course>43.4</course><type>1</type></trkpt>
      <trkpt lat="40.89279741" lon="-4.27346883"><ele>2084</ele><speed>16.01</speed><time>2016-06-30T15:42:54Z</time><pdop>9.0</pdop><geoidheight>53.00</geoidheight><course>39.2</course><type>1</type></trkpt>
      <trkpt lat="40.89300271" lon="-4.2732338"><ele>2056</ele><speed>14.81</speed><time>2016-06-30T15:42:56Z</time><pdop>9.0</pdop><geoidheight>53.00</geoidheight><course>41.7</course><type>1</type></trkpt>
      <trkpt lat="40.8931737" lon="-4.27298732"><ele>2052</ele><speed>13.93</speed><time>2016-06-30T15:42:58Z</time><pdop>9.0</pdop><geoidheight>53.00</geoidheight><course>47.3</course><type>1</type></trkpt>
      <trkpt lat="40.89343423" lon="-4.27259837"><ele>2264</ele><speed>13.72</speed><time>2016-06-30T15:43:01Z</time><pdop>9.0</pdop><geoidheight>53.00</geoidheight><course>47.4</course><type>1</type></trkpt>
      <trkpt lat="40.89358322" lon="-4.27237122"><ele>2142</ele><speed>12.78</speed><time>2016-06-30T15:43:03Z</time><pdop>9.0</pdop><geoidheight>53.00</geoidheight><course>50.8</course><type>1</type></trkpt>
      <trkpt lat="40.89373298" lon="-4.27212167"><ele>2088</ele><speed>13.76</speed><time>2016-06-30T15:43:05Z</time><pdop>9.0</pdop><geoidheight>53.00</geoidheight><course>50.8</course><type>1</type></trkpt>
      <trkpt lat="40.89388561" lon="-4.27187343"><ele>2054</ele><speed>13.96</speed><time>2016-06-30T15:43:07Z</time><pdop>9.0</pdop><geoidheight>53.00</geoidheight><course>50.8</course><type>1</type></trkpt>
      <trkpt lat="40.89406024" lon="-4.27161812"><ele>2032</ele><speed>15.07</speed><time>2016-06-30T15:43:09Z</time><pdop>9.0</pdop><geoidheight>53.00</geoidheight><course>46.2</course><type>1</type></trkpt>
      <trkpt lat="40.89426638" lon="-4.27135044"><ele>2020</ele><speed>16.45</speed><time>2016-06-30T15:43:11Z</time><pdop>9.0</pdop><geoidheight>53.00</geoidheight><course>45.0</course><type>1</type></trkpt>
      <trkpt lat="40.89449258" lon="-4.27110708"><ele>2013</ele><speed>16.09</speed><time>2016-06-30T15:43:13Z</time><pdop>9.0</pdop><geoidheight>53.00</geoidheight><course>38.8</course><type>1</type></trkpt>
      <trkpt lat="40.8947207" lon="-4.27088864"><ele>2007</ele><speed>16.35</speed><time>2016-06-30T15:43:15Z</time><pdop>9.0</pdop><geoidheight>53.00</geoidheight><course>35.5</course><type>1</type></trkpt>
      <trkpt lat="40.89485248" lon="-4.27076435"><ele>2004</ele><speed>17.43</speed><time>2016-06-30T15:43:16Z</time><pdop>9.0</pdop><geoidheight>53.00</geoidheight><course>36.3</course><type>1</type></trkpt>
      <trkpt lat="40.89499192" lon="-4.27064071"><ele>2003</ele><speed>18.22</speed><time>2016-06-30T15:43:17Z</time><pdop>9.0</pdop><geoidheight>53.00</geoidheight><course>35.2</course><type>1</type></trkpt>
      <trkpt lat="40.89526126" lon="-4.27039972"><ele>2001</ele><speed>18.36</speed><time>2016-06-30T15:43:19Z</time><pdop>9.0</pdop><geoidheight>53.00</geoidheight><course>33.9</course><type>1</type></trkpt>
      <trkpt lat="40.8954004" lon="-4.27028382"><ele>2005</ele><speed>18.03</speed><time>2016-06-30T15:43:20Z</time><pdop>9.0</pdop><geoidheight>53.00</geoidheight><course>33.7</course><type>1</type></trkpt>
      <trkpt lat="40.89566607" lon="-4.27006404"><ele>2006</ele><speed>17.03</speed><time>2016-06-30T15:43:22Z</time><pdop>10.0</pdop><geoidheight>53.00</geoidheight><course>32.9</course><type>1</type></trkpt>
      <trkpt lat="40.89594127" lon="-4.26982439"><ele>2006</ele><speed>18.62</speed><time>2016-06-30T15:43:24Z</time><pdop>10.0</pdop><geoidheight>53.00</geoidheight><course>31.4</course><type>1</type></trkpt>
      <trkpt lat="40.89609346" lon="-4.26969657"><ele>2004</ele><speed>19.61</speed><time>2016-06-30T15:43:25Z</time><pdop>10.0</pdop><geoidheight>53.00</geoidheight><course>31.8</course><type>1</type></trkpt>
      <trkpt lat="40.89634783" lon="-4.26944603"><ele>1996</ele><speed>17.99</speed><time>2016-06-30T15:43:27Z</time><pdop>10.0</pdop><geoidheight>53.00</geoidheight><course>34.4</course><type>1</type></trkpt>
      <trkpt lat="40.89679573" lon="-4.26898581"><ele>2274</ele><speed>15.69</speed><time>2016-06-30T15:43:31Z</time><pdop>10.0</pdop><geoidheight>53.00</geoidheight><course>42.7</course><type>1</type></trkpt>
      <trkpt lat="40.89698255" lon="-4.2687178"><ele>2203</ele><speed>16.96</speed><time>2016-06-30T15:43:33Z</time><pdop>10.0</pdop><geoidheight>53.00</geoidheight><course>41.4</course><type>1</type></trkpt>
      <trkpt lat="40.89720024" lon="-4.26846639"><ele>2133</ele><speed>16.30</speed><time>2016-06-30T15:43:35Z</time><pdop>10.0</pdop><geoidheight>53.00</geoidheight><course>40.7</course><type>1</type></trkpt>
      <trkpt lat="40.8973983" lon="-4.2682582"><ele>2106</ele><speed>14.71</speed><time>2016-06-30T15:43:37Z</time><pdop>10.0</pdop><geoidheight>53.00</geoidheight><course>35.7</course><type>1</type></trkpt>
      <trkpt lat="40.89759803" lon="-4.26806341"><ele>2094</ele><speed>14.35</speed><time>2016-06-30T15:43:39Z</time><pdop>11.0</pdop><geoidheight>53.00</geoidheight><course>34.9</course><type>1</type></trkpt>
      <trkpt lat="40.89782388" lon="-4.2678506"><ele>2069</ele><speed>15.24</speed><time>2016-06-30T15:43:41Z</time><pdop>13.0</pdop><geoidheight>53.00</geoidheight><course>33.3</course><type>1</type></trkpt>
      <trkpt lat="40.89808623" lon="-4.26757745"><ele>2065</ele><speed>17.21</speed><time>2016-06-30T15:43:43Z</time><pdop>13.0</pdop><geoidheight>53.00</geoidheight><course>36.9</course><type>1</type></trkpt>
      <trkpt lat="40.89838744" lon="-4.26724339"><ele>2266</ele><speed>16.05</speed><time>2016-06-30T15:43:46Z</time><pdop>12.0</pdop><geoidheight>53.00</geoidheight><course>37.4</course><type>1</type></trkpt>
      <trkpt lat="40.89860344" lon="-4.26700566"><ele>2206</ele><speed>17.57</speed><time>2016-06-30T15:43:48Z</time><pdop>12.0</pdop><geoidheight>53.00</geoidheight><course>36.2</course><type>1</type></trkpt>
      <trkpt lat="40.89882433" lon="-4.2667316"><ele>2141</ele><speed>17.92</speed><time>2016-06-30T15:43:50Z</time><pdop>12.0</pdop><geoidheight>53.00</geoidheight><course>40.0</course><type>1</type></trkpt>
      <trkpt lat="40.89902722" lon="-4.26645287"><ele>2122</ele><speed>17.34</speed><time>2016-06-30T15:43:52Z</time><pdop>13.0</pdop><geoidheight>53.00</geoidheight><course>40.1</course><type>1</type></trkpt>
      <trkpt lat="40.89924601" lon="-4.26621455"><ele>2124</ele><speed>16.64</speed><time>2016-06-30T15:43:54Z</time><pdop>16.0</pdop><geoidheight>53.00</geoidheight><course>36.9</course><type>1</type></trkpt>
      <trkpt lat="40.89949417" lon="-4.2660478"><ele>2080</ele><speed>17.09</speed><time>2016-06-30T15:43:56Z</time><pdop>14.0</pdop><geoidheight>53.00</geoidheight><course>27.6</course><type>1</type></trkpt>
      <trkpt lat="40.89977719" lon="-4.26582213"><ele>2057</ele><speed>19.64</speed><time>2016-06-30T15:43:58Z</time><pdop>13.0</pdop><geoidheight>53.00</geoidheight><course>28.3</course><type>1</type></trkpt>
      <trkpt lat="40.90007556" lon="-4.26560834"><ele>2032</ele><speed>18.73</speed><time>2016-06-30T15:44:00Z</time><pdop>13.0</pdop><geoidheight>53.00</geoidheight><course>28.2</course><type>1</type></trkpt>
      <trkpt lat="40.90030138" lon="-4.26541681"><ele>2019</ele><speed>14.55</speed><time>2016-06-30T15:44:02Z</time><pdop>13.0</pdop><geoidheight>53.00</geoidheight><course>37.6</course><type>1</type></trkpt>
      <trkpt lat="40.9004563" lon="-4.26512312"><ele>1992</ele><speed>8.18</speed><time>2016-06-30T15:44:05Z</time><pdop>12.0</pdop><geoidheight>53.00</geoidheight><course>56.5</course><type>1</type></trkpt>
      <trkpt lat="40.90057198" lon="-4.26486181"><ele>1965</ele><speed>9.73</speed><time>2016-06-30T15:44:08Z</time><pdop>12.0</pdop><geoidheight>53.00</geoidheight><course>53.0</course><type>1</type></trkpt>
      <trkpt lat="40.90077245" lon="-4.26458214"><ele>1945</ele><speed>9.94</speed><time>2016-06-30T15:44:11Z</time><pdop>12.0</pdop><geoidheight>53.00</geoidheight><course>42.0</course><type>1</type></trkpt>
      <trkpt lat="40.90095866" lon="-4.26436842"><ele>1935</ele><speed>9.27</speed><time>2016-06-30T15:44:14Z</time><pdop>13.0</pdop><geoidheight>53.00</geoidheight><course>40.3</course><type>1</type></trkpt>
      <trkpt lat="40.90118502" lon="-4.26412481"><ele>1924</ele><speed>10.24</speed><time>2016-06-30T15:44:17Z</time><pdop>12.0</pdop><geoidheight>53.00</geoidheight><course>40.0</course><type>1</type></trkpt>
      <trkpt lat="40.90141339" lon="-4.2638635"><ele>1910</ele><speed>9.93</speed><time>2016-06-30T15:44:21Z</time><pdop>12.0</pdop><geoidheight>53.00</geoidheight><course>39.3</course><type>1</type></trkpt>
      <trkpt lat="40.90159288" lon="-4.26367591"><ele>1906</ele><speed>13.75</speed><time>2016-06-30T15:44:23Z</time><pdop>11.0</pdop><geoidheight>53.00</geoidheight><course>37.6</course><type>1</type></trkpt>
      <trkpt lat="40.90175728" lon="-4.26348913"><ele>1903</ele><speed>12.58</speed><time>2016-06-30T15:44:25Z</time><pdop>12.0</pdop><geoidheight>53.00</geoidheight><course>38.3</course><type>1</type></trkpt>
      <trkpt lat="40.90191867" lon="-4.2632886"><ele>1899</ele><speed>8.97</speed><time>2016-06-30T15:44:28Z</time><pdop>11.0</pdop><geoidheight>53.00</geoidheight><course>41.6</course><type>1</type></trkpt>
      <trkpt lat="40.90213535" lon="-4.26302546"><ele>1895</ele><speed>11.27</speed><time>2016-06-30T15:44:31Z</time><pdop>11.0</pdop><geoidheight>53.00</geoidheight><course>41.4</course><type>1</type></trkpt>
      <trkpt lat="40.90226658" lon="-4.26281608"><ele>1898</ele><speed>11.92</speed><time>2016-06-30T15:44:33Z</time><pdop>11.0</pdop><geoidheight>53.00</geoidheight><course>49.7</course><type>1</type></trkpt>
      <trkpt lat="40.90238494" lon="-4.26261985"><ele>1899</ele><speed>11.08</speed><time>2016-06-30T15:44:35Z</time><pdop>10.0</pdop><geoidheight>53.00</geoidheight><course>49.2</course><type>1</type></trkpt>
      <trkpt lat="40.90260547" lon="-4.2623943"><ele>1896</ele><speed>10.35</speed><time>2016-06-30T15:44:38Z</time><pdop>13.0</pdop><geoidheight>53.00</geoidheight><course>29.0</course><type>1</type></trkpt>
      <trkpt lat="40.90277676" lon="-4.26268276"><ele>1896</ele><speed>7.32</speed><time>2016-06-30T15:44:42Z</time><pdop>17.0</pdop><geoidheight>53.00</geoidheight><course>311.1</course><type>1</type></trkpt>
      <trkpt lat="40.90202378" lon="-4.26265952"><ele>2188</ele><speed>10.69</speed><time>2016-06-30T15:44:50Z</time><pdop>14.0</pdop><geoidheight>53.00</geoidheight><course>136.0</course><type>1</type></trkpt>
      <trkpt lat="40.90190444" lon="-4.26231851"><ele>2084</ele><speed>12.11</speed><time>2016-06-30T15:44:52Z</time><pdop>12.0</pdop><geoidheight>53.00</geoidheight><course>113.0</course><type>1</type></trkpt>
      <trkpt lat="40.90186707" lon="-4.26199975"><ele>2008</ele><speed>11.57</speed><time>2016-06-30T15:44:54Z</time><pdop>11.0</pdop><geoidheight>53.00</geoidheight><course>102.2</course><type>1</type></trkpt>
      <trkpt lat="40.90192671" lon="-4.26164448"><ele>1956</ele><speed>9.85</speed><time>2016-06-30T15:44:57Z</time><pdop>10.0</pdop><geoidheight>53.00</geoidheight><course>69.2</course><type>1</type></trkpt>
      <trkpt lat="40.90202959" lon="-4.26139244"><ele>1949</ele><speed>10.75</speed><time>2016-06-30T15:44:59Z</time><pdop>10.0</pdop><geoidheight>53.00</geoidheight><course>60.1</course><type>1</type></trkpt>
      <trkpt lat="40.90215427" lon="-4.26118588"><ele>1947</ele><speed>10.28</speed><time>2016-06-30T15:45:01Z</time><pdop>5.0</pdop><geoidheight>53.00</geoidheight><course>50.4</course><type>1</type></trkpt>
      <trkpt lat="40.90224298" lon="-4.261097"><ele>1950</ele><speed>10.70</speed><time>2016-06-30T15:45:02Z</time><pdop>6.0</pdop><geoidheight>53.00</geoidheight><course>39.1</course><type>1</type></trkpt>
      <trkpt lat="40.90240971" lon="-4.26093795"><ele>1950</ele><speed>10.99</speed><time>2016-06-30T15:45:04Z</time><pdop>6.0</pdop><geoidheight>53.00</geoidheight><course>36.0</course><type>1</type></trkpt>
      <trkpt lat="40.90254291" lon="-4.26074492"><ele>1945</ele><speed>10.51</speed><time>2016-06-30T15:45:06Z</time><pdop>6.0</pdop><geoidheight>53.00</geoidheight><course>46.3</course><type>1</type></trkpt>
      <trkpt lat="40.90265648" lon="-4.26058717"><ele>1948</ele><speed>9.62</speed><time>2016-06-30T15:45:08Z</time><pdop>7.0</pdop><geoidheight>53.00</geoidheight><course>44.9</course><type>1</type></trkpt>
      <trkpt lat="40.90280986" lon="-4.26047501"><ele>1940</ele><speed>9.40</speed><time>2016-06-30T15:45:10Z</time><pdop>6.0</pdop><geoidheight>53.00</geoidheight><course>28.3</course><type>1</type></trkpt>
      <trkpt lat="40.90298048" lon="-4.26044328"><ele>1944</ele><speed>9.46</speed><time>2016-06-30T15:45:12Z</time><pdop>8.0</pdop><geoidheight>53.00</geoidheight><course>10.5</course><type>1</type></trkpt>
      <trkpt lat="40.90317226" lon="-4.26058467"><ele>1946</ele><speed>7.61</speed><time>2016-06-30T15:45:15Z</time><pdop>15.0</pdop><geoidheight>53.00</geoidheight><course>332.9</course><type>1</type></trkpt>
      <trkpt lat="40.90312085" lon="-4.26091267"><ele>1942</ele><speed>5.75</speed><time>2016-06-30T15:45:18Z</time><pdop>13.0</pdop><geoidheight>53.00</geoidheight><course>272.8</course><type>1</type></trkpt>
      <trkpt lat="40.90287932" lon="-4.26092892"><ele>1938</ele><speed>6.50</speed><time>2016-06-30T15:45:20Z</time><pdop>12.0</pdop><geoidheight>53.00</geoidheight><course>193.0</course><type>1</type></trkpt>
      <trkpt lat="40.90261889" lon="-4.26080523"><ele>1933</ele><speed>9.01</speed><time>2016-06-30T15:45:22Z</time><pdop>11.0</pdop><geoidheight>53.00</geoidheight><course>166.5</course><type>1</type></trkpt>
      <trkpt lat="40.90250484" lon="-4.26044405"><ele>1938</ele><speed>10.57</speed><time>2016-06-30T15:45:24Z</time><pdop>13.0</pdop><geoidheight>53.00</geoidheight><course>125.4</course><type>1</type></trkpt>
      <trkpt lat="40.90252134" lon="-4.26016697"><ele>1941</ele><speed>13.02</speed><time>2016-06-30T15:45:25Z</time><pdop>8.0</pdop><geoidheight>53.00</geoidheight><course>93.5</course><type>1</type></trkpt>
      <trkpt lat="40.90255172" lon="-4.25989823"><ele>1945</ele><speed>11.00</speed><time>2016-06-30T15:45:27Z</time><pdop>7.0</pdop><geoidheight>53.00</geoidheight><course>70.6</course><type>1</type></trkpt>
      <trkpt lat="40.9026563" lon="-4.25970463"><ele>1945</ele><speed>10.14</speed><time>2016-06-30T15:45:29Z</time><pdop>6.0</pdop><geoidheight>53.00</geoidheight><course>42.7</course><type>1</type></trkpt>
      <trkpt lat="40.90281902" lon="-4.25959564"><ele>1946</ele><speed>10.34</speed><time>2016-06-30T15:45:31Z</time><pdop>5.0</pdop><geoidheight>53.00</geoidheight><course>23.9</course><type>1</type></trkpt>
      <trkpt lat="40.90291098" lon="-4.25956416"><ele>1948</ele><speed>10.31</speed><time>2016-06-30T15:45:32Z</time><pdop>5.0</pdop><geoidheight>53.00</geoidheight><course>15.4</course><type>1</type></trkpt>
      <trkpt lat="40.90307063" lon="-4.25952587"><ele>1950</ele><speed>8.71</speed><time>2016-06-30T15:45:34Z</time><pdop>6.0</pdop><geoidheight>53.00</geoidheight><course>11.8</course><type>1</type></trkpt>
      <trkpt lat="40.90322108" lon="-4.25947342"><ele>1952</ele><speed>8.25</speed><time>2016-06-30T15:45:36Z</time><pdop>9.0</pdop><geoidheight>53.00</geoidheight><course>16.0</course><type>1</type></trkpt>
      <trkpt lat="40.90332931" lon="-4.25933323"><ele>1949</ele><speed>10.34</speed><time>2016-06-30T15:45:38Z</time><pdop>6.0</pdop><geoidheight>53.00</geoidheight><course>42.1</course><type>1</type></trkpt>
      <trkpt lat="40.9033793" lon="-4.25919826"><ele>1947</ele><speed>11.76</speed><time>2016-06-30T15:45:39Z</time><pdop>5.0</pdop><geoidheight>53.00</geoidheight><course>59.0</course><type>1</type></trkpt>
      <trkpt lat="40.90342287" lon="-4.25906872"><ele>1946</ele><speed>12.20</speed><time>2016-06-30T15:45:40Z</time><pdop>6.0</pdop><geoidheight>53.00</geoidheight><course>63.4</course><type>1</type></trkpt>
      <trkpt lat="40.90343499" lon="-4.2589303"><ele>1946</ele><speed>12.32</speed><time>2016-06-30T15:45:41Z</time><pdop>5.0</pdop><geoidheight>53.00</geoidheight><course>76.3</course><type>1</type></trkpt>
      <trkpt lat="40.90339596" lon="-4.25878707"><ele>1946</ele><speed>12.15</speed><time>2016-06-30T15:45:42Z</time><pdop>6.0</pdop><geoidheight>53.00</geoidheight><course>92.6</course><type>1</type></trkpt>
      <trkpt lat="40.90328253" lon="-4.2586895"><ele>1947</ele><speed>12.91</speed><time>2016-06-30T15:45:43Z</time><pdop>4.0</pdop><geoidheight>53.00</geoidheight><course>126.1</course><type>1</type></trkpt>
      <trkpt lat="40.90321004" lon="-4.25857898"><ele>1949</ele><speed>12.44</speed><time>2016-06-30T15:45:44Z</time><pdop>4.0</pdop><geoidheight>53.00</geoidheight><course>133.0</course><type>1</type></trkpt>
      <trkpt lat="40.90312377" lon="-4.25848308"><ele>1950</ele><speed>12.09</speed><time>2016-06-30T15:45:45Z</time><pdop>4.0</pdop><geoidheight>53.00</geoidheight><course>136.2</course><type>1</type></trkpt>
      <trkpt lat="40.90304218" lon="-4.25838852"><ele>1952</ele><speed>12.23</speed><time>2016-06-30T15:45:46Z</time><pdop>4.0</pdop><geoidheight>53.00</geoidheight><course>137.9</course><type>1</type></trkpt>
      <trkpt lat="40.90295517" lon="-4.25829355"><ele>1952</ele><speed>12.55</speed><time>2016-06-30T15:45:47Z</time><pdop>4.0</pdop><geoidheight>53.00</geoidheight><course>140.2</course><type>1</type></trkpt>
      <trkpt lat="40.90286367" lon="-4.25820901"><ele>1953</ele><speed>12.53</speed><time>2016-06-30T15:45:48Z</time><pdop>4.0</pdop><geoidheight>53.00</geoidheight><course>145.0</course><type>1</type></trkpt>
      <trkpt lat="40.90276609" lon="-4.25815314"><ele>1953</ele><speed>11.66</speed><time>2016-06-30T15:45:49Z</time><pdop>4.0</pdop><geoidheight>53.00</geoidheight><course>156.0</course><type>1</type></trkpt>
      <trkpt lat="40.90267349" lon="-4.25816266"><ele>1953</ele><speed>10.47</speed><time>2016-06-30T15:45:50Z</time><pdop>3.0</pdop><geoidheight>53.00</geoidheight><course>176.7</course><type>1</type></trkpt>
      <trkpt lat="40.90258227" lon="-4.25819739"><ele>1953</ele><speed>10.46</speed><time>2016-06-30T15:45:51Z</time><pdop>3.0</pdop><geoidheight>53.00</geoidheight><course>194.1</course><type>1</type></trkpt>
      <trkpt lat="40.90249217" lon="-4.25824102"><ele>1954</ele><speed>10.72</speed><time>2016-06-30T15:45:52Z</time><pdop>4.0</pdop><geoidheight>53.00</geoidheight><course>199.6</course><type>1</type></trkpt>
      <trkpt lat="40.90243687" lon="-4.2583498"><ele>1953</ele><speed>10.31</speed><time>2016-06-30T15:45:53Z</time><pdop>4.0</pdop><geoidheight>53.00</geoidheight><course>220.6</course><type>1</type></trkpt>
      <trkpt lat="40.9023693" lon="-4.25843453"><ele>1954</ele><speed>10.35</speed><time>2016-06-30T15:45:54Z</time><pdop>6.0</pdop><geoidheight>53.00</geoidheight><course>223.2</course><type>1</type></trkpt>
      <trkpt lat="40.9023707" lon="-4.25870981"><ele>1956</ele><speed>7.29</speed><time>2016-06-30T15:45:57Z</time><pdop>12.0</pdop><geoidheight>53.00</geoidheight><course>262.5</course><type>1</type></trkpt>
      <trkpt lat="40.90263784" lon="-4.25854878"><ele>1957</ele><speed>4.73</speed><time>2016-06-30T15:46:00Z</time><pdop>9.0</pdop><geoidheight>53.00</geoidheight><course>17.2</course><type>1</type></trkpt>
      <trkpt lat="40.90275193" lon="-4.25825933"><ele>1960</ele><speed>10.73</speed><time>2016-06-30T15:46:02Z</time><pdop>6.0</pdop><geoidheight>53.00</geoidheight><course>72.5</course><type>1</type></trkpt>
      <trkpt lat="40.90281522" lon="-4.2579885"><ele>1962</ele><speed>11.31</speed><time>2016-06-30T15:46:04Z</time><pdop>5.0</pdop><geoidheight>53.00</geoidheight><course>88.8</course><type>1</type></trkpt>
      <trkpt lat="40.9027467" lon="-4.25775397"><ele>1963</ele><speed>12.24</speed><time>2016-06-30T15:46:06Z</time><pdop>5.0</pdop><geoidheight>53.00</geoidheight><course>119.8</course><type>1</type></trkpt>
      <trkpt lat="40.90267616" lon="-4.25764808"><ele>1964</ele><speed>12.37</speed><time>2016-06-30T15:46:07Z</time><pdop>5.0</pdop><geoidheight>53.00</geoidheight><course>136.9</course><type>1</type></trkpt>
      <trkpt lat="40.902591" lon="-4.2575774"><ele>1964</ele><speed>11.69</speed><time>2016-06-30T15:46:08Z</time><pdop>4.0</pdop><geoidheight>53.00</geoidheight><course>152.7</course><type>1</type></trkpt>
      <trkpt lat="40.90249268" lon="-4.25752406"><ele>1965</ele><speed>12.09</speed><time>2016-06-30T15:46:09Z</time><pdop>5.0</pdop><geoidheight>53.00</geoidheight><course>156.9</course><type>1</type></trkpt>
      <trkpt lat="40.90235554" lon="-4.25762551"><ele>1965</ele><speed>9.10</speed><time>2016-06-30T15:46:11Z</time><pdop>7.0</pdop><geoidheight>53.00</geoidheight><course>195.0</course><type>1</type></trkpt>
      <trkpt lat="40.9022283" lon="-4.25773507"><ele>1968</ele><speed>8.86</speed><time>2016-06-30T15:46:13Z</time><pdop>6.0</pdop><geoidheight>53.00</geoidheight><course>218.1</course><type>1</type></trkpt>
      <trkpt lat="40.90217804" lon="-4.2579057"><ele>1973</ele><speed>7.88</speed><time>2016-06-30T15:46:15Z</time><pdop>5.0</pdop><geoidheight>53.00</geoidheight><course>255.5</course><type>1</type></trkpt>
      <trkpt lat="40.90216172" lon="-4.25807907"><ele>2173</ele><speed>7.40</speed><time>2016-06-30T15:46:17Z</time><pdop>6.0</pdop><geoidheight>53.00</geoidheight><course>270.5</course><type>1</type></trkpt>
      <trkpt lat="40.90222301" lon="-4.25825674"><ele>2110</ele><speed>7.90</speed><time>2016-06-30T15:46:19Z</time><pdop>6.0</pdop><geoidheight>53.00</geoidheight><course>286.0</course><type>1</type></trkpt>
      <trkpt lat="40.90226355" lon="-4.25839883"><ele>2055</ele><speed>6.28</speed><time>2016-06-30T15:46:21Z</time><pdop>5.0</pdop><geoidheight>53.00</geoidheight><course>299.9</course><type>1</type></trkpt>
      <trkpt lat="40.90238963" lon="-4.25851077"><ele>1995</ele><speed>6.01</speed><time>2016-06-30T15:46:24Z</time><pdop>9.0</pdop><geoidheight>53.00</geoidheight><course>332.4</course><type>1</type></trkpt>
      <trkpt lat="40.90258077" lon="-4.25852828"><ele>1991</ele><speed>8.54</speed><time>2016-06-30T15:46:26Z</time><pdop>9.0</pdop><geoidheight>53.00</geoidheight><course>352.9</course><type>1</type></trkpt>
      <trkpt lat="40.90283819" lon="-4.25834176"><ele>1993</ele><speed>11.50</speed><time>2016-06-30T15:46:28Z</time><pdop>11.0</pdop><geoidheight>53.00</geoidheight><course>17.6</course><type>1</type></trkpt>
      <trkpt lat="40.9030763" lon="-4.25808347"><ele>1991</ele><speed>12.79</speed><time>2016-06-30T15:46:30Z</time><pdop>9.0</pdop><geoidheight>53.00</geoidheight><course>33.5</course><type>1</type></trkpt>
      <trkpt lat="40.90323621" lon="-4.25791558"><ele>1988</ele><speed>10.93</speed><time>2016-06-30T15:46:32Z</time><pdop>8.0</pdop><geoidheight>53.00</geoidheight><course>37.9</course><type>1</type></trkpt>
      <trkpt lat="40.90338998" lon="-4.25776903"><ele>1986</ele><speed>11.23</speed><time>2016-06-30T15:46:34Z</time><pdop>8.0</pdop><geoidheight>53.00</geoidheight><course>36.0</course><type>1</type></trkpt>
      <trkpt lat="40.90354348" lon="-4.25762285"><ele>1985</ele><speed>10.56</speed><time>2016-06-30T15:46:36Z</time><pdop>9.0</pdop><geoidheight>53.00</geoidheight><course>36.3</course><type>1</type></trkpt>
      <trkpt lat="40.9037294" lon="-4.25747581"><ele>1983</ele><speed>11.65</speed><time>2016-06-30T15:46:38Z</time><pdop>8.0</pdop><geoidheight>53.00</geoidheight><course>33.6</course><type>1</type></trkpt>
      <trkpt lat="40.90391132" lon="-4.25724607"><ele>1980</ele><speed>15.17</speed><time>2016-06-30T15:46:40Z</time><pdop>6.0</pdop><geoidheight>53.00</geoidheight><course>43.1</course><type>1</type></trkpt>
      <trkpt lat="40.90401605" lon="-4.25710831"><ele>1980</ele><speed>15.79</speed><time>2016-06-30T15:46:41Z</time><pdop>6.0</pdop><geoidheight>53.00</geoidheight><course>45.5</course><type>1</type></trkpt>
      <trkpt lat="40.90406921" lon="-4.25695442"><ele>1981</ele><speed>15.22</speed><time>2016-06-30T15:46:42Z</time><pdop>6.0</pdop><geoidheight>53.00</geoidheight><course>56.3</course><type>1</type></trkpt>
      <trkpt lat="40.90415974" lon="-4.25668859"><ele>1979</ele><speed>12.29</speed><time>2016-06-30T15:46:44Z</time><pdop>10.0</pdop><geoidheight>53.00</geoidheight><course>60.1</course><type>1</type></trkpt>
      <trkpt lat="40.90426232" lon="-4.25646213"><ele>1978</ele><speed>10.88</speed><time>2016-06-30T15:46:46Z</time><pdop>10.0</pdop><geoidheight>53.00</geoidheight><course>57.8</course><type>1</type></trkpt>
      <trkpt lat="40.90438565" lon="-4.25613704"><ele>1977</ele><speed>10.37</speed><time>2016-06-30T15:46:49Z</time><pdop>11.0</pdop><geoidheight>53.00</geoidheight><course>63.6</course><type>1</type></trkpt>
      <trkpt lat="40.90443278" lon="-4.25586837"><ele>1975</ele><speed>11.78</speed><time>2016-06-30T15:46:51Z</time><pdop>10.0</pdop><geoidheight>53.00</geoidheight><course>67.5</course><type>1</type></trkpt>
      <trkpt lat="40.90456909" lon="-4.25561868"><ele>1974</ele><speed>13.02</speed><time>2016-06-30T15:46:53Z</time><pdop>11.0</pdop><geoidheight>53.00</geoidheight><course>52.3</course><type>1</type></trkpt>
      <trkpt lat="40.90471307" lon="-4.25539807"><ele>1974</ele><speed>11.15</speed><time>2016-06-30T15:46:55Z</time><pdop>12.0</pdop><geoidheight>53.00</geoidheight><course>48.9</course><type>1</type></trkpt>
      <trkpt lat="40.90492432" lon="-4.25510259"><ele>1974</ele><speed>10.75</speed><time>2016-06-30T15:46:59Z</time><pdop>11.0</pdop><geoidheight>53.00</geoidheight><course>50.6</course><type>1</type></trkpt>
      <trkpt lat="40.90508696" lon="-4.25479022"><ele>1987</ele><speed>11.39</speed><time>2016-06-30T15:47:02Z</time><pdop>10.0</pdop><geoidheight>53.00</geoidheight><course>59.5</course><type>1</type></trkpt>
      <trkpt lat="40.90519349" lon="-4.25447224"><ele>1994</ele><speed>10.69</speed><time>2016-06-30T15:47:05Z</time><pdop>10.0</pdop><geoidheight>53.00</geoidheight><course>63.6</course><type>1</type></trkpt>
      <trkpt lat="40.90528115" lon="-4.25422131"><ele>1996</ele><speed>11.92</speed><time>2016-06-30T15:47:07Z</time><pdop>10.0</pdop><geoidheight>53.00</geoidheight><course>68.5</course><type>1</type></trkpt>
      <trkpt lat="40.9053703" lon="-4.25395818"><ele>2002</ele><speed>12.29</speed><time>2016-06-30T15:47:09Z</time><pdop>10.0</pdop><geoidheight>53.00</geoidheight><course>65.3</course><type>1</type></trkpt>
      <trkpt lat="40.90545341" lon="-4.253705"><ele>2008</ele><speed>11.71</speed><time>2016-06-30T15:47:11Z</time><pdop>10.0</pdop><geoidheight>53.00</geoidheight><course>66.9</course><type>1</type></trkpt>
      <trkpt lat="40.90552859" lon="-4.25347879"><ele>2012</ele><speed>10.30</speed><time>2016-06-30T15:47:13Z</time><pdop>10.0</pdop><geoidheight>53.00</geoidheight><course>65.0</course><type>1</type></trkpt>
      <trkpt lat="40.90566139" lon="-4.25322263"><ele>2014</ele><speed>8.40</speed><time>2016-06-30T15:47:16Z</time><pdop>11.0</pdop><geoidheight>53.00</geoidheight><course>53.1</course><type>1</type></trkpt>
      <trkpt lat="40.90579952" lon="-4.25298231"><ele>2017</ele><speed>8.50</speed><time>2016-06-30T15:47:19Z</time><pdop>11.0</pdop><geoidheight>53.00</geoidheight><course>58.2</course><type>1</type></trkpt>
      <trkpt lat="40.90598017" lon="-4.25271328"><ele>2032</ele><speed>10.03</speed><time>2016-06-30T15:47:22Z</time><pdop>11.0</pdop><geoidheight>53.00</geoidheight><course>58.6</course><type>1</type></trkpt>
      <trkpt lat="40.90599675" lon="-4.2523372"><ele>2042</ele><speed>12.79</speed><time>2016-06-30T15:47:25Z</time><pdop>10.0</pdop><geoidheight>53.00</geoidheight><course>91.4</course><type>1</type></trkpt>
      <trkpt lat="40.90591286" lon="-4.25203295"><ele>2048</ele><speed>15.00</speed><time>2016-06-30T15:47:27Z</time><pdop>9.0</pdop><geoidheight>53.00</geoidheight><course>120.7</course><type>1</type></trkpt>
      <trkpt lat="40.90571543" lon="-4.25185444"><ele>2054</ele><speed>13.59</speed><time>2016-06-30T15:47:29Z</time><pdop>9.0</pdop><geoidheight>53.00</geoidheight><course>154.3</course><type>1</type></trkpt>
      <trkpt lat="40.90548853" lon="-4.25177197"><ele>2055</ele><speed>13.20</speed><time>2016-06-30T15:47:31Z</time><pdop>10.0</pdop><geoidheight>53.00</geoidheight><course>165.1</course><type>1</type></trkpt>
      <trkpt lat="40.90532982" lon="-4.25201063"><ele>2060</ele><speed>8.41</speed><time>2016-06-30T15:47:34Z</time><pdop>10.0</pdop><geoidheight>53.00</geoidheight><course>215.9</course><type>1</type></trkpt>
      <trkpt lat="40.90525841" lon="-4.25225555"><ele>2035</ele><speed>3.76</speed><time>2016-06-30T15:47:39Z</time><pdop>12.0</pdop><geoidheight>53.00</geoidheight><course>256.3</course><type>1</type></trkpt>
      <trkpt lat="40.9055032" lon="-4.2522034"><ele>2052</ele><speed>5.84</speed><time>2016-06-30T15:47:42Z</time><pdop>11.0</pdop><geoidheight>53.00</geoidheight><course>356.3</course><type>1</type></trkpt>
      <trkpt lat="40.90564441" lon="-4.25199568"><ele>2064</ele><speed>7.55</speed><time>2016-06-30T15:47:45Z</time><pdop>12.0</pdop><geoidheight>53.00</geoidheight><course>66.4</course><type>1</type></trkpt>
      <trkpt lat="40.9056726" lon="-4.25157256"><ele>2075</ele><speed>11.74</speed><time>2016-06-30T15:47:48Z</time><pdop>12.0</pdop><geoidheight>53.00</geoidheight><course>95.1</course><type>1</type></trkpt>
      <trkpt lat="40.90541904" lon="-4.25139136"><ele>2085</ele><speed>10.33</speed><time>2016-06-30T15:47:51Z</time><pdop>12.0</pdop><geoidheight>53.00</geoidheight><course>151.4</course><type>1</type></trkpt>
      <trkpt lat="40.90516733" lon="-4.25159855"><ele>2095</ele><speed>9.97</speed><time>2016-06-30T15:47:54Z</time><pdop>11.0</pdop><geoidheight>53.00</geoidheight><course>220.4</course><type>1</type></trkpt>
      <trkpt lat="40.90507276" lon="-4.25186045"><ele>2116</ele><speed>9.05</speed><time>2016-06-30T15:47:57Z</time><pdop>10.0</pdop><geoidheight>53.00</geoidheight><course>254.5</course><type>1</type></trkpt>
      <trkpt lat="40.90505797" lon="-4.2521262"><ele>2131</ele><speed>8.43</speed><time>2016-06-30T15:48:00Z</time><pdop>10.0</pdop><geoidheight>53.00</geoidheight><course>269.4</course><type>1</type></trkpt>
      <trkpt lat="40.90511674" lon="-4.25236456"><ele>2161</ele><speed>5.37</speed><time>2016-06-30T15:48:04Z</time><pdop>11.0</pdop><geoidheight>53.00</geoidheight><course>288.2</course><type>1</type></trkpt>
      <trkpt lat="40.90524674" lon="-4.25212647"><ele>2178</ele><speed>7.35</speed><time>2016-06-30T15:48:10Z</time><pdop>12.0</pdop><geoidheight>53.00</geoidheight><course>71.6</course><type>1</type></trkpt>
      <trkpt lat="40.90525438" lon="-4.25178306"><ele>2181</ele><speed>11.43</speed><time>2016-06-30T15:48:12Z</time><pdop>12.0</pdop><geoidheight>53.00</geoidheight><course>90.4</course><type>1</type></trkpt>
      <trkpt lat="40.90514399" lon="-4.25145632"><ele>2184</ele><speed>12.78</speed><time>2016-06-30T15:48:14Z</time><pdop>12.0</pdop><geoidheight>53.00</geoidheight><course>111.5</course><type>1</type></trkpt>
      <trkpt lat="40.90500216" lon="-4.25120346"><ele>2187</ele><speed>12.40</speed><time>2016-06-30T15:48:16Z</time><pdop>14.0</pdop><geoidheight>53.00</geoidheight><course>119.5</course><type>1</type></trkpt>
      <trkpt lat="40.90483866" lon="-4.25153683"><ele>2205</ele><speed>2.26</speed><time>2016-06-30T15:48:25Z</time><pdop>16.0</pdop><geoidheight>53.00</geoidheight><course>343.2</course><type>1</type></trkpt>
      <trkpt lat="40.90492613" lon="-4.25115849"><ele>2227</ele><speed>11.07</speed><time>2016-06-30T15:48:29Z</time><pdop>11.0</pdop><geoidheight>53.00</geoidheight><course>70.0</course><type>1</type></trkpt>
      <trkpt lat="40.90503435" lon="-4.25087728"><ele>2238</ele><speed>12.65</speed><time>2016-06-30T15:48:31Z</time><pdop>11.0</pdop><geoidheight>53.00</geoidheight><course>75.0</course><type>1</type></trkpt>
      <trkpt lat="40.90512382" lon="-4.25054184"><ele>2249</ele><speed>14.02</speed><time>2016-06-30T15:48:33Z</time><pdop>11.0</pdop><geoidheight>53.00</geoidheight><course>87.5</course><type>1</type></trkpt>
      <trkpt lat="40.90516956" lon="-4.25018209"><ele>2258</ele><speed>10.28</speed><time>2016-06-30T15:48:36Z</time><pdop>15.0</pdop><geoidheight>53.00</geoidheight><course>89.0</course><type>1</type></trkpt>
      <trkpt lat="40.90479648" lon="-4.25023825"><ele>2266</ele><speed>10.57</speed><time>2016-06-30T15:48:39Z</time><pdop>15.0</pdop><geoidheight>53.00</geoidheight><course>175.3</course><type>1</type></trkpt>
      <trkpt lat="40.90450816" lon="-4.25033647"><ele>2275</ele><speed>10.79</speed><time>2016-06-30T15:48:42Z</time><pdop>15.0</pdop><geoidheight>53.00</geoidheight><course>196.1</course><type>1</type></trkpt>
      <trkpt lat="40.90449774" lon="-4.25080215"><ele>2291</ele><speed>7.74</speed><time>2016-06-30T15:48:46Z</time><pdop>15.0</pdop><geoidheight>53.00</geoidheight><course>261.3</course><type>1</type></trkpt>
      <trkpt lat="40.90477385" lon="-4.2508812"><ele>2314</ele><speed>9.54</speed><time>2016-06-30T15:48:48Z</time><pdop>10.0</pdop><geoidheight>53.00</geoidheight><course>337.2</course><type>1</type></trkpt>
      <trkpt lat="40.9049776" lon="-4.25089031"><ele>2332</ele><speed>7.89</speed><time>2016-06-30T15:48:51Z</time><pdop>8.0</pdop><geoidheight>53.00</geoidheight><course>4.7</course><type>1</type></trkpt>
      <trkpt lat="40.90514996" lon="-4.25075246"><ele>2339</ele><speed>11.63</speed><time>2016-06-30T15:48:53Z</time><pdop>8.0</pdop><geoidheight>53.00</geoidheight><course>39.7</course><type>1</type></trkpt>
      <trkpt lat="40.90534154" lon="-4.2505444"><ele>2350</ele><speed>12.11</speed><time>2016-06-30T15:48:55Z</time><pdop>7.0</pdop><geoidheight>53.00</geoidheight><course>46.9</course><type>1</type></trkpt>
      <trkpt lat="40.90547568" lon="-4.25034062"><ele>2363</ele><speed>11.36</speed><time>2016-06-30T15:48:57Z</time><pdop>6.0</pdop><geoidheight>53.00</geoidheight><course>56.8</course><type>1</type></trkpt>
      <trkpt lat="40.90557938" lon="-4.25011699"><ele>2375</ele><speed>11.10</speed><time>2016-06-30T15:48:59Z</time><pdop>6.0</pdop><geoidheight>53.00</geoidheight><course>66.2</course><type>1</type></trkpt>
      <trkpt lat="40.90567719" lon="-4.24988711"><ele>2230</ele><speed>11.67</speed><time>2016-06-30T15:49:01Z</time><pdop>5.0</pdop><geoidheight>53.00</geoidheight><course>60.6</course><type>1</type></trkpt>
      <trkpt lat="40.90574565" lon="-4.2497637"><ele>2256</ele><speed>11.84</speed><time>2016-06-30T15:49:02Z</time><pdop>6.0</pdop><geoidheight>53.00</geoidheight><course>58.2</course><type>1</type></trkpt>
      <trkpt lat="40.90585587" lon="-4.24951536"><ele>2313</ele><speed>12.07</speed><time>2016-06-30T15:49:04Z</time><pdop>5.0</pdop><geoidheight>53.00</geoidheight><course>59.5</course><type>1</type></trkpt>
      <trkpt lat="40.90591561" lon="-4.24939334"><ele>2329</ele><speed>11.87</speed><time>2016-06-30T15:49:05Z</time><pdop>5.0</pdop><geoidheight>53.00</geoidheight><course>60.2</course><type>1</type></trkpt>
      <trkpt lat="40.90596839" lon="-4.24927504"><ele>2346</ele><speed>11.94</speed><time>2016-06-30T15:49:06Z</time><pdop>5.0</pdop><geoidheight>53.00</geoidheight><course>60.2</course><type>1</type></trkpt>
      <trkpt lat="40.90602438" lon="-4.2491511"><ele>2360</ele><speed>12.12</speed><time>2016-06-30T15:49:07Z</time><pdop>5.0</pdop><geoidheight>53.00</geoidheight><course>61.7</course><type>1</type></trkpt>
      <trkpt lat="40.90608339" lon="-4.24901826"><ele>2372</ele><speed>12.41</speed><time>2016-06-30T15:49:08Z</time><pdop>5.0</pdop><geoidheight>53.00</geoidheight><course>63.8</course><type>1</type></trkpt>
      <trkpt lat="40.90613253" lon="-4.24888189"><ele>2386</ele><speed>13.07</speed><time>2016-06-30T15:49:09Z</time><pdop>5.0</pdop><geoidheight>53.00</geoidheight><course>64.6</course><type>1</type></trkpt>
      <trkpt lat="40.90619439" lon="-4.24872974"><ele>2393</ele><speed>14.14</speed><time>2016-06-30T15:49:10Z</time><pdop>5.0</pdop><geoidheight>53.00</geoidheight><course>65.4</course><type>1</type></trkpt>
      <trkpt lat="40.90624941" lon="-4.24856409"><ele>2398</ele><speed>15.08</speed><time>2016-06-30T15:49:11Z</time><pdop>5.0</pdop><geoidheight>53.00</geoidheight><course>68.4</course><type>1</type></trkpt>
      <trkpt lat="40.90630349" lon="-4.24839105"><ele>2403</ele><speed>15.34</speed><time>2016-06-30T15:49:12Z</time><pdop>5.0</pdop><geoidheight>53.00</geoidheight><course>69.1</course><type>1</type></trkpt>
      <trkpt lat="40.9063608" lon="-4.24822528"><ele>2405</ele><speed>15.18</speed><time>2016-06-30T15:49:13Z</time><pdop>6.0</pdop><geoidheight>53.00</geoidheight><course>67.8</course><type>1</type></trkpt>
      <trkpt lat="40.90640066" lon="-4.24804461"><ele>2409</ele><speed>15.33</speed><time>2016-06-30T15:49:14Z</time><pdop>8.0</pdop><geoidheight>53.00</geoidheight><course>71.2</course><type>1</type></trkpt>
      <trkpt lat="40.90647042" lon="-4.24777088"><ele>2417</ele><speed>12.23</speed><time>2016-06-30T15:49:16Z</time><pdop>7.0</pdop><geoidheight>53.00</geoidheight><course>73.8</course><type>1</type></trkpt>
      <trkpt lat="40.90657947" lon="-4.24747116"><ele>2424</ele><speed>14.00</speed><time>2016-06-30T15:49:18Z</time><pdop>7.0</pdop><geoidheight>53.00</geoidheight><course>68.2</course><type>1</type></trkpt>
      <trkpt lat="40.90663665" lon="-4.2473026"><ele>2260</ele><speed>15.88</speed><time>2016-06-30T15:49:19Z</time><pdop>6.0</pdop><geoidheight>53.00</geoidheight><course>68.4</course><type>1</type></trkpt>
      <trkpt lat="40.90669039" lon="-4.24711295"><ele>2280</ele><speed>16.77</speed><time>2016-06-30T15:49:20Z</time><pdop>7.0</pdop><geoidheight>53.00</geoidheight><course>70.7</course><type>1</type></trkpt>
      <trkpt lat="40.90678057" lon="-4.24674134"><ele>2333</ele><speed>16.04</speed><time>2016-06-30T15:49:22Z</time><pdop>11.0</pdop><geoidheight>53.00</geoidheight><course>71.5</course><type>1</type></trkpt>
      <trkpt lat="40.90686914" lon="-4.24642372"><ele>2365</ele><speed>13.85</speed><time>2016-06-30T15:49:24Z</time><pdop>11.0</pdop><geoidheight>53.00</geoidheight><course>73.5</course><type>1</type></trkpt>
      <trkpt lat="40.90698705" lon="-4.2460984"><ele>2389</ele><speed>15.07</speed><time>2016-06-30T15:49:26Z</time><pdop>11.0</pdop><geoidheight>53.00</geoidheight><course>66.8</course><type>1</type></trkpt>
      <trkpt lat="40.9071265" lon="-4.24573398"><ele>2401</ele><speed>17.51</speed><time>2016-06-30T15:49:28Z</time><pdop>12.0</pdop><geoidheight>53.00</geoidheight><course>67.2</course><type>1</type></trkpt>
      <trkpt lat="40.90728575" lon="-4.24533187"><ele>2426</ele><speed>17.69</speed><time>2016-06-30T15:49:30Z</time><pdop>10.0</pdop><geoidheight>53.00</geoidheight><course>67.4</course><type>1</type></trkpt>
      <trkpt lat="40.90734584" lon="-4.24497678"><ele>2431</ele><speed>16.11</speed><time>2016-06-30T15:49:32Z</time><pdop>10.0</pdop><geoidheight>53.00</geoidheight><course>74.7</course><type>1</type></trkpt>
      <trkpt lat="40.90745035" lon="-4.24462906"><ele>2436</ele><speed>15.20</speed><time>2016-06-30T15:49:34Z</time><pdop>10.0</pdop><geoidheight>53.00</geoidheight><course>69.9</course><type>1</type></trkpt>
      <trkpt lat="40.9075873" lon="-4.24429349"><ele>2443</ele><speed>16.36</speed><time>2016-06-30T15:49:36Z</time><pdop>10.0</pdop><geoidheight>53.00</geoidheight><course>59.7</course><type>1</type></trkpt>
      <trkpt lat="40.90774656" lon="-4.24395493"><ele>2445</ele><speed>16.97</speed><time>2016-06-30T15:49:38Z</time><pdop>10.0</pdop><geoidheight>53.00</geoidheight><course>57.7</course><type>1</type></trkpt>
      <trkpt lat="40.90789228" lon="-4.24361962"><ele>2453</ele><speed>16.08</speed><time>2016-06-30T15:49:40Z</time><pdop>10.0</pdop><geoidheight>53.00</geoidheight><course>60.9</course><type>1</type></trkpt>
      <trkpt lat="40.90803492" lon="-4.24332112"><ele>2459</ele><speed>14.32</speed><time>2016-06-30T15:49:42Z</time><pdop>10.0</pdop><geoidheight>53.00</geoidheight><course>58.3</course><type>1</type></trkpt>
      <trkpt lat="40.90818743" lon="-4.2430262"><ele>2462</ele><speed>15.29</speed><time>2016-06-30T15:49:44Z</time><pdop>9.0</pdop><geoidheight>53.00</geoidheight><course>58.7</course><type>1</type></trkpt>
      <trkpt lat="40.90834181" lon="-4.24266837"><ele>2420</ele><speed>17.11</speed><time>2016-06-30T15:49:46Z</time><pdop>9.0</pdop><geoidheight>53.00</geoidheight><course>62.2</course><type>1</type></trkpt>
      <trkpt lat="40.90846748" lon="-4.24229997"><ele>2443</ele><speed>17.09</speed><time>2016-06-30T15:49:48Z</time><pdop>10.0</pdop><geoidheight>53.00</geoidheight><course>65.9</course><type>1</type></trkpt>
      <trkpt lat="40.90857585" lon="-4.24193617"><ele>2458</ele><speed>15.65</speed><time>2016-06-30T15:49:50Z</time><pdop>9.0</pdop><geoidheight>53.00</geoidheight><course>71.4</course><type>1</type></trkpt>
      <trkpt lat="40.90865724" lon="-4.24159888"><ele>2466</ele><speed>14.88</speed><time>2016-06-30T15:49:52Z</time><pdop>9.0</pdop><geoidheight>53.00</geoidheight><course>71.2</course><type>1</type></trkpt>
      <trkpt lat="40.90877883" lon="-4.24125239"><ele>2467</ele><speed>16.24</speed><time>2016-06-30T15:49:54Z</time><pdop>10.0</pdop><geoidheight>53.00</geoidheight><course>66.2</course><type>1</type></trkpt>
      <trkpt lat="40.90891828" lon="-4.24087153"><ele>2469</ele><speed>17.21</speed><time>2016-06-30T15:49:56Z</time><pdop>10.0</pdop><geoidheight>53.00</geoidheight><course>65.3</course><type>1</type></trkpt>
      <trkpt lat="40.90902031" lon="-4.24048188"><ele>2471</ele><speed>17.79</speed><time>2016-06-30T15:49:58Z</time><pdop>11.0</pdop><geoidheight>53.00</geoidheight><course>70.2</course><type>1</type></trkpt>
      <trkpt lat="40.90908917" lon="-4.24013708"><ele>2478</ele><speed>15.86</speed><time>2016-06-30T15:50:00Z</time><pdop>10.0</pdop><geoidheight>53.00</geoidheight><course>72.1</course><type>1</type></trkpt>
      <trkpt lat="40.90921016" lon="-4.23978872"><ele>2482</ele><speed>15.64</speed><time>2016-06-30T15:50:02Z</time><pdop>10.0</pdop><geoidheight>53.00</geoidheight><course>70.3</course><type>1</type></trkpt>
      <trkpt lat="40.90931345" lon="-4.23941302"><ele>2480</ele><speed>16.47</speed><time>2016-06-30T15:50:04Z</time><pdop>12.0</pdop><geoidheight>53.00</geoidheight><course>72.1</course><type>1</type></trkpt>
      <trkpt lat="40.90939881" lon="-4.23903893"><ele>2484</ele><speed>16.01</speed><time>2016-06-30T15:50:06Z</time><pdop>12.0</pdop><geoidheight>53.00</geoidheight><course>75.1</course><type>1</type></trkpt>
      <trkpt lat="40.90947963" lon="-4.23866973"><ele>2486</ele><speed>15.80</speed><time>2016-06-30T15:50:08Z</time><pdop>12.0</pdop><geoidheight>53.00</geoidheight><course>76.4</course><type>1</type></trkpt>
      <trkpt lat="40.90964177" lon="-4.23833745"><ele>2494</ele><speed>15.20</speed><time>2016-06-30T15:50:10Z</time><pdop>12.0</pdop><geoidheight>53.00</geoidheight><course>68.5</course><type>1</type></trkpt>
      <trkpt lat="40.90979545" lon="-4.23802006"><ele>2498</ele><speed>15.16</speed><time>2016-06-30T15:50:12Z</time><pdop>12.0</pdop><geoidheight>53.00</geoidheight><course>63.4</course><type>1</type></trkpt>
      <trkpt lat="40.90993626" lon="-4.23768981"><ele>2502</ele><speed>16.07</speed><time>2016-06-30T15:50:14Z</time><pdop>12.0</pdop><geoidheight>53.00</geoidheight><course>61.8</course><type>1</type></trkpt>
      <trkpt lat="40.91008256" lon="-4.23736324"><ele>2506</ele><speed>15.23</speed><time>2016-06-30T15:50:16Z</time><pdop>11.0</pdop><geoidheight>53.00</geoidheight><course>63.0</course><type>1</type></trkpt>
      <trkpt lat="40.91023405" lon="-4.23704098"><ele>2505</ele><speed>15.73</speed><time>2016-06-30T15:50:18Z</time><pdop>11.0</pdop><geoidheight>53.00</geoidheight><course>60.4</course><type>1</type></trkpt>
      <trkpt lat="40.91038896" lon="-4.23672738"><ele>2505</ele><speed>15.75</speed><time>2016-06-30T15:50:20Z</time><pdop>10.0</pdop><geoidheight>53.00</geoidheight><course>58.2</course><type>1</type></trkpt>
      <trkpt lat="40.91053636" lon="-4.23642675"><ele>2506</ele><speed>15.20</speed><time>2016-06-30T15:50:22Z</time><pdop>11.0</pdop><geoidheight>53.00</geoidheight><course>60.7</course><type>1</type></trkpt>
      <trkpt lat="40.91066156" lon="-4.23610755"><ele>2510</ele><speed>14.52</speed><time>2016-06-30T15:50:24Z</time><pdop>11.0</pdop><geoidheight>53.00</geoidheight><course>62.2</course><type>1</type></trkpt>
      <trkpt lat="40.91077138" lon="-4.23582308"><ele>2513</ele><speed>13.40</speed><time>2016-06-30T15:50:26Z</time><pdop>10.0</pdop><geoidheight>53.00</geoidheight><course>64.0</course><type>1</type></trkpt>
      <trkpt lat="40.91089751" lon="-4.23553607"><ele>2514</ele><speed>14.63</speed><time>2016-06-30T15:50:28Z</time><pdop>10.0</pdop><geoidheight>53.00</geoidheight><course>59.4</course><type>1</type></trkpt>
      <trkpt lat="40.91107043" lon="-4.23522542"><ele>2518</ele><speed>15.88</speed><time>2016-06-30T15:50:30Z</time><pdop>10.0</pdop><geoidheight>53.00</geoidheight><course>53.9</course><type>1</type></trkpt>
      <trkpt lat="40.91124758" lon="-4.23492548"><ele>2522</ele><speed>15.16</speed><time>2016-06-30T15:50:32Z</time><pdop>10.0</pdop><geoidheight>53.00</geoidheight><course>56.6</course><type>1</type></trkpt>
      <trkpt lat="40.91142397" lon="-4.23462741"><ele>2525</ele><speed>15.62</speed><time>2016-06-30T15:50:34Z</time><pdop>10.0</pdop><geoidheight>53.00</geoidheight><course>54.9</course><type>1</type></trkpt>
      <trkpt lat="40.91160227" lon="-4.23430691"><ele>2525</ele><speed>16.49</speed><time>2016-06-30T15:50:36Z</time><pdop>10.0</pdop><geoidheight>53.00</geoidheight><course>54.7</course><type>1</type></trkpt>
      <trkpt lat="40.91177516" lon="-4.23398192"><ele>2525</ele><speed>16.06</speed><time>2016-06-30T15:50:38Z</time><pdop>9.0</pdop><geoidheight>53.00</geoidheight><course>57.9</course><type>1</type></trkpt>
      <trkpt lat="40.91193381" lon="-4.23365335"><ele>2524</ele><speed>16.26</speed><time>2016-06-30T15:50:40Z</time><pdop>9.0</pdop><geoidheight>53.00</geoidheight><course>59.0</course><type>1</type></trkpt>
      <trkpt lat="40.91208479" lon="-4.23332982"><ele>2524</ele><speed>15.48</speed><time>2016-06-30T15:50:42Z</time><pdop>9.0</pdop><geoidheight>53.00</geoidheight><course>55.5</course><type>1</type></trkpt>
      <trkpt lat="40.91223013" lon="-4.23303546"><ele>2523</ele><speed>14.67</speed><time>2016-06-30T15:50:44Z</time><pdop>10.0</pdop><geoidheight>53.00</geoidheight><course>57.2</course><type>1</type></trkpt>
      <trkpt lat="40.91237248" lon="-4.2327374"><ele>2524</ele><speed>14.65</speed><time>2016-06-30T15:50:46Z</time><pdop>10.0</pdop><geoidheight>53.00</geoidheight><course>60.3</course><type>1</type></trkpt>
      <trkpt lat="40.91251009" lon="-4.23242467"><ele>2523</ele><speed>15.81</speed><time>2016-06-30T15:50:48Z</time><pdop>9.0</pdop><geoidheight>53.00</geoidheight><course>59.1</course><type>1</type></trkpt>
      <trkpt lat="40.91267202" lon="-4.23209569"><ele>2520</ele><speed>16.96</speed><time>2016-06-30T15:50:50Z</time><pdop>9.0</pdop><geoidheight>53.00</geoidheight><course>56.0</course><type>1</type></trkpt>
      <trkpt lat="40.91287105" lon="-4.23175175"><ele>2520</ele><speed>17.83</speed><time>2016-06-30T15:50:52Z</time><pdop>10.0</pdop><geoidheight>53.00</geoidheight><course>53.7</course><type>1</type></trkpt>
      <trkpt lat="40.91305604" lon="-4.23139903"><ele>2522</ele><speed>17.10</speed><time>2016-06-30T15:50:54Z</time><pdop>10.0</pdop><geoidheight>53.00</geoidheight><course>56.3</course><type>1</type></trkpt>
      <trkpt lat="40.9132139" lon="-4.23108797"><ele>2524</ele><speed>15.40</speed><time>2016-06-30T15:50:56Z</time><pdop>10.0</pdop><geoidheight>53.00</geoidheight><course>56.4</course><type>1</type></trkpt>
      <trkpt lat="40.91337381" lon="-4.23078766"><ele>2524</ele><speed>15.02</speed><time>2016-06-30T15:50:58Z</time><pdop>10.0</pdop><geoidheight>53.00</geoidheight><course>58.5</course><type>1</type></trkpt>
      <trkpt lat="40.91354812" lon="-4.2304678"><ele>2523</ele><speed>16.91</speed><time>2016-06-30T15:51:00Z</time><pdop>10.0</pdop><geoidheight>53.00</geoidheight><course>55.4</course><type>1</type></trkpt>
      <trkpt lat="40.91373037" lon="-4.23012941"><ele>2523</ele><speed>16.91</speed><time>2016-06-30T15:51:02Z</time><pdop>10.0</pdop><geoidheight>53.00</geoidheight><course>56.0</course><type>1</type></trkpt>
      <trkpt lat="40.91389325" lon="-4.22978848"><ele>2524</ele><speed>16.72</speed><time>2016-06-30T15:51:04Z</time><pdop>10.0</pdop><geoidheight>53.00</geoidheight><course>57.7</course><type>1</type></trkpt>
      <trkpt lat="40.91403507" lon="-4.22945635"><ele>2521</ele><speed>16.68</speed><time>2016-06-30T15:51:06Z</time><pdop>10.0</pdop><geoidheight>53.00</geoidheight><course>57.5</course><type>1</type></trkpt>
      <trkpt lat="40.91419173" lon="-4.22908396"><ele>2517</ele><speed>18.19</speed><time>2016-06-30T15:51:08Z</time><pdop>9.0</pdop><geoidheight>53.00</geoidheight><course>62.7</course><type>1</type></trkpt>
      <trkpt lat="40.91426418" lon="-4.22888472"><ele>2515</ele><speed>18.54</speed><time>2016-06-30T15:51:09Z</time><pdop>9.0</pdop><geoidheight>53.00</geoidheight><course>63.4</course><type>1</type></trkpt>
      <trkpt lat="40.91434433" lon="-4.22868853"><ele>2513</ele><speed>18.42</speed><time>2016-06-30T15:51:10Z</time><pdop>9.0</pdop><geoidheight>53.00</geoidheight><course>62.6</course><type>1</type></trkpt>
      <trkpt lat="40.91450423" lon="-4.22832305"><ele>2512</ele><speed>17.79</speed><time>2016-06-30T15:51:12Z</time><pdop>9.0</pdop><geoidheight>53.00</geoidheight><course>59.8</course><type>1</type></trkpt>
      <trkpt lat="40.91469019" lon="-4.22797406"><ele>2511</ele><speed>17.51</speed><time>2016-06-30T15:51:14Z</time><pdop>10.0</pdop><geoidheight>53.00</geoidheight><course>55.9</course><type>1</type></trkpt>
      <trkpt lat="40.9148993" lon="-4.22762199"><ele>2508</ele><speed>18.73</speed><time>2016-06-30T15:51:16Z</time><pdop>10.0</pdop><geoidheight>53.00</geoidheight><course>51.3</course><type>1</type></trkpt>
      <trkpt lat="40.91510296" lon="-4.2272233"><ele>2504</ele><speed>20.56</speed><time>2016-06-30T15:51:18Z</time><pdop>10.0</pdop><geoidheight>53.00</geoidheight><course>54.1</course><type>1</type></trkpt>
      <trkpt lat="40.91523182" lon="-4.22683803"><ele>2498</ele><speed>19.07</speed><time>2016-06-30T15:51:20Z</time><pdop>9.0</pdop><geoidheight>53.00</geoidheight><course>59.8</course><type>1</type></trkpt>
      <trkpt lat="40.91537809" lon="-4.22648163"><ele>2497</ele><speed>17.52</speed><time>2016-06-30T15:51:22Z</time><pdop>9.0</pdop><geoidheight>53.00</geoidheight><course>61.2</course><type>1</type></trkpt>
      <trkpt lat="40.91553485" lon="-4.22612011"><ele>2492</ele><speed>18.46</speed><time>2016-06-30T15:51:24Z</time><pdop>9.0</pdop><geoidheight>53.00</geoidheight><course>59.9</course><type>1</type></trkpt>
      <trkpt lat="40.91562292" lon="-4.22592882"><ele>2489</ele><speed>19.25</speed><time>2016-06-30T15:51:25Z</time><pdop>9.0</pdop><geoidheight>53.00</geoidheight><course>59.2</course><type>1</type></trkpt>
      <trkpt lat="40.91571239" lon="-4.22572495"><ele>2488</ele><speed>19.52</speed><time>2016-06-30T15:51:26Z</time><pdop>9.0</pdop><geoidheight>53.00</geoidheight><course>59.0</course><type>1</type></trkpt>
      <trkpt lat="40.91579281" lon="-4.22553298"><ele>2488</ele><speed>18.79</speed><time>2016-06-30T15:51:27Z</time><pdop>9.0</pdop><geoidheight>53.00</geoidheight><course>60.8</course><type>1</type></trkpt>
      <trkpt lat="40.91587088" lon="-4.22534532"><ele>2487</ele><speed>18.26</speed><time>2016-06-30T15:51:28Z</time><pdop>9.0</pdop><geoidheight>53.00</geoidheight><course>60.9</course><type>1</type></trkpt>
      <trkpt lat="40.91601768" lon="-4.22496667"><ele>2486</ele><speed>18.00</speed><time>2016-06-30T15:51:30Z</time><pdop>9.0</pdop><geoidheight>53.00</geoidheight><course>62.0</course><type>1</type></trkpt>
      <trkpt lat="40.9161833" lon="-4.22457885"><ele>2483</ele><speed>18.66</speed><time>2016-06-30T15:51:32Z</time><pdop>10.0</pdop><geoidheight>53.00</geoidheight><course>62.1</course><type>1</type></trkpt>
      <trkpt lat="40.91632476" lon="-4.22416651"><ele>2478</ele><speed>18.81</speed><time>2016-06-30T15:51:34Z</time><pdop>9.0</pdop><geoidheight>53.00</geoidheight><course>64.6</course><type>1</type></trkpt>
      <trkpt lat="40.91646036" lon="-4.22379069"><ele>2476</ele><speed>17.62</speed><time>2016-06-30T15:51:36Z</time><pdop>9.0</pdop><geoidheight>53.00</geoidheight><course>63.0</course><type>1</type></trkpt>
      <trkpt lat="40.91659013" lon="-4.22345077"><ele>2475</ele><speed>15.99</speed><time>2016-06-30T15:51:38Z</time><pdop>10.0</pdop><geoidheight>53.00</geoidheight><course>61.8</course><type>1</type></trkpt>
      <trkpt lat="40.91673896" lon="-4.22309981"><ele>2475</ele><speed>16.54</speed><time>2016-06-30T15:51:40Z</time><pdop>11.0</pdop><geoidheight>53.00</geoidheight><course>59.6</course><type>1</type></trkpt>
      <trkpt lat="40.9168528" lon="-4.22287885"><ele>2473</ele><speed>19.90</speed><time>2016-06-30T15:51:41Z</time><pdop>11.0</pdop><geoidheight>53.00</geoidheight><course>57.6</course><type>1</type></trkpt>
      <trkpt lat="40.9170805" lon="-4.22246518"><ele>2471</ele><speed>20.98</speed><time>2016-06-30T15:51:43Z</time><pdop>12.0</pdop><geoidheight>53.00</geoidheight><course>55.8</course><type>1</type></trkpt>
      <trkpt lat="40.91723706" lon="-4.22210246"><ele>2467</ele><speed>18.91</speed><time>2016-06-30T15:51:45Z</time><pdop>13.0</pdop><geoidheight>53.00</geoidheight><course>56.6</course><type>1</type></trkpt>
      <trkpt lat="40.9173275" lon="-4.22174673"><ele>2464</ele><speed>16.63</speed><time>2016-06-30T15:51:47Z</time><pdop>11.0</pdop><geoidheight>53.00</geoidheight><course>66.3</course><type>1</type></trkpt>
      <trkpt lat="40.9174241" lon="-4.22132467"><ele>2460</ele><speed>18.16</speed><time>2016-06-30T15:51:49Z</time><pdop>11.0</pdop><geoidheight>53.00</geoidheight><course>65.9</course><type>1</type></trkpt>
      <trkpt lat="40.91750583" lon="-4.22089416"><ele>2448</ele><speed>19.66</speed><time>2016-06-30T15:51:51Z</time><pdop>10.0</pdop><geoidheight>53.00</geoidheight><course>69.4</course><type>1</type></trkpt>
      <trkpt lat="40.9176137" lon="-4.22046755"><ele>2439</ele><speed>19.66</speed><time>2016-06-30T15:51:53Z</time><pdop>10.0</pdop><geoidheight>53.00</geoidheight><course>67.6</course><type>1</type></trkpt>
      <trkpt lat="40.91772164" lon="-4.22003089"><ele>2434</ele><speed>19.04</speed><time>2016-06-30T15:51:55Z</time><pdop>10.0</pdop><geoidheight>53.00</geoidheight><course>69.2</course><type>1</type></trkpt>
      <trkpt lat="40.91782297" lon="-4.21963671"><ele>2430</ele><speed>17.42</speed><time>2016-06-30T15:51:57Z</time><pdop>10.0</pdop><geoidheight>53.00</geoidheight><course>70.3</course><type>1</type></trkpt>
      <trkpt lat="40.9179164" lon="-4.21924556"><ele>2424</ele><speed>17.50</speed><time>2016-06-30T15:51:59Z</time><pdop>9.0</pdop><geoidheight>53.00</geoidheight><course>69.2</course><type>1</type></trkpt>
      <trkpt lat="40.91796348" lon="-4.21903705"><ele>2422</ele><speed>18.50</speed><time>2016-06-30T15:52:00Z</time><pdop>9.0</pdop><geoidheight>53.00</geoidheight><course>70.8</course><type>1</type></trkpt>
      <trkpt lat="40.91799832" lon="-4.21881309"><ele>2417</ele><speed>19.74</speed><time>2016-06-30T15:52:01Z</time><pdop>9.0</pdop><geoidheight>53.00</geoidheight><course>75.4</course><type>1</type></trkpt>
      <trkpt lat="40.91803326" lon="-4.21857693"><ele>2413</ele><speed>20.78</speed><time>2016-06-30T15:52:02Z</time><pdop>9.0</pdop><geoidheight>53.00</geoidheight><course>75.4</course><type>1</type></trkpt>
      <trkpt lat="40.91809023" lon="-4.21834121"><ele>2411</ele><speed>21.02</speed><time>2016-06-30T15:52:03Z</time><pdop>9.0</pdop><geoidheight>53.00</geoidheight><course>72.5</course><type>1</type></trkpt>
      <trkpt lat="40.91815859" lon="-4.2181054"><ele>2410</ele><speed>20.60</speed><time>2016-06-30T15:52:04Z</time><pdop>9.0</pdop><geoidheight>53.00</geoidheight><course>69.8</course><type>1</type></trkpt>
      <trkpt lat="40.91822179" lon="-4.21787841"><ele>2410</ele><speed>19.92</speed><time>2016-06-30T15:52:05Z</time><pdop>9.0</pdop><geoidheight>53.00</geoidheight><course>67.8</course><type>1</type></trkpt>
      <trkpt lat="40.91829273" lon="-4.21767437"><ele>2409</ele><speed>19.28</speed><time>2016-06-30T15:52:06Z</time><pdop>9.0</pdop><geoidheight>53.00</geoidheight><course>65.7</course><type>1</type></trkpt>
      <trkpt lat="40.91836543" lon="-4.21747161"><ele>2408</ele><speed>18.82</speed><time>2016-06-30T15:52:07Z</time><pdop>9.0</pdop><geoidheight>53.00</geoidheight><course>64.3</course><type>1</type></trkpt>
      <trkpt lat="40.91843768" lon="-4.21727046"><ele>2407</ele><speed>18.87</speed><time>2016-06-30T15:52:08Z</time><pdop>9.0</pdop><geoidheight>53.00</geoidheight><course>64.0</course><type>1</type></trkpt>
      <trkpt lat="40.91849884" lon="-4.21706391"><ele>2406</ele><speed>18.74</speed><time>2016-06-30T15:52:09Z</time><pdop>9.0</pdop><geoidheight>53.00</geoidheight><course>64.9</course><type>1</type></trkpt>
      <trkpt lat="40.91863613" lon="-4.21666934"><ele>2402</ele><speed>18.94</speed><time>2016-06-30T15:52:11Z</time><pdop>10.0</pdop><geoidheight>53.00</geoidheight><course>64.3</course><type>1</type></trkpt>
      <trkpt lat="40.91874543" lon="-4.21624517"><ele>2395</ele><speed>19.45</speed><time>2016-06-30T15:52:13Z</time><pdop>9.0</pdop><geoidheight>53.00</geoidheight><course>69.0</course><type>1</type></trkpt>
      <trkpt lat="40.91880176" lon="-4.21602445"><ele>2391</ele><speed>19.97</speed><time>2016-06-30T15:52:14Z</time><pdop>9.0</pdop><geoidheight>53.00</geoidheight><course>70.5</course><type>1</type></trkpt>
      <trkpt lat="40.9188603" lon="-4.21579676"><ele>2387</ele><speed>20.28</speed><time>2016-06-30T15:52:15Z</time><pdop>9.0</pdop><geoidheight>53.00</geoidheight><course>71.0</course><type>1</type></trkpt>
      <trkpt lat="40.91891988" lon="-4.21557123"><ele>2385</ele><speed>20.17</speed><time>2016-06-30T15:52:16Z</time><pdop>10.0</pdop><geoidheight>53.00</geoidheight><course>70.3</course><type>1</type></trkpt>
      <trkpt lat="40.91902181" lon="-4.21513231"><ele>2383</ele><speed>19.01</speed><time>2016-06-30T15:52:18Z</time><pdop>10.0</pdop><geoidheight>53.00</geoidheight><course>72.5</course><type>1</type></trkpt>
      <trkpt lat="40.91909392" lon="-4.21473052"><ele>2381</ele><speed>17.29</speed><time>2016-06-30T15:52:20Z</time><pdop>10.0</pdop><geoidheight>53.00</geoidheight><course>75.2</course><type>1</type></trkpt>
      <trkpt lat="40.9191512" lon="-4.2143533"><ele>2367</ele><speed>18.06</speed><time>2016-06-30T15:52:22Z</time><pdop>9.0</pdop><geoidheight>53.00</geoidheight><course>74.0</course><type>1</type></trkpt>
      <trkpt lat="40.91924558" lon="-4.21394354"><ele>2356</ele><speed>18.69</speed><time>2016-06-30T15:52:24Z</time><pdop>10.0</pdop><geoidheight>53.00</geoidheight><course>70.6</course><type>1</type></trkpt>
      <trkpt lat="40.91932872" lon="-4.21355006"><ele>2351</ele><speed>16.85</speed><time>2016-06-30T15:52:26Z</time><pdop>9.0</pdop><geoidheight>53.00</geoidheight><course>73.7</course><type>1</type></trkpt>
      <trkpt lat="40.9194067" lon="-4.21320591"><ele>2345</ele><speed>15.08</speed><time>2016-06-30T15:52:28Z</time><pdop>9.0</pdop><geoidheight>53.00</geoidheight><course>74.1</course><type>1</type></trkpt>
      <trkpt lat="40.91951593" lon="-4.21287198"><ele>2338</ele><speed>15.84</speed><time>2016-06-30T15:52:30Z</time><pdop>9.0</pdop><geoidheight>53.00</geoidheight><course>66.6</course><type>1</type></trkpt>
      <trkpt lat="40.91963386" lon="-4.21250298"><ele>2334</ele><speed>17.09</speed><time>2016-06-30T15:52:32Z</time><pdop>10.0</pdop><geoidheight>53.00</geoidheight><course>66.9</course><type>1</type></trkpt>
      <trkpt lat="40.91973356" lon="-4.21210205"><ele>2326</ele><speed>18.45</speed><time>2016-06-30T15:52:34Z</time><pdop>10.0</pdop><geoidheight>53.00</geoidheight><course>69.5</course><type>1</type></trkpt>
      <trkpt lat="40.91984368" lon="-4.2117031"><ele>2321</ele><speed>17.86</speed><time>2016-06-30T15:52:36Z</time><pdop>10.0</pdop><geoidheight>53.00</geoidheight><course>68.4</course><type>1</type></trkpt>
      <trkpt lat="40.91994972" lon="-4.21132035"><ele>2320</ele><speed>16.68</speed><time>2016-06-30T15:52:38Z</time><pdop>10.0</pdop><geoidheight>53.00</geoidheight><course>68.3</course><type>1</type></trkpt>
      <trkpt lat="40.92005545" lon="-4.2109654"><ele>2316</ele><speed>16.13</speed><time>2016-06-30T15:52:40Z</time><pdop>10.0</pdop><geoidheight>53.00</geoidheight><course>67.0</course><type>1</type></trkpt>
      <trkpt lat="40.92015263" lon="-4.21058191"><ele>2312</ele><speed>17.37</speed><time>2016-06-30T15:52:42Z</time><pdop>10.0</pdop><geoidheight>53.00</geoidheight><course>68.8</course><type>1</type></trkpt>
      <trkpt lat="40.92027189" lon="-4.2102001"><ele>2309</ele><speed>17.93</speed><time>2016-06-30T15:52:44Z</time><pdop>10.0</pdop><geoidheight>53.00</geoidheight><course>68.7</course><type>1</type></trkpt>
      <trkpt lat="40.92038315" lon="-4.20980486"><ele>2307</ele><speed>17.84</speed><time>2016-06-30T15:52:46Z</time><pdop>9.0</pdop><geoidheight>53.00</geoidheight><course>67.6</course><type>1</type></trkpt>
      <trkpt lat="40.92048492" lon="-4.20939899"><ele>2305</ele><speed>18.13</speed><time>2016-06-30T15:52:48Z</time><pdop>10.0</pdop><geoidheight>53.00</geoidheight><course>70.8</course><type>1</type></trkpt>
      <trkpt lat="40.92058073" lon="-4.20898945"><ele>2303</ele><speed>18.11</speed><time>2016-06-30T15:52:50Z</time><pdop>9.0</pdop><geoidheight>53.00</geoidheight><course>72.3</course><type>1</type></trkpt>
      <trkpt lat="40.92063498" lon="-4.20878143"><ele>2303</ele><speed>18.07</speed><time>2016-06-30T15:52:51Z</time><pdop>9.0</pdop><geoidheight>53.00</geoidheight><course>71.4</course><type>1</type></trkpt>
      <trkpt lat="40.92073536" lon="-4.20840974"><ele>2306</ele><speed>16.81</speed><time>2016-06-30T15:52:53Z</time><pdop>9.0</pdop><geoidheight>53.00</geoidheight><course>69.4</course><type>1</type></trkpt>
      <trkpt lat="40.92083567" lon="-4.20808038"><ele>2307</ele><speed>14.74</speed><time>2016-06-30T15:52:55Z</time><pdop>9.0</pdop><geoidheight>53.00</geoidheight><course>66.7</course><type>1</type></trkpt>
      <trkpt lat="40.92094922" lon="-4.20775889"><ele>2305</ele><speed>15.21</speed><time>2016-06-30T15:52:57Z</time><pdop>9.0</pdop><geoidheight>53.00</geoidheight><course>63.4</course><type>1</type></trkpt>
      <trkpt lat="40.92111172" lon="-4.20742392"><ele>2303</ele><speed>16.95</speed><time>2016-06-30T15:52:59Z</time><pdop>10.0</pdop><geoidheight>53.00</geoidheight><course>57.5</course><type>1</type></trkpt>
      <trkpt lat="40.92127751" lon="-4.20707036"><ele>2303</ele><speed>17.33</speed><time>2016-06-30T15:53:01Z</time><pdop>4.0</pdop><geoidheight>53.00</geoidheight><course>59.2</course><type>1</type></trkpt>
      <trkpt lat="40.92133806" lon="-4.20689023"><ele>2303</ele><speed>16.86</speed><time>2016-06-30T15:53:02Z</time><pdop>4.0</pdop><geoidheight>53.00</geoidheight><course>63.7</course><type>1</type></trkpt>
      <trkpt lat="40.92139634" lon="-4.20671331"><ele>2304</ele><speed>16.24</speed><time>2016-06-30T15:53:03Z</time><pdop>4.0</pdop><geoidheight>53.00</geoidheight><course>67.8</course><type>1</type></trkpt>
      <trkpt lat="40.92144055" lon="-4.20653935"><ele>2304</ele><speed>15.99</speed><time>2016-06-30T15:53:04Z</time><pdop>4.0</pdop><geoidheight>53.00</geoidheight><course>70.6</course><type>1</type></trkpt>
      <trkpt lat="40.9214799" lon="-4.2063606"><ele>2303</ele><speed>16.07</speed><time>2016-06-30T15:53:05Z</time><pdop>4.0</pdop><geoidheight>53.00</geoidheight><course>73.3</course><type>1</type></trkpt>
      <trkpt lat="40.921522" lon="-4.20617869"><ele>2303</ele><speed>16.15</speed><time>2016-06-30T15:53:06Z</time><pdop>4.0</pdop><geoidheight>53.00</geoidheight><course>74.0</course><type>1</type></trkpt>
      <trkpt lat="40.92156058" lon="-4.20598574"><ele>2302</ele><speed>16.74</speed><time>2016-06-30T15:53:07Z</time><pdop>5.0</pdop><geoidheight>53.00</geoidheight><course>75.0</course><type>1</type></trkpt>
      <trkpt lat="40.92161484" lon="-4.20576305"><ele>2302</ele><speed>18.41</speed><time>2016-06-30T15:53:08Z</time><pdop>4.0</pdop><geoidheight>53.00</geoidheight><course>74.9</course><type>1</type></trkpt>
      <trkpt lat="40.92165469" lon="-4.20554338"><ele>2302</ele><speed>19.05</speed><time>2016-06-30T15:53:09Z</time><pdop>4.0</pdop><geoidheight>53.00</geoidheight><course>74.2</course><type>1</type></trkpt>
      <trkpt lat="40.92171055" lon="-4.20532237"><ele>2303</ele><speed>19.05</speed><time>2016-06-30T15:53:10Z</time><pdop>4.0</pdop><geoidheight>53.00</geoidheight><course>73.7</course><type>1</type></trkpt>
      <trkpt lat="40.92174628" lon="-4.20511675"><ele>2305</ele><speed>18.60</speed><time>2016-06-30T15:53:11Z</time><pdop>5.0</pdop><geoidheight>53.00</geoidheight><course>74.9</course><type>1</type></trkpt>
      <trkpt lat="40.92181932" lon="-4.20491337"><ele>2310</ele><speed>18.33</speed><time>2016-06-30T15:53:12Z</time><pdop>4.0</pdop><geoidheight>53.00</geoidheight><course>70.0</course><type>1</type></trkpt>
      <trkpt lat="40.92185502" lon="-4.20471871"><ele>2311</ele><speed>17.59</speed><time>2016-06-30T15:53:13Z</time><pdop>4.0</pdop><geoidheight>53.00</geoidheight><course>72.8</course><type>1</type></trkpt>
      <trkpt lat="40.92188631" lon="-4.2045438"><ele>2315</ele><speed>16.04</speed><time>2016-06-30T15:53:14Z</time><pdop>4.0</pdop><geoidheight>53.00</geoidheight><course>76.9</course><type>1</type></trkpt>
      <trkpt lat="40.92191332" lon="-4.20436411"><ele>2316</ele><speed>15.76</speed><time>2016-06-30T15:53:15Z</time><pdop>4.0</pdop><geoidheight>53.00</geoidheight><course>79.1</course><type>1</type></trkpt>
      <trkpt lat="40.92193906" lon="-4.20418189"><ele>2316</ele><speed>15.83</speed><time>2016-06-30T15:53:16Z</time><pdop>4.0</pdop><geoidheight>53.00</geoidheight><course>78.0</course><type>1</type></trkpt>
      <trkpt lat="40.92197814" lon="-4.20398676"><ele>2316</ele><speed>16.85</speed><time>2016-06-30T15:53:17Z</time><pdop>4.0</pdop><geoidheight>53.00</geoidheight><course>75.8</course><type>1</type></trkpt>
      <trkpt lat="40.92200997" lon="-4.2037804"><ele>2315</ele><speed>17.93</speed><time>2016-06-30T15:53:18Z</time><pdop>4.0</pdop><geoidheight>53.00</geoidheight><course>76.1</course><type>1</type></trkpt>
      <trkpt lat="40.92204698" lon="-4.20356979"><ele>2315</ele><speed>18.64</speed><time>2016-06-30T15:53:19Z</time><pdop>4.0</pdop><geoidheight>53.00</geoidheight><course>75.9</course><type>1</type></trkpt>
      <trkpt lat="40.9220895" lon="-4.20335312"><ele>2315</ele><speed>18.61</speed><time>2016-06-30T15:53:20Z</time><pdop>4.0</pdop><geoidheight>53.00</geoidheight><course>74.3</course><type>1</type></trkpt>
      <trkpt lat="40.92212671" lon="-4.20313951"><ele>2314</ele><speed>18.22</speed><time>2016-06-30T15:53:21Z</time><pdop>4.0</pdop><geoidheight>53.00</geoidheight><course>73.7</course><type>1</type></trkpt>
      <trkpt lat="40.92216482" lon="-4.202935"><ele>2313</ele><speed>18.21</speed><time>2016-06-30T15:53:22Z</time><pdop>4.0</pdop><geoidheight>53.00</geoidheight><course>74.0</course><type>1</type></trkpt>
      <trkpt lat="40.92220916" lon="-4.20272505"><ele>2312</ele><speed>18.05</speed><time>2016-06-30T15:53:23Z</time><pdop>4.0</pdop><geoidheight>53.00</geoidheight><course>74.7</course><type>1</type></trkpt>
      <trkpt lat="40.92225576" lon="-4.20252179"><ele>2312</ele><speed>17.87</speed><time>2016-06-30T15:53:24Z</time><pdop>4.0</pdop><geoidheight>53.00</geoidheight><course>75.4</course><type>1</type></trkpt>
      <trkpt lat="40.92229757" lon="-4.20231001"><ele>2312</ele><speed>18.03</speed><time>2016-06-30T15:53:25Z</time><pdop>4.0</pdop><geoidheight>53.00</geoidheight><course>75.3</course><type>1</type></trkpt>
      <trkpt lat="40.92233448" lon="-4.20210955"><ele>2311</ele><speed>17.83</speed><time>2016-06-30T15:53:26Z</time><pdop>4.0</pdop><geoidheight>53.00</geoidheight><course>76.6</course><type>1</type></trkpt>
      <trkpt lat="40.9223718" lon="-4.20189849"><ele>2309</ele><speed>17.93</speed><time>2016-06-30T15:53:27Z</time><pdop>4.0</pdop><geoidheight>53.00</geoidheight><course>74.8</course><type>1</type></trkpt>
      <trkpt lat="40.92242722" lon="-4.20168368"><ele>2309</ele><speed>18.14</speed><time>2016-06-30T15:53:28Z</time><pdop>3.0</pdop><geoidheight>53.00</geoidheight><course>73.4</course><type>1</type></trkpt>
      <trkpt lat="40.92246962" lon="-4.20146452"><ele>2308</ele><speed>18.65</speed><time>2016-06-30T15:53:29Z</time><pdop>4.0</pdop><geoidheight>53.00</geoidheight><course>75.3</course><type>1</type></trkpt>
      <trkpt lat="40.92251056" lon="-4.20123844"><ele>2309</ele><speed>19.28</speed><time>2016-06-30T15:53:30Z</time><pdop>4.0</pdop><geoidheight>53.00</geoidheight><course>76.5</course><type>1</type></trkpt>
      <trkpt lat="40.92255994" lon="-4.20099814"><ele>2309</ele><speed>20.27</speed><time>2016-06-30T15:53:31Z</time><pdop>6.0</pdop><geoidheight>53.00</geoidheight><course>75.7</course><type>1</type></trkpt>
      <trkpt lat="40.9225978" lon="-4.20077152"><ele>2309</ele><speed>20.18</speed><time>2016-06-30T15:53:32Z</time><pdop>5.0</pdop><geoidheight>53.00</geoidheight><course>76.6</course><type>1</type></trkpt>
      <trkpt lat="40.92264455" lon="-4.20055228"><ele>2309</ele><speed>19.37</speed><time>2016-06-30T15:53:33Z</time><pdop>5.0</pdop><geoidheight>53.00</geoidheight><course>76.0</course><type>1</type></trkpt>
      <trkpt lat="40.92270136" lon="-4.20033632"><ele>2311</ele><speed>18.88</speed><time>2016-06-30T15:53:34Z</time><pdop>5.0</pdop><geoidheight>53.00</geoidheight><course>74.6</course><type>1</type></trkpt>
      <trkpt lat="40.92273802" lon="-4.200125"><ele>2312</ele><speed>18.70</speed><time>2016-06-30T15:53:35Z</time><pdop>5.0</pdop><geoidheight>53.00</geoidheight><course>76.1</course><type>1</type></trkpt>
      <trkpt lat="40.92277359" lon="-4.1999144"><ele>2312</ele><speed>18.42</speed><time>2016-06-30T15:53:36Z</time><pdop>5.0</pdop><geoidheight>53.00</geoidheight><course>78.0</course><type>1</type></trkpt>
      <trkpt lat="40.92281606" lon="-4.19971553"><ele>2311</ele><speed>17.66</speed><time>2016-06-30T15:53:37Z</time><pdop>6.0</pdop><geoidheight>53.00</geoidheight><course>77.0</course><type>1</type></trkpt>
      <trkpt lat="40.92284577" lon="-4.19950939"><ele>2311</ele><speed>17.44</speed><time>2016-06-30T15:53:38Z</time><pdop>6.0</pdop><geoidheight>53.00</geoidheight><course>77.9</course><type>1</type></trkpt>
      <trkpt lat="40.92287841" lon="-4.19930402"><ele>2310</ele><speed>17.28</speed><time>2016-06-30T15:53:39Z</time><pdop>6.0</pdop><geoidheight>53.00</geoidheight><course>77.8</course><type>1</type></trkpt>
      <trkpt lat="40.92292931" lon="-4.19910225"><ele>2310</ele><speed>17.46</speed><time>2016-06-30T15:53:40Z</time><pdop>7.0</pdop><geoidheight>53.00</geoidheight><course>74.6</course><type>1</type></trkpt>
      <trkpt lat="40.92298063" lon="-4.19889804"><ele>2309</ele><speed>17.85</speed><time>2016-06-30T15:53:41Z</time><pdop>8.0</pdop><geoidheight>53.00</geoidheight><course>72.8</course><type>1</type></trkpt>
      <trkpt lat="40.92303744" lon="-4.19868588"><ele>2309</ele><speed>18.35</speed><time>2016-06-30T15:53:42Z</time><pdop>7.0</pdop><geoidheight>53.00</geoidheight><course>71.1</course><type>1</type></trkpt>
      <trkpt lat="40.92308768" lon="-4.19848929"><ele>2308</ele><speed>17.65</speed><time>2016-06-30T15:53:43Z</time><pdop>6.0</pdop><geoidheight>53.00</geoidheight><course>72.0</course><type>1</type></trkpt>
      <trkpt lat="40.92313574" lon="-4.19831155"><ele>2204</ele><speed>15.96</speed><time>2016-06-30T15:53:44Z</time><pdop>6.0</pdop><geoidheight>53.00</geoidheight><course>71.0</course><type>1</type></trkpt>
      <trkpt lat="40.92318859" lon="-4.19814406"><ele>2236</ele><speed>15.35</speed><time>2016-06-30T15:53:45Z</time><pdop>5.0</pdop><geoidheight>53.00</geoidheight><course>69.7</course><type>1</type></trkpt>
      <trkpt lat="40.92324266" lon="-4.1979709"><ele>2253</ele><speed>15.21</speed><time>2016-06-30T15:53:46Z</time><pdop>5.0</pdop><geoidheight>53.00</geoidheight><course>69.6</course><type>1</type></trkpt>
      <trkpt lat="40.92328214" lon="-4.19779332"><ele>2261</ele><speed>15.44</speed><time>2016-06-30T15:53:47Z</time><pdop>5.0</pdop><geoidheight>53.00</geoidheight><course>71.6</course><type>1</type></trkpt>
      <trkpt lat="40.92333269" lon="-4.19760527"><ele>2268</ele><speed>16.26</speed><time>2016-06-30T15:53:48Z</time><pdop>5.0</pdop><geoidheight>53.00</geoidheight><course>73.1</course><type>1</type></trkpt>
      <trkpt lat="40.92337121" lon="-4.19740084"><ele>2276</ele><speed>17.33</speed><time>2016-06-30T15:53:49Z</time><pdop>6.0</pdop><geoidheight>53.00</geoidheight><course>74.3</course><type>1</type></trkpt>
      <trkpt lat="40.92342037" lon="-4.19719526"><ele>2279</ele><speed>18.11</speed><time>2016-06-30T15:53:50Z</time><pdop>5.0</pdop><geoidheight>53.00</geoidheight><course>72.9</course><type>1</type></trkpt>
      <trkpt lat="40.92346328" lon="-4.19698956"><ele>2285</ele><speed>18.07</speed><time>2016-06-30T15:53:51Z</time><pdop>5.0</pdop><geoidheight>53.00</geoidheight><course>74.8</course><type>1</type></trkpt>
      <trkpt lat="40.92350142" lon="-4.19678278"><ele>2286</ele><speed>17.87</speed><time>2016-06-30T15:53:52Z</time><pdop>5.0</pdop><geoidheight>53.00</geoidheight><course>77.5</course><type>1</type></trkpt>
      <trkpt lat="40.92353226" lon="-4.19658294"><ele>2288</ele><speed>17.35</speed><time>2016-06-30T15:53:53Z</time><pdop>4.0</pdop><geoidheight>53.00</geoidheight><course>79.2</course><type>1</type></trkpt>
      <trkpt lat="40.92356244" lon="-4.19639859"><ele>2287</ele><speed>17.13</speed><time>2016-06-30T15:53:54Z</time><pdop>4.0</pdop><geoidheight>53.00</geoidheight><course>82.4</course><type>1</type></trkpt>
      <trkpt lat="40.92357969" lon="-4.19619581"><ele>2288</ele><speed>16.78</speed><time>2016-06-30T15:53:55Z</time><pdop>5.0</pdop><geoidheight>53.00</geoidheight><course>81.4</course><type>1</type></trkpt>
      <trkpt lat="40.92360926" lon="-4.19599233"><ele>2289</ele><speed>16.73</speed><time>2016-06-30T15:53:56Z</time><pdop>4.0</pdop><geoidheight>53.00</geoidheight><course>78.4</course><type>1</type></trkpt>
      <trkpt lat="40.92364804" lon="-4.19578806"><ele>2288</ele><speed>16.98</speed><time>2016-06-30T15:53:57Z</time><pdop>4.0</pdop><geoidheight>53.00</geoidheight><course>76.8</course><type>1</type></trkpt>
      <trkpt lat="40.92369092" lon="-4.19557848"><ele>2289</ele><speed>17.49</speed><time>2016-06-30T15:53:58Z</time><pdop>4.0</pdop><geoidheight>53.00</geoidheight><course>75.9</course><type>1</type></trkpt>
      <trkpt lat="40.92373354" lon="-4.19537233"><ele>2289</ele><speed>17.85</speed><time>2016-06-30T15:53:59Z</time><pdop>4.0</pdop><geoidheight>53.00</geoidheight><course>76.4</course><type>1</type></trkpt>
      <trkpt lat="40.92376408" lon="-4.19516775"><ele>2289</ele><speed>17.89</speed><time>2016-06-30T15:54:00Z</time><pdop>3.0</pdop><geoidheight>53.00</geoidheight><course>75.6</course><type>1</type></trkpt>
      <trkpt lat="40.92377804" lon="-4.19497288"><ele>2287</ele><speed>17.46</speed><time>2016-06-30T15:54:01Z</time><pdop>4.0</pdop><geoidheight>53.00</geoidheight><course>76.7</course><type>1</type></trkpt>
      <trkpt lat="40.92381202" lon="-4.19476647"><ele>2287</ele><speed>17.68</speed><time>2016-06-30T15:54:02Z</time><pdop>3.0</pdop><geoidheight>53.00</geoidheight><course>76.2</course><type>1</type></trkpt>
      <trkpt lat="40.92383353" lon="-4.19456004"><ele>2286</ele><speed>17.51</speed><time>2016-06-30T15:54:03Z</time><pdop>3.0</pdop><geoidheight>53.00</geoidheight><course>76.2</course><type>1</type></trkpt>
      <trkpt lat="40.92385701" lon="-4.19435503"><ele>2285</ele><speed>17.62</speed><time>2016-06-30T15:54:04Z</time><pdop>3.0</pdop><geoidheight>53.00</geoidheight><course>75.4</course><type>1</type></trkpt>
      <trkpt lat="40.92389461" lon="-4.19414675"><ele>2284</ele><speed>18.13</speed><time>2016-06-30T15:54:05Z</time><pdop>4.0</pdop><geoidheight>53.00</geoidheight><course>75.2</course><type>1</type></trkpt>
      <trkpt lat="40.92395327" lon="-4.1939521"><ele>2282</ele><speed>18.02</speed><time>2016-06-30T15:54:06Z</time><pdop>9.0</pdop><geoidheight>53.00</geoidheight><course>70.1</course><type>1</type></trkpt>
      <trkpt lat="40.9240658" lon="-4.19356042"><ele>2280</ele><speed>17.58</speed><time>2016-06-30T15:54:08Z</time><pdop>10.0</pdop><geoidheight>53.00</geoidheight><course>68.7</course><type>1</type></trkpt>
      <trkpt lat="40.924215" lon="-4.19316678"><ele>2279</ele><speed>17.99</speed><time>2016-06-30T15:54:10Z</time><pdop>11.0</pdop><geoidheight>53.00</geoidheight><course>66.0</course><type>1</type></trkpt>
      <trkpt lat="40.92433862" lon="-4.19280892"><ele>2277</ele><speed>16.42</speed><time>2016-06-30T15:54:12Z</time><pdop>11.0</pdop><geoidheight>53.00</geoidheight><course>63.8</course><type>1</type></trkpt>
      <trkpt lat="40.92443902" lon="-4.19250096"><ele>2277</ele><speed>14.95</speed><time>2016-06-30T15:54:14Z</time><pdop>11.0</pdop><geoidheight>53.00</geoidheight><course>62.7</course><type>1</type></trkpt>
      <trkpt lat="40.92464334" lon="-4.19216715"><ele>2275</ele><speed>16.81</speed><time>2016-06-30T15:54:16Z</time><pdop>10.0</pdop><geoidheight>53.00</geoidheight><course>55.7</course><type>1</type></trkpt>
      <trkpt lat="40.92479886" lon="-4.19181743"><ele>2274</ele><speed>17.55</speed><time>2016-06-30T15:54:18Z</time><pdop>10.0</pdop><geoidheight>53.00</geoidheight><course>56.2</course><type>1</type></trkpt>
      <trkpt lat="40.92495123" lon="-4.19147075"><ele>2272</ele><speed>16.75</speed><time>2016-06-30T15:54:20Z</time><pdop>10.0</pdop><geoidheight>53.00</geoidheight><course>57.2</course><type>1</type></trkpt>
      <trkpt lat="40.92510446" lon="-4.19113455"><ele>2267</ele><speed>16.93</speed><time>2016-06-30T15:54:22Z</time><pdop>10.0</pdop><geoidheight>53.00</geoidheight><course>59.8</course><type>1</type></trkpt>
      <trkpt lat="40.92524922" lon="-4.19076326"><ele>2265</ele><speed>17.77</speed><time>2016-06-30T15:54:24Z</time><pdop>10.0</pdop><geoidheight>53.00</geoidheight><course>61.9</course><type>1</type></trkpt>
      <trkpt lat="40.92534346" lon="-4.190383"><ele>2261</ele><speed>16.98</speed><time>2016-06-30T15:54:26Z</time><pdop>11.0</pdop><geoidheight>53.00</geoidheight><course>66.7</course><type>1</type></trkpt>
      <trkpt lat="40.92541993" lon="-4.18999784"><ele>2258</ele><speed>17.04</speed><time>2016-06-30T15:54:28Z</time><pdop>11.0</pdop><geoidheight>53.00</geoidheight><course>73.4</course><type>1</type></trkpt>
      <trkpt lat="40.92557162" lon="-4.18964556"><ele>2255</ele><speed>16.58</speed><time>2016-06-30T15:54:30Z</time><pdop>11.0</pdop><geoidheight>53.00</geoidheight><course>66.1</course><type>1</type></trkpt>
      <trkpt lat="40.9256225" lon="-4.18929899"><ele>2250</ele><speed>16.18</speed><time>2016-06-30T15:54:32Z</time><pdop>12.0</pdop><geoidheight>53.00</geoidheight><course>70.0</course><type>1</type></trkpt>
      <trkpt lat="40.92577261" lon="-4.18889739"><ele>2248</ele><speed>17.31</speed><time>2016-06-30T15:54:34Z</time><pdop>12.0</pdop><geoidheight>53.00</geoidheight><course>66.7</course><type>1</type></trkpt>
      <trkpt lat="40.92591048" lon="-4.18847534"><ele>2243</ele><speed>18.66</speed><time>2016-06-30T15:54:36Z</time><pdop>11.0</pdop><geoidheight>53.00</geoidheight><course>66.3</course><type>1</type></trkpt>
      <trkpt lat="40.92602835" lon="-4.18808743"><ele>2238</ele><speed>17.59</speed><time>2016-06-30T15:54:38Z</time><pdop>11.0</pdop><geoidheight>53.00</geoidheight><course>59.8</course><type>1</type></trkpt>
      <trkpt lat="40.92619015" lon="-4.18772707"><ele>2233</ele><speed>18.07</speed><time>2016-06-30T15:54:40Z</time><pdop>11.0</pdop><geoidheight>53.00</geoidheight><course>59.9</course><type>1</type></trkpt>
      <trkpt lat="40.92633253" lon="-4.18731815"><ele>2225</ele><speed>19.73</speed><time>2016-06-30T15:54:42Z</time><pdop>11.0</pdop><geoidheight>53.00</geoidheight><course>62.7</course><type>1</type></trkpt>
      <trkpt lat="40.92645769" lon="-4.18695217"><ele>2218</ele><speed>18.88</speed><time>2016-06-30T15:54:44Z</time><pdop>11.0</pdop><geoidheight>53.00</geoidheight><course>61.8</course><type>1</type></trkpt>
      <trkpt lat="40.92663446" lon="-4.18659143"><ele>2212</ele><speed>18.29</speed><time>2016-06-30T15:54:46Z</time><pdop>11.0</pdop><geoidheight>53.00</geoidheight><course>57.3</course><type>1</type></trkpt>
      <trkpt lat="40.92681575" lon="-4.18620892"><ele>2206</ele><speed>19.70</speed><time>2016-06-30T15:54:48Z</time><pdop>12.0</pdop><geoidheight>53.00</geoidheight><course>56.8</course><type>1</type></trkpt>
      <trkpt lat="40.92699225" lon="-4.18580678"><ele>2202</ele><speed>19.71</speed><time>2016-06-30T15:54:50Z</time><pdop>12.0</pdop><geoidheight>53.00</geoidheight><course>57.8</course><type>1</type></trkpt>
      <trkpt lat="40.92716461" lon="-4.18539931"><ele>2197</ele><speed>20.49</speed><time>2016-06-30T15:54:52Z</time><pdop>13.0</pdop><geoidheight>53.00</geoidheight><course>59.2</course><type>1</type></trkpt>
      <trkpt lat="40.92734654" lon="-4.1849539"><ele>2190</ele><speed>20.43</speed><time>2016-06-30T15:54:54Z</time><pdop>12.0</pdop><geoidheight>53.00</geoidheight><course>60.2</course><type>1</type></trkpt>
      <trkpt lat="40.92751997" lon="-4.18453521"><ele>2184</ele><speed>20.18</speed><time>2016-06-30T15:54:56Z</time><pdop>13.0</pdop><geoidheight>53.00</geoidheight><course>61.1</course><type>1</type></trkpt>
      <trkpt lat="40.92764261" lon="-4.18411223"><ele>2167</ele><speed>20.65</speed><time>2016-06-30T15:54:58Z</time><pdop>12.0</pdop><geoidheight>53.00</geoidheight><course>65.4</course><type>1</type></trkpt>
      <trkpt lat="40.92778424" lon="-4.18365593"><ele>2154</ele><speed>20.58</speed><time>2016-06-30T15:55:00Z</time><pdop>12.0</pdop><geoidheight>53.00</geoidheight><course>67.7</course><type>1</type></trkpt>
      <trkpt lat="40.92790657" lon="-4.18321614"><ele>2141</ele><speed>20.06</speed><time>2016-06-30T15:55:02Z</time><pdop>11.0</pdop><geoidheight>53.00</geoidheight><course>65.0</course><type>1</type></trkpt>
      <trkpt lat="40.92804137" lon="-4.18278469"><ele>2128</ele><speed>20.00</speed><time>2016-06-30T15:55:04Z</time><pdop>11.0</pdop><geoidheight>53.00</geoidheight><course>64.6</course><type>1</type></trkpt>
      <trkpt lat="40.92816362" lon="-4.18235419"><ele>2114</ele><speed>20.00</speed><time>2016-06-30T15:55:06Z</time><pdop>11.0</pdop><geoidheight>53.00</geoidheight><course>67.7</course><type>1</type></trkpt>
      <trkpt lat="40.92828185" lon="-4.18191482"><ele>2099</ele><speed>20.34</speed><time>2016-06-30T15:55:08Z</time><pdop>11.0</pdop><geoidheight>53.00</geoidheight><course>67.8</course><type>1</type></trkpt>
      <trkpt lat="40.92840834" lon="-4.18147276"><ele>2084</ele><speed>20.52</speed><time>2016-06-30T15:55:10Z</time><pdop>11.0</pdop><geoidheight>53.00</geoidheight><course>69.1</course><type>1</type></trkpt>
      <trkpt lat="40.92852248" lon="-4.18102748"><ele>2070</ele><speed>20.71</speed><time>2016-06-30T15:55:12Z</time><pdop>10.0</pdop><geoidheight>53.00</geoidheight><course>70.2</course><type>1</type></trkpt>
      <trkpt lat="40.92863369" lon="-4.18056594"><ele>2058</ele><speed>20.75</speed><time>2016-06-30T15:55:14Z</time><pdop>10.0</pdop><geoidheight>53.00</geoidheight><course>71.9</course><type>1</type></trkpt>
      <trkpt lat="40.92873168" lon="-4.18010806"><ele>2047</ele><speed>20.48</speed><time>2016-06-30T15:55:16Z</time><pdop>10.0</pdop><geoidheight>53.00</geoidheight><course>72.6</course><type>1</type></trkpt>
      <trkpt lat="40.92886284" lon="-4.1796768"><ele>2036</ele><speed>19.84</speed><time>2016-06-30T15:55:18Z</time><pdop>10.0</pdop><geoidheight>53.00</geoidheight><course>66.2</course><type>1</type></trkpt>
      <trkpt lat="40.9290117" lon="-4.17926564"><ele>2026</ele><speed>19.42</speed><time>2016-06-30T15:55:20Z</time><pdop>10.0</pdop><geoidheight>53.00</geoidheight><course>64.1</course><type>1</type></trkpt>
      <trkpt lat="40.9291773" lon="-4.17888574"><ele>2012</ele><speed>19.54</speed><time>2016-06-30T15:55:22Z</time><pdop>11.0</pdop><geoidheight>53.00</geoidheight><course>59.9</course><type>1</type></trkpt>
      <trkpt lat="40.9293331" lon="-4.17847729"><ele>1999</ele><speed>19.91</speed><time>2016-06-30T15:55:24Z</time><pdop>12.0</pdop><geoidheight>53.00</geoidheight><course>61.7</course><type>1</type></trkpt>
      <trkpt lat="40.92950944" lon="-4.17807541"><ele>1987</ele><speed>20.00</speed><time>2016-06-30T15:55:26Z</time><pdop>14.0</pdop><geoidheight>53.00</geoidheight><course>60.7</course><type>1</type></trkpt>
      <trkpt lat="40.92971283" lon="-4.17773656"><ele>1985</ele><speed>17.78</speed><time>2016-06-30T15:55:28Z</time><pdop>13.0</pdop><geoidheight>53.00</geoidheight><course>53.5</course><type>1</type></trkpt>
      <trkpt lat="40.92996285" lon="-4.17735359"><ele>1981</ele><speed>20.52</speed><time>2016-06-30T15:55:30Z</time><pdop>13.0</pdop><geoidheight>53.00</geoidheight><course>50.7</course><type>1</type></trkpt>
      <trkpt lat="40.93008759" lon="-4.17696497"><ele>1977</ele><speed>18.92</speed><time>2016-06-30T15:55:32Z</time><pdop>13.0</pdop><geoidheight>53.00</geoidheight><course>58.1</course><type>1</type></trkpt>
      <trkpt lat="40.93023615" lon="-4.17665841"><ele>1974</ele><speed>14.55</speed><time>2016-06-30T15:55:34Z</time><pdop>13.0</pdop><geoidheight>53.00</geoidheight><course>55.1</course><type>1</type></trkpt>
      <trkpt lat="40.93036303" lon="-4.17630257"><ele>1970</ele><speed>10.12</speed><time>2016-06-30T15:55:37Z</time><pdop>12.0</pdop><geoidheight>53.00</geoidheight><course>60.2</course><type>1</type></trkpt>
      <trkpt lat="40.93047575" lon="-4.17589935"><ele>1967</ele><speed>13.85</speed><time>2016-06-30T15:55:40Z</time><pdop>12.0</pdop><geoidheight>53.00</geoidheight><course>68.9</course><type>1</type></trkpt>
      <trkpt lat="40.93060194" lon="-4.17552787"><ele>1964</ele><speed>16.46</speed><time>2016-06-30T15:55:42Z</time><pdop>15.0</pdop><geoidheight>53.00</geoidheight><course>67.1</course><type>1</type></trkpt>
      <trkpt lat="40.93073941" lon="-4.17509485"><ele>1962</ele><speed>18.00</speed><time>2016-06-30T15:55:44Z</time><pdop>17.0</pdop><geoidheight>53.00</geoidheight><course>67.1</course><type>1</type></trkpt>
      <trkpt lat="40.93079159" lon="-4.17473035"><ele>1960</ele><speed>15.16</speed><time>2016-06-30T15:55:46Z</time><pdop>13.0</pdop><geoidheight>53.00</geoidheight><course>74.3</course><type>1</type></trkpt>
      <trkpt lat="40.93082047" lon="-4.17437593"><ele>1955</ele><speed>15.44</speed><time>2016-06-30T15:55:48Z</time><pdop>12.0</pdop><geoidheight>53.00</geoidheight><course>74.1</course><type>1</type></trkpt>
      <trkpt lat="40.93092114" lon="-4.17400522"><ele>1950</ele><speed>16.87</speed><time>2016-06-30T15:55:50Z</time><pdop>12.0</pdop><geoidheight>53.00</geoidheight><course>69.0</course><type>1</type></trkpt>
      <trkpt lat="40.93104101" lon="-4.17360762"><ele>1947</ele><speed>17.36</speed><time>2016-06-30T15:55:52Z</time><pdop>12.0</pdop><geoidheight>53.00</geoidheight><course>68.4</course><type>1</type></trkpt>
      <trkpt lat="40.93112371" lon="-4.17326647"><ele>1947</ele><speed>15.46</speed><time>2016-06-30T15:55:54Z</time><pdop>12.0</pdop><geoidheight>53.00</geoidheight><course>70.2</course><type>1</type></trkpt>
      <trkpt lat="40.93119165" lon="-4.17296893"><ele>1950</ele><speed>13.64</speed><time>2016-06-30T15:55:56Z</time><pdop>12.0</pdop><geoidheight>53.00</geoidheight><course>74.3</course><type>1</type></trkpt>
      <trkpt lat="40.93127427" lon="-4.1726382"><ele>1949</ele><speed>14.78</speed><time>2016-06-30T15:55:58Z</time><pdop>12.0</pdop><geoidheight>53.00</geoidheight><course>73.7</course><type>1</type></trkpt>
      <trkpt lat="40.93136644" lon="-4.17228282"><ele>1948</ele><speed>15.34</speed><time>2016-06-30T15:56:00Z</time><pdop>13.0</pdop><geoidheight>53.00</geoidheight><course>71.8</course><type>1</type></trkpt>
      <trkpt lat="40.93145678" lon="-4.17192364"><ele>1947</ele><speed>15.74</speed><time>2016-06-30T15:56:02Z</time><pdop>12.0</pdop><geoidheight>53.00</geoidheight><course>70.7</course><type>1</type></trkpt>
      <trkpt lat="40.93156998" lon="-4.17158371"><ele>1945</ele><speed>15.48</speed><time>2016-06-30T15:56:04Z</time><pdop>12.0</pdop><geoidheight>53.00</geoidheight><course>67.5</course><type>1</type></trkpt>
      <trkpt lat="40.93171826" lon="-4.17123623"><ele>1943</ele><speed>16.08</speed><time>2016-06-30T15:56:06Z</time><pdop>12.0</pdop><geoidheight>53.00</geoidheight><course>64.3</course><type>1</type></trkpt>
      <trkpt lat="40.93181113" lon="-4.1708813"><ele>1943</ele><speed>16.15</speed><time>2016-06-30T15:56:08Z</time><pdop>12.0</pdop><geoidheight>53.00</geoidheight><course>67.2</course><type>1</type></trkpt>
      <trkpt lat="40.93190264" lon="-4.17052422"><ele>1940</ele><speed>15.90</speed><time>2016-06-30T15:56:10Z</time><pdop>12.0</pdop><geoidheight>53.00</geoidheight><course>68.6</course><type>1</type></trkpt>
      <trkpt lat="40.93200585" lon="-4.17016763"><ele>1939</ele><speed>15.77</speed><time>2016-06-30T15:56:12Z</time><pdop>12.0</pdop><geoidheight>53.00</geoidheight><course>70.6</course><type>1</type></trkpt>
      <trkpt lat="40.93207609" lon="-4.16984711"><ele>1936</ele><speed>14.56</speed><time>2016-06-30T15:56:14Z</time><pdop>11.0</pdop><geoidheight>53.00</geoidheight><course>73.8</course><type>1</type></trkpt>
      <trkpt lat="40.93213197" lon="-4.16950129"><ele>1934</ele><speed>15.15</speed><time>2016-06-30T15:56:16Z</time><pdop>11.0</pdop><geoidheight>53.00</geoidheight><course>73.6</course><type>1</type></trkpt>
      <trkpt lat="40.93220415" lon="-4.16914757"><ele>1931</ele><speed>16.21</speed><time>2016-06-30T15:56:18Z</time><pdop>11.0</pdop><geoidheight>53.00</geoidheight><course>72.3</course><type>1</type></trkpt>
      <trkpt lat="40.93229145" lon="-4.16876045"><ele>1931</ele><speed>16.81</speed><time>2016-06-30T15:56:20Z</time><pdop>11.0</pdop><geoidheight>53.00</geoidheight><course>72.4</course><type>1</type></trkpt>
      <trkpt lat="40.93241881" lon="-4.16839782"><ele>1931</ele><speed>16.24</speed><time>2016-06-30T15:56:22Z</time><pdop>11.0</pdop><geoidheight>53.00</geoidheight><course>69.1</course><type>1</type></trkpt>
      <trkpt lat="40.93249563" lon="-4.16806195"><ele>1930</ele><speed>15.00</speed><time>2016-06-30T15:56:24Z</time><pdop>12.0</pdop><geoidheight>53.00</geoidheight><course>69.2</course><type>1</type></trkpt>
      <trkpt lat="40.93258471" lon="-4.16773421"><ele>1931</ele><speed>14.58</speed><time>2016-06-30T15:56:26Z</time><pdop>12.0</pdop><geoidheight>53.00</geoidheight><course>66.9</course><type>1</type></trkpt>
      <trkpt lat="40.93274205" lon="-4.16739862"><ele>1931</ele><speed>15.63</speed><time>2016-06-30T15:56:28Z</time><pdop>14.0</pdop><geoidheight>53.00</geoidheight><course>62.9</course><type>1</type></trkpt>
      <trkpt lat="40.93290556" lon="-4.16703469"><ele>1930</ele><speed>17.21</speed><time>2016-06-30T15:56:30Z</time><pdop>17.0</pdop><geoidheight>53.00</geoidheight><course>62.3</course><type>1</type></trkpt>
      <trkpt lat="40.93291164" lon="-4.16666036"><ele>1930</ele><speed>15.16</speed><time>2016-06-30T15:56:32Z</time><pdop>12.0</pdop><geoidheight>53.00</geoidheight><course>79.8</course><type>1</type></trkpt>
      <trkpt lat="40.93293188" lon="-4.16634985"><ele>1930</ele><speed>12.93</speed><time>2016-06-30T15:56:34Z</time><pdop>11.0</pdop><geoidheight>53.00</geoidheight><course>85.5</course><type>1</type></trkpt>
      <trkpt lat="40.93295778" lon="-4.16604229"><ele>1931</ele><speed>14.05</speed><time>2016-06-30T15:56:36Z</time><pdop>11.0</pdop><geoidheight>53.00</geoidheight><course>84.1</course><type>1</type></trkpt>
      <trkpt lat="40.93306547" lon="-4.16566733"><ele>1931</ele><speed>15.83</speed><time>2016-06-30T15:56:38Z</time><pdop>11.0</pdop><geoidheight>53.00</geoidheight><course>72.8</course><type>1</type></trkpt>
      <trkpt lat="40.93316723" lon="-4.16529304"><ele>1930</ele><speed>16.06</speed><time>2016-06-30T15:56:40Z</time><pdop>11.0</pdop><geoidheight>53.00</geoidheight><course>71.9</course><type>1</type></trkpt>
      <trkpt lat="40.9332811" lon="-4.16493746"><ele>1931</ele><speed>16.23</speed><time>2016-06-30T15:56:42Z</time><pdop>11.0</pdop><geoidheight>53.00</geoidheight><course>70.7</course><type>1</type></trkpt>
      <trkpt lat="40.9335026" lon="-4.16457593"><ele>1931</ele><speed>17.63</speed><time>2016-06-30T15:56:44Z</time><pdop>11.0</pdop><geoidheight>53.00</geoidheight><course>63.1</course><type>1</type></trkpt>
      <trkpt lat="40.93363981" lon="-4.16421169"><ele>1936</ele><speed>16.17</speed><time>2016-06-30T15:56:46Z</time><pdop>10.0</pdop><geoidheight>53.00</geoidheight><course>66.7</course><type>1</type></trkpt>
      <trkpt lat="40.93374501" lon="-4.16387705"><ele>1937</ele><speed>15.17</speed><time>2016-06-30T15:56:48Z</time><pdop>10.0</pdop><geoidheight>53.00</geoidheight><course>69.0</course><type>1</type></trkpt>
      <trkpt lat="40.93381938" lon="-4.1635196"><ele>1938</ele><speed>15.75</speed><time>2016-06-30T15:56:50Z</time><pdop>10.0</pdop><geoidheight>53.00</geoidheight><course>70.4</course><type>1</type></trkpt>
      <trkpt lat="40.93392481" lon="-4.16315918"><ele>1939</ele><speed>16.36</speed><time>2016-06-30T15:56:52Z</time><pdop>10.0</pdop><geoidheight>53.00</geoidheight><course>67.6</course><type>1</type></trkpt>
      <trkpt lat="40.93406565" lon="-4.16282111"><ele>1941</ele><speed>16.24</speed><time>2016-06-30T15:56:54Z</time><pdop>10.0</pdop><geoidheight>53.00</geoidheight><course>64.0</course><type>1</type></trkpt>
      <trkpt lat="40.93419791" lon="-4.16246651"><ele>1943</ele><speed>16.78</speed><time>2016-06-30T15:56:56Z</time><pdop>10.0</pdop><geoidheight>53.00</geoidheight><course>67.9</course><type>1</type></trkpt>
      <trkpt lat="40.93427581" lon="-4.16208686"><ele>1943</ele><speed>16.77</speed><time>2016-06-30T15:56:58Z</time><pdop>10.0</pdop><geoidheight>53.00</geoidheight><course>68.1</course><type>1</type></trkpt>
      <trkpt lat="40.93438137" lon="-4.16173609"><ele>1943</ele><speed>16.13</speed><time>2016-06-30T15:57:00Z</time><pdop>11.0</pdop><geoidheight>53.00</geoidheight><course>65.8</course><type>1</type></trkpt>
      <trkpt lat="40.93454072" lon="-4.16136332"><ele>1945</ele><speed>17.54</speed><time>2016-06-30T15:57:02Z</time><pdop>10.0</pdop><geoidheight>53.00</geoidheight><course>63.8</course><type>1</type></trkpt>
      <trkpt lat="40.93466259" lon="-4.16099464"><ele>1947</ele><speed>17.14</speed><time>2016-06-30T15:57:04Z</time><pdop>11.0</pdop><geoidheight>53.00</geoidheight><course>65.5</course><type>1</type></trkpt>
      <trkpt lat="40.93480164" lon="-4.16059482"><ele>1948</ele><speed>17.75</speed><time>2016-06-30T15:57:06Z</time><pdop>12.0</pdop><geoidheight>53.00</geoidheight><course>67.4</course><type>1</type></trkpt>
      <trkpt lat="40.93495" lon="-4.16019801"><ele>1949</ele><speed>18.35</speed><time>2016-06-30T15:57:08Z</time><pdop>14.0</pdop><geoidheight>53.00</geoidheight><course>65.8</course><type>1</type></trkpt>
      <trkpt lat="40.935084" lon="-4.15983928"><ele>1949</ele><speed>16.47</speed><time>2016-06-30T15:57:10Z</time><pdop>13.0</pdop><geoidheight>53.00</geoidheight><course>65.7</course><type>1</type></trkpt>
      <trkpt lat="40.93524021" lon="-4.15951839"><ele>1950</ele><speed>15.25</speed><time>2016-06-30T15:57:12Z</time><pdop>13.0</pdop><geoidheight>53.00</geoidheight><course>64.7</course><type>1</type></trkpt>
      <trkpt lat="40.93536805" lon="-4.15917018"><ele>1949</ele><speed>16.43</speed><time>2016-06-30T15:57:14Z</time><pdop>13.0</pdop><geoidheight>53.00</geoidheight><course>64.0</course><type>1</type></trkpt>
      <trkpt lat="40.9354823" lon="-4.15879731"><ele>1948</ele><speed>17.22</speed><time>2016-06-30T15:57:16Z</time><pdop>11.0</pdop><geoidheight>53.00</geoidheight><course>65.3</course><type>1</type></trkpt>
      <trkpt lat="40.93560694" lon="-4.15840846"><ele>1948</ele><speed>17.76</speed><time>2016-06-30T15:57:18Z</time><pdop>11.0</pdop><geoidheight>53.00</geoidheight><course>67.0</course><type>1</type></trkpt>
      <trkpt lat="40.93567716" lon="-4.15801708"><ele>1947</ele><speed>17.29</speed><time>2016-06-30T15:57:20Z</time><pdop>11.0</pdop><geoidheight>53.00</geoidheight><course>73.6</course><type>1</type></trkpt>
      <trkpt lat="40.93576233" lon="-4.15761811"><ele>1946</ele><speed>17.35</speed><time>2016-06-30T15:57:22Z</time><pdop>12.0</pdop><geoidheight>53.00</geoidheight><course>73.0</course><type>1</type></trkpt>
      <trkpt lat="40.93589174" lon="-4.15723954"><ele>1946</ele><speed>17.26</speed><time>2016-06-30T15:57:24Z</time><pdop>14.0</pdop><geoidheight>53.00</geoidheight><course>69.3</course><type>1</type></trkpt>
      <trkpt lat="40.93604784" lon="-4.15685141"><ele>1947</ele><speed>17.79</speed><time>2016-06-30T15:57:26Z</time><pdop>16.0</pdop><geoidheight>53.00</geoidheight><course>66.7</course><type>1</type></trkpt>
      <trkpt lat="40.93619173" lon="-4.15641665"><ele>1950</ele><speed>18.05</speed><time>2016-06-30T15:57:28Z</time><pdop>14.0</pdop><geoidheight>53.00</geoidheight><course>66.4</course><type>1</type></trkpt>
      <trkpt lat="40.93632932" lon="-4.15604249"><ele>1950</ele><speed>17.78</speed><time>2016-06-30T15:57:30Z</time><pdop>13.0</pdop><geoidheight>53.00</geoidheight><course>63.7</course><type>1</type></trkpt>
      <trkpt lat="40.93645913" lon="-4.1556442"><ele>1949</ele><speed>18.88</speed><time>2016-06-30T15:57:32Z</time><pdop>13.0</pdop><geoidheight>53.00</geoidheight><course>66.7</course><type>1</type></trkpt>
      <trkpt lat="40.93655712" lon="-4.15519953"><ele>1948</ele><speed>19.16</speed><time>2016-06-30T15:57:34Z</time><pdop>12.0</pdop><geoidheight>53.00</geoidheight><course>72.6</course><type>1</type></trkpt>
      <trkpt lat="40.93666666" lon="-4.15478554"><ele>1947</ele><speed>18.77</speed><time>2016-06-30T15:57:36Z</time><pdop>12.0</pdop><geoidheight>53.00</geoidheight><course>71.2</course><type>1</type></trkpt>
      <trkpt lat="40.93678328" lon="-4.15434623"><ele>1946</ele><speed>19.66</speed><time>2016-06-30T15:57:38Z</time><pdop>12.0</pdop><geoidheight>53.00</geoidheight><course>69.7</course><type>1</type></trkpt>
      <trkpt lat="40.9369511" lon="-4.15390163"><ele>1947</ele><speed>20.05</speed><time>2016-06-30T15:57:40Z</time><pdop>11.0</pdop><geoidheight>53.00</geoidheight><course>65.7</course><type>1</type></trkpt>
      <trkpt lat="40.93709594" lon="-4.15349392"><ele>1949</ele><speed>18.27</speed><time>2016-06-30T15:57:42Z</time><pdop>10.0</pdop><geoidheight>53.00</geoidheight><course>68.9</course><type>1</type></trkpt>
      <trkpt lat="40.93716195" lon="-4.15309224"><ele>1946</ele><speed>17.52</speed><time>2016-06-30T15:57:44Z</time><pdop>10.0</pdop><geoidheight>53.00</geoidheight><course>71.9</course><type>1</type></trkpt>
      <trkpt lat="40.93729744" lon="-4.15269026"><ele>1945</ele><speed>18.23</speed><time>2016-06-30T15:57:46Z</time><pdop>10.0</pdop><geoidheight>53.00</geoidheight><course>68.3</course><type>1</type></trkpt>
      <trkpt lat="40.93744165" lon="-4.15227718"><ele>1944</ele><speed>18.91</speed><time>2016-06-30T15:57:48Z</time><pdop>10.0</pdop><geoidheight>53.00</geoidheight><course>65.2</course><type>1</type></trkpt>
      <trkpt lat="40.93758648" lon="-4.15185727"><ele>1944</ele><speed>19.34</speed><time>2016-06-30T15:57:50Z</time><pdop>10.0</pdop><geoidheight>53.00</geoidheight><course>65.3</course><type>1</type></trkpt>
      <trkpt lat="40.93771484" lon="-4.1514272"><ele>1940</ele><speed>20.02</speed><time>2016-06-30T15:57:52Z</time><pdop>11.0</pdop><geoidheight>53.00</geoidheight><course>67.3</course><type>1</type></trkpt>
      <trkpt lat="40.93783964" lon="-4.15098484"><ele>1940</ele><speed>19.61</speed><time>2016-06-30T15:57:54Z</time><pdop>10.0</pdop><geoidheight>53.00</geoidheight><course>68.0</course><type>1</type></trkpt>
      <trkpt lat="40.937925" lon="-4.15055277"><ele>1935</ele><speed>19.32</speed><time>2016-06-30T15:57:56Z</time><pdop>10.0</pdop><geoidheight>53.00</geoidheight><course>68.8</course><type>1</type></trkpt>
      <trkpt lat="40.93805617" lon="-4.15011651"><ele>1933</ele><speed>19.50</speed><time>2016-06-30T15:57:58Z</time><pdop>10.0</pdop><geoidheight>53.00</geoidheight><course>69.1</course><type>1</type></trkpt>
      <trkpt lat="40.93820854" lon="-4.14967701"><ele>1929</ele><speed>20.12</speed><time>2016-06-30T15:58:00Z</time><pdop>12.0</pdop><geoidheight>53.00</geoidheight><course>64.7</course><type>1</type></trkpt>
      <trkpt lat="40.93837654" lon="-4.14926845"><ele>1925</ele><speed>19.95</speed><time>2016-06-30T15:58:02Z</time><pdop>13.0</pdop><geoidheight>53.00</geoidheight><course>61.7</course><type>1</type></trkpt>
      <trkpt lat="40.9384676" lon="-4.14884888"><ele>1912</ele><speed>18.50</speed><time>2016-06-30T15:58:04Z</time><pdop>11.0</pdop><geoidheight>53.00</geoidheight><course>66.7</course><type>1</type></trkpt>
      <trkpt lat="40.9385514" lon="-4.14846468"><ele>1904</ele><speed>17.28</speed><time>2016-06-30T15:58:06Z</time><pdop>11.0</pdop><geoidheight>53.00</geoidheight><course>68.7</course><type>1</type></trkpt>
      <trkpt lat="40.93859545" lon="-4.14809542"><ele>1899</ele><speed>16.65</speed><time>2016-06-30T15:58:08Z</time><pdop>11.0</pdop><geoidheight>53.00</geoidheight><course>70.7</course><type>1</type></trkpt>
      <trkpt lat="40.93871983" lon="-4.14767388"><ele>1897</ele><speed>18.34</speed><time>2016-06-30T15:58:10Z</time><pdop>12.0</pdop><geoidheight>53.00</geoidheight><course>71.0</course><type>1</type></trkpt>
      <trkpt lat="40.93883393" lon="-4.14722643"><ele>1895</ele><speed>19.32</speed><time>2016-06-30T15:58:12Z</time><pdop>12.0</pdop><geoidheight>53.00</geoidheight><course>72.4</course><type>1</type></trkpt>
      <trkpt lat="40.93891969" lon="-4.14677586"><ele>1891</ele><speed>19.33</speed><time>2016-06-30T15:58:14Z</time><pdop>12.0</pdop><geoidheight>53.00</geoidheight><course>75.5</course><type>1</type></trkpt>
      <trkpt lat="40.9390359" lon="-4.14632381"><ele>1887</ele><speed>18.99</speed><time>2016-06-30T15:58:16Z</time><pdop>12.0</pdop><geoidheight>53.00</geoidheight><course>75.7</course><type>1</type></trkpt>
      <trkpt lat="40.93910219" lon="-4.14588507"><ele>1884</ele><speed>18.82</speed><time>2016-06-30T15:58:18Z</time><pdop>12.0</pdop><geoidheight>53.00</geoidheight><course>78.2</course><type>1</type></trkpt>
      <trkpt lat="40.9390716" lon="-4.1454448"><ele>1870</ele><speed>19.32</speed><time>2016-06-30T15:58:20Z</time><pdop>12.0</pdop><geoidheight>53.00</geoidheight><course>83.8</course><type>1</type></trkpt>
      <trkpt lat="40.93908557" lon="-4.144982"><ele>1855</ele><speed>20.28</speed><time>2016-06-30T15:58:22Z</time><pdop>12.0</pdop><geoidheight>53.00</geoidheight><course>82.3</course><type>1</type></trkpt>
      <trkpt lat="40.9390726" lon="-4.14452557"><ele>1843</ele><speed>18.90</speed><time>2016-06-30T15:58:24Z</time><pdop>12.0</pdop><geoidheight>53.00</geoidheight><course>82.3</course><type>1</type></trkpt>
      <trkpt lat="40.93909153" lon="-4.14408887"><ele>1837</ele><speed>18.77</speed><time>2016-06-30T15:58:26Z</time><pdop>12.0</pdop><geoidheight>53.00</geoidheight><course>81.3</course><type>1</type></trkpt>
      <trkpt lat="40.93914321" lon="-4.14363232"><ele>1831</ele><speed>19.63</speed><time>2016-06-30T15:58:28Z</time><pdop>12.0</pdop><geoidheight>53.00</geoidheight><course>77.8</course><type>1</type></trkpt>
      <trkpt lat="40.93923411" lon="-4.14318395"><ele>1827</ele><speed>19.64</speed><time>2016-06-30T15:58:30Z</time><pdop>13.0</pdop><geoidheight>53.00</geoidheight><course>75.2</course><type>1</type></trkpt>
      <trkpt lat="40.93927542" lon="-4.14273459"><ele>1823</ele><speed>18.93</speed><time>2016-06-30T15:58:32Z</time><pdop>13.0</pdop><geoidheight>53.00</geoidheight><course>79.7</course><type>1</type></trkpt>
      <trkpt lat="40.93931906" lon="-4.1422987"><ele>1817</ele><speed>18.05</speed><time>2016-06-30T15:58:34Z</time><pdop>13.0</pdop><geoidheight>53.00</geoidheight><course>80.1</course><type>1</type></trkpt>
      <trkpt lat="40.93941262" lon="-4.14187264"><ele>1812</ele><speed>17.34</speed><time>2016-06-30T15:58:36Z</time><pdop>13.0</pdop><geoidheight>53.00</geoidheight><course>74.9</course><type>1</type></trkpt>
      <trkpt lat="40.93944371" lon="-4.1414854"><ele>1808</ele><speed>16.74</speed><time>2016-06-30T15:58:38Z</time><pdop>12.0</pdop><geoidheight>53.00</geoidheight><course>77.7</course><type>1</type></trkpt>
      <trkpt lat="40.93947566" lon="-4.14108087"><ele>1805</ele><speed>17.13</speed><time>2016-06-30T15:58:40Z</time><pdop>13.0</pdop><geoidheight>53.00</geoidheight><course>81.5</course><type>1</type></trkpt>
      <trkpt lat="40.93955435" lon="-4.14064242"><ele>1803</ele><speed>18.61</speed><time>2016-06-30T15:58:42Z</time><pdop>14.0</pdop><geoidheight>53.00</geoidheight><course>78.9</course><type>1</type></trkpt>
      <trkpt lat="40.93965309" lon="-4.14017109"><ele>1799</ele><speed>19.41</speed><time>2016-06-30T15:58:44Z</time><pdop>15.0</pdop><geoidheight>53.00</geoidheight><course>76.6</course><type>1</type></trkpt>
      <trkpt lat="40.93965345" lon="-4.13976171"><ele>1794</ele><speed>18.01</speed><time>2016-06-30T15:58:46Z</time><pdop>12.0</pdop><geoidheight>53.00</geoidheight><course>81.6</course><type>1</type></trkpt>
      <trkpt lat="40.93965436" lon="-4.13932475"><ele>1788</ele><speed>18.41</speed><time>2016-06-30T15:58:48Z</time><pdop>12.0</pdop><geoidheight>53.00</geoidheight><course>84.0</course><type>1</type></trkpt>
      <trkpt lat="40.93964284" lon="-4.13886255"><ele>1784</ele><speed>19.14</speed><time>2016-06-30T15:58:50Z</time><pdop>12.0</pdop><geoidheight>53.00</geoidheight><course>89.8</course><type>1</type></trkpt>
      <trkpt lat="40.93963595" lon="-4.13839803"><ele>1780</ele><speed>18.74</speed><time>2016-06-30T15:58:52Z</time><pdop>12.0</pdop><geoidheight>53.00</geoidheight><course>92.1</course><type>1</type></trkpt>
      <trkpt lat="40.93955486" lon="-4.13793478"><ele>1772</ele><speed>18.89</speed><time>2016-06-30T15:58:54Z</time><pdop>12.0</pdop><geoidheight>53.00</geoidheight><course>93.8</course><type>1</type></trkpt>
      <trkpt lat="40.9395102" lon="-4.13747433"><ele>1768</ele><speed>18.63</speed><time>2016-06-30T15:58:56Z</time><pdop>11.0</pdop><geoidheight>53.00</geoidheight><course>93.4</course><type>1</type></trkpt>
      <trkpt lat="40.93952941" lon="-4.13702859"><ele>1762</ele><speed>18.93</speed><time>2016-06-30T15:58:58Z</time><pdop>11.0</pdop><geoidheight>53.00</geoidheight><course>85.1</course><type>1</type></trkpt>
      <trkpt lat="40.93958419" lon="-4.1365901"><ele>1756</ele><speed>18.66</speed><time>2016-06-30T15:59:00Z</time><pdop>11.0</pdop><geoidheight>53.00</geoidheight><course>82.8</course><type>1</type></trkpt>
      <trkpt lat="40.93986869" lon="-4.13402264"><ele>1939</ele><speed>13.60</speed><time>2016-06-30T15:59:13Z</time><pdop>11.0</pdop><geoidheight>53.00</geoidheight><course>77.5</course><type>1</type></trkpt>
      <trkpt lat="40.93987839" lon="-4.13366392"><ele>1898</ele><speed>15.22</speed><time>2016-06-30T15:59:15Z</time><pdop>12.0</pdop><geoidheight>53.00</geoidheight><course>86.2</course><type>1</type></trkpt>
      <trkpt lat="40.9398666" lon="-4.1332658"><ele>1834</ele><speed>15.89</speed><time>2016-06-30T15:59:17Z</time><pdop>11.0</pdop><geoidheight>53.00</geoidheight><course>85.1</course><type>1</type></trkpt>
      <trkpt lat="40.93987896" lon="-4.13291538"><ele>1819</ele><speed>15.14</speed><time>2016-06-30T15:59:19Z</time><pdop>11.0</pdop><geoidheight>53.00</geoidheight><course>83.3</course><type>1</type></trkpt>
      <trkpt lat="40.93989699" lon="-4.13252158"><ele>1799</ele><speed>16.65</speed><time>2016-06-30T15:59:21Z</time><pdop>11.0</pdop><geoidheight>53.00</geoidheight><course>85.9</course><type>1</type></trkpt>
      <trkpt lat="40.93994075" lon="-4.13211967"><ele>1788</ele><speed>17.76</speed><time>2016-06-30T15:59:23Z</time><pdop>11.0</pdop><geoidheight>53.00</geoidheight><course>79.2</course><type>1</type></trkpt>
      <trkpt lat="40.94001899" lon="-4.13173848"><ele>1754</ele><speed>16.49</speed><time>2016-06-30T15:59:25Z</time><pdop>10.0</pdop><geoidheight>53.00</geoidheight><course>73.9</course><type>1</type></trkpt>
      <trkpt lat="40.94009658" lon="-4.13142464"><ele>1749</ele><speed>14.52</speed><time>2016-06-30T15:59:27Z</time><pdop>12.0</pdop><geoidheight>53.00</geoidheight><course>71.3</course><type>1</type></trkpt>
      <trkpt lat="40.9402023" lon="-4.13110255"><ele>1746</ele><speed>14.85</speed><time>2016-06-30T15:59:29Z</time><pdop>14.0</pdop><geoidheight>53.00</geoidheight><course>69.0</course><type>1</type></trkpt>
      <trkpt lat="40.94040212" lon="-4.13076384"><ele>1735</ele><speed>15.99</speed><time>2016-06-30T15:59:31Z</time><pdop>14.0</pdop><geoidheight>53.00</geoidheight><course>60.0</course><type>1</type></trkpt>
      <trkpt lat="40.94068683" lon="-4.13044295"><ele>1734</ele><speed>17.16</speed><time>2016-06-30T15:59:33Z</time><pdop>13.0</pdop><geoidheight>53.00</geoidheight><course>47.5</course><type>1</type></trkpt>
      <trkpt lat="40.94085583" lon="-4.13018472"><ele>1737</ele><speed>16.36</speed><time>2016-06-30T15:59:35Z</time><pdop>13.0</pdop><geoidheight>53.00</geoidheight><course>41.7</course><type>1</type></trkpt>
      <trkpt lat="40.94110027" lon="-4.12995754"><ele>1722</ele><speed>16.75</speed><time>2016-06-30T15:59:37Z</time><pdop>13.0</pdop><geoidheight>53.00</geoidheight><course>37.6</course><type>1</type></trkpt>
      <trkpt lat="40.94134018" lon="-4.12969017"><ele>1713</ele><speed>16.66</speed><time>2016-06-30T15:59:39Z</time><pdop>12.0</pdop><geoidheight>53.00</geoidheight><course>37.2</course><type>1</type></trkpt>
      <trkpt lat="40.94158219" lon="-4.12941766"><ele>1714</ele><speed>17.38</speed><time>2016-06-30T15:59:41Z</time><pdop>13.0</pdop><geoidheight>53.00</geoidheight><course>41.7</course><type>1</type></trkpt>
      <trkpt lat="40.94182408" lon="-4.12916962"><ele>1707</ele><speed>17.26</speed><time>2016-06-30T15:59:43Z</time><pdop>12.0</pdop><geoidheight>53.00</geoidheight><course>40.6</course><type>1</type></trkpt>
      <trkpt lat="40.94204126" lon="-4.12895784"><ele>1704</ele><speed>15.88</speed><time>2016-06-30T15:59:45Z</time><pdop>12.0</pdop><geoidheight>53.00</geoidheight><course>32.7</course><type>1</type></trkpt>
      <trkpt lat="40.94228926" lon="-4.12872152"><ele>1701</ele><speed>13.13</speed><time>2016-06-30T15:59:48Z</time><pdop>15.0</pdop><geoidheight>53.00</geoidheight><course>29.8</course><type>1</type></trkpt>
      <trkpt lat="40.94257103" lon="-4.12851069"><ele>1686</ele><speed>10.45</speed><time>2016-06-30T15:59:52Z</time><pdop>20.0</pdop><geoidheight>53.00</geoidheight><course>25.6</course><type>1</type></trkpt>
      <trkpt lat="40.9430074" lon="-4.12852107"><ele>1677</ele><speed>12.38</speed><time>2016-06-30T15:59:55Z</time><pdop>17.0</pdop><geoidheight>53.00</geoidheight><course>359.7</course><type>1</type></trkpt>
      <trkpt lat="40.94334568" lon="-4.12847948"><ele>1669</ele><speed>13.12</speed><time>2016-06-30T15:59:58Z</time><pdop>17.0</pdop><geoidheight>53.00</geoidheight><course>7.7</course><type>1</type></trkpt>
      <trkpt lat="40.94372885" lon="-4.12836973"><ele>1656</ele><speed>11.69</speed><time>2016-06-30T16:00:03Z</time><pdop>16.0</pdop><geoidheight>53.00</geoidheight><course>7.8</course><type>1</type></trkpt>
      <trkpt lat="40.94409888" lon="-4.12850495"><ele>1652</ele><speed>10.22</speed><time>2016-06-30T16:00:07Z</time><pdop>16.0</pdop><geoidheight>53.00</geoidheight><course>337.6</course><type>1</type></trkpt>
      <trkpt lat="40.94434565" lon="-4.1286771"><ele>1642</ele><speed>9.11</speed><time>2016-06-30T16:00:11Z</time><pdop>15.0</pdop><geoidheight>53.00</geoidheight><course>336.4</course><type>1</type></trkpt>
      <trkpt lat="40.94461554" lon="-4.12886185"><ele>1637</ele><speed>9.36</speed><time>2016-06-30T16:00:15Z</time><pdop>14.0</pdop><geoidheight>53.00</geoidheight><course>337.3</course><type>1</type></trkpt>
      <trkpt lat="40.94491086" lon="-4.12894157"><ele>1617</ele><speed>10.44</speed><time>2016-06-30T16:00:19Z</time><pdop>13.0</pdop><geoidheight>53.00</geoidheight><course>350.9</course><type>1</type></trkpt>
      <trkpt lat="40.94513099" lon="-4.12910925"><ele>1605</ele><speed>7.84</speed><time>2016-06-30T16:00:23Z</time><pdop>13.0</pdop><geoidheight>53.00</geoidheight><course>328.0</course><type>1</type></trkpt>
      <trkpt lat="40.94534641" lon="-4.12930682"><ele>1593</ele><speed>8.86</speed><time>2016-06-30T16:00:27Z</time><pdop>14.0</pdop><geoidheight>53.00</geoidheight><course>331.5</course><type>1</type></trkpt>
      <trkpt lat="40.94561832" lon="-4.12950732"><ele>1585</ele><speed>9.86</speed><time>2016-06-30T16:00:31Z</time><pdop>17.0</pdop><geoidheight>53.00</geoidheight><course>334.5</course><type>1</type></trkpt>
      <trkpt lat="40.94596089" lon="-4.12964223"><ele>1562</ele><speed>8.28</speed><time>2016-06-30T16:00:37Z</time><pdop>14.0</pdop><geoidheight>53.00</geoidheight><course>0.9</course><type>1</type></trkpt>
      <trkpt lat="40.94626677" lon="-4.12962155"><ele>1549</ele><speed>9.21</speed><time>2016-06-30T16:00:41Z</time><pdop>16.0</pdop><geoidheight>53.00</geoidheight><course>4.8</course><type>1</type></trkpt>
      <trkpt lat="40.94652942" lon="-4.1294408"><ele>1542</ele><speed>12.24</speed><time>2016-06-30T16:00:44Z</time><pdop>15.0</pdop><geoidheight>53.00</geoidheight><course>21.9</course><type>1</type></trkpt>
      <trkpt lat="40.94686028" lon="-4.12946079"><ele>1534</ele><speed>11.71</speed><time>2016-06-30T16:00:47Z</time><pdop>14.0</pdop><geoidheight>53.00</geoidheight><course>346.7</course><type>1</type></trkpt>
      <trkpt lat="40.94716521" lon="-4.12957116"><ele>1527</ele><speed>9.62</speed><time>2016-06-30T16:00:51Z</time><pdop>16.0</pdop><geoidheight>53.00</geoidheight><course>348.4</course><type>1</type></trkpt>
      <trkpt lat="40.94750057" lon="-4.12979953"><ele>1522</ele><speed>11.71</speed><time>2016-06-30T16:00:55Z</time><pdop>22.0</pdop><geoidheight>53.00</geoidheight><course>332.9</course><type>1</type></trkpt>
      <trkpt lat="40.94778755" lon="-4.13020547"><ele>1504</ele><speed>8.88</speed><time>2016-06-30T16:01:01Z</time><pdop>17.0</pdop><geoidheight>53.00</geoidheight><course>316.9</course><type>1</type></trkpt>
      <trkpt lat="40.94802099" lon="-4.13044268"><ele>1492</ele><speed>7.85</speed><time>2016-06-30T16:01:05Z</time><pdop>14.0</pdop><geoidheight>53.00</geoidheight><course>309.2</course><type>1</type></trkpt>
      <trkpt lat="40.9481928" lon="-4.13068776"><ele>1487</ele><speed>9.82</speed><time>2016-06-30T16:01:08Z</time><pdop>14.0</pdop><geoidheight>53.00</geoidheight><course>314.3</course><type>1</type></trkpt>
      <trkpt lat="40.94840647" lon="-4.13104304"><ele>1483</ele><speed>10.08</speed><time>2016-06-30T16:01:12Z</time><pdop>14.0</pdop><geoidheight>53.00</geoidheight><course>314.7</course><type>1</type></trkpt>
      <trkpt lat="40.94859398" lon="-4.13132063"><ele>1476</ele><speed>10.39</speed><time>2016-06-30T16:01:15Z</time><pdop>14.0</pdop><geoidheight>53.00</geoidheight><course>319.6</course><type>1</type></trkpt>
      <trkpt lat="40.94881704" lon="-4.13151115"><ele>1473</ele><speed>10.68</speed><time>2016-06-30T16:01:18Z</time><pdop>15.0</pdop><geoidheight>53.00</geoidheight><course>327.4</course><type>1</type></trkpt>
      <trkpt lat="40.94880313" lon="-4.13187635"><ele>1442</ele><speed>9.65</speed><time>2016-06-30T16:01:21Z</time><pdop>15.0</pdop><geoidheight>53.00</geoidheight><course>314.8</course><type>1</type></trkpt>
      <trkpt lat="40.94897891" lon="-4.13223606"><ele>1424</ele><speed>10.89</speed><time>2016-06-30T16:01:25Z</time><pdop>14.0</pdop><geoidheight>53.00</geoidheight><course>318.5</course><type>1</type></trkpt>
      <trkpt lat="40.94919566" lon="-4.13244242"><ele>1410</ele><speed>10.59</speed><time>2016-06-30T16:01:28Z</time><pdop>13.0</pdop><geoidheight>53.00</geoidheight><course>323.1</course><type>1</type></trkpt>
      <trkpt lat="40.94949413" lon="-4.13270321"><ele>1403</ele><speed>13.04</speed><time>2016-06-30T16:01:31Z</time><pdop>14.0</pdop><geoidheight>53.00</geoidheight><course>328.2</course><type>1</type></trkpt>
      <trkpt lat="40.94973565" lon="-4.13293052"><ele>1398</ele><speed>11.80</speed><time>2016-06-30T16:01:34Z</time><pdop>15.0</pdop><geoidheight>53.00</geoidheight><course>319.7</course><type>1</type></trkpt>
      <trkpt lat="40.94999292" lon="-4.13325103"><ele>1387</ele><speed>13.55</speed><time>2016-06-30T16:01:37Z</time><pdop>15.0</pdop><geoidheight>53.00</geoidheight><course>320.3</course><type>1</type></trkpt>
      <trkpt lat="40.95032847" lon="-4.13338773"><ele>1378</ele><speed>13.52</speed><time>2016-06-30T16:01:40Z</time><pdop>13.0</pdop><geoidheight>53.00</geoidheight><course>326.4</course><type>1</type></trkpt>
      <trkpt lat="40.95051431" lon="-4.13363882"><ele>1373</ele><speed>9.42</speed><time>2016-06-30T16:01:43Z</time><pdop>12.0</pdop><geoidheight>53.00</geoidheight><course>317.4</course><type>1</type></trkpt>
      <trkpt lat="40.95068883" lon="-4.1337933"><ele>1369</ele><speed>11.57</speed><time>2016-06-30T16:01:45Z</time><pdop>11.0</pdop><geoidheight>53.00</geoidheight><course>320.3</course><type>1</type></trkpt>
      <trkpt lat="40.95086318" lon="-4.1339749"><ele>1367</ele><speed>12.17</speed><time>2016-06-30T16:01:47Z</time><pdop>12.0</pdop><geoidheight>53.00</geoidheight><course>319.5</course><type>1</type></trkpt>
      <trkpt lat="40.95105754" lon="-4.13419718"><ele>1365</ele><speed>9.81</speed><time>2016-06-30T16:01:50Z</time><pdop>10.0</pdop><geoidheight>53.00</geoidheight><course>317.9</course><type>1</type></trkpt>
      <trkpt lat="40.95160457" lon="-4.13518116"><ele>1672</ele><speed>9.71</speed><time>2016-06-30T16:02:00Z</time><pdop>11.0</pdop><geoidheight>53.00</geoidheight><course>308.7</course><type>1</type></trkpt>
      <trkpt lat="40.95172504" lon="-4.13539133"><ele>1565</ele><speed>11.48</speed><time>2016-06-30T16:02:02Z</time><pdop>11.0</pdop><geoidheight>53.00</geoidheight><course>310.5</course><type>1</type></trkpt>
      <trkpt lat="40.95186426" lon="-4.13569867"><ele>1508</ele><speed>11.03</speed><time>2016-06-30T16:02:05Z</time><pdop>13.0</pdop><geoidheight>53.00</geoidheight><course>299.5</course><type>1</type></trkpt>
      <trkpt lat="40.95159963" lon="-4.13581972"><ele>1476</ele><speed>5.69</speed><time>2016-06-30T16:02:09Z</time><pdop>14.0</pdop><geoidheight>53.00</geoidheight><course>202.4</course><type>1</type></trkpt>
      <trkpt lat="40.95133562" lon="-4.13584627"><ele>1461</ele><speed>8.67</speed><time>2016-06-30T16:02:11Z</time><pdop>14.0</pdop><geoidheight>53.00</geoidheight><course>188.0</course><type>1</type></trkpt>
      <trkpt lat="40.95110858" lon="-4.13561244"><ele>1443</ele><speed>10.97</speed><time>2016-06-30T16:02:13Z</time><pdop>13.0</pdop><geoidheight>53.00</geoidheight><course>155.9</course><type>1</type></trkpt>
      <trkpt lat="40.95092002" lon="-4.13531837"><ele>1425</ele><speed>12.96</speed><time>2016-06-30T16:02:15Z</time><pdop>12.0</pdop><geoidheight>53.00</geoidheight><course>130.6</course><type>1</type></trkpt>
      <trkpt lat="40.95079399" lon="-4.13502767"><ele>1407</ele><speed>12.07</speed><time>2016-06-30T16:02:17Z</time><pdop>11.0</pdop><geoidheight>53.00</geoidheight><course>117.7</course><type>1</type></trkpt>
      <trkpt lat="40.95068277" lon="-4.13476061"><ele>1397</ele><speed>11.92</speed><time>2016-06-30T16:02:19Z</time><pdop>11.0</pdop><geoidheight>53.00</geoidheight><course>117.7</course><type>1</type></trkpt>
      <trkpt lat="40.95055517" lon="-4.13450253"><ele>1393</ele><speed>12.80</speed><time>2016-06-30T16:02:21Z</time><pdop>11.0</pdop><geoidheight>53.00</geoidheight><course>123.4</course><type>1</type></trkpt>
      <trkpt lat="40.95042419" lon="-4.13425562"><ele>1380</ele><speed>11.94</speed><time>2016-06-30T16:02:23Z</time><pdop>9.0</pdop><geoidheight>53.00</geoidheight><course>126.0</course><type>1</type></trkpt>
      <trkpt lat="40.95031367" lon="-4.13404969"><ele>1377</ele><speed>10.00</speed><time>2016-06-30T16:02:25Z</time><pdop>9.0</pdop><geoidheight>53.00</geoidheight><course>126.1</course><type>1</type></trkpt>
      <trkpt lat="40.9502678" lon="-4.13380984"><ele>1374</ele><speed>10.49</speed><time>2016-06-30T16:02:27Z</time><pdop>10.0</pdop><geoidheight>53.00</geoidheight><course>109.1</course><type>1</type></trkpt>
      <trkpt lat="40.95018294" lon="-4.1335261"><ele>1374</ele><speed>12.34</speed><time>2016-06-30T16:02:29Z</time><pdop>5.0</pdop><geoidheight>53.00</geoidheight><course>117.0</course><type>1</type></trkpt>
      <trkpt lat="40.9501184" lon="-4.13339589"><ele>1377</ele><speed>12.41</speed><time>2016-06-30T16:02:30Z</time><pdop>6.0</pdop><geoidheight>53.00</geoidheight><course>121.2</course><type>1</type></trkpt>
      <trkpt lat="40.94992815" lon="-4.13337819"><ele>1371</ele><speed>5.96</speed><time>2016-06-30T16:02:33Z</time><pdop>10.0</pdop><geoidheight>53.00</geoidheight><course>165.4</course><type>1</type></trkpt>
      <trkpt lat="40.94965711" lon="-4.13348675"><ele>1376</ele><speed>8.72</speed><time>2016-06-30T16:02:36Z</time><pdop>14.0</pdop><geoidheight>53.00</geoidheight><course>182.8</course><type>1</type></trkpt>
      <trkpt lat="40.94960719" lon="-4.13307913"><ele>1375</ele><speed>6.66</speed><time>2016-06-30T16:02:48Z</time><pdop>16.0</pdop><geoidheight>53.00</geoidheight><course>107.6</course><type>1</type></trkpt>
      <trkpt lat="40.94970935" lon="-4.13263021"><ele>1370</ele><speed>10.61</speed><time>2016-06-30T16:02:51Z</time><pdop>15.0</pdop><geoidheight>53.00</geoidheight><course>77.5</course><type>1</type></trkpt>
      <trkpt lat="40.94991082" lon="-4.13227726"><ele>1363</ele><speed>11.48</speed><time>2016-06-30T16:02:53Z</time><pdop>9.0</pdop><geoidheight>53.00</geoidheight><course>55.3</course><type>1</type></trkpt>
      <trkpt lat="40.95005158" lon="-4.13213554"><ele>1356</ele><speed>8.77</speed><time>2016-06-30T16:02:55Z</time><pdop>6.0</pdop><geoidheight>53.00</geoidheight><course>46.2</course><type>1</type></trkpt>
      <trkpt lat="40.95014846" lon="-4.13195959"><ele>1351</ele><speed>10.16</speed><time>2016-06-30T16:02:57Z</time><pdop>7.0</pdop><geoidheight>53.00</geoidheight><course>48.3</course><type>1</type></trkpt>
      <trkpt lat="40.95030179" lon="-4.13175672"><ele>1347</ele><speed>11.97</speed><time>2016-06-30T16:02:59Z</time><pdop>6.0</pdop><geoidheight>53.00</geoidheight><course>43.3</course><type>1</type></trkpt>
      <trkpt lat="40.95041208" lon="-4.1312993"><ele>1575</ele><speed>9.49</speed><time>2016-06-30T16:03:03Z</time><pdop>5.0</pdop><geoidheight>53.00</geoidheight><course>79.9</course><type>1</type></trkpt>
      <trkpt lat="40.95045062" lon="-4.13106642"><ele>1462</ele><speed>10.27</speed><time>2016-06-30T16:03:05Z</time><pdop>4.0</pdop><geoidheight>53.00</geoidheight><course>81.6</course><type>1</type></trkpt>
      <trkpt lat="40.95045896" lon="-4.13093808"><ele>1440</ele><speed>10.46</speed><time>2016-06-30T16:03:06Z</time><pdop>4.0</pdop><geoidheight>53.00</geoidheight><course>83.5</course><type>1</type></trkpt>
      <trkpt lat="40.95046871" lon="-4.13080687"><ele>1414</ele><speed>10.65</speed><time>2016-06-30T16:03:07Z</time><pdop>4.0</pdop><geoidheight>53.00</geoidheight><course>84.6</course><type>1</type></trkpt>
      <trkpt lat="40.95047423" lon="-4.13068242"><ele>1395</ele><speed>10.41</speed><time>2016-06-30T16:03:08Z</time><pdop>4.0</pdop><geoidheight>53.00</geoidheight><course>87.1</course><type>1</type></trkpt>
      <trkpt lat="40.95047124" lon="-4.13056088"><ele>1378</ele><speed>10.09</speed><time>2016-06-30T16:03:09Z</time><pdop>4.0</pdop><geoidheight>53.00</geoidheight><course>88.9</course><type>1</type></trkpt>
      <trkpt lat="40.9504822" lon="-4.13043746"><ele>1364</ele><speed>10.13</speed><time>2016-06-30T16:03:10Z</time><pdop>4.0</pdop><geoidheight>53.00</geoidheight><course>89.1</course><type>1</type></trkpt>
      <trkpt lat="40.95047478" lon="-4.13031251"><ele>1361</ele><speed>10.31</speed><time>2016-06-30T16:03:11Z</time><pdop>4.0</pdop><geoidheight>53.00</geoidheight><course>92.1</course><type>1</type></trkpt>
      <trkpt lat="40.95043806" lon="-4.13019799"><ele>1351</ele><speed>10.14</speed><time>2016-06-30T16:03:12Z</time><pdop>3.0</pdop><geoidheight>53.00</geoidheight><course>111.1</course><type>1</type></trkpt>
      <trkpt lat="40.95037869" lon="-4.13012076"><ele>1346</ele><speed>10.39</speed><time>2016-06-30T16:03:13Z</time><pdop>3.0</pdop><geoidheight>53.00</geoidheight><course>136.7</course><type>1</type></trkpt>
      <trkpt lat="40.95029026" lon="-4.13007512"><ele>1346</ele><speed>10.51</speed><time>2016-06-30T16:03:14Z</time><pdop>4.0</pdop><geoidheight>53.00</geoidheight><course>158.8</course><type>1</type></trkpt>
      <trkpt lat="40.9501945" lon="-4.13007053"><ele>1347</ele><speed>9.77</speed><time>2016-06-30T16:03:15Z</time><pdop>4.0</pdop><geoidheight>53.00</geoidheight><course>175.1</course><type>1</type></trkpt>
      <trkpt lat="40.95011381" lon="-4.13009105"><ele>1343</ele><speed>8.80</speed><time>2016-06-30T16:03:16Z</time><pdop>3.0</pdop><geoidheight>53.00</geoidheight><course>186.8</course><type>1</type></trkpt>
      <trkpt lat="40.95005051" lon="-4.13012502"><ele>1337</ele><speed>8.05</speed><time>2016-06-30T16:03:17Z</time><pdop>3.0</pdop><geoidheight>53.00</geoidheight><course>200.3</course><type>1</type></trkpt>
      <trkpt lat="40.94998685" lon="-4.13016273"><ele>1340</ele><speed>8.11</speed><time>2016-06-30T16:03:18Z</time><pdop>4.0</pdop><geoidheight>53.00</geoidheight><course>204.9</course><type>1</type></trkpt>
      <trkpt lat="40.94985927" lon="-4.13026001"><ele>1347</ele><speed>8.48</speed><time>2016-06-30T16:03:20Z</time><pdop>7.0</pdop><geoidheight>53.00</geoidheight><course>212.3</course><type>1</type></trkpt>
      <trkpt lat="40.94971186" lon="-4.13037406"><ele>1345</ele><speed>9.55</speed><time>2016-06-30T16:03:22Z</time><pdop>6.0</pdop><geoidheight>53.00</geoidheight><course>213.5</course><type>1</type></trkpt>
      <trkpt lat="40.9495773" lon="-4.1304796"><ele>1345</ele><speed>8.95</speed><time>2016-06-30T16:03:24Z</time><pdop>6.0</pdop><geoidheight>53.00</geoidheight><course>209.1</course><type>1</type></trkpt>
      <trkpt lat="40.94943957" lon="-4.13060341"><ele>1340</ele><speed>9.75</speed><time>2016-06-30T16:03:26Z</time><pdop>6.0</pdop><geoidheight>53.00</geoidheight><course>215.2</course><type>1</type></trkpt>
      <trkpt lat="40.94929511" lon="-4.13070567"><ele>1334</ele><speed>9.39</speed><time>2016-06-30T16:03:28Z</time><pdop>6.0</pdop><geoidheight>53.00</geoidheight><course>208.0</course><type>1</type></trkpt>
      <trkpt lat="40.94912972" lon="-4.13076862"><ele>1330</ele><speed>9.37</speed><time>2016-06-30T16:03:30Z</time><pdop>6.0</pdop><geoidheight>53.00</geoidheight><course>196.6</course><type>1</type></trkpt>
      <trkpt lat="40.94895631" lon="-4.13089442"><ele>1327</ele><speed>10.22</speed><time>2016-06-30T16:03:32Z</time><pdop>9.0</pdop><geoidheight>53.00</geoidheight><course>206.6</course><type>1</type></trkpt>
      <trkpt lat="40.94878691" lon="-4.13099667"><ele>1323</ele><speed>10.22</speed><time>2016-06-30T16:03:34Z</time><pdop>7.0</pdop><geoidheight>53.00</geoidheight><course>206.0</course><type>1</type></trkpt>
      <trkpt lat="40.94863336" lon="-4.1311215"><ele>1325</ele><speed>9.65</speed><time>2016-06-30T16:03:36Z</time><pdop>8.0</pdop><geoidheight>53.00</geoidheight><course>205.2</course><type>1</type></trkpt>
      <trkpt lat="40.94840975" lon="-4.13128151"><ele>1324</ele><speed>10.16</speed><time>2016-06-30T16:03:39Z</time><pdop>14.0</pdop><geoidheight>53.00</geoidheight><course>214.1</course><type>1</type></trkpt>
      <trkpt lat="40.9481674" lon="-4.13147773"><ele>1315</ele><speed>10.99</speed><time>2016-06-30T16:03:42Z</time><pdop>11.0</pdop><geoidheight>53.00</geoidheight><course>218.5</course><type>1</type></trkpt>
      <trkpt lat="40.94796779" lon="-4.13161105"><ele>1310</ele><speed>11.39</speed><time>2016-06-30T16:03:44Z</time><pdop>12.0</pdop><geoidheight>53.00</geoidheight><course>213.5</course><type>1</type></trkpt>
      <trkpt lat="40.94780535" lon="-4.13179548"><ele>1299</ele><speed>10.07</speed><time>2016-06-30T16:03:47Z</time><pdop>9.0</pdop><geoidheight>53.00</geoidheight><course>224.0</course><type>1</type></trkpt>
      <trkpt lat="40.94765014" lon="-4.13204104"><ele>1294</ele><speed>10.22</speed><time>2016-06-30T16:03:50Z</time><pdop>11.0</pdop><geoidheight>53.00</geoidheight><course>229.3</course><type>1</type></trkpt>
      <trkpt lat="40.94748333" lon="-4.13222796"><ele>1289</ele><speed>10.95</speed><time>2016-06-30T16:03:52Z</time><pdop>12.0</pdop><geoidheight>53.00</geoidheight><course>221.7</course><type>1</type></trkpt>
      <trkpt lat="40.94717621" lon="-4.13249751"><ele>1329</ele><speed>9.34</speed><time>2016-06-30T16:03:57Z</time><pdop>20.0</pdop><geoidheight>53.00</geoidheight><course>216.8</course><type>1</type></trkpt>
      <trkpt lat="40.94681185" lon="-4.13268294"><ele>1300</ele><speed>8.57</speed><time>2016-06-30T16:04:02Z</time><pdop>16.0</pdop><geoidheight>53.00</geoidheight><course>203.2</course><type>1</type></trkpt>
      <trkpt lat="40.94646595" lon="-4.13280947"><ele>1290</ele><speed>11.09</speed><time>2016-06-30T16:04:05Z</time><pdop>14.0</pdop><geoidheight>53.00</geoidheight><course>202.1</course><type>1</type></trkpt>
      <trkpt lat="40.94617735" lon="-4.13299186"><ele>1278</ele><speed>10.77</speed><time>2016-06-30T16:04:09Z</time><pdop>15.0</pdop><geoidheight>53.00</geoidheight><course>211.5</course><type>1</type></trkpt>
      <trkpt lat="40.94590392" lon="-4.13314332"><ele>1267</ele><speed>11.37</speed><time>2016-06-30T16:04:12Z</time><pdop>13.0</pdop><geoidheight>53.00</geoidheight><course>204.1</course><type>1</type></trkpt>
      <trkpt lat="40.94562822" lon="-4.1332562"><ele>1261</ele><speed>9.35</speed><time>2016-06-30T16:04:15Z</time><pdop>14.0</pdop><geoidheight>53.00</geoidheight><course>206.4</course><type>1</type></trkpt>
      <trkpt lat="40.9453106" lon="-4.13338651"><ele>1253</ele><speed>10.42</speed><time>2016-06-30T16:04:18Z</time><pdop>15.0</pdop><geoidheight>53.00</geoidheight><course>198.6</course><type>1</type></trkpt>
      <trkpt lat="40.94487114" lon="-4.13332324"><ele>1248</ele><speed>11.24</speed><time>2016-06-30T16:04:22Z</time><pdop>24.0</pdop><geoidheight>53.00</geoidheight><course>182.5</course><type>1</type></trkpt>
      <trkpt lat="40.94448203" lon="-4.13343845"><ele>1237</ele><speed>12.46</speed><time>2016-06-30T16:04:25Z</time><pdop>19.0</pdop><geoidheight>53.00</geoidheight><course>181.3</course><type>1</type></trkpt>
      <trkpt lat="40.94427252" lon="-4.13302323"><ele>1226</ele><speed>13.52</speed><time>2016-06-30T16:04:29Z</time><pdop>13.0</pdop><geoidheight>53.00</geoidheight><course>118.3</course><type>1</type></trkpt>
      <trkpt lat="40.94404288" lon="-4.13273298"><ele>1216</ele><speed>11.20</speed><time>2016-06-30T16:04:32Z</time><pdop>18.0</pdop><geoidheight>53.00</geoidheight><course>131.4</course><type>1</type></trkpt>
      <trkpt lat="40.9444189" lon="-4.13279751"><ele>1202</ele><speed>5.63</speed><time>2016-06-30T16:04:37Z</time><pdop>23.0</pdop><geoidheight>53.00</geoidheight><course>359.2</course><type>1</type></trkpt>
      <trkpt lat="40.94469254" lon="-4.13323904"><ele>1186</ele><speed>15.97</speed><time>2016-06-30T16:04:40Z</time><pdop>14.0</pdop><geoidheight>53.00</geoidheight><course>332.5</course><type>1</type></trkpt>
      <trkpt lat="40.94417879" lon="-4.13278293"><ele>1182</ele><speed>8.77</speed><time>2016-06-30T16:04:49Z</time><pdop>36.0</pdop><geoidheight>53.00</geoidheight><course>166.3</course><type>1</type></trkpt>
      <trkpt lat="40.94361574" lon="-4.13271098"><ele>1173</ele><speed>8.40</speed><time>2016-06-30T16:04:54Z</time><pdop>24.0</pdop><geoidheight>53.00</geoidheight><course>164.8</course><type>1</type></trkpt>
      <trkpt lat="40.94321192" lon="-4.13251974"><ele>1162</ele><speed>9.95</speed><time>2016-06-30T16:04:58Z</time><pdop>16.0</pdop><geoidheight>53.00</geoidheight><course>150.8</course><type>1</type></trkpt>
      <trkpt lat="40.9429796" lon="-4.1321915"><ele>1155</ele><speed>9.44</speed><time>2016-06-30T16:05:02Z</time><pdop>13.0</pdop><geoidheight>53.00</geoidheight><course>139.3</course><type>1</type></trkpt>
      <trkpt lat="40.94286409" lon="-4.13182649"><ele>1148</ele><speed>11.36</speed><time>2016-06-30T16:05:05Z</time><pdop>13.0</pdop><geoidheight>53.00</geoidheight><course>102.1</course><type>1</type></trkpt>
      <trkpt lat="40.94287362" lon="-4.13144908"><ele>1142</ele><speed>8.70</speed><time>2016-06-30T16:05:08Z</time><pdop>12.0</pdop><geoidheight>53.00</geoidheight><course>79.5</course><type>1</type></trkpt>
      <trkpt lat="40.9429609" lon="-4.13106183"><ele>1139</ele><speed>10.84</speed><time>2016-06-30T16:05:11Z</time><pdop>12.0</pdop><geoidheight>53.00</geoidheight><course>76.2</course><type>1</type></trkpt>
      <trkpt lat="40.94283157" lon="-4.1307205"><ele>1136</ele><speed>12.73</speed><time>2016-06-30T16:05:13Z</time><pdop>13.0</pdop><geoidheight>53.00</geoidheight><course>108.1</course><type>1</type></trkpt>
      <trkpt lat="40.94255835" lon="-4.13069125"><ele>1126</ele><speed>7.27</speed><time>2016-06-30T16:05:16Z</time><pdop>13.0</pdop><geoidheight>53.00</geoidheight><course>166.5</course><type>1</type></trkpt>
      <trkpt lat="40.94234335" lon="-4.1307045"><ele>1115</ele><speed>9.93</speed><time>2016-06-30T16:05:18Z</time><pdop>10.0</pdop><geoidheight>53.00</geoidheight><course>171.6</course><type>1</type></trkpt>
      <trkpt lat="40.94203713" lon="-4.13085173"><ele>1102</ele><speed>13.88</speed><time>2016-06-30T16:05:20Z</time><pdop>9.0</pdop><geoidheight>53.00</geoidheight><course>199.5</course><type>1</type></trkpt>
      <trkpt lat="40.94190413" lon="-4.13100963"><ele>1095</ele><speed>15.59</speed><time>2016-06-30T16:05:21Z</time><pdop>10.0</pdop><geoidheight>53.00</geoidheight><course>215.7</course><type>1</type></trkpt>
      <trkpt lat="40.94169921" lon="-4.13131112"><ele>1087</ele><speed>11.02</speed><time>2016-06-30T16:05:24Z</time><pdop>15.0</pdop><geoidheight>53.00</geoidheight><course>225.0</course><type>1</type></trkpt>
      <trkpt lat="40.94161703" lon="-4.13167475"><ele>1075</ele><speed>12.99</speed><time>2016-06-30T16:05:27Z</time><pdop>11.0</pdop><geoidheight>53.00</geoidheight><course>250.8</course><type>1</type></trkpt>
      <trkpt lat="40.94160219" lon="-4.13196144"><ele>1069</ele><speed>13.53</speed><time>2016-06-30T16:05:29Z</time><pdop>7.0</pdop><geoidheight>53.00</geoidheight><course>265.7</course><type>1</type></trkpt>
      <trkpt lat="40.94188134" lon="-4.13178332"><ele>1060</ele><speed>11.04</speed><time>2016-06-30T16:05:33Z</time><pdop>7.0</pdop><geoidheight>53.00</geoidheight><course>54.9</course><type>1</type></trkpt>
      <trkpt lat="40.94193584" lon="-4.13163516"><ele>1061</ele><speed>9.23</speed><time>2016-06-30T16:05:34Z</time><pdop>6.0</pdop><geoidheight>53.00</geoidheight><course>67.8</course><type>1</type></trkpt>
      <trkpt lat="40.94197858" lon="-4.13142346"><ele>1059</ele><speed>8.29</speed><time>2016-06-30T16:05:36Z</time><pdop>6.0</pdop><geoidheight>53.00</geoidheight><course>83.6</course><type>1</type></trkpt>
      <trkpt lat="40.94200706" lon="-4.13119606"><ele>1055</ele><speed>10.29</speed><time>2016-06-30T16:05:38Z</time><pdop>6.0</pdop><geoidheight>53.00</geoidheight><course>85.2</course><type>1</type></trkpt>
      <trkpt lat="40.94202422" lon="-4.13106416"><ele>1055</ele><speed>10.55</speed><time>2016-06-30T16:05:39Z</time><pdop>5.0</pdop><geoidheight>53.00</geoidheight><course>82.3</course><type>1</type></trkpt>
      <trkpt lat="40.94204854" lon="-4.13093689"><ele>1055</ele><speed>9.63</speed><time>2016-06-30T16:05:40Z</time><pdop>6.0</pdop><geoidheight>53.00</geoidheight><course>79.6</course><type>1</type></trkpt>
      <trkpt lat="40.94216078" lon="-4.13086172"><ele>1052</ele><speed>6.34</speed><time>2016-06-30T16:05:42Z</time><pdop>5.0</pdop><geoidheight>53.00</geoidheight><course>25.9</course><type>1</type></trkpt>
      <trkpt lat="40.94234206" lon="-4.13082636"><ele>1049</ele><speed>7.94</speed><time>2016-06-30T16:05:45Z</time><pdop>9.0</pdop><geoidheight>53.00</geoidheight><course>5.7</course><type>1</type></trkpt>
      <trkpt lat="40.94258556" lon="-4.13086197"><ele>1047</ele><speed>7.16</speed><time>2016-06-30T16:05:48Z</time><pdop>7.0</pdop><geoidheight>53.00</geoidheight><course>359.4</course><type>1</type></trkpt>
      <trkpt lat="40.94271006" lon="-4.13084022"><ele>1043</ele><speed>2.24</speed><time>2016-06-30T16:05:52Z</time><pdop>5.0</pdop><geoidheight>53.00</geoidheight><course>6.3</course><type>1</type></trkpt>
      <trkpt lat="40.94280645" lon="-4.13072712"><ele>1005</ele><speed>0.00</speed><time>2016-06-30T16:09:05Z</time><pdop>4.0</pdop><geoidheight>53.00</geoidheight><course>0.0</course><type>1</type></trkpt>
      <trkpt lat="40.94278427" lon="-4.13075768"><ele>1008</ele><speed>0.00</speed><time>2016-06-30T16:10:05Z</time><pdop>3.0</pdop><geoidheight>53.00</geoidheight><course>0.0</course><type>1</type></trkpt>
      <trkpt lat="40.94277493" lon="-4.13076973"><ele>1009</ele><speed>0.00</speed><time>2016-06-30T16:11:05Z</time><pdop>3.0</pdop><geoidheight>53.00</geoidheight><course>0.0</course><type>1</type></trkpt>
      <trkpt lat="40.94276789" lon="-4.1307791"><ele>1009</ele><speed>0.00</speed><time>2016-06-30T16:12:05Z</time><pdop>4.0</pdop><geoidheight>53.00</geoidheight><course>0.0</course><type>1</type></trkpt>
      <trkpt lat="40.94276644" lon="-4.1307806"><ele>1009</ele><speed>0.00</speed><time>2016-06-30T16:13:05Z</time><pdop>3.0</pdop><geoidheight>53.00</geoidheight><course>0.0</course><type>1</type></trkpt>
      <trkpt lat="40.94276187" lon="-4.13081972"><ele>1014</ele><speed>0.00</speed><time>2016-06-30T16:14:05Z</time><pdop>3.0</pdop><geoidheight>53.00</geoidheight><course>0.0</course><type>1</type></trkpt>
      <trkpt lat="40.9427585" lon="-4.13082013"><ele>1015</ele><speed>0.00</speed><time>2016-06-30T16:15:05Z</time><pdop>3.0</pdop><geoidheight>53.00</geoidheight><course>0.0</course><type>1</type></trkpt>
      <trkpt lat="40.94273764" lon="-4.13079994"><ele>1013</ele><speed>0.00</speed><time>2016-06-30T16:16:05Z</time><pdop>3.0</pdop><geoidheight>53.00</geoidheight><course>0.0</course><type>1</type></trkpt>
      <trkpt lat="40.94273483" lon="-4.13078581"><ele>1013</ele><speed>0.00</speed><time>2016-06-30T16:17:05Z</time><pdop>3.0</pdop><geoidheight>53.00</geoidheight><course>0.0</course><type>1</type></trkpt>
      <trkpt lat="40.94273788" lon="-4.13078306"><ele>1012</ele><speed>0.00</speed><time>2016-06-30T16:18:05Z</time><pdop>3.0</pdop><geoidheight>53.00</geoidheight><course>0.0</course><type>1</type></trkpt>
      <trkpt lat="40.94271712" lon="-4.1307856"><ele>1016</ele><speed>0.00</speed><time>2016-06-30T16:19:05Z</time><pdop>3.0</pdop><geoidheight>53.00</geoidheight><course>0.0</course><type>1</type></trkpt>
      <trkpt lat="40.94274513" lon="-4.1308247"><ele>1017</ele><speed>0.00</speed><time>2016-06-30T16:20:05Z</time><pdop>3.0</pdop><geoidheight>53.00</geoidheight><course>0.0</course><type>1</type></trkpt>
      <trkpt lat="40.94275294" lon="-4.13081976"><ele>1015</ele><speed>0.00</speed><time>2016-06-30T16:21:05Z</time><pdop>3.0</pdop><geoidheight>53.00</geoidheight><course>0.0</course><type>1</type></trkpt>
      <trkpt lat="40.94275911" lon="-4.13080731"><ele>1019</ele><speed>0.00</speed><time>2016-06-30T16:22:05Z</time><pdop>3.0</pdop><geoidheight>53.00</geoidheight><course>0.0</course><type>1</type></trkpt>
      <trkpt lat="40.94275909" lon="-4.13080668"><ele>1019</ele><speed>0.00</speed><time>2016-06-30T16:23:05Z</time><pdop>3.0</pdop><geoidheight>53.00</geoidheight><course>0.0</course><type>1</type></trkpt>
      <trkpt lat="40.94275716" lon="-4.130806"><ele>1022</ele><speed>0.53</speed><time>2016-06-30T16:24:05Z</time><pdop>3.0</pdop><geoidheight>53.00</geoidheight><course>215.9</course><type>1</type></trkpt>
      <trkpt lat="40.94274572" lon="-4.13080602"><ele>1019</ele><speed>0.00</speed><time>2016-06-30T16:25:05Z</time><pdop>3.0</pdop><geoidheight>53.00</geoidheight><course>0.0</course><type>1</type></trkpt>
      <trkpt lat="40.94274681" lon="-4.13080669"><ele>1018</ele><speed>0.00</speed><time>2016-06-30T16:26:05Z</time><pdop>3.0</pdop><geoidheight>53.00</geoidheight><course>0.0</course><type>1</type></trkpt>
      <trkpt lat="40.94275805" lon="-4.1307772"><ele>1019</ele><speed>0.00</speed><time>2016-06-30T16:27:05Z</time><pdop>3.0</pdop><geoidheight>53.00</geoidheight><course>0.0</course><type>1</type></trkpt>
      <trkpt lat="40.94276149" lon="-4.13078551"><ele>1021</ele><speed>0.56</speed><time>2016-06-30T16:28:05Z</time><pdop>3.0</pdop><geoidheight>53.00</geoidheight><course>253.1</course><type>1</type></trkpt>
      <trkpt lat="40.94274551" lon="-4.13079889"><ele>1021</ele><speed>0.00</speed><time>2016-06-30T16:29:05Z</time><pdop>3.0</pdop><geoidheight>53.00</geoidheight><course>0.0</course><type>1</type></trkpt>
      <trkpt lat="40.94274528" lon="-4.13079913"><ele>1021</ele><speed>0.00</speed><time>2016-06-30T16:30:05Z</time><pdop>3.0</pdop><geoidheight>53.00</geoidheight><course>0.0</course><type>1</type></trkpt>
      <trkpt lat="40.94275053" lon="-4.13079952"><ele>1020</ele><speed>0.00</speed><time>2016-06-30T16:31:05Z</time><pdop>3.0</pdop><geoidheight>53.00</geoidheight><course>0.0</course><type>1</type></trkpt>
      <trkpt lat="40.94275235" lon="-4.13079955"><ele>1019</ele><speed>0.00</speed><time>2016-06-30T16:32:05Z</time><pdop>3.0</pdop><geoidheight>53.00</geoidheight><course>0.0</course><type>1</type></trkpt>
      <trkpt lat="40.94275213" lon="-4.13079957"><ele>1019</ele><speed>0.00</speed><time>2016-06-30T16:33:05Z</time><pdop>3.0</pdop><geoidheight>53.00</geoidheight><course>0.0</course><type>1</type></trkpt>
      <trkpt lat="40.94275236" lon="-4.13079992"><ele>1019</ele><speed>0.00</speed><time>2016-06-30T16:34:05Z</time><pdop>3.0</pdop><geoidheight>53.00</geoidheight><course>0.0</course><type>1</type></trkpt>
      <trkpt lat="40.94273413" lon="-4.13079919"><ele>1015</ele><speed>0.00</speed><time>2016-06-30T16:35:05Z</time><pdop>3.0</pdop><geoidheight>53.00</geoidheight><course>0.0</course><type>1</type></trkpt>
      <trkpt lat="40.94273804" lon="-4.13082446"><ele>1013</ele><speed>0.00</speed><time>2016-06-30T16:36:05Z</time><pdop>3.0</pdop><geoidheight>53.00</geoidheight><course>0.0</course><type>1</type></trkpt>
      <trkpt lat="40.94273813" lon="-4.13082327"><ele>1013</ele><speed>0.00</speed><time>2016-06-30T16:37:05Z</time><pdop>3.0</pdop><geoidheight>53.00</geoidheight><course>0.0</course><type>1</type></trkpt>
      <trkpt lat="40.94269087" lon="-4.13086161"><ele>1014</ele><speed>1.19</speed><time>2016-06-30T16:37:31Z</time><pdop>3.0</pdop><geoidheight>53.00</geoidheight><course>240.6</course><type>1</type></trkpt>
      <trkpt lat="40.94263846" lon="-4.13089141"><ele>1016</ele><speed>0.83</speed><time>2016-06-30T16:37:40Z</time><pdop>3.0</pdop><geoidheight>53.00</geoidheight><course>235.7</course><type>1</type></trkpt>
      <trkpt lat="40.9425792" lon="-4.13088713"><ele>1017</ele><speed>1.40</speed><time>2016-06-30T16:37:47Z</time><pdop>3.0</pdop><geoidheight>53.00</geoidheight><course>183.3</course><type>1</type></trkpt>
      <trkpt lat="40.94256445" lon="-4.13097238"><ele>1017</ele><speed>1.27</speed><time>2016-06-30T16:37:55Z</time><pdop>3.0</pdop><geoidheight>53.00</geoidheight><course>273.8</course><type>1</type></trkpt>
      <trkpt lat="40.9425626" lon="-4.13093636"><ele>1018</ele><speed>0.00</speed><time>2016-06-30T16:38:55Z</time><pdop>3.0</pdop><geoidheight>53.00</geoidheight><course>0.0</course><type>1</type></trkpt>
      <trkpt lat="40.94253954" lon="-4.13078884"><ele>1020</ele><speed>1.10</speed><time>2016-06-30T16:39:26Z</time><pdop>9.0</pdop><geoidheight>53.00</geoidheight><course>113.2</course><type>1</type></trkpt>
      <trkpt lat="40.94251867" lon="-4.13055595"><ele>1017</ele><speed>1.43</speed><time>2016-06-30T16:39:42Z</time><pdop>9.0</pdop><geoidheight>53.00</geoidheight><course>95.0</course><type>1</type></trkpt>
      <trkpt lat="40.94248898" lon="-4.13042382"><ele>1017</ele><speed>0.00</speed><time>2016-06-30T16:40:42Z</time><pdop>3.0</pdop><geoidheight>53.00</geoidheight><course>0.0</course><type>1</type></trkpt>
      <trkpt lat="40.94248904" lon="-4.13042388"><ele>1017</ele><speed>0.00</speed><time>2016-06-30T16:41:42Z</time><pdop>3.0</pdop><geoidheight>53.00</geoidheight><course>0.0</course><type>1</type></trkpt>
      <trkpt lat="40.94249697" lon="-4.13044345"><ele>1017</ele><speed>0.00</speed><time>2016-06-30T16:42:42Z</time><pdop>3.0</pdop><geoidheight>53.00</geoidheight><course>0.0</course><type>1</type></trkpt>
      <trkpt lat="40.94249663" lon="-4.13044336"><ele>1017</ele><speed>0.00</speed><time>2016-06-30T16:43:42Z</time><pdop>3.0</pdop><geoidheight>53.00</geoidheight><course>0.0</course><type>1</type></trkpt>
      <trkpt lat="40.94248562" lon="-4.13044681"><ele>1016</ele><speed>0.00</speed><time>2016-06-30T16:44:42Z</time><pdop>3.0</pdop><geoidheight>53.00</geoidheight><course>0.0</course><type>1</type></trkpt>
      <trkpt lat="40.94248883" lon="-4.13044633"><ele>1013</ele><speed>0.00</speed><time>2016-06-30T16:45:42Z</time><pdop>3.0</pdop><geoidheight>53.00</geoidheight><course>0.0</course><type>1</type></trkpt>
      <trkpt lat="40.94251094" lon="-4.13045087"><ele>1017</ele><speed>0.00</speed><time>2016-06-30T16:46:42Z</time><pdop>3.0</pdop><geoidheight>53.00</geoidheight><course>0.0</course><type>1</type></trkpt>
      <trkpt lat="40.94248439" lon="-4.13044786"><ele>1016</ele><speed>0.00</speed><time>2016-06-30T16:47:42Z</time><pdop>3.0</pdop><geoidheight>53.00</geoidheight><course>0.0</course><type>1</type></trkpt>
      <trkpt lat="40.94246993" lon="-4.13044291"><ele>1014</ele><speed>0.00</speed><time>2016-06-30T16:48:42Z</time><pdop>3.0</pdop><geoidheight>53.00</geoidheight><course>0.0</course><type>1</type></trkpt>
      <trkpt lat="40.94248337" lon="-4.13045277"><ele>1013</ele><speed>0.00</speed><time>2016-06-30T16:49:42Z</time><pdop>3.0</pdop><geoidheight>53.00</geoidheight><course>0.0</course><type>1</type></trkpt>
      <trkpt lat="40.94248332" lon="-4.1304528"><ele>1013</ele><speed>0.00</speed><time>2016-06-30T16:50:42Z</time><pdop>3.0</pdop><geoidheight>53.00</geoidheight><course>0.0</course><type>1</type></trkpt>
      <trkpt lat="40.9424973" lon="-4.13043728"><ele>1017</ele><speed>0.00</speed><time>2016-06-30T16:51:42Z</time><pdop>3.0</pdop><geoidheight>53.00</geoidheight><course>0.0</course><type>1</type></trkpt>
      <trkpt lat="40.94250516" lon="-4.13043844"><ele>1015</ele><speed>0.00</speed><time>2016-06-30T16:52:42Z</time><pdop>3.0</pdop><geoidheight>53.00</geoidheight><course>0.0</course><type>1</type></trkpt>
      <trkpt lat="40.94250398" lon="-4.13043701"><ele>1015</ele><speed>0.00</speed><time>2016-06-30T16:53:42Z</time><pdop>3.0</pdop><geoidheight>53.00</geoidheight><course>0.0</course><type>1</type></trkpt>
      <trkpt lat="40.94250328" lon="-4.13043832"><ele>1015</ele><speed>0.00</speed><time>2016-06-30T16:54:42Z</time><pdop>9.0</pdop><geoidheight>53.00</geoidheight><course>0.0</course><type>1</type></trkpt>
      <trkpt lat="40.94250287" lon="-4.1304391"><ele>1015</ele><speed>0.00</speed><time>2016-06-30T16:55:42Z</time><pdop>9.0</pdop><geoidheight>53.00</geoidheight><course>0.0</course><type>1</type></trkpt>
      <trkpt lat="40.94250249" lon="-4.13043945"><ele>1015</ele><speed>0.00</speed><time>2016-06-30T16:56:42Z</time><pdop>10.0</pdop><geoidheight>53.00</geoidheight><course>0.0</course><type>1</type></trkpt>
      <trkpt lat="40.94250238" lon="-4.13043957"><ele>1015</ele><speed>0.00</speed><time>2016-06-30T16:57:42Z</time><pdop>10.0</pdop><geoidheight>53.00</geoidheight><course>0.0</course><type>1</type></trkpt>
      <trkpt lat="40.94250222" lon="-4.13043976"><ele>1015</ele><speed>0.00</speed><time>2016-06-30T16:58:42Z</time><pdop>10.0</pdop><geoidheight>53.00</geoidheight><course>0.0</course><type>1</type></trkpt>
      <trkpt lat="40.94250212" lon="-4.1304399"><ele>1015</ele><speed>0.00</speed><time>2016-06-30T16:59:42Z</time><pdop>10.0</pdop><geoidheight>53.00</geoidheight><course>0.0</course><type>1</type></trkpt>
      <trkpt lat="40.94250208" lon="-4.13043991"><ele>1015</ele><speed>0.00</speed><time>2016-06-30T17:00:42Z</time><pdop>10.0</pdop><geoidheight>53.00</geoidheight><course>0.0</course><type>1</type></trkpt>
      <trkpt lat="40.94250199" lon="-4.13044004"><ele>1015</ele><speed>0.00</speed><time>2016-06-30T17:01:42Z</time><pdop>9.0</pdop><geoidheight>53.00</geoidheight><course>0.0</course><type>1</type></trkpt>
      <trkpt lat="40.94250197" lon="-4.13044"><ele>1015</ele><speed>0.00</speed><time>2016-06-30T17:02:42Z</time><pdop>11.0</pdop><geoidheight>53.00</geoidheight><course>0.0</course><type>1</type></trkpt>
      <trkpt lat="40.94250178" lon="-4.13044018"><ele>1015</ele><speed>0.00</speed><time>2016-06-30T17:03:42Z</time><pdop>10.0</pdop><geoidheight>53.00</geoidheight><course>0.0</course><type>1</type></trkpt>
      <trkpt lat="40.9425023" lon="-4.13044039"><ele>1015</ele><speed>0.00</speed><time>2016-06-30T17:04:42Z</time><pdop>3.0</pdop><geoidheight>53.00</geoidheight><course>0.0</course><type>1</type></trkpt>
      <trkpt lat="40.94250408" lon="-4.1304209"><ele>1016</ele><speed>0.00</speed><time>2016-06-30T17:05:42Z</time><pdop>9.0</pdop><geoidheight>53.00</geoidheight><course>0.0</course><type>1</type></trkpt>
      <trkpt lat="40.94250383" lon="-4.13042129"><ele>1016</ele><speed>0.00</speed><time>2016-06-30T17:06:42Z</time><pdop>9.0</pdop><geoidheight>53.00</geoidheight><course>0.0</course><type>1</type></trkpt>
      <trkpt lat="40.94250362" lon="-4.13042202"><ele>1016</ele><speed>0.00</speed><time>2016-06-30T17:07:42Z</time><pdop>9.0</pdop><geoidheight>53.00</geoidheight><course>0.0</course><type>1</type></trkpt>
      <trkpt lat="40.94250348" lon="-4.1304222"><ele>1016</ele><speed>0.00</speed><time>2016-06-30T17:08:42Z</time><pdop>9.0</pdop><geoidheight>53.00</geoidheight><course>0.0</course><type>1</type></trkpt>
      <trkpt lat="40.9425033" lon="-4.13042266"><ele>1016</ele><speed>0.00</speed><time>2016-06-30T17:09:42Z</time><pdop>9.0</pdop><geoidheight>53.00</geoidheight><course>0.0</course><type>1</type></trkpt>
      <trkpt lat="40.94250296" lon="-4.13042293"><ele>1016</ele><speed>0.00</speed><time>2016-06-30T17:10:42Z</time><pdop>3.0</pdop><geoidheight>53.00</geoidheight><course>0.0</course><type>1</type></trkpt>
      <trkpt lat="40.94250362" lon="-4.13042422"><ele>1016</ele><speed>0.00</speed><time>2016-06-30T17:11:42Z</time><pdop>9.0</pdop><geoidheight>53.00</geoidheight><course>0.0</course><type>1</type></trkpt>
      <trkpt lat="40.94250406" lon="-4.13042522"><ele>1016</ele><speed>0.00</speed><time>2016-06-30T17:12:42Z</time><pdop>10.0</pdop><geoidheight>53.00</geoidheight><course>0.0</course><type>1</type></trkpt>
      <trkpt lat="40.94250397" lon="-4.13042549"><ele>1016</ele><speed>0.00</speed><time>2016-06-30T17:13:42Z</time><pdop>9.0</pdop><geoidheight>53.00</geoidheight><course>0.0</course><type>1</type></trkpt>
      <trkpt lat="40.94250067" lon="-4.13041507"><ele>1023</ele><speed>0.00</speed><time>2016-06-30T17:14:42Z</time><pdop>3.0</pdop><geoidheight>53.00</geoidheight><course>0.0</course><type>1</type></trkpt>
      <trkpt lat="40.94250219" lon="-4.13041689"><ele>1023</ele><speed>0.00</speed><time>2016-06-30T17:15:42Z</time><pdop>9.0</pdop><geoidheight>53.00</geoidheight><course>0.0</course><type>1</type></trkpt>
      <trkpt lat="40.94250244" lon="-4.13041782"><ele>1023</ele><speed>0.00</speed><time>2016-06-30T17:16:42Z</time><pdop>9.0</pdop><geoidheight>53.00</geoidheight><course>0.0</course><type>1</type></trkpt>
      <trkpt lat="40.94250255" lon="-4.13041833"><ele>1023</ele><speed>0.00</speed><time>2016-06-30T17:17:42Z</time><pdop>9.0</pdop><geoidheight>53.00</geoidheight><course>0.0</course><type>1</type></trkpt>
      <trkpt lat="40.94250236" lon="-4.13041858"><ele>1023</ele><speed>0.00</speed><time>2016-06-30T17:18:42Z</time><pdop>9.0</pdop><geoidheight>53.00</geoidheight><course>0.0</course><type>1</type></trkpt>
      <trkpt lat="40.94250232" lon="-4.13041873"><ele>1023</ele><speed>0.00</speed><time>2016-06-30T17:19:42Z</time><pdop>10.0</pdop><geoidheight>53.00</geoidheight><course>0.0</course><type>1</type></trkpt>
      <trkpt lat="40.94250258" lon="-4.13041911"><ele>1023</ele><speed>0.00</speed><time>2016-06-30T17:20:42Z</time><pdop>10.0</pdop><geoidheight>53.00</geoidheight><course>0.0</course><type>1</type></trkpt>
      <trkpt lat="40.94250282" lon="-4.13041915"><ele>1023</ele><speed>0.00</speed><time>2016-06-30T17:21:42Z</time><pdop>10.0</pdop><geoidheight>53.00</geoidheight><course>0.0</course><type>1</type></trkpt>
      <trkpt lat="40.94250299" lon="-4.13041925"><ele>1023</ele><speed>0.00</speed><time>2016-06-30T17:22:42Z</time><pdop>9.0</pdop><geoidheight>53.00</geoidheight><course>0.0</course><type>1</type></trkpt>
      <trkpt lat="40.94250295" lon="-4.13041931"><ele>1023</ele><speed>0.00</speed><time>2016-06-30T17:23:42Z</time><pdop>9.0</pdop><geoidheight>53.00</geoidheight><course>0.0</course><type>1</type></trkpt>
      <trkpt lat="40.94250275" lon="-4.13041976"><ele>1023</ele><speed>0.00</speed><time>2016-06-30T17:24:42Z</time><pdop>9.0</pdop><geoidheight>53.00</geoidheight><course>0.0</course><type>1</type></trkpt>
      <trkpt lat="40.94250292" lon="-4.13042036"><ele>1023</ele><speed>0.00</speed><time>2016-06-30T17:25:42Z</time><pdop>3.0</pdop><geoidheight>53.00</geoidheight><course>0.0</course><type>1</type></trkpt>
      <trkpt lat="40.94250341" lon="-4.13042104"><ele>1023</ele><speed>0.00</speed><time>2016-06-30T17:26:42Z</time><pdop>9.0</pdop><geoidheight>53.00</geoidheight><course>0.0</course><type>1</type></trkpt>
      <trkpt lat="40.94250369" lon="-4.13042167"><ele>1023</ele><speed>0.00</speed><time>2016-06-30T17:27:42Z</time><pdop>4.0</pdop><geoidheight>53.00</geoidheight><course>0.0</course><type>1</type></trkpt>
      <trkpt lat="40.94250382" lon="-4.13042229"><ele>1023</ele><speed>0.00</speed><time>2016-06-30T17:28:42Z</time><pdop>9.0</pdop><geoidheight>53.00</geoidheight><course>0.0</course><type>1</type></trkpt>
      <trkpt lat="40.94250394" lon="-4.13042237"><ele>1023</ele><speed>0.00</speed><time>2016-06-30T17:29:42Z</time><pdop>13.0</pdop><geoidheight>53.00</geoidheight><course>0.0</course><type>1</type></trkpt>
      <trkpt lat="40.94250401" lon="-4.13042228"><ele>1023</ele><speed>0.00</speed><time>2016-06-30T17:30:42Z</time><pdop>13.0</pdop><geoidheight>53.00</geoidheight><course>0.0</course><type>1</type></trkpt>
      <trkpt lat="40.94250398" lon="-4.13042226"><ele>1023</ele><speed>0.00</speed><time>2016-06-30T17:31:42Z</time><pdop>14.0</pdop><geoidheight>53.00</geoidheight><course>0.0</course><type>1</type></trkpt>
      <trkpt lat="40.94250383" lon="-4.13042234"><ele>1023</ele><speed>0.00</speed><time>2016-06-30T17:32:42Z</time><pdop>9.0</pdop><geoidheight>53.00</geoidheight><course>0.0</course><type>1</type></trkpt>
      <trkpt lat="40.94250338" lon="-4.13042273"><ele>1023</ele><speed>0.00</speed><time>2016-06-30T17:33:42Z</time><pdop>9.0</pdop><geoidheight>53.00</geoidheight><course>0.0</course><type>1</type></trkpt>
      <trkpt lat="40.94250324" lon="-4.13042283"><ele>1023</ele><speed>0.00</speed><time>2016-06-30T17:34:42Z</time><pdop>9.0</pdop><geoidheight>53.00</geoidheight><course>0.0</course><type>1</type></trkpt>
      <trkpt lat="40.94250289" lon="-4.13042279"><ele>1023</ele><speed>0.00</speed><time>2016-06-30T17:35:42Z</time><pdop>9.0</pdop><geoidheight>53.00</geoidheight><course>0.0</course><type>1</type></trkpt>
      <trkpt lat="40.94250302" lon="-4.13042299"><ele>1023</ele><speed>0.00</speed><time>2016-06-30T17:36:42Z</time><pdop>10.0</pdop><geoidheight>53.00</geoidheight><course>0.0</course><type>1</type></trkpt>
      <trkpt lat="40.94250268" lon="-4.13042325"><ele>1023</ele><speed>0.00</speed><time>2016-06-30T17:37:42Z</time><pdop>3.0</pdop><geoidheight>53.00</geoidheight><course>0.0</course><type>1</type></trkpt>
      <trkpt lat="40.94250215" lon="-4.13042372"><ele>1023</ele><speed>0.00</speed><time>2016-06-30T17:38:42Z</time><pdop>3.0</pdop><geoidheight>53.00</geoidheight><course>0.0</course><type>1</type></trkpt>
      <trkpt lat="40.94250266" lon="-4.13042537"><ele>1023</ele><speed>0.00</speed><time>2016-06-30T17:39:42Z</time><pdop>4.0</pdop><geoidheight>53.00</geoidheight><course>0.0</course><type>1</type></trkpt>
      <trkpt lat="40.94250286" lon="-4.13042628"><ele>1023</ele><speed>0.00</speed><time>2016-06-30T17:40:43Z</time><pdop>9.0</pdop><geoidheight>53.00</geoidheight><course>0.0</course><type>1</type></trkpt>
      <trkpt lat="40.94254656" lon="-4.13055506"><ele>1023</ele><speed>0.76</speed><time>2016-06-30T17:41:43Z</time><pdop>3.0</pdop><geoidheight>53.00</geoidheight><course>256.5</course><type>1</type></trkpt>
      <trkpt lat="40.94253663" lon="-4.13062611"><ele>1025</ele><speed>1.15</speed><time>2016-06-30T17:41:48Z</time><pdop>3.0</pdop><geoidheight>53.00</geoidheight><course>251.8</course><type>1</type></trkpt>
      <trkpt lat="40.94252297" lon="-4.13070476"><ele>1026</ele><speed>1.08</speed><time>2016-06-30T17:41:55Z</time><pdop>3.0</pdop><geoidheight>53.00</geoidheight><course>250.5</course><type>1</type></trkpt>
      <trkpt lat="40.94252903" lon="-4.1307851"><ele>1026</ele><speed>0.78</speed><time>2016-06-30T17:42:02Z</time><pdop>3.0</pdop><geoidheight>53.00</geoidheight><course>278.9</course><type>1</type></trkpt>
      <trkpt lat="40.9424975" lon="-4.13084147"><ele>1024</ele><speed>0.00</speed><time>2016-06-30T17:43:02Z</time><pdop>5.0</pdop><geoidheight>53.00</geoidheight><course>0.0</course><type>1</type></trkpt>
      <trkpt lat="40.94249759" lon="-4.13084148"><ele>1024</ele><speed>0.00</speed><time>2016-06-30T17:44:02Z</time><pdop>3.0</pdop><geoidheight>53.00</geoidheight><course>0.0</course><type>1</type></trkpt>
      <trkpt lat="40.94249765" lon="-4.13084145"><ele>1024</ele><speed>0.00</speed><time>2016-06-30T17:45:02Z</time><pdop>3.0</pdop><geoidheight>53.00</geoidheight><course>0.0</course><type>1</type></trkpt>
      <trkpt lat="40.9424977" lon="-4.1308415"><ele>1024</ele><speed>0.00</speed><time>2016-06-30T17:46:02Z</time><pdop>3.0</pdop><geoidheight>53.00</geoidheight><course>0.0</course><type>1</type></trkpt>
      <trkpt lat="40.94249778" lon="-4.13084099"><ele>1024</ele><speed>0.00</speed><time>2016-06-30T17:47:02Z</time><pdop>3.0</pdop><geoidheight>53.00</geoidheight><course>0.0</course><type>1</type></trkpt>
    </trkseg>
  </trk>
</gpx>